<?xml version="1.0" encoding="UTF-8" standalone="no" ?>
<gpx xmlns="http://www.topografix.com/GPX/1/1" xmlns:xsi="http://www.w3.org/2001/XMLSchema-instance" xsi:schemaLocation="http://www.topografix.com/GPX/1/1 http://www.topografix.com/GPX/1/1/gpx.xsd" version="1.1" creator="VisuGPX - https://www.visugpx.com">
  <metadata>
    <name>Ugny - sur les traces de la rando de laix 2023</name>
  </metadata>
  <trk>
    <name><![CDATA[230618 Ugny - sur la rando laix]]></name>
    <trkseg>
      <trkpt lat="49.46753" lon="5.7005">
        <ele>305</ele>
        <time>2023-06-18T06:05:08Z</time>
      </trkpt>
      <trkpt lat="49.46753" lon="5.7005">
        <ele>304.79998779297</ele>
        <time>2023-06-18T06:05:12Z</time>
      </trkpt>
      <trkpt lat="49.46753" lon="5.7005">
        <ele>304.79998779297</ele>
        <time>2023-06-18T06:05:14Z</time>
      </trkpt>
      <trkpt lat="49.46753" lon="5.7005">
        <ele>304.79998779297</ele>
        <time>2023-06-18T06:05:16Z</time>
      </trkpt>
      <trkpt lat="49.46753" lon="5.7005">
        <ele>304.79998779297</ele>
        <time>2023-06-18T06:05:18Z</time>
      </trkpt>
      <trkpt lat="49.46753" lon="5.7005">
        <ele>304.79998779297</ele>
        <time>2023-06-18T06:05:20Z</time>
      </trkpt>
      <trkpt lat="49.46752" lon="5.7005">
        <ele>304.79998779297</ele>
        <time>2023-06-18T06:05:22Z</time>
      </trkpt>
      <trkpt lat="49.46752" lon="5.7005">
        <ele>304.79998779297</ele>
        <time>2023-06-18T06:05:24Z</time>
      </trkpt>
      <trkpt lat="49.46752" lon="5.7005">
        <ele>304.60000610352</ele>
        <time>2023-06-18T06:05:26Z</time>
      </trkpt>
      <trkpt lat="49.46752" lon="5.7005">
        <ele>304.60000610352</ele>
        <time>2023-06-18T06:05:27Z</time>
      </trkpt>
      <trkpt lat="49.46752" lon="5.70052">
        <ele>304.60000610352</ele>
        <time>2023-06-18T06:05:28Z</time>
      </trkpt>
      <trkpt lat="49.46751" lon="5.70053">
        <ele>304.60000610352</ele>
        <time>2023-06-18T06:05:29Z</time>
      </trkpt>
      <trkpt lat="49.4675" lon="5.70054">
        <ele>304.60000610352</ele>
        <time>2023-06-18T06:05:30Z</time>
      </trkpt>
      <trkpt lat="49.46748" lon="5.70056">
        <ele>304.60000610352</ele>
        <time>2023-06-18T06:05:32Z</time>
      </trkpt>
      <trkpt lat="49.46745" lon="5.7006">
        <ele>304.79998779297</ele>
        <time>2023-06-18T06:05:34Z</time>
      </trkpt>
      <trkpt lat="49.46744" lon="5.70061">
        <ele>304.79998779297</ele>
        <time>2023-06-18T06:05:35Z</time>
      </trkpt>
      <trkpt lat="49.46742" lon="5.70063">
        <ele>304.79998779297</ele>
        <time>2023-06-18T06:05:36Z</time>
      </trkpt>
      <trkpt lat="49.46739" lon="5.70068">
        <ele>304.79998779297</ele>
        <time>2023-06-18T06:05:38Z</time>
      </trkpt>
      <trkpt lat="49.46736" lon="5.70072">
        <ele>305</ele>
        <time>2023-06-18T06:05:40Z</time>
      </trkpt>
      <trkpt lat="49.46732" lon="5.70076">
        <ele>305.20001220703</ele>
        <time>2023-06-18T06:05:42Z</time>
      </trkpt>
      <trkpt lat="49.46728" lon="5.7008">
        <ele>305.20001220703</ele>
        <time>2023-06-18T06:05:44Z</time>
      </trkpt>
      <trkpt lat="49.46725" lon="5.70085">
        <ele>305.20001220703</ele>
        <time>2023-06-18T06:05:46Z</time>
      </trkpt>
      <trkpt lat="49.46721" lon="5.70089">
        <ele>305.39999389648</ele>
        <time>2023-06-18T06:05:48Z</time>
      </trkpt>
      <trkpt lat="49.46716" lon="5.70093">
        <ele>305.39999389648</ele>
        <time>2023-06-18T06:05:50Z</time>
      </trkpt>
      <trkpt lat="49.46714" lon="5.70095">
        <ele>305.60000610352</ele>
        <time>2023-06-18T06:05:51Z</time>
      </trkpt>
      <trkpt lat="49.46712" lon="5.70097">
        <ele>305.60000610352</ele>
        <time>2023-06-18T06:05:52Z</time>
      </trkpt>
      <trkpt lat="49.46707" lon="5.70101">
        <ele>305.60000610352</ele>
        <time>2023-06-18T06:05:54Z</time>
      </trkpt>
      <trkpt lat="49.46703" lon="5.70106">
        <ele>305.79998779297</ele>
        <time>2023-06-18T06:05:56Z</time>
      </trkpt>
      <trkpt lat="49.46699" lon="5.70109">
        <ele>306</ele>
        <time>2023-06-18T06:05:58Z</time>
      </trkpt>
      <trkpt lat="49.46697" lon="5.70111">
        <ele>306</ele>
        <time>2023-06-18T06:05:59Z</time>
      </trkpt>
      <trkpt lat="49.46695" lon="5.70113">
        <ele>306</ele>
        <time>2023-06-18T06:06:00Z</time>
      </trkpt>
      <trkpt lat="49.46694" lon="5.70115">
        <ele>306.20001220703</ele>
        <time>2023-06-18T06:06:01Z</time>
      </trkpt>
      <trkpt lat="49.46692" lon="5.70117">
        <ele>306.20001220703</ele>
        <time>2023-06-18T06:06:02Z</time>
      </trkpt>
      <trkpt lat="49.46688" lon="5.7012">
        <ele>306.39999389648</ele>
        <time>2023-06-18T06:06:04Z</time>
      </trkpt>
      <trkpt lat="49.46684" lon="5.70124">
        <ele>306.60000610352</ele>
        <time>2023-06-18T06:06:06Z</time>
      </trkpt>
      <trkpt lat="49.46682" lon="5.70126">
        <ele>306.60000610352</ele>
        <time>2023-06-18T06:06:07Z</time>
      </trkpt>
      <trkpt lat="49.4668" lon="5.70127">
        <ele>306.60000610352</ele>
        <time>2023-06-18T06:06:08Z</time>
      </trkpt>
      <trkpt lat="49.46676" lon="5.70131">
        <ele>306.60000610352</ele>
        <time>2023-06-18T06:06:10Z</time>
      </trkpt>
      <trkpt lat="49.46672" lon="5.70135">
        <ele>306.79998779297</ele>
        <time>2023-06-18T06:06:12Z</time>
      </trkpt>
      <trkpt lat="49.46668" lon="5.70138">
        <ele>306.79998779297</ele>
        <time>2023-06-18T06:06:14Z</time>
      </trkpt>
      <trkpt lat="49.46664" lon="5.70142">
        <ele>307.20001220703</ele>
        <time>2023-06-18T06:06:16Z</time>
      </trkpt>
      <trkpt lat="49.4666" lon="5.70147">
        <ele>307.20001220703</ele>
        <time>2023-06-18T06:06:18Z</time>
      </trkpt>
      <trkpt lat="49.46657" lon="5.7015">
        <ele>307.39999389648</ele>
        <time>2023-06-18T06:06:20Z</time>
      </trkpt>
      <trkpt lat="49.46653" lon="5.70154">
        <ele>307.60000610352</ele>
        <time>2023-06-18T06:06:22Z</time>
      </trkpt>
      <trkpt lat="49.46649" lon="5.70158">
        <ele>307.79998779297</ele>
        <time>2023-06-18T06:06:24Z</time>
      </trkpt>
      <trkpt lat="49.46645" lon="5.70161">
        <ele>307.79998779297</ele>
        <time>2023-06-18T06:06:26Z</time>
      </trkpt>
      <trkpt lat="49.46641" lon="5.70165">
        <ele>308.20001220703</ele>
        <time>2023-06-18T06:06:28Z</time>
      </trkpt>
      <trkpt lat="49.46638" lon="5.70168">
        <ele>308.60000610352</ele>
        <time>2023-06-18T06:06:30Z</time>
      </trkpt>
      <trkpt lat="49.46634" lon="5.70171">
        <ele>308.79998779297</ele>
        <time>2023-06-18T06:06:32Z</time>
      </trkpt>
      <trkpt lat="49.4663" lon="5.70175">
        <ele>309</ele>
        <time>2023-06-18T06:06:34Z</time>
      </trkpt>
      <trkpt lat="49.46627" lon="5.70178">
        <ele>309.20001220703</ele>
        <time>2023-06-18T06:06:36Z</time>
      </trkpt>
      <trkpt lat="49.46623" lon="5.70182">
        <ele>309.60000610352</ele>
        <time>2023-06-18T06:06:38Z</time>
      </trkpt>
      <trkpt lat="49.46619" lon="5.70185">
        <ele>309.79998779297</ele>
        <time>2023-06-18T06:06:40Z</time>
      </trkpt>
      <trkpt lat="49.46616" lon="5.70189">
        <ele>310</ele>
        <time>2023-06-18T06:06:42Z</time>
      </trkpt>
      <trkpt lat="49.46614" lon="5.7019">
        <ele>310.20001220703</ele>
        <time>2023-06-18T06:06:43Z</time>
      </trkpt>
      <trkpt lat="49.46612" lon="5.70192">
        <ele>310.39999389648</ele>
        <time>2023-06-18T06:06:44Z</time>
      </trkpt>
      <trkpt lat="49.46609" lon="5.70195">
        <ele>311</ele>
        <time>2023-06-18T06:06:46Z</time>
      </trkpt>
      <trkpt lat="49.46605" lon="5.70198">
        <ele>311.60000610352</ele>
        <time>2023-06-18T06:06:48Z</time>
      </trkpt>
      <trkpt lat="49.46602" lon="5.70201">
        <ele>312</ele>
        <time>2023-06-18T06:06:50Z</time>
      </trkpt>
      <trkpt lat="49.46599" lon="5.70204">
        <ele>312.39999389648</ele>
        <time>2023-06-18T06:06:52Z</time>
      </trkpt>
      <trkpt lat="49.46597" lon="5.70206">
        <ele>312.60000610352</ele>
        <time>2023-06-18T06:06:53Z</time>
      </trkpt>
      <trkpt lat="49.46595" lon="5.70207">
        <ele>312.79998779297</ele>
        <time>2023-06-18T06:06:54Z</time>
      </trkpt>
      <trkpt lat="49.46591" lon="5.70211">
        <ele>313.39999389648</ele>
        <time>2023-06-18T06:06:56Z</time>
      </trkpt>
      <trkpt lat="49.46587" lon="5.70214">
        <ele>313.79998779297</ele>
        <time>2023-06-18T06:06:58Z</time>
      </trkpt>
      <trkpt lat="49.46584" lon="5.70218">
        <ele>314.20001220703</ele>
        <time>2023-06-18T06:07:00Z</time>
      </trkpt>
      <trkpt lat="49.4658" lon="5.70222">
        <ele>314.39999389648</ele>
        <time>2023-06-18T06:07:02Z</time>
      </trkpt>
      <trkpt lat="49.46576" lon="5.70225">
        <ele>314.60000610352</ele>
        <time>2023-06-18T06:07:04Z</time>
      </trkpt>
      <trkpt lat="49.46574" lon="5.70227">
        <ele>314.79998779297</ele>
        <time>2023-06-18T06:07:05Z</time>
      </trkpt>
      <trkpt lat="49.46572" lon="5.70229">
        <ele>315</ele>
        <time>2023-06-18T06:07:06Z</time>
      </trkpt>
      <trkpt lat="49.46568" lon="5.70233">
        <ele>315.20001220703</ele>
        <time>2023-06-18T06:07:08Z</time>
      </trkpt>
      <trkpt lat="49.46566" lon="5.70235">
        <ele>315.39999389648</ele>
        <time>2023-06-18T06:07:09Z</time>
      </trkpt>
      <trkpt lat="49.46564" lon="5.70237">
        <ele>315.60000610352</ele>
        <time>2023-06-18T06:07:10Z</time>
      </trkpt>
      <trkpt lat="49.46561" lon="5.70241">
        <ele>316</ele>
        <time>2023-06-18T06:07:12Z</time>
      </trkpt>
      <trkpt lat="49.46557" lon="5.70245">
        <ele>316.20001220703</ele>
        <time>2023-06-18T06:07:14Z</time>
      </trkpt>
      <trkpt lat="49.46553" lon="5.70249">
        <ele>316.39999389648</ele>
        <time>2023-06-18T06:07:16Z</time>
      </trkpt>
      <trkpt lat="49.46549" lon="5.70253">
        <ele>316.60000610352</ele>
        <time>2023-06-18T06:07:18Z</time>
      </trkpt>
      <trkpt lat="49.46547" lon="5.70255">
        <ele>316.79998779297</ele>
        <time>2023-06-18T06:07:19Z</time>
      </trkpt>
      <trkpt lat="49.46545" lon="5.70257">
        <ele>317</ele>
        <time>2023-06-18T06:07:20Z</time>
      </trkpt>
      <trkpt lat="49.46543" lon="5.70259">
        <ele>317</ele>
        <time>2023-06-18T06:07:21Z</time>
      </trkpt>
      <trkpt lat="49.46541" lon="5.70261">
        <ele>317.20001220703</ele>
        <time>2023-06-18T06:07:22Z</time>
      </trkpt>
      <trkpt lat="49.46537" lon="5.70265">
        <ele>317.39999389648</ele>
        <time>2023-06-18T06:07:24Z</time>
      </trkpt>
      <trkpt lat="49.46532" lon="5.70269">
        <ele>317.60000610352</ele>
        <time>2023-06-18T06:07:26Z</time>
      </trkpt>
      <trkpt lat="49.46528" lon="5.70273">
        <ele>317.79998779297</ele>
        <time>2023-06-18T06:07:28Z</time>
      </trkpt>
      <trkpt lat="49.46524" lon="5.70277">
        <ele>318</ele>
        <time>2023-06-18T06:07:30Z</time>
      </trkpt>
      <trkpt lat="49.46522" lon="5.70279">
        <ele>318</ele>
        <time>2023-06-18T06:07:31Z</time>
      </trkpt>
      <trkpt lat="49.46519" lon="5.70281">
        <ele>318.20001220703</ele>
        <time>2023-06-18T06:07:32Z</time>
      </trkpt>
      <trkpt lat="49.46515" lon="5.70286">
        <ele>318.20001220703</ele>
        <time>2023-06-18T06:07:34Z</time>
      </trkpt>
      <trkpt lat="49.4651" lon="5.70291">
        <ele>318.20001220703</ele>
        <time>2023-06-18T06:07:36Z</time>
      </trkpt>
      <trkpt lat="49.46504" lon="5.70296">
        <ele>318.20001220703</ele>
        <time>2023-06-18T06:07:38Z</time>
      </trkpt>
      <trkpt lat="49.46499" lon="5.70301">
        <ele>318.20001220703</ele>
        <time>2023-06-18T06:07:40Z</time>
      </trkpt>
      <trkpt lat="49.46494" lon="5.70306">
        <ele>318.39999389648</ele>
        <time>2023-06-18T06:07:42Z</time>
      </trkpt>
      <trkpt lat="49.46489" lon="5.70311">
        <ele>318.39999389648</ele>
        <time>2023-06-18T06:07:44Z</time>
      </trkpt>
      <trkpt lat="49.46484" lon="5.70316">
        <ele>318.60000610352</ele>
        <time>2023-06-18T06:07:46Z</time>
      </trkpt>
      <trkpt lat="49.46479" lon="5.70321">
        <ele>318.39999389648</ele>
        <time>2023-06-18T06:07:48Z</time>
      </trkpt>
      <trkpt lat="49.46474" lon="5.70326">
        <ele>318.60000610352</ele>
        <time>2023-06-18T06:07:50Z</time>
      </trkpt>
      <trkpt lat="49.46471" lon="5.70329">
        <ele>318.60000610352</ele>
        <time>2023-06-18T06:07:51Z</time>
      </trkpt>
      <trkpt lat="49.46469" lon="5.70331">
        <ele>318.60000610352</ele>
        <time>2023-06-18T06:07:52Z</time>
      </trkpt>
      <trkpt lat="49.46464" lon="5.70336">
        <ele>318.60000610352</ele>
        <time>2023-06-18T06:07:54Z</time>
      </trkpt>
      <trkpt lat="49.46459" lon="5.70341">
        <ele>318.60000610352</ele>
        <time>2023-06-18T06:07:56Z</time>
      </trkpt>
      <trkpt lat="49.46454" lon="5.70346">
        <ele>318.60000610352</ele>
        <time>2023-06-18T06:07:58Z</time>
      </trkpt>
      <trkpt lat="49.46449" lon="5.7035">
        <ele>318.60000610352</ele>
        <time>2023-06-18T06:08:00Z</time>
      </trkpt>
      <trkpt lat="49.46447" lon="5.70352">
        <ele>318.79998779297</ele>
        <time>2023-06-18T06:08:01Z</time>
      </trkpt>
      <trkpt lat="49.46445" lon="5.70355">
        <ele>318.79998779297</ele>
        <time>2023-06-18T06:08:02Z</time>
      </trkpt>
      <trkpt lat="49.4644" lon="5.70359">
        <ele>318.79998779297</ele>
        <time>2023-06-18T06:08:04Z</time>
      </trkpt>
      <trkpt lat="49.46435" lon="5.70363">
        <ele>319</ele>
        <time>2023-06-18T06:08:06Z</time>
      </trkpt>
      <trkpt lat="49.46431" lon="5.70368">
        <ele>319.20001220703</ele>
        <time>2023-06-18T06:08:08Z</time>
      </trkpt>
      <trkpt lat="49.46426" lon="5.70372">
        <ele>319.20001220703</ele>
        <time>2023-06-18T06:08:10Z</time>
      </trkpt>
      <trkpt lat="49.46424" lon="5.70374">
        <ele>319.20001220703</ele>
        <time>2023-06-18T06:08:11Z</time>
      </trkpt>
      <trkpt lat="49.46422" lon="5.70376">
        <ele>319.39999389648</ele>
        <time>2023-06-18T06:08:12Z</time>
      </trkpt>
      <trkpt lat="49.46418" lon="5.70381">
        <ele>319.39999389648</ele>
        <time>2023-06-18T06:08:14Z</time>
      </trkpt>
      <trkpt lat="49.46413" lon="5.70385">
        <ele>319.60000610352</ele>
        <time>2023-06-18T06:08:16Z</time>
      </trkpt>
      <trkpt lat="49.46409" lon="5.7039">
        <ele>319.60000610352</ele>
        <time>2023-06-18T06:08:18Z</time>
      </trkpt>
      <trkpt lat="49.46405" lon="5.70394">
        <ele>320</ele>
        <time>2023-06-18T06:08:20Z</time>
      </trkpt>
      <trkpt lat="49.46402" lon="5.70396">
        <ele>320</ele>
        <time>2023-06-18T06:08:21Z</time>
      </trkpt>
      <trkpt lat="49.464" lon="5.70399">
        <ele>320</ele>
        <time>2023-06-18T06:08:22Z</time>
      </trkpt>
      <trkpt lat="49.46395" lon="5.70403">
        <ele>320.20001220703</ele>
        <time>2023-06-18T06:08:24Z</time>
      </trkpt>
      <trkpt lat="49.4639" lon="5.70408">
        <ele>320.20001220703</ele>
        <time>2023-06-18T06:08:26Z</time>
      </trkpt>
      <trkpt lat="49.46385" lon="5.70413">
        <ele>320.20001220703</ele>
        <time>2023-06-18T06:08:28Z</time>
      </trkpt>
      <trkpt lat="49.4638" lon="5.70418">
        <ele>320.20001220703</ele>
        <time>2023-06-18T06:08:30Z</time>
      </trkpt>
      <trkpt lat="49.46375" lon="5.70423">
        <ele>320.20001220703</ele>
        <time>2023-06-18T06:08:32Z</time>
      </trkpt>
      <trkpt lat="49.4637" lon="5.70428">
        <ele>320.20001220703</ele>
        <time>2023-06-18T06:08:34Z</time>
      </trkpt>
      <trkpt lat="49.46365" lon="5.70432">
        <ele>320.20001220703</ele>
        <time>2023-06-18T06:08:36Z</time>
      </trkpt>
      <trkpt lat="49.4636" lon="5.70437">
        <ele>320</ele>
        <time>2023-06-18T06:08:38Z</time>
      </trkpt>
      <trkpt lat="49.46358" lon="5.7044">
        <ele>319.79998779297</ele>
        <time>2023-06-18T06:08:39Z</time>
      </trkpt>
      <trkpt lat="49.46355" lon="5.70443">
        <ele>319.79998779297</ele>
        <time>2023-06-18T06:08:40Z</time>
      </trkpt>
      <trkpt lat="49.4635" lon="5.7045">
        <ele>319.79998779297</ele>
        <time>2023-06-18T06:08:42Z</time>
      </trkpt>
      <trkpt lat="49.46345" lon="5.70456">
        <ele>319.60000610352</ele>
        <time>2023-06-18T06:08:44Z</time>
      </trkpt>
      <trkpt lat="49.4634" lon="5.70463">
        <ele>319.60000610352</ele>
        <time>2023-06-18T06:08:46Z</time>
      </trkpt>
      <trkpt lat="49.46338" lon="5.70466">
        <ele>319.60000610352</ele>
        <time>2023-06-18T06:08:47Z</time>
      </trkpt>
      <trkpt lat="49.46336" lon="5.7047">
        <ele>319.60000610352</ele>
        <time>2023-06-18T06:08:48Z</time>
      </trkpt>
      <trkpt lat="49.46331" lon="5.70477">
        <ele>319.39999389648</ele>
        <time>2023-06-18T06:08:50Z</time>
      </trkpt>
      <trkpt lat="49.46326" lon="5.70485">
        <ele>319.39999389648</ele>
        <time>2023-06-18T06:08:52Z</time>
      </trkpt>
      <trkpt lat="49.46321" lon="5.70493">
        <ele>319.39999389648</ele>
        <time>2023-06-18T06:08:54Z</time>
      </trkpt>
      <trkpt lat="49.46318" lon="5.70497">
        <ele>319.39999389648</ele>
        <time>2023-06-18T06:08:55Z</time>
      </trkpt>
      <trkpt lat="49.46316" lon="5.70501">
        <ele>319.20001220703</ele>
        <time>2023-06-18T06:08:56Z</time>
      </trkpt>
      <trkpt lat="49.46311" lon="5.7051">
        <ele>319</ele>
        <time>2023-06-18T06:08:58Z</time>
      </trkpt>
      <trkpt lat="49.46305" lon="5.70518">
        <ele>318.79998779297</ele>
        <time>2023-06-18T06:09:00Z</time>
      </trkpt>
      <trkpt lat="49.463" lon="5.70527">
        <ele>318.60000610352</ele>
        <time>2023-06-18T06:09:02Z</time>
      </trkpt>
      <trkpt lat="49.46294" lon="5.70535">
        <ele>318.60000610352</ele>
        <time>2023-06-18T06:09:04Z</time>
      </trkpt>
      <trkpt lat="49.46289" lon="5.70543">
        <ele>318.60000610352</ele>
        <time>2023-06-18T06:09:06Z</time>
      </trkpt>
      <trkpt lat="49.46283" lon="5.7055">
        <ele>318.39999389648</ele>
        <time>2023-06-18T06:09:08Z</time>
      </trkpt>
      <trkpt lat="49.46278" lon="5.70556">
        <ele>318.39999389648</ele>
        <time>2023-06-18T06:09:10Z</time>
      </trkpt>
      <trkpt lat="49.46272" lon="5.70563">
        <ele>318.39999389648</ele>
        <time>2023-06-18T06:09:12Z</time>
      </trkpt>
      <trkpt lat="49.46267" lon="5.7057">
        <ele>318.39999389648</ele>
        <time>2023-06-18T06:09:14Z</time>
      </trkpt>
      <trkpt lat="49.46262" lon="5.70576">
        <ele>318.39999389648</ele>
        <time>2023-06-18T06:09:16Z</time>
      </trkpt>
      <trkpt lat="49.46259" lon="5.70579">
        <ele>318.39999389648</ele>
        <time>2023-06-18T06:09:17Z</time>
      </trkpt>
      <trkpt lat="49.46256" lon="5.70582">
        <ele>318.39999389648</ele>
        <time>2023-06-18T06:09:18Z</time>
      </trkpt>
      <trkpt lat="49.46253" lon="5.70585">
        <ele>318.39999389648</ele>
        <time>2023-06-18T06:09:19Z</time>
      </trkpt>
      <trkpt lat="49.4625" lon="5.70588">
        <ele>318.39999389648</ele>
        <time>2023-06-18T06:09:20Z</time>
      </trkpt>
      <trkpt lat="49.46244" lon="5.70593">
        <ele>318.39999389648</ele>
        <time>2023-06-18T06:09:22Z</time>
      </trkpt>
      <trkpt lat="49.46239" lon="5.70599">
        <ele>318.60000610352</ele>
        <time>2023-06-18T06:09:24Z</time>
      </trkpt>
      <trkpt lat="49.46233" lon="5.70605">
        <ele>318.60000610352</ele>
        <time>2023-06-18T06:09:26Z</time>
      </trkpt>
      <trkpt lat="49.46227" lon="5.70611">
        <ele>318.60000610352</ele>
        <time>2023-06-18T06:09:28Z</time>
      </trkpt>
      <trkpt lat="49.46224" lon="5.70614">
        <ele>318.60000610352</ele>
        <time>2023-06-18T06:09:29Z</time>
      </trkpt>
      <trkpt lat="49.46221" lon="5.70617">
        <ele>318.79998779297</ele>
        <time>2023-06-18T06:09:30Z</time>
      </trkpt>
      <trkpt lat="49.46215" lon="5.70623">
        <ele>318.60000610352</ele>
        <time>2023-06-18T06:09:32Z</time>
      </trkpt>
      <trkpt lat="49.46209" lon="5.70628">
        <ele>318.60000610352</ele>
        <time>2023-06-18T06:09:34Z</time>
      </trkpt>
      <trkpt lat="49.46203" lon="5.70635">
        <ele>318.60000610352</ele>
        <time>2023-06-18T06:09:36Z</time>
      </trkpt>
      <trkpt lat="49.46199" lon="5.70639">
        <ele>318.60000610352</ele>
        <time>2023-06-18T06:09:37Z</time>
      </trkpt>
      <trkpt lat="49.46195" lon="5.70642">
        <ele>318.60000610352</ele>
        <time>2023-06-18T06:09:38Z</time>
      </trkpt>
      <trkpt lat="49.46187" lon="5.7065">
        <ele>318.60000610352</ele>
        <time>2023-06-18T06:09:40Z</time>
      </trkpt>
      <trkpt lat="49.46179" lon="5.70658">
        <ele>318.39999389648</ele>
        <time>2023-06-18T06:09:42Z</time>
      </trkpt>
      <trkpt lat="49.46174" lon="5.70663">
        <ele>318.39999389648</ele>
        <time>2023-06-18T06:09:43Z</time>
      </trkpt>
      <trkpt lat="49.4617" lon="5.70667">
        <ele>318.20001220703</ele>
        <time>2023-06-18T06:09:44Z</time>
      </trkpt>
      <trkpt lat="49.46161" lon="5.70677">
        <ele>318</ele>
        <time>2023-06-18T06:09:46Z</time>
      </trkpt>
      <trkpt lat="49.46151" lon="5.70687">
        <ele>317.20001220703</ele>
        <time>2023-06-18T06:09:48Z</time>
      </trkpt>
      <trkpt lat="49.4614" lon="5.70697">
        <ele>316.20001220703</ele>
        <time>2023-06-18T06:09:50Z</time>
      </trkpt>
      <trkpt lat="49.46134" lon="5.70703">
        <ele>315.79998779297</ele>
        <time>2023-06-18T06:09:51Z</time>
      </trkpt>
      <trkpt lat="49.46128" lon="5.70708">
        <ele>315.39999389648</ele>
        <time>2023-06-18T06:09:52Z</time>
      </trkpt>
      <trkpt lat="49.46116" lon="5.70721">
        <ele>314.60000610352</ele>
        <time>2023-06-18T06:09:54Z</time>
      </trkpt>
      <trkpt lat="49.46104" lon="5.70737">
        <ele>313.60000610352</ele>
        <time>2023-06-18T06:09:56Z</time>
      </trkpt>
      <trkpt lat="49.46091" lon="5.70756">
        <ele>313</ele>
        <time>2023-06-18T06:09:58Z</time>
      </trkpt>
      <trkpt lat="49.46085" lon="5.70766">
        <ele>312.39999389648</ele>
        <time>2023-06-18T06:09:59Z</time>
      </trkpt>
      <trkpt lat="49.46079" lon="5.70776">
        <ele>311.79998779297</ele>
        <time>2023-06-18T06:10:00Z</time>
      </trkpt>
      <trkpt lat="49.46073" lon="5.70785">
        <ele>311.20001220703</ele>
        <time>2023-06-18T06:10:01Z</time>
      </trkpt>
      <trkpt lat="49.46067" lon="5.70794">
        <ele>310.60000610352</ele>
        <time>2023-06-18T06:10:02Z</time>
      </trkpt>
      <trkpt lat="49.4606" lon="5.70799">
        <ele>309.60000610352</ele>
        <time>2023-06-18T06:10:03Z</time>
      </trkpt>
      <trkpt lat="49.46052" lon="5.70801">
        <ele>308.79998779297</ele>
        <time>2023-06-18T06:10:04Z</time>
      </trkpt>
      <trkpt lat="49.46045" lon="5.70801">
        <ele>307.79998779297</ele>
        <time>2023-06-18T06:10:05Z</time>
      </trkpt>
      <trkpt lat="49.46039" lon="5.708">
        <ele>306.39999389648</ele>
        <time>2023-06-18T06:10:06Z</time>
      </trkpt>
      <trkpt lat="49.46026" lon="5.70798">
        <ele>305.60000610352</ele>
        <time>2023-06-18T06:10:08Z</time>
      </trkpt>
      <trkpt lat="49.4602" lon="5.70797">
        <ele>305.39999389648</ele>
        <time>2023-06-18T06:10:09Z</time>
      </trkpt>
      <trkpt lat="49.46015" lon="5.70796">
        <ele>305.39999389648</ele>
        <time>2023-06-18T06:10:10Z</time>
      </trkpt>
      <trkpt lat="49.46004" lon="5.70794">
        <ele>305.20001220703</ele>
        <time>2023-06-18T06:10:12Z</time>
      </trkpt>
      <trkpt lat="49.45995" lon="5.70793">
        <ele>305.20001220703</ele>
        <time>2023-06-18T06:10:14Z</time>
      </trkpt>
      <trkpt lat="49.45986" lon="5.70793">
        <ele>305.39999389648</ele>
        <time>2023-06-18T06:10:16Z</time>
      </trkpt>
      <trkpt lat="49.45977" lon="5.70793">
        <ele>305.39999389648</ele>
        <time>2023-06-18T06:10:18Z</time>
      </trkpt>
      <trkpt lat="49.45969" lon="5.70794">
        <ele>306</ele>
        <time>2023-06-18T06:10:20Z</time>
      </trkpt>
      <trkpt lat="49.45965" lon="5.70795">
        <ele>306.20001220703</ele>
        <time>2023-06-18T06:10:21Z</time>
      </trkpt>
      <trkpt lat="49.45961" lon="5.70795">
        <ele>306.39999389648</ele>
        <time>2023-06-18T06:10:22Z</time>
      </trkpt>
      <trkpt lat="49.45954" lon="5.70796">
        <ele>307</ele>
        <time>2023-06-18T06:10:24Z</time>
      </trkpt>
      <trkpt lat="49.45946" lon="5.70799">
        <ele>307.79998779297</ele>
        <time>2023-06-18T06:10:26Z</time>
      </trkpt>
      <trkpt lat="49.45939" lon="5.70801">
        <ele>308.60000610352</ele>
        <time>2023-06-18T06:10:28Z</time>
      </trkpt>
      <trkpt lat="49.45936" lon="5.70803">
        <ele>309</ele>
        <time>2023-06-18T06:10:29Z</time>
      </trkpt>
      <trkpt lat="49.45932" lon="5.70805">
        <ele>309.20001220703</ele>
        <time>2023-06-18T06:10:30Z</time>
      </trkpt>
      <trkpt lat="49.45926" lon="5.70809">
        <ele>309.60000610352</ele>
        <time>2023-06-18T06:10:32Z</time>
      </trkpt>
      <trkpt lat="49.4592" lon="5.70815">
        <ele>310</ele>
        <time>2023-06-18T06:10:34Z</time>
      </trkpt>
      <trkpt lat="49.45917" lon="5.70819">
        <ele>310.20001220703</ele>
        <time>2023-06-18T06:10:35Z</time>
      </trkpt>
      <trkpt lat="49.45915" lon="5.70822">
        <ele>310.20001220703</ele>
        <time>2023-06-18T06:10:36Z</time>
      </trkpt>
      <trkpt lat="49.4591" lon="5.70829">
        <ele>310.39999389648</ele>
        <time>2023-06-18T06:10:38Z</time>
      </trkpt>
      <trkpt lat="49.45907" lon="5.70837">
        <ele>310.60000610352</ele>
        <time>2023-06-18T06:10:40Z</time>
      </trkpt>
      <trkpt lat="49.45906" lon="5.70842">
        <ele>310.60000610352</ele>
        <time>2023-06-18T06:10:41Z</time>
      </trkpt>
      <trkpt lat="49.45905" lon="5.70846">
        <ele>310.60000610352</ele>
        <time>2023-06-18T06:10:42Z</time>
      </trkpt>
      <trkpt lat="49.45904" lon="5.70855">
        <ele>311</ele>
        <time>2023-06-18T06:10:44Z</time>
      </trkpt>
      <trkpt lat="49.45904" lon="5.7086">
        <ele>311.20001220703</ele>
        <time>2023-06-18T06:10:45Z</time>
      </trkpt>
      <trkpt lat="49.45904" lon="5.70865">
        <ele>311.39999389648</ele>
        <time>2023-06-18T06:10:46Z</time>
      </trkpt>
      <trkpt lat="49.45903" lon="5.70869">
        <ele>311.60000610352</ele>
        <time>2023-06-18T06:10:47Z</time>
      </trkpt>
      <trkpt lat="49.45902" lon="5.70874">
        <ele>311.60000610352</ele>
        <time>2023-06-18T06:10:48Z</time>
      </trkpt>
      <trkpt lat="49.45899" lon="5.70883">
        <ele>311.79998779297</ele>
        <time>2023-06-18T06:10:50Z</time>
      </trkpt>
      <trkpt lat="49.45896" lon="5.70893">
        <ele>311.79998779297</ele>
        <time>2023-06-18T06:10:52Z</time>
      </trkpt>
      <trkpt lat="49.45892" lon="5.70905">
        <ele>311.79998779297</ele>
        <time>2023-06-18T06:10:54Z</time>
      </trkpt>
      <trkpt lat="49.4589" lon="5.70918">
        <ele>311.79998779297</ele>
        <time>2023-06-18T06:10:56Z</time>
      </trkpt>
      <trkpt lat="49.45886" lon="5.70931">
        <ele>311.79998779297</ele>
        <time>2023-06-18T06:10:58Z</time>
      </trkpt>
      <trkpt lat="49.45882" lon="5.70946">
        <ele>311.60000610352</ele>
        <time>2023-06-18T06:11:00Z</time>
      </trkpt>
      <trkpt lat="49.45879" lon="5.70961">
        <ele>311</ele>
        <time>2023-06-18T06:11:02Z</time>
      </trkpt>
      <trkpt lat="49.45876" lon="5.70976">
        <ele>310</ele>
        <time>2023-06-18T06:11:04Z</time>
      </trkpt>
      <trkpt lat="49.45873" lon="5.7099">
        <ele>309.60000610352</ele>
        <time>2023-06-18T06:11:06Z</time>
      </trkpt>
      <trkpt lat="49.45872" lon="5.71004">
        <ele>309.39999389648</ele>
        <time>2023-06-18T06:11:08Z</time>
      </trkpt>
      <trkpt lat="49.45871" lon="5.71017">
        <ele>309.39999389648</ele>
        <time>2023-06-18T06:11:10Z</time>
      </trkpt>
      <trkpt lat="49.45871" lon="5.71027">
        <ele>309.39999389648</ele>
        <time>2023-06-18T06:11:12Z</time>
      </trkpt>
      <trkpt lat="49.45871" lon="5.71032">
        <ele>309.39999389648</ele>
        <time>2023-06-18T06:11:13Z</time>
      </trkpt>
      <trkpt lat="49.45871" lon="5.71037">
        <ele>309.60000610352</ele>
        <time>2023-06-18T06:11:14Z</time>
      </trkpt>
      <trkpt lat="49.45871" lon="5.71048">
        <ele>310</ele>
        <time>2023-06-18T06:11:16Z</time>
      </trkpt>
      <trkpt lat="49.45872" lon="5.71058">
        <ele>310.39999389648</ele>
        <time>2023-06-18T06:11:18Z</time>
      </trkpt>
      <trkpt lat="49.45872" lon="5.71069">
        <ele>311.20001220703</ele>
        <time>2023-06-18T06:11:20Z</time>
      </trkpt>
      <trkpt lat="49.45872" lon="5.71074">
        <ele>311.39999389648</ele>
        <time>2023-06-18T06:11:21Z</time>
      </trkpt>
      <trkpt lat="49.45873" lon="5.7108">
        <ele>311.60000610352</ele>
        <time>2023-06-18T06:11:22Z</time>
      </trkpt>
      <trkpt lat="49.45873" lon="5.71091">
        <ele>312</ele>
        <time>2023-06-18T06:11:24Z</time>
      </trkpt>
      <trkpt lat="49.45873" lon="5.71102">
        <ele>312.60000610352</ele>
        <time>2023-06-18T06:11:26Z</time>
      </trkpt>
      <trkpt lat="49.45873" lon="5.71113">
        <ele>313.20001220703</ele>
        <time>2023-06-18T06:11:28Z</time>
      </trkpt>
      <trkpt lat="49.45874" lon="5.71123">
        <ele>313.60000610352</ele>
        <time>2023-06-18T06:11:30Z</time>
      </trkpt>
      <trkpt lat="49.45874" lon="5.71134">
        <ele>314</ele>
        <time>2023-06-18T06:11:32Z</time>
      </trkpt>
      <trkpt lat="49.45874" lon="5.71145">
        <ele>314.60000610352</ele>
        <time>2023-06-18T06:11:34Z</time>
      </trkpt>
      <trkpt lat="49.45874" lon="5.7115">
        <ele>314.79998779297</ele>
        <time>2023-06-18T06:11:35Z</time>
      </trkpt>
      <trkpt lat="49.45874" lon="5.71156">
        <ele>315</ele>
        <time>2023-06-18T06:11:36Z</time>
      </trkpt>
      <trkpt lat="49.45875" lon="5.71166">
        <ele>315.39999389648</ele>
        <time>2023-06-18T06:11:38Z</time>
      </trkpt>
      <trkpt lat="49.45876" lon="5.71177">
        <ele>315.60000610352</ele>
        <time>2023-06-18T06:11:40Z</time>
      </trkpt>
      <trkpt lat="49.45877" lon="5.71182">
        <ele>315.79998779297</ele>
        <time>2023-06-18T06:11:41Z</time>
      </trkpt>
      <trkpt lat="49.45877" lon="5.71188">
        <ele>316</ele>
        <time>2023-06-18T06:11:42Z</time>
      </trkpt>
      <trkpt lat="49.45878" lon="5.71199">
        <ele>316.20001220703</ele>
        <time>2023-06-18T06:11:44Z</time>
      </trkpt>
      <trkpt lat="49.4588" lon="5.7121">
        <ele>316.39999389648</ele>
        <time>2023-06-18T06:11:46Z</time>
      </trkpt>
      <trkpt lat="49.45881" lon="5.71221">
        <ele>316.60000610352</ele>
        <time>2023-06-18T06:11:48Z</time>
      </trkpt>
      <trkpt lat="49.45882" lon="5.71233">
        <ele>316.60000610352</ele>
        <time>2023-06-18T06:11:50Z</time>
      </trkpt>
      <trkpt lat="49.45884" lon="5.71244">
        <ele>316.79998779297</ele>
        <time>2023-06-18T06:11:52Z</time>
      </trkpt>
      <trkpt lat="49.45885" lon="5.7125">
        <ele>316.79998779297</ele>
        <time>2023-06-18T06:11:53Z</time>
      </trkpt>
      <trkpt lat="49.45885" lon="5.71256">
        <ele>316.79998779297</ele>
        <time>2023-06-18T06:11:54Z</time>
      </trkpt>
      <trkpt lat="49.45887" lon="5.71268">
        <ele>316.79998779297</ele>
        <time>2023-06-18T06:11:56Z</time>
      </trkpt>
      <trkpt lat="49.45889" lon="5.71279">
        <ele>316.79998779297</ele>
        <time>2023-06-18T06:11:58Z</time>
      </trkpt>
      <trkpt lat="49.45891" lon="5.71291">
        <ele>316.79998779297</ele>
        <time>2023-06-18T06:12:00Z</time>
      </trkpt>
      <trkpt lat="49.45894" lon="5.71302">
        <ele>316.79998779297</ele>
        <time>2023-06-18T06:12:02Z</time>
      </trkpt>
      <trkpt lat="49.45897" lon="5.71313">
        <ele>316.79998779297</ele>
        <time>2023-06-18T06:12:04Z</time>
      </trkpt>
      <trkpt lat="49.459" lon="5.71324">
        <ele>316.79998779297</ele>
        <time>2023-06-18T06:12:06Z</time>
      </trkpt>
      <trkpt lat="49.45903" lon="5.71336">
        <ele>316.79998779297</ele>
        <time>2023-06-18T06:12:08Z</time>
      </trkpt>
      <trkpt lat="49.45906" lon="5.71347">
        <ele>317</ele>
        <time>2023-06-18T06:12:10Z</time>
      </trkpt>
      <trkpt lat="49.45909" lon="5.71358">
        <ele>317</ele>
        <time>2023-06-18T06:12:12Z</time>
      </trkpt>
      <trkpt lat="49.45913" lon="5.71369">
        <ele>317.39999389648</ele>
        <time>2023-06-18T06:12:14Z</time>
      </trkpt>
      <trkpt lat="49.45917" lon="5.71379">
        <ele>317.60000610352</ele>
        <time>2023-06-18T06:12:16Z</time>
      </trkpt>
      <trkpt lat="49.45919" lon="5.71384">
        <ele>317.79998779297</ele>
        <time>2023-06-18T06:12:17Z</time>
      </trkpt>
      <trkpt lat="49.45921" lon="5.71389">
        <ele>318.20001220703</ele>
        <time>2023-06-18T06:12:18Z</time>
      </trkpt>
      <trkpt lat="49.45923" lon="5.71394">
        <ele>318.39999389648</ele>
        <time>2023-06-18T06:12:19Z</time>
      </trkpt>
      <trkpt lat="49.45925" lon="5.71398">
        <ele>318.39999389648</ele>
        <time>2023-06-18T06:12:20Z</time>
      </trkpt>
      <trkpt lat="49.45929" lon="5.71408">
        <ele>318.60000610352</ele>
        <time>2023-06-18T06:12:22Z</time>
      </trkpt>
      <trkpt lat="49.45933" lon="5.71418">
        <ele>318.79998779297</ele>
        <time>2023-06-18T06:12:24Z</time>
      </trkpt>
      <trkpt lat="49.45937" lon="5.71427">
        <ele>318.79998779297</ele>
        <time>2023-06-18T06:12:26Z</time>
      </trkpt>
      <trkpt lat="49.4594" lon="5.71432">
        <ele>318.79998779297</ele>
        <time>2023-06-18T06:12:27Z</time>
      </trkpt>
      <trkpt lat="49.45942" lon="5.71437">
        <ele>319</ele>
        <time>2023-06-18T06:12:28Z</time>
      </trkpt>
      <trkpt lat="49.45943" lon="5.71442">
        <ele>319.20001220703</ele>
        <time>2023-06-18T06:12:29Z</time>
      </trkpt>
      <trkpt lat="49.45945" lon="5.71447">
        <ele>319.20001220703</ele>
        <time>2023-06-18T06:12:30Z</time>
      </trkpt>
      <trkpt lat="49.45947" lon="5.71457">
        <ele>319</ele>
        <time>2023-06-18T06:12:32Z</time>
      </trkpt>
      <trkpt lat="49.45948" lon="5.71467">
        <ele>319.60000610352</ele>
        <time>2023-06-18T06:12:34Z</time>
      </trkpt>
      <trkpt lat="49.45949" lon="5.71479">
        <ele>319.79998779297</ele>
        <time>2023-06-18T06:12:36Z</time>
      </trkpt>
      <trkpt lat="49.45948" lon="5.7149">
        <ele>319.79998779297</ele>
        <time>2023-06-18T06:12:38Z</time>
      </trkpt>
      <trkpt lat="49.45947" lon="5.71503">
        <ele>319.79998779297</ele>
        <time>2023-06-18T06:12:40Z</time>
      </trkpt>
      <trkpt lat="49.45948" lon="5.7151">
        <ele>319.79998779297</ele>
        <time>2023-06-18T06:12:41Z</time>
      </trkpt>
      <trkpt lat="49.45949" lon="5.71517">
        <ele>319.79998779297</ele>
        <time>2023-06-18T06:12:42Z</time>
      </trkpt>
      <trkpt lat="49.45953" lon="5.71529">
        <ele>319.79998779297</ele>
        <time>2023-06-18T06:12:44Z</time>
      </trkpt>
      <trkpt lat="49.45956" lon="5.71533">
        <ele>319.60000610352</ele>
        <time>2023-06-18T06:12:45Z</time>
      </trkpt>
      <trkpt lat="49.45958" lon="5.71538">
        <ele>319.60000610352</ele>
        <time>2023-06-18T06:12:46Z</time>
      </trkpt>
      <trkpt lat="49.45964" lon="5.71547">
        <ele>319.60000610352</ele>
        <time>2023-06-18T06:12:48Z</time>
      </trkpt>
      <trkpt lat="49.45969" lon="5.71556">
        <ele>319.60000610352</ele>
        <time>2023-06-18T06:12:50Z</time>
      </trkpt>
      <trkpt lat="49.45974" lon="5.71565">
        <ele>319.60000610352</ele>
        <time>2023-06-18T06:12:52Z</time>
      </trkpt>
      <trkpt lat="49.45979" lon="5.71575">
        <ele>319.79998779297</ele>
        <time>2023-06-18T06:12:54Z</time>
      </trkpt>
      <trkpt lat="49.45984" lon="5.71584">
        <ele>320</ele>
        <time>2023-06-18T06:12:56Z</time>
      </trkpt>
      <trkpt lat="49.45987" lon="5.71589">
        <ele>320.20001220703</ele>
        <time>2023-06-18T06:12:57Z</time>
      </trkpt>
      <trkpt lat="49.4599" lon="5.71593">
        <ele>320.20001220703</ele>
        <time>2023-06-18T06:12:58Z</time>
      </trkpt>
      <trkpt lat="49.45996" lon="5.71603">
        <ele>320.39999389648</ele>
        <time>2023-06-18T06:13:00Z</time>
      </trkpt>
      <trkpt lat="49.46001" lon="5.71612">
        <ele>320.60000610352</ele>
        <time>2023-06-18T06:13:02Z</time>
      </trkpt>
      <trkpt lat="49.46007" lon="5.71621">
        <ele>320.79998779297</ele>
        <time>2023-06-18T06:13:04Z</time>
      </trkpt>
      <trkpt lat="49.46013" lon="5.7163">
        <ele>320.79998779297</ele>
        <time>2023-06-18T06:13:06Z</time>
      </trkpt>
      <trkpt lat="49.46018" lon="5.71639">
        <ele>321</ele>
        <time>2023-06-18T06:13:08Z</time>
      </trkpt>
      <trkpt lat="49.46024" lon="5.71647">
        <ele>321.20001220703</ele>
        <time>2023-06-18T06:13:10Z</time>
      </trkpt>
      <trkpt lat="49.4603" lon="5.71656">
        <ele>321.39999389648</ele>
        <time>2023-06-18T06:13:12Z</time>
      </trkpt>
      <trkpt lat="49.46035" lon="5.71666">
        <ele>321.60000610352</ele>
        <time>2023-06-18T06:13:14Z</time>
      </trkpt>
      <trkpt lat="49.46041" lon="5.71675">
        <ele>321.79998779297</ele>
        <time>2023-06-18T06:13:16Z</time>
      </trkpt>
      <trkpt lat="49.46047" lon="5.71684">
        <ele>321.79998779297</ele>
        <time>2023-06-18T06:13:18Z</time>
      </trkpt>
      <trkpt lat="49.4605" lon="5.71689">
        <ele>322</ele>
        <time>2023-06-18T06:13:19Z</time>
      </trkpt>
      <trkpt lat="49.46053" lon="5.71694">
        <ele>322</ele>
        <time>2023-06-18T06:13:20Z</time>
      </trkpt>
      <trkpt lat="49.46059" lon="5.71703">
        <ele>322</ele>
        <time>2023-06-18T06:13:22Z</time>
      </trkpt>
      <trkpt lat="49.46065" lon="5.71712">
        <ele>322</ele>
        <time>2023-06-18T06:13:24Z</time>
      </trkpt>
      <trkpt lat="49.46071" lon="5.71722">
        <ele>322</ele>
        <time>2023-06-18T06:13:26Z</time>
      </trkpt>
      <trkpt lat="49.46077" lon="5.71731">
        <ele>322.20001220703</ele>
        <time>2023-06-18T06:13:28Z</time>
      </trkpt>
      <trkpt lat="49.46079" lon="5.71735">
        <ele>322.20001220703</ele>
        <time>2023-06-18T06:13:29Z</time>
      </trkpt>
      <trkpt lat="49.46082" lon="5.7174">
        <ele>322.20001220703</ele>
        <time>2023-06-18T06:13:30Z</time>
      </trkpt>
      <trkpt lat="49.46088" lon="5.71749">
        <ele>322.39999389648</ele>
        <time>2023-06-18T06:13:32Z</time>
      </trkpt>
      <trkpt lat="49.46093" lon="5.71757">
        <ele>322.39999389648</ele>
        <time>2023-06-18T06:13:34Z</time>
      </trkpt>
      <trkpt lat="49.46099" lon="5.71766">
        <ele>322.60000610352</ele>
        <time>2023-06-18T06:13:36Z</time>
      </trkpt>
      <trkpt lat="49.46105" lon="5.71775">
        <ele>322.79998779297</ele>
        <time>2023-06-18T06:13:38Z</time>
      </trkpt>
      <trkpt lat="49.46107" lon="5.71779">
        <ele>323</ele>
        <time>2023-06-18T06:13:39Z</time>
      </trkpt>
      <trkpt lat="49.4611" lon="5.71784">
        <ele>323</ele>
        <time>2023-06-18T06:13:40Z</time>
      </trkpt>
      <trkpt lat="49.46115" lon="5.71792">
        <ele>323</ele>
        <time>2023-06-18T06:13:42Z</time>
      </trkpt>
      <trkpt lat="49.46121" lon="5.71801">
        <ele>323.20001220703</ele>
        <time>2023-06-18T06:13:44Z</time>
      </trkpt>
      <trkpt lat="49.46126" lon="5.71809">
        <ele>323.39999389648</ele>
        <time>2023-06-18T06:13:46Z</time>
      </trkpt>
      <trkpt lat="49.46131" lon="5.71817">
        <ele>323.60000610352</ele>
        <time>2023-06-18T06:13:48Z</time>
      </trkpt>
      <trkpt lat="49.46136" lon="5.71825">
        <ele>323.60000610352</ele>
        <time>2023-06-18T06:13:50Z</time>
      </trkpt>
      <trkpt lat="49.46141" lon="5.71833">
        <ele>323.79998779297</ele>
        <time>2023-06-18T06:13:52Z</time>
      </trkpt>
      <trkpt lat="49.46146" lon="5.71841">
        <ele>324.20001220703</ele>
        <time>2023-06-18T06:13:54Z</time>
      </trkpt>
      <trkpt lat="49.46151" lon="5.7185">
        <ele>324.60000610352</ele>
        <time>2023-06-18T06:13:56Z</time>
      </trkpt>
      <trkpt lat="49.46157" lon="5.71857">
        <ele>325.20001220703</ele>
        <time>2023-06-18T06:13:58Z</time>
      </trkpt>
      <trkpt lat="49.46162" lon="5.71865">
        <ele>325.39999389648</ele>
        <time>2023-06-18T06:14:00Z</time>
      </trkpt>
      <trkpt lat="49.46167" lon="5.71873">
        <ele>325.79998779297</ele>
        <time>2023-06-18T06:14:02Z</time>
      </trkpt>
      <trkpt lat="49.46172" lon="5.71881">
        <ele>326.20001220703</ele>
        <time>2023-06-18T06:14:04Z</time>
      </trkpt>
      <trkpt lat="49.46177" lon="5.7189">
        <ele>326.39999389648</ele>
        <time>2023-06-18T06:14:06Z</time>
      </trkpt>
      <trkpt lat="49.46182" lon="5.71898">
        <ele>327</ele>
        <time>2023-06-18T06:14:08Z</time>
      </trkpt>
      <trkpt lat="49.46187" lon="5.71906">
        <ele>327.20001220703</ele>
        <time>2023-06-18T06:14:10Z</time>
      </trkpt>
      <trkpt lat="49.46189" lon="5.7191">
        <ele>327.20001220703</ele>
        <time>2023-06-18T06:14:11Z</time>
      </trkpt>
      <trkpt lat="49.46192" lon="5.71914">
        <ele>327.39999389648</ele>
        <time>2023-06-18T06:14:12Z</time>
      </trkpt>
      <trkpt lat="49.46197" lon="5.71922">
        <ele>327.60000610352</ele>
        <time>2023-06-18T06:14:14Z</time>
      </trkpt>
      <trkpt lat="49.46202" lon="5.7193">
        <ele>327.79998779297</ele>
        <time>2023-06-18T06:14:16Z</time>
      </trkpt>
      <trkpt lat="49.46205" lon="5.71935">
        <ele>328</ele>
        <time>2023-06-18T06:14:17Z</time>
      </trkpt>
      <trkpt lat="49.46207" lon="5.71939">
        <ele>328.20001220703</ele>
        <time>2023-06-18T06:14:18Z</time>
      </trkpt>
      <trkpt lat="49.46213" lon="5.71947">
        <ele>328.60000610352</ele>
        <time>2023-06-18T06:14:20Z</time>
      </trkpt>
      <trkpt lat="49.46218" lon="5.71955">
        <ele>329</ele>
        <time>2023-06-18T06:14:22Z</time>
      </trkpt>
      <trkpt lat="49.46223" lon="5.71963">
        <ele>329.79998779297</ele>
        <time>2023-06-18T06:14:24Z</time>
      </trkpt>
      <trkpt lat="49.46228" lon="5.71971">
        <ele>330.39999389648</ele>
        <time>2023-06-18T06:14:26Z</time>
      </trkpt>
      <trkpt lat="49.46233" lon="5.71978">
        <ele>330.60000610352</ele>
        <time>2023-06-18T06:14:28Z</time>
      </trkpt>
      <trkpt lat="49.46237" lon="5.71986">
        <ele>331.20001220703</ele>
        <time>2023-06-18T06:14:30Z</time>
      </trkpt>
      <trkpt lat="49.4624" lon="5.7199">
        <ele>331.20001220703</ele>
        <time>2023-06-18T06:14:31Z</time>
      </trkpt>
      <trkpt lat="49.46242" lon="5.71993">
        <ele>331.39999389648</ele>
        <time>2023-06-18T06:14:32Z</time>
      </trkpt>
      <trkpt lat="49.46245" lon="5.71997">
        <ele>331.39999389648</ele>
        <time>2023-06-18T06:14:33Z</time>
      </trkpt>
      <trkpt lat="49.46247" lon="5.72001">
        <ele>331.60000610352</ele>
        <time>2023-06-18T06:14:34Z</time>
      </trkpt>
      <trkpt lat="49.46252" lon="5.72009">
        <ele>332</ele>
        <time>2023-06-18T06:14:36Z</time>
      </trkpt>
      <trkpt lat="49.46257" lon="5.72017">
        <ele>332.20001220703</ele>
        <time>2023-06-18T06:14:38Z</time>
      </trkpt>
      <trkpt lat="49.46259" lon="5.72021">
        <ele>332.20001220703</ele>
        <time>2023-06-18T06:14:39Z</time>
      </trkpt>
      <trkpt lat="49.46262" lon="5.72025">
        <ele>332.39999389648</ele>
        <time>2023-06-18T06:14:40Z</time>
      </trkpt>
      <trkpt lat="49.46264" lon="5.72029">
        <ele>332.60000610352</ele>
        <time>2023-06-18T06:14:41Z</time>
      </trkpt>
      <trkpt lat="49.46267" lon="5.72033">
        <ele>332.60000610352</ele>
        <time>2023-06-18T06:14:42Z</time>
      </trkpt>
      <trkpt lat="49.46272" lon="5.72041">
        <ele>333</ele>
        <time>2023-06-18T06:14:44Z</time>
      </trkpt>
      <trkpt lat="49.46277" lon="5.72048">
        <ele>333</ele>
        <time>2023-06-18T06:14:46Z</time>
      </trkpt>
      <trkpt lat="49.46282" lon="5.72056">
        <ele>333.20001220703</ele>
        <time>2023-06-18T06:14:48Z</time>
      </trkpt>
      <trkpt lat="49.46287" lon="5.72064">
        <ele>333.60000610352</ele>
        <time>2023-06-18T06:14:50Z</time>
      </trkpt>
      <trkpt lat="49.46293" lon="5.72073">
        <ele>333.79998779297</ele>
        <time>2023-06-18T06:14:52Z</time>
      </trkpt>
      <trkpt lat="49.46298" lon="5.72081">
        <ele>334</ele>
        <time>2023-06-18T06:14:54Z</time>
      </trkpt>
      <trkpt lat="49.46303" lon="5.72089">
        <ele>334.39999389648</ele>
        <time>2023-06-18T06:14:56Z</time>
      </trkpt>
      <trkpt lat="49.46308" lon="5.72098">
        <ele>334.60000610352</ele>
        <time>2023-06-18T06:14:58Z</time>
      </trkpt>
      <trkpt lat="49.46313" lon="5.72107">
        <ele>334.79998779297</ele>
        <time>2023-06-18T06:15:00Z</time>
      </trkpt>
      <trkpt lat="49.46318" lon="5.72116">
        <ele>334.79998779297</ele>
        <time>2023-06-18T06:15:02Z</time>
      </trkpt>
      <trkpt lat="49.46323" lon="5.72125">
        <ele>335</ele>
        <time>2023-06-18T06:15:04Z</time>
      </trkpt>
      <trkpt lat="49.46328" lon="5.72135">
        <ele>335</ele>
        <time>2023-06-18T06:15:06Z</time>
      </trkpt>
      <trkpt lat="49.46332" lon="5.72144">
        <ele>335.20001220703</ele>
        <time>2023-06-18T06:15:08Z</time>
      </trkpt>
      <trkpt lat="49.46336" lon="5.72154">
        <ele>335.39999389648</ele>
        <time>2023-06-18T06:15:10Z</time>
      </trkpt>
      <trkpt lat="49.46341" lon="5.72163">
        <ele>335.60000610352</ele>
        <time>2023-06-18T06:15:12Z</time>
      </trkpt>
      <trkpt lat="49.46345" lon="5.72173">
        <ele>335.79998779297</ele>
        <time>2023-06-18T06:15:14Z</time>
      </trkpt>
      <trkpt lat="49.46349" lon="5.72183">
        <ele>336</ele>
        <time>2023-06-18T06:15:16Z</time>
      </trkpt>
      <trkpt lat="49.46352" lon="5.72193">
        <ele>336.20001220703</ele>
        <time>2023-06-18T06:15:18Z</time>
      </trkpt>
      <trkpt lat="49.46354" lon="5.72204">
        <ele>336.60000610352</ele>
        <time>2023-06-18T06:15:20Z</time>
      </trkpt>
      <trkpt lat="49.46353" lon="5.72209">
        <ele>336.60000610352</ele>
        <time>2023-06-18T06:15:21Z</time>
      </trkpt>
      <trkpt lat="49.46351" lon="5.72213">
        <ele>336.60000610352</ele>
        <time>2023-06-18T06:15:22Z</time>
      </trkpt>
      <trkpt lat="49.46348" lon="5.72216">
        <ele>336.60000610352</ele>
        <time>2023-06-18T06:15:23Z</time>
      </trkpt>
      <trkpt lat="49.46345" lon="5.72219">
        <ele>336.60000610352</ele>
        <time>2023-06-18T06:15:24Z</time>
      </trkpt>
      <trkpt lat="49.46342" lon="5.72221">
        <ele>336.60000610352</ele>
        <time>2023-06-18T06:15:25Z</time>
      </trkpt>
      <trkpt lat="49.46338" lon="5.72222">
        <ele>336.60000610352</ele>
        <time>2023-06-18T06:15:26Z</time>
      </trkpt>
      <trkpt lat="49.4633" lon="5.72226">
        <ele>336.60000610352</ele>
        <time>2023-06-18T06:15:28Z</time>
      </trkpt>
      <trkpt lat="49.46322" lon="5.7223">
        <ele>336.60000610352</ele>
        <time>2023-06-18T06:15:30Z</time>
      </trkpt>
      <trkpt lat="49.46314" lon="5.72234">
        <ele>336.60000610352</ele>
        <time>2023-06-18T06:15:32Z</time>
      </trkpt>
      <trkpt lat="49.46305" lon="5.72238">
        <ele>336.60000610352</ele>
        <time>2023-06-18T06:15:34Z</time>
      </trkpt>
      <trkpt lat="49.46297" lon="5.72243">
        <ele>336.39999389648</ele>
        <time>2023-06-18T06:15:36Z</time>
      </trkpt>
      <trkpt lat="49.46289" lon="5.72247">
        <ele>336.39999389648</ele>
        <time>2023-06-18T06:15:38Z</time>
      </trkpt>
      <trkpt lat="49.46281" lon="5.72252">
        <ele>336.20001220703</ele>
        <time>2023-06-18T06:15:40Z</time>
      </trkpt>
      <trkpt lat="49.46272" lon="5.72256">
        <ele>336.20001220703</ele>
        <time>2023-06-18T06:15:42Z</time>
      </trkpt>
      <trkpt lat="49.46265" lon="5.7226">
        <ele>336.20001220703</ele>
        <time>2023-06-18T06:15:44Z</time>
      </trkpt>
      <trkpt lat="49.46257" lon="5.72264">
        <ele>336.20001220703</ele>
        <time>2023-06-18T06:15:46Z</time>
      </trkpt>
      <trkpt lat="49.46249" lon="5.72269">
        <ele>336.20001220703</ele>
        <time>2023-06-18T06:15:48Z</time>
      </trkpt>
      <trkpt lat="49.46241" lon="5.72273">
        <ele>336.20001220703</ele>
        <time>2023-06-18T06:15:50Z</time>
      </trkpt>
      <trkpt lat="49.46233" lon="5.72278">
        <ele>336.20001220703</ele>
        <time>2023-06-18T06:15:52Z</time>
      </trkpt>
      <trkpt lat="49.46224" lon="5.72283">
        <ele>336.20001220703</ele>
        <time>2023-06-18T06:15:54Z</time>
      </trkpt>
      <trkpt lat="49.46214" lon="5.72288">
        <ele>336.20001220703</ele>
        <time>2023-06-18T06:15:56Z</time>
      </trkpt>
      <trkpt lat="49.46209" lon="5.72291">
        <ele>336.20001220703</ele>
        <time>2023-06-18T06:15:57Z</time>
      </trkpt>
      <trkpt lat="49.46204" lon="5.72294">
        <ele>336.20001220703</ele>
        <time>2023-06-18T06:15:58Z</time>
      </trkpt>
      <trkpt lat="49.46194" lon="5.723">
        <ele>336.20001220703</ele>
        <time>2023-06-18T06:16:00Z</time>
      </trkpt>
      <trkpt lat="49.46183" lon="5.72307">
        <ele>336</ele>
        <time>2023-06-18T06:16:02Z</time>
      </trkpt>
      <trkpt lat="49.46178" lon="5.72312">
        <ele>336</ele>
        <time>2023-06-18T06:16:03Z</time>
      </trkpt>
      <trkpt lat="49.46172" lon="5.72316">
        <ele>335.60000610352</ele>
        <time>2023-06-18T06:16:04Z</time>
      </trkpt>
      <trkpt lat="49.4616" lon="5.72324">
        <ele>334.39999389648</ele>
        <time>2023-06-18T06:16:06Z</time>
      </trkpt>
      <trkpt lat="49.46153" lon="5.72325">
        <ele>334</ele>
        <time>2023-06-18T06:16:07Z</time>
      </trkpt>
      <trkpt lat="49.46145" lon="5.72325">
        <ele>333.79998779297</ele>
        <time>2023-06-18T06:16:08Z</time>
      </trkpt>
      <trkpt lat="49.46137" lon="5.72326">
        <ele>333.60000610352</ele>
        <time>2023-06-18T06:16:09Z</time>
      </trkpt>
      <trkpt lat="49.46129" lon="5.72328">
        <ele>333.39999389648</ele>
        <time>2023-06-18T06:16:10Z</time>
      </trkpt>
      <trkpt lat="49.4612" lon="5.72332">
        <ele>333.20001220703</ele>
        <time>2023-06-18T06:16:11Z</time>
      </trkpt>
      <trkpt lat="49.46112" lon="5.72336">
        <ele>333</ele>
        <time>2023-06-18T06:16:12Z</time>
      </trkpt>
      <trkpt lat="49.46103" lon="5.7234">
        <ele>332.79998779297</ele>
        <time>2023-06-18T06:16:13Z</time>
      </trkpt>
      <trkpt lat="49.46095" lon="5.72345">
        <ele>332.39999389648</ele>
        <time>2023-06-18T06:16:14Z</time>
      </trkpt>
      <trkpt lat="49.46086" lon="5.72349">
        <ele>332</ele>
        <time>2023-06-18T06:16:15Z</time>
      </trkpt>
      <trkpt lat="49.46077" lon="5.72354">
        <ele>331.20001220703</ele>
        <time>2023-06-18T06:16:16Z</time>
      </trkpt>
      <trkpt lat="49.46069" lon="5.72358">
        <ele>329.60000610352</ele>
        <time>2023-06-18T06:16:17Z</time>
      </trkpt>
      <trkpt lat="49.4606" lon="5.72361">
        <ele>328.60000610352</ele>
        <time>2023-06-18T06:16:18Z</time>
      </trkpt>
      <trkpt lat="49.46052" lon="5.72364">
        <ele>327.79998779297</ele>
        <time>2023-06-18T06:16:19Z</time>
      </trkpt>
      <trkpt lat="49.46044" lon="5.72367">
        <ele>327</ele>
        <time>2023-06-18T06:16:20Z</time>
      </trkpt>
      <trkpt lat="49.46037" lon="5.72369">
        <ele>326.20001220703</ele>
        <time>2023-06-18T06:16:21Z</time>
      </trkpt>
      <trkpt lat="49.46029" lon="5.72372">
        <ele>325.60000610352</ele>
        <time>2023-06-18T06:16:22Z</time>
      </trkpt>
      <trkpt lat="49.46022" lon="5.72374">
        <ele>325.20001220703</ele>
        <time>2023-06-18T06:16:23Z</time>
      </trkpt>
      <trkpt lat="49.46016" lon="5.72376">
        <ele>325</ele>
        <time>2023-06-18T06:16:24Z</time>
      </trkpt>
      <trkpt lat="49.46003" lon="5.72381">
        <ele>324.79998779297</ele>
        <time>2023-06-18T06:16:26Z</time>
      </trkpt>
      <trkpt lat="49.45993" lon="5.72386">
        <ele>324.79998779297</ele>
        <time>2023-06-18T06:16:28Z</time>
      </trkpt>
      <trkpt lat="49.45983" lon="5.7239">
        <ele>324.79998779297</ele>
        <time>2023-06-18T06:16:30Z</time>
      </trkpt>
      <trkpt lat="49.45974" lon="5.72395">
        <ele>324.79998779297</ele>
        <time>2023-06-18T06:16:32Z</time>
      </trkpt>
      <trkpt lat="49.4597" lon="5.72397">
        <ele>324.79998779297</ele>
        <time>2023-06-18T06:16:33Z</time>
      </trkpt>
      <trkpt lat="49.45966" lon="5.72399">
        <ele>325.39999389648</ele>
        <time>2023-06-18T06:16:34Z</time>
      </trkpt>
      <trkpt lat="49.45959" lon="5.72402">
        <ele>326.60000610352</ele>
        <time>2023-06-18T06:16:36Z</time>
      </trkpt>
      <trkpt lat="49.45952" lon="5.72406">
        <ele>327</ele>
        <time>2023-06-18T06:16:38Z</time>
      </trkpt>
      <trkpt lat="49.45945" lon="5.7241">
        <ele>327.60000610352</ele>
        <time>2023-06-18T06:16:40Z</time>
      </trkpt>
      <trkpt lat="49.45941" lon="5.72412">
        <ele>327.79998779297</ele>
        <time>2023-06-18T06:16:41Z</time>
      </trkpt>
      <trkpt lat="49.45938" lon="5.72414">
        <ele>328.20001220703</ele>
        <time>2023-06-18T06:16:42Z</time>
      </trkpt>
      <trkpt lat="49.45935" lon="5.72416">
        <ele>328.79998779297</ele>
        <time>2023-06-18T06:16:43Z</time>
      </trkpt>
      <trkpt lat="49.45932" lon="5.72417">
        <ele>329.20001220703</ele>
        <time>2023-06-18T06:16:44Z</time>
      </trkpt>
      <trkpt lat="49.45928" lon="5.72418">
        <ele>330</ele>
        <time>2023-06-18T06:16:45Z</time>
      </trkpt>
      <trkpt lat="49.45925" lon="5.7242">
        <ele>330.39999389648</ele>
        <time>2023-06-18T06:16:46Z</time>
      </trkpt>
      <trkpt lat="49.45919" lon="5.72424">
        <ele>331</ele>
        <time>2023-06-18T06:16:48Z</time>
      </trkpt>
      <trkpt lat="49.45916" lon="5.72426">
        <ele>331.39999389648</ele>
        <time>2023-06-18T06:16:49Z</time>
      </trkpt>
      <trkpt lat="49.45913" lon="5.72429">
        <ele>331.60000610352</ele>
        <time>2023-06-18T06:16:50Z</time>
      </trkpt>
      <trkpt lat="49.45907" lon="5.72432">
        <ele>332.39999389648</ele>
        <time>2023-06-18T06:16:52Z</time>
      </trkpt>
      <trkpt lat="49.45901" lon="5.72437">
        <ele>332.79998779297</ele>
        <time>2023-06-18T06:16:54Z</time>
      </trkpt>
      <trkpt lat="49.45898" lon="5.72439">
        <ele>333</ele>
        <time>2023-06-18T06:16:55Z</time>
      </trkpt>
      <trkpt lat="49.45895" lon="5.72441">
        <ele>333</ele>
        <time>2023-06-18T06:16:56Z</time>
      </trkpt>
      <trkpt lat="49.45889" lon="5.72446">
        <ele>333.20001220703</ele>
        <time>2023-06-18T06:16:58Z</time>
      </trkpt>
      <trkpt lat="49.45886" lon="5.72448">
        <ele>333.39999389648</ele>
        <time>2023-06-18T06:16:59Z</time>
      </trkpt>
      <trkpt lat="49.45883" lon="5.7245">
        <ele>333.60000610352</ele>
        <time>2023-06-18T06:17:00Z</time>
      </trkpt>
      <trkpt lat="49.45877" lon="5.72454">
        <ele>333.79998779297</ele>
        <time>2023-06-18T06:17:02Z</time>
      </trkpt>
      <trkpt lat="49.45871" lon="5.72458">
        <ele>334.20001220703</ele>
        <time>2023-06-18T06:17:04Z</time>
      </trkpt>
      <trkpt lat="49.45865" lon="5.72463">
        <ele>334.39999389648</ele>
        <time>2023-06-18T06:17:06Z</time>
      </trkpt>
      <trkpt lat="49.45862" lon="5.72466">
        <ele>334.60000610352</ele>
        <time>2023-06-18T06:17:07Z</time>
      </trkpt>
      <trkpt lat="49.45858" lon="5.72468">
        <ele>334.60000610352</ele>
        <time>2023-06-18T06:17:08Z</time>
      </trkpt>
      <trkpt lat="49.45852" lon="5.72474">
        <ele>334.79998779297</ele>
        <time>2023-06-18T06:17:10Z</time>
      </trkpt>
      <trkpt lat="49.45845" lon="5.72479">
        <ele>334.79998779297</ele>
        <time>2023-06-18T06:17:12Z</time>
      </trkpt>
      <trkpt lat="49.45838" lon="5.72485">
        <ele>335</ele>
        <time>2023-06-18T06:17:14Z</time>
      </trkpt>
      <trkpt lat="49.45831" lon="5.72491">
        <ele>335</ele>
        <time>2023-06-18T06:17:16Z</time>
      </trkpt>
      <trkpt lat="49.45823" lon="5.72497">
        <ele>335</ele>
        <time>2023-06-18T06:17:18Z</time>
      </trkpt>
      <trkpt lat="49.45819" lon="5.725">
        <ele>335</ele>
        <time>2023-06-18T06:17:19Z</time>
      </trkpt>
      <trkpt lat="49.45815" lon="5.72503">
        <ele>335</ele>
        <time>2023-06-18T06:17:20Z</time>
      </trkpt>
      <trkpt lat="49.45808" lon="5.7251">
        <ele>335</ele>
        <time>2023-06-18T06:17:22Z</time>
      </trkpt>
      <trkpt lat="49.458" lon="5.72516">
        <ele>335</ele>
        <time>2023-06-18T06:17:24Z</time>
      </trkpt>
      <trkpt lat="49.45792" lon="5.72521">
        <ele>334.79998779297</ele>
        <time>2023-06-18T06:17:26Z</time>
      </trkpt>
      <trkpt lat="49.45783" lon="5.72527">
        <ele>334.79998779297</ele>
        <time>2023-06-18T06:17:28Z</time>
      </trkpt>
      <trkpt lat="49.45775" lon="5.72533">
        <ele>334.60000610352</ele>
        <time>2023-06-18T06:17:30Z</time>
      </trkpt>
      <trkpt lat="49.45767" lon="5.72539">
        <ele>334.60000610352</ele>
        <time>2023-06-18T06:17:32Z</time>
      </trkpt>
      <trkpt lat="49.4576" lon="5.72546">
        <ele>334.60000610352</ele>
        <time>2023-06-18T06:17:34Z</time>
      </trkpt>
      <trkpt lat="49.45752" lon="5.72553">
        <ele>334.60000610352</ele>
        <time>2023-06-18T06:17:36Z</time>
      </trkpt>
      <trkpt lat="49.45745" lon="5.7256">
        <ele>334.60000610352</ele>
        <time>2023-06-18T06:17:38Z</time>
      </trkpt>
      <trkpt lat="49.45739" lon="5.72568">
        <ele>334.60000610352</ele>
        <time>2023-06-18T06:17:40Z</time>
      </trkpt>
      <trkpt lat="49.45733" lon="5.72575">
        <ele>334.60000610352</ele>
        <time>2023-06-18T06:17:42Z</time>
      </trkpt>
      <trkpt lat="49.45727" lon="5.72583">
        <ele>334.79998779297</ele>
        <time>2023-06-18T06:17:44Z</time>
      </trkpt>
      <trkpt lat="49.45722" lon="5.7259">
        <ele>335</ele>
        <time>2023-06-18T06:17:46Z</time>
      </trkpt>
      <trkpt lat="49.45716" lon="5.72598">
        <ele>335</ele>
        <time>2023-06-18T06:17:48Z</time>
      </trkpt>
      <trkpt lat="49.4571" lon="5.72606">
        <ele>335.20001220703</ele>
        <time>2023-06-18T06:17:50Z</time>
      </trkpt>
      <trkpt lat="49.45707" lon="5.72609">
        <ele>335.20001220703</ele>
        <time>2023-06-18T06:17:51Z</time>
      </trkpt>
      <trkpt lat="49.45704" lon="5.72613">
        <ele>335.39999389648</ele>
        <time>2023-06-18T06:17:52Z</time>
      </trkpt>
      <trkpt lat="49.45701" lon="5.72616">
        <ele>335.79998779297</ele>
        <time>2023-06-18T06:17:53Z</time>
      </trkpt>
      <trkpt lat="49.45697" lon="5.7262">
        <ele>336</ele>
        <time>2023-06-18T06:17:54Z</time>
      </trkpt>
      <trkpt lat="49.45691" lon="5.72627">
        <ele>336</ele>
        <time>2023-06-18T06:17:56Z</time>
      </trkpt>
      <trkpt lat="49.45684" lon="5.72634">
        <ele>336.20001220703</ele>
        <time>2023-06-18T06:17:58Z</time>
      </trkpt>
      <trkpt lat="49.45677" lon="5.72641">
        <ele>336</ele>
        <time>2023-06-18T06:18:00Z</time>
      </trkpt>
      <trkpt lat="49.4567" lon="5.72648">
        <ele>336.39999389648</ele>
        <time>2023-06-18T06:18:02Z</time>
      </trkpt>
      <trkpt lat="49.45663" lon="5.72656">
        <ele>336.20001220703</ele>
        <time>2023-06-18T06:18:04Z</time>
      </trkpt>
      <trkpt lat="49.45656" lon="5.72664">
        <ele>336.20001220703</ele>
        <time>2023-06-18T06:18:06Z</time>
      </trkpt>
      <trkpt lat="49.45649" lon="5.72671">
        <ele>336</ele>
        <time>2023-06-18T06:18:08Z</time>
      </trkpt>
      <trkpt lat="49.45645" lon="5.72675">
        <ele>336</ele>
        <time>2023-06-18T06:18:09Z</time>
      </trkpt>
      <trkpt lat="49.45642" lon="5.72679">
        <ele>336</ele>
        <time>2023-06-18T06:18:10Z</time>
      </trkpt>
      <trkpt lat="49.45635" lon="5.72686">
        <ele>336</ele>
        <time>2023-06-18T06:18:12Z</time>
      </trkpt>
      <trkpt lat="49.45627" lon="5.72694">
        <ele>336.20001220703</ele>
        <time>2023-06-18T06:18:14Z</time>
      </trkpt>
      <trkpt lat="49.4562" lon="5.72702">
        <ele>335.79998779297</ele>
        <time>2023-06-18T06:18:16Z</time>
      </trkpt>
      <trkpt lat="49.45613" lon="5.72709">
        <ele>335.60000610352</ele>
        <time>2023-06-18T06:18:18Z</time>
      </trkpt>
      <trkpt lat="49.45606" lon="5.72716">
        <ele>335.60000610352</ele>
        <time>2023-06-18T06:18:20Z</time>
      </trkpt>
      <trkpt lat="49.45599" lon="5.72724">
        <ele>335.39999389648</ele>
        <time>2023-06-18T06:18:22Z</time>
      </trkpt>
      <trkpt lat="49.45592" lon="5.72731">
        <ele>335.60000610352</ele>
        <time>2023-06-18T06:18:24Z</time>
      </trkpt>
      <trkpt lat="49.45585" lon="5.72738">
        <ele>335.79998779297</ele>
        <time>2023-06-18T06:18:26Z</time>
      </trkpt>
      <trkpt lat="49.45578" lon="5.72746">
        <ele>335.79998779297</ele>
        <time>2023-06-18T06:18:28Z</time>
      </trkpt>
      <trkpt lat="49.45571" lon="5.72753">
        <ele>336</ele>
        <time>2023-06-18T06:18:30Z</time>
      </trkpt>
      <trkpt lat="49.45563" lon="5.7276">
        <ele>336</ele>
        <time>2023-06-18T06:18:32Z</time>
      </trkpt>
      <trkpt lat="49.45556" lon="5.72768">
        <ele>336</ele>
        <time>2023-06-18T06:18:34Z</time>
      </trkpt>
      <trkpt lat="49.45549" lon="5.72775">
        <ele>336</ele>
        <time>2023-06-18T06:18:36Z</time>
      </trkpt>
      <trkpt lat="49.45542" lon="5.72782">
        <ele>336</ele>
        <time>2023-06-18T06:18:38Z</time>
      </trkpt>
      <trkpt lat="49.45535" lon="5.7279">
        <ele>336</ele>
        <time>2023-06-18T06:18:40Z</time>
      </trkpt>
      <trkpt lat="49.45529" lon="5.72797">
        <ele>336</ele>
        <time>2023-06-18T06:18:42Z</time>
      </trkpt>
      <trkpt lat="49.45522" lon="5.72804">
        <ele>335.79998779297</ele>
        <time>2023-06-18T06:18:44Z</time>
      </trkpt>
      <trkpt lat="49.45515" lon="5.72812">
        <ele>335.79998779297</ele>
        <time>2023-06-18T06:18:46Z</time>
      </trkpt>
      <trkpt lat="49.45509" lon="5.72821">
        <ele>335.79998779297</ele>
        <time>2023-06-18T06:18:48Z</time>
      </trkpt>
      <trkpt lat="49.45504" lon="5.72831">
        <ele>335.79998779297</ele>
        <time>2023-06-18T06:18:50Z</time>
      </trkpt>
      <trkpt lat="49.45498" lon="5.7284">
        <ele>335.79998779297</ele>
        <time>2023-06-18T06:18:52Z</time>
      </trkpt>
      <trkpt lat="49.45492" lon="5.72849">
        <ele>335.39999389648</ele>
        <time>2023-06-18T06:18:54Z</time>
      </trkpt>
      <trkpt lat="49.45486" lon="5.72859">
        <ele>335.20001220703</ele>
        <time>2023-06-18T06:18:56Z</time>
      </trkpt>
      <trkpt lat="49.45481" lon="5.72868">
        <ele>335.20001220703</ele>
        <time>2023-06-18T06:18:58Z</time>
      </trkpt>
      <trkpt lat="49.45478" lon="5.72873">
        <ele>335</ele>
        <time>2023-06-18T06:18:59Z</time>
      </trkpt>
      <trkpt lat="49.45475" lon="5.72877">
        <ele>335</ele>
        <time>2023-06-18T06:19:00Z</time>
      </trkpt>
      <trkpt lat="49.45469" lon="5.72886">
        <ele>335</ele>
        <time>2023-06-18T06:19:02Z</time>
      </trkpt>
      <trkpt lat="49.45463" lon="5.72895">
        <ele>335</ele>
        <time>2023-06-18T06:19:04Z</time>
      </trkpt>
      <trkpt lat="49.45458" lon="5.72903">
        <ele>335</ele>
        <time>2023-06-18T06:19:06Z</time>
      </trkpt>
      <trkpt lat="49.45452" lon="5.72911">
        <ele>335</ele>
        <time>2023-06-18T06:19:08Z</time>
      </trkpt>
      <trkpt lat="49.45446" lon="5.7292">
        <ele>335</ele>
        <time>2023-06-18T06:19:10Z</time>
      </trkpt>
      <trkpt lat="49.45441" lon="5.72928">
        <ele>335</ele>
        <time>2023-06-18T06:19:12Z</time>
      </trkpt>
      <trkpt lat="49.45435" lon="5.72936">
        <ele>335</ele>
        <time>2023-06-18T06:19:14Z</time>
      </trkpt>
      <trkpt lat="49.45429" lon="5.72944">
        <ele>335</ele>
        <time>2023-06-18T06:19:16Z</time>
      </trkpt>
      <trkpt lat="49.45423" lon="5.72952">
        <ele>335</ele>
        <time>2023-06-18T06:19:18Z</time>
      </trkpt>
      <trkpt lat="49.45417" lon="5.72961">
        <ele>335</ele>
        <time>2023-06-18T06:19:20Z</time>
      </trkpt>
      <trkpt lat="49.45411" lon="5.7297">
        <ele>335</ele>
        <time>2023-06-18T06:19:22Z</time>
      </trkpt>
      <trkpt lat="49.45405" lon="5.72978">
        <ele>334.79998779297</ele>
        <time>2023-06-18T06:19:24Z</time>
      </trkpt>
      <trkpt lat="49.45398" lon="5.72986">
        <ele>334.79998779297</ele>
        <time>2023-06-18T06:19:26Z</time>
      </trkpt>
      <trkpt lat="49.45395" lon="5.7299">
        <ele>334.79998779297</ele>
        <time>2023-06-18T06:19:27Z</time>
      </trkpt>
      <trkpt lat="49.45392" lon="5.72995">
        <ele>334.79998779297</ele>
        <time>2023-06-18T06:19:28Z</time>
      </trkpt>
      <trkpt lat="49.45385" lon="5.73003">
        <ele>334.60000610352</ele>
        <time>2023-06-18T06:19:30Z</time>
      </trkpt>
      <trkpt lat="49.45379" lon="5.73011">
        <ele>334.60000610352</ele>
        <time>2023-06-18T06:19:32Z</time>
      </trkpt>
      <trkpt lat="49.45372" lon="5.73019">
        <ele>334.20001220703</ele>
        <time>2023-06-18T06:19:34Z</time>
      </trkpt>
      <trkpt lat="49.45365" lon="5.73026">
        <ele>334</ele>
        <time>2023-06-18T06:19:36Z</time>
      </trkpt>
      <trkpt lat="49.45362" lon="5.73029">
        <ele>334</ele>
        <time>2023-06-18T06:19:37Z</time>
      </trkpt>
      <trkpt lat="49.45358" lon="5.73033">
        <ele>334</ele>
        <time>2023-06-18T06:19:38Z</time>
      </trkpt>
      <trkpt lat="49.45351" lon="5.7304">
        <ele>333.79998779297</ele>
        <time>2023-06-18T06:19:40Z</time>
      </trkpt>
      <trkpt lat="49.45344" lon="5.73047">
        <ele>333.79998779297</ele>
        <time>2023-06-18T06:19:42Z</time>
      </trkpt>
      <trkpt lat="49.4534" lon="5.73051">
        <ele>333.79998779297</ele>
        <time>2023-06-18T06:19:43Z</time>
      </trkpt>
      <trkpt lat="49.45336" lon="5.73054">
        <ele>333.60000610352</ele>
        <time>2023-06-18T06:19:44Z</time>
      </trkpt>
      <trkpt lat="49.45328" lon="5.73061">
        <ele>333.39999389648</ele>
        <time>2023-06-18T06:19:46Z</time>
      </trkpt>
      <trkpt lat="49.45318" lon="5.73069">
        <ele>333.20001220703</ele>
        <time>2023-06-18T06:19:48Z</time>
      </trkpt>
      <trkpt lat="49.45309" lon="5.73075">
        <ele>333.20001220703</ele>
        <time>2023-06-18T06:19:50Z</time>
      </trkpt>
      <trkpt lat="49.45303" lon="5.73078">
        <ele>333</ele>
        <time>2023-06-18T06:19:51Z</time>
      </trkpt>
      <trkpt lat="49.45298" lon="5.7308">
        <ele>333</ele>
        <time>2023-06-18T06:19:52Z</time>
      </trkpt>
      <trkpt lat="49.45294" lon="5.73083">
        <ele>332.60000610352</ele>
        <time>2023-06-18T06:19:53Z</time>
      </trkpt>
      <trkpt lat="49.45289" lon="5.73085">
        <ele>332.39999389648</ele>
        <time>2023-06-18T06:19:54Z</time>
      </trkpt>
      <trkpt lat="49.4528" lon="5.73088">
        <ele>332</ele>
        <time>2023-06-18T06:19:56Z</time>
      </trkpt>
      <trkpt lat="49.45271" lon="5.73089">
        <ele>331.39999389648</ele>
        <time>2023-06-18T06:19:58Z</time>
      </trkpt>
      <trkpt lat="49.45267" lon="5.7309">
        <ele>331.20001220703</ele>
        <time>2023-06-18T06:19:59Z</time>
      </trkpt>
      <trkpt lat="49.45263" lon="5.7309">
        <ele>331.20001220703</ele>
        <time>2023-06-18T06:20:00Z</time>
      </trkpt>
      <trkpt lat="49.45255" lon="5.73091">
        <ele>331.20001220703</ele>
        <time>2023-06-18T06:20:02Z</time>
      </trkpt>
      <trkpt lat="49.45247" lon="5.73091">
        <ele>331.20001220703</ele>
        <time>2023-06-18T06:20:04Z</time>
      </trkpt>
      <trkpt lat="49.45239" lon="5.73091">
        <ele>331.20001220703</ele>
        <time>2023-06-18T06:20:06Z</time>
      </trkpt>
      <trkpt lat="49.45235" lon="5.73091">
        <ele>331.39999389648</ele>
        <time>2023-06-18T06:20:07Z</time>
      </trkpt>
      <trkpt lat="49.45231" lon="5.73092">
        <ele>331.39999389648</ele>
        <time>2023-06-18T06:20:08Z</time>
      </trkpt>
      <trkpt lat="49.45224" lon="5.73092">
        <ele>331.79998779297</ele>
        <time>2023-06-18T06:20:10Z</time>
      </trkpt>
      <trkpt lat="49.45218" lon="5.73092">
        <ele>332</ele>
        <time>2023-06-18T06:20:12Z</time>
      </trkpt>
      <trkpt lat="49.45212" lon="5.73092">
        <ele>332.20001220703</ele>
        <time>2023-06-18T06:20:14Z</time>
      </trkpt>
      <trkpt lat="49.45206" lon="5.73092">
        <ele>332.39999389648</ele>
        <time>2023-06-18T06:20:16Z</time>
      </trkpt>
      <trkpt lat="49.45201" lon="5.73092">
        <ele>333.20001220703</ele>
        <time>2023-06-18T06:20:18Z</time>
      </trkpt>
      <trkpt lat="49.45196" lon="5.73092">
        <ele>333.79998779297</ele>
        <time>2023-06-18T06:20:20Z</time>
      </trkpt>
      <trkpt lat="49.45191" lon="5.73092">
        <ele>334</ele>
        <time>2023-06-18T06:20:22Z</time>
      </trkpt>
      <trkpt lat="49.45186" lon="5.73092">
        <ele>334.60000610352</ele>
        <time>2023-06-18T06:20:24Z</time>
      </trkpt>
      <trkpt lat="49.45181" lon="5.73093">
        <ele>335</ele>
        <time>2023-06-18T06:20:26Z</time>
      </trkpt>
      <trkpt lat="49.45177" lon="5.73095">
        <ele>335.60000610352</ele>
        <time>2023-06-18T06:20:28Z</time>
      </trkpt>
      <trkpt lat="49.45175" lon="5.73095">
        <ele>336</ele>
        <time>2023-06-18T06:20:29Z</time>
      </trkpt>
      <trkpt lat="49.45173" lon="5.73096">
        <ele>336.39999389648</ele>
        <time>2023-06-18T06:20:30Z</time>
      </trkpt>
      <trkpt lat="49.45168" lon="5.73097">
        <ele>336.79998779297</ele>
        <time>2023-06-18T06:20:32Z</time>
      </trkpt>
      <trkpt lat="49.45164" lon="5.731">
        <ele>337.20001220703</ele>
        <time>2023-06-18T06:20:34Z</time>
      </trkpt>
      <trkpt lat="49.45162" lon="5.73101">
        <ele>337.39999389648</ele>
        <time>2023-06-18T06:20:35Z</time>
      </trkpt>
      <trkpt lat="49.4516" lon="5.73102">
        <ele>337.79998779297</ele>
        <time>2023-06-18T06:20:36Z</time>
      </trkpt>
      <trkpt lat="49.45156" lon="5.73105">
        <ele>338.20001220703</ele>
        <time>2023-06-18T06:20:38Z</time>
      </trkpt>
      <trkpt lat="49.45152" lon="5.73109">
        <ele>338.60000610352</ele>
        <time>2023-06-18T06:20:40Z</time>
      </trkpt>
      <trkpt lat="49.45148" lon="5.73113">
        <ele>339</ele>
        <time>2023-06-18T06:20:42Z</time>
      </trkpt>
      <trkpt lat="49.45147" lon="5.73116">
        <ele>339.60000610352</ele>
        <time>2023-06-18T06:20:43Z</time>
      </trkpt>
      <trkpt lat="49.45145" lon="5.73118">
        <ele>339.79998779297</ele>
        <time>2023-06-18T06:20:44Z</time>
      </trkpt>
      <trkpt lat="49.45143" lon="5.73124">
        <ele>340.39999389648</ele>
        <time>2023-06-18T06:20:46Z</time>
      </trkpt>
      <trkpt lat="49.45141" lon="5.7313">
        <ele>340.39999389648</ele>
        <time>2023-06-18T06:20:48Z</time>
      </trkpt>
      <trkpt lat="49.4514" lon="5.73136">
        <ele>340.60000610352</ele>
        <time>2023-06-18T06:20:50Z</time>
      </trkpt>
      <trkpt lat="49.4514" lon="5.7314">
        <ele>340.79998779297</ele>
        <time>2023-06-18T06:20:51Z</time>
      </trkpt>
      <trkpt lat="49.45139" lon="5.73143">
        <ele>341</ele>
        <time>2023-06-18T06:20:52Z</time>
      </trkpt>
      <trkpt lat="49.45138" lon="5.7315">
        <ele>341.60000610352</ele>
        <time>2023-06-18T06:20:54Z</time>
      </trkpt>
      <trkpt lat="49.45137" lon="5.73156">
        <ele>342</ele>
        <time>2023-06-18T06:20:56Z</time>
      </trkpt>
      <trkpt lat="49.45135" lon="5.73162">
        <ele>342.60000610352</ele>
        <time>2023-06-18T06:20:58Z</time>
      </trkpt>
      <trkpt lat="49.45134" lon="5.73168">
        <ele>342.79998779297</ele>
        <time>2023-06-18T06:21:00Z</time>
      </trkpt>
      <trkpt lat="49.45133" lon="5.73175">
        <ele>343.20001220703</ele>
        <time>2023-06-18T06:21:02Z</time>
      </trkpt>
      <trkpt lat="49.45131" lon="5.73182">
        <ele>343.60000610352</ele>
        <time>2023-06-18T06:21:04Z</time>
      </trkpt>
      <trkpt lat="49.45131" lon="5.73186">
        <ele>343.79998779297</ele>
        <time>2023-06-18T06:21:05Z</time>
      </trkpt>
      <trkpt lat="49.4513" lon="5.73189">
        <ele>343.79998779297</ele>
        <time>2023-06-18T06:21:06Z</time>
      </trkpt>
      <trkpt lat="49.45129" lon="5.73195">
        <ele>344.20001220703</ele>
        <time>2023-06-18T06:21:08Z</time>
      </trkpt>
      <trkpt lat="49.45128" lon="5.73202">
        <ele>344.39999389648</ele>
        <time>2023-06-18T06:21:10Z</time>
      </trkpt>
      <trkpt lat="49.45127" lon="5.73209">
        <ele>344.79998779297</ele>
        <time>2023-06-18T06:21:12Z</time>
      </trkpt>
      <trkpt lat="49.45125" lon="5.73216">
        <ele>345.20001220703</ele>
        <time>2023-06-18T06:21:14Z</time>
      </trkpt>
      <trkpt lat="49.45124" lon="5.73223">
        <ele>345.60000610352</ele>
        <time>2023-06-18T06:21:16Z</time>
      </trkpt>
      <trkpt lat="49.45122" lon="5.7323">
        <ele>345.79998779297</ele>
        <time>2023-06-18T06:21:18Z</time>
      </trkpt>
      <trkpt lat="49.45122" lon="5.73233">
        <ele>345.79998779297</ele>
        <time>2023-06-18T06:21:19Z</time>
      </trkpt>
      <trkpt lat="49.45121" lon="5.73236">
        <ele>346</ele>
        <time>2023-06-18T06:21:20Z</time>
      </trkpt>
      <trkpt lat="49.45119" lon="5.73243">
        <ele>346.60000610352</ele>
        <time>2023-06-18T06:21:22Z</time>
      </trkpt>
      <trkpt lat="49.45118" lon="5.73249">
        <ele>346.79998779297</ele>
        <time>2023-06-18T06:21:24Z</time>
      </trkpt>
      <trkpt lat="49.45117" lon="5.73252">
        <ele>347</ele>
        <time>2023-06-18T06:21:25Z</time>
      </trkpt>
      <trkpt lat="49.45116" lon="5.73255">
        <ele>347.79998779297</ele>
        <time>2023-06-18T06:21:26Z</time>
      </trkpt>
      <trkpt lat="49.45116" lon="5.73259">
        <ele>348</ele>
        <time>2023-06-18T06:21:27Z</time>
      </trkpt>
      <trkpt lat="49.45115" lon="5.73262">
        <ele>348.20001220703</ele>
        <time>2023-06-18T06:21:28Z</time>
      </trkpt>
      <trkpt lat="49.45113" lon="5.73268">
        <ele>348.39999389648</ele>
        <time>2023-06-18T06:21:30Z</time>
      </trkpt>
      <trkpt lat="49.45112" lon="5.73274">
        <ele>348.79998779297</ele>
        <time>2023-06-18T06:21:32Z</time>
      </trkpt>
      <trkpt lat="49.4511" lon="5.7328">
        <ele>349.20001220703</ele>
        <time>2023-06-18T06:21:34Z</time>
      </trkpt>
      <trkpt lat="49.45108" lon="5.73286">
        <ele>349.39999389648</ele>
        <time>2023-06-18T06:21:36Z</time>
      </trkpt>
      <trkpt lat="49.45107" lon="5.73292">
        <ele>349.60000610352</ele>
        <time>2023-06-18T06:21:38Z</time>
      </trkpt>
      <trkpt lat="49.45105" lon="5.73298">
        <ele>349.79998779297</ele>
        <time>2023-06-18T06:21:40Z</time>
      </trkpt>
      <trkpt lat="49.45103" lon="5.73304">
        <ele>350</ele>
        <time>2023-06-18T06:21:42Z</time>
      </trkpt>
      <trkpt lat="49.45102" lon="5.73307">
        <ele>350.20001220703</ele>
        <time>2023-06-18T06:21:43Z</time>
      </trkpt>
      <trkpt lat="49.45101" lon="5.73311">
        <ele>350.39999389648</ele>
        <time>2023-06-18T06:21:44Z</time>
      </trkpt>
      <trkpt lat="49.451" lon="5.73316">
        <ele>350.79998779297</ele>
        <time>2023-06-18T06:21:46Z</time>
      </trkpt>
      <trkpt lat="49.45098" lon="5.73322">
        <ele>351.39999389648</ele>
        <time>2023-06-18T06:21:48Z</time>
      </trkpt>
      <trkpt lat="49.45095" lon="5.73328">
        <ele>351.60000610352</ele>
        <time>2023-06-18T06:21:50Z</time>
      </trkpt>
      <trkpt lat="49.45094" lon="5.73331">
        <ele>351.60000610352</ele>
        <time>2023-06-18T06:21:51Z</time>
      </trkpt>
      <trkpt lat="49.45093" lon="5.73334">
        <ele>351.79998779297</ele>
        <time>2023-06-18T06:21:52Z</time>
      </trkpt>
      <trkpt lat="49.4509" lon="5.73341">
        <ele>351.79998779297</ele>
        <time>2023-06-18T06:21:54Z</time>
      </trkpt>
      <trkpt lat="49.45087" lon="5.73348">
        <ele>351.79998779297</ele>
        <time>2023-06-18T06:21:56Z</time>
      </trkpt>
      <trkpt lat="49.45084" lon="5.73356">
        <ele>351.79998779297</ele>
        <time>2023-06-18T06:21:58Z</time>
      </trkpt>
      <trkpt lat="49.45082" lon="5.73361">
        <ele>351.79998779297</ele>
        <time>2023-06-18T06:21:59Z</time>
      </trkpt>
      <trkpt lat="49.4508" lon="5.73366">
        <ele>351.79998779297</ele>
        <time>2023-06-18T06:22:00Z</time>
      </trkpt>
      <trkpt lat="49.45075" lon="5.73376">
        <ele>351.79998779297</ele>
        <time>2023-06-18T06:22:02Z</time>
      </trkpt>
      <trkpt lat="49.4507" lon="5.73387">
        <ele>351.60000610352</ele>
        <time>2023-06-18T06:22:04Z</time>
      </trkpt>
      <trkpt lat="49.45067" lon="5.73393">
        <ele>351.60000610352</ele>
        <time>2023-06-18T06:22:05Z</time>
      </trkpt>
      <trkpt lat="49.45064" lon="5.73399">
        <ele>351.39999389648</ele>
        <time>2023-06-18T06:22:06Z</time>
      </trkpt>
      <trkpt lat="49.45059" lon="5.73411">
        <ele>350.79998779297</ele>
        <time>2023-06-18T06:22:08Z</time>
      </trkpt>
      <trkpt lat="49.45054" lon="5.73425">
        <ele>350.39999389648</ele>
        <time>2023-06-18T06:22:10Z</time>
      </trkpt>
      <trkpt lat="49.45053" lon="5.73432">
        <ele>350.20001220703</ele>
        <time>2023-06-18T06:22:11Z</time>
      </trkpt>
      <trkpt lat="49.4505" lon="5.73438">
        <ele>349.39999389648</ele>
        <time>2023-06-18T06:22:12Z</time>
      </trkpt>
      <trkpt lat="49.45048" lon="5.73443">
        <ele>348.79998779297</ele>
        <time>2023-06-18T06:22:13Z</time>
      </trkpt>
      <trkpt lat="49.45045" lon="5.73446">
        <ele>348.20001220703</ele>
        <time>2023-06-18T06:22:14Z</time>
      </trkpt>
      <trkpt lat="49.45043" lon="5.73446">
        <ele>348</ele>
        <time>2023-06-18T06:22:15Z</time>
      </trkpt>
      <trkpt lat="49.45041" lon="5.73443">
        <ele>347.39999389648</ele>
        <time>2023-06-18T06:22:16Z</time>
      </trkpt>
      <trkpt lat="49.45038" lon="5.73436">
        <ele>346.60000610352</ele>
        <time>2023-06-18T06:22:18Z</time>
      </trkpt>
      <trkpt lat="49.45037" lon="5.73431">
        <ele>346</ele>
        <time>2023-06-18T06:22:19Z</time>
      </trkpt>
      <trkpt lat="49.45035" lon="5.73426">
        <ele>345.60000610352</ele>
        <time>2023-06-18T06:22:20Z</time>
      </trkpt>
      <trkpt lat="49.45032" lon="5.73415">
        <ele>345.20001220703</ele>
        <time>2023-06-18T06:22:22Z</time>
      </trkpt>
      <trkpt lat="49.4503" lon="5.73409">
        <ele>345</ele>
        <time>2023-06-18T06:22:23Z</time>
      </trkpt>
      <trkpt lat="49.45029" lon="5.73403">
        <ele>345</ele>
        <time>2023-06-18T06:22:24Z</time>
      </trkpt>
      <trkpt lat="49.45027" lon="5.73391">
        <ele>344.60000610352</ele>
        <time>2023-06-18T06:22:26Z</time>
      </trkpt>
      <trkpt lat="49.45025" lon="5.73379">
        <ele>344.39999389648</ele>
        <time>2023-06-18T06:22:28Z</time>
      </trkpt>
      <trkpt lat="49.45024" lon="5.73368">
        <ele>344.20001220703</ele>
        <time>2023-06-18T06:22:30Z</time>
      </trkpt>
      <trkpt lat="49.45022" lon="5.73357">
        <ele>344.20001220703</ele>
        <time>2023-06-18T06:22:32Z</time>
      </trkpt>
      <trkpt lat="49.45021" lon="5.73345">
        <ele>344.20001220703</ele>
        <time>2023-06-18T06:22:34Z</time>
      </trkpt>
      <trkpt lat="49.4502" lon="5.73334">
        <ele>344.20001220703</ele>
        <time>2023-06-18T06:22:36Z</time>
      </trkpt>
      <trkpt lat="49.45018" lon="5.73322">
        <ele>344.20001220703</ele>
        <time>2023-06-18T06:22:38Z</time>
      </trkpt>
      <trkpt lat="49.45017" lon="5.73316">
        <ele>344.20001220703</ele>
        <time>2023-06-18T06:22:39Z</time>
      </trkpt>
      <trkpt lat="49.45017" lon="5.7331">
        <ele>344.20001220703</ele>
        <time>2023-06-18T06:22:40Z</time>
      </trkpt>
      <trkpt lat="49.45015" lon="5.73298">
        <ele>344.20001220703</ele>
        <time>2023-06-18T06:22:42Z</time>
      </trkpt>
      <trkpt lat="49.45014" lon="5.73286">
        <ele>344.20001220703</ele>
        <time>2023-06-18T06:22:44Z</time>
      </trkpt>
      <trkpt lat="49.45012" lon="5.73274">
        <ele>344.20001220703</ele>
        <time>2023-06-18T06:22:46Z</time>
      </trkpt>
      <trkpt lat="49.45012" lon="5.73268">
        <ele>344.39999389648</ele>
        <time>2023-06-18T06:22:47Z</time>
      </trkpt>
      <trkpt lat="49.45011" lon="5.73262">
        <ele>344.39999389648</ele>
        <time>2023-06-18T06:22:48Z</time>
      </trkpt>
      <trkpt lat="49.45008" lon="5.7325">
        <ele>344.39999389648</ele>
        <time>2023-06-18T06:22:50Z</time>
      </trkpt>
      <trkpt lat="49.45006" lon="5.73238">
        <ele>344.39999389648</ele>
        <time>2023-06-18T06:22:52Z</time>
      </trkpt>
      <trkpt lat="49.45005" lon="5.73232">
        <ele>344.39999389648</ele>
        <time>2023-06-18T06:22:53Z</time>
      </trkpt>
      <trkpt lat="49.45003" lon="5.73226">
        <ele>344.39999389648</ele>
        <time>2023-06-18T06:22:54Z</time>
      </trkpt>
      <trkpt lat="49.45" lon="5.73213">
        <ele>344.20001220703</ele>
        <time>2023-06-18T06:22:56Z</time>
      </trkpt>
      <trkpt lat="49.44997" lon="5.73201">
        <ele>344.20001220703</ele>
        <time>2023-06-18T06:22:58Z</time>
      </trkpt>
      <trkpt lat="49.44994" lon="5.73189">
        <ele>344.20001220703</ele>
        <time>2023-06-18T06:23:00Z</time>
      </trkpt>
      <trkpt lat="49.44991" lon="5.73177">
        <ele>344</ele>
        <time>2023-06-18T06:23:02Z</time>
      </trkpt>
      <trkpt lat="49.44989" lon="5.7317">
        <ele>343.79998779297</ele>
        <time>2023-06-18T06:23:03Z</time>
      </trkpt>
      <trkpt lat="49.44987" lon="5.73164">
        <ele>343.79998779297</ele>
        <time>2023-06-18T06:23:04Z</time>
      </trkpt>
      <trkpt lat="49.44983" lon="5.73151">
        <ele>343.60000610352</ele>
        <time>2023-06-18T06:23:06Z</time>
      </trkpt>
      <trkpt lat="49.44978" lon="5.73139">
        <ele>343.39999389648</ele>
        <time>2023-06-18T06:23:08Z</time>
      </trkpt>
      <trkpt lat="49.44973" lon="5.73126">
        <ele>343.20001220703</ele>
        <time>2023-06-18T06:23:10Z</time>
      </trkpt>
      <trkpt lat="49.44971" lon="5.73121">
        <ele>343</ele>
        <time>2023-06-18T06:23:11Z</time>
      </trkpt>
      <trkpt lat="49.44967" lon="5.73115">
        <ele>343</ele>
        <time>2023-06-18T06:23:12Z</time>
      </trkpt>
      <trkpt lat="49.44964" lon="5.7311">
        <ele>343</ele>
        <time>2023-06-18T06:23:13Z</time>
      </trkpt>
      <trkpt lat="49.44961" lon="5.73105">
        <ele>342.79998779297</ele>
        <time>2023-06-18T06:23:14Z</time>
      </trkpt>
      <trkpt lat="49.44954" lon="5.73095">
        <ele>342.79998779297</ele>
        <time>2023-06-18T06:23:16Z</time>
      </trkpt>
      <trkpt lat="49.44947" lon="5.73086">
        <ele>342.60000610352</ele>
        <time>2023-06-18T06:23:18Z</time>
      </trkpt>
      <trkpt lat="49.44943" lon="5.73082">
        <ele>342.60000610352</ele>
        <time>2023-06-18T06:23:19Z</time>
      </trkpt>
      <trkpt lat="49.4494" lon="5.73077">
        <ele>342.60000610352</ele>
        <time>2023-06-18T06:23:20Z</time>
      </trkpt>
      <trkpt lat="49.44932" lon="5.73069">
        <ele>342.60000610352</ele>
        <time>2023-06-18T06:23:22Z</time>
      </trkpt>
      <trkpt lat="49.44925" lon="5.73061">
        <ele>342.60000610352</ele>
        <time>2023-06-18T06:23:24Z</time>
      </trkpt>
      <trkpt lat="49.44916" lon="5.73055">
        <ele>342.60000610352</ele>
        <time>2023-06-18T06:23:26Z</time>
      </trkpt>
      <trkpt lat="49.44912" lon="5.73052">
        <ele>342.60000610352</ele>
        <time>2023-06-18T06:23:27Z</time>
      </trkpt>
      <trkpt lat="49.44907" lon="5.73051">
        <ele>342.60000610352</ele>
        <time>2023-06-18T06:23:28Z</time>
      </trkpt>
      <trkpt lat="49.44897" lon="5.73049">
        <ele>342.60000610352</ele>
        <time>2023-06-18T06:23:30Z</time>
      </trkpt>
      <trkpt lat="49.44887" lon="5.73048">
        <ele>342.60000610352</ele>
        <time>2023-06-18T06:23:32Z</time>
      </trkpt>
      <trkpt lat="49.44882" lon="5.73048">
        <ele>342.60000610352</ele>
        <time>2023-06-18T06:23:33Z</time>
      </trkpt>
      <trkpt lat="49.44877" lon="5.73049">
        <ele>342.60000610352</ele>
        <time>2023-06-18T06:23:34Z</time>
      </trkpt>
      <trkpt lat="49.44868" lon="5.73052">
        <ele>342.39999389648</ele>
        <time>2023-06-18T06:23:36Z</time>
      </trkpt>
      <trkpt lat="49.44858" lon="5.73055">
        <ele>342.39999389648</ele>
        <time>2023-06-18T06:23:38Z</time>
      </trkpt>
      <trkpt lat="49.44853" lon="5.73056">
        <ele>342.20001220703</ele>
        <time>2023-06-18T06:23:39Z</time>
      </trkpt>
      <trkpt lat="49.44849" lon="5.73059">
        <ele>342</ele>
        <time>2023-06-18T06:23:40Z</time>
      </trkpt>
      <trkpt lat="49.44839" lon="5.73063">
        <ele>342</ele>
        <time>2023-06-18T06:23:42Z</time>
      </trkpt>
      <trkpt lat="49.4483" lon="5.73069">
        <ele>342</ele>
        <time>2023-06-18T06:23:44Z</time>
      </trkpt>
      <trkpt lat="49.44825" lon="5.73071">
        <ele>342</ele>
        <time>2023-06-18T06:23:45Z</time>
      </trkpt>
      <trkpt lat="49.44821" lon="5.73073">
        <ele>341.79998779297</ele>
        <time>2023-06-18T06:23:46Z</time>
      </trkpt>
      <trkpt lat="49.44812" lon="5.73079">
        <ele>341.79998779297</ele>
        <time>2023-06-18T06:23:48Z</time>
      </trkpt>
      <trkpt lat="49.44804" lon="5.73084">
        <ele>341.79998779297</ele>
        <time>2023-06-18T06:23:50Z</time>
      </trkpt>
      <trkpt lat="49.44795" lon="5.73089">
        <ele>341.79998779297</ele>
        <time>2023-06-18T06:23:52Z</time>
      </trkpt>
      <trkpt lat="49.44787" lon="5.73094">
        <ele>341.79998779297</ele>
        <time>2023-06-18T06:23:54Z</time>
      </trkpt>
      <trkpt lat="49.44779" lon="5.73098">
        <ele>342</ele>
        <time>2023-06-18T06:23:56Z</time>
      </trkpt>
      <trkpt lat="49.4477" lon="5.73101">
        <ele>342</ele>
        <time>2023-06-18T06:23:58Z</time>
      </trkpt>
      <trkpt lat="49.4476" lon="5.73104">
        <ele>342</ele>
        <time>2023-06-18T06:24:00Z</time>
      </trkpt>
      <trkpt lat="49.44751" lon="5.73105">
        <ele>342.20001220703</ele>
        <time>2023-06-18T06:24:02Z</time>
      </trkpt>
      <trkpt lat="49.44742" lon="5.73106">
        <ele>342.20001220703</ele>
        <time>2023-06-18T06:24:04Z</time>
      </trkpt>
      <trkpt lat="49.44733" lon="5.73106">
        <ele>342.20001220703</ele>
        <time>2023-06-18T06:24:06Z</time>
      </trkpt>
      <trkpt lat="49.44725" lon="5.73106">
        <ele>342.39999389648</ele>
        <time>2023-06-18T06:24:08Z</time>
      </trkpt>
      <trkpt lat="49.44717" lon="5.73107">
        <ele>342.39999389648</ele>
        <time>2023-06-18T06:24:10Z</time>
      </trkpt>
      <trkpt lat="49.44709" lon="5.73108">
        <ele>342.39999389648</ele>
        <time>2023-06-18T06:24:12Z</time>
      </trkpt>
      <trkpt lat="49.44701" lon="5.73109">
        <ele>342.60000610352</ele>
        <time>2023-06-18T06:24:14Z</time>
      </trkpt>
      <trkpt lat="49.44693" lon="5.73108">
        <ele>342.79998779297</ele>
        <time>2023-06-18T06:24:16Z</time>
      </trkpt>
      <trkpt lat="49.44686" lon="5.73106">
        <ele>342.79998779297</ele>
        <time>2023-06-18T06:24:18Z</time>
      </trkpt>
      <trkpt lat="49.44679" lon="5.73105">
        <ele>342.79998779297</ele>
        <time>2023-06-18T06:24:20Z</time>
      </trkpt>
      <trkpt lat="49.44672" lon="5.73105">
        <ele>342.79998779297</ele>
        <time>2023-06-18T06:24:22Z</time>
      </trkpt>
      <trkpt lat="49.44665" lon="5.73106">
        <ele>343</ele>
        <time>2023-06-18T06:24:24Z</time>
      </trkpt>
      <trkpt lat="49.44657" lon="5.73109">
        <ele>343.79998779297</ele>
        <time>2023-06-18T06:24:26Z</time>
      </trkpt>
      <trkpt lat="49.44649" lon="5.73112">
        <ele>344</ele>
        <time>2023-06-18T06:24:28Z</time>
      </trkpt>
      <trkpt lat="49.44641" lon="5.73117">
        <ele>344.20001220703</ele>
        <time>2023-06-18T06:24:30Z</time>
      </trkpt>
      <trkpt lat="49.44637" lon="5.7312">
        <ele>344.20001220703</ele>
        <time>2023-06-18T06:24:31Z</time>
      </trkpt>
      <trkpt lat="49.44633" lon="5.73123">
        <ele>344.39999389648</ele>
        <time>2023-06-18T06:24:32Z</time>
      </trkpt>
      <trkpt lat="49.44625" lon="5.73128">
        <ele>344.60000610352</ele>
        <time>2023-06-18T06:24:34Z</time>
      </trkpt>
      <trkpt lat="49.44616" lon="5.73134">
        <ele>345</ele>
        <time>2023-06-18T06:24:36Z</time>
      </trkpt>
      <trkpt lat="49.44608" lon="5.73142">
        <ele>345.20001220703</ele>
        <time>2023-06-18T06:24:38Z</time>
      </trkpt>
      <trkpt lat="49.44598" lon="5.73152">
        <ele>345.20001220703</ele>
        <time>2023-06-18T06:24:40Z</time>
      </trkpt>
      <trkpt lat="49.44589" lon="5.7316">
        <ele>345.39999389648</ele>
        <time>2023-06-18T06:24:42Z</time>
      </trkpt>
      <trkpt lat="49.44581" lon="5.73168">
        <ele>345.39999389648</ele>
        <time>2023-06-18T06:24:44Z</time>
      </trkpt>
      <trkpt lat="49.44573" lon="5.73175">
        <ele>345.79998779297</ele>
        <time>2023-06-18T06:24:46Z</time>
      </trkpt>
      <trkpt lat="49.44566" lon="5.73181">
        <ele>346.20001220703</ele>
        <time>2023-06-18T06:24:48Z</time>
      </trkpt>
      <trkpt lat="49.44563" lon="5.73184">
        <ele>346.20001220703</ele>
        <time>2023-06-18T06:24:49Z</time>
      </trkpt>
      <trkpt lat="49.4456" lon="5.73187">
        <ele>346.39999389648</ele>
        <time>2023-06-18T06:24:50Z</time>
      </trkpt>
      <trkpt lat="49.44553" lon="5.73193">
        <ele>346.60000610352</ele>
        <time>2023-06-18T06:24:52Z</time>
      </trkpt>
      <trkpt lat="49.44546" lon="5.73199">
        <ele>346.79998779297</ele>
        <time>2023-06-18T06:24:54Z</time>
      </trkpt>
      <trkpt lat="49.44542" lon="5.73202">
        <ele>347</ele>
        <time>2023-06-18T06:24:55Z</time>
      </trkpt>
      <trkpt lat="49.44539" lon="5.73205">
        <ele>347</ele>
        <time>2023-06-18T06:24:56Z</time>
      </trkpt>
      <trkpt lat="49.44532" lon="5.7321">
        <ele>347.20001220703</ele>
        <time>2023-06-18T06:24:58Z</time>
      </trkpt>
      <trkpt lat="49.44524" lon="5.73217">
        <ele>347.39999389648</ele>
        <time>2023-06-18T06:25:00Z</time>
      </trkpt>
      <trkpt lat="49.4452" lon="5.7322">
        <ele>347.39999389648</ele>
        <time>2023-06-18T06:25:01Z</time>
      </trkpt>
      <trkpt lat="49.44516" lon="5.73223">
        <ele>347.79998779297</ele>
        <time>2023-06-18T06:25:02Z</time>
      </trkpt>
      <trkpt lat="49.44509" lon="5.7323">
        <ele>348.39999389648</ele>
        <time>2023-06-18T06:25:04Z</time>
      </trkpt>
      <trkpt lat="49.44502" lon="5.73236">
        <ele>348.60000610352</ele>
        <time>2023-06-18T06:25:06Z</time>
      </trkpt>
      <trkpt lat="49.44499" lon="5.7324">
        <ele>348.79998779297</ele>
        <time>2023-06-18T06:25:07Z</time>
      </trkpt>
      <trkpt lat="49.44495" lon="5.73243">
        <ele>348.79998779297</ele>
        <time>2023-06-18T06:25:08Z</time>
      </trkpt>
      <trkpt lat="49.44487" lon="5.73248">
        <ele>348.79998779297</ele>
        <time>2023-06-18T06:25:10Z</time>
      </trkpt>
      <trkpt lat="49.44479" lon="5.73255">
        <ele>349.20001220703</ele>
        <time>2023-06-18T06:25:12Z</time>
      </trkpt>
      <trkpt lat="49.44471" lon="5.73261">
        <ele>349.39999389648</ele>
        <time>2023-06-18T06:25:14Z</time>
      </trkpt>
      <trkpt lat="49.44467" lon="5.73263">
        <ele>349.39999389648</ele>
        <time>2023-06-18T06:25:15Z</time>
      </trkpt>
      <trkpt lat="49.44463" lon="5.73265">
        <ele>349.60000610352</ele>
        <time>2023-06-18T06:25:16Z</time>
      </trkpt>
      <trkpt lat="49.44455" lon="5.73269">
        <ele>349.79998779297</ele>
        <time>2023-06-18T06:25:18Z</time>
      </trkpt>
      <trkpt lat="49.44446" lon="5.73272">
        <ele>350.20001220703</ele>
        <time>2023-06-18T06:25:20Z</time>
      </trkpt>
      <trkpt lat="49.44441" lon="5.73274">
        <ele>350.39999389648</ele>
        <time>2023-06-18T06:25:21Z</time>
      </trkpt>
      <trkpt lat="49.44436" lon="5.73275">
        <ele>350.60000610352</ele>
        <time>2023-06-18T06:25:22Z</time>
      </trkpt>
      <trkpt lat="49.44427" lon="5.73276">
        <ele>350.79998779297</ele>
        <time>2023-06-18T06:25:24Z</time>
      </trkpt>
      <trkpt lat="49.44417" lon="5.73278">
        <ele>351</ele>
        <time>2023-06-18T06:25:26Z</time>
      </trkpt>
      <trkpt lat="49.44406" lon="5.73278">
        <ele>351</ele>
        <time>2023-06-18T06:25:28Z</time>
      </trkpt>
      <trkpt lat="49.44397" lon="5.73278">
        <ele>351</ele>
        <time>2023-06-18T06:25:30Z</time>
      </trkpt>
      <trkpt lat="49.44387" lon="5.73276">
        <ele>351.20001220703</ele>
        <time>2023-06-18T06:25:32Z</time>
      </trkpt>
      <trkpt lat="49.44377" lon="5.73274">
        <ele>351.20001220703</ele>
        <time>2023-06-18T06:25:34Z</time>
      </trkpt>
      <trkpt lat="49.44367" lon="5.73272">
        <ele>351.20001220703</ele>
        <time>2023-06-18T06:25:36Z</time>
      </trkpt>
      <trkpt lat="49.44357" lon="5.7327">
        <ele>351.39999389648</ele>
        <time>2023-06-18T06:25:38Z</time>
      </trkpt>
      <trkpt lat="49.44351" lon="5.73269">
        <ele>351.39999389648</ele>
        <time>2023-06-18T06:25:39Z</time>
      </trkpt>
      <trkpt lat="49.44346" lon="5.73268">
        <ele>351.39999389648</ele>
        <time>2023-06-18T06:25:40Z</time>
      </trkpt>
      <trkpt lat="49.44336" lon="5.73266">
        <ele>351.60000610352</ele>
        <time>2023-06-18T06:25:42Z</time>
      </trkpt>
      <trkpt lat="49.44326" lon="5.73264">
        <ele>351.39999389648</ele>
        <time>2023-06-18T06:25:44Z</time>
      </trkpt>
      <trkpt lat="49.44316" lon="5.73261">
        <ele>351.39999389648</ele>
        <time>2023-06-18T06:25:46Z</time>
      </trkpt>
      <trkpt lat="49.44306" lon="5.73258">
        <ele>351.39999389648</ele>
        <time>2023-06-18T06:25:48Z</time>
      </trkpt>
      <trkpt lat="49.44297" lon="5.73254">
        <ele>351.60000610352</ele>
        <time>2023-06-18T06:25:50Z</time>
      </trkpt>
      <trkpt lat="49.44293" lon="5.73251">
        <ele>351.60000610352</ele>
        <time>2023-06-18T06:25:51Z</time>
      </trkpt>
      <trkpt lat="49.44289" lon="5.73248">
        <ele>351.60000610352</ele>
        <time>2023-06-18T06:25:52Z</time>
      </trkpt>
      <trkpt lat="49.44282" lon="5.73238">
        <ele>351.79998779297</ele>
        <time>2023-06-18T06:25:54Z</time>
      </trkpt>
      <trkpt lat="49.44276" lon="5.73228">
        <ele>352</ele>
        <time>2023-06-18T06:25:56Z</time>
      </trkpt>
      <trkpt lat="49.4427" lon="5.73218">
        <ele>352.39999389648</ele>
        <time>2023-06-18T06:25:58Z</time>
      </trkpt>
      <trkpt lat="49.44269" lon="5.73213">
        <ele>352.60000610352</ele>
        <time>2023-06-18T06:25:59Z</time>
      </trkpt>
      <trkpt lat="49.44267" lon="5.73208">
        <ele>352.60000610352</ele>
        <time>2023-06-18T06:26:00Z</time>
      </trkpt>
      <trkpt lat="49.44265" lon="5.73203">
        <ele>352.79998779297</ele>
        <time>2023-06-18T06:26:01Z</time>
      </trkpt>
      <trkpt lat="49.44264" lon="5.73197">
        <ele>352.79998779297</ele>
        <time>2023-06-18T06:26:02Z</time>
      </trkpt>
      <trkpt lat="49.4426" lon="5.73186">
        <ele>352.79998779297</ele>
        <time>2023-06-18T06:26:04Z</time>
      </trkpt>
      <trkpt lat="49.44257" lon="5.73173">
        <ele>353</ele>
        <time>2023-06-18T06:26:06Z</time>
      </trkpt>
      <trkpt lat="49.44254" lon="5.73161">
        <ele>353.39999389648</ele>
        <time>2023-06-18T06:26:08Z</time>
      </trkpt>
      <trkpt lat="49.4425" lon="5.73148">
        <ele>353.39999389648</ele>
        <time>2023-06-18T06:26:10Z</time>
      </trkpt>
      <trkpt lat="49.44246" lon="5.73136">
        <ele>353.39999389648</ele>
        <time>2023-06-18T06:26:12Z</time>
      </trkpt>
      <trkpt lat="49.44242" lon="5.73123">
        <ele>353.60000610352</ele>
        <time>2023-06-18T06:26:14Z</time>
      </trkpt>
      <trkpt lat="49.4424" lon="5.73117">
        <ele>353.60000610352</ele>
        <time>2023-06-18T06:26:15Z</time>
      </trkpt>
      <trkpt lat="49.44237" lon="5.73112">
        <ele>353.60000610352</ele>
        <time>2023-06-18T06:26:16Z</time>
      </trkpt>
      <trkpt lat="49.44232" lon="5.731">
        <ele>353.79998779297</ele>
        <time>2023-06-18T06:26:18Z</time>
      </trkpt>
      <trkpt lat="49.44226" lon="5.73088">
        <ele>353.79998779297</ele>
        <time>2023-06-18T06:26:20Z</time>
      </trkpt>
      <trkpt lat="49.4422" lon="5.73077">
        <ele>354</ele>
        <time>2023-06-18T06:26:22Z</time>
      </trkpt>
      <trkpt lat="49.44217" lon="5.73071">
        <ele>354</ele>
        <time>2023-06-18T06:26:23Z</time>
      </trkpt>
      <trkpt lat="49.44214" lon="5.73065">
        <ele>354</ele>
        <time>2023-06-18T06:26:24Z</time>
      </trkpt>
      <trkpt lat="49.44207" lon="5.73053">
        <ele>354</ele>
        <time>2023-06-18T06:26:26Z</time>
      </trkpt>
      <trkpt lat="49.44199" lon="5.73042">
        <ele>354</ele>
        <time>2023-06-18T06:26:28Z</time>
      </trkpt>
      <trkpt lat="49.44192" lon="5.7303">
        <ele>354</ele>
        <time>2023-06-18T06:26:30Z</time>
      </trkpt>
      <trkpt lat="49.44185" lon="5.73018">
        <ele>354</ele>
        <time>2023-06-18T06:26:32Z</time>
      </trkpt>
      <trkpt lat="49.44177" lon="5.73007">
        <ele>354</ele>
        <time>2023-06-18T06:26:34Z</time>
      </trkpt>
      <trkpt lat="49.44169" lon="5.72996">
        <ele>353.79998779297</ele>
        <time>2023-06-18T06:26:36Z</time>
      </trkpt>
      <trkpt lat="49.44161" lon="5.72985">
        <ele>353.79998779297</ele>
        <time>2023-06-18T06:26:38Z</time>
      </trkpt>
      <trkpt lat="49.44153" lon="5.72974">
        <ele>353.60000610352</ele>
        <time>2023-06-18T06:26:40Z</time>
      </trkpt>
      <trkpt lat="49.44145" lon="5.72964">
        <ele>353.60000610352</ele>
        <time>2023-06-18T06:26:42Z</time>
      </trkpt>
      <trkpt lat="49.44138" lon="5.72953">
        <ele>353.39999389648</ele>
        <time>2023-06-18T06:26:44Z</time>
      </trkpt>
      <trkpt lat="49.44134" lon="5.72947">
        <ele>353.20001220703</ele>
        <time>2023-06-18T06:26:45Z</time>
      </trkpt>
      <trkpt lat="49.44131" lon="5.72941">
        <ele>353.20001220703</ele>
        <time>2023-06-18T06:26:46Z</time>
      </trkpt>
      <trkpt lat="49.44125" lon="5.72928">
        <ele>353</ele>
        <time>2023-06-18T06:26:48Z</time>
      </trkpt>
      <trkpt lat="49.44123" lon="5.72921">
        <ele>353</ele>
        <time>2023-06-18T06:26:49Z</time>
      </trkpt>
      <trkpt lat="49.44121" lon="5.72915">
        <ele>352.79998779297</ele>
        <time>2023-06-18T06:26:50Z</time>
      </trkpt>
      <trkpt lat="49.44114" lon="5.72908">
        <ele>352.79998779297</ele>
        <time>2023-06-18T06:26:52Z</time>
      </trkpt>
      <trkpt lat="49.44111" lon="5.72909">
        <ele>352.79998779297</ele>
        <time>2023-06-18T06:26:53Z</time>
      </trkpt>
      <trkpt lat="49.44109" lon="5.72912">
        <ele>352.79998779297</ele>
        <time>2023-06-18T06:26:54Z</time>
      </trkpt>
      <trkpt lat="49.44104" lon="5.72922">
        <ele>352.79998779297</ele>
        <time>2023-06-18T06:26:56Z</time>
      </trkpt>
      <trkpt lat="49.44098" lon="5.72935">
        <ele>352.79998779297</ele>
        <time>2023-06-18T06:26:58Z</time>
      </trkpt>
      <trkpt lat="49.44094" lon="5.7295">
        <ele>352.60000610352</ele>
        <time>2023-06-18T06:27:00Z</time>
      </trkpt>
      <trkpt lat="49.44091" lon="5.72958">
        <ele>352.60000610352</ele>
        <time>2023-06-18T06:27:01Z</time>
      </trkpt>
      <trkpt lat="49.44088" lon="5.72966">
        <ele>352.60000610352</ele>
        <time>2023-06-18T06:27:02Z</time>
      </trkpt>
      <trkpt lat="49.44083" lon="5.72983">
        <ele>351</ele>
        <time>2023-06-18T06:27:04Z</time>
      </trkpt>
      <trkpt lat="49.44077" lon="5.73001">
        <ele>349.79998779297</ele>
        <time>2023-06-18T06:27:06Z</time>
      </trkpt>
      <trkpt lat="49.44071" lon="5.7302">
        <ele>348.79998779297</ele>
        <time>2023-06-18T06:27:08Z</time>
      </trkpt>
      <trkpt lat="49.44064" lon="5.73041">
        <ele>347.39999389648</ele>
        <time>2023-06-18T06:27:10Z</time>
      </trkpt>
      <trkpt lat="49.44057" lon="5.73063">
        <ele>346.20001220703</ele>
        <time>2023-06-18T06:27:12Z</time>
      </trkpt>
      <trkpt lat="49.4405" lon="5.73087">
        <ele>345.60000610352</ele>
        <time>2023-06-18T06:27:14Z</time>
      </trkpt>
      <trkpt lat="49.44047" lon="5.73101">
        <ele>345</ele>
        <time>2023-06-18T06:27:15Z</time>
      </trkpt>
      <trkpt lat="49.44045" lon="5.73114">
        <ele>344.60000610352</ele>
        <time>2023-06-18T06:27:16Z</time>
      </trkpt>
      <trkpt lat="49.44042" lon="5.73128">
        <ele>344</ele>
        <time>2023-06-18T06:27:17Z</time>
      </trkpt>
      <trkpt lat="49.44039" lon="5.73142">
        <ele>342.79998779297</ele>
        <time>2023-06-18T06:27:18Z</time>
      </trkpt>
      <trkpt lat="49.44036" lon="5.73157">
        <ele>341.79998779297</ele>
        <time>2023-06-18T06:27:19Z</time>
      </trkpt>
      <trkpt lat="49.44034" lon="5.73172">
        <ele>340.79998779297</ele>
        <time>2023-06-18T06:27:20Z</time>
      </trkpt>
      <trkpt lat="49.44031" lon="5.73187">
        <ele>339.79998779297</ele>
        <time>2023-06-18T06:27:21Z</time>
      </trkpt>
      <trkpt lat="49.44028" lon="5.73201">
        <ele>339</ele>
        <time>2023-06-18T06:27:22Z</time>
      </trkpt>
      <trkpt lat="49.44025" lon="5.73215">
        <ele>338</ele>
        <time>2023-06-18T06:27:23Z</time>
      </trkpt>
      <trkpt lat="49.44023" lon="5.73229">
        <ele>337.20001220703</ele>
        <time>2023-06-18T06:27:24Z</time>
      </trkpt>
      <trkpt lat="49.4402" lon="5.73242">
        <ele>335.79998779297</ele>
        <time>2023-06-18T06:27:25Z</time>
      </trkpt>
      <trkpt lat="49.44017" lon="5.73255">
        <ele>334.79998779297</ele>
        <time>2023-06-18T06:27:26Z</time>
      </trkpt>
      <trkpt lat="49.44015" lon="5.73268">
        <ele>333.60000610352</ele>
        <time>2023-06-18T06:27:27Z</time>
      </trkpt>
      <trkpt lat="49.44013" lon="5.7328">
        <ele>332.60000610352</ele>
        <time>2023-06-18T06:27:28Z</time>
      </trkpt>
      <trkpt lat="49.44008" lon="5.73303">
        <ele>330.79998779297</ele>
        <time>2023-06-18T06:27:30Z</time>
      </trkpt>
      <trkpt lat="49.44004" lon="5.73325">
        <ele>330.39999389648</ele>
        <time>2023-06-18T06:27:32Z</time>
      </trkpt>
      <trkpt lat="49.43999" lon="5.73345">
        <ele>330.20001220703</ele>
        <time>2023-06-18T06:27:34Z</time>
      </trkpt>
      <trkpt lat="49.43995" lon="5.73365">
        <ele>330.20001220703</ele>
        <time>2023-06-18T06:27:36Z</time>
      </trkpt>
      <trkpt lat="49.43991" lon="5.73384">
        <ele>330.20001220703</ele>
        <time>2023-06-18T06:27:38Z</time>
      </trkpt>
      <trkpt lat="49.43987" lon="5.73402">
        <ele>330.20001220703</ele>
        <time>2023-06-18T06:27:40Z</time>
      </trkpt>
      <trkpt lat="49.43983" lon="5.7342">
        <ele>330.20001220703</ele>
        <time>2023-06-18T06:27:42Z</time>
      </trkpt>
      <trkpt lat="49.4398" lon="5.73437">
        <ele>330.20001220703</ele>
        <time>2023-06-18T06:27:44Z</time>
      </trkpt>
      <trkpt lat="49.43976" lon="5.73454">
        <ele>330.60000610352</ele>
        <time>2023-06-18T06:27:46Z</time>
      </trkpt>
      <trkpt lat="49.43972" lon="5.7347">
        <ele>330.79998779297</ele>
        <time>2023-06-18T06:27:48Z</time>
      </trkpt>
      <trkpt lat="49.43968" lon="5.73487">
        <ele>331.20001220703</ele>
        <time>2023-06-18T06:27:50Z</time>
      </trkpt>
      <trkpt lat="49.43966" lon="5.73496">
        <ele>331.39999389648</ele>
        <time>2023-06-18T06:27:51Z</time>
      </trkpt>
      <trkpt lat="49.43965" lon="5.73505">
        <ele>331.39999389648</ele>
        <time>2023-06-18T06:27:52Z</time>
      </trkpt>
      <trkpt lat="49.43961" lon="5.73522">
        <ele>331.39999389648</ele>
        <time>2023-06-18T06:27:54Z</time>
      </trkpt>
      <trkpt lat="49.43958" lon="5.73539">
        <ele>331.39999389648</ele>
        <time>2023-06-18T06:27:56Z</time>
      </trkpt>
      <trkpt lat="49.43955" lon="5.73555">
        <ele>331.39999389648</ele>
        <time>2023-06-18T06:27:58Z</time>
      </trkpt>
      <trkpt lat="49.43951" lon="5.73572">
        <ele>331.39999389648</ele>
        <time>2023-06-18T06:28:00Z</time>
      </trkpt>
      <trkpt lat="49.43948" lon="5.73589">
        <ele>331.20001220703</ele>
        <time>2023-06-18T06:28:02Z</time>
      </trkpt>
      <trkpt lat="49.43945" lon="5.73606">
        <ele>330.79998779297</ele>
        <time>2023-06-18T06:28:04Z</time>
      </trkpt>
      <trkpt lat="49.43941" lon="5.73624">
        <ele>330.39999389648</ele>
        <time>2023-06-18T06:28:06Z</time>
      </trkpt>
      <trkpt lat="49.43937" lon="5.73643">
        <ele>330.20001220703</ele>
        <time>2023-06-18T06:28:08Z</time>
      </trkpt>
      <trkpt lat="49.43936" lon="5.73653">
        <ele>330</ele>
        <time>2023-06-18T06:28:09Z</time>
      </trkpt>
      <trkpt lat="49.43933" lon="5.73663">
        <ele>330</ele>
        <time>2023-06-18T06:28:10Z</time>
      </trkpt>
      <trkpt lat="49.43931" lon="5.73674">
        <ele>329.79998779297</ele>
        <time>2023-06-18T06:28:11Z</time>
      </trkpt>
      <trkpt lat="49.43929" lon="5.73685">
        <ele>329.79998779297</ele>
        <time>2023-06-18T06:28:12Z</time>
      </trkpt>
      <trkpt lat="49.43924" lon="5.73709">
        <ele>329.39999389648</ele>
        <time>2023-06-18T06:28:14Z</time>
      </trkpt>
      <trkpt lat="49.4392" lon="5.73734">
        <ele>328.79998779297</ele>
        <time>2023-06-18T06:28:16Z</time>
      </trkpt>
      <trkpt lat="49.43915" lon="5.7376">
        <ele>327.79998779297</ele>
        <time>2023-06-18T06:28:18Z</time>
      </trkpt>
      <trkpt lat="49.43912" lon="5.73772">
        <ele>327.39999389648</ele>
        <time>2023-06-18T06:28:19Z</time>
      </trkpt>
      <trkpt lat="49.4391" lon="5.73785">
        <ele>326.60000610352</ele>
        <time>2023-06-18T06:28:20Z</time>
      </trkpt>
      <trkpt lat="49.43907" lon="5.73797">
        <ele>325.79998779297</ele>
        <time>2023-06-18T06:28:21Z</time>
      </trkpt>
      <trkpt lat="49.43905" lon="5.73809">
        <ele>324.79998779297</ele>
        <time>2023-06-18T06:28:22Z</time>
      </trkpt>
      <trkpt lat="49.43903" lon="5.73821">
        <ele>324</ele>
        <time>2023-06-18T06:28:23Z</time>
      </trkpt>
      <trkpt lat="49.43901" lon="5.73832">
        <ele>323.20001220703</ele>
        <time>2023-06-18T06:28:24Z</time>
      </trkpt>
      <trkpt lat="49.43899" lon="5.73843">
        <ele>322.79998779297</ele>
        <time>2023-06-18T06:28:25Z</time>
      </trkpt>
      <trkpt lat="49.43897" lon="5.73855">
        <ele>322.60000610352</ele>
        <time>2023-06-18T06:28:26Z</time>
      </trkpt>
      <trkpt lat="49.43895" lon="5.73866">
        <ele>321.60000610352</ele>
        <time>2023-06-18T06:28:27Z</time>
      </trkpt>
      <trkpt lat="49.43893" lon="5.73876">
        <ele>321.39999389648</ele>
        <time>2023-06-18T06:28:28Z</time>
      </trkpt>
      <trkpt lat="49.43888" lon="5.73896">
        <ele>320.79998779297</ele>
        <time>2023-06-18T06:28:30Z</time>
      </trkpt>
      <trkpt lat="49.43885" lon="5.73906">
        <ele>320.60000610352</ele>
        <time>2023-06-18T06:28:31Z</time>
      </trkpt>
      <trkpt lat="49.43882" lon="5.73915">
        <ele>320.39999389648</ele>
        <time>2023-06-18T06:28:32Z</time>
      </trkpt>
      <trkpt lat="49.43878" lon="5.73932">
        <ele>320</ele>
        <time>2023-06-18T06:28:34Z</time>
      </trkpt>
      <trkpt lat="49.43874" lon="5.7395">
        <ele>319.60000610352</ele>
        <time>2023-06-18T06:28:36Z</time>
      </trkpt>
      <trkpt lat="49.43872" lon="5.73958">
        <ele>319.39999389648</ele>
        <time>2023-06-18T06:28:37Z</time>
      </trkpt>
      <trkpt lat="49.4387" lon="5.73967">
        <ele>319.39999389648</ele>
        <time>2023-06-18T06:28:38Z</time>
      </trkpt>
      <trkpt lat="49.43866" lon="5.73985">
        <ele>319.20001220703</ele>
        <time>2023-06-18T06:28:40Z</time>
      </trkpt>
      <trkpt lat="49.43862" lon="5.74003">
        <ele>319.20001220703</ele>
        <time>2023-06-18T06:28:42Z</time>
      </trkpt>
      <trkpt lat="49.43858" lon="5.74021">
        <ele>319</ele>
        <time>2023-06-18T06:28:44Z</time>
      </trkpt>
      <trkpt lat="49.43853" lon="5.74038">
        <ele>318.79998779297</ele>
        <time>2023-06-18T06:28:46Z</time>
      </trkpt>
      <trkpt lat="49.43849" lon="5.74055">
        <ele>318.60000610352</ele>
        <time>2023-06-18T06:28:48Z</time>
      </trkpt>
      <trkpt lat="49.43845" lon="5.74073">
        <ele>318.39999389648</ele>
        <time>2023-06-18T06:28:50Z</time>
      </trkpt>
      <trkpt lat="49.43843" lon="5.74082">
        <ele>318.39999389648</ele>
        <time>2023-06-18T06:28:51Z</time>
      </trkpt>
      <trkpt lat="49.43841" lon="5.7409">
        <ele>318.20001220703</ele>
        <time>2023-06-18T06:28:52Z</time>
      </trkpt>
      <trkpt lat="49.43834" lon="5.74107">
        <ele>317.60000610352</ele>
        <time>2023-06-18T06:28:54Z</time>
      </trkpt>
      <trkpt lat="49.4383" lon="5.74116">
        <ele>317</ele>
        <time>2023-06-18T06:28:55Z</time>
      </trkpt>
      <trkpt lat="49.43825" lon="5.74124">
        <ele>316.60000610352</ele>
        <time>2023-06-18T06:28:56Z</time>
      </trkpt>
      <trkpt lat="49.43813" lon="5.74139">
        <ele>315.79998779297</ele>
        <time>2023-06-18T06:28:58Z</time>
      </trkpt>
      <trkpt lat="49.43806" lon="5.74146">
        <ele>315.60000610352</ele>
        <time>2023-06-18T06:28:59Z</time>
      </trkpt>
      <trkpt lat="49.43798" lon="5.74152">
        <ele>315.20001220703</ele>
        <time>2023-06-18T06:29:00Z</time>
      </trkpt>
      <trkpt lat="49.43785" lon="5.74166">
        <ele>314.20001220703</ele>
        <time>2023-06-18T06:29:02Z</time>
      </trkpt>
      <trkpt lat="49.43779" lon="5.74174">
        <ele>313.20001220703</ele>
        <time>2023-06-18T06:29:03Z</time>
      </trkpt>
      <trkpt lat="49.43774" lon="5.74184">
        <ele>312.20001220703</ele>
        <time>2023-06-18T06:29:04Z</time>
      </trkpt>
      <trkpt lat="49.43771" lon="5.74195">
        <ele>311</ele>
        <time>2023-06-18T06:29:05Z</time>
      </trkpt>
      <trkpt lat="49.43767" lon="5.74206">
        <ele>310</ele>
        <time>2023-06-18T06:29:06Z</time>
      </trkpt>
      <trkpt lat="49.43761" lon="5.74225">
        <ele>308.60000610352</ele>
        <time>2023-06-18T06:29:08Z</time>
      </trkpt>
      <trkpt lat="49.43758" lon="5.74232">
        <ele>308.20001220703</ele>
        <time>2023-06-18T06:29:09Z</time>
      </trkpt>
      <trkpt lat="49.43756" lon="5.74236">
        <ele>307.79998779297</ele>
        <time>2023-06-18T06:29:10Z</time>
      </trkpt>
      <trkpt lat="49.43753" lon="5.74236">
        <ele>306.79998779297</ele>
        <time>2023-06-18T06:29:11Z</time>
      </trkpt>
      <trkpt lat="49.43752" lon="5.74234">
        <ele>305.79998779297</ele>
        <time>2023-06-18T06:29:12Z</time>
      </trkpt>
      <trkpt lat="49.4375" lon="5.74231">
        <ele>304.79998779297</ele>
        <time>2023-06-18T06:29:13Z</time>
      </trkpt>
      <trkpt lat="49.43749" lon="5.74229">
        <ele>304</ele>
        <time>2023-06-18T06:29:14Z</time>
      </trkpt>
      <trkpt lat="49.43747" lon="5.74226">
        <ele>303.39999389648</ele>
        <time>2023-06-18T06:29:15Z</time>
      </trkpt>
      <trkpt lat="49.43745" lon="5.74224">
        <ele>303.20001220703</ele>
        <time>2023-06-18T06:29:16Z</time>
      </trkpt>
      <trkpt lat="49.43739" lon="5.7422">
        <ele>303</ele>
        <time>2023-06-18T06:29:18Z</time>
      </trkpt>
      <trkpt lat="49.43733" lon="5.74217">
        <ele>302.79998779297</ele>
        <time>2023-06-18T06:29:20Z</time>
      </trkpt>
      <trkpt lat="49.4373" lon="5.74216">
        <ele>302.79998779297</ele>
        <time>2023-06-18T06:29:21Z</time>
      </trkpt>
      <trkpt lat="49.43727" lon="5.74215">
        <ele>302.79998779297</ele>
        <time>2023-06-18T06:29:22Z</time>
      </trkpt>
      <trkpt lat="49.4372" lon="5.74214">
        <ele>302.79998779297</ele>
        <time>2023-06-18T06:29:24Z</time>
      </trkpt>
      <trkpt lat="49.43713" lon="5.74214">
        <ele>302.79998779297</ele>
        <time>2023-06-18T06:29:26Z</time>
      </trkpt>
      <trkpt lat="49.43707" lon="5.74214">
        <ele>303</ele>
        <time>2023-06-18T06:29:28Z</time>
      </trkpt>
      <trkpt lat="49.43703" lon="5.74215">
        <ele>303</ele>
        <time>2023-06-18T06:29:29Z</time>
      </trkpt>
      <trkpt lat="49.437" lon="5.74215">
        <ele>303</ele>
        <time>2023-06-18T06:29:30Z</time>
      </trkpt>
      <trkpt lat="49.43693" lon="5.74216">
        <ele>303.39999389648</ele>
        <time>2023-06-18T06:29:32Z</time>
      </trkpt>
      <trkpt lat="49.43687" lon="5.74216">
        <ele>303.79998779297</ele>
        <time>2023-06-18T06:29:34Z</time>
      </trkpt>
      <trkpt lat="49.43681" lon="5.74216">
        <ele>304</ele>
        <time>2023-06-18T06:29:36Z</time>
      </trkpt>
      <trkpt lat="49.43674" lon="5.74216">
        <ele>304.39999389648</ele>
        <time>2023-06-18T06:29:38Z</time>
      </trkpt>
      <trkpt lat="49.43671" lon="5.74216">
        <ele>304.60000610352</ele>
        <time>2023-06-18T06:29:39Z</time>
      </trkpt>
      <trkpt lat="49.43668" lon="5.74216">
        <ele>304.79998779297</ele>
        <time>2023-06-18T06:29:40Z</time>
      </trkpt>
      <trkpt lat="49.43661" lon="5.74215">
        <ele>305.39999389648</ele>
        <time>2023-06-18T06:29:42Z</time>
      </trkpt>
      <trkpt lat="49.43656" lon="5.74214">
        <ele>305.79998779297</ele>
        <time>2023-06-18T06:29:44Z</time>
      </trkpt>
      <trkpt lat="49.4365" lon="5.74213">
        <ele>306</ele>
        <time>2023-06-18T06:29:46Z</time>
      </trkpt>
      <trkpt lat="49.43645" lon="5.74212">
        <ele>306.39999389648</ele>
        <time>2023-06-18T06:29:48Z</time>
      </trkpt>
      <trkpt lat="49.43639" lon="5.74211">
        <ele>306.79998779297</ele>
        <time>2023-06-18T06:29:50Z</time>
      </trkpt>
      <trkpt lat="49.43634" lon="5.7421">
        <ele>307.79998779297</ele>
        <time>2023-06-18T06:29:52Z</time>
      </trkpt>
      <trkpt lat="49.43631" lon="5.74209">
        <ele>308</ele>
        <time>2023-06-18T06:29:53Z</time>
      </trkpt>
      <trkpt lat="49.43629" lon="5.74209">
        <ele>308.39999389648</ele>
        <time>2023-06-18T06:29:54Z</time>
      </trkpt>
      <trkpt lat="49.43623" lon="5.74207">
        <ele>308.79998779297</ele>
        <time>2023-06-18T06:29:56Z</time>
      </trkpt>
      <trkpt lat="49.43621" lon="5.74206">
        <ele>309.20001220703</ele>
        <time>2023-06-18T06:29:57Z</time>
      </trkpt>
      <trkpt lat="49.43619" lon="5.74206">
        <ele>309.39999389648</ele>
        <time>2023-06-18T06:29:58Z</time>
      </trkpt>
      <trkpt lat="49.43613" lon="5.74204">
        <ele>309.79998779297</ele>
        <time>2023-06-18T06:30:00Z</time>
      </trkpt>
      <trkpt lat="49.43609" lon="5.74203">
        <ele>310.39999389648</ele>
        <time>2023-06-18T06:30:02Z</time>
      </trkpt>
      <trkpt lat="49.43603" lon="5.74201">
        <ele>310.79998779297</ele>
        <time>2023-06-18T06:30:04Z</time>
      </trkpt>
      <trkpt lat="49.43599" lon="5.742">
        <ele>311.20001220703</ele>
        <time>2023-06-18T06:30:06Z</time>
      </trkpt>
      <trkpt lat="49.43596" lon="5.74199">
        <ele>311.39999389648</ele>
        <time>2023-06-18T06:30:07Z</time>
      </trkpt>
      <trkpt lat="49.43593" lon="5.74199">
        <ele>311.60000610352</ele>
        <time>2023-06-18T06:30:08Z</time>
      </trkpt>
      <trkpt lat="49.43588" lon="5.74197">
        <ele>312.39999389648</ele>
        <time>2023-06-18T06:30:10Z</time>
      </trkpt>
      <trkpt lat="49.43586" lon="5.74197">
        <ele>312.60000610352</ele>
        <time>2023-06-18T06:30:11Z</time>
      </trkpt>
      <trkpt lat="49.43584" lon="5.74196">
        <ele>313</ele>
        <time>2023-06-18T06:30:12Z</time>
      </trkpt>
      <trkpt lat="49.43579" lon="5.74194">
        <ele>313.39999389648</ele>
        <time>2023-06-18T06:30:14Z</time>
      </trkpt>
      <trkpt lat="49.43574" lon="5.74193">
        <ele>313.79998779297</ele>
        <time>2023-06-18T06:30:16Z</time>
      </trkpt>
      <trkpt lat="49.43569" lon="5.74191">
        <ele>314.20001220703</ele>
        <time>2023-06-18T06:30:18Z</time>
      </trkpt>
      <trkpt lat="49.43564" lon="5.74189">
        <ele>314.60000610352</ele>
        <time>2023-06-18T06:30:20Z</time>
      </trkpt>
      <trkpt lat="49.43559" lon="5.74187">
        <ele>314.79998779297</ele>
        <time>2023-06-18T06:30:22Z</time>
      </trkpt>
      <trkpt lat="49.43554" lon="5.74185">
        <ele>315.39999389648</ele>
        <time>2023-06-18T06:30:24Z</time>
      </trkpt>
      <trkpt lat="49.4355" lon="5.74182">
        <ele>316</ele>
        <time>2023-06-18T06:30:26Z</time>
      </trkpt>
      <trkpt lat="49.43548" lon="5.74181">
        <ele>316.20001220703</ele>
        <time>2023-06-18T06:30:27Z</time>
      </trkpt>
      <trkpt lat="49.43545" lon="5.74179">
        <ele>316.39999389648</ele>
        <time>2023-06-18T06:30:28Z</time>
      </trkpt>
      <trkpt lat="49.43541" lon="5.74175">
        <ele>316.79998779297</ele>
        <time>2023-06-18T06:30:30Z</time>
      </trkpt>
      <trkpt lat="49.43537" lon="5.74171">
        <ele>317.20001220703</ele>
        <time>2023-06-18T06:30:32Z</time>
      </trkpt>
      <trkpt lat="49.43533" lon="5.74167">
        <ele>317.60000610352</ele>
        <time>2023-06-18T06:30:34Z</time>
      </trkpt>
      <trkpt lat="49.43531" lon="5.74165">
        <ele>317.79998779297</ele>
        <time>2023-06-18T06:30:35Z</time>
      </trkpt>
      <trkpt lat="49.43528" lon="5.74162">
        <ele>318</ele>
        <time>2023-06-18T06:30:36Z</time>
      </trkpt>
      <trkpt lat="49.43526" lon="5.7416">
        <ele>318.20001220703</ele>
        <time>2023-06-18T06:30:37Z</time>
      </trkpt>
      <trkpt lat="49.43524" lon="5.74157">
        <ele>318.39999389648</ele>
        <time>2023-06-18T06:30:38Z</time>
      </trkpt>
      <trkpt lat="49.43521" lon="5.74151">
        <ele>318.79998779297</ele>
        <time>2023-06-18T06:30:40Z</time>
      </trkpt>
      <trkpt lat="49.43517" lon="5.74145">
        <ele>319</ele>
        <time>2023-06-18T06:30:42Z</time>
      </trkpt>
      <trkpt lat="49.43515" lon="5.74141">
        <ele>319.20001220703</ele>
        <time>2023-06-18T06:30:43Z</time>
      </trkpt>
      <trkpt lat="49.43513" lon="5.74138">
        <ele>319.20001220703</ele>
        <time>2023-06-18T06:30:44Z</time>
      </trkpt>
      <trkpt lat="49.43511" lon="5.74135">
        <ele>319.39999389648</ele>
        <time>2023-06-18T06:30:45Z</time>
      </trkpt>
      <trkpt lat="49.4351" lon="5.74131">
        <ele>319.60000610352</ele>
        <time>2023-06-18T06:30:46Z</time>
      </trkpt>
      <trkpt lat="49.43507" lon="5.74124">
        <ele>320</ele>
        <time>2023-06-18T06:30:48Z</time>
      </trkpt>
      <trkpt lat="49.43504" lon="5.74116">
        <ele>320.39999389648</ele>
        <time>2023-06-18T06:30:50Z</time>
      </trkpt>
      <trkpt lat="49.43503" lon="5.74112">
        <ele>320.60000610352</ele>
        <time>2023-06-18T06:30:51Z</time>
      </trkpt>
      <trkpt lat="49.43502" lon="5.74108">
        <ele>320.60000610352</ele>
        <time>2023-06-18T06:30:52Z</time>
      </trkpt>
      <trkpt lat="49.43499" lon="5.74101">
        <ele>320.79998779297</ele>
        <time>2023-06-18T06:30:54Z</time>
      </trkpt>
      <trkpt lat="49.43497" lon="5.74093">
        <ele>321</ele>
        <time>2023-06-18T06:30:56Z</time>
      </trkpt>
      <trkpt lat="49.43495" lon="5.74086">
        <ele>321.20001220703</ele>
        <time>2023-06-18T06:30:58Z</time>
      </trkpt>
      <trkpt lat="49.43493" lon="5.74078">
        <ele>321.39999389648</ele>
        <time>2023-06-18T06:31:00Z</time>
      </trkpt>
      <trkpt lat="49.43492" lon="5.74074">
        <ele>321.60000610352</ele>
        <time>2023-06-18T06:31:01Z</time>
      </trkpt>
      <trkpt lat="49.43491" lon="5.74071">
        <ele>321.79998779297</ele>
        <time>2023-06-18T06:31:02Z</time>
      </trkpt>
      <trkpt lat="49.43489" lon="5.74062">
        <ele>322</ele>
        <time>2023-06-18T06:31:04Z</time>
      </trkpt>
      <trkpt lat="49.43488" lon="5.74054">
        <ele>322.20001220703</ele>
        <time>2023-06-18T06:31:06Z</time>
      </trkpt>
      <trkpt lat="49.43486" lon="5.74046">
        <ele>322.60000610352</ele>
        <time>2023-06-18T06:31:08Z</time>
      </trkpt>
      <trkpt lat="49.43485" lon="5.74038">
        <ele>323</ele>
        <time>2023-06-18T06:31:10Z</time>
      </trkpt>
      <trkpt lat="49.43483" lon="5.7403">
        <ele>323.20001220703</ele>
        <time>2023-06-18T06:31:12Z</time>
      </trkpt>
      <trkpt lat="49.43482" lon="5.74022">
        <ele>323.60000610352</ele>
        <time>2023-06-18T06:31:14Z</time>
      </trkpt>
      <trkpt lat="49.43482" lon="5.74018">
        <ele>323.60000610352</ele>
        <time>2023-06-18T06:31:15Z</time>
      </trkpt>
      <trkpt lat="49.43481" lon="5.74014">
        <ele>323.79998779297</ele>
        <time>2023-06-18T06:31:16Z</time>
      </trkpt>
      <trkpt lat="49.43481" lon="5.74005">
        <ele>324</ele>
        <time>2023-06-18T06:31:18Z</time>
      </trkpt>
      <trkpt lat="49.43481" lon="5.74">
        <ele>324.20001220703</ele>
        <time>2023-06-18T06:31:19Z</time>
      </trkpt>
      <trkpt lat="49.4348" lon="5.73996">
        <ele>324.39999389648</ele>
        <time>2023-06-18T06:31:20Z</time>
      </trkpt>
      <trkpt lat="49.4348" lon="5.73986">
        <ele>324.60000610352</ele>
        <time>2023-06-18T06:31:22Z</time>
      </trkpt>
      <trkpt lat="49.43481" lon="5.73977">
        <ele>324.60000610352</ele>
        <time>2023-06-18T06:31:24Z</time>
      </trkpt>
      <trkpt lat="49.4348" lon="5.73973">
        <ele>324.60000610352</ele>
        <time>2023-06-18T06:31:25Z</time>
      </trkpt>
      <trkpt lat="49.4348" lon="5.73968">
        <ele>324.79998779297</ele>
        <time>2023-06-18T06:31:26Z</time>
      </trkpt>
      <trkpt lat="49.4348" lon="5.73963">
        <ele>324.79998779297</ele>
        <time>2023-06-18T06:31:27Z</time>
      </trkpt>
      <trkpt lat="49.4348" lon="5.73959">
        <ele>324.79998779297</ele>
        <time>2023-06-18T06:31:28Z</time>
      </trkpt>
      <trkpt lat="49.4348" lon="5.73949">
        <ele>324.79998779297</ele>
        <time>2023-06-18T06:31:30Z</time>
      </trkpt>
      <trkpt lat="49.43481" lon="5.73939">
        <ele>324.79998779297</ele>
        <time>2023-06-18T06:31:32Z</time>
      </trkpt>
      <trkpt lat="49.4348" lon="5.73928">
        <ele>324.79998779297</ele>
        <time>2023-06-18T06:31:34Z</time>
      </trkpt>
      <trkpt lat="49.4348" lon="5.73916">
        <ele>324.79998779297</ele>
        <time>2023-06-18T06:31:36Z</time>
      </trkpt>
      <trkpt lat="49.4348" lon="5.73902">
        <ele>324.79998779297</ele>
        <time>2023-06-18T06:31:38Z</time>
      </trkpt>
      <trkpt lat="49.43481" lon="5.73889">
        <ele>324.60000610352</ele>
        <time>2023-06-18T06:31:40Z</time>
      </trkpt>
      <trkpt lat="49.4348" lon="5.73876">
        <ele>324</ele>
        <time>2023-06-18T06:31:42Z</time>
      </trkpt>
      <trkpt lat="49.43479" lon="5.73862">
        <ele>323.60000610352</ele>
        <time>2023-06-18T06:31:44Z</time>
      </trkpt>
      <trkpt lat="49.43479" lon="5.73849">
        <ele>323.20001220703</ele>
        <time>2023-06-18T06:31:46Z</time>
      </trkpt>
      <trkpt lat="49.43478" lon="5.73835">
        <ele>323.20001220703</ele>
        <time>2023-06-18T06:31:48Z</time>
      </trkpt>
      <trkpt lat="49.43477" lon="5.73822">
        <ele>323</ele>
        <time>2023-06-18T06:31:50Z</time>
      </trkpt>
      <trkpt lat="49.43476" lon="5.73815">
        <ele>323</ele>
        <time>2023-06-18T06:31:51Z</time>
      </trkpt>
      <trkpt lat="49.43475" lon="5.73809">
        <ele>322.79998779297</ele>
        <time>2023-06-18T06:31:52Z</time>
      </trkpt>
      <trkpt lat="49.43474" lon="5.73796">
        <ele>322.79998779297</ele>
        <time>2023-06-18T06:31:54Z</time>
      </trkpt>
      <trkpt lat="49.43473" lon="5.73783">
        <ele>322.39999389648</ele>
        <time>2023-06-18T06:31:56Z</time>
      </trkpt>
      <trkpt lat="49.43472" lon="5.73769">
        <ele>322.20001220703</ele>
        <time>2023-06-18T06:31:58Z</time>
      </trkpt>
      <trkpt lat="49.43471" lon="5.73754">
        <ele>321.79998779297</ele>
        <time>2023-06-18T06:32:00Z</time>
      </trkpt>
      <trkpt lat="49.43469" lon="5.73738">
        <ele>321.60000610352</ele>
        <time>2023-06-18T06:32:02Z</time>
      </trkpt>
      <trkpt lat="49.43466" lon="5.73721">
        <ele>321.39999389648</ele>
        <time>2023-06-18T06:32:04Z</time>
      </trkpt>
      <trkpt lat="49.43465" lon="5.73712">
        <ele>321.20001220703</ele>
        <time>2023-06-18T06:32:05Z</time>
      </trkpt>
      <trkpt lat="49.43462" lon="5.73705">
        <ele>321</ele>
        <time>2023-06-18T06:32:06Z</time>
      </trkpt>
      <trkpt lat="49.43456" lon="5.73691">
        <ele>320.60000610352</ele>
        <time>2023-06-18T06:32:08Z</time>
      </trkpt>
      <trkpt lat="49.43453" lon="5.73686">
        <ele>320.60000610352</ele>
        <time>2023-06-18T06:32:09Z</time>
      </trkpt>
      <trkpt lat="49.43451" lon="5.73683">
        <ele>320.20001220703</ele>
        <time>2023-06-18T06:32:10Z</time>
      </trkpt>
      <trkpt lat="49.43447" lon="5.73683">
        <ele>319.79998779297</ele>
        <time>2023-06-18T06:32:12Z</time>
      </trkpt>
      <trkpt lat="49.43444" lon="5.73688">
        <ele>319.39999389648</ele>
        <time>2023-06-18T06:32:14Z</time>
      </trkpt>
      <trkpt lat="49.43441" lon="5.73694">
        <ele>319.39999389648</ele>
        <time>2023-06-18T06:32:16Z</time>
      </trkpt>
      <trkpt lat="49.43439" lon="5.73697">
        <ele>319.20001220703</ele>
        <time>2023-06-18T06:32:17Z</time>
      </trkpt>
      <trkpt lat="49.43438" lon="5.737">
        <ele>319.20001220703</ele>
        <time>2023-06-18T06:32:18Z</time>
      </trkpt>
      <trkpt lat="49.43435" lon="5.73706">
        <ele>319</ele>
        <time>2023-06-18T06:32:20Z</time>
      </trkpt>
      <trkpt lat="49.43432" lon="5.73712">
        <ele>319</ele>
        <time>2023-06-18T06:32:22Z</time>
      </trkpt>
      <trkpt lat="49.4343" lon="5.73716">
        <ele>319</ele>
        <time>2023-06-18T06:32:23Z</time>
      </trkpt>
      <trkpt lat="49.43429" lon="5.73718">
        <ele>319</ele>
        <time>2023-06-18T06:32:24Z</time>
      </trkpt>
      <trkpt lat="49.43425" lon="5.73723">
        <ele>319</ele>
        <time>2023-06-18T06:32:26Z</time>
      </trkpt>
      <trkpt lat="49.43422" lon="5.73727">
        <ele>319</ele>
        <time>2023-06-18T06:32:28Z</time>
      </trkpt>
      <trkpt lat="49.4342" lon="5.7373">
        <ele>319</ele>
        <time>2023-06-18T06:32:29Z</time>
      </trkpt>
      <trkpt lat="49.43419" lon="5.73732">
        <ele>319</ele>
        <time>2023-06-18T06:32:30Z</time>
      </trkpt>
      <trkpt lat="49.43415" lon="5.73738">
        <ele>319.39999389648</ele>
        <time>2023-06-18T06:32:32Z</time>
      </trkpt>
      <trkpt lat="49.43411" lon="5.73744">
        <ele>319.60000610352</ele>
        <time>2023-06-18T06:32:34Z</time>
      </trkpt>
      <trkpt lat="49.43409" lon="5.73746">
        <ele>319.60000610352</ele>
        <time>2023-06-18T06:32:35Z</time>
      </trkpt>
      <trkpt lat="49.43407" lon="5.73749">
        <ele>319.79998779297</ele>
        <time>2023-06-18T06:32:36Z</time>
      </trkpt>
      <trkpt lat="49.43402" lon="5.73754">
        <ele>320.39999389648</ele>
        <time>2023-06-18T06:32:38Z</time>
      </trkpt>
      <trkpt lat="49.43401" lon="5.73756">
        <ele>320.39999389648</ele>
        <time>2023-06-18T06:32:39Z</time>
      </trkpt>
      <trkpt lat="49.43398" lon="5.73759">
        <ele>320.60000610352</ele>
        <time>2023-06-18T06:32:40Z</time>
      </trkpt>
      <trkpt lat="49.43393" lon="5.73766">
        <ele>320.60000610352</ele>
        <time>2023-06-18T06:32:42Z</time>
      </trkpt>
      <trkpt lat="49.43388" lon="5.73772">
        <ele>320.79998779297</ele>
        <time>2023-06-18T06:32:44Z</time>
      </trkpt>
      <trkpt lat="49.43383" lon="5.7378">
        <ele>320.79998779297</ele>
        <time>2023-06-18T06:32:46Z</time>
      </trkpt>
      <trkpt lat="49.43379" lon="5.73786">
        <ele>321</ele>
        <time>2023-06-18T06:32:48Z</time>
      </trkpt>
      <trkpt lat="49.43375" lon="5.73792">
        <ele>321</ele>
        <time>2023-06-18T06:32:50Z</time>
      </trkpt>
      <trkpt lat="49.4337" lon="5.73799">
        <ele>321.20001220703</ele>
        <time>2023-06-18T06:32:52Z</time>
      </trkpt>
      <trkpt lat="49.43365" lon="5.73808">
        <ele>321.39999389648</ele>
        <time>2023-06-18T06:32:54Z</time>
      </trkpt>
      <trkpt lat="49.4336" lon="5.73814">
        <ele>321.39999389648</ele>
        <time>2023-06-18T06:32:56Z</time>
      </trkpt>
      <trkpt lat="49.43358" lon="5.73818">
        <ele>321.79998779297</ele>
        <time>2023-06-18T06:32:57Z</time>
      </trkpt>
      <trkpt lat="49.43356" lon="5.73821">
        <ele>321.79998779297</ele>
        <time>2023-06-18T06:32:58Z</time>
      </trkpt>
      <trkpt lat="49.43352" lon="5.73826">
        <ele>322</ele>
        <time>2023-06-18T06:33:00Z</time>
      </trkpt>
      <trkpt lat="49.43347" lon="5.73833">
        <ele>322.20001220703</ele>
        <time>2023-06-18T06:33:02Z</time>
      </trkpt>
      <trkpt lat="49.43342" lon="5.73839">
        <ele>322.20001220703</ele>
        <time>2023-06-18T06:33:04Z</time>
      </trkpt>
      <trkpt lat="49.43336" lon="5.73846">
        <ele>322.60000610352</ele>
        <time>2023-06-18T06:33:06Z</time>
      </trkpt>
      <trkpt lat="49.43332" lon="5.73851">
        <ele>322.79998779297</ele>
        <time>2023-06-18T06:33:08Z</time>
      </trkpt>
      <trkpt lat="49.4333" lon="5.73854">
        <ele>322.79998779297</ele>
        <time>2023-06-18T06:33:09Z</time>
      </trkpt>
      <trkpt lat="49.43328" lon="5.73856">
        <ele>322.79998779297</ele>
        <time>2023-06-18T06:33:10Z</time>
      </trkpt>
      <trkpt lat="49.43322" lon="5.73862">
        <ele>323</ele>
        <time>2023-06-18T06:33:12Z</time>
      </trkpt>
      <trkpt lat="49.43317" lon="5.7387">
        <ele>323.20001220703</ele>
        <time>2023-06-18T06:33:14Z</time>
      </trkpt>
      <trkpt lat="49.43311" lon="5.73876">
        <ele>323.39999389648</ele>
        <time>2023-06-18T06:33:16Z</time>
      </trkpt>
      <trkpt lat="49.43306" lon="5.73881">
        <ele>323.39999389648</ele>
        <time>2023-06-18T06:33:18Z</time>
      </trkpt>
      <trkpt lat="49.43301" lon="5.73888">
        <ele>323.39999389648</ele>
        <time>2023-06-18T06:33:20Z</time>
      </trkpt>
      <trkpt lat="49.43295" lon="5.73894">
        <ele>323.39999389648</ele>
        <time>2023-06-18T06:33:22Z</time>
      </trkpt>
      <trkpt lat="49.43292" lon="5.73898">
        <ele>323.39999389648</ele>
        <time>2023-06-18T06:33:23Z</time>
      </trkpt>
      <trkpt lat="49.4329" lon="5.73901">
        <ele>323.60000610352</ele>
        <time>2023-06-18T06:33:24Z</time>
      </trkpt>
      <trkpt lat="49.43284" lon="5.73908">
        <ele>323.60000610352</ele>
        <time>2023-06-18T06:33:26Z</time>
      </trkpt>
      <trkpt lat="49.43279" lon="5.73917">
        <ele>323.60000610352</ele>
        <time>2023-06-18T06:33:28Z</time>
      </trkpt>
      <trkpt lat="49.43272" lon="5.73927">
        <ele>323.60000610352</ele>
        <time>2023-06-18T06:33:30Z</time>
      </trkpt>
      <trkpt lat="49.43266" lon="5.73933">
        <ele>323.60000610352</ele>
        <time>2023-06-18T06:33:32Z</time>
      </trkpt>
      <trkpt lat="49.43263" lon="5.73936">
        <ele>323.60000610352</ele>
        <time>2023-06-18T06:33:33Z</time>
      </trkpt>
      <trkpt lat="49.43261" lon="5.73939">
        <ele>323.60000610352</ele>
        <time>2023-06-18T06:33:34Z</time>
      </trkpt>
      <trkpt lat="49.43255" lon="5.73944">
        <ele>323.60000610352</ele>
        <time>2023-06-18T06:33:36Z</time>
      </trkpt>
      <trkpt lat="49.4325" lon="5.7395">
        <ele>323.60000610352</ele>
        <time>2023-06-18T06:33:38Z</time>
      </trkpt>
      <trkpt lat="49.43247" lon="5.73953">
        <ele>323.60000610352</ele>
        <time>2023-06-18T06:33:39Z</time>
      </trkpt>
      <trkpt lat="49.43245" lon="5.73956">
        <ele>323.60000610352</ele>
        <time>2023-06-18T06:33:40Z</time>
      </trkpt>
      <trkpt lat="49.43243" lon="5.73961">
        <ele>323.60000610352</ele>
        <time>2023-06-18T06:33:41Z</time>
      </trkpt>
      <trkpt lat="49.43239" lon="5.73967">
        <ele>323.60000610352</ele>
        <time>2023-06-18T06:33:42Z</time>
      </trkpt>
      <trkpt lat="49.43233" lon="5.73973">
        <ele>323.39999389648</ele>
        <time>2023-06-18T06:33:44Z</time>
      </trkpt>
      <trkpt lat="49.4323" lon="5.73977">
        <ele>323.39999389648</ele>
        <time>2023-06-18T06:33:45Z</time>
      </trkpt>
      <trkpt lat="49.43227" lon="5.7398">
        <ele>323.39999389648</ele>
        <time>2023-06-18T06:33:46Z</time>
      </trkpt>
      <trkpt lat="49.43221" lon="5.73988">
        <ele>323.39999389648</ele>
        <time>2023-06-18T06:33:48Z</time>
      </trkpt>
      <trkpt lat="49.43215" lon="5.73996">
        <ele>323.39999389648</ele>
        <time>2023-06-18T06:33:50Z</time>
      </trkpt>
      <trkpt lat="49.43208" lon="5.74005">
        <ele>323</ele>
        <time>2023-06-18T06:33:52Z</time>
      </trkpt>
      <trkpt lat="49.43205" lon="5.74009">
        <ele>323</ele>
        <time>2023-06-18T06:33:53Z</time>
      </trkpt>
      <trkpt lat="49.43202" lon="5.74013">
        <ele>322.79998779297</ele>
        <time>2023-06-18T06:33:54Z</time>
      </trkpt>
      <trkpt lat="49.43193" lon="5.74026">
        <ele>322.60000610352</ele>
        <time>2023-06-18T06:33:56Z</time>
      </trkpt>
      <trkpt lat="49.43182" lon="5.7404">
        <ele>322.20001220703</ele>
        <time>2023-06-18T06:33:58Z</time>
      </trkpt>
      <trkpt lat="49.43177" lon="5.74045">
        <ele>322</ele>
        <time>2023-06-18T06:33:59Z</time>
      </trkpt>
      <trkpt lat="49.43174" lon="5.74051">
        <ele>322</ele>
        <time>2023-06-18T06:34:00Z</time>
      </trkpt>
      <trkpt lat="49.43169" lon="5.74056">
        <ele>321.39999389648</ele>
        <time>2023-06-18T06:34:01Z</time>
      </trkpt>
      <trkpt lat="49.43166" lon="5.74061">
        <ele>321.20001220703</ele>
        <time>2023-06-18T06:34:02Z</time>
      </trkpt>
      <trkpt lat="49.43159" lon="5.7407">
        <ele>321.20001220703</ele>
        <time>2023-06-18T06:34:04Z</time>
      </trkpt>
      <trkpt lat="49.43152" lon="5.74077">
        <ele>320.79998779297</ele>
        <time>2023-06-18T06:34:06Z</time>
      </trkpt>
      <trkpt lat="49.43146" lon="5.74086">
        <ele>320.60000610352</ele>
        <time>2023-06-18T06:34:08Z</time>
      </trkpt>
      <trkpt lat="49.43137" lon="5.74096">
        <ele>320.39999389648</ele>
        <time>2023-06-18T06:34:10Z</time>
      </trkpt>
      <trkpt lat="49.43133" lon="5.74101">
        <ele>320.39999389648</ele>
        <time>2023-06-18T06:34:11Z</time>
      </trkpt>
      <trkpt lat="49.4313" lon="5.74104">
        <ele>320.20001220703</ele>
        <time>2023-06-18T06:34:12Z</time>
      </trkpt>
      <trkpt lat="49.43124" lon="5.74113">
        <ele>320.20001220703</ele>
        <time>2023-06-18T06:34:14Z</time>
      </trkpt>
      <trkpt lat="49.43118" lon="5.74122">
        <ele>320.20001220703</ele>
        <time>2023-06-18T06:34:16Z</time>
      </trkpt>
      <trkpt lat="49.4311" lon="5.74133">
        <ele>320</ele>
        <time>2023-06-18T06:34:18Z</time>
      </trkpt>
      <trkpt lat="49.43102" lon="5.74145">
        <ele>320</ele>
        <time>2023-06-18T06:34:20Z</time>
      </trkpt>
      <trkpt lat="49.43096" lon="5.74154">
        <ele>320</ele>
        <time>2023-06-18T06:34:22Z</time>
      </trkpt>
      <trkpt lat="49.4309" lon="5.74162">
        <ele>320</ele>
        <time>2023-06-18T06:34:24Z</time>
      </trkpt>
      <trkpt lat="49.43085" lon="5.74167">
        <ele>320</ele>
        <time>2023-06-18T06:34:26Z</time>
      </trkpt>
      <trkpt lat="49.43079" lon="5.74172">
        <ele>320</ele>
        <time>2023-06-18T06:34:28Z</time>
      </trkpt>
      <trkpt lat="49.43067" lon="5.74176">
        <ele>319.79998779297</ele>
        <time>2023-06-18T06:34:30Z</time>
      </trkpt>
      <trkpt lat="49.43059" lon="5.74173">
        <ele>319.60000610352</ele>
        <time>2023-06-18T06:34:32Z</time>
      </trkpt>
      <trkpt lat="49.43049" lon="5.74168">
        <ele>319.39999389648</ele>
        <time>2023-06-18T06:34:34Z</time>
      </trkpt>
      <trkpt lat="49.43045" lon="5.74164">
        <ele>319.20001220703</ele>
        <time>2023-06-18T06:34:35Z</time>
      </trkpt>
      <trkpt lat="49.43043" lon="5.7416">
        <ele>319</ele>
        <time>2023-06-18T06:34:36Z</time>
      </trkpt>
      <trkpt lat="49.43037" lon="5.74151">
        <ele>318.79998779297</ele>
        <time>2023-06-18T06:34:38Z</time>
      </trkpt>
      <trkpt lat="49.43029" lon="5.74146">
        <ele>318.60000610352</ele>
        <time>2023-06-18T06:34:40Z</time>
      </trkpt>
      <trkpt lat="49.43022" lon="5.74134">
        <ele>318.20001220703</ele>
        <time>2023-06-18T06:34:42Z</time>
      </trkpt>
      <trkpt lat="49.43016" lon="5.74123">
        <ele>317.60000610352</ele>
        <time>2023-06-18T06:34:44Z</time>
      </trkpt>
      <trkpt lat="49.43009" lon="5.7411">
        <ele>317.20001220703</ele>
        <time>2023-06-18T06:34:46Z</time>
      </trkpt>
      <trkpt lat="49.43004" lon="5.74103">
        <ele>317</ele>
        <time>2023-06-18T06:34:47Z</time>
      </trkpt>
      <trkpt lat="49.43" lon="5.74096">
        <ele>316.79998779297</ele>
        <time>2023-06-18T06:34:48Z</time>
      </trkpt>
      <trkpt lat="49.42997" lon="5.74089">
        <ele>316.60000610352</ele>
        <time>2023-06-18T06:34:49Z</time>
      </trkpt>
      <trkpt lat="49.42993" lon="5.74082">
        <ele>316.20001220703</ele>
        <time>2023-06-18T06:34:50Z</time>
      </trkpt>
      <trkpt lat="49.42989" lon="5.74076">
        <ele>316</ele>
        <time>2023-06-18T06:34:51Z</time>
      </trkpt>
      <trkpt lat="49.42986" lon="5.7407">
        <ele>315.79998779297</ele>
        <time>2023-06-18T06:34:52Z</time>
      </trkpt>
      <trkpt lat="49.42977" lon="5.74054">
        <ele>315.20001220703</ele>
        <time>2023-06-18T06:34:54Z</time>
      </trkpt>
      <trkpt lat="49.42971" lon="5.74046">
        <ele>314.79998779297</ele>
        <time>2023-06-18T06:34:55Z</time>
      </trkpt>
      <trkpt lat="49.42965" lon="5.74038">
        <ele>314.60000610352</ele>
        <time>2023-06-18T06:34:56Z</time>
      </trkpt>
      <trkpt lat="49.42956" lon="5.74018">
        <ele>314</ele>
        <time>2023-06-18T06:34:58Z</time>
      </trkpt>
      <trkpt lat="49.42945" lon="5.74006">
        <ele>313.79998779297</ele>
        <time>2023-06-18T06:35:00Z</time>
      </trkpt>
      <trkpt lat="49.42939" lon="5.74004">
        <ele>313.79998779297</ele>
        <time>2023-06-18T06:35:01Z</time>
      </trkpt>
      <trkpt lat="49.42935" lon="5.73996">
        <ele>313.79998779297</ele>
        <time>2023-06-18T06:35:02Z</time>
      </trkpt>
      <trkpt lat="49.42933" lon="5.73986">
        <ele>313.79998779297</ele>
        <time>2023-06-18T06:35:03Z</time>
      </trkpt>
      <trkpt lat="49.42931" lon="5.7398">
        <ele>313.79998779297</ele>
        <time>2023-06-18T06:35:04Z</time>
      </trkpt>
      <trkpt lat="49.42926" lon="5.73965">
        <ele>313.79998779297</ele>
        <time>2023-06-18T06:35:06Z</time>
      </trkpt>
      <trkpt lat="49.4292" lon="5.73953">
        <ele>313.79998779297</ele>
        <time>2023-06-18T06:35:08Z</time>
      </trkpt>
      <trkpt lat="49.42914" lon="5.73941">
        <ele>313.79998779297</ele>
        <time>2023-06-18T06:35:10Z</time>
      </trkpt>
      <trkpt lat="49.42908" lon="5.73929">
        <ele>313.79998779297</ele>
        <time>2023-06-18T06:35:12Z</time>
      </trkpt>
      <trkpt lat="49.42905" lon="5.73924">
        <ele>313.79998779297</ele>
        <time>2023-06-18T06:35:13Z</time>
      </trkpt>
      <trkpt lat="49.42903" lon="5.73918">
        <ele>313.79998779297</ele>
        <time>2023-06-18T06:35:14Z</time>
      </trkpt>
      <trkpt lat="49.42896" lon="5.73906">
        <ele>313.79998779297</ele>
        <time>2023-06-18T06:35:16Z</time>
      </trkpt>
      <trkpt lat="49.4289" lon="5.73901">
        <ele>313.79998779297</ele>
        <time>2023-06-18T06:35:18Z</time>
      </trkpt>
      <trkpt lat="49.42886" lon="5.73888">
        <ele>313.79998779297</ele>
        <time>2023-06-18T06:35:19Z</time>
      </trkpt>
      <trkpt lat="49.42882" lon="5.73889">
        <ele>313.79998779297</ele>
        <time>2023-06-18T06:35:20Z</time>
      </trkpt>
      <trkpt lat="49.42873" lon="5.73882">
        <ele>313.79998779297</ele>
        <time>2023-06-18T06:35:22Z</time>
      </trkpt>
      <trkpt lat="49.42869" lon="5.73868">
        <ele>313.79998779297</ele>
        <time>2023-06-18T06:35:24Z</time>
      </trkpt>
      <trkpt lat="49.42866" lon="5.73866">
        <ele>313.79998779297</ele>
        <time>2023-06-18T06:35:25Z</time>
      </trkpt>
      <trkpt lat="49.42865" lon="5.73859">
        <ele>313.79998779297</ele>
        <time>2023-06-18T06:35:26Z</time>
      </trkpt>
      <trkpt lat="49.4286" lon="5.73849">
        <ele>313.79998779297</ele>
        <time>2023-06-18T06:35:28Z</time>
      </trkpt>
      <trkpt lat="49.42856" lon="5.73842">
        <ele>313.79998779297</ele>
        <time>2023-06-18T06:35:30Z</time>
      </trkpt>
      <trkpt lat="49.42852" lon="5.73839">
        <ele>313.60000610352</ele>
        <time>2023-06-18T06:35:31Z</time>
      </trkpt>
      <trkpt lat="49.4285" lon="5.73835">
        <ele>313.60000610352</ele>
        <time>2023-06-18T06:35:32Z</time>
      </trkpt>
      <trkpt lat="49.42845" lon="5.73828">
        <ele>313.60000610352</ele>
        <time>2023-06-18T06:35:34Z</time>
      </trkpt>
      <trkpt lat="49.4284" lon="5.73813">
        <ele>313.60000610352</ele>
        <time>2023-06-18T06:35:36Z</time>
      </trkpt>
      <trkpt lat="49.42837" lon="5.73799">
        <ele>313.39999389648</ele>
        <time>2023-06-18T06:35:38Z</time>
      </trkpt>
      <trkpt lat="49.42834" lon="5.73793">
        <ele>313.20001220703</ele>
        <time>2023-06-18T06:35:39Z</time>
      </trkpt>
      <trkpt lat="49.42831" lon="5.73787">
        <ele>313.20001220703</ele>
        <time>2023-06-18T06:35:40Z</time>
      </trkpt>
      <trkpt lat="49.42824" lon="5.73774">
        <ele>312.79998779297</ele>
        <time>2023-06-18T06:35:42Z</time>
      </trkpt>
      <trkpt lat="49.42821" lon="5.73767">
        <ele>312.79998779297</ele>
        <time>2023-06-18T06:35:43Z</time>
      </trkpt>
      <trkpt lat="49.42817" lon="5.73759">
        <ele>312.60000610352</ele>
        <time>2023-06-18T06:35:44Z</time>
      </trkpt>
      <trkpt lat="49.42808" lon="5.73744">
        <ele>312.60000610352</ele>
        <time>2023-06-18T06:35:46Z</time>
      </trkpt>
      <trkpt lat="49.42799" lon="5.73732">
        <ele>312.39999389648</ele>
        <time>2023-06-18T06:35:48Z</time>
      </trkpt>
      <trkpt lat="49.42791" lon="5.73719">
        <ele>312.39999389648</ele>
        <time>2023-06-18T06:35:50Z</time>
      </trkpt>
      <trkpt lat="49.42783" lon="5.73704">
        <ele>312.20001220703</ele>
        <time>2023-06-18T06:35:52Z</time>
      </trkpt>
      <trkpt lat="49.42777" lon="5.73693">
        <ele>311.79998779297</ele>
        <time>2023-06-18T06:35:54Z</time>
      </trkpt>
      <trkpt lat="49.42774" lon="5.73687">
        <ele>311.60000610352</ele>
        <time>2023-06-18T06:35:55Z</time>
      </trkpt>
      <trkpt lat="49.42771" lon="5.73682">
        <ele>311.39999389648</ele>
        <time>2023-06-18T06:35:56Z</time>
      </trkpt>
      <trkpt lat="49.42765" lon="5.73671">
        <ele>311.20001220703</ele>
        <time>2023-06-18T06:35:58Z</time>
      </trkpt>
      <trkpt lat="49.42759" lon="5.7366">
        <ele>311.20001220703</ele>
        <time>2023-06-18T06:36:00Z</time>
      </trkpt>
      <trkpt lat="49.42753" lon="5.73647">
        <ele>311</ele>
        <time>2023-06-18T06:36:02Z</time>
      </trkpt>
      <trkpt lat="49.42748" lon="5.73637">
        <ele>310.79998779297</ele>
        <time>2023-06-18T06:36:04Z</time>
      </trkpt>
      <trkpt lat="49.42743" lon="5.73628">
        <ele>310.60000610352</ele>
        <time>2023-06-18T06:36:06Z</time>
      </trkpt>
      <trkpt lat="49.4274" lon="5.73624">
        <ele>310.39999389648</ele>
        <time>2023-06-18T06:36:07Z</time>
      </trkpt>
      <trkpt lat="49.42738" lon="5.7362">
        <ele>310.39999389648</ele>
        <time>2023-06-18T06:36:08Z</time>
      </trkpt>
      <trkpt lat="49.42733" lon="5.7361">
        <ele>310.20001220703</ele>
        <time>2023-06-18T06:36:10Z</time>
      </trkpt>
      <trkpt lat="49.42727" lon="5.73599">
        <ele>310</ele>
        <time>2023-06-18T06:36:12Z</time>
      </trkpt>
      <trkpt lat="49.42722" lon="5.73588">
        <ele>310</ele>
        <time>2023-06-18T06:36:14Z</time>
      </trkpt>
      <trkpt lat="49.42716" lon="5.73577">
        <ele>309.79998779297</ele>
        <time>2023-06-18T06:36:16Z</time>
      </trkpt>
      <trkpt lat="49.4271" lon="5.73566">
        <ele>309.39999389648</ele>
        <time>2023-06-18T06:36:18Z</time>
      </trkpt>
      <trkpt lat="49.42708" lon="5.73561">
        <ele>309.20001220703</ele>
        <time>2023-06-18T06:36:19Z</time>
      </trkpt>
      <trkpt lat="49.42705" lon="5.73555">
        <ele>309</ele>
        <time>2023-06-18T06:36:20Z</time>
      </trkpt>
      <trkpt lat="49.42699" lon="5.73544">
        <ele>308.60000610352</ele>
        <time>2023-06-18T06:36:22Z</time>
      </trkpt>
      <trkpt lat="49.42692" lon="5.73533">
        <ele>308.20001220703</ele>
        <time>2023-06-18T06:36:24Z</time>
      </trkpt>
      <trkpt lat="49.42689" lon="5.73528">
        <ele>308.20001220703</ele>
        <time>2023-06-18T06:36:25Z</time>
      </trkpt>
      <trkpt lat="49.42686" lon="5.73521">
        <ele>308</ele>
        <time>2023-06-18T06:36:26Z</time>
      </trkpt>
      <trkpt lat="49.4268" lon="5.73509">
        <ele>307.79998779297</ele>
        <time>2023-06-18T06:36:28Z</time>
      </trkpt>
      <trkpt lat="49.42673" lon="5.73496">
        <ele>307.39999389648</ele>
        <time>2023-06-18T06:36:30Z</time>
      </trkpt>
      <trkpt lat="49.42665" lon="5.73483">
        <ele>307</ele>
        <time>2023-06-18T06:36:32Z</time>
      </trkpt>
      <trkpt lat="49.42663" lon="5.73477">
        <ele>306.79998779297</ele>
        <time>2023-06-18T06:36:33Z</time>
      </trkpt>
      <trkpt lat="49.42659" lon="5.7347">
        <ele>306.60000610352</ele>
        <time>2023-06-18T06:36:34Z</time>
      </trkpt>
      <trkpt lat="49.42653" lon="5.73457">
        <ele>306.39999389648</ele>
        <time>2023-06-18T06:36:36Z</time>
      </trkpt>
      <trkpt lat="49.42649" lon="5.7345">
        <ele>306.20001220703</ele>
        <time>2023-06-18T06:36:37Z</time>
      </trkpt>
      <trkpt lat="49.42646" lon="5.73443">
        <ele>306</ele>
        <time>2023-06-18T06:36:38Z</time>
      </trkpt>
      <trkpt lat="49.42642" lon="5.73437">
        <ele>306</ele>
        <time>2023-06-18T06:36:39Z</time>
      </trkpt>
      <trkpt lat="49.42638" lon="5.73432">
        <ele>305.79998779297</ele>
        <time>2023-06-18T06:36:40Z</time>
      </trkpt>
      <trkpt lat="49.42635" lon="5.73427">
        <ele>305.79998779297</ele>
        <time>2023-06-18T06:36:41Z</time>
      </trkpt>
      <trkpt lat="49.42631" lon="5.7342">
        <ele>305.39999389648</ele>
        <time>2023-06-18T06:36:42Z</time>
      </trkpt>
      <trkpt lat="49.42623" lon="5.73404">
        <ele>305</ele>
        <time>2023-06-18T06:36:44Z</time>
      </trkpt>
      <trkpt lat="49.42618" lon="5.73394">
        <ele>304.60000610352</ele>
        <time>2023-06-18T06:36:45Z</time>
      </trkpt>
      <trkpt lat="49.42613" lon="5.73385">
        <ele>304</ele>
        <time>2023-06-18T06:36:46Z</time>
      </trkpt>
      <trkpt lat="49.42602" lon="5.73365">
        <ele>303.39999389648</ele>
        <time>2023-06-18T06:36:48Z</time>
      </trkpt>
      <trkpt lat="49.42597" lon="5.73356">
        <ele>302.60000610352</ele>
        <time>2023-06-18T06:36:49Z</time>
      </trkpt>
      <trkpt lat="49.42594" lon="5.73346">
        <ele>301.60000610352</ele>
        <time>2023-06-18T06:36:50Z</time>
      </trkpt>
      <trkpt lat="49.4259" lon="5.73337">
        <ele>300.39999389648</ele>
        <time>2023-06-18T06:36:51Z</time>
      </trkpt>
      <trkpt lat="49.42586" lon="5.73328">
        <ele>299</ele>
        <time>2023-06-18T06:36:52Z</time>
      </trkpt>
      <trkpt lat="49.42582" lon="5.73321">
        <ele>297.79998779297</ele>
        <time>2023-06-18T06:36:53Z</time>
      </trkpt>
      <trkpt lat="49.42578" lon="5.73313">
        <ele>295.79998779297</ele>
        <time>2023-06-18T06:36:54Z</time>
      </trkpt>
      <trkpt lat="49.42574" lon="5.73306">
        <ele>294.20001220703</ele>
        <time>2023-06-18T06:36:55Z</time>
      </trkpt>
      <trkpt lat="49.42571" lon="5.73298">
        <ele>292.39999389648</ele>
        <time>2023-06-18T06:36:56Z</time>
      </trkpt>
      <trkpt lat="49.42562" lon="5.73281">
        <ele>291.20001220703</ele>
        <time>2023-06-18T06:36:58Z</time>
      </trkpt>
      <trkpt lat="49.42554" lon="5.73267">
        <ele>290.79998779297</ele>
        <time>2023-06-18T06:37:00Z</time>
      </trkpt>
      <trkpt lat="49.4255" lon="5.73257">
        <ele>290.79998779297</ele>
        <time>2023-06-18T06:37:02Z</time>
      </trkpt>
      <trkpt lat="49.42546" lon="5.73248">
        <ele>290.79998779297</ele>
        <time>2023-06-18T06:37:04Z</time>
      </trkpt>
      <trkpt lat="49.42542" lon="5.73241">
        <ele>290.79998779297</ele>
        <time>2023-06-18T06:37:06Z</time>
      </trkpt>
      <trkpt lat="49.42536" lon="5.73231">
        <ele>291.20001220703</ele>
        <time>2023-06-18T06:37:08Z</time>
      </trkpt>
      <trkpt lat="49.42533" lon="5.73224">
        <ele>291.79998779297</ele>
        <time>2023-06-18T06:37:10Z</time>
      </trkpt>
      <trkpt lat="49.42532" lon="5.7322">
        <ele>292.39999389648</ele>
        <time>2023-06-18T06:37:11Z</time>
      </trkpt>
      <trkpt lat="49.4253" lon="5.73217">
        <ele>292.79998779297</ele>
        <time>2023-06-18T06:37:12Z</time>
      </trkpt>
      <trkpt lat="49.42527" lon="5.7321">
        <ele>293.60000610352</ele>
        <time>2023-06-18T06:37:14Z</time>
      </trkpt>
      <trkpt lat="49.42524" lon="5.73202">
        <ele>295.20001220703</ele>
        <time>2023-06-18T06:37:16Z</time>
      </trkpt>
      <trkpt lat="49.4252" lon="5.73196">
        <ele>296.79998779297</ele>
        <time>2023-06-18T06:37:18Z</time>
      </trkpt>
      <trkpt lat="49.42517" lon="5.7319">
        <ele>297.60000610352</ele>
        <time>2023-06-18T06:37:20Z</time>
      </trkpt>
      <trkpt lat="49.42515" lon="5.73188">
        <ele>298</ele>
        <time>2023-06-18T06:37:21Z</time>
      </trkpt>
      <trkpt lat="49.42513" lon="5.73186">
        <ele>298.20001220703</ele>
        <time>2023-06-18T06:37:22Z</time>
      </trkpt>
      <trkpt lat="49.42512" lon="5.73184">
        <ele>298.39999389648</ele>
        <time>2023-06-18T06:37:23Z</time>
      </trkpt>
      <trkpt lat="49.4251" lon="5.7318">
        <ele>298.79998779297</ele>
        <time>2023-06-18T06:37:24Z</time>
      </trkpt>
      <trkpt lat="49.42507" lon="5.73176">
        <ele>299.39999389648</ele>
        <time>2023-06-18T06:37:26Z</time>
      </trkpt>
      <trkpt lat="49.42505" lon="5.73171">
        <ele>300.20001220703</ele>
        <time>2023-06-18T06:37:28Z</time>
      </trkpt>
      <trkpt lat="49.42504" lon="5.73168">
        <ele>300.39999389648</ele>
        <time>2023-06-18T06:37:29Z</time>
      </trkpt>
      <trkpt lat="49.42503" lon="5.73165">
        <ele>300.60000610352</ele>
        <time>2023-06-18T06:37:30Z</time>
      </trkpt>
      <trkpt lat="49.425" lon="5.73158">
        <ele>300.79998779297</ele>
        <time>2023-06-18T06:37:32Z</time>
      </trkpt>
      <trkpt lat="49.42497" lon="5.7315">
        <ele>300.79998779297</ele>
        <time>2023-06-18T06:37:34Z</time>
      </trkpt>
      <trkpt lat="49.42493" lon="5.73142">
        <ele>301</ele>
        <time>2023-06-18T06:37:36Z</time>
      </trkpt>
      <trkpt lat="49.4249" lon="5.73135">
        <ele>301.20001220703</ele>
        <time>2023-06-18T06:37:38Z</time>
      </trkpt>
      <trkpt lat="49.42486" lon="5.73129">
        <ele>301.39999389648</ele>
        <time>2023-06-18T06:37:40Z</time>
      </trkpt>
      <trkpt lat="49.4248" lon="5.73126">
        <ele>301.39999389648</ele>
        <time>2023-06-18T06:37:42Z</time>
      </trkpt>
      <trkpt lat="49.42476" lon="5.73124">
        <ele>301.39999389648</ele>
        <time>2023-06-18T06:37:43Z</time>
      </trkpt>
      <trkpt lat="49.42474" lon="5.73123">
        <ele>301.39999389648</ele>
        <time>2023-06-18T06:37:44Z</time>
      </trkpt>
      <trkpt lat="49.42469" lon="5.73118">
        <ele>301.39999389648</ele>
        <time>2023-06-18T06:37:46Z</time>
      </trkpt>
      <trkpt lat="49.42463" lon="5.73111">
        <ele>301.39999389648</ele>
        <time>2023-06-18T06:37:48Z</time>
      </trkpt>
      <trkpt lat="49.4246" lon="5.73109">
        <ele>301.39999389648</ele>
        <time>2023-06-18T06:37:49Z</time>
      </trkpt>
      <trkpt lat="49.42457" lon="5.73105">
        <ele>301.39999389648</ele>
        <time>2023-06-18T06:37:50Z</time>
      </trkpt>
      <trkpt lat="49.42452" lon="5.73099">
        <ele>301.39999389648</ele>
        <time>2023-06-18T06:37:52Z</time>
      </trkpt>
      <trkpt lat="49.42447" lon="5.73091">
        <ele>301.20001220703</ele>
        <time>2023-06-18T06:37:54Z</time>
      </trkpt>
      <trkpt lat="49.42444" lon="5.73088">
        <ele>301.20001220703</ele>
        <time>2023-06-18T06:37:55Z</time>
      </trkpt>
      <trkpt lat="49.42442" lon="5.73085">
        <ele>301</ele>
        <time>2023-06-18T06:37:56Z</time>
      </trkpt>
      <trkpt lat="49.42435" lon="5.73076">
        <ele>300.60000610352</ele>
        <time>2023-06-18T06:37:58Z</time>
      </trkpt>
      <trkpt lat="49.42428" lon="5.73065">
        <ele>300</ele>
        <time>2023-06-18T06:38:00Z</time>
      </trkpt>
      <trkpt lat="49.42421" lon="5.73052">
        <ele>299.60000610352</ele>
        <time>2023-06-18T06:38:02Z</time>
      </trkpt>
      <trkpt lat="49.42418" lon="5.73047">
        <ele>299.39999389648</ele>
        <time>2023-06-18T06:38:03Z</time>
      </trkpt>
      <trkpt lat="49.42415" lon="5.73042">
        <ele>299.20001220703</ele>
        <time>2023-06-18T06:38:04Z</time>
      </trkpt>
      <trkpt lat="49.42412" lon="5.73037">
        <ele>298.79998779297</ele>
        <time>2023-06-18T06:38:05Z</time>
      </trkpt>
      <trkpt lat="49.42409" lon="5.73031">
        <ele>298</ele>
        <time>2023-06-18T06:38:06Z</time>
      </trkpt>
      <trkpt lat="49.42403" lon="5.73022">
        <ele>296.39999389648</ele>
        <time>2023-06-18T06:38:08Z</time>
      </trkpt>
      <trkpt lat="49.424" lon="5.73016">
        <ele>295.39999389648</ele>
        <time>2023-06-18T06:38:10Z</time>
      </trkpt>
      <trkpt lat="49.42398" lon="5.7301">
        <ele>295.20001220703</ele>
        <time>2023-06-18T06:38:12Z</time>
      </trkpt>
      <trkpt lat="49.42396" lon="5.73005">
        <ele>295</ele>
        <time>2023-06-18T06:38:14Z</time>
      </trkpt>
      <trkpt lat="49.42393" lon="5.73001">
        <ele>295</ele>
        <time>2023-06-18T06:38:16Z</time>
      </trkpt>
      <trkpt lat="49.42391" lon="5.72997">
        <ele>295.39999389648</ele>
        <time>2023-06-18T06:38:18Z</time>
      </trkpt>
      <trkpt lat="49.42387" lon="5.72992">
        <ele>296.20001220703</ele>
        <time>2023-06-18T06:38:20Z</time>
      </trkpt>
      <trkpt lat="49.42384" lon="5.72989">
        <ele>296.60000610352</ele>
        <time>2023-06-18T06:38:21Z</time>
      </trkpt>
      <trkpt lat="49.42382" lon="5.72986">
        <ele>297</ele>
        <time>2023-06-18T06:38:22Z</time>
      </trkpt>
      <trkpt lat="49.42379" lon="5.72981">
        <ele>297.39999389648</ele>
        <time>2023-06-18T06:38:23Z</time>
      </trkpt>
      <trkpt lat="49.42377" lon="5.72978">
        <ele>297.79998779297</ele>
        <time>2023-06-18T06:38:24Z</time>
      </trkpt>
      <trkpt lat="49.42374" lon="5.72972">
        <ele>298.20001220703</ele>
        <time>2023-06-18T06:38:26Z</time>
      </trkpt>
      <trkpt lat="49.42369" lon="5.72964">
        <ele>298.39999389648</ele>
        <time>2023-06-18T06:38:28Z</time>
      </trkpt>
      <trkpt lat="49.42366" lon="5.72957">
        <ele>298.39999389648</ele>
        <time>2023-06-18T06:38:30Z</time>
      </trkpt>
      <trkpt lat="49.42364" lon="5.72953">
        <ele>298.39999389648</ele>
        <time>2023-06-18T06:38:31Z</time>
      </trkpt>
      <trkpt lat="49.42361" lon="5.72949">
        <ele>298.39999389648</ele>
        <time>2023-06-18T06:38:32Z</time>
      </trkpt>
      <trkpt lat="49.42355" lon="5.72944">
        <ele>298.39999389648</ele>
        <time>2023-06-18T06:38:34Z</time>
      </trkpt>
      <trkpt lat="49.42349" lon="5.7294">
        <ele>298.39999389648</ele>
        <time>2023-06-18T06:38:36Z</time>
      </trkpt>
      <trkpt lat="49.42342" lon="5.72936">
        <ele>298.20001220703</ele>
        <time>2023-06-18T06:38:38Z</time>
      </trkpt>
      <trkpt lat="49.42335" lon="5.72929">
        <ele>298.20001220703</ele>
        <time>2023-06-18T06:38:40Z</time>
      </trkpt>
      <trkpt lat="49.42331" lon="5.72926">
        <ele>298.20001220703</ele>
        <time>2023-06-18T06:38:41Z</time>
      </trkpt>
      <trkpt lat="49.42328" lon="5.72924">
        <ele>298</ele>
        <time>2023-06-18T06:38:42Z</time>
      </trkpt>
      <trkpt lat="49.4232" lon="5.72918">
        <ele>298</ele>
        <time>2023-06-18T06:38:44Z</time>
      </trkpt>
      <trkpt lat="49.42313" lon="5.72912">
        <ele>298</ele>
        <time>2023-06-18T06:38:46Z</time>
      </trkpt>
      <trkpt lat="49.42306" lon="5.72907">
        <ele>298</ele>
        <time>2023-06-18T06:38:48Z</time>
      </trkpt>
      <trkpt lat="49.42302" lon="5.72904">
        <ele>298</ele>
        <time>2023-06-18T06:38:49Z</time>
      </trkpt>
      <trkpt lat="49.42298" lon="5.72901">
        <ele>298</ele>
        <time>2023-06-18T06:38:50Z</time>
      </trkpt>
      <trkpt lat="49.42291" lon="5.72896">
        <ele>297.79998779297</ele>
        <time>2023-06-18T06:38:52Z</time>
      </trkpt>
      <trkpt lat="49.42284" lon="5.72891">
        <ele>297.60000610352</ele>
        <time>2023-06-18T06:38:54Z</time>
      </trkpt>
      <trkpt lat="49.42281" lon="5.72888">
        <ele>297.60000610352</ele>
        <time>2023-06-18T06:38:55Z</time>
      </trkpt>
      <trkpt lat="49.42277" lon="5.72885">
        <ele>297.60000610352</ele>
        <time>2023-06-18T06:38:56Z</time>
      </trkpt>
      <trkpt lat="49.42271" lon="5.72878">
        <ele>297.39999389648</ele>
        <time>2023-06-18T06:38:58Z</time>
      </trkpt>
      <trkpt lat="49.42264" lon="5.72873">
        <ele>297.39999389648</ele>
        <time>2023-06-18T06:39:00Z</time>
      </trkpt>
      <trkpt lat="49.4226" lon="5.72869">
        <ele>297.39999389648</ele>
        <time>2023-06-18T06:39:01Z</time>
      </trkpt>
      <trkpt lat="49.42257" lon="5.72866">
        <ele>297.39999389648</ele>
        <time>2023-06-18T06:39:02Z</time>
      </trkpt>
      <trkpt lat="49.4225" lon="5.72861">
        <ele>297.39999389648</ele>
        <time>2023-06-18T06:39:04Z</time>
      </trkpt>
      <trkpt lat="49.42244" lon="5.72855">
        <ele>297.39999389648</ele>
        <time>2023-06-18T06:39:06Z</time>
      </trkpt>
      <trkpt lat="49.42237" lon="5.72849">
        <ele>297.39999389648</ele>
        <time>2023-06-18T06:39:08Z</time>
      </trkpt>
      <trkpt lat="49.42231" lon="5.72843">
        <ele>297.60000610352</ele>
        <time>2023-06-18T06:39:10Z</time>
      </trkpt>
      <trkpt lat="49.42224" lon="5.72837">
        <ele>298</ele>
        <time>2023-06-18T06:39:12Z</time>
      </trkpt>
      <trkpt lat="49.42218" lon="5.72831">
        <ele>298.20001220703</ele>
        <time>2023-06-18T06:39:14Z</time>
      </trkpt>
      <trkpt lat="49.42211" lon="5.72825">
        <ele>298.60000610352</ele>
        <time>2023-06-18T06:39:16Z</time>
      </trkpt>
      <trkpt lat="49.42207" lon="5.72822">
        <ele>298.60000610352</ele>
        <time>2023-06-18T06:39:17Z</time>
      </trkpt>
      <trkpt lat="49.42204" lon="5.72819">
        <ele>298.60000610352</ele>
        <time>2023-06-18T06:39:18Z</time>
      </trkpt>
      <trkpt lat="49.42201" lon="5.72816">
        <ele>298.79998779297</ele>
        <time>2023-06-18T06:39:19Z</time>
      </trkpt>
      <trkpt lat="49.42197" lon="5.72813">
        <ele>298.79998779297</ele>
        <time>2023-06-18T06:39:20Z</time>
      </trkpt>
      <trkpt lat="49.42191" lon="5.72806">
        <ele>298.79998779297</ele>
        <time>2023-06-18T06:39:22Z</time>
      </trkpt>
      <trkpt lat="49.42184" lon="5.728">
        <ele>298.79998779297</ele>
        <time>2023-06-18T06:39:24Z</time>
      </trkpt>
      <trkpt lat="49.42177" lon="5.72793">
        <ele>298.60000610352</ele>
        <time>2023-06-18T06:39:26Z</time>
      </trkpt>
      <trkpt lat="49.4217" lon="5.72788">
        <ele>298.60000610352</ele>
        <time>2023-06-18T06:39:28Z</time>
      </trkpt>
      <trkpt lat="49.42163" lon="5.72782">
        <ele>298.39999389648</ele>
        <time>2023-06-18T06:39:30Z</time>
      </trkpt>
      <trkpt lat="49.42158" lon="5.72779">
        <ele>298.39999389648</ele>
        <time>2023-06-18T06:39:32Z</time>
      </trkpt>
      <trkpt lat="49.42156" lon="5.72778">
        <ele>298.39999389648</ele>
        <time>2023-06-18T06:39:33Z</time>
      </trkpt>
      <trkpt lat="49.42154" lon="5.72778">
        <ele>298.39999389648</ele>
        <time>2023-06-18T06:39:34Z</time>
      </trkpt>
      <trkpt lat="49.42149" lon="5.72774">
        <ele>298.39999389648</ele>
        <time>2023-06-18T06:39:36Z</time>
      </trkpt>
      <trkpt lat="49.42146" lon="5.72771">
        <ele>298.39999389648</ele>
        <time>2023-06-18T06:39:37Z</time>
      </trkpt>
      <trkpt lat="49.42143" lon="5.72768">
        <ele>298.39999389648</ele>
        <time>2023-06-18T06:39:38Z</time>
      </trkpt>
      <trkpt lat="49.42137" lon="5.72761">
        <ele>298.39999389648</ele>
        <time>2023-06-18T06:39:40Z</time>
      </trkpt>
      <trkpt lat="49.4213" lon="5.72756">
        <ele>298.39999389648</ele>
        <time>2023-06-18T06:39:42Z</time>
      </trkpt>
      <trkpt lat="49.42123" lon="5.72751">
        <ele>298.39999389648</ele>
        <time>2023-06-18T06:39:44Z</time>
      </trkpt>
      <trkpt lat="49.42117" lon="5.72746">
        <ele>298.39999389648</ele>
        <time>2023-06-18T06:39:46Z</time>
      </trkpt>
      <trkpt lat="49.42111" lon="5.7274">
        <ele>298.20001220703</ele>
        <time>2023-06-18T06:39:48Z</time>
      </trkpt>
      <trkpt lat="49.42109" lon="5.72738">
        <ele>298</ele>
        <time>2023-06-18T06:39:49Z</time>
      </trkpt>
      <trkpt lat="49.42108" lon="5.72735">
        <ele>298</ele>
        <time>2023-06-18T06:39:50Z</time>
      </trkpt>
      <trkpt lat="49.42105" lon="5.72734">
        <ele>297.79998779297</ele>
        <time>2023-06-18T06:39:52Z</time>
      </trkpt>
      <trkpt lat="49.42104" lon="5.72734">
        <ele>297.79998779297</ele>
        <time>2023-06-18T06:39:53Z</time>
      </trkpt>
      <trkpt lat="49.42104" lon="5.72736">
        <ele>297.79998779297</ele>
        <time>2023-06-18T06:39:54Z</time>
      </trkpt>
      <trkpt lat="49.42107" lon="5.72738">
        <ele>297.60000610352</ele>
        <time>2023-06-18T06:39:56Z</time>
      </trkpt>
      <trkpt lat="49.42112" lon="5.72742">
        <ele>297.60000610352</ele>
        <time>2023-06-18T06:39:58Z</time>
      </trkpt>
      <trkpt lat="49.42117" lon="5.72745">
        <ele>297.60000610352</ele>
        <time>2023-06-18T06:40:00Z</time>
      </trkpt>
      <trkpt lat="49.42123" lon="5.72749">
        <ele>297.60000610352</ele>
        <time>2023-06-18T06:40:02Z</time>
      </trkpt>
      <trkpt lat="49.42128" lon="5.72754">
        <ele>297.60000610352</ele>
        <time>2023-06-18T06:40:04Z</time>
      </trkpt>
      <trkpt lat="49.42131" lon="5.72756">
        <ele>297.60000610352</ele>
        <time>2023-06-18T06:40:05Z</time>
      </trkpt>
      <trkpt lat="49.42133" lon="5.72757">
        <ele>297.60000610352</ele>
        <time>2023-06-18T06:40:06Z</time>
      </trkpt>
      <trkpt lat="49.42138" lon="5.72761">
        <ele>297.79998779297</ele>
        <time>2023-06-18T06:40:08Z</time>
      </trkpt>
      <trkpt lat="49.42142" lon="5.72764">
        <ele>297.79998779297</ele>
        <time>2023-06-18T06:40:10Z</time>
      </trkpt>
      <trkpt lat="49.42144" lon="5.72766">
        <ele>297.79998779297</ele>
        <time>2023-06-18T06:40:11Z</time>
      </trkpt>
      <trkpt lat="49.42147" lon="5.72768">
        <ele>298</ele>
        <time>2023-06-18T06:40:12Z</time>
      </trkpt>
      <trkpt lat="49.42152" lon="5.72773">
        <ele>298</ele>
        <time>2023-06-18T06:40:14Z</time>
      </trkpt>
      <trkpt lat="49.42157" lon="5.72777">
        <ele>298.20001220703</ele>
        <time>2023-06-18T06:40:16Z</time>
      </trkpt>
      <trkpt lat="49.42163" lon="5.72782">
        <ele>298.20001220703</ele>
        <time>2023-06-18T06:40:18Z</time>
      </trkpt>
      <trkpt lat="49.42169" lon="5.72786">
        <ele>298.20001220703</ele>
        <time>2023-06-18T06:40:20Z</time>
      </trkpt>
      <trkpt lat="49.42175" lon="5.72791">
        <ele>298.39999389648</ele>
        <time>2023-06-18T06:40:22Z</time>
      </trkpt>
      <trkpt lat="49.42181" lon="5.72797">
        <ele>298.39999389648</ele>
        <time>2023-06-18T06:40:24Z</time>
      </trkpt>
      <trkpt lat="49.42184" lon="5.728">
        <ele>298.39999389648</ele>
        <time>2023-06-18T06:40:25Z</time>
      </trkpt>
      <trkpt lat="49.42187" lon="5.72802">
        <ele>298.39999389648</ele>
        <time>2023-06-18T06:40:26Z</time>
      </trkpt>
      <trkpt lat="49.42194" lon="5.72808">
        <ele>298.39999389648</ele>
        <time>2023-06-18T06:40:28Z</time>
      </trkpt>
      <trkpt lat="49.422" lon="5.72813">
        <ele>298.39999389648</ele>
        <time>2023-06-18T06:40:30Z</time>
      </trkpt>
      <trkpt lat="49.42206" lon="5.72819">
        <ele>298.60000610352</ele>
        <time>2023-06-18T06:40:32Z</time>
      </trkpt>
      <trkpt lat="49.4221" lon="5.72822">
        <ele>298.60000610352</ele>
        <time>2023-06-18T06:40:33Z</time>
      </trkpt>
      <trkpt lat="49.42213" lon="5.72825">
        <ele>298.79998779297</ele>
        <time>2023-06-18T06:40:34Z</time>
      </trkpt>
      <trkpt lat="49.42216" lon="5.72828">
        <ele>298.79998779297</ele>
        <time>2023-06-18T06:40:35Z</time>
      </trkpt>
      <trkpt lat="49.42219" lon="5.7283">
        <ele>298.79998779297</ele>
        <time>2023-06-18T06:40:36Z</time>
      </trkpt>
      <trkpt lat="49.42226" lon="5.72836">
        <ele>299</ele>
        <time>2023-06-18T06:40:38Z</time>
      </trkpt>
      <trkpt lat="49.42232" lon="5.72842">
        <ele>299</ele>
        <time>2023-06-18T06:40:40Z</time>
      </trkpt>
      <trkpt lat="49.42239" lon="5.72847">
        <ele>299</ele>
        <time>2023-06-18T06:40:42Z</time>
      </trkpt>
      <trkpt lat="49.42243" lon="5.7285">
        <ele>299</ele>
        <time>2023-06-18T06:40:43Z</time>
      </trkpt>
      <trkpt lat="49.42246" lon="5.72854">
        <ele>299</ele>
        <time>2023-06-18T06:40:44Z</time>
      </trkpt>
      <trkpt lat="49.42253" lon="5.7286">
        <ele>299</ele>
        <time>2023-06-18T06:40:46Z</time>
      </trkpt>
      <trkpt lat="49.42255" lon="5.72866">
        <ele>298.60000610352</ele>
        <time>2023-06-18T06:40:48Z</time>
      </trkpt>
      <trkpt lat="49.42257" lon="5.72875">
        <ele>298.39999389648</ele>
        <time>2023-06-18T06:40:50Z</time>
      </trkpt>
      <trkpt lat="49.42258" lon="5.72883">
        <ele>298.20001220703</ele>
        <time>2023-06-18T06:40:52Z</time>
      </trkpt>
      <trkpt lat="49.42258" lon="5.72886">
        <ele>298</ele>
        <time>2023-06-18T06:40:53Z</time>
      </trkpt>
      <trkpt lat="49.42259" lon="5.72889">
        <ele>298</ele>
        <time>2023-06-18T06:40:54Z</time>
      </trkpt>
      <trkpt lat="49.42259" lon="5.72894">
        <ele>297.79998779297</ele>
        <time>2023-06-18T06:40:56Z</time>
      </trkpt>
      <trkpt lat="49.42261" lon="5.72898">
        <ele>297.60000610352</ele>
        <time>2023-06-18T06:40:58Z</time>
      </trkpt>
      <trkpt lat="49.42262" lon="5.72903">
        <ele>297.39999389648</ele>
        <time>2023-06-18T06:41:00Z</time>
      </trkpt>
      <trkpt lat="49.42263" lon="5.72905">
        <ele>297.39999389648</ele>
        <time>2023-06-18T06:41:01Z</time>
      </trkpt>
      <trkpt lat="49.42264" lon="5.72908">
        <ele>297.39999389648</ele>
        <time>2023-06-18T06:41:02Z</time>
      </trkpt>
      <trkpt lat="49.42267" lon="5.72913">
        <ele>297.20001220703</ele>
        <time>2023-06-18T06:41:04Z</time>
      </trkpt>
      <trkpt lat="49.42269" lon="5.72917">
        <ele>297</ele>
        <time>2023-06-18T06:41:05Z</time>
      </trkpt>
      <trkpt lat="49.4227" lon="5.7292">
        <ele>296.79998779297</ele>
        <time>2023-06-18T06:41:06Z</time>
      </trkpt>
      <trkpt lat="49.42274" lon="5.72927">
        <ele>296.60000610352</ele>
        <time>2023-06-18T06:41:08Z</time>
      </trkpt>
      <trkpt lat="49.42279" lon="5.72938">
        <ele>296.20001220703</ele>
        <time>2023-06-18T06:41:10Z</time>
      </trkpt>
      <trkpt lat="49.42281" lon="5.72944">
        <ele>295.79998779297</ele>
        <time>2023-06-18T06:41:11Z</time>
      </trkpt>
      <trkpt lat="49.42283" lon="5.72951">
        <ele>295.79998779297</ele>
        <time>2023-06-18T06:41:12Z</time>
      </trkpt>
      <trkpt lat="49.42287" lon="5.72963">
        <ele>295.20001220703</ele>
        <time>2023-06-18T06:41:14Z</time>
      </trkpt>
      <trkpt lat="49.42288" lon="5.72967">
        <ele>294.79998779297</ele>
        <time>2023-06-18T06:41:15Z</time>
      </trkpt>
      <trkpt lat="49.4229" lon="5.72971">
        <ele>294.20001220703</ele>
        <time>2023-06-18T06:41:16Z</time>
      </trkpt>
      <trkpt lat="49.42291" lon="5.72974">
        <ele>293.39999389648</ele>
        <time>2023-06-18T06:41:17Z</time>
      </trkpt>
      <trkpt lat="49.42294" lon="5.72979">
        <ele>292.79998779297</ele>
        <time>2023-06-18T06:41:18Z</time>
      </trkpt>
      <trkpt lat="49.42296" lon="5.72983">
        <ele>292.20001220703</ele>
        <time>2023-06-18T06:41:19Z</time>
      </trkpt>
      <trkpt lat="49.42298" lon="5.72989">
        <ele>291.39999389648</ele>
        <time>2023-06-18T06:41:20Z</time>
      </trkpt>
      <trkpt lat="49.42299" lon="5.72994">
        <ele>290.79998779297</ele>
        <time>2023-06-18T06:41:21Z</time>
      </trkpt>
      <trkpt lat="49.423" lon="5.73001">
        <ele>290.60000610352</ele>
        <time>2023-06-18T06:41:22Z</time>
      </trkpt>
      <trkpt lat="49.42301" lon="5.73007">
        <ele>290.39999389648</ele>
        <time>2023-06-18T06:41:23Z</time>
      </trkpt>
      <trkpt lat="49.42302" lon="5.73012">
        <ele>290.20001220703</ele>
        <time>2023-06-18T06:41:24Z</time>
      </trkpt>
      <trkpt lat="49.42303" lon="5.73022">
        <ele>289.79998779297</ele>
        <time>2023-06-18T06:41:26Z</time>
      </trkpt>
      <trkpt lat="49.42302" lon="5.73034">
        <ele>289</ele>
        <time>2023-06-18T06:41:28Z</time>
      </trkpt>
      <trkpt lat="49.42301" lon="5.7304">
        <ele>288</ele>
        <time>2023-06-18T06:41:29Z</time>
      </trkpt>
      <trkpt lat="49.423" lon="5.73046">
        <ele>287.79998779297</ele>
        <time>2023-06-18T06:41:30Z</time>
      </trkpt>
      <trkpt lat="49.42298" lon="5.73063">
        <ele>287.60000610352</ele>
        <time>2023-06-18T06:41:32Z</time>
      </trkpt>
      <trkpt lat="49.42296" lon="5.73073">
        <ele>287.60000610352</ele>
        <time>2023-06-18T06:41:34Z</time>
      </trkpt>
      <trkpt lat="49.42295" lon="5.7308">
        <ele>287.60000610352</ele>
        <time>2023-06-18T06:41:35Z</time>
      </trkpt>
      <trkpt lat="49.42294" lon="5.73087">
        <ele>287.60000610352</ele>
        <time>2023-06-18T06:41:36Z</time>
      </trkpt>
      <trkpt lat="49.42291" lon="5.73103">
        <ele>287.60000610352</ele>
        <time>2023-06-18T06:41:38Z</time>
      </trkpt>
      <trkpt lat="49.4229" lon="5.73115">
        <ele>288</ele>
        <time>2023-06-18T06:41:40Z</time>
      </trkpt>
      <trkpt lat="49.42289" lon="5.73122">
        <ele>288.20001220703</ele>
        <time>2023-06-18T06:41:41Z</time>
      </trkpt>
      <trkpt lat="49.42289" lon="5.73127">
        <ele>288.39999389648</ele>
        <time>2023-06-18T06:41:42Z</time>
      </trkpt>
      <trkpt lat="49.42288" lon="5.73137">
        <ele>288.60000610352</ele>
        <time>2023-06-18T06:41:44Z</time>
      </trkpt>
      <trkpt lat="49.42287" lon="5.73151">
        <ele>288.60000610352</ele>
        <time>2023-06-18T06:41:46Z</time>
      </trkpt>
      <trkpt lat="49.42286" lon="5.73156">
        <ele>288.79998779297</ele>
        <time>2023-06-18T06:41:47Z</time>
      </trkpt>
      <trkpt lat="49.42284" lon="5.73163">
        <ele>288.79998779297</ele>
        <time>2023-06-18T06:41:48Z</time>
      </trkpt>
      <trkpt lat="49.42282" lon="5.73172">
        <ele>289</ele>
        <time>2023-06-18T06:41:50Z</time>
      </trkpt>
      <trkpt lat="49.4228" lon="5.73183">
        <ele>289</ele>
        <time>2023-06-18T06:41:52Z</time>
      </trkpt>
      <trkpt lat="49.4228" lon="5.73188">
        <ele>289</ele>
        <time>2023-06-18T06:41:53Z</time>
      </trkpt>
      <trkpt lat="49.42279" lon="5.73193">
        <ele>288.79998779297</ele>
        <time>2023-06-18T06:41:54Z</time>
      </trkpt>
      <trkpt lat="49.42277" lon="5.73202">
        <ele>288.60000610352</ele>
        <time>2023-06-18T06:41:56Z</time>
      </trkpt>
      <trkpt lat="49.42275" lon="5.73213">
        <ele>288</ele>
        <time>2023-06-18T06:41:58Z</time>
      </trkpt>
      <trkpt lat="49.42273" lon="5.73218">
        <ele>287.39999389648</ele>
        <time>2023-06-18T06:41:59Z</time>
      </trkpt>
      <trkpt lat="49.42272" lon="5.73224">
        <ele>286.79998779297</ele>
        <time>2023-06-18T06:42:00Z</time>
      </trkpt>
      <trkpt lat="49.4227" lon="5.73234">
        <ele>286</ele>
        <time>2023-06-18T06:42:02Z</time>
      </trkpt>
      <trkpt lat="49.42269" lon="5.73238">
        <ele>285.39999389648</ele>
        <time>2023-06-18T06:42:03Z</time>
      </trkpt>
      <trkpt lat="49.42267" lon="5.73244">
        <ele>285</ele>
        <time>2023-06-18T06:42:04Z</time>
      </trkpt>
      <trkpt lat="49.42262" lon="5.73257">
        <ele>284.20001220703</ele>
        <time>2023-06-18T06:42:06Z</time>
      </trkpt>
      <trkpt lat="49.42258" lon="5.73269">
        <ele>283.39999389648</ele>
        <time>2023-06-18T06:42:08Z</time>
      </trkpt>
      <trkpt lat="49.42256" lon="5.73275">
        <ele>283</ele>
        <time>2023-06-18T06:42:09Z</time>
      </trkpt>
      <trkpt lat="49.42255" lon="5.73282">
        <ele>282.39999389648</ele>
        <time>2023-06-18T06:42:10Z</time>
      </trkpt>
      <trkpt lat="49.42253" lon="5.73295">
        <ele>281.79998779297</ele>
        <time>2023-06-18T06:42:12Z</time>
      </trkpt>
      <trkpt lat="49.42251" lon="5.73302">
        <ele>281</ele>
        <time>2023-06-18T06:42:13Z</time>
      </trkpt>
      <trkpt lat="49.4225" lon="5.73309">
        <ele>280</ele>
        <time>2023-06-18T06:42:14Z</time>
      </trkpt>
      <trkpt lat="49.42249" lon="5.73312">
        <ele>279.20001220703</ele>
        <time>2023-06-18T06:42:15Z</time>
      </trkpt>
      <trkpt lat="49.42247" lon="5.73316">
        <ele>278.39999389648</ele>
        <time>2023-06-18T06:42:16Z</time>
      </trkpt>
      <trkpt lat="49.42242" lon="5.73327">
        <ele>276.39999389648</ele>
        <time>2023-06-18T06:42:18Z</time>
      </trkpt>
      <trkpt lat="49.42239" lon="5.73333">
        <ele>275.20001220703</ele>
        <time>2023-06-18T06:42:19Z</time>
      </trkpt>
      <trkpt lat="49.42236" lon="5.73338">
        <ele>274.60000610352</ele>
        <time>2023-06-18T06:42:20Z</time>
      </trkpt>
      <trkpt lat="49.42235" lon="5.73342">
        <ele>273.79998779297</ele>
        <time>2023-06-18T06:42:21Z</time>
      </trkpt>
      <trkpt lat="49.42234" lon="5.7335">
        <ele>273</ele>
        <time>2023-06-18T06:42:22Z</time>
      </trkpt>
      <trkpt lat="49.42234" lon="5.73355">
        <ele>272.60000610352</ele>
        <time>2023-06-18T06:42:23Z</time>
      </trkpt>
      <trkpt lat="49.42234" lon="5.73361">
        <ele>272.20001220703</ele>
        <time>2023-06-18T06:42:24Z</time>
      </trkpt>
      <trkpt lat="49.42234" lon="5.73366">
        <ele>271.39999389648</ele>
        <time>2023-06-18T06:42:25Z</time>
      </trkpt>
      <trkpt lat="49.42234" lon="5.73369">
        <ele>269.79998779297</ele>
        <time>2023-06-18T06:42:26Z</time>
      </trkpt>
      <trkpt lat="49.42231" lon="5.7338">
        <ele>268.39999389648</ele>
        <time>2023-06-18T06:42:28Z</time>
      </trkpt>
      <trkpt lat="49.42228" lon="5.73394">
        <ele>267.60000610352</ele>
        <time>2023-06-18T06:42:30Z</time>
      </trkpt>
      <trkpt lat="49.42227" lon="5.73397">
        <ele>267.20001220703</ele>
        <time>2023-06-18T06:42:31Z</time>
      </trkpt>
      <trkpt lat="49.42226" lon="5.73404">
        <ele>267</ele>
        <time>2023-06-18T06:42:32Z</time>
      </trkpt>
      <trkpt lat="49.42221" lon="5.73422">
        <ele>266.39999389648</ele>
        <time>2023-06-18T06:42:34Z</time>
      </trkpt>
      <trkpt lat="49.4222" lon="5.7343">
        <ele>266</ele>
        <time>2023-06-18T06:42:35Z</time>
      </trkpt>
      <trkpt lat="49.42218" lon="5.73442">
        <ele>265.60000610352</ele>
        <time>2023-06-18T06:42:36Z</time>
      </trkpt>
      <trkpt lat="49.42217" lon="5.73453">
        <ele>264.60000610352</ele>
        <time>2023-06-18T06:42:38Z</time>
      </trkpt>
      <trkpt lat="49.42217" lon="5.73458">
        <ele>264.20001220703</ele>
        <time>2023-06-18T06:42:39Z</time>
      </trkpt>
      <trkpt lat="49.42216" lon="5.73463">
        <ele>263.79998779297</ele>
        <time>2023-06-18T06:42:40Z</time>
      </trkpt>
      <trkpt lat="49.42215" lon="5.73469">
        <ele>263.20001220703</ele>
        <time>2023-06-18T06:42:41Z</time>
      </trkpt>
      <trkpt lat="49.42215" lon="5.73473">
        <ele>262.60000610352</ele>
        <time>2023-06-18T06:42:42Z</time>
      </trkpt>
      <trkpt lat="49.42216" lon="5.73476">
        <ele>261.79998779297</ele>
        <time>2023-06-18T06:42:43Z</time>
      </trkpt>
      <trkpt lat="49.42216" lon="5.73479">
        <ele>261.20001220703</ele>
        <time>2023-06-18T06:42:44Z</time>
      </trkpt>
      <trkpt lat="49.42215" lon="5.73483">
        <ele>260.79998779297</ele>
        <time>2023-06-18T06:42:45Z</time>
      </trkpt>
      <trkpt lat="49.42215" lon="5.73487">
        <ele>260.20001220703</ele>
        <time>2023-06-18T06:42:46Z</time>
      </trkpt>
      <trkpt lat="49.42214" lon="5.73492">
        <ele>259.60000610352</ele>
        <time>2023-06-18T06:42:47Z</time>
      </trkpt>
      <trkpt lat="49.42214" lon="5.73495">
        <ele>259</ele>
        <time>2023-06-18T06:42:48Z</time>
      </trkpt>
      <trkpt lat="49.42215" lon="5.73499">
        <ele>258.39999389648</ele>
        <time>2023-06-18T06:42:49Z</time>
      </trkpt>
      <trkpt lat="49.42217" lon="5.73502">
        <ele>258</ele>
        <time>2023-06-18T06:42:50Z</time>
      </trkpt>
      <trkpt lat="49.42219" lon="5.73511">
        <ele>257.60000610352</ele>
        <time>2023-06-18T06:42:52Z</time>
      </trkpt>
      <trkpt lat="49.42221" lon="5.73517">
        <ele>257.20001220703</ele>
        <time>2023-06-18T06:42:53Z</time>
      </trkpt>
      <trkpt lat="49.42223" lon="5.73523">
        <ele>256.79998779297</ele>
        <time>2023-06-18T06:42:54Z</time>
      </trkpt>
      <trkpt lat="49.42226" lon="5.73529">
        <ele>256.39999389648</ele>
        <time>2023-06-18T06:42:55Z</time>
      </trkpt>
      <trkpt lat="49.42228" lon="5.73535">
        <ele>256.20001220703</ele>
        <time>2023-06-18T06:42:56Z</time>
      </trkpt>
      <trkpt lat="49.42231" lon="5.73539">
        <ele>255.80000305176</ele>
        <time>2023-06-18T06:42:57Z</time>
      </trkpt>
      <trkpt lat="49.42234" lon="5.73542">
        <ele>255.19999694824</ele>
        <time>2023-06-18T06:42:58Z</time>
      </trkpt>
      <trkpt lat="49.42237" lon="5.73546">
        <ele>254.80000305176</ele>
        <time>2023-06-18T06:42:59Z</time>
      </trkpt>
      <trkpt lat="49.42239" lon="5.7355">
        <ele>254</ele>
        <time>2023-06-18T06:43:00Z</time>
      </trkpt>
      <trkpt lat="49.42242" lon="5.73554">
        <ele>252.80000305176</ele>
        <time>2023-06-18T06:43:01Z</time>
      </trkpt>
      <trkpt lat="49.42245" lon="5.73558">
        <ele>251.80000305176</ele>
        <time>2023-06-18T06:43:02Z</time>
      </trkpt>
      <trkpt lat="49.42246" lon="5.73562">
        <ele>250.80000305176</ele>
        <time>2023-06-18T06:43:03Z</time>
      </trkpt>
      <trkpt lat="49.42246" lon="5.73565">
        <ele>250</ele>
        <time>2023-06-18T06:43:04Z</time>
      </trkpt>
      <trkpt lat="49.42246" lon="5.7357">
        <ele>249</ele>
        <time>2023-06-18T06:43:06Z</time>
      </trkpt>
      <trkpt lat="49.42246" lon="5.73572">
        <ele>248.60000610352</ele>
        <time>2023-06-18T06:43:07Z</time>
      </trkpt>
      <trkpt lat="49.42246" lon="5.73574">
        <ele>248.19999694824</ele>
        <time>2023-06-18T06:43:08Z</time>
      </trkpt>
      <trkpt lat="49.42247" lon="5.73576">
        <ele>247.39999389648</ele>
        <time>2023-06-18T06:43:10Z</time>
      </trkpt>
      <trkpt lat="49.42247" lon="5.73577">
        <ele>247.19999694824</ele>
        <time>2023-06-18T06:43:12Z</time>
      </trkpt>
      <trkpt lat="49.42247" lon="5.73577">
        <ele>247.19999694824</ele>
        <time>2023-06-18T06:43:14Z</time>
      </trkpt>
      <trkpt lat="49.42247" lon="5.73577">
        <ele>247.19999694824</ele>
        <time>2023-06-18T06:43:16Z</time>
      </trkpt>
      <trkpt lat="49.42247" lon="5.73577">
        <ele>247.19999694824</ele>
        <time>2023-06-18T06:43:17Z</time>
      </trkpt>
      <trkpt lat="49.42247" lon="5.73577">
        <ele>247.19999694824</ele>
        <time>2023-06-18T06:43:18Z</time>
      </trkpt>
      <trkpt lat="49.42247" lon="5.73577">
        <ele>247.19999694824</ele>
        <time>2023-06-18T06:43:20Z</time>
      </trkpt>
      <trkpt lat="49.42247" lon="5.73577">
        <ele>247.19999694824</ele>
        <time>2023-06-18T06:43:22Z</time>
      </trkpt>
      <trkpt lat="49.42247" lon="5.73577">
        <ele>247.19999694824</ele>
        <time>2023-06-18T06:43:24Z</time>
      </trkpt>
      <trkpt lat="49.42247" lon="5.73577">
        <ele>247.19999694824</ele>
        <time>2023-06-18T06:43:26Z</time>
      </trkpt>
      <trkpt lat="49.42247" lon="5.73578">
        <ele>247.19999694824</ele>
        <time>2023-06-18T06:43:28Z</time>
      </trkpt>
      <trkpt lat="49.42247" lon="5.7358">
        <ele>247.19999694824</ele>
        <time>2023-06-18T06:43:30Z</time>
      </trkpt>
      <trkpt lat="49.42247" lon="5.73582">
        <ele>247.19999694824</ele>
        <time>2023-06-18T06:43:31Z</time>
      </trkpt>
      <trkpt lat="49.42247" lon="5.73583">
        <ele>247.19999694824</ele>
        <time>2023-06-18T06:43:32Z</time>
      </trkpt>
      <trkpt lat="49.42248" lon="5.73584">
        <ele>247.19999694824</ele>
        <time>2023-06-18T06:43:34Z</time>
      </trkpt>
      <trkpt lat="49.42248" lon="5.73585">
        <ele>247.19999694824</ele>
        <time>2023-06-18T06:43:36Z</time>
      </trkpt>
      <trkpt lat="49.42248" lon="5.73586">
        <ele>247.39999389648</ele>
        <time>2023-06-18T06:43:38Z</time>
      </trkpt>
      <trkpt lat="49.42248" lon="5.73586">
        <ele>247.39999389648</ele>
        <time>2023-06-18T06:43:39Z</time>
      </trkpt>
      <trkpt lat="49.42249" lon="5.73586">
        <ele>247.39999389648</ele>
        <time>2023-06-18T06:43:40Z</time>
      </trkpt>
      <trkpt lat="49.42249" lon="5.73586">
        <ele>247.39999389648</ele>
        <time>2023-06-18T06:43:42Z</time>
      </trkpt>
      <trkpt lat="49.42249" lon="5.73586">
        <ele>247.60000610352</ele>
        <time>2023-06-18T06:43:44Z</time>
      </trkpt>
      <trkpt lat="49.42249" lon="5.73586">
        <ele>247.60000610352</ele>
        <time>2023-06-18T06:43:46Z</time>
      </trkpt>
      <trkpt lat="49.42249" lon="5.73586">
        <ele>247.60000610352</ele>
        <time>2023-06-18T06:43:48Z</time>
      </trkpt>
      <trkpt lat="49.42249" lon="5.73586">
        <ele>247.60000610352</ele>
        <time>2023-06-18T06:43:49Z</time>
      </trkpt>
      <trkpt lat="49.42249" lon="5.73586">
        <ele>247.60000610352</ele>
        <time>2023-06-18T06:43:50Z</time>
      </trkpt>
      <trkpt lat="49.42249" lon="5.73586">
        <ele>247.60000610352</ele>
        <time>2023-06-18T06:43:52Z</time>
      </trkpt>
      <trkpt lat="49.42249" lon="5.73586">
        <ele>247.60000610352</ele>
        <time>2023-06-18T06:43:54Z</time>
      </trkpt>
      <trkpt lat="49.42249" lon="5.73586">
        <ele>247.60000610352</ele>
        <time>2023-06-18T06:43:56Z</time>
      </trkpt>
      <trkpt lat="49.42249" lon="5.73586">
        <ele>247.60000610352</ele>
        <time>2023-06-18T06:43:58Z</time>
      </trkpt>
      <trkpt lat="49.42249" lon="5.73586">
        <ele>247.60000610352</ele>
        <time>2023-06-18T06:44:00Z</time>
      </trkpt>
      <trkpt lat="49.42249" lon="5.73586">
        <ele>247.60000610352</ele>
        <time>2023-06-18T06:44:02Z</time>
      </trkpt>
      <trkpt lat="49.42249" lon="5.73586">
        <ele>247.60000610352</ele>
        <time>2023-06-18T06:44:04Z</time>
      </trkpt>
      <trkpt lat="49.42249" lon="5.73586">
        <ele>247.60000610352</ele>
        <time>2023-06-18T06:44:06Z</time>
      </trkpt>
      <trkpt lat="49.42249" lon="5.73586">
        <ele>247.60000610352</ele>
        <time>2023-06-18T06:44:07Z</time>
      </trkpt>
      <trkpt lat="49.42249" lon="5.73586">
        <ele>247.60000610352</ele>
        <time>2023-06-18T06:44:08Z</time>
      </trkpt>
      <trkpt lat="49.42249" lon="5.73586">
        <ele>247.60000610352</ele>
        <time>2023-06-18T06:44:10Z</time>
      </trkpt>
      <trkpt lat="49.42249" lon="5.73586">
        <ele>247.80000305176</ele>
        <time>2023-06-18T06:44:12Z</time>
      </trkpt>
      <trkpt lat="49.42249" lon="5.73586">
        <ele>247.80000305176</ele>
        <time>2023-06-18T06:44:14Z</time>
      </trkpt>
      <trkpt lat="49.42249" lon="5.73586">
        <ele>247.80000305176</ele>
        <time>2023-06-18T06:44:16Z</time>
      </trkpt>
      <trkpt lat="49.42249" lon="5.73587">
        <ele>247.80000305176</ele>
        <time>2023-06-18T06:44:18Z</time>
      </trkpt>
      <trkpt lat="49.42249" lon="5.73587">
        <ele>247.80000305176</ele>
        <time>2023-06-18T06:44:20Z</time>
      </trkpt>
      <trkpt lat="49.4225" lon="5.73587">
        <ele>248</ele>
        <time>2023-06-18T06:44:22Z</time>
      </trkpt>
      <trkpt lat="49.4225" lon="5.73587">
        <ele>248</ele>
        <time>2023-06-18T06:44:24Z</time>
      </trkpt>
      <trkpt lat="49.4225" lon="5.73587">
        <ele>248</ele>
        <time>2023-06-18T06:44:26Z</time>
      </trkpt>
      <trkpt lat="49.4225" lon="5.73587">
        <ele>248</ele>
        <time>2023-06-18T06:44:28Z</time>
      </trkpt>
      <trkpt lat="49.4225" lon="5.73587">
        <ele>248</ele>
        <time>2023-06-18T06:44:30Z</time>
      </trkpt>
      <trkpt lat="49.4225" lon="5.73587">
        <ele>248</ele>
        <time>2023-06-18T06:44:32Z</time>
      </trkpt>
      <trkpt lat="49.4225" lon="5.73587">
        <ele>248</ele>
        <time>2023-06-18T06:44:34Z</time>
      </trkpt>
      <trkpt lat="49.4225" lon="5.73587">
        <ele>248</ele>
        <time>2023-06-18T06:44:36Z</time>
      </trkpt>
      <trkpt lat="49.4225" lon="5.73587">
        <ele>248</ele>
        <time>2023-06-18T06:44:38Z</time>
      </trkpt>
      <trkpt lat="49.4225" lon="5.73587">
        <ele>248</ele>
        <time>2023-06-18T06:44:40Z</time>
      </trkpt>
      <trkpt lat="49.4225" lon="5.73588">
        <ele>248</ele>
        <time>2023-06-18T06:44:42Z</time>
      </trkpt>
      <trkpt lat="49.4225" lon="5.73588">
        <ele>248</ele>
        <time>2023-06-18T06:44:44Z</time>
      </trkpt>
      <trkpt lat="49.4225" lon="5.73588">
        <ele>248</ele>
        <time>2023-06-18T06:44:46Z</time>
      </trkpt>
      <trkpt lat="49.4225" lon="5.73588">
        <ele>248</ele>
        <time>2023-06-18T06:44:48Z</time>
      </trkpt>
      <trkpt lat="49.4225" lon="5.73588">
        <ele>248</ele>
        <time>2023-06-18T06:44:50Z</time>
      </trkpt>
      <trkpt lat="49.4225" lon="5.73588">
        <ele>248</ele>
        <time>2023-06-18T06:44:51Z</time>
      </trkpt>
      <trkpt lat="49.4225" lon="5.73588">
        <ele>248</ele>
        <time>2023-06-18T06:44:52Z</time>
      </trkpt>
      <trkpt lat="49.4225" lon="5.73588">
        <ele>248</ele>
        <time>2023-06-18T06:44:54Z</time>
      </trkpt>
      <trkpt lat="49.4225" lon="5.73588">
        <ele>248</ele>
        <time>2023-06-18T06:44:56Z</time>
      </trkpt>
      <trkpt lat="49.4225" lon="5.73588">
        <ele>248</ele>
        <time>2023-06-18T06:44:58Z</time>
      </trkpt>
      <trkpt lat="49.4225" lon="5.73588">
        <ele>248</ele>
        <time>2023-06-18T06:45:00Z</time>
      </trkpt>
      <trkpt lat="49.42251" lon="5.73588">
        <ele>248</ele>
        <time>2023-06-18T06:45:02Z</time>
      </trkpt>
      <trkpt lat="49.42251" lon="5.73588">
        <ele>247.80000305176</ele>
        <time>2023-06-18T06:45:04Z</time>
      </trkpt>
      <trkpt lat="49.42251" lon="5.73588">
        <ele>247.80000305176</ele>
        <time>2023-06-18T06:45:06Z</time>
      </trkpt>
      <trkpt lat="49.4225" lon="5.73589">
        <ele>247.80000305176</ele>
        <time>2023-06-18T06:45:08Z</time>
      </trkpt>
      <trkpt lat="49.42248" lon="5.73589">
        <ele>247.80000305176</ele>
        <time>2023-06-18T06:45:10Z</time>
      </trkpt>
      <trkpt lat="49.42246" lon="5.73586">
        <ele>247.80000305176</ele>
        <time>2023-06-18T06:45:12Z</time>
      </trkpt>
      <trkpt lat="49.42243" lon="5.73583">
        <ele>247.80000305176</ele>
        <time>2023-06-18T06:45:14Z</time>
      </trkpt>
      <trkpt lat="49.42241" lon="5.7358">
        <ele>247.60000610352</ele>
        <time>2023-06-18T06:45:16Z</time>
      </trkpt>
      <trkpt lat="49.42239" lon="5.73578">
        <ele>247.60000610352</ele>
        <time>2023-06-18T06:45:17Z</time>
      </trkpt>
      <trkpt lat="49.42238" lon="5.73576">
        <ele>247.80000305176</ele>
        <time>2023-06-18T06:45:18Z</time>
      </trkpt>
      <trkpt lat="49.42234" lon="5.7357">
        <ele>247.80000305176</ele>
        <time>2023-06-18T06:45:20Z</time>
      </trkpt>
      <trkpt lat="49.42231" lon="5.73568">
        <ele>247.80000305176</ele>
        <time>2023-06-18T06:45:21Z</time>
      </trkpt>
      <trkpt lat="49.42229" lon="5.73565">
        <ele>247.60000610352</ele>
        <time>2023-06-18T06:45:22Z</time>
      </trkpt>
      <trkpt lat="49.42226" lon="5.73562">
        <ele>247.60000610352</ele>
        <time>2023-06-18T06:45:23Z</time>
      </trkpt>
      <trkpt lat="49.42224" lon="5.73558">
        <ele>247.60000610352</ele>
        <time>2023-06-18T06:45:24Z</time>
      </trkpt>
      <trkpt lat="49.42218" lon="5.73551">
        <ele>247.60000610352</ele>
        <time>2023-06-18T06:45:26Z</time>
      </trkpt>
      <trkpt lat="49.42212" lon="5.73544">
        <ele>247.60000610352</ele>
        <time>2023-06-18T06:45:28Z</time>
      </trkpt>
      <trkpt lat="49.42209" lon="5.7354">
        <ele>247.60000610352</ele>
        <time>2023-06-18T06:45:29Z</time>
      </trkpt>
      <trkpt lat="49.42205" lon="5.73537">
        <ele>247.60000610352</ele>
        <time>2023-06-18T06:45:30Z</time>
      </trkpt>
      <trkpt lat="49.422" lon="5.7353">
        <ele>247.60000610352</ele>
        <time>2023-06-18T06:45:32Z</time>
      </trkpt>
      <trkpt lat="49.42198" lon="5.73527">
        <ele>247.60000610352</ele>
        <time>2023-06-18T06:45:33Z</time>
      </trkpt>
      <trkpt lat="49.42195" lon="5.73523">
        <ele>247.60000610352</ele>
        <time>2023-06-18T06:45:34Z</time>
      </trkpt>
      <trkpt lat="49.42189" lon="5.73513">
        <ele>247.60000610352</ele>
        <time>2023-06-18T06:45:36Z</time>
      </trkpt>
      <trkpt lat="49.42182" lon="5.73505">
        <ele>247.39999389648</ele>
        <time>2023-06-18T06:45:38Z</time>
      </trkpt>
      <trkpt lat="49.42178" lon="5.73501">
        <ele>247.39999389648</ele>
        <time>2023-06-18T06:45:39Z</time>
      </trkpt>
      <trkpt lat="49.42175" lon="5.73496">
        <ele>247.39999389648</ele>
        <time>2023-06-18T06:45:40Z</time>
      </trkpt>
      <trkpt lat="49.42168" lon="5.73486">
        <ele>247.39999389648</ele>
        <time>2023-06-18T06:45:42Z</time>
      </trkpt>
      <trkpt lat="49.42162" lon="5.73475">
        <ele>247.19999694824</ele>
        <time>2023-06-18T06:45:44Z</time>
      </trkpt>
      <trkpt lat="49.42159" lon="5.73469">
        <ele>247.19999694824</ele>
        <time>2023-06-18T06:45:45Z</time>
      </trkpt>
      <trkpt lat="49.42157" lon="5.73464">
        <ele>247</ele>
        <time>2023-06-18T06:45:46Z</time>
      </trkpt>
      <trkpt lat="49.42151" lon="5.73454">
        <ele>247</ele>
        <time>2023-06-18T06:45:48Z</time>
      </trkpt>
      <trkpt lat="49.42145" lon="5.73445">
        <ele>246.80000305176</ele>
        <time>2023-06-18T06:45:50Z</time>
      </trkpt>
      <trkpt lat="49.42139" lon="5.73434">
        <ele>246.80000305176</ele>
        <time>2023-06-18T06:45:52Z</time>
      </trkpt>
      <trkpt lat="49.42132" lon="5.73422">
        <ele>246.60000610352</ele>
        <time>2023-06-18T06:45:54Z</time>
      </trkpt>
      <trkpt lat="49.42127" lon="5.7341">
        <ele>246.60000610352</ele>
        <time>2023-06-18T06:45:56Z</time>
      </trkpt>
      <trkpt lat="49.42121" lon="5.73397">
        <ele>246.39999389648</ele>
        <time>2023-06-18T06:45:58Z</time>
      </trkpt>
      <trkpt lat="49.42118" lon="5.7339">
        <ele>246.19999694824</ele>
        <time>2023-06-18T06:45:59Z</time>
      </trkpt>
      <trkpt lat="49.42114" lon="5.73385">
        <ele>246.19999694824</ele>
        <time>2023-06-18T06:46:00Z</time>
      </trkpt>
      <trkpt lat="49.42109" lon="5.73372">
        <ele>245.60000610352</ele>
        <time>2023-06-18T06:46:02Z</time>
      </trkpt>
      <trkpt lat="49.42102" lon="5.7336">
        <ele>245.39999389648</ele>
        <time>2023-06-18T06:46:04Z</time>
      </trkpt>
      <trkpt lat="49.42095" lon="5.73349">
        <ele>245.19999694824</ele>
        <time>2023-06-18T06:46:06Z</time>
      </trkpt>
      <trkpt lat="49.42092" lon="5.73343">
        <ele>245.19999694824</ele>
        <time>2023-06-18T06:46:07Z</time>
      </trkpt>
      <trkpt lat="49.42088" lon="5.73338">
        <ele>245</ele>
        <time>2023-06-18T06:46:08Z</time>
      </trkpt>
      <trkpt lat="49.42082" lon="5.73326">
        <ele>245</ele>
        <time>2023-06-18T06:46:10Z</time>
      </trkpt>
      <trkpt lat="49.42075" lon="5.73314">
        <ele>244.80000305176</ele>
        <time>2023-06-18T06:46:12Z</time>
      </trkpt>
      <trkpt lat="49.42071" lon="5.73309">
        <ele>244.80000305176</ele>
        <time>2023-06-18T06:46:13Z</time>
      </trkpt>
      <trkpt lat="49.42068" lon="5.73304">
        <ele>244.80000305176</ele>
        <time>2023-06-18T06:46:14Z</time>
      </trkpt>
      <trkpt lat="49.42061" lon="5.73293">
        <ele>244.39999389648</ele>
        <time>2023-06-18T06:46:16Z</time>
      </trkpt>
      <trkpt lat="49.42054" lon="5.73284">
        <ele>244.19999694824</ele>
        <time>2023-06-18T06:46:18Z</time>
      </trkpt>
      <trkpt lat="49.42051" lon="5.7328">
        <ele>243.80000305176</ele>
        <time>2023-06-18T06:46:19Z</time>
      </trkpt>
      <trkpt lat="49.42047" lon="5.73275">
        <ele>243.80000305176</ele>
        <time>2023-06-18T06:46:20Z</time>
      </trkpt>
      <trkpt lat="49.4204" lon="5.73267">
        <ele>243.60000610352</ele>
        <time>2023-06-18T06:46:22Z</time>
      </trkpt>
      <trkpt lat="49.42033" lon="5.73258">
        <ele>243.39999389648</ele>
        <time>2023-06-18T06:46:24Z</time>
      </trkpt>
      <trkpt lat="49.42026" lon="5.73251">
        <ele>243.39999389648</ele>
        <time>2023-06-18T06:46:26Z</time>
      </trkpt>
      <trkpt lat="49.42022" lon="5.73248">
        <ele>243.39999389648</ele>
        <time>2023-06-18T06:46:27Z</time>
      </trkpt>
      <trkpt lat="49.42018" lon="5.73245">
        <ele>243.39999389648</ele>
        <time>2023-06-18T06:46:28Z</time>
      </trkpt>
      <trkpt lat="49.42009" lon="5.7324">
        <ele>243.19999694824</ele>
        <time>2023-06-18T06:46:30Z</time>
      </trkpt>
      <trkpt lat="49.41999" lon="5.73236">
        <ele>243.19999694824</ele>
        <time>2023-06-18T06:46:32Z</time>
      </trkpt>
      <trkpt lat="49.41995" lon="5.73235">
        <ele>243.19999694824</ele>
        <time>2023-06-18T06:46:33Z</time>
      </trkpt>
      <trkpt lat="49.4199" lon="5.73234">
        <ele>243</ele>
        <time>2023-06-18T06:46:34Z</time>
      </trkpt>
      <trkpt lat="49.41985" lon="5.73233">
        <ele>243</ele>
        <time>2023-06-18T06:46:35Z</time>
      </trkpt>
      <trkpt lat="49.4198" lon="5.73233">
        <ele>242.80000305176</ele>
        <time>2023-06-18T06:46:36Z</time>
      </trkpt>
      <trkpt lat="49.4197" lon="5.73231">
        <ele>242.60000610352</ele>
        <time>2023-06-18T06:46:38Z</time>
      </trkpt>
      <trkpt lat="49.41964" lon="5.73231">
        <ele>242.60000610352</ele>
        <time>2023-06-18T06:46:39Z</time>
      </trkpt>
      <trkpt lat="49.41959" lon="5.7323">
        <ele>242.60000610352</ele>
        <time>2023-06-18T06:46:40Z</time>
      </trkpt>
      <trkpt lat="49.41949" lon="5.73228">
        <ele>242.39999389648</ele>
        <time>2023-06-18T06:46:42Z</time>
      </trkpt>
      <trkpt lat="49.41938" lon="5.73227">
        <ele>242.39999389648</ele>
        <time>2023-06-18T06:46:44Z</time>
      </trkpt>
      <trkpt lat="49.41928" lon="5.73228">
        <ele>242.39999389648</ele>
        <time>2023-06-18T06:46:46Z</time>
      </trkpt>
      <trkpt lat="49.41917" lon="5.73227">
        <ele>242.39999389648</ele>
        <time>2023-06-18T06:46:48Z</time>
      </trkpt>
      <trkpt lat="49.41908" lon="5.73226">
        <ele>242.39999389648</ele>
        <time>2023-06-18T06:46:50Z</time>
      </trkpt>
      <trkpt lat="49.41898" lon="5.73224">
        <ele>242.39999389648</ele>
        <time>2023-06-18T06:46:52Z</time>
      </trkpt>
      <trkpt lat="49.41894" lon="5.73222">
        <ele>242.39999389648</ele>
        <time>2023-06-18T06:46:53Z</time>
      </trkpt>
      <trkpt lat="49.41889" lon="5.73221">
        <ele>242.39999389648</ele>
        <time>2023-06-18T06:46:54Z</time>
      </trkpt>
      <trkpt lat="49.41881" lon="5.73218">
        <ele>242.60000610352</ele>
        <time>2023-06-18T06:46:56Z</time>
      </trkpt>
      <trkpt lat="49.41872" lon="5.73215">
        <ele>242.39999389648</ele>
        <time>2023-06-18T06:46:58Z</time>
      </trkpt>
      <trkpt lat="49.41864" lon="5.7321">
        <ele>242.39999389648</ele>
        <time>2023-06-18T06:47:00Z</time>
      </trkpt>
      <trkpt lat="49.4186" lon="5.73209">
        <ele>242.60000610352</ele>
        <time>2023-06-18T06:47:01Z</time>
      </trkpt>
      <trkpt lat="49.41857" lon="5.73207">
        <ele>242.60000610352</ele>
        <time>2023-06-18T06:47:02Z</time>
      </trkpt>
      <trkpt lat="49.4185" lon="5.732">
        <ele>242.80000305176</ele>
        <time>2023-06-18T06:47:04Z</time>
      </trkpt>
      <trkpt lat="49.41847" lon="5.73197">
        <ele>242.80000305176</ele>
        <time>2023-06-18T06:47:05Z</time>
      </trkpt>
      <trkpt lat="49.41844" lon="5.73194">
        <ele>242.80000305176</ele>
        <time>2023-06-18T06:47:06Z</time>
      </trkpt>
      <trkpt lat="49.41838" lon="5.73187">
        <ele>242.80000305176</ele>
        <time>2023-06-18T06:47:08Z</time>
      </trkpt>
      <trkpt lat="49.41832" lon="5.73179">
        <ele>242.80000305176</ele>
        <time>2023-06-18T06:47:10Z</time>
      </trkpt>
      <trkpt lat="49.41826" lon="5.73171">
        <ele>242.80000305176</ele>
        <time>2023-06-18T06:47:12Z</time>
      </trkpt>
      <trkpt lat="49.41823" lon="5.73167">
        <ele>242.80000305176</ele>
        <time>2023-06-18T06:47:13Z</time>
      </trkpt>
      <trkpt lat="49.41819" lon="5.73164">
        <ele>242.80000305176</ele>
        <time>2023-06-18T06:47:14Z</time>
      </trkpt>
      <trkpt lat="49.41812" lon="5.73155">
        <ele>242.80000305176</ele>
        <time>2023-06-18T06:47:16Z</time>
      </trkpt>
      <trkpt lat="49.41805" lon="5.73146">
        <ele>242.60000610352</ele>
        <time>2023-06-18T06:47:18Z</time>
      </trkpt>
      <trkpt lat="49.41798" lon="5.73136">
        <ele>242.60000610352</ele>
        <time>2023-06-18T06:47:20Z</time>
      </trkpt>
      <trkpt lat="49.41791" lon="5.73125">
        <ele>242.60000610352</ele>
        <time>2023-06-18T06:47:22Z</time>
      </trkpt>
      <trkpt lat="49.41784" lon="5.73115">
        <ele>242.60000610352</ele>
        <time>2023-06-18T06:47:24Z</time>
      </trkpt>
      <trkpt lat="49.4178" lon="5.73111">
        <ele>242.60000610352</ele>
        <time>2023-06-18T06:47:25Z</time>
      </trkpt>
      <trkpt lat="49.41776" lon="5.73106">
        <ele>242.60000610352</ele>
        <time>2023-06-18T06:47:26Z</time>
      </trkpt>
      <trkpt lat="49.41768" lon="5.73097">
        <ele>242.60000610352</ele>
        <time>2023-06-18T06:47:28Z</time>
      </trkpt>
      <trkpt lat="49.41761" lon="5.73087">
        <ele>242.60000610352</ele>
        <time>2023-06-18T06:47:30Z</time>
      </trkpt>
      <trkpt lat="49.41753" lon="5.73077">
        <ele>242.60000610352</ele>
        <time>2023-06-18T06:47:32Z</time>
      </trkpt>
      <trkpt lat="49.41745" lon="5.73067">
        <ele>242.39999389648</ele>
        <time>2023-06-18T06:47:34Z</time>
      </trkpt>
      <trkpt lat="49.41737" lon="5.73057">
        <ele>242.39999389648</ele>
        <time>2023-06-18T06:47:36Z</time>
      </trkpt>
      <trkpt lat="49.41729" lon="5.73048">
        <ele>242.39999389648</ele>
        <time>2023-06-18T06:47:38Z</time>
      </trkpt>
      <trkpt lat="49.41725" lon="5.73043">
        <ele>242.39999389648</ele>
        <time>2023-06-18T06:47:39Z</time>
      </trkpt>
      <trkpt lat="49.41721" lon="5.73039">
        <ele>242.39999389648</ele>
        <time>2023-06-18T06:47:40Z</time>
      </trkpt>
      <trkpt lat="49.41715" lon="5.73027">
        <ele>242.19999694824</ele>
        <time>2023-06-18T06:47:42Z</time>
      </trkpt>
      <trkpt lat="49.41708" lon="5.73017">
        <ele>242.19999694824</ele>
        <time>2023-06-18T06:47:44Z</time>
      </trkpt>
      <trkpt lat="49.41705" lon="5.73011">
        <ele>242</ele>
        <time>2023-06-18T06:47:45Z</time>
      </trkpt>
      <trkpt lat="49.41702" lon="5.73006">
        <ele>242</ele>
        <time>2023-06-18T06:47:46Z</time>
      </trkpt>
      <trkpt lat="49.41695" lon="5.72995">
        <ele>242</ele>
        <time>2023-06-18T06:47:48Z</time>
      </trkpt>
      <trkpt lat="49.41688" lon="5.72984">
        <ele>242</ele>
        <time>2023-06-18T06:47:50Z</time>
      </trkpt>
      <trkpt lat="49.41682" lon="5.72973">
        <ele>242</ele>
        <time>2023-06-18T06:47:52Z</time>
      </trkpt>
      <trkpt lat="49.41677" lon="5.72961">
        <ele>242</ele>
        <time>2023-06-18T06:47:54Z</time>
      </trkpt>
      <trkpt lat="49.41672" lon="5.72951">
        <ele>241.80000305176</ele>
        <time>2023-06-18T06:47:56Z</time>
      </trkpt>
      <trkpt lat="49.4167" lon="5.72945">
        <ele>241.80000305176</ele>
        <time>2023-06-18T06:47:57Z</time>
      </trkpt>
      <trkpt lat="49.41669" lon="5.7294">
        <ele>241.80000305176</ele>
        <time>2023-06-18T06:47:58Z</time>
      </trkpt>
      <trkpt lat="49.41671" lon="5.72935">
        <ele>241.80000305176</ele>
        <time>2023-06-18T06:48:00Z</time>
      </trkpt>
      <trkpt lat="49.41674" lon="5.72937">
        <ele>242</ele>
        <time>2023-06-18T06:48:02Z</time>
      </trkpt>
      <trkpt lat="49.41676" lon="5.7294">
        <ele>242</ele>
        <time>2023-06-18T06:48:04Z</time>
      </trkpt>
      <trkpt lat="49.41679" lon="5.72941">
        <ele>242.39999389648</ele>
        <time>2023-06-18T06:48:06Z</time>
      </trkpt>
      <trkpt lat="49.41681" lon="5.72941">
        <ele>242.39999389648</ele>
        <time>2023-06-18T06:48:07Z</time>
      </trkpt>
      <trkpt lat="49.41682" lon="5.72942">
        <ele>242.60000610352</ele>
        <time>2023-06-18T06:48:08Z</time>
      </trkpt>
      <trkpt lat="49.41684" lon="5.72944">
        <ele>242.80000305176</ele>
        <time>2023-06-18T06:48:09Z</time>
      </trkpt>
      <trkpt lat="49.41686" lon="5.72945">
        <ele>243</ele>
        <time>2023-06-18T06:48:10Z</time>
      </trkpt>
      <trkpt lat="49.41688" lon="5.72947">
        <ele>243.60000610352</ele>
        <time>2023-06-18T06:48:12Z</time>
      </trkpt>
      <trkpt lat="49.41689" lon="5.72948">
        <ele>244</ele>
        <time>2023-06-18T06:48:13Z</time>
      </trkpt>
      <trkpt lat="49.41691" lon="5.72948">
        <ele>244.19999694824</ele>
        <time>2023-06-18T06:48:14Z</time>
      </trkpt>
      <trkpt lat="49.41693" lon="5.72948">
        <ele>244.60000610352</ele>
        <time>2023-06-18T06:48:16Z</time>
      </trkpt>
      <trkpt lat="49.41694" lon="5.72946">
        <ele>244.80000305176</ele>
        <time>2023-06-18T06:48:17Z</time>
      </trkpt>
      <trkpt lat="49.41694" lon="5.72944">
        <ele>244.80000305176</ele>
        <time>2023-06-18T06:48:18Z</time>
      </trkpt>
      <trkpt lat="49.41695" lon="5.7294">
        <ele>245</ele>
        <time>2023-06-18T06:48:20Z</time>
      </trkpt>
      <trkpt lat="49.41695" lon="5.72938">
        <ele>245.19999694824</ele>
        <time>2023-06-18T06:48:21Z</time>
      </trkpt>
      <trkpt lat="49.41695" lon="5.72936">
        <ele>245.39999389648</ele>
        <time>2023-06-18T06:48:22Z</time>
      </trkpt>
      <trkpt lat="49.41694" lon="5.72933">
        <ele>245.39999389648</ele>
        <time>2023-06-18T06:48:23Z</time>
      </trkpt>
      <trkpt lat="49.41694" lon="5.72931">
        <ele>245.60000610352</ele>
        <time>2023-06-18T06:48:24Z</time>
      </trkpt>
      <trkpt lat="49.41694" lon="5.72925">
        <ele>246.19999694824</ele>
        <time>2023-06-18T06:48:26Z</time>
      </trkpt>
      <trkpt lat="49.41694" lon="5.7292">
        <ele>246.80000305176</ele>
        <time>2023-06-18T06:48:28Z</time>
      </trkpt>
      <trkpt lat="49.41693" lon="5.72917">
        <ele>247.19999694824</ele>
        <time>2023-06-18T06:48:30Z</time>
      </trkpt>
      <trkpt lat="49.41693" lon="5.72912">
        <ele>248</ele>
        <time>2023-06-18T06:48:32Z</time>
      </trkpt>
      <trkpt lat="49.41692" lon="5.72907">
        <ele>248.39999389648</ele>
        <time>2023-06-18T06:48:34Z</time>
      </trkpt>
      <trkpt lat="49.41692" lon="5.72903">
        <ele>248.80000305176</ele>
        <time>2023-06-18T06:48:36Z</time>
      </trkpt>
      <trkpt lat="49.41692" lon="5.72901">
        <ele>249</ele>
        <time>2023-06-18T06:48:37Z</time>
      </trkpt>
      <trkpt lat="49.41692" lon="5.72899">
        <ele>249.19999694824</ele>
        <time>2023-06-18T06:48:38Z</time>
      </trkpt>
      <trkpt lat="49.41692" lon="5.72895">
        <ele>249.60000610352</ele>
        <time>2023-06-18T06:48:40Z</time>
      </trkpt>
      <trkpt lat="49.4169" lon="5.72891">
        <ele>250</ele>
        <time>2023-06-18T06:48:42Z</time>
      </trkpt>
      <trkpt lat="49.4169" lon="5.72889">
        <ele>250.19999694824</ele>
        <time>2023-06-18T06:48:43Z</time>
      </trkpt>
      <trkpt lat="49.41689" lon="5.72887">
        <ele>250.39999389648</ele>
        <time>2023-06-18T06:48:44Z</time>
      </trkpt>
      <trkpt lat="49.41689" lon="5.72882">
        <ele>251</ele>
        <time>2023-06-18T06:48:46Z</time>
      </trkpt>
      <trkpt lat="49.41688" lon="5.72878">
        <ele>251.39999389648</ele>
        <time>2023-06-18T06:48:48Z</time>
      </trkpt>
      <trkpt lat="49.41687" lon="5.72873">
        <ele>252</ele>
        <time>2023-06-18T06:48:50Z</time>
      </trkpt>
      <trkpt lat="49.41686" lon="5.72869">
        <ele>252.60000610352</ele>
        <time>2023-06-18T06:48:52Z</time>
      </trkpt>
      <trkpt lat="49.41685" lon="5.72865">
        <ele>253.19999694824</ele>
        <time>2023-06-18T06:48:54Z</time>
      </trkpt>
      <trkpt lat="49.41684" lon="5.7286">
        <ele>253.80000305176</ele>
        <time>2023-06-18T06:48:56Z</time>
      </trkpt>
      <trkpt lat="49.41683" lon="5.72853">
        <ele>254.39999389648</ele>
        <time>2023-06-18T06:48:58Z</time>
      </trkpt>
      <trkpt lat="49.41683" lon="5.7285">
        <ele>255</ele>
        <time>2023-06-18T06:48:59Z</time>
      </trkpt>
      <trkpt lat="49.41683" lon="5.72848">
        <ele>255.39999389648</ele>
        <time>2023-06-18T06:49:00Z</time>
      </trkpt>
      <trkpt lat="49.41683" lon="5.72843">
        <ele>256</ele>
        <time>2023-06-18T06:49:02Z</time>
      </trkpt>
      <trkpt lat="49.41682" lon="5.72838">
        <ele>256.60000610352</ele>
        <time>2023-06-18T06:49:04Z</time>
      </trkpt>
      <trkpt lat="49.4168" lon="5.72833">
        <ele>257.20001220703</ele>
        <time>2023-06-18T06:49:06Z</time>
      </trkpt>
      <trkpt lat="49.4168" lon="5.7283">
        <ele>257.60000610352</ele>
        <time>2023-06-18T06:49:07Z</time>
      </trkpt>
      <trkpt lat="49.41679" lon="5.72827">
        <ele>258</ele>
        <time>2023-06-18T06:49:08Z</time>
      </trkpt>
      <trkpt lat="49.41678" lon="5.72825">
        <ele>258.39999389648</ele>
        <time>2023-06-18T06:49:09Z</time>
      </trkpt>
      <trkpt lat="49.41678" lon="5.72822">
        <ele>259</ele>
        <time>2023-06-18T06:49:10Z</time>
      </trkpt>
      <trkpt lat="49.41678" lon="5.7282">
        <ele>259.39999389648</ele>
        <time>2023-06-18T06:49:11Z</time>
      </trkpt>
      <trkpt lat="49.41678" lon="5.72818">
        <ele>259.79998779297</ele>
        <time>2023-06-18T06:49:12Z</time>
      </trkpt>
      <trkpt lat="49.41678" lon="5.72816">
        <ele>260.20001220703</ele>
        <time>2023-06-18T06:49:13Z</time>
      </trkpt>
      <trkpt lat="49.41677" lon="5.72813">
        <ele>260.39999389648</ele>
        <time>2023-06-18T06:49:14Z</time>
      </trkpt>
      <trkpt lat="49.41678" lon="5.72805">
        <ele>261.20001220703</ele>
        <time>2023-06-18T06:49:16Z</time>
      </trkpt>
      <trkpt lat="49.41678" lon="5.72802">
        <ele>261.60000610352</ele>
        <time>2023-06-18T06:49:17Z</time>
      </trkpt>
      <trkpt lat="49.41678" lon="5.72799">
        <ele>261.79998779297</ele>
        <time>2023-06-18T06:49:18Z</time>
      </trkpt>
      <trkpt lat="49.41678" lon="5.72797">
        <ele>262</ele>
        <time>2023-06-18T06:49:19Z</time>
      </trkpt>
      <trkpt lat="49.41678" lon="5.72794">
        <ele>262.39999389648</ele>
        <time>2023-06-18T06:49:20Z</time>
      </trkpt>
      <trkpt lat="49.41678" lon="5.72791">
        <ele>262.60000610352</ele>
        <time>2023-06-18T06:49:21Z</time>
      </trkpt>
      <trkpt lat="49.41678" lon="5.72787">
        <ele>263</ele>
        <time>2023-06-18T06:49:22Z</time>
      </trkpt>
      <trkpt lat="49.41677" lon="5.72781">
        <ele>263.60000610352</ele>
        <time>2023-06-18T06:49:24Z</time>
      </trkpt>
      <trkpt lat="49.41677" lon="5.72779">
        <ele>264</ele>
        <time>2023-06-18T06:49:25Z</time>
      </trkpt>
      <trkpt lat="49.41676" lon="5.72776">
        <ele>264.39999389648</ele>
        <time>2023-06-18T06:49:26Z</time>
      </trkpt>
      <trkpt lat="49.41677" lon="5.72773">
        <ele>265</ele>
        <time>2023-06-18T06:49:27Z</time>
      </trkpt>
      <trkpt lat="49.41676" lon="5.72769">
        <ele>265.39999389648</ele>
        <time>2023-06-18T06:49:28Z</time>
      </trkpt>
      <trkpt lat="49.41676" lon="5.72764">
        <ele>266.20001220703</ele>
        <time>2023-06-18T06:49:30Z</time>
      </trkpt>
      <trkpt lat="49.41676" lon="5.72762">
        <ele>266.60000610352</ele>
        <time>2023-06-18T06:49:31Z</time>
      </trkpt>
      <trkpt lat="49.41676" lon="5.72759">
        <ele>266.79998779297</ele>
        <time>2023-06-18T06:49:32Z</time>
      </trkpt>
      <trkpt lat="49.41677" lon="5.72755">
        <ele>267.20001220703</ele>
        <time>2023-06-18T06:49:34Z</time>
      </trkpt>
      <trkpt lat="49.41677" lon="5.7275">
        <ele>267.79998779297</ele>
        <time>2023-06-18T06:49:36Z</time>
      </trkpt>
      <trkpt lat="49.41678" lon="5.72745">
        <ele>268.20001220703</ele>
        <time>2023-06-18T06:49:38Z</time>
      </trkpt>
      <trkpt lat="49.41678" lon="5.72742">
        <ele>269</ele>
        <time>2023-06-18T06:49:40Z</time>
      </trkpt>
      <trkpt lat="49.41679" lon="5.72738">
        <ele>269.60000610352</ele>
        <time>2023-06-18T06:49:42Z</time>
      </trkpt>
      <trkpt lat="49.41679" lon="5.72735">
        <ele>270</ele>
        <time>2023-06-18T06:49:43Z</time>
      </trkpt>
      <trkpt lat="49.41679" lon="5.72733">
        <ele>270.39999389648</ele>
        <time>2023-06-18T06:49:44Z</time>
      </trkpt>
      <trkpt lat="49.4168" lon="5.72729">
        <ele>271</ele>
        <time>2023-06-18T06:49:46Z</time>
      </trkpt>
      <trkpt lat="49.41681" lon="5.72726">
        <ele>271.39999389648</ele>
        <time>2023-06-18T06:49:47Z</time>
      </trkpt>
      <trkpt lat="49.41681" lon="5.72724">
        <ele>271.79998779297</ele>
        <time>2023-06-18T06:49:48Z</time>
      </trkpt>
      <trkpt lat="49.41682" lon="5.72719">
        <ele>272.20001220703</ele>
        <time>2023-06-18T06:49:50Z</time>
      </trkpt>
      <trkpt lat="49.41682" lon="5.72717">
        <ele>272.60000610352</ele>
        <time>2023-06-18T06:49:51Z</time>
      </trkpt>
      <trkpt lat="49.41683" lon="5.72714">
        <ele>272.79998779297</ele>
        <time>2023-06-18T06:49:52Z</time>
      </trkpt>
      <trkpt lat="49.41683" lon="5.72709">
        <ele>273.39999389648</ele>
        <time>2023-06-18T06:49:54Z</time>
      </trkpt>
      <trkpt lat="49.41684" lon="5.72707">
        <ele>273.79998779297</ele>
        <time>2023-06-18T06:49:55Z</time>
      </trkpt>
      <trkpt lat="49.41684" lon="5.72706">
        <ele>274.20001220703</ele>
        <time>2023-06-18T06:49:56Z</time>
      </trkpt>
      <trkpt lat="49.41684" lon="5.72702">
        <ele>274.60000610352</ele>
        <time>2023-06-18T06:49:58Z</time>
      </trkpt>
      <trkpt lat="49.41684" lon="5.72697">
        <ele>275</ele>
        <time>2023-06-18T06:50:00Z</time>
      </trkpt>
      <trkpt lat="49.41684" lon="5.72696">
        <ele>275.20001220703</ele>
        <time>2023-06-18T06:50:01Z</time>
      </trkpt>
      <trkpt lat="49.41685" lon="5.72692">
        <ele>275.39999389648</ele>
        <time>2023-06-18T06:50:02Z</time>
      </trkpt>
      <trkpt lat="49.41686" lon="5.72688">
        <ele>275.79998779297</ele>
        <time>2023-06-18T06:50:04Z</time>
      </trkpt>
      <trkpt lat="49.41688" lon="5.72682">
        <ele>276.20001220703</ele>
        <time>2023-06-18T06:50:06Z</time>
      </trkpt>
      <trkpt lat="49.41688" lon="5.72679">
        <ele>276.20001220703</ele>
        <time>2023-06-18T06:50:07Z</time>
      </trkpt>
      <trkpt lat="49.41689" lon="5.72676">
        <ele>276.39999389648</ele>
        <time>2023-06-18T06:50:08Z</time>
      </trkpt>
      <trkpt lat="49.4169" lon="5.7267">
        <ele>276.79998779297</ele>
        <time>2023-06-18T06:50:10Z</time>
      </trkpt>
      <trkpt lat="49.4169" lon="5.72663">
        <ele>277</ele>
        <time>2023-06-18T06:50:12Z</time>
      </trkpt>
      <trkpt lat="49.4169" lon="5.7266">
        <ele>277.20001220703</ele>
        <time>2023-06-18T06:50:13Z</time>
      </trkpt>
      <trkpt lat="49.4169" lon="5.72657">
        <ele>277.39999389648</ele>
        <time>2023-06-18T06:50:14Z</time>
      </trkpt>
      <trkpt lat="49.4169" lon="5.72651">
        <ele>278</ele>
        <time>2023-06-18T06:50:16Z</time>
      </trkpt>
      <trkpt lat="49.4169" lon="5.72648">
        <ele>278.20001220703</ele>
        <time>2023-06-18T06:50:17Z</time>
      </trkpt>
      <trkpt lat="49.4169" lon="5.72645">
        <ele>278.20001220703</ele>
        <time>2023-06-18T06:50:18Z</time>
      </trkpt>
      <trkpt lat="49.4169" lon="5.72643">
        <ele>278.39999389648</ele>
        <time>2023-06-18T06:50:19Z</time>
      </trkpt>
      <trkpt lat="49.41691" lon="5.72641">
        <ele>278.60000610352</ele>
        <time>2023-06-18T06:50:20Z</time>
      </trkpt>
      <trkpt lat="49.4169" lon="5.72631">
        <ele>279</ele>
        <time>2023-06-18T06:50:22Z</time>
      </trkpt>
      <trkpt lat="49.41691" lon="5.72626">
        <ele>279.60000610352</ele>
        <time>2023-06-18T06:50:24Z</time>
      </trkpt>
      <trkpt lat="49.41691" lon="5.72619">
        <ele>280</ele>
        <time>2023-06-18T06:50:26Z</time>
      </trkpt>
      <trkpt lat="49.41692" lon="5.72613">
        <ele>280.39999389648</ele>
        <time>2023-06-18T06:50:28Z</time>
      </trkpt>
      <trkpt lat="49.41692" lon="5.72609">
        <ele>280.60000610352</ele>
        <time>2023-06-18T06:50:29Z</time>
      </trkpt>
      <trkpt lat="49.41692" lon="5.72606">
        <ele>280.60000610352</ele>
        <time>2023-06-18T06:50:30Z</time>
      </trkpt>
      <trkpt lat="49.41693" lon="5.72602">
        <ele>280.79998779297</ele>
        <time>2023-06-18T06:50:31Z</time>
      </trkpt>
      <trkpt lat="49.41694" lon="5.72598">
        <ele>280.79998779297</ele>
        <time>2023-06-18T06:50:32Z</time>
      </trkpt>
      <trkpt lat="49.41696" lon="5.72592">
        <ele>281.20001220703</ele>
        <time>2023-06-18T06:50:34Z</time>
      </trkpt>
      <trkpt lat="49.41696" lon="5.72585">
        <ele>281.39999389648</ele>
        <time>2023-06-18T06:50:36Z</time>
      </trkpt>
      <trkpt lat="49.41697" lon="5.72581">
        <ele>281.60000610352</ele>
        <time>2023-06-18T06:50:37Z</time>
      </trkpt>
      <trkpt lat="49.41697" lon="5.72576">
        <ele>281.79998779297</ele>
        <time>2023-06-18T06:50:38Z</time>
      </trkpt>
      <trkpt lat="49.41697" lon="5.72569">
        <ele>282</ele>
        <time>2023-06-18T06:50:40Z</time>
      </trkpt>
      <trkpt lat="49.41698" lon="5.72567">
        <ele>282</ele>
        <time>2023-06-18T06:50:41Z</time>
      </trkpt>
      <trkpt lat="49.41699" lon="5.72563">
        <ele>282.20001220703</ele>
        <time>2023-06-18T06:50:42Z</time>
      </trkpt>
      <trkpt lat="49.41701" lon="5.72557">
        <ele>282.79998779297</ele>
        <time>2023-06-18T06:50:44Z</time>
      </trkpt>
      <trkpt lat="49.41702" lon="5.7255">
        <ele>283.20001220703</ele>
        <time>2023-06-18T06:50:46Z</time>
      </trkpt>
      <trkpt lat="49.41703" lon="5.72544">
        <ele>283.60000610352</ele>
        <time>2023-06-18T06:50:48Z</time>
      </trkpt>
      <trkpt lat="49.41704" lon="5.72541">
        <ele>284</ele>
        <time>2023-06-18T06:50:49Z</time>
      </trkpt>
      <trkpt lat="49.41705" lon="5.72537">
        <ele>284.39999389648</ele>
        <time>2023-06-18T06:50:50Z</time>
      </trkpt>
      <trkpt lat="49.41706" lon="5.7253">
        <ele>285</ele>
        <time>2023-06-18T06:50:52Z</time>
      </trkpt>
      <trkpt lat="49.41707" lon="5.72528">
        <ele>285.20001220703</ele>
        <time>2023-06-18T06:50:53Z</time>
      </trkpt>
      <trkpt lat="49.41708" lon="5.72524">
        <ele>285.39999389648</ele>
        <time>2023-06-18T06:50:54Z</time>
      </trkpt>
      <trkpt lat="49.41709" lon="5.72518">
        <ele>286.20001220703</ele>
        <time>2023-06-18T06:50:56Z</time>
      </trkpt>
      <trkpt lat="49.41709" lon="5.72516">
        <ele>286.39999389648</ele>
        <time>2023-06-18T06:50:57Z</time>
      </trkpt>
      <trkpt lat="49.4171" lon="5.72514">
        <ele>286.79998779297</ele>
        <time>2023-06-18T06:50:58Z</time>
      </trkpt>
      <trkpt lat="49.4171" lon="5.72509">
        <ele>287.39999389648</ele>
        <time>2023-06-18T06:51:00Z</time>
      </trkpt>
      <trkpt lat="49.41711" lon="5.72504">
        <ele>288.20001220703</ele>
        <time>2023-06-18T06:51:02Z</time>
      </trkpt>
      <trkpt lat="49.41711" lon="5.725">
        <ele>288.79998779297</ele>
        <time>2023-06-18T06:51:04Z</time>
      </trkpt>
      <trkpt lat="49.41711" lon="5.72497">
        <ele>289.39999389648</ele>
        <time>2023-06-18T06:51:06Z</time>
      </trkpt>
      <trkpt lat="49.4171" lon="5.72495">
        <ele>290</ele>
        <time>2023-06-18T06:51:07Z</time>
      </trkpt>
      <trkpt lat="49.41709" lon="5.72495">
        <ele>290.39999389648</ele>
        <time>2023-06-18T06:51:08Z</time>
      </trkpt>
      <trkpt lat="49.41707" lon="5.72495">
        <ele>290.60000610352</ele>
        <time>2023-06-18T06:51:09Z</time>
      </trkpt>
      <trkpt lat="49.41704" lon="5.72496">
        <ele>290.60000610352</ele>
        <time>2023-06-18T06:51:10Z</time>
      </trkpt>
      <trkpt lat="49.41694" lon="5.72503">
        <ele>290.60000610352</ele>
        <time>2023-06-18T06:51:12Z</time>
      </trkpt>
      <trkpt lat="49.4169" lon="5.72508">
        <ele>290.60000610352</ele>
        <time>2023-06-18T06:51:13Z</time>
      </trkpt>
      <trkpt lat="49.41686" lon="5.7251">
        <ele>290.60000610352</ele>
        <time>2023-06-18T06:51:14Z</time>
      </trkpt>
      <trkpt lat="49.41681" lon="5.72507">
        <ele>290.60000610352</ele>
        <time>2023-06-18T06:51:16Z</time>
      </trkpt>
      <trkpt lat="49.41678" lon="5.725">
        <ele>287.60000610352</ele>
        <time>2023-06-18T06:51:18Z</time>
      </trkpt>
      <trkpt lat="49.41677" lon="5.72495">
        <ele>286</ele>
        <time>2023-06-18T06:51:19Z</time>
      </trkpt>
      <trkpt lat="49.41676" lon="5.7249">
        <ele>283.79998779297</ele>
        <time>2023-06-18T06:51:20Z</time>
      </trkpt>
      <trkpt lat="49.41676" lon="5.72485">
        <ele>282.20001220703</ele>
        <time>2023-06-18T06:51:21Z</time>
      </trkpt>
      <trkpt lat="49.41675" lon="5.72479">
        <ele>281.20001220703</ele>
        <time>2023-06-18T06:51:22Z</time>
      </trkpt>
      <trkpt lat="49.41672" lon="5.72469">
        <ele>280.39999389648</ele>
        <time>2023-06-18T06:51:24Z</time>
      </trkpt>
      <trkpt lat="49.4167" lon="5.72464">
        <ele>280</ele>
        <time>2023-06-18T06:51:25Z</time>
      </trkpt>
      <trkpt lat="49.41669" lon="5.72459">
        <ele>279.79998779297</ele>
        <time>2023-06-18T06:51:26Z</time>
      </trkpt>
      <trkpt lat="49.41664" lon="5.7245">
        <ele>279.60000610352</ele>
        <time>2023-06-18T06:51:28Z</time>
      </trkpt>
      <trkpt lat="49.4166" lon="5.72439">
        <ele>279.39999389648</ele>
        <time>2023-06-18T06:51:30Z</time>
      </trkpt>
      <trkpt lat="49.41657" lon="5.72429">
        <ele>279.20001220703</ele>
        <time>2023-06-18T06:51:32Z</time>
      </trkpt>
      <trkpt lat="49.41655" lon="5.72424">
        <ele>279.20001220703</ele>
        <time>2023-06-18T06:51:33Z</time>
      </trkpt>
      <trkpt lat="49.41653" lon="5.72418">
        <ele>279.20001220703</ele>
        <time>2023-06-18T06:51:34Z</time>
      </trkpt>
      <trkpt lat="49.4165" lon="5.72406">
        <ele>279.20001220703</ele>
        <time>2023-06-18T06:51:36Z</time>
      </trkpt>
      <trkpt lat="49.41646" lon="5.72394">
        <ele>279</ele>
        <time>2023-06-18T06:51:38Z</time>
      </trkpt>
      <trkpt lat="49.41644" lon="5.72389">
        <ele>279</ele>
        <time>2023-06-18T06:51:39Z</time>
      </trkpt>
      <trkpt lat="49.41642" lon="5.72383">
        <ele>279</ele>
        <time>2023-06-18T06:51:40Z</time>
      </trkpt>
      <trkpt lat="49.4164" lon="5.72378">
        <ele>279</ele>
        <time>2023-06-18T06:51:41Z</time>
      </trkpt>
      <trkpt lat="49.41639" lon="5.72373">
        <ele>278.79998779297</ele>
        <time>2023-06-18T06:51:42Z</time>
      </trkpt>
      <trkpt lat="49.41635" lon="5.72364">
        <ele>279</ele>
        <time>2023-06-18T06:51:44Z</time>
      </trkpt>
      <trkpt lat="49.41634" lon="5.72359">
        <ele>279</ele>
        <time>2023-06-18T06:51:45Z</time>
      </trkpt>
      <trkpt lat="49.41631" lon="5.72354">
        <ele>279</ele>
        <time>2023-06-18T06:51:46Z</time>
      </trkpt>
      <trkpt lat="49.41627" lon="5.72345">
        <ele>279</ele>
        <time>2023-06-18T06:51:48Z</time>
      </trkpt>
      <trkpt lat="49.41622" lon="5.72336">
        <ele>279.20001220703</ele>
        <time>2023-06-18T06:51:50Z</time>
      </trkpt>
      <trkpt lat="49.4162" lon="5.72331">
        <ele>279.20001220703</ele>
        <time>2023-06-18T06:51:51Z</time>
      </trkpt>
      <trkpt lat="49.41619" lon="5.72326">
        <ele>279.39999389648</ele>
        <time>2023-06-18T06:51:52Z</time>
      </trkpt>
      <trkpt lat="49.41616" lon="5.72319">
        <ele>279.60000610352</ele>
        <time>2023-06-18T06:51:54Z</time>
      </trkpt>
      <trkpt lat="49.41613" lon="5.72312">
        <ele>280.20001220703</ele>
        <time>2023-06-18T06:51:56Z</time>
      </trkpt>
      <trkpt lat="49.41611" lon="5.72309">
        <ele>280.39999389648</ele>
        <time>2023-06-18T06:51:57Z</time>
      </trkpt>
      <trkpt lat="49.4161" lon="5.72305">
        <ele>280.60000610352</ele>
        <time>2023-06-18T06:51:58Z</time>
      </trkpt>
      <trkpt lat="49.41608" lon="5.723">
        <ele>281</ele>
        <time>2023-06-18T06:52:00Z</time>
      </trkpt>
      <trkpt lat="49.41604" lon="5.72296">
        <ele>281.20001220703</ele>
        <time>2023-06-18T06:52:02Z</time>
      </trkpt>
      <trkpt lat="49.41602" lon="5.72294">
        <ele>281.20001220703</ele>
        <time>2023-06-18T06:52:03Z</time>
      </trkpt>
      <trkpt lat="49.41601" lon="5.72291">
        <ele>281.39999389648</ele>
        <time>2023-06-18T06:52:04Z</time>
      </trkpt>
      <trkpt lat="49.41598" lon="5.72287">
        <ele>281.60000610352</ele>
        <time>2023-06-18T06:52:06Z</time>
      </trkpt>
      <trkpt lat="49.41596" lon="5.72281">
        <ele>282.20001220703</ele>
        <time>2023-06-18T06:52:08Z</time>
      </trkpt>
      <trkpt lat="49.41595" lon="5.72278">
        <ele>282.39999389648</ele>
        <time>2023-06-18T06:52:09Z</time>
      </trkpt>
      <trkpt lat="49.41594" lon="5.72275">
        <ele>282.60000610352</ele>
        <time>2023-06-18T06:52:10Z</time>
      </trkpt>
      <trkpt lat="49.4159" lon="5.72269">
        <ele>283</ele>
        <time>2023-06-18T06:52:12Z</time>
      </trkpt>
      <trkpt lat="49.41587" lon="5.72266">
        <ele>283.39999389648</ele>
        <time>2023-06-18T06:52:13Z</time>
      </trkpt>
      <trkpt lat="49.41584" lon="5.72262">
        <ele>284</ele>
        <time>2023-06-18T06:52:14Z</time>
      </trkpt>
      <trkpt lat="49.41581" lon="5.72255">
        <ele>284.60000610352</ele>
        <time>2023-06-18T06:52:16Z</time>
      </trkpt>
      <trkpt lat="49.41579" lon="5.7225">
        <ele>285.20001220703</ele>
        <time>2023-06-18T06:52:18Z</time>
      </trkpt>
      <trkpt lat="49.41577" lon="5.72245">
        <ele>285.79998779297</ele>
        <time>2023-06-18T06:52:20Z</time>
      </trkpt>
      <trkpt lat="49.41575" lon="5.72239">
        <ele>286</ele>
        <time>2023-06-18T06:52:22Z</time>
      </trkpt>
      <trkpt lat="49.41573" lon="5.72233">
        <ele>286.39999389648</ele>
        <time>2023-06-18T06:52:24Z</time>
      </trkpt>
      <trkpt lat="49.41571" lon="5.72225">
        <ele>286.60000610352</ele>
        <time>2023-06-18T06:52:26Z</time>
      </trkpt>
      <trkpt lat="49.4157" lon="5.72221">
        <ele>286.79998779297</ele>
        <time>2023-06-18T06:52:27Z</time>
      </trkpt>
      <trkpt lat="49.41569" lon="5.72219">
        <ele>287</ele>
        <time>2023-06-18T06:52:28Z</time>
      </trkpt>
      <trkpt lat="49.41568" lon="5.72213">
        <ele>287.39999389648</ele>
        <time>2023-06-18T06:52:30Z</time>
      </trkpt>
      <trkpt lat="49.41566" lon="5.72205">
        <ele>287.39999389648</ele>
        <time>2023-06-18T06:52:32Z</time>
      </trkpt>
      <trkpt lat="49.41565" lon="5.72198">
        <ele>287.60000610352</ele>
        <time>2023-06-18T06:52:34Z</time>
      </trkpt>
      <trkpt lat="49.41564" lon="5.72191">
        <ele>287.79998779297</ele>
        <time>2023-06-18T06:52:36Z</time>
      </trkpt>
      <trkpt lat="49.41562" lon="5.72184">
        <ele>287.79998779297</ele>
        <time>2023-06-18T06:52:38Z</time>
      </trkpt>
      <trkpt lat="49.4156" lon="5.72176">
        <ele>288</ele>
        <time>2023-06-18T06:52:40Z</time>
      </trkpt>
      <trkpt lat="49.41557" lon="5.72168">
        <ele>288</ele>
        <time>2023-06-18T06:52:42Z</time>
      </trkpt>
      <trkpt lat="49.41553" lon="5.72158">
        <ele>288</ele>
        <time>2023-06-18T06:52:44Z</time>
      </trkpt>
      <trkpt lat="49.4155" lon="5.7215">
        <ele>287.79998779297</ele>
        <time>2023-06-18T06:52:46Z</time>
      </trkpt>
      <trkpt lat="49.41546" lon="5.72139">
        <ele>287.39999389648</ele>
        <time>2023-06-18T06:52:48Z</time>
      </trkpt>
      <trkpt lat="49.41544" lon="5.72133">
        <ele>287.20001220703</ele>
        <time>2023-06-18T06:52:49Z</time>
      </trkpt>
      <trkpt lat="49.41542" lon="5.72128">
        <ele>287</ele>
        <time>2023-06-18T06:52:50Z</time>
      </trkpt>
      <trkpt lat="49.41537" lon="5.72117">
        <ele>286.79998779297</ele>
        <time>2023-06-18T06:52:52Z</time>
      </trkpt>
      <trkpt lat="49.41532" lon="5.72105">
        <ele>286.39999389648</ele>
        <time>2023-06-18T06:52:54Z</time>
      </trkpt>
      <trkpt lat="49.41527" lon="5.72094">
        <ele>286</ele>
        <time>2023-06-18T06:52:56Z</time>
      </trkpt>
      <trkpt lat="49.41525" lon="5.72089">
        <ele>285.79998779297</ele>
        <time>2023-06-18T06:52:57Z</time>
      </trkpt>
      <trkpt lat="49.41523" lon="5.72083">
        <ele>285.60000610352</ele>
        <time>2023-06-18T06:52:58Z</time>
      </trkpt>
      <trkpt lat="49.41519" lon="5.72073">
        <ele>285.20001220703</ele>
        <time>2023-06-18T06:53:00Z</time>
      </trkpt>
      <trkpt lat="49.41517" lon="5.72068">
        <ele>285</ele>
        <time>2023-06-18T06:53:01Z</time>
      </trkpt>
      <trkpt lat="49.41515" lon="5.72063">
        <ele>284.79998779297</ele>
        <time>2023-06-18T06:53:02Z</time>
      </trkpt>
      <trkpt lat="49.41512" lon="5.72057">
        <ele>284.60000610352</ele>
        <time>2023-06-18T06:53:03Z</time>
      </trkpt>
      <trkpt lat="49.4151" lon="5.72052">
        <ele>284.60000610352</ele>
        <time>2023-06-18T06:53:04Z</time>
      </trkpt>
      <trkpt lat="49.41504" lon="5.72038">
        <ele>284.20001220703</ele>
        <time>2023-06-18T06:53:06Z</time>
      </trkpt>
      <trkpt lat="49.41499" lon="5.72027">
        <ele>284</ele>
        <time>2023-06-18T06:53:08Z</time>
      </trkpt>
      <trkpt lat="49.41497" lon="5.72021">
        <ele>283.39999389648</ele>
        <time>2023-06-18T06:53:09Z</time>
      </trkpt>
      <trkpt lat="49.41494" lon="5.72015">
        <ele>283.20001220703</ele>
        <time>2023-06-18T06:53:10Z</time>
      </trkpt>
      <trkpt lat="49.41489" lon="5.72004">
        <ele>282.79998779297</ele>
        <time>2023-06-18T06:53:12Z</time>
      </trkpt>
      <trkpt lat="49.41486" lon="5.71998">
        <ele>282.60000610352</ele>
        <time>2023-06-18T06:53:13Z</time>
      </trkpt>
      <trkpt lat="49.41483" lon="5.71991">
        <ele>282.60000610352</ele>
        <time>2023-06-18T06:53:14Z</time>
      </trkpt>
      <trkpt lat="49.41481" lon="5.71985">
        <ele>282.39999389648</ele>
        <time>2023-06-18T06:53:15Z</time>
      </trkpt>
      <trkpt lat="49.41478" lon="5.71978">
        <ele>282.20001220703</ele>
        <time>2023-06-18T06:53:16Z</time>
      </trkpt>
      <trkpt lat="49.41473" lon="5.71965">
        <ele>281.79998779297</ele>
        <time>2023-06-18T06:53:18Z</time>
      </trkpt>
      <trkpt lat="49.41466" lon="5.71951">
        <ele>281.60000610352</ele>
        <time>2023-06-18T06:53:20Z</time>
      </trkpt>
      <trkpt lat="49.41463" lon="5.71944">
        <ele>281.20001220703</ele>
        <time>2023-06-18T06:53:21Z</time>
      </trkpt>
      <trkpt lat="49.41459" lon="5.71937">
        <ele>281</ele>
        <time>2023-06-18T06:53:22Z</time>
      </trkpt>
      <trkpt lat="49.41452" lon="5.71923">
        <ele>280.39999389648</ele>
        <time>2023-06-18T06:53:24Z</time>
      </trkpt>
      <trkpt lat="49.41449" lon="5.71915">
        <ele>280</ele>
        <time>2023-06-18T06:53:25Z</time>
      </trkpt>
      <trkpt lat="49.41446" lon="5.71908">
        <ele>279.79998779297</ele>
        <time>2023-06-18T06:53:26Z</time>
      </trkpt>
      <trkpt lat="49.4144" lon="5.71893">
        <ele>279.20001220703</ele>
        <time>2023-06-18T06:53:28Z</time>
      </trkpt>
      <trkpt lat="49.41436" lon="5.71885">
        <ele>279</ele>
        <time>2023-06-18T06:53:29Z</time>
      </trkpt>
      <trkpt lat="49.41434" lon="5.71879">
        <ele>278.79998779297</ele>
        <time>2023-06-18T06:53:30Z</time>
      </trkpt>
      <trkpt lat="49.4143" lon="5.71868">
        <ele>278.60000610352</ele>
        <time>2023-06-18T06:53:32Z</time>
      </trkpt>
      <trkpt lat="49.41428" lon="5.71864">
        <ele>278.60000610352</ele>
        <time>2023-06-18T06:53:33Z</time>
      </trkpt>
      <trkpt lat="49.41425" lon="5.7186">
        <ele>278.39999389648</ele>
        <time>2023-06-18T06:53:34Z</time>
      </trkpt>
      <trkpt lat="49.41421" lon="5.71851">
        <ele>278.39999389648</ele>
        <time>2023-06-18T06:53:36Z</time>
      </trkpt>
      <trkpt lat="49.41417" lon="5.71842">
        <ele>278.20001220703</ele>
        <time>2023-06-18T06:53:38Z</time>
      </trkpt>
      <trkpt lat="49.41415" lon="5.71837">
        <ele>278.20001220703</ele>
        <time>2023-06-18T06:53:39Z</time>
      </trkpt>
      <trkpt lat="49.41413" lon="5.71832">
        <ele>278.20001220703</ele>
        <time>2023-06-18T06:53:40Z</time>
      </trkpt>
      <trkpt lat="49.41409" lon="5.71822">
        <ele>278.39999389648</ele>
        <time>2023-06-18T06:53:42Z</time>
      </trkpt>
      <trkpt lat="49.41408" lon="5.71813">
        <ele>278.39999389648</ele>
        <time>2023-06-18T06:53:44Z</time>
      </trkpt>
      <trkpt lat="49.41409" lon="5.71809">
        <ele>278.60000610352</ele>
        <time>2023-06-18T06:53:45Z</time>
      </trkpt>
      <trkpt lat="49.4141" lon="5.71806">
        <ele>278.60000610352</ele>
        <time>2023-06-18T06:53:46Z</time>
      </trkpt>
      <trkpt lat="49.41411" lon="5.71806">
        <ele>278.60000610352</ele>
        <time>2023-06-18T06:53:48Z</time>
      </trkpt>
      <trkpt lat="49.41412" lon="5.71806">
        <ele>278.60000610352</ele>
        <time>2023-06-18T06:53:49Z</time>
      </trkpt>
      <trkpt lat="49.41413" lon="5.71806">
        <ele>278.79998779297</ele>
        <time>2023-06-18T06:53:50Z</time>
      </trkpt>
      <trkpt lat="49.41414" lon="5.71808">
        <ele>278.79998779297</ele>
        <time>2023-06-18T06:53:52Z</time>
      </trkpt>
      <trkpt lat="49.41416" lon="5.71811">
        <ele>279.20001220703</ele>
        <time>2023-06-18T06:53:54Z</time>
      </trkpt>
      <trkpt lat="49.41419" lon="5.71814">
        <ele>279.39999389648</ele>
        <time>2023-06-18T06:53:56Z</time>
      </trkpt>
      <trkpt lat="49.41422" lon="5.71817">
        <ele>279.60000610352</ele>
        <time>2023-06-18T06:53:58Z</time>
      </trkpt>
      <trkpt lat="49.41424" lon="5.71819">
        <ele>279.60000610352</ele>
        <time>2023-06-18T06:53:59Z</time>
      </trkpt>
      <trkpt lat="49.41426" lon="5.7182">
        <ele>279.60000610352</ele>
        <time>2023-06-18T06:54:00Z</time>
      </trkpt>
      <trkpt lat="49.4143" lon="5.71823">
        <ele>279.60000610352</ele>
        <time>2023-06-18T06:54:02Z</time>
      </trkpt>
      <trkpt lat="49.41434" lon="5.71827">
        <ele>279.79998779297</ele>
        <time>2023-06-18T06:54:04Z</time>
      </trkpt>
      <trkpt lat="49.41437" lon="5.71828">
        <ele>279.79998779297</ele>
        <time>2023-06-18T06:54:06Z</time>
      </trkpt>
      <trkpt lat="49.4144" lon="5.71832">
        <ele>279.79998779297</ele>
        <time>2023-06-18T06:54:08Z</time>
      </trkpt>
      <trkpt lat="49.41442" lon="5.71833">
        <ele>279.79998779297</ele>
        <time>2023-06-18T06:54:09Z</time>
      </trkpt>
      <trkpt lat="49.41444" lon="5.71835">
        <ele>279.79998779297</ele>
        <time>2023-06-18T06:54:10Z</time>
      </trkpt>
      <trkpt lat="49.41447" lon="5.71838">
        <ele>279.79998779297</ele>
        <time>2023-06-18T06:54:12Z</time>
      </trkpt>
      <trkpt lat="49.41452" lon="5.71841">
        <ele>279.79998779297</ele>
        <time>2023-06-18T06:54:14Z</time>
      </trkpt>
      <trkpt lat="49.41453" lon="5.71843">
        <ele>279.79998779297</ele>
        <time>2023-06-18T06:54:15Z</time>
      </trkpt>
      <trkpt lat="49.41456" lon="5.71844">
        <ele>280</ele>
        <time>2023-06-18T06:54:16Z</time>
      </trkpt>
      <trkpt lat="49.41461" lon="5.71848">
        <ele>280.20001220703</ele>
        <time>2023-06-18T06:54:18Z</time>
      </trkpt>
      <trkpt lat="49.41466" lon="5.71852">
        <ele>280.20001220703</ele>
        <time>2023-06-18T06:54:20Z</time>
      </trkpt>
      <trkpt lat="49.41471" lon="5.71856">
        <ele>280.39999389648</ele>
        <time>2023-06-18T06:54:22Z</time>
      </trkpt>
      <trkpt lat="49.41475" lon="5.7186">
        <ele>280.39999389648</ele>
        <time>2023-06-18T06:54:24Z</time>
      </trkpt>
      <trkpt lat="49.4148" lon="5.71866">
        <ele>280.60000610352</ele>
        <time>2023-06-18T06:54:26Z</time>
      </trkpt>
      <trkpt lat="49.41484" lon="5.71871">
        <ele>280.79998779297</ele>
        <time>2023-06-18T06:54:28Z</time>
      </trkpt>
      <trkpt lat="49.41489" lon="5.71876">
        <ele>280.79998779297</ele>
        <time>2023-06-18T06:54:30Z</time>
      </trkpt>
      <trkpt lat="49.41493" lon="5.71882">
        <ele>281</ele>
        <time>2023-06-18T06:54:32Z</time>
      </trkpt>
      <trkpt lat="49.41498" lon="5.71889">
        <ele>281.20001220703</ele>
        <time>2023-06-18T06:54:34Z</time>
      </trkpt>
      <trkpt lat="49.41502" lon="5.71894">
        <ele>281.39999389648</ele>
        <time>2023-06-18T06:54:36Z</time>
      </trkpt>
      <trkpt lat="49.41506" lon="5.71899">
        <ele>281.60000610352</ele>
        <time>2023-06-18T06:54:38Z</time>
      </trkpt>
      <trkpt lat="49.41512" lon="5.71906">
        <ele>282</ele>
        <time>2023-06-18T06:54:40Z</time>
      </trkpt>
      <trkpt lat="49.41519" lon="5.71914">
        <ele>282.39999389648</ele>
        <time>2023-06-18T06:54:42Z</time>
      </trkpt>
      <trkpt lat="49.41525" lon="5.7192">
        <ele>282.39999389648</ele>
        <time>2023-06-18T06:54:44Z</time>
      </trkpt>
      <trkpt lat="49.41531" lon="5.71926">
        <ele>282.79998779297</ele>
        <time>2023-06-18T06:54:46Z</time>
      </trkpt>
      <trkpt lat="49.41534" lon="5.71928">
        <ele>283</ele>
        <time>2023-06-18T06:54:47Z</time>
      </trkpt>
      <trkpt lat="49.41537" lon="5.7193">
        <ele>283</ele>
        <time>2023-06-18T06:54:48Z</time>
      </trkpt>
      <trkpt lat="49.41543" lon="5.71935">
        <ele>283.39999389648</ele>
        <time>2023-06-18T06:54:50Z</time>
      </trkpt>
      <trkpt lat="49.41548" lon="5.7194">
        <ele>283.60000610352</ele>
        <time>2023-06-18T06:54:52Z</time>
      </trkpt>
      <trkpt lat="49.41552" lon="5.71944">
        <ele>283.79998779297</ele>
        <time>2023-06-18T06:54:54Z</time>
      </trkpt>
      <trkpt lat="49.41555" lon="5.71949">
        <ele>284.20001220703</ele>
        <time>2023-06-18T06:54:56Z</time>
      </trkpt>
      <trkpt lat="49.41558" lon="5.71953">
        <ele>284.60000610352</ele>
        <time>2023-06-18T06:54:58Z</time>
      </trkpt>
      <trkpt lat="49.41562" lon="5.71958">
        <ele>284.79998779297</ele>
        <time>2023-06-18T06:55:00Z</time>
      </trkpt>
      <trkpt lat="49.41564" lon="5.71961">
        <ele>285.20001220703</ele>
        <time>2023-06-18T06:55:01Z</time>
      </trkpt>
      <trkpt lat="49.41566" lon="5.71964">
        <ele>285.20001220703</ele>
        <time>2023-06-18T06:55:02Z</time>
      </trkpt>
      <trkpt lat="49.41572" lon="5.71969">
        <ele>285.39999389648</ele>
        <time>2023-06-18T06:55:04Z</time>
      </trkpt>
      <trkpt lat="49.41574" lon="5.71972">
        <ele>285.60000610352</ele>
        <time>2023-06-18T06:55:05Z</time>
      </trkpt>
      <trkpt lat="49.41576" lon="5.71974">
        <ele>285.79998779297</ele>
        <time>2023-06-18T06:55:06Z</time>
      </trkpt>
      <trkpt lat="49.41581" lon="5.71979">
        <ele>286</ele>
        <time>2023-06-18T06:55:08Z</time>
      </trkpt>
      <trkpt lat="49.41586" lon="5.71984">
        <ele>286.20001220703</ele>
        <time>2023-06-18T06:55:10Z</time>
      </trkpt>
      <trkpt lat="49.41589" lon="5.71988">
        <ele>286.20001220703</ele>
        <time>2023-06-18T06:55:11Z</time>
      </trkpt>
      <trkpt lat="49.41591" lon="5.7199">
        <ele>286.39999389648</ele>
        <time>2023-06-18T06:55:12Z</time>
      </trkpt>
      <trkpt lat="49.41595" lon="5.71994">
        <ele>286.39999389648</ele>
        <time>2023-06-18T06:55:14Z</time>
      </trkpt>
      <trkpt lat="49.41602" lon="5.71999">
        <ele>286.60000610352</ele>
        <time>2023-06-18T06:55:16Z</time>
      </trkpt>
      <trkpt lat="49.41606" lon="5.72002">
        <ele>286.60000610352</ele>
        <time>2023-06-18T06:55:17Z</time>
      </trkpt>
      <trkpt lat="49.4161" lon="5.72005">
        <ele>286.79998779297</ele>
        <time>2023-06-18T06:55:18Z</time>
      </trkpt>
      <trkpt lat="49.41616" lon="5.72009">
        <ele>287</ele>
        <time>2023-06-18T06:55:20Z</time>
      </trkpt>
      <trkpt lat="49.41622" lon="5.72013">
        <ele>287.20001220703</ele>
        <time>2023-06-18T06:55:22Z</time>
      </trkpt>
      <trkpt lat="49.41625" lon="5.72015">
        <ele>287.20001220703</ele>
        <time>2023-06-18T06:55:23Z</time>
      </trkpt>
      <trkpt lat="49.41628" lon="5.72017">
        <ele>287.20001220703</ele>
        <time>2023-06-18T06:55:24Z</time>
      </trkpt>
      <trkpt lat="49.41631" lon="5.7202">
        <ele>287.20001220703</ele>
        <time>2023-06-18T06:55:25Z</time>
      </trkpt>
      <trkpt lat="49.41634" lon="5.72023">
        <ele>287.20001220703</ele>
        <time>2023-06-18T06:55:26Z</time>
      </trkpt>
      <trkpt lat="49.41641" lon="5.72027">
        <ele>287.39999389648</ele>
        <time>2023-06-18T06:55:28Z</time>
      </trkpt>
      <trkpt lat="49.41646" lon="5.7203">
        <ele>287.39999389648</ele>
        <time>2023-06-18T06:55:30Z</time>
      </trkpt>
      <trkpt lat="49.41648" lon="5.72032">
        <ele>287.39999389648</ele>
        <time>2023-06-18T06:55:31Z</time>
      </trkpt>
      <trkpt lat="49.41651" lon="5.72033">
        <ele>287.39999389648</ele>
        <time>2023-06-18T06:55:32Z</time>
      </trkpt>
      <trkpt lat="49.41655" lon="5.72036">
        <ele>287.39999389648</ele>
        <time>2023-06-18T06:55:34Z</time>
      </trkpt>
      <trkpt lat="49.41661" lon="5.72038">
        <ele>287.60000610352</ele>
        <time>2023-06-18T06:55:36Z</time>
      </trkpt>
      <trkpt lat="49.41666" lon="5.7204">
        <ele>287.60000610352</ele>
        <time>2023-06-18T06:55:38Z</time>
      </trkpt>
      <trkpt lat="49.41673" lon="5.72043">
        <ele>287.60000610352</ele>
        <time>2023-06-18T06:55:40Z</time>
      </trkpt>
      <trkpt lat="49.4168" lon="5.72044">
        <ele>287.79998779297</ele>
        <time>2023-06-18T06:55:42Z</time>
      </trkpt>
      <trkpt lat="49.41683" lon="5.72045">
        <ele>287.79998779297</ele>
        <time>2023-06-18T06:55:43Z</time>
      </trkpt>
      <trkpt lat="49.41687" lon="5.72046">
        <ele>287.79998779297</ele>
        <time>2023-06-18T06:55:44Z</time>
      </trkpt>
      <trkpt lat="49.41692" lon="5.72044">
        <ele>287.79998779297</ele>
        <time>2023-06-18T06:55:46Z</time>
      </trkpt>
      <trkpt lat="49.41695" lon="5.72042">
        <ele>287.79998779297</ele>
        <time>2023-06-18T06:55:47Z</time>
      </trkpt>
      <trkpt lat="49.41698" lon="5.7204">
        <ele>287.79998779297</ele>
        <time>2023-06-18T06:55:48Z</time>
      </trkpt>
      <trkpt lat="49.41706" lon="5.72034">
        <ele>287.79998779297</ele>
        <time>2023-06-18T06:55:50Z</time>
      </trkpt>
      <trkpt lat="49.41712" lon="5.72028">
        <ele>287.79998779297</ele>
        <time>2023-06-18T06:55:52Z</time>
      </trkpt>
      <trkpt lat="49.41719" lon="5.7202">
        <ele>287.79998779297</ele>
        <time>2023-06-18T06:55:54Z</time>
      </trkpt>
      <trkpt lat="49.41727" lon="5.7201">
        <ele>287.20001220703</ele>
        <time>2023-06-18T06:55:56Z</time>
      </trkpt>
      <trkpt lat="49.4173" lon="5.72006">
        <ele>286.39999389648</ele>
        <time>2023-06-18T06:55:57Z</time>
      </trkpt>
      <trkpt lat="49.41735" lon="5.72001">
        <ele>286.20001220703</ele>
        <time>2023-06-18T06:55:58Z</time>
      </trkpt>
      <trkpt lat="49.41739" lon="5.71996">
        <ele>286</ele>
        <time>2023-06-18T06:55:59Z</time>
      </trkpt>
      <trkpt lat="49.41743" lon="5.7199">
        <ele>285.79998779297</ele>
        <time>2023-06-18T06:56:00Z</time>
      </trkpt>
      <trkpt lat="49.41747" lon="5.71984">
        <ele>285</ele>
        <time>2023-06-18T06:56:01Z</time>
      </trkpt>
      <trkpt lat="49.41751" lon="5.71978">
        <ele>284.39999389648</ele>
        <time>2023-06-18T06:56:02Z</time>
      </trkpt>
      <trkpt lat="49.41757" lon="5.71972">
        <ele>283.79998779297</ele>
        <time>2023-06-18T06:56:03Z</time>
      </trkpt>
      <trkpt lat="49.41763" lon="5.71964">
        <ele>283</ele>
        <time>2023-06-18T06:56:04Z</time>
      </trkpt>
      <trkpt lat="49.41769" lon="5.71957">
        <ele>282.60000610352</ele>
        <time>2023-06-18T06:56:05Z</time>
      </trkpt>
      <trkpt lat="49.41775" lon="5.7195">
        <ele>282.20001220703</ele>
        <time>2023-06-18T06:56:06Z</time>
      </trkpt>
      <trkpt lat="49.41786" lon="5.71934">
        <ele>281</ele>
        <time>2023-06-18T06:56:08Z</time>
      </trkpt>
      <trkpt lat="49.41792" lon="5.71926">
        <ele>280</ele>
        <time>2023-06-18T06:56:09Z</time>
      </trkpt>
      <trkpt lat="49.41798" lon="5.71916">
        <ele>278.79998779297</ele>
        <time>2023-06-18T06:56:10Z</time>
      </trkpt>
      <trkpt lat="49.41805" lon="5.71907">
        <ele>277.79998779297</ele>
        <time>2023-06-18T06:56:11Z</time>
      </trkpt>
      <trkpt lat="49.41813" lon="5.71897">
        <ele>277.20001220703</ele>
        <time>2023-06-18T06:56:12Z</time>
      </trkpt>
      <trkpt lat="49.41821" lon="5.71888">
        <ele>276.20001220703</ele>
        <time>2023-06-18T06:56:13Z</time>
      </trkpt>
      <trkpt lat="49.41829" lon="5.71879">
        <ele>275.20001220703</ele>
        <time>2023-06-18T06:56:14Z</time>
      </trkpt>
      <trkpt lat="49.41844" lon="5.71861">
        <ele>273.39999389648</ele>
        <time>2023-06-18T06:56:16Z</time>
      </trkpt>
      <trkpt lat="49.41853" lon="5.71852">
        <ele>271.79998779297</ele>
        <time>2023-06-18T06:56:17Z</time>
      </trkpt>
      <trkpt lat="49.41862" lon="5.71842">
        <ele>270.60000610352</ele>
        <time>2023-06-18T06:56:18Z</time>
      </trkpt>
      <trkpt lat="49.41875" lon="5.71819">
        <ele>269.39999389648</ele>
        <time>2023-06-18T06:56:20Z</time>
      </trkpt>
      <trkpt lat="49.41892" lon="5.71792">
        <ele>267.79998779297</ele>
        <time>2023-06-18T06:56:22Z</time>
      </trkpt>
      <trkpt lat="49.41899" lon="5.71779">
        <ele>267.20001220703</ele>
        <time>2023-06-18T06:56:23Z</time>
      </trkpt>
      <trkpt lat="49.41906" lon="5.71766">
        <ele>266.79998779297</ele>
        <time>2023-06-18T06:56:24Z</time>
      </trkpt>
      <trkpt lat="49.41913" lon="5.71751">
        <ele>264.79998779297</ele>
        <time>2023-06-18T06:56:25Z</time>
      </trkpt>
      <trkpt lat="49.41924" lon="5.71736">
        <ele>263.60000610352</ele>
        <time>2023-06-18T06:56:26Z</time>
      </trkpt>
      <trkpt lat="49.41932" lon="5.71723">
        <ele>262.20001220703</ele>
        <time>2023-06-18T06:56:27Z</time>
      </trkpt>
      <trkpt lat="49.41937" lon="5.7171">
        <ele>261</ele>
        <time>2023-06-18T06:56:28Z</time>
      </trkpt>
      <trkpt lat="49.41943" lon="5.71696">
        <ele>259.79998779297</ele>
        <time>2023-06-18T06:56:29Z</time>
      </trkpt>
      <trkpt lat="49.41949" lon="5.71681">
        <ele>258.60000610352</ele>
        <time>2023-06-18T06:56:30Z</time>
      </trkpt>
      <trkpt lat="49.41955" lon="5.71667">
        <ele>257</ele>
        <time>2023-06-18T06:56:31Z</time>
      </trkpt>
      <trkpt lat="49.41961" lon="5.71651">
        <ele>255.80000305176</ele>
        <time>2023-06-18T06:56:32Z</time>
      </trkpt>
      <trkpt lat="49.41971" lon="5.71619">
        <ele>254.19999694824</ele>
        <time>2023-06-18T06:56:34Z</time>
      </trkpt>
      <trkpt lat="49.41979" lon="5.71588">
        <ele>253.19999694824</ele>
        <time>2023-06-18T06:56:36Z</time>
      </trkpt>
      <trkpt lat="49.41982" lon="5.71574">
        <ele>251.60000610352</ele>
        <time>2023-06-18T06:56:37Z</time>
      </trkpt>
      <trkpt lat="49.41985" lon="5.71558">
        <ele>250.19999694824</ele>
        <time>2023-06-18T06:56:38Z</time>
      </trkpt>
      <trkpt lat="49.41988" lon="5.71543">
        <ele>248.60000610352</ele>
        <time>2023-06-18T06:56:39Z</time>
      </trkpt>
      <trkpt lat="49.4199" lon="5.71529">
        <ele>247</ele>
        <time>2023-06-18T06:56:40Z</time>
      </trkpt>
      <trkpt lat="49.41992" lon="5.71516">
        <ele>245.19999694824</ele>
        <time>2023-06-18T06:56:41Z</time>
      </trkpt>
      <trkpt lat="49.41994" lon="5.71503">
        <ele>244</ele>
        <time>2023-06-18T06:56:42Z</time>
      </trkpt>
      <trkpt lat="49.41995" lon="5.71487">
        <ele>242.80000305176</ele>
        <time>2023-06-18T06:56:43Z</time>
      </trkpt>
      <trkpt lat="49.41997" lon="5.71474">
        <ele>241.39999389648</ele>
        <time>2023-06-18T06:56:44Z</time>
      </trkpt>
      <trkpt lat="49.41998" lon="5.71461">
        <ele>240</ele>
        <time>2023-06-18T06:56:45Z</time>
      </trkpt>
      <trkpt lat="49.41998" lon="5.71446">
        <ele>238.39999389648</ele>
        <time>2023-06-18T06:56:46Z</time>
      </trkpt>
      <trkpt lat="49.41997" lon="5.71431">
        <ele>236.60000610352</ele>
        <time>2023-06-18T06:56:47Z</time>
      </trkpt>
      <trkpt lat="49.41995" lon="5.71417">
        <ele>235.80000305176</ele>
        <time>2023-06-18T06:56:48Z</time>
      </trkpt>
      <trkpt lat="49.41993" lon="5.71404">
        <ele>235.19999694824</ele>
        <time>2023-06-18T06:56:49Z</time>
      </trkpt>
      <trkpt lat="49.41991" lon="5.71394">
        <ele>234.80000305176</ele>
        <time>2023-06-18T06:56:50Z</time>
      </trkpt>
      <trkpt lat="49.41988" lon="5.71385">
        <ele>234</ele>
        <time>2023-06-18T06:56:51Z</time>
      </trkpt>
      <trkpt lat="49.41986" lon="5.71375">
        <ele>233.60000610352</ele>
        <time>2023-06-18T06:56:52Z</time>
      </trkpt>
      <trkpt lat="49.4198" lon="5.71357">
        <ele>233</ele>
        <time>2023-06-18T06:56:54Z</time>
      </trkpt>
      <trkpt lat="49.41975" lon="5.7134">
        <ele>232.80000305176</ele>
        <time>2023-06-18T06:56:56Z</time>
      </trkpt>
      <trkpt lat="49.41972" lon="5.71326">
        <ele>232.60000610352</ele>
        <time>2023-06-18T06:56:58Z</time>
      </trkpt>
      <trkpt lat="49.41966" lon="5.71311">
        <ele>232.60000610352</ele>
        <time>2023-06-18T06:57:00Z</time>
      </trkpt>
      <trkpt lat="49.41962" lon="5.71303">
        <ele>232.39999389648</ele>
        <time>2023-06-18T06:57:01Z</time>
      </trkpt>
      <trkpt lat="49.41956" lon="5.71296">
        <ele>232.19999694824</ele>
        <time>2023-06-18T06:57:02Z</time>
      </trkpt>
      <trkpt lat="49.4195" lon="5.71288">
        <ele>232</ele>
        <time>2023-06-18T06:57:03Z</time>
      </trkpt>
      <trkpt lat="49.41943" lon="5.71279">
        <ele>231.80000305176</ele>
        <time>2023-06-18T06:57:04Z</time>
      </trkpt>
      <trkpt lat="49.41937" lon="5.71273">
        <ele>231.60000610352</ele>
        <time>2023-06-18T06:57:05Z</time>
      </trkpt>
      <trkpt lat="49.41932" lon="5.71267">
        <ele>231.39999389648</ele>
        <time>2023-06-18T06:57:06Z</time>
      </trkpt>
      <trkpt lat="49.41921" lon="5.71254">
        <ele>231</ele>
        <time>2023-06-18T06:57:08Z</time>
      </trkpt>
      <trkpt lat="49.41915" lon="5.71248">
        <ele>230.80000305176</ele>
        <time>2023-06-18T06:57:09Z</time>
      </trkpt>
      <trkpt lat="49.41909" lon="5.71243">
        <ele>230.60000610352</ele>
        <time>2023-06-18T06:57:10Z</time>
      </trkpt>
      <trkpt lat="49.41898" lon="5.7123">
        <ele>230.39999389648</ele>
        <time>2023-06-18T06:57:12Z</time>
      </trkpt>
      <trkpt lat="49.41887" lon="5.7122">
        <ele>230.19999694824</ele>
        <time>2023-06-18T06:57:14Z</time>
      </trkpt>
      <trkpt lat="49.41881" lon="5.71216">
        <ele>230.19999694824</ele>
        <time>2023-06-18T06:57:15Z</time>
      </trkpt>
      <trkpt lat="49.41876" lon="5.71211">
        <ele>230.19999694824</ele>
        <time>2023-06-18T06:57:16Z</time>
      </trkpt>
      <trkpt lat="49.41864" lon="5.71202">
        <ele>230.19999694824</ele>
        <time>2023-06-18T06:57:18Z</time>
      </trkpt>
      <trkpt lat="49.41853" lon="5.71193">
        <ele>230</ele>
        <time>2023-06-18T06:57:20Z</time>
      </trkpt>
      <trkpt lat="49.41847" lon="5.71187">
        <ele>230.19999694824</ele>
        <time>2023-06-18T06:57:21Z</time>
      </trkpt>
      <trkpt lat="49.41843" lon="5.71182">
        <ele>230.19999694824</ele>
        <time>2023-06-18T06:57:22Z</time>
      </trkpt>
      <trkpt lat="49.41834" lon="5.71172">
        <ele>230.19999694824</ele>
        <time>2023-06-18T06:57:24Z</time>
      </trkpt>
      <trkpt lat="49.41829" lon="5.71168">
        <ele>230.39999389648</ele>
        <time>2023-06-18T06:57:25Z</time>
      </trkpt>
      <trkpt lat="49.41826" lon="5.71166">
        <ele>230.39999389648</ele>
        <time>2023-06-18T06:57:26Z</time>
      </trkpt>
      <trkpt lat="49.41819" lon="5.71161">
        <ele>230.80000305176</ele>
        <time>2023-06-18T06:57:28Z</time>
      </trkpt>
      <trkpt lat="49.41813" lon="5.71157">
        <ele>231.19999694824</ele>
        <time>2023-06-18T06:57:30Z</time>
      </trkpt>
      <trkpt lat="49.41806" lon="5.71152">
        <ele>231.60000610352</ele>
        <time>2023-06-18T06:57:32Z</time>
      </trkpt>
      <trkpt lat="49.41798" lon="5.71146">
        <ele>231.80000305176</ele>
        <time>2023-06-18T06:57:34Z</time>
      </trkpt>
      <trkpt lat="49.41794" lon="5.71141">
        <ele>231.80000305176</ele>
        <time>2023-06-18T06:57:35Z</time>
      </trkpt>
      <trkpt lat="49.41792" lon="5.71136">
        <ele>232</ele>
        <time>2023-06-18T06:57:36Z</time>
      </trkpt>
      <trkpt lat="49.41787" lon="5.71128">
        <ele>232</ele>
        <time>2023-06-18T06:57:38Z</time>
      </trkpt>
      <trkpt lat="49.41778" lon="5.71124">
        <ele>232.19999694824</ele>
        <time>2023-06-18T06:57:40Z</time>
      </trkpt>
      <trkpt lat="49.4177" lon="5.71118">
        <ele>232</ele>
        <time>2023-06-18T06:57:42Z</time>
      </trkpt>
      <trkpt lat="49.41766" lon="5.71117">
        <ele>232</ele>
        <time>2023-06-18T06:57:43Z</time>
      </trkpt>
      <trkpt lat="49.41763" lon="5.71115">
        <ele>232</ele>
        <time>2023-06-18T06:57:44Z</time>
      </trkpt>
      <trkpt lat="49.41757" lon="5.71112">
        <ele>232</ele>
        <time>2023-06-18T06:57:46Z</time>
      </trkpt>
      <trkpt lat="49.4175" lon="5.7111">
        <ele>231.80000305176</ele>
        <time>2023-06-18T06:57:48Z</time>
      </trkpt>
      <trkpt lat="49.41747" lon="5.71109">
        <ele>231.80000305176</ele>
        <time>2023-06-18T06:57:49Z</time>
      </trkpt>
      <trkpt lat="49.41745" lon="5.71109">
        <ele>231.80000305176</ele>
        <time>2023-06-18T06:57:50Z</time>
      </trkpt>
      <trkpt lat="49.41742" lon="5.71107">
        <ele>231.80000305176</ele>
        <time>2023-06-18T06:57:52Z</time>
      </trkpt>
      <trkpt lat="49.41741" lon="5.71108">
        <ele>231.80000305176</ele>
        <time>2023-06-18T06:57:53Z</time>
      </trkpt>
      <trkpt lat="49.4174" lon="5.71108">
        <ele>231.60000610352</ele>
        <time>2023-06-18T06:57:54Z</time>
      </trkpt>
      <trkpt lat="49.41737" lon="5.71108">
        <ele>231.60000610352</ele>
        <time>2023-06-18T06:57:56Z</time>
      </trkpt>
      <trkpt lat="49.41736" lon="5.71108">
        <ele>231.80000305176</ele>
        <time>2023-06-18T06:57:58Z</time>
      </trkpt>
      <trkpt lat="49.41736" lon="5.71108">
        <ele>231.80000305176</ele>
        <time>2023-06-18T06:58:00Z</time>
      </trkpt>
      <trkpt lat="49.41736" lon="5.71108">
        <ele>231.80000305176</ele>
        <time>2023-06-18T06:58:02Z</time>
      </trkpt>
      <trkpt lat="49.41736" lon="5.71108">
        <ele>232</ele>
        <time>2023-06-18T06:58:04Z</time>
      </trkpt>
      <trkpt lat="49.41736" lon="5.71108">
        <ele>232.19999694824</ele>
        <time>2023-06-18T06:58:06Z</time>
      </trkpt>
      <trkpt lat="49.41736" lon="5.71108">
        <ele>232.19999694824</ele>
        <time>2023-06-18T06:58:08Z</time>
      </trkpt>
      <trkpt lat="49.41736" lon="5.71108">
        <ele>232.19999694824</ele>
        <time>2023-06-18T06:58:10Z</time>
      </trkpt>
      <trkpt lat="49.41736" lon="5.71108">
        <ele>232.19999694824</ele>
        <time>2023-06-18T06:58:12Z</time>
      </trkpt>
      <trkpt lat="49.41736" lon="5.71108">
        <ele>232.39999389648</ele>
        <time>2023-06-18T06:58:14Z</time>
      </trkpt>
      <trkpt lat="49.41736" lon="5.71108">
        <ele>232.39999389648</ele>
        <time>2023-06-18T06:58:16Z</time>
      </trkpt>
      <trkpt lat="49.41736" lon="5.71108">
        <ele>232.39999389648</ele>
        <time>2023-06-18T06:58:18Z</time>
      </trkpt>
      <trkpt lat="49.41736" lon="5.71108">
        <ele>232.39999389648</ele>
        <time>2023-06-18T06:58:20Z</time>
      </trkpt>
      <trkpt lat="49.41736" lon="5.71108">
        <ele>232.39999389648</ele>
        <time>2023-06-18T06:58:22Z</time>
      </trkpt>
      <trkpt lat="49.41736" lon="5.71108">
        <ele>232.39999389648</ele>
        <time>2023-06-18T06:58:23Z</time>
      </trkpt>
      <trkpt lat="49.41736" lon="5.71108">
        <ele>232.39999389648</ele>
        <time>2023-06-18T06:58:24Z</time>
      </trkpt>
      <trkpt lat="49.41736" lon="5.71108">
        <ele>232.39999389648</ele>
        <time>2023-06-18T06:58:26Z</time>
      </trkpt>
      <trkpt lat="49.41736" lon="5.71108">
        <ele>232.39999389648</ele>
        <time>2023-06-18T06:58:28Z</time>
      </trkpt>
      <trkpt lat="49.41736" lon="5.71108">
        <ele>232.39999389648</ele>
        <time>2023-06-18T06:58:30Z</time>
      </trkpt>
      <trkpt lat="49.41736" lon="5.71108">
        <ele>232.39999389648</ele>
        <time>2023-06-18T06:58:32Z</time>
      </trkpt>
      <trkpt lat="49.41736" lon="5.71108">
        <ele>232.39999389648</ele>
        <time>2023-06-18T06:58:34Z</time>
      </trkpt>
      <trkpt lat="49.41736" lon="5.71108">
        <ele>232.39999389648</ele>
        <time>2023-06-18T06:58:36Z</time>
      </trkpt>
      <trkpt lat="49.41736" lon="5.71108">
        <ele>232.39999389648</ele>
        <time>2023-06-18T06:58:38Z</time>
      </trkpt>
      <trkpt lat="49.41736" lon="5.71108">
        <ele>232.39999389648</ele>
        <time>2023-06-18T06:58:40Z</time>
      </trkpt>
      <trkpt lat="49.41736" lon="5.71108">
        <ele>232.39999389648</ele>
        <time>2023-06-18T06:58:42Z</time>
      </trkpt>
      <trkpt lat="49.41735" lon="5.71108">
        <ele>232.39999389648</ele>
        <time>2023-06-18T06:58:44Z</time>
      </trkpt>
      <trkpt lat="49.41735" lon="5.71108">
        <ele>232.39999389648</ele>
        <time>2023-06-18T06:58:46Z</time>
      </trkpt>
      <trkpt lat="49.41735" lon="5.71108">
        <ele>232.39999389648</ele>
        <time>2023-06-18T06:58:48Z</time>
      </trkpt>
      <trkpt lat="49.41735" lon="5.71108">
        <ele>232.39999389648</ele>
        <time>2023-06-18T06:58:50Z</time>
      </trkpt>
      <trkpt lat="49.41735" lon="5.71108">
        <ele>232.39999389648</ele>
        <time>2023-06-18T06:58:52Z</time>
      </trkpt>
      <trkpt lat="49.41735" lon="5.71108">
        <ele>232.39999389648</ele>
        <time>2023-06-18T06:58:54Z</time>
      </trkpt>
      <trkpt lat="49.41735" lon="5.71108">
        <ele>232.39999389648</ele>
        <time>2023-06-18T06:58:56Z</time>
      </trkpt>
      <trkpt lat="49.41735" lon="5.71108">
        <ele>232.39999389648</ele>
        <time>2023-06-18T06:58:58Z</time>
      </trkpt>
      <trkpt lat="49.41735" lon="5.71108">
        <ele>232.39999389648</ele>
        <time>2023-06-18T06:59:00Z</time>
      </trkpt>
      <trkpt lat="49.41735" lon="5.71108">
        <ele>232.39999389648</ele>
        <time>2023-06-18T06:59:02Z</time>
      </trkpt>
      <trkpt lat="49.41735" lon="5.71108">
        <ele>232.39999389648</ele>
        <time>2023-06-18T06:59:03Z</time>
      </trkpt>
      <trkpt lat="49.41735" lon="5.71108">
        <ele>232.39999389648</ele>
        <time>2023-06-18T06:59:04Z</time>
      </trkpt>
      <trkpt lat="49.41735" lon="5.71108">
        <ele>232.39999389648</ele>
        <time>2023-06-18T06:59:06Z</time>
      </trkpt>
      <trkpt lat="49.41735" lon="5.71108">
        <ele>232.39999389648</ele>
        <time>2023-06-18T06:59:08Z</time>
      </trkpt>
      <trkpt lat="49.41734" lon="5.71108">
        <ele>232.39999389648</ele>
        <time>2023-06-18T06:59:10Z</time>
      </trkpt>
      <trkpt lat="49.41732" lon="5.71108">
        <ele>232.39999389648</ele>
        <time>2023-06-18T06:59:12Z</time>
      </trkpt>
      <trkpt lat="49.41731" lon="5.71107">
        <ele>232.39999389648</ele>
        <time>2023-06-18T06:59:13Z</time>
      </trkpt>
      <trkpt lat="49.41729" lon="5.71106">
        <ele>232.39999389648</ele>
        <time>2023-06-18T06:59:14Z</time>
      </trkpt>
      <trkpt lat="49.41725" lon="5.71104">
        <ele>232.39999389648</ele>
        <time>2023-06-18T06:59:16Z</time>
      </trkpt>
      <trkpt lat="49.4172" lon="5.711">
        <ele>232.19999694824</ele>
        <time>2023-06-18T06:59:18Z</time>
      </trkpt>
      <trkpt lat="49.41717" lon="5.71098">
        <ele>232.19999694824</ele>
        <time>2023-06-18T06:59:19Z</time>
      </trkpt>
      <trkpt lat="49.41714" lon="5.71096">
        <ele>232.19999694824</ele>
        <time>2023-06-18T06:59:20Z</time>
      </trkpt>
      <trkpt lat="49.41708" lon="5.71092">
        <ele>232.19999694824</ele>
        <time>2023-06-18T06:59:22Z</time>
      </trkpt>
      <trkpt lat="49.41704" lon="5.71087">
        <ele>232.19999694824</ele>
        <time>2023-06-18T06:59:24Z</time>
      </trkpt>
      <trkpt lat="49.41702" lon="5.71086">
        <ele>232</ele>
        <time>2023-06-18T06:59:25Z</time>
      </trkpt>
      <trkpt lat="49.417" lon="5.71087">
        <ele>231.80000305176</ele>
        <time>2023-06-18T06:59:26Z</time>
      </trkpt>
      <trkpt lat="49.41699" lon="5.71094">
        <ele>231.39999389648</ele>
        <time>2023-06-18T06:59:28Z</time>
      </trkpt>
      <trkpt lat="49.41698" lon="5.71098">
        <ele>231.39999389648</ele>
        <time>2023-06-18T06:59:29Z</time>
      </trkpt>
      <trkpt lat="49.41697" lon="5.71101">
        <ele>231.39999389648</ele>
        <time>2023-06-18T06:59:30Z</time>
      </trkpt>
      <trkpt lat="49.41694" lon="5.7111">
        <ele>231.19999694824</ele>
        <time>2023-06-18T06:59:32Z</time>
      </trkpt>
      <trkpt lat="49.41691" lon="5.71118">
        <ele>231.19999694824</ele>
        <time>2023-06-18T06:59:34Z</time>
      </trkpt>
      <trkpt lat="49.41688" lon="5.71121">
        <ele>231.19999694824</ele>
        <time>2023-06-18T06:59:35Z</time>
      </trkpt>
      <trkpt lat="49.41686" lon="5.71123">
        <ele>231.19999694824</ele>
        <time>2023-06-18T06:59:36Z</time>
      </trkpt>
      <trkpt lat="49.4168" lon="5.71128">
        <ele>231.19999694824</ele>
        <time>2023-06-18T06:59:38Z</time>
      </trkpt>
      <trkpt lat="49.41675" lon="5.71132">
        <ele>231.19999694824</ele>
        <time>2023-06-18T06:59:40Z</time>
      </trkpt>
      <trkpt lat="49.41668" lon="5.71137">
        <ele>231.19999694824</ele>
        <time>2023-06-18T06:59:42Z</time>
      </trkpt>
      <trkpt lat="49.41662" lon="5.71141">
        <ele>231.19999694824</ele>
        <time>2023-06-18T06:59:44Z</time>
      </trkpt>
      <trkpt lat="49.41655" lon="5.71146">
        <ele>231.39999389648</ele>
        <time>2023-06-18T06:59:46Z</time>
      </trkpt>
      <trkpt lat="49.41647" lon="5.71152">
        <ele>231.39999389648</ele>
        <time>2023-06-18T06:59:48Z</time>
      </trkpt>
      <trkpt lat="49.41644" lon="5.71155">
        <ele>231.39999389648</ele>
        <time>2023-06-18T06:59:49Z</time>
      </trkpt>
      <trkpt lat="49.4164" lon="5.71158">
        <ele>231.39999389648</ele>
        <time>2023-06-18T06:59:50Z</time>
      </trkpt>
      <trkpt lat="49.41633" lon="5.71164">
        <ele>231.39999389648</ele>
        <time>2023-06-18T06:59:52Z</time>
      </trkpt>
      <trkpt lat="49.41627" lon="5.71167">
        <ele>231.60000610352</ele>
        <time>2023-06-18T06:59:54Z</time>
      </trkpt>
      <trkpt lat="49.41624" lon="5.71167">
        <ele>231.60000610352</ele>
        <time>2023-06-18T06:59:55Z</time>
      </trkpt>
      <trkpt lat="49.4162" lon="5.71167">
        <ele>231.60000610352</ele>
        <time>2023-06-18T06:59:56Z</time>
      </trkpt>
      <trkpt lat="49.41616" lon="5.71165">
        <ele>231.60000610352</ele>
        <time>2023-06-18T06:59:57Z</time>
      </trkpt>
      <trkpt lat="49.41612" lon="5.71163">
        <ele>231.60000610352</ele>
        <time>2023-06-18T06:59:58Z</time>
      </trkpt>
      <trkpt lat="49.41608" lon="5.7116">
        <ele>231.60000610352</ele>
        <time>2023-06-18T06:59:59Z</time>
      </trkpt>
      <trkpt lat="49.41605" lon="5.71156">
        <ele>231.60000610352</ele>
        <time>2023-06-18T07:00:00Z</time>
      </trkpt>
      <trkpt lat="49.41601" lon="5.7115">
        <ele>231.39999389648</ele>
        <time>2023-06-18T07:00:02Z</time>
      </trkpt>
      <trkpt lat="49.416" lon="5.71149">
        <ele>231.39999389648</ele>
        <time>2023-06-18T07:00:03Z</time>
      </trkpt>
      <trkpt lat="49.41599" lon="5.71149">
        <ele>231.39999389648</ele>
        <time>2023-06-18T07:00:04Z</time>
      </trkpt>
      <trkpt lat="49.41599" lon="5.7115">
        <ele>231.39999389648</ele>
        <time>2023-06-18T07:00:06Z</time>
      </trkpt>
      <trkpt lat="49.41598" lon="5.71152">
        <ele>231.39999389648</ele>
        <time>2023-06-18T07:00:07Z</time>
      </trkpt>
      <trkpt lat="49.41598" lon="5.71154">
        <ele>231.39999389648</ele>
        <time>2023-06-18T07:00:08Z</time>
      </trkpt>
      <trkpt lat="49.41596" lon="5.71157">
        <ele>231.60000610352</ele>
        <time>2023-06-18T07:00:10Z</time>
      </trkpt>
      <trkpt lat="49.41594" lon="5.71163">
        <ele>231.60000610352</ele>
        <time>2023-06-18T07:00:12Z</time>
      </trkpt>
      <trkpt lat="49.41592" lon="5.71167">
        <ele>231.60000610352</ele>
        <time>2023-06-18T07:00:13Z</time>
      </trkpt>
      <trkpt lat="49.41591" lon="5.71171">
        <ele>231.60000610352</ele>
        <time>2023-06-18T07:00:14Z</time>
      </trkpt>
      <trkpt lat="49.41588" lon="5.71178">
        <ele>231.60000610352</ele>
        <time>2023-06-18T07:00:16Z</time>
      </trkpt>
      <trkpt lat="49.41584" lon="5.71187">
        <ele>231.60000610352</ele>
        <time>2023-06-18T07:00:18Z</time>
      </trkpt>
      <trkpt lat="49.41581" lon="5.71196">
        <ele>231.80000305176</ele>
        <time>2023-06-18T07:00:20Z</time>
      </trkpt>
      <trkpt lat="49.4158" lon="5.712">
        <ele>231.80000305176</ele>
        <time>2023-06-18T07:00:21Z</time>
      </trkpt>
      <trkpt lat="49.41579" lon="5.71204">
        <ele>231.80000305176</ele>
        <time>2023-06-18T07:00:22Z</time>
      </trkpt>
      <trkpt lat="49.41576" lon="5.71211">
        <ele>231.80000305176</ele>
        <time>2023-06-18T07:00:24Z</time>
      </trkpt>
      <trkpt lat="49.41574" lon="5.71216">
        <ele>232</ele>
        <time>2023-06-18T07:00:26Z</time>
      </trkpt>
      <trkpt lat="49.41573" lon="5.71217">
        <ele>232.19999694824</ele>
        <time>2023-06-18T07:00:27Z</time>
      </trkpt>
      <trkpt lat="49.41573" lon="5.71219">
        <ele>232.60000610352</ele>
        <time>2023-06-18T07:00:28Z</time>
      </trkpt>
      <trkpt lat="49.41573" lon="5.71221">
        <ele>233</ele>
        <time>2023-06-18T07:00:29Z</time>
      </trkpt>
      <trkpt lat="49.41573" lon="5.71223">
        <ele>233.19999694824</ele>
        <time>2023-06-18T07:00:30Z</time>
      </trkpt>
      <trkpt lat="49.41574" lon="5.71225">
        <ele>233.80000305176</ele>
        <time>2023-06-18T07:00:31Z</time>
      </trkpt>
      <trkpt lat="49.41575" lon="5.71227">
        <ele>234.39999389648</ele>
        <time>2023-06-18T07:00:32Z</time>
      </trkpt>
      <trkpt lat="49.41579" lon="5.71232">
        <ele>235.60000610352</ele>
        <time>2023-06-18T07:00:34Z</time>
      </trkpt>
      <trkpt lat="49.41583" lon="5.71235">
        <ele>236.60000610352</ele>
        <time>2023-06-18T07:00:36Z</time>
      </trkpt>
      <trkpt lat="49.41586" lon="5.71236">
        <ele>236.80000305176</ele>
        <time>2023-06-18T07:00:37Z</time>
      </trkpt>
      <trkpt lat="49.41588" lon="5.71238">
        <ele>236.80000305176</ele>
        <time>2023-06-18T07:00:38Z</time>
      </trkpt>
      <trkpt lat="49.41591" lon="5.71241">
        <ele>236.80000305176</ele>
        <time>2023-06-18T07:00:39Z</time>
      </trkpt>
      <trkpt lat="49.41593" lon="5.71244">
        <ele>237</ele>
        <time>2023-06-18T07:00:40Z</time>
      </trkpt>
      <trkpt lat="49.41596" lon="5.71249">
        <ele>237</ele>
        <time>2023-06-18T07:00:42Z</time>
      </trkpt>
      <trkpt lat="49.41601" lon="5.71253">
        <ele>237</ele>
        <time>2023-06-18T07:00:44Z</time>
      </trkpt>
      <trkpt lat="49.41603" lon="5.71255">
        <ele>237.19999694824</ele>
        <time>2023-06-18T07:00:45Z</time>
      </trkpt>
      <trkpt lat="49.41605" lon="5.71257">
        <ele>237.19999694824</ele>
        <time>2023-06-18T07:00:46Z</time>
      </trkpt>
      <trkpt lat="49.4161" lon="5.7126">
        <ele>237.19999694824</ele>
        <time>2023-06-18T07:00:48Z</time>
      </trkpt>
      <trkpt lat="49.41614" lon="5.71264">
        <ele>237.39999389648</ele>
        <time>2023-06-18T07:00:50Z</time>
      </trkpt>
      <trkpt lat="49.41616" lon="5.71266">
        <ele>237.39999389648</ele>
        <time>2023-06-18T07:00:51Z</time>
      </trkpt>
      <trkpt lat="49.41618" lon="5.71268">
        <ele>237.60000610352</ele>
        <time>2023-06-18T07:00:52Z</time>
      </trkpt>
      <trkpt lat="49.41623" lon="5.71273">
        <ele>237.80000305176</ele>
        <time>2023-06-18T07:00:54Z</time>
      </trkpt>
      <trkpt lat="49.41627" lon="5.71278">
        <ele>238.19999694824</ele>
        <time>2023-06-18T07:00:56Z</time>
      </trkpt>
      <trkpt lat="49.41629" lon="5.71281">
        <ele>238.39999389648</ele>
        <time>2023-06-18T07:00:57Z</time>
      </trkpt>
      <trkpt lat="49.41631" lon="5.71284">
        <ele>238.60000610352</ele>
        <time>2023-06-18T07:00:58Z</time>
      </trkpt>
      <trkpt lat="49.41635" lon="5.7129">
        <ele>238.80000305176</ele>
        <time>2023-06-18T07:01:00Z</time>
      </trkpt>
      <trkpt lat="49.41637" lon="5.71293">
        <ele>239</ele>
        <time>2023-06-18T07:01:01Z</time>
      </trkpt>
      <trkpt lat="49.41639" lon="5.71295">
        <ele>239</ele>
        <time>2023-06-18T07:01:02Z</time>
      </trkpt>
      <trkpt lat="49.41643" lon="5.713">
        <ele>239.19999694824</ele>
        <time>2023-06-18T07:01:04Z</time>
      </trkpt>
      <trkpt lat="49.41645" lon="5.71303">
        <ele>239.39999389648</ele>
        <time>2023-06-18T07:01:05Z</time>
      </trkpt>
      <trkpt lat="49.41647" lon="5.71305">
        <ele>239.60000610352</ele>
        <time>2023-06-18T07:01:06Z</time>
      </trkpt>
      <trkpt lat="49.4165" lon="5.71309">
        <ele>239.80000305176</ele>
        <time>2023-06-18T07:01:08Z</time>
      </trkpt>
      <trkpt lat="49.41651" lon="5.7131">
        <ele>240</ele>
        <time>2023-06-18T07:01:09Z</time>
      </trkpt>
      <trkpt lat="49.41653" lon="5.71313">
        <ele>240.19999694824</ele>
        <time>2023-06-18T07:01:10Z</time>
      </trkpt>
      <trkpt lat="49.41655" lon="5.71315">
        <ele>240.39999389648</ele>
        <time>2023-06-18T07:01:11Z</time>
      </trkpt>
      <trkpt lat="49.41657" lon="5.71317">
        <ele>240.60000610352</ele>
        <time>2023-06-18T07:01:12Z</time>
      </trkpt>
      <trkpt lat="49.41661" lon="5.71322">
        <ele>241.19999694824</ele>
        <time>2023-06-18T07:01:14Z</time>
      </trkpt>
      <trkpt lat="49.41666" lon="5.71327">
        <ele>241.60000610352</ele>
        <time>2023-06-18T07:01:16Z</time>
      </trkpt>
      <trkpt lat="49.41668" lon="5.7133">
        <ele>242</ele>
        <time>2023-06-18T07:01:17Z</time>
      </trkpt>
      <trkpt lat="49.4167" lon="5.71332">
        <ele>242.19999694824</ele>
        <time>2023-06-18T07:01:18Z</time>
      </trkpt>
      <trkpt lat="49.41675" lon="5.71337">
        <ele>242.39999389648</ele>
        <time>2023-06-18T07:01:20Z</time>
      </trkpt>
      <trkpt lat="49.41679" lon="5.71341">
        <ele>242.80000305176</ele>
        <time>2023-06-18T07:01:22Z</time>
      </trkpt>
      <trkpt lat="49.41682" lon="5.71343">
        <ele>242.80000305176</ele>
        <time>2023-06-18T07:01:23Z</time>
      </trkpt>
      <trkpt lat="49.41684" lon="5.71346">
        <ele>243</ele>
        <time>2023-06-18T07:01:24Z</time>
      </trkpt>
      <trkpt lat="49.41688" lon="5.71353">
        <ele>243.19999694824</ele>
        <time>2023-06-18T07:01:26Z</time>
      </trkpt>
      <trkpt lat="49.41692" lon="5.7136">
        <ele>243.19999694824</ele>
        <time>2023-06-18T07:01:28Z</time>
      </trkpt>
      <trkpt lat="49.41694" lon="5.71363">
        <ele>243.19999694824</ele>
        <time>2023-06-18T07:01:29Z</time>
      </trkpt>
      <trkpt lat="49.41695" lon="5.71367">
        <ele>243.39999389648</ele>
        <time>2023-06-18T07:01:30Z</time>
      </trkpt>
      <trkpt lat="49.41699" lon="5.71373">
        <ele>243.60000610352</ele>
        <time>2023-06-18T07:01:32Z</time>
      </trkpt>
      <trkpt lat="49.41702" lon="5.71379">
        <ele>243.80000305176</ele>
        <time>2023-06-18T07:01:34Z</time>
      </trkpt>
      <trkpt lat="49.41705" lon="5.71386">
        <ele>244</ele>
        <time>2023-06-18T07:01:36Z</time>
      </trkpt>
      <trkpt lat="49.41706" lon="5.71389">
        <ele>244</ele>
        <time>2023-06-18T07:01:37Z</time>
      </trkpt>
      <trkpt lat="49.41708" lon="5.71392">
        <ele>244.19999694824</ele>
        <time>2023-06-18T07:01:38Z</time>
      </trkpt>
      <trkpt lat="49.41711" lon="5.71399">
        <ele>244.80000305176</ele>
        <time>2023-06-18T07:01:40Z</time>
      </trkpt>
      <trkpt lat="49.41714" lon="5.71405">
        <ele>245</ele>
        <time>2023-06-18T07:01:42Z</time>
      </trkpt>
      <trkpt lat="49.41716" lon="5.71411">
        <ele>245.39999389648</ele>
        <time>2023-06-18T07:01:44Z</time>
      </trkpt>
      <trkpt lat="49.41719" lon="5.71419">
        <ele>245.80000305176</ele>
        <time>2023-06-18T07:01:46Z</time>
      </trkpt>
      <trkpt lat="49.41723" lon="5.71426">
        <ele>246.39999389648</ele>
        <time>2023-06-18T07:01:48Z</time>
      </trkpt>
      <trkpt lat="49.41726" lon="5.71434">
        <ele>246.80000305176</ele>
        <time>2023-06-18T07:01:50Z</time>
      </trkpt>
      <trkpt lat="49.41729" lon="5.71442">
        <ele>247.19999694824</ele>
        <time>2023-06-18T07:01:52Z</time>
      </trkpt>
      <trkpt lat="49.4173" lon="5.71445">
        <ele>247.19999694824</ele>
        <time>2023-06-18T07:01:53Z</time>
      </trkpt>
      <trkpt lat="49.41731" lon="5.71449">
        <ele>247.39999389648</ele>
        <time>2023-06-18T07:01:54Z</time>
      </trkpt>
      <trkpt lat="49.41734" lon="5.71457">
        <ele>247.39999389648</ele>
        <time>2023-06-18T07:01:56Z</time>
      </trkpt>
      <trkpt lat="49.41735" lon="5.71465">
        <ele>247.80000305176</ele>
        <time>2023-06-18T07:01:58Z</time>
      </trkpt>
      <trkpt lat="49.41735" lon="5.7147">
        <ele>248</ele>
        <time>2023-06-18T07:01:59Z</time>
      </trkpt>
      <trkpt lat="49.41734" lon="5.71473">
        <ele>248.19999694824</ele>
        <time>2023-06-18T07:02:00Z</time>
      </trkpt>
      <trkpt lat="49.41733" lon="5.71476">
        <ele>248.39999389648</ele>
        <time>2023-06-18T07:02:01Z</time>
      </trkpt>
      <trkpt lat="49.41731" lon="5.71479">
        <ele>248.60000610352</ele>
        <time>2023-06-18T07:02:02Z</time>
      </trkpt>
      <trkpt lat="49.41729" lon="5.7148">
        <ele>248.80000305176</ele>
        <time>2023-06-18T07:02:03Z</time>
      </trkpt>
      <trkpt lat="49.41726" lon="5.71481">
        <ele>248.80000305176</ele>
        <time>2023-06-18T07:02:04Z</time>
      </trkpt>
      <trkpt lat="49.41722" lon="5.71482">
        <ele>249.19999694824</ele>
        <time>2023-06-18T07:02:06Z</time>
      </trkpt>
      <trkpt lat="49.4172" lon="5.71481">
        <ele>249.39999389648</ele>
        <time>2023-06-18T07:02:07Z</time>
      </trkpt>
      <trkpt lat="49.41718" lon="5.7148">
        <ele>249.60000610352</ele>
        <time>2023-06-18T07:02:08Z</time>
      </trkpt>
      <trkpt lat="49.41717" lon="5.71477">
        <ele>249.80000305176</ele>
        <time>2023-06-18T07:02:09Z</time>
      </trkpt>
      <trkpt lat="49.41716" lon="5.71474">
        <ele>249.80000305176</ele>
        <time>2023-06-18T07:02:10Z</time>
      </trkpt>
      <trkpt lat="49.41714" lon="5.71468">
        <ele>250.19999694824</ele>
        <time>2023-06-18T07:02:12Z</time>
      </trkpt>
      <trkpt lat="49.41711" lon="5.71461">
        <ele>250.60000610352</ele>
        <time>2023-06-18T07:02:14Z</time>
      </trkpt>
      <trkpt lat="49.41709" lon="5.71454">
        <ele>251</ele>
        <time>2023-06-18T07:02:16Z</time>
      </trkpt>
      <trkpt lat="49.41706" lon="5.71447">
        <ele>251.39999389648</ele>
        <time>2023-06-18T07:02:18Z</time>
      </trkpt>
      <trkpt lat="49.41703" lon="5.7144">
        <ele>251.60000610352</ele>
        <time>2023-06-18T07:02:20Z</time>
      </trkpt>
      <trkpt lat="49.41701" lon="5.71433">
        <ele>251.80000305176</ele>
        <time>2023-06-18T07:02:22Z</time>
      </trkpt>
      <trkpt lat="49.41698" lon="5.71427">
        <ele>252</ele>
        <time>2023-06-18T07:02:24Z</time>
      </trkpt>
      <trkpt lat="49.41694" lon="5.7142">
        <ele>252.19999694824</ele>
        <time>2023-06-18T07:02:26Z</time>
      </trkpt>
      <trkpt lat="49.41691" lon="5.71415">
        <ele>252.39999389648</ele>
        <time>2023-06-18T07:02:28Z</time>
      </trkpt>
      <trkpt lat="49.41686" lon="5.71413">
        <ele>252.80000305176</ele>
        <time>2023-06-18T07:02:30Z</time>
      </trkpt>
      <trkpt lat="49.41684" lon="5.71413">
        <ele>253</ele>
        <time>2023-06-18T07:02:31Z</time>
      </trkpt>
      <trkpt lat="49.41682" lon="5.71415">
        <ele>253</ele>
        <time>2023-06-18T07:02:32Z</time>
      </trkpt>
      <trkpt lat="49.41678" lon="5.71417">
        <ele>253.19999694824</ele>
        <time>2023-06-18T07:02:34Z</time>
      </trkpt>
      <trkpt lat="49.41673" lon="5.71418">
        <ele>253.39999389648</ele>
        <time>2023-06-18T07:02:36Z</time>
      </trkpt>
      <trkpt lat="49.41668" lon="5.71414">
        <ele>253.60000610352</ele>
        <time>2023-06-18T07:02:38Z</time>
      </trkpt>
      <trkpt lat="49.41665" lon="5.71408">
        <ele>254</ele>
        <time>2023-06-18T07:02:40Z</time>
      </trkpt>
      <trkpt lat="49.41663" lon="5.71404">
        <ele>254</ele>
        <time>2023-06-18T07:02:41Z</time>
      </trkpt>
      <trkpt lat="49.41661" lon="5.71401">
        <ele>254.19999694824</ele>
        <time>2023-06-18T07:02:42Z</time>
      </trkpt>
      <trkpt lat="49.41657" lon="5.71395">
        <ele>254.19999694824</ele>
        <time>2023-06-18T07:02:44Z</time>
      </trkpt>
      <trkpt lat="49.41653" lon="5.71388">
        <ele>254.60000610352</ele>
        <time>2023-06-18T07:02:46Z</time>
      </trkpt>
      <trkpt lat="49.41649" lon="5.71382">
        <ele>254.60000610352</ele>
        <time>2023-06-18T07:02:48Z</time>
      </trkpt>
      <trkpt lat="49.41645" lon="5.71376">
        <ele>254.80000305176</ele>
        <time>2023-06-18T07:02:50Z</time>
      </trkpt>
      <trkpt lat="49.4164" lon="5.7137">
        <ele>254.80000305176</ele>
        <time>2023-06-18T07:02:52Z</time>
      </trkpt>
      <trkpt lat="49.41636" lon="5.71364">
        <ele>254.80000305176</ele>
        <time>2023-06-18T07:02:54Z</time>
      </trkpt>
      <trkpt lat="49.41631" lon="5.71357">
        <ele>255</ele>
        <time>2023-06-18T07:02:56Z</time>
      </trkpt>
      <trkpt lat="49.41629" lon="5.71354">
        <ele>255</ele>
        <time>2023-06-18T07:02:57Z</time>
      </trkpt>
      <trkpt lat="49.41626" lon="5.71352">
        <ele>255</ele>
        <time>2023-06-18T07:02:58Z</time>
      </trkpt>
      <trkpt lat="49.41621" lon="5.71345">
        <ele>254.80000305176</ele>
        <time>2023-06-18T07:03:00Z</time>
      </trkpt>
      <trkpt lat="49.41616" lon="5.71337">
        <ele>254.80000305176</ele>
        <time>2023-06-18T07:03:02Z</time>
      </trkpt>
      <trkpt lat="49.41613" lon="5.71327">
        <ele>254.80000305176</ele>
        <time>2023-06-18T07:03:04Z</time>
      </trkpt>
      <trkpt lat="49.41612" lon="5.71321">
        <ele>254.80000305176</ele>
        <time>2023-06-18T07:03:05Z</time>
      </trkpt>
      <trkpt lat="49.41609" lon="5.71316">
        <ele>254.80000305176</ele>
        <time>2023-06-18T07:03:06Z</time>
      </trkpt>
      <trkpt lat="49.41603" lon="5.71306">
        <ele>254</ele>
        <time>2023-06-18T07:03:08Z</time>
      </trkpt>
      <trkpt lat="49.416" lon="5.71302">
        <ele>253.80000305176</ele>
        <time>2023-06-18T07:03:09Z</time>
      </trkpt>
      <trkpt lat="49.41597" lon="5.71298">
        <ele>253.60000610352</ele>
        <time>2023-06-18T07:03:10Z</time>
      </trkpt>
      <trkpt lat="49.41595" lon="5.71293">
        <ele>253.19999694824</ele>
        <time>2023-06-18T07:03:11Z</time>
      </trkpt>
      <trkpt lat="49.41593" lon="5.7129">
        <ele>252.80000305176</ele>
        <time>2023-06-18T07:03:12Z</time>
      </trkpt>
      <trkpt lat="49.41591" lon="5.71288">
        <ele>252.39999389648</ele>
        <time>2023-06-18T07:03:13Z</time>
      </trkpt>
      <trkpt lat="49.4159" lon="5.71285">
        <ele>252.19999694824</ele>
        <time>2023-06-18T07:03:14Z</time>
      </trkpt>
      <trkpt lat="49.41589" lon="5.71284">
        <ele>252.19999694824</ele>
        <time>2023-06-18T07:03:15Z</time>
      </trkpt>
      <trkpt lat="49.41589" lon="5.71282">
        <ele>252</ele>
        <time>2023-06-18T07:03:16Z</time>
      </trkpt>
      <trkpt lat="49.41589" lon="5.71281">
        <ele>252</ele>
        <time>2023-06-18T07:03:18Z</time>
      </trkpt>
      <trkpt lat="49.41588" lon="5.71282">
        <ele>252</ele>
        <time>2023-06-18T07:03:20Z</time>
      </trkpt>
      <trkpt lat="49.41588" lon="5.71282">
        <ele>252</ele>
        <time>2023-06-18T07:03:22Z</time>
      </trkpt>
      <trkpt lat="49.41588" lon="5.71282">
        <ele>252</ele>
        <time>2023-06-18T07:03:24Z</time>
      </trkpt>
      <trkpt lat="49.41588" lon="5.71282">
        <ele>252</ele>
        <time>2023-06-18T07:03:26Z</time>
      </trkpt>
      <trkpt lat="49.41588" lon="5.71282">
        <ele>252</ele>
        <time>2023-06-18T07:03:28Z</time>
      </trkpt>
      <trkpt lat="49.41588" lon="5.71282">
        <ele>252</ele>
        <time>2023-06-18T07:03:30Z</time>
      </trkpt>
      <trkpt lat="49.41588" lon="5.71282">
        <ele>252</ele>
        <time>2023-06-18T07:03:32Z</time>
      </trkpt>
      <trkpt lat="49.41588" lon="5.71282">
        <ele>252</ele>
        <time>2023-06-18T07:03:34Z</time>
      </trkpt>
      <trkpt lat="49.41588" lon="5.71282">
        <ele>251.80000305176</ele>
        <time>2023-06-18T07:03:36Z</time>
      </trkpt>
      <trkpt lat="49.41588" lon="5.71282">
        <ele>251.80000305176</ele>
        <time>2023-06-18T07:03:38Z</time>
      </trkpt>
      <trkpt lat="49.41588" lon="5.71282">
        <ele>251.80000305176</ele>
        <time>2023-06-18T07:03:40Z</time>
      </trkpt>
      <trkpt lat="49.41588" lon="5.71282">
        <ele>252</ele>
        <time>2023-06-18T07:03:42Z</time>
      </trkpt>
      <trkpt lat="49.41588" lon="5.71282">
        <ele>252</ele>
        <time>2023-06-18T07:03:43Z</time>
      </trkpt>
      <trkpt lat="49.41588" lon="5.71282">
        <ele>252</ele>
        <time>2023-06-18T07:03:44Z</time>
      </trkpt>
      <trkpt lat="49.41588" lon="5.71282">
        <ele>252</ele>
        <time>2023-06-18T07:03:46Z</time>
      </trkpt>
      <trkpt lat="49.41588" lon="5.71282">
        <ele>252</ele>
        <time>2023-06-18T07:03:48Z</time>
      </trkpt>
      <trkpt lat="49.41588" lon="5.71282">
        <ele>252</ele>
        <time>2023-06-18T07:03:50Z</time>
      </trkpt>
      <trkpt lat="49.41588" lon="5.71282">
        <ele>252</ele>
        <time>2023-06-18T07:03:52Z</time>
      </trkpt>
      <trkpt lat="49.41588" lon="5.71282">
        <ele>252</ele>
        <time>2023-06-18T07:03:54Z</time>
      </trkpt>
      <trkpt lat="49.41588" lon="5.71282">
        <ele>252</ele>
        <time>2023-06-18T07:03:56Z</time>
      </trkpt>
      <trkpt lat="49.41588" lon="5.71282">
        <ele>252</ele>
        <time>2023-06-18T07:03:57Z</time>
      </trkpt>
      <trkpt lat="49.41587" lon="5.71283">
        <ele>252</ele>
        <time>2023-06-18T07:03:58Z</time>
      </trkpt>
      <trkpt lat="49.41586" lon="5.71284">
        <ele>252</ele>
        <time>2023-06-18T07:03:59Z</time>
      </trkpt>
      <trkpt lat="49.41585" lon="5.71285">
        <ele>252</ele>
        <time>2023-06-18T07:04:00Z</time>
      </trkpt>
      <trkpt lat="49.41582" lon="5.7129">
        <ele>252</ele>
        <time>2023-06-18T07:04:02Z</time>
      </trkpt>
      <trkpt lat="49.4158" lon="5.71296">
        <ele>251.80000305176</ele>
        <time>2023-06-18T07:04:04Z</time>
      </trkpt>
      <trkpt lat="49.41579" lon="5.71301">
        <ele>251.80000305176</ele>
        <time>2023-06-18T07:04:06Z</time>
      </trkpt>
      <trkpt lat="49.41577" lon="5.71305">
        <ele>251.80000305176</ele>
        <time>2023-06-18T07:04:08Z</time>
      </trkpt>
      <trkpt lat="49.41577" lon="5.71306">
        <ele>251.80000305176</ele>
        <time>2023-06-18T07:04:09Z</time>
      </trkpt>
      <trkpt lat="49.41576" lon="5.71307">
        <ele>251.80000305176</ele>
        <time>2023-06-18T07:04:10Z</time>
      </trkpt>
      <trkpt lat="49.41575" lon="5.7131">
        <ele>251.80000305176</ele>
        <time>2023-06-18T07:04:12Z</time>
      </trkpt>
      <trkpt lat="49.41574" lon="5.71312">
        <ele>251.60000610352</ele>
        <time>2023-06-18T07:04:13Z</time>
      </trkpt>
      <trkpt lat="49.41573" lon="5.71313">
        <ele>251.60000610352</ele>
        <time>2023-06-18T07:04:14Z</time>
      </trkpt>
      <trkpt lat="49.4157" lon="5.71313">
        <ele>251.60000610352</ele>
        <time>2023-06-18T07:04:16Z</time>
      </trkpt>
      <trkpt lat="49.41567" lon="5.71314">
        <ele>251.60000610352</ele>
        <time>2023-06-18T07:04:18Z</time>
      </trkpt>
      <trkpt lat="49.41564" lon="5.71313">
        <ele>251.19999694824</ele>
        <time>2023-06-18T07:04:20Z</time>
      </trkpt>
      <trkpt lat="49.41563" lon="5.71311">
        <ele>250.80000305176</ele>
        <time>2023-06-18T07:04:21Z</time>
      </trkpt>
      <trkpt lat="49.41561" lon="5.71307">
        <ele>250.80000305176</ele>
        <time>2023-06-18T07:04:22Z</time>
      </trkpt>
      <trkpt lat="49.41559" lon="5.71302">
        <ele>250.39999389648</ele>
        <time>2023-06-18T07:04:23Z</time>
      </trkpt>
      <trkpt lat="49.41557" lon="5.71295">
        <ele>250.19999694824</ele>
        <time>2023-06-18T07:04:24Z</time>
      </trkpt>
      <trkpt lat="49.41551" lon="5.7128">
        <ele>249.80000305176</ele>
        <time>2023-06-18T07:04:26Z</time>
      </trkpt>
      <trkpt lat="49.41549" lon="5.71272">
        <ele>249.39999389648</ele>
        <time>2023-06-18T07:04:27Z</time>
      </trkpt>
      <trkpt lat="49.41548" lon="5.71264">
        <ele>249.19999694824</ele>
        <time>2023-06-18T07:04:28Z</time>
      </trkpt>
      <trkpt lat="49.41549" lon="5.71248">
        <ele>248.39999389648</ele>
        <time>2023-06-18T07:04:30Z</time>
      </trkpt>
      <trkpt lat="49.41552" lon="5.71235">
        <ele>246.39999389648</ele>
        <time>2023-06-18T07:04:32Z</time>
      </trkpt>
      <trkpt lat="49.41554" lon="5.7123">
        <ele>245.19999694824</ele>
        <time>2023-06-18T07:04:33Z</time>
      </trkpt>
      <trkpt lat="49.41555" lon="5.71226">
        <ele>244</ele>
        <time>2023-06-18T07:04:34Z</time>
      </trkpt>
      <trkpt lat="49.41555" lon="5.71223">
        <ele>243</ele>
        <time>2023-06-18T07:04:35Z</time>
      </trkpt>
      <trkpt lat="49.41555" lon="5.7122">
        <ele>242</ele>
        <time>2023-06-18T07:04:36Z</time>
      </trkpt>
      <trkpt lat="49.41553" lon="5.71217">
        <ele>241.19999694824</ele>
        <time>2023-06-18T07:04:37Z</time>
      </trkpt>
      <trkpt lat="49.41551" lon="5.71214">
        <ele>240.19999694824</ele>
        <time>2023-06-18T07:04:38Z</time>
      </trkpt>
      <trkpt lat="49.41545" lon="5.7121">
        <ele>238.60000610352</ele>
        <time>2023-06-18T07:04:40Z</time>
      </trkpt>
      <trkpt lat="49.41542" lon="5.71208">
        <ele>238</ele>
        <time>2023-06-18T07:04:41Z</time>
      </trkpt>
      <trkpt lat="49.41539" lon="5.71206">
        <ele>237.60000610352</ele>
        <time>2023-06-18T07:04:42Z</time>
      </trkpt>
      <trkpt lat="49.41537" lon="5.71202">
        <ele>237.39999389648</ele>
        <time>2023-06-18T07:04:43Z</time>
      </trkpt>
      <trkpt lat="49.41534" lon="5.71198">
        <ele>237.39999389648</ele>
        <time>2023-06-18T07:04:44Z</time>
      </trkpt>
      <trkpt lat="49.41529" lon="5.71187">
        <ele>236.80000305176</ele>
        <time>2023-06-18T07:04:46Z</time>
      </trkpt>
      <trkpt lat="49.41526" lon="5.71181">
        <ele>236.60000610352</ele>
        <time>2023-06-18T07:04:47Z</time>
      </trkpt>
      <trkpt lat="49.41524" lon="5.71175">
        <ele>236.60000610352</ele>
        <time>2023-06-18T07:04:48Z</time>
      </trkpt>
      <trkpt lat="49.41521" lon="5.71169">
        <ele>236.19999694824</ele>
        <time>2023-06-18T07:04:49Z</time>
      </trkpt>
      <trkpt lat="49.41519" lon="5.71161">
        <ele>236.19999694824</ele>
        <time>2023-06-18T07:04:50Z</time>
      </trkpt>
      <trkpt lat="49.41515" lon="5.71148">
        <ele>235.60000610352</ele>
        <time>2023-06-18T07:04:52Z</time>
      </trkpt>
      <trkpt lat="49.41512" lon="5.71141">
        <ele>235.19999694824</ele>
        <time>2023-06-18T07:04:53Z</time>
      </trkpt>
      <trkpt lat="49.4151" lon="5.71135">
        <ele>234.80000305176</ele>
        <time>2023-06-18T07:04:54Z</time>
      </trkpt>
      <trkpt lat="49.41505" lon="5.71133">
        <ele>234.39999389648</ele>
        <time>2023-06-18T07:04:56Z</time>
      </trkpt>
      <trkpt lat="49.41503" lon="5.71134">
        <ele>234.39999389648</ele>
        <time>2023-06-18T07:04:57Z</time>
      </trkpt>
      <trkpt lat="49.41502" lon="5.71138">
        <ele>234.19999694824</ele>
        <time>2023-06-18T07:04:58Z</time>
      </trkpt>
      <trkpt lat="49.415" lon="5.71148">
        <ele>234.19999694824</ele>
        <time>2023-06-18T07:05:00Z</time>
      </trkpt>
      <trkpt lat="49.41497" lon="5.71153">
        <ele>234</ele>
        <time>2023-06-18T07:05:01Z</time>
      </trkpt>
      <trkpt lat="49.41494" lon="5.71157">
        <ele>234</ele>
        <time>2023-06-18T07:05:02Z</time>
      </trkpt>
      <trkpt lat="49.41488" lon="5.71166">
        <ele>234</ele>
        <time>2023-06-18T07:05:04Z</time>
      </trkpt>
      <trkpt lat="49.41482" lon="5.71175">
        <ele>234</ele>
        <time>2023-06-18T07:05:06Z</time>
      </trkpt>
      <trkpt lat="49.41475" lon="5.71184">
        <ele>234</ele>
        <time>2023-06-18T07:05:08Z</time>
      </trkpt>
      <trkpt lat="49.41468" lon="5.71194">
        <ele>234</ele>
        <time>2023-06-18T07:05:10Z</time>
      </trkpt>
      <trkpt lat="49.41461" lon="5.71204">
        <ele>234</ele>
        <time>2023-06-18T07:05:12Z</time>
      </trkpt>
      <trkpt lat="49.41454" lon="5.71212">
        <ele>234</ele>
        <time>2023-06-18T07:05:14Z</time>
      </trkpt>
      <trkpt lat="49.4145" lon="5.71213">
        <ele>233.80000305176</ele>
        <time>2023-06-18T07:05:15Z</time>
      </trkpt>
      <trkpt lat="49.41447" lon="5.71211">
        <ele>233.80000305176</ele>
        <time>2023-06-18T07:05:16Z</time>
      </trkpt>
      <trkpt lat="49.41441" lon="5.71204">
        <ele>233.60000610352</ele>
        <time>2023-06-18T07:05:18Z</time>
      </trkpt>
      <trkpt lat="49.41438" lon="5.712">
        <ele>233.39999389648</ele>
        <time>2023-06-18T07:05:19Z</time>
      </trkpt>
      <trkpt lat="49.41436" lon="5.71195">
        <ele>233.39999389648</ele>
        <time>2023-06-18T07:05:20Z</time>
      </trkpt>
      <trkpt lat="49.41435" lon="5.71188">
        <ele>233.39999389648</ele>
        <time>2023-06-18T07:05:21Z</time>
      </trkpt>
      <trkpt lat="49.41433" lon="5.71182">
        <ele>233.39999389648</ele>
        <time>2023-06-18T07:05:22Z</time>
      </trkpt>
      <trkpt lat="49.4143" lon="5.71177">
        <ele>233.39999389648</ele>
        <time>2023-06-18T07:05:23Z</time>
      </trkpt>
      <trkpt lat="49.41428" lon="5.71171">
        <ele>233.19999694824</ele>
        <time>2023-06-18T07:05:24Z</time>
      </trkpt>
      <trkpt lat="49.41424" lon="5.71159">
        <ele>233.19999694824</ele>
        <time>2023-06-18T07:05:26Z</time>
      </trkpt>
      <trkpt lat="49.4142" lon="5.71146">
        <ele>233</ele>
        <time>2023-06-18T07:05:28Z</time>
      </trkpt>
      <trkpt lat="49.41415" lon="5.71135">
        <ele>233</ele>
        <time>2023-06-18T07:05:30Z</time>
      </trkpt>
      <trkpt lat="49.41412" lon="5.7113">
        <ele>233</ele>
        <time>2023-06-18T07:05:31Z</time>
      </trkpt>
      <trkpt lat="49.41409" lon="5.71125">
        <ele>233</ele>
        <time>2023-06-18T07:05:32Z</time>
      </trkpt>
      <trkpt lat="49.41406" lon="5.71117">
        <ele>233</ele>
        <time>2023-06-18T07:05:34Z</time>
      </trkpt>
      <trkpt lat="49.41405" lon="5.71114">
        <ele>233</ele>
        <time>2023-06-18T07:05:35Z</time>
      </trkpt>
      <trkpt lat="49.41403" lon="5.71112">
        <ele>233</ele>
        <time>2023-06-18T07:05:36Z</time>
      </trkpt>
      <trkpt lat="49.41401" lon="5.71111">
        <ele>233</ele>
        <time>2023-06-18T07:05:37Z</time>
      </trkpt>
      <trkpt lat="49.41399" lon="5.7111">
        <ele>233</ele>
        <time>2023-06-18T07:05:38Z</time>
      </trkpt>
      <trkpt lat="49.41396" lon="5.71111">
        <ele>233</ele>
        <time>2023-06-18T07:05:39Z</time>
      </trkpt>
      <trkpt lat="49.41392" lon="5.71112">
        <ele>233</ele>
        <time>2023-06-18T07:05:40Z</time>
      </trkpt>
      <trkpt lat="49.41385" lon="5.71116">
        <ele>233</ele>
        <time>2023-06-18T07:05:42Z</time>
      </trkpt>
      <trkpt lat="49.41378" lon="5.7112">
        <ele>233</ele>
        <time>2023-06-18T07:05:44Z</time>
      </trkpt>
      <trkpt lat="49.41374" lon="5.71122">
        <ele>233.19999694824</ele>
        <time>2023-06-18T07:05:45Z</time>
      </trkpt>
      <trkpt lat="49.4137" lon="5.71125">
        <ele>233.19999694824</ele>
        <time>2023-06-18T07:05:46Z</time>
      </trkpt>
      <trkpt lat="49.41361" lon="5.71128">
        <ele>233.19999694824</ele>
        <time>2023-06-18T07:05:48Z</time>
      </trkpt>
      <trkpt lat="49.41352" lon="5.71131">
        <ele>233.19999694824</ele>
        <time>2023-06-18T07:05:50Z</time>
      </trkpt>
      <trkpt lat="49.41343" lon="5.71132">
        <ele>233.19999694824</ele>
        <time>2023-06-18T07:05:52Z</time>
      </trkpt>
      <trkpt lat="49.41333" lon="5.71132">
        <ele>233.19999694824</ele>
        <time>2023-06-18T07:05:54Z</time>
      </trkpt>
      <trkpt lat="49.41324" lon="5.71133">
        <ele>233.19999694824</ele>
        <time>2023-06-18T07:05:56Z</time>
      </trkpt>
      <trkpt lat="49.41315" lon="5.71133">
        <ele>233.19999694824</ele>
        <time>2023-06-18T07:05:58Z</time>
      </trkpt>
      <trkpt lat="49.41305" lon="5.71132">
        <ele>233.19999694824</ele>
        <time>2023-06-18T07:06:00Z</time>
      </trkpt>
      <trkpt lat="49.413" lon="5.7113">
        <ele>233.19999694824</ele>
        <time>2023-06-18T07:06:01Z</time>
      </trkpt>
      <trkpt lat="49.41296" lon="5.71129">
        <ele>233.19999694824</ele>
        <time>2023-06-18T07:06:02Z</time>
      </trkpt>
      <trkpt lat="49.41287" lon="5.71125">
        <ele>233.19999694824</ele>
        <time>2023-06-18T07:06:04Z</time>
      </trkpt>
      <trkpt lat="49.41278" lon="5.71122">
        <ele>233.39999389648</ele>
        <time>2023-06-18T07:06:06Z</time>
      </trkpt>
      <trkpt lat="49.4127" lon="5.71119">
        <ele>233.60000610352</ele>
        <time>2023-06-18T07:06:08Z</time>
      </trkpt>
      <trkpt lat="49.41265" lon="5.71118">
        <ele>233.60000610352</ele>
        <time>2023-06-18T07:06:09Z</time>
      </trkpt>
      <trkpt lat="49.41261" lon="5.71117">
        <ele>233.80000305176</ele>
        <time>2023-06-18T07:06:10Z</time>
      </trkpt>
      <trkpt lat="49.41253" lon="5.71115">
        <ele>234</ele>
        <time>2023-06-18T07:06:12Z</time>
      </trkpt>
      <trkpt lat="49.41245" lon="5.71112">
        <ele>234.39999389648</ele>
        <time>2023-06-18T07:06:14Z</time>
      </trkpt>
      <trkpt lat="49.41238" lon="5.71109">
        <ele>234.60000610352</ele>
        <time>2023-06-18T07:06:16Z</time>
      </trkpt>
      <trkpt lat="49.41234" lon="5.71108">
        <ele>234.60000610352</ele>
        <time>2023-06-18T07:06:17Z</time>
      </trkpt>
      <trkpt lat="49.4123" lon="5.71107">
        <ele>234.80000305176</ele>
        <time>2023-06-18T07:06:18Z</time>
      </trkpt>
      <trkpt lat="49.41226" lon="5.71106">
        <ele>235</ele>
        <time>2023-06-18T07:06:19Z</time>
      </trkpt>
      <trkpt lat="49.41223" lon="5.71104">
        <ele>235.39999389648</ele>
        <time>2023-06-18T07:06:20Z</time>
      </trkpt>
      <trkpt lat="49.41215" lon="5.71102">
        <ele>235.60000610352</ele>
        <time>2023-06-18T07:06:22Z</time>
      </trkpt>
      <trkpt lat="49.41208" lon="5.711">
        <ele>235.80000305176</ele>
        <time>2023-06-18T07:06:24Z</time>
      </trkpt>
      <trkpt lat="49.412" lon="5.71097">
        <ele>236</ele>
        <time>2023-06-18T07:06:26Z</time>
      </trkpt>
      <trkpt lat="49.41196" lon="5.71096">
        <ele>236.19999694824</ele>
        <time>2023-06-18T07:06:27Z</time>
      </trkpt>
      <trkpt lat="49.41192" lon="5.71095">
        <ele>236.39999389648</ele>
        <time>2023-06-18T07:06:28Z</time>
      </trkpt>
      <trkpt lat="49.41185" lon="5.71093">
        <ele>236.80000305176</ele>
        <time>2023-06-18T07:06:30Z</time>
      </trkpt>
      <trkpt lat="49.41178" lon="5.71092">
        <ele>237</ele>
        <time>2023-06-18T07:06:32Z</time>
      </trkpt>
      <trkpt lat="49.41174" lon="5.71092">
        <ele>237.19999694824</ele>
        <time>2023-06-18T07:06:33Z</time>
      </trkpt>
      <trkpt lat="49.41171" lon="5.71092">
        <ele>237.19999694824</ele>
        <time>2023-06-18T07:06:34Z</time>
      </trkpt>
      <trkpt lat="49.41167" lon="5.71092">
        <ele>237.60000610352</ele>
        <time>2023-06-18T07:06:35Z</time>
      </trkpt>
      <trkpt lat="49.41164" lon="5.71093">
        <ele>237.60000610352</ele>
        <time>2023-06-18T07:06:36Z</time>
      </trkpt>
      <trkpt lat="49.41157" lon="5.71094">
        <ele>238</ele>
        <time>2023-06-18T07:06:38Z</time>
      </trkpt>
      <trkpt lat="49.4115" lon="5.71097">
        <ele>238.19999694824</ele>
        <time>2023-06-18T07:06:40Z</time>
      </trkpt>
      <trkpt lat="49.41143" lon="5.71102">
        <ele>238.60000610352</ele>
        <time>2023-06-18T07:06:42Z</time>
      </trkpt>
      <trkpt lat="49.41139" lon="5.71105">
        <ele>238.60000610352</ele>
        <time>2023-06-18T07:06:43Z</time>
      </trkpt>
      <trkpt lat="49.41136" lon="5.71108">
        <ele>238.60000610352</ele>
        <time>2023-06-18T07:06:44Z</time>
      </trkpt>
      <trkpt lat="49.41131" lon="5.71115">
        <ele>238.80000305176</ele>
        <time>2023-06-18T07:06:46Z</time>
      </trkpt>
      <trkpt lat="49.41125" lon="5.71123">
        <ele>239.19999694824</ele>
        <time>2023-06-18T07:06:48Z</time>
      </trkpt>
      <trkpt lat="49.41122" lon="5.71127">
        <ele>239.19999694824</ele>
        <time>2023-06-18T07:06:49Z</time>
      </trkpt>
      <trkpt lat="49.4112" lon="5.71132">
        <ele>239.19999694824</ele>
        <time>2023-06-18T07:06:50Z</time>
      </trkpt>
      <trkpt lat="49.41115" lon="5.71141">
        <ele>239.39999389648</ele>
        <time>2023-06-18T07:06:52Z</time>
      </trkpt>
      <trkpt lat="49.41111" lon="5.71152">
        <ele>239.60000610352</ele>
        <time>2023-06-18T07:06:54Z</time>
      </trkpt>
      <trkpt lat="49.41107" lon="5.71163">
        <ele>239.60000610352</ele>
        <time>2023-06-18T07:06:56Z</time>
      </trkpt>
      <trkpt lat="49.41104" lon="5.71174">
        <ele>240</ele>
        <time>2023-06-18T07:06:58Z</time>
      </trkpt>
      <trkpt lat="49.41101" lon="5.71186">
        <ele>240.19999694824</ele>
        <time>2023-06-18T07:07:00Z</time>
      </trkpt>
      <trkpt lat="49.41098" lon="5.71199">
        <ele>240.19999694824</ele>
        <time>2023-06-18T07:07:02Z</time>
      </trkpt>
      <trkpt lat="49.41097" lon="5.71205">
        <ele>240.19999694824</ele>
        <time>2023-06-18T07:07:03Z</time>
      </trkpt>
      <trkpt lat="49.41096" lon="5.71212">
        <ele>240.19999694824</ele>
        <time>2023-06-18T07:07:04Z</time>
      </trkpt>
      <trkpt lat="49.41094" lon="5.71227">
        <ele>240.39999389648</ele>
        <time>2023-06-18T07:07:06Z</time>
      </trkpt>
      <trkpt lat="49.41092" lon="5.71243">
        <ele>240.39999389648</ele>
        <time>2023-06-18T07:07:08Z</time>
      </trkpt>
      <trkpt lat="49.41091" lon="5.7126">
        <ele>240.39999389648</ele>
        <time>2023-06-18T07:07:10Z</time>
      </trkpt>
      <trkpt lat="49.41091" lon="5.71277">
        <ele>240.39999389648</ele>
        <time>2023-06-18T07:07:12Z</time>
      </trkpt>
      <trkpt lat="49.41092" lon="5.71295">
        <ele>240.19999694824</ele>
        <time>2023-06-18T07:07:14Z</time>
      </trkpt>
      <trkpt lat="49.41092" lon="5.71313">
        <ele>240</ele>
        <time>2023-06-18T07:07:16Z</time>
      </trkpt>
      <trkpt lat="49.41093" lon="5.71322">
        <ele>239.80000305176</ele>
        <time>2023-06-18T07:07:17Z</time>
      </trkpt>
      <trkpt lat="49.41093" lon="5.71331">
        <ele>239.60000610352</ele>
        <time>2023-06-18T07:07:18Z</time>
      </trkpt>
      <trkpt lat="49.41093" lon="5.71349">
        <ele>239.39999389648</ele>
        <time>2023-06-18T07:07:20Z</time>
      </trkpt>
      <trkpt lat="49.41094" lon="5.71368">
        <ele>239</ele>
        <time>2023-06-18T07:07:22Z</time>
      </trkpt>
      <trkpt lat="49.41095" lon="5.71378">
        <ele>238.80000305176</ele>
        <time>2023-06-18T07:07:23Z</time>
      </trkpt>
      <trkpt lat="49.41095" lon="5.71388">
        <ele>238.80000305176</ele>
        <time>2023-06-18T07:07:24Z</time>
      </trkpt>
      <trkpt lat="49.41096" lon="5.71407">
        <ele>238.39999389648</ele>
        <time>2023-06-18T07:07:26Z</time>
      </trkpt>
      <trkpt lat="49.41098" lon="5.71426">
        <ele>238.19999694824</ele>
        <time>2023-06-18T07:07:28Z</time>
      </trkpt>
      <trkpt lat="49.41099" lon="5.71445">
        <ele>238</ele>
        <time>2023-06-18T07:07:30Z</time>
      </trkpt>
      <trkpt lat="49.41099" lon="5.71455">
        <ele>237.80000305176</ele>
        <time>2023-06-18T07:07:31Z</time>
      </trkpt>
      <trkpt lat="49.41099" lon="5.71464">
        <ele>237.80000305176</ele>
        <time>2023-06-18T07:07:32Z</time>
      </trkpt>
      <trkpt lat="49.411" lon="5.71483">
        <ele>237.60000610352</ele>
        <time>2023-06-18T07:07:34Z</time>
      </trkpt>
      <trkpt lat="49.411" lon="5.71501">
        <ele>237.39999389648</ele>
        <time>2023-06-18T07:07:36Z</time>
      </trkpt>
      <trkpt lat="49.411" lon="5.71521">
        <ele>237.39999389648</ele>
        <time>2023-06-18T07:07:38Z</time>
      </trkpt>
      <trkpt lat="49.41101" lon="5.71541">
        <ele>237.19999694824</ele>
        <time>2023-06-18T07:07:40Z</time>
      </trkpt>
      <trkpt lat="49.41101" lon="5.7156">
        <ele>237.19999694824</ele>
        <time>2023-06-18T07:07:42Z</time>
      </trkpt>
      <trkpt lat="49.41102" lon="5.71579">
        <ele>237.19999694824</ele>
        <time>2023-06-18T07:07:44Z</time>
      </trkpt>
      <trkpt lat="49.41103" lon="5.71598">
        <ele>237.19999694824</ele>
        <time>2023-06-18T07:07:46Z</time>
      </trkpt>
      <trkpt lat="49.41103" lon="5.71607">
        <ele>237.19999694824</ele>
        <time>2023-06-18T07:07:47Z</time>
      </trkpt>
      <trkpt lat="49.41104" lon="5.71616">
        <ele>237.19999694824</ele>
        <time>2023-06-18T07:07:48Z</time>
      </trkpt>
      <trkpt lat="49.41104" lon="5.71635">
        <ele>237.19999694824</ele>
        <time>2023-06-18T07:07:50Z</time>
      </trkpt>
      <trkpt lat="49.41104" lon="5.71653">
        <ele>237.19999694824</ele>
        <time>2023-06-18T07:07:52Z</time>
      </trkpt>
      <trkpt lat="49.41104" lon="5.71672">
        <ele>237.19999694824</ele>
        <time>2023-06-18T07:07:54Z</time>
      </trkpt>
      <trkpt lat="49.41103" lon="5.71691">
        <ele>237</ele>
        <time>2023-06-18T07:07:56Z</time>
      </trkpt>
      <trkpt lat="49.41101" lon="5.71709">
        <ele>237</ele>
        <time>2023-06-18T07:07:58Z</time>
      </trkpt>
      <trkpt lat="49.41098" lon="5.71718">
        <ele>237</ele>
        <time>2023-06-18T07:07:59Z</time>
      </trkpt>
      <trkpt lat="49.41096" lon="5.71726">
        <ele>237</ele>
        <time>2023-06-18T07:08:00Z</time>
      </trkpt>
      <trkpt lat="49.41093" lon="5.71735">
        <ele>236.80000305176</ele>
        <time>2023-06-18T07:08:01Z</time>
      </trkpt>
      <trkpt lat="49.4109" lon="5.71743">
        <ele>236.80000305176</ele>
        <time>2023-06-18T07:08:02Z</time>
      </trkpt>
      <trkpt lat="49.41082" lon="5.71758">
        <ele>236.60000610352</ele>
        <time>2023-06-18T07:08:04Z</time>
      </trkpt>
      <trkpt lat="49.41072" lon="5.71769">
        <ele>236.39999389648</ele>
        <time>2023-06-18T07:08:06Z</time>
      </trkpt>
      <trkpt lat="49.41063" lon="5.71779">
        <ele>236.19999694824</ele>
        <time>2023-06-18T07:08:08Z</time>
      </trkpt>
      <trkpt lat="49.41055" lon="5.71791">
        <ele>236.19999694824</ele>
        <time>2023-06-18T07:08:10Z</time>
      </trkpt>
      <trkpt lat="49.41052" lon="5.71797">
        <ele>236.19999694824</ele>
        <time>2023-06-18T07:08:11Z</time>
      </trkpt>
      <trkpt lat="49.41051" lon="5.71803">
        <ele>236.19999694824</ele>
        <time>2023-06-18T07:08:12Z</time>
      </trkpt>
      <trkpt lat="49.41051" lon="5.71816">
        <ele>236.19999694824</ele>
        <time>2023-06-18T07:08:14Z</time>
      </trkpt>
      <trkpt lat="49.41055" lon="5.71827">
        <ele>236.19999694824</ele>
        <time>2023-06-18T07:08:16Z</time>
      </trkpt>
      <trkpt lat="49.41057" lon="5.71832">
        <ele>236.19999694824</ele>
        <time>2023-06-18T07:08:17Z</time>
      </trkpt>
      <trkpt lat="49.4106" lon="5.71838">
        <ele>236.19999694824</ele>
        <time>2023-06-18T07:08:18Z</time>
      </trkpt>
      <trkpt lat="49.41065" lon="5.71849">
        <ele>236.19999694824</ele>
        <time>2023-06-18T07:08:20Z</time>
      </trkpt>
      <trkpt lat="49.41069" lon="5.71859">
        <ele>236.19999694824</ele>
        <time>2023-06-18T07:08:22Z</time>
      </trkpt>
      <trkpt lat="49.41073" lon="5.7187">
        <ele>236.19999694824</ele>
        <time>2023-06-18T07:08:24Z</time>
      </trkpt>
      <trkpt lat="49.41077" lon="5.71881">
        <ele>236.19999694824</ele>
        <time>2023-06-18T07:08:26Z</time>
      </trkpt>
      <trkpt lat="49.41082" lon="5.71892">
        <ele>236.39999389648</ele>
        <time>2023-06-18T07:08:28Z</time>
      </trkpt>
      <trkpt lat="49.41087" lon="5.71902">
        <ele>236.39999389648</ele>
        <time>2023-06-18T07:08:30Z</time>
      </trkpt>
      <trkpt lat="49.41091" lon="5.71911">
        <ele>236.39999389648</ele>
        <time>2023-06-18T07:08:32Z</time>
      </trkpt>
      <trkpt lat="49.41093" lon="5.71916">
        <ele>236.39999389648</ele>
        <time>2023-06-18T07:08:33Z</time>
      </trkpt>
      <trkpt lat="49.41096" lon="5.71921">
        <ele>236.39999389648</ele>
        <time>2023-06-18T07:08:34Z</time>
      </trkpt>
      <trkpt lat="49.41099" lon="5.7193">
        <ele>236.39999389648</ele>
        <time>2023-06-18T07:08:36Z</time>
      </trkpt>
      <trkpt lat="49.41103" lon="5.7194">
        <ele>236.39999389648</ele>
        <time>2023-06-18T07:08:38Z</time>
      </trkpt>
      <trkpt lat="49.41106" lon="5.7195">
        <ele>236.60000610352</ele>
        <time>2023-06-18T07:08:40Z</time>
      </trkpt>
      <trkpt lat="49.41109" lon="5.71959">
        <ele>236.80000305176</ele>
        <time>2023-06-18T07:08:42Z</time>
      </trkpt>
      <trkpt lat="49.41113" lon="5.71968">
        <ele>236.80000305176</ele>
        <time>2023-06-18T07:08:44Z</time>
      </trkpt>
      <trkpt lat="49.41116" lon="5.71977">
        <ele>237</ele>
        <time>2023-06-18T07:08:46Z</time>
      </trkpt>
      <trkpt lat="49.4112" lon="5.71985">
        <ele>237.19999694824</ele>
        <time>2023-06-18T07:08:48Z</time>
      </trkpt>
      <trkpt lat="49.41124" lon="5.71994">
        <ele>237.39999389648</ele>
        <time>2023-06-18T07:08:50Z</time>
      </trkpt>
      <trkpt lat="49.41127" lon="5.72002">
        <ele>237.60000610352</ele>
        <time>2023-06-18T07:08:52Z</time>
      </trkpt>
      <trkpt lat="49.4113" lon="5.7201">
        <ele>237.80000305176</ele>
        <time>2023-06-18T07:08:54Z</time>
      </trkpt>
      <trkpt lat="49.41133" lon="5.72018">
        <ele>238</ele>
        <time>2023-06-18T07:08:56Z</time>
      </trkpt>
      <trkpt lat="49.41135" lon="5.72022">
        <ele>238</ele>
        <time>2023-06-18T07:08:57Z</time>
      </trkpt>
      <trkpt lat="49.41137" lon="5.72027">
        <ele>238</ele>
        <time>2023-06-18T07:08:58Z</time>
      </trkpt>
      <trkpt lat="49.41139" lon="5.72035">
        <ele>238.39999389648</ele>
        <time>2023-06-18T07:09:00Z</time>
      </trkpt>
      <trkpt lat="49.41142" lon="5.72045">
        <ele>238.60000610352</ele>
        <time>2023-06-18T07:09:02Z</time>
      </trkpt>
      <trkpt lat="49.41143" lon="5.7205">
        <ele>238.60000610352</ele>
        <time>2023-06-18T07:09:03Z</time>
      </trkpt>
      <trkpt lat="49.41144" lon="5.72057">
        <ele>238.60000610352</ele>
        <time>2023-06-18T07:09:04Z</time>
      </trkpt>
      <trkpt lat="49.41144" lon="5.72072">
        <ele>238.60000610352</ele>
        <time>2023-06-18T07:09:06Z</time>
      </trkpt>
      <trkpt lat="49.41143" lon="5.72086">
        <ele>238.60000610352</ele>
        <time>2023-06-18T07:09:08Z</time>
      </trkpt>
      <trkpt lat="49.41143" lon="5.72102">
        <ele>238.60000610352</ele>
        <time>2023-06-18T07:09:10Z</time>
      </trkpt>
      <trkpt lat="49.41143" lon="5.72117">
        <ele>238.19999694824</ele>
        <time>2023-06-18T07:09:12Z</time>
      </trkpt>
      <trkpt lat="49.41142" lon="5.72132">
        <ele>237.80000305176</ele>
        <time>2023-06-18T07:09:14Z</time>
      </trkpt>
      <trkpt lat="49.41142" lon="5.72147">
        <ele>237.60000610352</ele>
        <time>2023-06-18T07:09:16Z</time>
      </trkpt>
      <trkpt lat="49.41142" lon="5.72161">
        <ele>237.60000610352</ele>
        <time>2023-06-18T07:09:18Z</time>
      </trkpt>
      <trkpt lat="49.41143" lon="5.72168">
        <ele>237.60000610352</ele>
        <time>2023-06-18T07:09:19Z</time>
      </trkpt>
      <trkpt lat="49.41143" lon="5.72176">
        <ele>237.60000610352</ele>
        <time>2023-06-18T07:09:20Z</time>
      </trkpt>
      <trkpt lat="49.41144" lon="5.72191">
        <ele>237.60000610352</ele>
        <time>2023-06-18T07:09:22Z</time>
      </trkpt>
      <trkpt lat="49.41145" lon="5.72205">
        <ele>237.60000610352</ele>
        <time>2023-06-18T07:09:24Z</time>
      </trkpt>
      <trkpt lat="49.41146" lon="5.72212">
        <ele>237.60000610352</ele>
        <time>2023-06-18T07:09:25Z</time>
      </trkpt>
      <trkpt lat="49.41147" lon="5.7222">
        <ele>237.39999389648</ele>
        <time>2023-06-18T07:09:26Z</time>
      </trkpt>
      <trkpt lat="49.41148" lon="5.72234">
        <ele>237.39999389648</ele>
        <time>2023-06-18T07:09:28Z</time>
      </trkpt>
      <trkpt lat="49.4115" lon="5.72247">
        <ele>237.60000610352</ele>
        <time>2023-06-18T07:09:30Z</time>
      </trkpt>
      <trkpt lat="49.41153" lon="5.7226">
        <ele>237.60000610352</ele>
        <time>2023-06-18T07:09:32Z</time>
      </trkpt>
      <trkpt lat="49.41156" lon="5.72273">
        <ele>237.60000610352</ele>
        <time>2023-06-18T07:09:34Z</time>
      </trkpt>
      <trkpt lat="49.41158" lon="5.72287">
        <ele>237.60000610352</ele>
        <time>2023-06-18T07:09:36Z</time>
      </trkpt>
      <trkpt lat="49.41161" lon="5.723">
        <ele>237.80000305176</ele>
        <time>2023-06-18T07:09:38Z</time>
      </trkpt>
      <trkpt lat="49.41164" lon="5.72313">
        <ele>238</ele>
        <time>2023-06-18T07:09:40Z</time>
      </trkpt>
      <trkpt lat="49.41168" lon="5.72325">
        <ele>238.19999694824</ele>
        <time>2023-06-18T07:09:42Z</time>
      </trkpt>
      <trkpt lat="49.41174" lon="5.72336">
        <ele>238.19999694824</ele>
        <time>2023-06-18T07:09:44Z</time>
      </trkpt>
      <trkpt lat="49.41182" lon="5.72346">
        <ele>238.39999389648</ele>
        <time>2023-06-18T07:09:46Z</time>
      </trkpt>
      <trkpt lat="49.4119" lon="5.72352">
        <ele>238.39999389648</ele>
        <time>2023-06-18T07:09:48Z</time>
      </trkpt>
      <trkpt lat="49.41198" lon="5.72357">
        <ele>238.60000610352</ele>
        <time>2023-06-18T07:09:50Z</time>
      </trkpt>
      <trkpt lat="49.41201" lon="5.72359">
        <ele>238.60000610352</ele>
        <time>2023-06-18T07:09:51Z</time>
      </trkpt>
      <trkpt lat="49.41205" lon="5.72361">
        <ele>238.60000610352</ele>
        <time>2023-06-18T07:09:52Z</time>
      </trkpt>
      <trkpt lat="49.41213" lon="5.72366">
        <ele>238.60000610352</ele>
        <time>2023-06-18T07:09:54Z</time>
      </trkpt>
      <trkpt lat="49.41221" lon="5.7237">
        <ele>238.80000305176</ele>
        <time>2023-06-18T07:09:56Z</time>
      </trkpt>
      <trkpt lat="49.41228" lon="5.72375">
        <ele>238.80000305176</ele>
        <time>2023-06-18T07:09:58Z</time>
      </trkpt>
      <trkpt lat="49.41234" lon="5.72381">
        <ele>239</ele>
        <time>2023-06-18T07:10:00Z</time>
      </trkpt>
      <trkpt lat="49.41241" lon="5.72387">
        <ele>239.19999694824</ele>
        <time>2023-06-18T07:10:02Z</time>
      </trkpt>
      <trkpt lat="49.41248" lon="5.72393">
        <ele>239.19999694824</ele>
        <time>2023-06-18T07:10:04Z</time>
      </trkpt>
      <trkpt lat="49.41255" lon="5.72398">
        <ele>239.80000305176</ele>
        <time>2023-06-18T07:10:06Z</time>
      </trkpt>
      <trkpt lat="49.41259" lon="5.72401">
        <ele>240.19999694824</ele>
        <time>2023-06-18T07:10:07Z</time>
      </trkpt>
      <trkpt lat="49.41264" lon="5.72403">
        <ele>240.39999389648</ele>
        <time>2023-06-18T07:10:08Z</time>
      </trkpt>
      <trkpt lat="49.41272" lon="5.72408">
        <ele>240.60000610352</ele>
        <time>2023-06-18T07:10:10Z</time>
      </trkpt>
      <trkpt lat="49.4128" lon="5.72413">
        <ele>241</ele>
        <time>2023-06-18T07:10:12Z</time>
      </trkpt>
      <trkpt lat="49.41288" lon="5.72417">
        <ele>241</ele>
        <time>2023-06-18T07:10:14Z</time>
      </trkpt>
      <trkpt lat="49.41298" lon="5.72419">
        <ele>241.19999694824</ele>
        <time>2023-06-18T07:10:16Z</time>
      </trkpt>
      <trkpt lat="49.41303" lon="5.7242">
        <ele>241.19999694824</ele>
        <time>2023-06-18T07:10:17Z</time>
      </trkpt>
      <trkpt lat="49.41308" lon="5.7242">
        <ele>241.19999694824</ele>
        <time>2023-06-18T07:10:18Z</time>
      </trkpt>
      <trkpt lat="49.41318" lon="5.72419">
        <ele>241.39999389648</ele>
        <time>2023-06-18T07:10:20Z</time>
      </trkpt>
      <trkpt lat="49.41327" lon="5.72417">
        <ele>241.39999389648</ele>
        <time>2023-06-18T07:10:22Z</time>
      </trkpt>
      <trkpt lat="49.41337" lon="5.72415">
        <ele>241.80000305176</ele>
        <time>2023-06-18T07:10:24Z</time>
      </trkpt>
      <trkpt lat="49.41348" lon="5.72415">
        <ele>241.80000305176</ele>
        <time>2023-06-18T07:10:26Z</time>
      </trkpt>
      <trkpt lat="49.41355" lon="5.72419">
        <ele>241.80000305176</ele>
        <time>2023-06-18T07:10:28Z</time>
      </trkpt>
      <trkpt lat="49.41356" lon="5.72422">
        <ele>242</ele>
        <time>2023-06-18T07:10:29Z</time>
      </trkpt>
      <trkpt lat="49.41356" lon="5.72424">
        <ele>242</ele>
        <time>2023-06-18T07:10:30Z</time>
      </trkpt>
      <trkpt lat="49.41354" lon="5.72427">
        <ele>242.19999694824</ele>
        <time>2023-06-18T07:10:32Z</time>
      </trkpt>
      <trkpt lat="49.41353" lon="5.72429">
        <ele>242.19999694824</ele>
        <time>2023-06-18T07:10:33Z</time>
      </trkpt>
      <trkpt lat="49.41353" lon="5.72431">
        <ele>242.19999694824</ele>
        <time>2023-06-18T07:10:34Z</time>
      </trkpt>
      <trkpt lat="49.41353" lon="5.72435">
        <ele>242.39999389648</ele>
        <time>2023-06-18T07:10:36Z</time>
      </trkpt>
      <trkpt lat="49.41352" lon="5.72439">
        <ele>242.39999389648</ele>
        <time>2023-06-18T07:10:38Z</time>
      </trkpt>
      <trkpt lat="49.41353" lon="5.72441">
        <ele>242.39999389648</ele>
        <time>2023-06-18T07:10:39Z</time>
      </trkpt>
      <trkpt lat="49.41353" lon="5.72443">
        <ele>242.60000610352</ele>
        <time>2023-06-18T07:10:40Z</time>
      </trkpt>
      <trkpt lat="49.41353" lon="5.72445">
        <ele>243</ele>
        <time>2023-06-18T07:10:41Z</time>
      </trkpt>
      <trkpt lat="49.41353" lon="5.72448">
        <ele>243.39999389648</ele>
        <time>2023-06-18T07:10:42Z</time>
      </trkpt>
      <trkpt lat="49.41352" lon="5.72453">
        <ele>243.80000305176</ele>
        <time>2023-06-18T07:10:44Z</time>
      </trkpt>
      <trkpt lat="49.41352" lon="5.72458">
        <ele>244.39999389648</ele>
        <time>2023-06-18T07:10:46Z</time>
      </trkpt>
      <trkpt lat="49.41352" lon="5.7246">
        <ele>244.80000305176</ele>
        <time>2023-06-18T07:10:47Z</time>
      </trkpt>
      <trkpt lat="49.41352" lon="5.72462">
        <ele>245</ele>
        <time>2023-06-18T07:10:48Z</time>
      </trkpt>
      <trkpt lat="49.41352" lon="5.72466">
        <ele>245.60000610352</ele>
        <time>2023-06-18T07:10:50Z</time>
      </trkpt>
      <trkpt lat="49.41352" lon="5.72469">
        <ele>245.80000305176</ele>
        <time>2023-06-18T07:10:51Z</time>
      </trkpt>
      <trkpt lat="49.41352" lon="5.72472">
        <ele>246</ele>
        <time>2023-06-18T07:10:52Z</time>
      </trkpt>
      <trkpt lat="49.41352" lon="5.72475">
        <ele>246.80000305176</ele>
        <time>2023-06-18T07:10:53Z</time>
      </trkpt>
      <trkpt lat="49.41352" lon="5.72477">
        <ele>247</ele>
        <time>2023-06-18T07:10:54Z</time>
      </trkpt>
      <trkpt lat="49.41352" lon="5.72481">
        <ele>247.80000305176</ele>
        <time>2023-06-18T07:10:56Z</time>
      </trkpt>
      <trkpt lat="49.41353" lon="5.72485">
        <ele>248.39999389648</ele>
        <time>2023-06-18T07:10:58Z</time>
      </trkpt>
      <trkpt lat="49.41353" lon="5.7249">
        <ele>248.80000305176</ele>
        <time>2023-06-18T07:11:00Z</time>
      </trkpt>
      <trkpt lat="49.41354" lon="5.72495">
        <ele>249.39999389648</ele>
        <time>2023-06-18T07:11:02Z</time>
      </trkpt>
      <trkpt lat="49.41354" lon="5.72501">
        <ele>250</ele>
        <time>2023-06-18T07:11:04Z</time>
      </trkpt>
      <trkpt lat="49.41354" lon="5.72507">
        <ele>250.39999389648</ele>
        <time>2023-06-18T07:11:06Z</time>
      </trkpt>
      <trkpt lat="49.41353" lon="5.72512">
        <ele>250.80000305176</ele>
        <time>2023-06-18T07:11:08Z</time>
      </trkpt>
      <trkpt lat="49.41353" lon="5.72515">
        <ele>251.19999694824</ele>
        <time>2023-06-18T07:11:09Z</time>
      </trkpt>
      <trkpt lat="49.41353" lon="5.72518">
        <ele>251.39999389648</ele>
        <time>2023-06-18T07:11:10Z</time>
      </trkpt>
      <trkpt lat="49.41353" lon="5.72524">
        <ele>252</ele>
        <time>2023-06-18T07:11:12Z</time>
      </trkpt>
      <trkpt lat="49.41352" lon="5.72529">
        <ele>252.39999389648</ele>
        <time>2023-06-18T07:11:14Z</time>
      </trkpt>
      <trkpt lat="49.41352" lon="5.72535">
        <ele>252.60000610352</ele>
        <time>2023-06-18T07:11:16Z</time>
      </trkpt>
      <trkpt lat="49.41351" lon="5.72541">
        <ele>253.19999694824</ele>
        <time>2023-06-18T07:11:18Z</time>
      </trkpt>
      <trkpt lat="49.41351" lon="5.72546">
        <ele>253.60000610352</ele>
        <time>2023-06-18T07:11:20Z</time>
      </trkpt>
      <trkpt lat="49.41349" lon="5.72552">
        <ele>254.39999389648</ele>
        <time>2023-06-18T07:11:22Z</time>
      </trkpt>
      <trkpt lat="49.41349" lon="5.72558">
        <ele>254.80000305176</ele>
        <time>2023-06-18T07:11:24Z</time>
      </trkpt>
      <trkpt lat="49.41348" lon="5.72563">
        <ele>255.19999694824</ele>
        <time>2023-06-18T07:11:26Z</time>
      </trkpt>
      <trkpt lat="49.41348" lon="5.7257">
        <ele>255.60000610352</ele>
        <time>2023-06-18T07:11:28Z</time>
      </trkpt>
      <trkpt lat="49.41348" lon="5.72572">
        <ele>255.80000305176</ele>
        <time>2023-06-18T07:11:29Z</time>
      </trkpt>
      <trkpt lat="49.41349" lon="5.72575">
        <ele>256</ele>
        <time>2023-06-18T07:11:30Z</time>
      </trkpt>
      <trkpt lat="49.41349" lon="5.7258">
        <ele>256.39999389648</ele>
        <time>2023-06-18T07:11:32Z</time>
      </trkpt>
      <trkpt lat="49.41348" lon="5.72584">
        <ele>257</ele>
        <time>2023-06-18T07:11:34Z</time>
      </trkpt>
      <trkpt lat="49.41347" lon="5.72587">
        <ele>257.39999389648</ele>
        <time>2023-06-18T07:11:36Z</time>
      </trkpt>
      <trkpt lat="49.41347" lon="5.72592">
        <ele>258</ele>
        <time>2023-06-18T07:11:38Z</time>
      </trkpt>
      <trkpt lat="49.41347" lon="5.72598">
        <ele>258.39999389648</ele>
        <time>2023-06-18T07:11:40Z</time>
      </trkpt>
      <trkpt lat="49.41347" lon="5.72602">
        <ele>259</ele>
        <time>2023-06-18T07:11:42Z</time>
      </trkpt>
      <trkpt lat="49.41347" lon="5.72606">
        <ele>259.39999389648</ele>
        <time>2023-06-18T07:11:44Z</time>
      </trkpt>
      <trkpt lat="49.41347" lon="5.72611">
        <ele>259.79998779297</ele>
        <time>2023-06-18T07:11:46Z</time>
      </trkpt>
      <trkpt lat="49.41347" lon="5.72613">
        <ele>260.20001220703</ele>
        <time>2023-06-18T07:11:47Z</time>
      </trkpt>
      <trkpt lat="49.41347" lon="5.72616">
        <ele>260.39999389648</ele>
        <time>2023-06-18T07:11:48Z</time>
      </trkpt>
      <trkpt lat="49.41348" lon="5.7262">
        <ele>261</ele>
        <time>2023-06-18T07:11:50Z</time>
      </trkpt>
      <trkpt lat="49.41347" lon="5.72623">
        <ele>261.39999389648</ele>
        <time>2023-06-18T07:11:51Z</time>
      </trkpt>
      <trkpt lat="49.41347" lon="5.72626">
        <ele>261.60000610352</ele>
        <time>2023-06-18T07:11:52Z</time>
      </trkpt>
      <trkpt lat="49.41347" lon="5.72629">
        <ele>261.79998779297</ele>
        <time>2023-06-18T07:11:53Z</time>
      </trkpt>
      <trkpt lat="49.41347" lon="5.72631">
        <ele>262</ele>
        <time>2023-06-18T07:11:54Z</time>
      </trkpt>
      <trkpt lat="49.41347" lon="5.72636">
        <ele>262.60000610352</ele>
        <time>2023-06-18T07:11:56Z</time>
      </trkpt>
      <trkpt lat="49.41347" lon="5.72641">
        <ele>263.20001220703</ele>
        <time>2023-06-18T07:11:58Z</time>
      </trkpt>
      <trkpt lat="49.41347" lon="5.72645">
        <ele>263.60000610352</ele>
        <time>2023-06-18T07:12:00Z</time>
      </trkpt>
      <trkpt lat="49.41346" lon="5.72647">
        <ele>263.79998779297</ele>
        <time>2023-06-18T07:12:01Z</time>
      </trkpt>
      <trkpt lat="49.41347" lon="5.72649">
        <ele>264</ele>
        <time>2023-06-18T07:12:02Z</time>
      </trkpt>
      <trkpt lat="49.41347" lon="5.72651">
        <ele>264.39999389648</ele>
        <time>2023-06-18T07:12:03Z</time>
      </trkpt>
      <trkpt lat="49.41346" lon="5.72654">
        <ele>264.60000610352</ele>
        <time>2023-06-18T07:12:04Z</time>
      </trkpt>
      <trkpt lat="49.41346" lon="5.72659">
        <ele>265</ele>
        <time>2023-06-18T07:12:06Z</time>
      </trkpt>
      <trkpt lat="49.41346" lon="5.72664">
        <ele>265.60000610352</ele>
        <time>2023-06-18T07:12:08Z</time>
      </trkpt>
      <trkpt lat="49.41345" lon="5.72669">
        <ele>266</ele>
        <time>2023-06-18T07:12:10Z</time>
      </trkpt>
      <trkpt lat="49.41345" lon="5.72672">
        <ele>266.39999389648</ele>
        <time>2023-06-18T07:12:11Z</time>
      </trkpt>
      <trkpt lat="49.41345" lon="5.72674">
        <ele>266.79998779297</ele>
        <time>2023-06-18T07:12:12Z</time>
      </trkpt>
      <trkpt lat="49.41345" lon="5.72678">
        <ele>267.20001220703</ele>
        <time>2023-06-18T07:12:14Z</time>
      </trkpt>
      <trkpt lat="49.41346" lon="5.72679">
        <ele>267.39999389648</ele>
        <time>2023-06-18T07:12:15Z</time>
      </trkpt>
      <trkpt lat="49.41346" lon="5.7268">
        <ele>267.79998779297</ele>
        <time>2023-06-18T07:12:16Z</time>
      </trkpt>
      <trkpt lat="49.41347" lon="5.72683">
        <ele>268.60000610352</ele>
        <time>2023-06-18T07:12:18Z</time>
      </trkpt>
      <trkpt lat="49.41347" lon="5.72686">
        <ele>269</ele>
        <time>2023-06-18T07:12:20Z</time>
      </trkpt>
      <trkpt lat="49.41347" lon="5.7269">
        <ele>269.60000610352</ele>
        <time>2023-06-18T07:12:22Z</time>
      </trkpt>
      <trkpt lat="49.41347" lon="5.72692">
        <ele>269.79998779297</ele>
        <time>2023-06-18T07:12:23Z</time>
      </trkpt>
      <trkpt lat="49.41346" lon="5.72695">
        <ele>270.20001220703</ele>
        <time>2023-06-18T07:12:24Z</time>
      </trkpt>
      <trkpt lat="49.41346" lon="5.72698">
        <ele>270.39999389648</ele>
        <time>2023-06-18T07:12:25Z</time>
      </trkpt>
      <trkpt lat="49.41347" lon="5.727">
        <ele>271</ele>
        <time>2023-06-18T07:12:26Z</time>
      </trkpt>
      <trkpt lat="49.41347" lon="5.72703">
        <ele>271.20001220703</ele>
        <time>2023-06-18T07:12:27Z</time>
      </trkpt>
      <trkpt lat="49.41347" lon="5.72705">
        <ele>271.39999389648</ele>
        <time>2023-06-18T07:12:28Z</time>
      </trkpt>
      <trkpt lat="49.41347" lon="5.72711">
        <ele>271.79998779297</ele>
        <time>2023-06-18T07:12:30Z</time>
      </trkpt>
      <trkpt lat="49.41348" lon="5.72716">
        <ele>272.20001220703</ele>
        <time>2023-06-18T07:12:32Z</time>
      </trkpt>
      <trkpt lat="49.41348" lon="5.72718">
        <ele>272.20001220703</ele>
        <time>2023-06-18T07:12:33Z</time>
      </trkpt>
      <trkpt lat="49.41348" lon="5.72721">
        <ele>272.39999389648</ele>
        <time>2023-06-18T07:12:34Z</time>
      </trkpt>
      <trkpt lat="49.41349" lon="5.72726">
        <ele>272.79998779297</ele>
        <time>2023-06-18T07:12:36Z</time>
      </trkpt>
      <trkpt lat="49.41349" lon="5.72731">
        <ele>273.39999389648</ele>
        <time>2023-06-18T07:12:38Z</time>
      </trkpt>
      <trkpt lat="49.41349" lon="5.72735">
        <ele>273.79998779297</ele>
        <time>2023-06-18T07:12:40Z</time>
      </trkpt>
      <trkpt lat="49.41349" lon="5.72739">
        <ele>274.20001220703</ele>
        <time>2023-06-18T07:12:42Z</time>
      </trkpt>
      <trkpt lat="49.41349" lon="5.72741">
        <ele>274.39999389648</ele>
        <time>2023-06-18T07:12:43Z</time>
      </trkpt>
      <trkpt lat="49.41349" lon="5.72743">
        <ele>274.60000610352</ele>
        <time>2023-06-18T07:12:44Z</time>
      </trkpt>
      <trkpt lat="49.41349" lon="5.72748">
        <ele>275.39999389648</ele>
        <time>2023-06-18T07:12:46Z</time>
      </trkpt>
      <trkpt lat="49.41349" lon="5.7275">
        <ele>275.60000610352</ele>
        <time>2023-06-18T07:12:47Z</time>
      </trkpt>
      <trkpt lat="49.41349" lon="5.72753">
        <ele>276</ele>
        <time>2023-06-18T07:12:48Z</time>
      </trkpt>
      <trkpt lat="49.41349" lon="5.72756">
        <ele>276.60000610352</ele>
        <time>2023-06-18T07:12:50Z</time>
      </trkpt>
      <trkpt lat="49.4135" lon="5.72762">
        <ele>277.20001220703</ele>
        <time>2023-06-18T07:12:52Z</time>
      </trkpt>
      <trkpt lat="49.41351" lon="5.72767">
        <ele>277.39999389648</ele>
        <time>2023-06-18T07:12:54Z</time>
      </trkpt>
      <trkpt lat="49.41352" lon="5.72773">
        <ele>277.79998779297</ele>
        <time>2023-06-18T07:12:56Z</time>
      </trkpt>
      <trkpt lat="49.41353" lon="5.72778">
        <ele>278.20001220703</ele>
        <time>2023-06-18T07:12:58Z</time>
      </trkpt>
      <trkpt lat="49.41354" lon="5.72781">
        <ele>278.20001220703</ele>
        <time>2023-06-18T07:12:59Z</time>
      </trkpt>
      <trkpt lat="49.41354" lon="5.72783">
        <ele>278.20001220703</ele>
        <time>2023-06-18T07:13:00Z</time>
      </trkpt>
      <trkpt lat="49.41356" lon="5.72788">
        <ele>278.39999389648</ele>
        <time>2023-06-18T07:13:02Z</time>
      </trkpt>
      <trkpt lat="49.41358" lon="5.72793">
        <ele>278.39999389648</ele>
        <time>2023-06-18T07:13:04Z</time>
      </trkpt>
      <trkpt lat="49.41358" lon="5.72796">
        <ele>278.39999389648</ele>
        <time>2023-06-18T07:13:05Z</time>
      </trkpt>
      <trkpt lat="49.41359" lon="5.72799">
        <ele>278.60000610352</ele>
        <time>2023-06-18T07:13:06Z</time>
      </trkpt>
      <trkpt lat="49.41361" lon="5.72805">
        <ele>278.60000610352</ele>
        <time>2023-06-18T07:13:08Z</time>
      </trkpt>
      <trkpt lat="49.41363" lon="5.72812">
        <ele>278.60000610352</ele>
        <time>2023-06-18T07:13:10Z</time>
      </trkpt>
      <trkpt lat="49.41365" lon="5.72818">
        <ele>278.79998779297</ele>
        <time>2023-06-18T07:13:12Z</time>
      </trkpt>
      <trkpt lat="49.41366" lon="5.72824">
        <ele>279.20001220703</ele>
        <time>2023-06-18T07:13:14Z</time>
      </trkpt>
      <trkpt lat="49.4137" lon="5.7283">
        <ele>279.39999389648</ele>
        <time>2023-06-18T07:13:16Z</time>
      </trkpt>
      <trkpt lat="49.41373" lon="5.72837">
        <ele>279.39999389648</ele>
        <time>2023-06-18T07:13:18Z</time>
      </trkpt>
      <trkpt lat="49.41375" lon="5.7284">
        <ele>279.39999389648</ele>
        <time>2023-06-18T07:13:19Z</time>
      </trkpt>
      <trkpt lat="49.41376" lon="5.72843">
        <ele>279.60000610352</ele>
        <time>2023-06-18T07:13:20Z</time>
      </trkpt>
      <trkpt lat="49.41377" lon="5.72846">
        <ele>279.60000610352</ele>
        <time>2023-06-18T07:13:21Z</time>
      </trkpt>
      <trkpt lat="49.41377" lon="5.72849">
        <ele>279.60000610352</ele>
        <time>2023-06-18T07:13:22Z</time>
      </trkpt>
      <trkpt lat="49.41378" lon="5.72855">
        <ele>279.79998779297</ele>
        <time>2023-06-18T07:13:24Z</time>
      </trkpt>
      <trkpt lat="49.41379" lon="5.72858">
        <ele>279.79998779297</ele>
        <time>2023-06-18T07:13:25Z</time>
      </trkpt>
      <trkpt lat="49.4138" lon="5.72861">
        <ele>279.79998779297</ele>
        <time>2023-06-18T07:13:26Z</time>
      </trkpt>
      <trkpt lat="49.41382" lon="5.72868">
        <ele>280</ele>
        <time>2023-06-18T07:13:28Z</time>
      </trkpt>
      <trkpt lat="49.41385" lon="5.72877">
        <ele>280</ele>
        <time>2023-06-18T07:13:30Z</time>
      </trkpt>
      <trkpt lat="49.41386" lon="5.72885">
        <ele>280</ele>
        <time>2023-06-18T07:13:32Z</time>
      </trkpt>
      <trkpt lat="49.41387" lon="5.72892">
        <ele>280.20001220703</ele>
        <time>2023-06-18T07:13:34Z</time>
      </trkpt>
      <trkpt lat="49.41389" lon="5.729">
        <ele>280.20001220703</ele>
        <time>2023-06-18T07:13:36Z</time>
      </trkpt>
      <trkpt lat="49.41391" lon="5.72907">
        <ele>280.20001220703</ele>
        <time>2023-06-18T07:13:38Z</time>
      </trkpt>
      <trkpt lat="49.41392" lon="5.72912">
        <ele>280.39999389648</ele>
        <time>2023-06-18T07:13:39Z</time>
      </trkpt>
      <trkpt lat="49.41393" lon="5.72915">
        <ele>280.39999389648</ele>
        <time>2023-06-18T07:13:40Z</time>
      </trkpt>
      <trkpt lat="49.41395" lon="5.72919">
        <ele>280.39999389648</ele>
        <time>2023-06-18T07:13:41Z</time>
      </trkpt>
      <trkpt lat="49.41397" lon="5.72924">
        <ele>280.39999389648</ele>
        <time>2023-06-18T07:13:42Z</time>
      </trkpt>
      <trkpt lat="49.41399" lon="5.72931">
        <ele>280.39999389648</ele>
        <time>2023-06-18T07:13:44Z</time>
      </trkpt>
      <trkpt lat="49.414" lon="5.72935">
        <ele>280.39999389648</ele>
        <time>2023-06-18T07:13:45Z</time>
      </trkpt>
      <trkpt lat="49.414" lon="5.72938">
        <ele>280.39999389648</ele>
        <time>2023-06-18T07:13:46Z</time>
      </trkpt>
      <trkpt lat="49.41404" lon="5.72946">
        <ele>280.39999389648</ele>
        <time>2023-06-18T07:13:48Z</time>
      </trkpt>
      <trkpt lat="49.41407" lon="5.72953">
        <ele>280.39999389648</ele>
        <time>2023-06-18T07:13:50Z</time>
      </trkpt>
      <trkpt lat="49.41409" lon="5.72961">
        <ele>280.39999389648</ele>
        <time>2023-06-18T07:13:52Z</time>
      </trkpt>
      <trkpt lat="49.4141" lon="5.7297">
        <ele>280.39999389648</ele>
        <time>2023-06-18T07:13:54Z</time>
      </trkpt>
      <trkpt lat="49.41413" lon="5.72976">
        <ele>280.39999389648</ele>
        <time>2023-06-18T07:13:56Z</time>
      </trkpt>
      <trkpt lat="49.41416" lon="5.72982">
        <ele>280.39999389648</ele>
        <time>2023-06-18T07:13:58Z</time>
      </trkpt>
      <trkpt lat="49.41419" lon="5.72988">
        <ele>280.60000610352</ele>
        <time>2023-06-18T07:14:00Z</time>
      </trkpt>
      <trkpt lat="49.41421" lon="5.7299">
        <ele>280.60000610352</ele>
        <time>2023-06-18T07:14:01Z</time>
      </trkpt>
      <trkpt lat="49.41423" lon="5.72993">
        <ele>280.79998779297</ele>
        <time>2023-06-18T07:14:02Z</time>
      </trkpt>
      <trkpt lat="49.41425" lon="5.72997">
        <ele>281</ele>
        <time>2023-06-18T07:14:03Z</time>
      </trkpt>
      <trkpt lat="49.41427" lon="5.73">
        <ele>281</ele>
        <time>2023-06-18T07:14:04Z</time>
      </trkpt>
      <trkpt lat="49.4143" lon="5.73006">
        <ele>281.20001220703</ele>
        <time>2023-06-18T07:14:06Z</time>
      </trkpt>
      <trkpt lat="49.41431" lon="5.73009">
        <ele>281.39999389648</ele>
        <time>2023-06-18T07:14:07Z</time>
      </trkpt>
      <trkpt lat="49.41433" lon="5.73013">
        <ele>281.39999389648</ele>
        <time>2023-06-18T07:14:08Z</time>
      </trkpt>
      <trkpt lat="49.41437" lon="5.73021">
        <ele>281.39999389648</ele>
        <time>2023-06-18T07:14:10Z</time>
      </trkpt>
      <trkpt lat="49.41441" lon="5.73028">
        <ele>281.60000610352</ele>
        <time>2023-06-18T07:14:12Z</time>
      </trkpt>
      <trkpt lat="49.41444" lon="5.73036">
        <ele>281.60000610352</ele>
        <time>2023-06-18T07:14:14Z</time>
      </trkpt>
      <trkpt lat="49.41446" lon="5.73044">
        <ele>281.79998779297</ele>
        <time>2023-06-18T07:14:16Z</time>
      </trkpt>
      <trkpt lat="49.41448" lon="5.73054">
        <ele>281.79998779297</ele>
        <time>2023-06-18T07:14:18Z</time>
      </trkpt>
      <trkpt lat="49.41451" lon="5.73062">
        <ele>281.79998779297</ele>
        <time>2023-06-18T07:14:20Z</time>
      </trkpt>
      <trkpt lat="49.41455" lon="5.73069">
        <ele>281.79998779297</ele>
        <time>2023-06-18T07:14:22Z</time>
      </trkpt>
      <trkpt lat="49.41456" lon="5.73073">
        <ele>282</ele>
        <time>2023-06-18T07:14:23Z</time>
      </trkpt>
      <trkpt lat="49.41457" lon="5.73076">
        <ele>282</ele>
        <time>2023-06-18T07:14:24Z</time>
      </trkpt>
      <trkpt lat="49.41458" lon="5.73082">
        <ele>281.79998779297</ele>
        <time>2023-06-18T07:14:26Z</time>
      </trkpt>
      <trkpt lat="49.41461" lon="5.73092">
        <ele>282</ele>
        <time>2023-06-18T07:14:28Z</time>
      </trkpt>
      <trkpt lat="49.41462" lon="5.73095">
        <ele>282.20001220703</ele>
        <time>2023-06-18T07:14:29Z</time>
      </trkpt>
      <trkpt lat="49.41464" lon="5.73099">
        <ele>282.20001220703</ele>
        <time>2023-06-18T07:14:30Z</time>
      </trkpt>
      <trkpt lat="49.41467" lon="5.73107">
        <ele>282.60000610352</ele>
        <time>2023-06-18T07:14:32Z</time>
      </trkpt>
      <trkpt lat="49.4147" lon="5.73113">
        <ele>282.60000610352</ele>
        <time>2023-06-18T07:14:34Z</time>
      </trkpt>
      <trkpt lat="49.41472" lon="5.73117">
        <ele>282.79998779297</ele>
        <time>2023-06-18T07:14:35Z</time>
      </trkpt>
      <trkpt lat="49.41474" lon="5.7312">
        <ele>283.20001220703</ele>
        <time>2023-06-18T07:14:36Z</time>
      </trkpt>
      <trkpt lat="49.4148" lon="5.73129">
        <ele>283.79998779297</ele>
        <time>2023-06-18T07:14:38Z</time>
      </trkpt>
      <trkpt lat="49.41484" lon="5.73139">
        <ele>284.39999389648</ele>
        <time>2023-06-18T07:14:40Z</time>
      </trkpt>
      <trkpt lat="49.41486" lon="5.73146">
        <ele>285</ele>
        <time>2023-06-18T07:14:42Z</time>
      </trkpt>
      <trkpt lat="49.41489" lon="5.73151">
        <ele>285.60000610352</ele>
        <time>2023-06-18T07:14:44Z</time>
      </trkpt>
      <trkpt lat="49.41492" lon="5.73156">
        <ele>285.79998779297</ele>
        <time>2023-06-18T07:14:46Z</time>
      </trkpt>
      <trkpt lat="49.41496" lon="5.73161">
        <ele>286.39999389648</ele>
        <time>2023-06-18T07:14:48Z</time>
      </trkpt>
      <trkpt lat="49.41499" lon="5.73165">
        <ele>286.60000610352</ele>
        <time>2023-06-18T07:14:50Z</time>
      </trkpt>
      <trkpt lat="49.41501" lon="5.73169">
        <ele>286.79998779297</ele>
        <time>2023-06-18T07:14:52Z</time>
      </trkpt>
      <trkpt lat="49.41504" lon="5.73173">
        <ele>286.79998779297</ele>
        <time>2023-06-18T07:14:54Z</time>
      </trkpt>
      <trkpt lat="49.41509" lon="5.73176">
        <ele>287</ele>
        <time>2023-06-18T07:14:56Z</time>
      </trkpt>
      <trkpt lat="49.41516" lon="5.7318">
        <ele>287</ele>
        <time>2023-06-18T07:14:58Z</time>
      </trkpt>
      <trkpt lat="49.41523" lon="5.73183">
        <ele>287</ele>
        <time>2023-06-18T07:14:59Z</time>
      </trkpt>
      <trkpt lat="49.41527" lon="5.73184">
        <ele>287</ele>
        <time>2023-06-18T07:15:00Z</time>
      </trkpt>
      <trkpt lat="49.41534" lon="5.73187">
        <ele>287</ele>
        <time>2023-06-18T07:15:02Z</time>
      </trkpt>
      <trkpt lat="49.41541" lon="5.7319">
        <ele>287</ele>
        <time>2023-06-18T07:15:04Z</time>
      </trkpt>
      <trkpt lat="49.41545" lon="5.73193">
        <ele>287</ele>
        <time>2023-06-18T07:15:05Z</time>
      </trkpt>
      <trkpt lat="49.4155" lon="5.73198">
        <ele>287</ele>
        <time>2023-06-18T07:15:06Z</time>
      </trkpt>
      <trkpt lat="49.41554" lon="5.73204">
        <ele>287</ele>
        <time>2023-06-18T07:15:07Z</time>
      </trkpt>
      <trkpt lat="49.41558" lon="5.73208">
        <ele>286.79998779297</ele>
        <time>2023-06-18T07:15:08Z</time>
      </trkpt>
      <trkpt lat="49.41566" lon="5.73214">
        <ele>286</ele>
        <time>2023-06-18T07:15:10Z</time>
      </trkpt>
      <trkpt lat="49.41572" lon="5.73221">
        <ele>284.79998779297</ele>
        <time>2023-06-18T07:15:12Z</time>
      </trkpt>
      <trkpt lat="49.41577" lon="5.73228">
        <ele>284.20001220703</ele>
        <time>2023-06-18T07:15:14Z</time>
      </trkpt>
      <trkpt lat="49.41584" lon="5.73235">
        <ele>284</ele>
        <time>2023-06-18T07:15:16Z</time>
      </trkpt>
      <trkpt lat="49.41588" lon="5.73243">
        <ele>284</ele>
        <time>2023-06-18T07:15:18Z</time>
      </trkpt>
      <trkpt lat="49.41595" lon="5.7325">
        <ele>284</ele>
        <time>2023-06-18T07:15:20Z</time>
      </trkpt>
      <trkpt lat="49.41602" lon="5.73258">
        <ele>284</ele>
        <time>2023-06-18T07:15:22Z</time>
      </trkpt>
      <trkpt lat="49.41609" lon="5.73267">
        <ele>284.20001220703</ele>
        <time>2023-06-18T07:15:24Z</time>
      </trkpt>
      <trkpt lat="49.41615" lon="5.73272">
        <ele>284.39999389648</ele>
        <time>2023-06-18T07:15:26Z</time>
      </trkpt>
      <trkpt lat="49.41621" lon="5.73277">
        <ele>284.60000610352</ele>
        <time>2023-06-18T07:15:28Z</time>
      </trkpt>
      <trkpt lat="49.41625" lon="5.73283">
        <ele>284.79998779297</ele>
        <time>2023-06-18T07:15:30Z</time>
      </trkpt>
      <trkpt lat="49.41628" lon="5.7329">
        <ele>285</ele>
        <time>2023-06-18T07:15:32Z</time>
      </trkpt>
      <trkpt lat="49.41632" lon="5.73298">
        <ele>285</ele>
        <time>2023-06-18T07:15:34Z</time>
      </trkpt>
      <trkpt lat="49.41634" lon="5.73301">
        <ele>285</ele>
        <time>2023-06-18T07:15:35Z</time>
      </trkpt>
      <trkpt lat="49.41636" lon="5.73305">
        <ele>285</ele>
        <time>2023-06-18T07:15:36Z</time>
      </trkpt>
      <trkpt lat="49.41642" lon="5.7331">
        <ele>285</ele>
        <time>2023-06-18T07:15:38Z</time>
      </trkpt>
      <trkpt lat="49.41646" lon="5.73318">
        <ele>285</ele>
        <time>2023-06-18T07:15:40Z</time>
      </trkpt>
      <trkpt lat="49.41651" lon="5.73328">
        <ele>285</ele>
        <time>2023-06-18T07:15:42Z</time>
      </trkpt>
      <trkpt lat="49.41654" lon="5.73337">
        <ele>285</ele>
        <time>2023-06-18T07:15:44Z</time>
      </trkpt>
      <trkpt lat="49.41656" lon="5.73341">
        <ele>285</ele>
        <time>2023-06-18T07:15:45Z</time>
      </trkpt>
      <trkpt lat="49.41658" lon="5.73344">
        <ele>285</ele>
        <time>2023-06-18T07:15:46Z</time>
      </trkpt>
      <trkpt lat="49.41661" lon="5.73353">
        <ele>285</ele>
        <time>2023-06-18T07:15:48Z</time>
      </trkpt>
      <trkpt lat="49.41665" lon="5.73361">
        <ele>285</ele>
        <time>2023-06-18T07:15:50Z</time>
      </trkpt>
      <trkpt lat="49.41667" lon="5.73368">
        <ele>285</ele>
        <time>2023-06-18T07:15:52Z</time>
      </trkpt>
      <trkpt lat="49.41669" lon="5.73375">
        <ele>285.20001220703</ele>
        <time>2023-06-18T07:15:54Z</time>
      </trkpt>
      <trkpt lat="49.41671" lon="5.73383">
        <ele>285.39999389648</ele>
        <time>2023-06-18T07:15:56Z</time>
      </trkpt>
      <trkpt lat="49.41675" lon="5.73391">
        <ele>285.79998779297</ele>
        <time>2023-06-18T07:15:58Z</time>
      </trkpt>
      <trkpt lat="49.41677" lon="5.73397">
        <ele>286.20001220703</ele>
        <time>2023-06-18T07:16:00Z</time>
      </trkpt>
      <trkpt lat="49.41679" lon="5.734">
        <ele>286.39999389648</ele>
        <time>2023-06-18T07:16:01Z</time>
      </trkpt>
      <trkpt lat="49.4168" lon="5.73403">
        <ele>286.39999389648</ele>
        <time>2023-06-18T07:16:02Z</time>
      </trkpt>
      <trkpt lat="49.41684" lon="5.73411">
        <ele>286.39999389648</ele>
        <time>2023-06-18T07:16:04Z</time>
      </trkpt>
      <trkpt lat="49.41688" lon="5.7342">
        <ele>286.79998779297</ele>
        <time>2023-06-18T07:16:06Z</time>
      </trkpt>
      <trkpt lat="49.41689" lon="5.73424">
        <ele>286.79998779297</ele>
        <time>2023-06-18T07:16:07Z</time>
      </trkpt>
      <trkpt lat="49.41691" lon="5.73428">
        <ele>287.20001220703</ele>
        <time>2023-06-18T07:16:08Z</time>
      </trkpt>
      <trkpt lat="49.41694" lon="5.73434">
        <ele>287.60000610352</ele>
        <time>2023-06-18T07:16:10Z</time>
      </trkpt>
      <trkpt lat="49.41698" lon="5.7344">
        <ele>287.79998779297</ele>
        <time>2023-06-18T07:16:12Z</time>
      </trkpt>
      <trkpt lat="49.41699" lon="5.73443">
        <ele>288</ele>
        <time>2023-06-18T07:16:13Z</time>
      </trkpt>
      <trkpt lat="49.417" lon="5.73447">
        <ele>288.20001220703</ele>
        <time>2023-06-18T07:16:14Z</time>
      </trkpt>
      <trkpt lat="49.417" lon="5.73449">
        <ele>288.39999389648</ele>
        <time>2023-06-18T07:16:15Z</time>
      </trkpt>
      <trkpt lat="49.41702" lon="5.73452">
        <ele>288.60000610352</ele>
        <time>2023-06-18T07:16:16Z</time>
      </trkpt>
      <trkpt lat="49.41704" lon="5.73457">
        <ele>288.79998779297</ele>
        <time>2023-06-18T07:16:18Z</time>
      </trkpt>
      <trkpt lat="49.41707" lon="5.73463">
        <ele>289.20001220703</ele>
        <time>2023-06-18T07:16:20Z</time>
      </trkpt>
      <trkpt lat="49.4171" lon="5.7347">
        <ele>289.60000610352</ele>
        <time>2023-06-18T07:16:22Z</time>
      </trkpt>
      <trkpt lat="49.41714" lon="5.73478">
        <ele>290</ele>
        <time>2023-06-18T07:16:24Z</time>
      </trkpt>
      <trkpt lat="49.41717" lon="5.73486">
        <ele>290.20001220703</ele>
        <time>2023-06-18T07:16:26Z</time>
      </trkpt>
      <trkpt lat="49.41722" lon="5.73492">
        <ele>290.60000610352</ele>
        <time>2023-06-18T07:16:28Z</time>
      </trkpt>
      <trkpt lat="49.41724" lon="5.73496">
        <ele>290.60000610352</ele>
        <time>2023-06-18T07:16:29Z</time>
      </trkpt>
      <trkpt lat="49.41726" lon="5.735">
        <ele>290.60000610352</ele>
        <time>2023-06-18T07:16:30Z</time>
      </trkpt>
      <trkpt lat="49.41729" lon="5.73506">
        <ele>290.79998779297</ele>
        <time>2023-06-18T07:16:32Z</time>
      </trkpt>
      <trkpt lat="49.41733" lon="5.73511">
        <ele>290.79998779297</ele>
        <time>2023-06-18T07:16:34Z</time>
      </trkpt>
      <trkpt lat="49.41736" lon="5.73516">
        <ele>290.79998779297</ele>
        <time>2023-06-18T07:16:36Z</time>
      </trkpt>
      <trkpt lat="49.4174" lon="5.73522">
        <ele>291</ele>
        <time>2023-06-18T07:16:38Z</time>
      </trkpt>
      <trkpt lat="49.41743" lon="5.73524">
        <ele>291</ele>
        <time>2023-06-18T07:16:39Z</time>
      </trkpt>
      <trkpt lat="49.41745" lon="5.73527">
        <ele>291</ele>
        <time>2023-06-18T07:16:40Z</time>
      </trkpt>
      <trkpt lat="49.41749" lon="5.73533">
        <ele>291</ele>
        <time>2023-06-18T07:16:42Z</time>
      </trkpt>
      <trkpt lat="49.41753" lon="5.73537">
        <ele>291</ele>
        <time>2023-06-18T07:16:44Z</time>
      </trkpt>
      <trkpt lat="49.41758" lon="5.73542">
        <ele>291</ele>
        <time>2023-06-18T07:16:46Z</time>
      </trkpt>
      <trkpt lat="49.41765" lon="5.73549">
        <ele>291</ele>
        <time>2023-06-18T07:16:48Z</time>
      </trkpt>
      <trkpt lat="49.41771" lon="5.73555">
        <ele>291</ele>
        <time>2023-06-18T07:16:50Z</time>
      </trkpt>
      <trkpt lat="49.41774" lon="5.73557">
        <ele>290.79998779297</ele>
        <time>2023-06-18T07:16:51Z</time>
      </trkpt>
      <trkpt lat="49.41776" lon="5.7356">
        <ele>290.79998779297</ele>
        <time>2023-06-18T07:16:52Z</time>
      </trkpt>
      <trkpt lat="49.4178" lon="5.73567">
        <ele>290.79998779297</ele>
        <time>2023-06-18T07:16:54Z</time>
      </trkpt>
      <trkpt lat="49.41784" lon="5.73573">
        <ele>290.79998779297</ele>
        <time>2023-06-18T07:16:56Z</time>
      </trkpt>
      <trkpt lat="49.41787" lon="5.73577">
        <ele>290.79998779297</ele>
        <time>2023-06-18T07:16:57Z</time>
      </trkpt>
      <trkpt lat="49.4179" lon="5.73582">
        <ele>290.79998779297</ele>
        <time>2023-06-18T07:16:58Z</time>
      </trkpt>
      <trkpt lat="49.41798" lon="5.73588">
        <ele>290.79998779297</ele>
        <time>2023-06-18T07:17:00Z</time>
      </trkpt>
      <trkpt lat="49.41802" lon="5.73594">
        <ele>290.79998779297</ele>
        <time>2023-06-18T07:17:02Z</time>
      </trkpt>
      <trkpt lat="49.41805" lon="5.73596">
        <ele>290.79998779297</ele>
        <time>2023-06-18T07:17:03Z</time>
      </trkpt>
      <trkpt lat="49.41807" lon="5.73599">
        <ele>290.79998779297</ele>
        <time>2023-06-18T07:17:04Z</time>
      </trkpt>
      <trkpt lat="49.4181" lon="5.73605">
        <ele>290.79998779297</ele>
        <time>2023-06-18T07:17:06Z</time>
      </trkpt>
      <trkpt lat="49.41812" lon="5.73609">
        <ele>291</ele>
        <time>2023-06-18T07:17:07Z</time>
      </trkpt>
      <trkpt lat="49.41814" lon="5.73611">
        <ele>291.20001220703</ele>
        <time>2023-06-18T07:17:08Z</time>
      </trkpt>
      <trkpt lat="49.41819" lon="5.73617">
        <ele>291.39999389648</ele>
        <time>2023-06-18T07:17:10Z</time>
      </trkpt>
      <trkpt lat="49.41822" lon="5.73622">
        <ele>291.79998779297</ele>
        <time>2023-06-18T07:17:12Z</time>
      </trkpt>
      <trkpt lat="49.41823" lon="5.73625">
        <ele>292</ele>
        <time>2023-06-18T07:17:13Z</time>
      </trkpt>
      <trkpt lat="49.41825" lon="5.73628">
        <ele>292.20001220703</ele>
        <time>2023-06-18T07:17:14Z</time>
      </trkpt>
      <trkpt lat="49.41832" lon="5.73635">
        <ele>292.60000610352</ele>
        <time>2023-06-18T07:17:16Z</time>
      </trkpt>
      <trkpt lat="49.41837" lon="5.73644">
        <ele>292.79998779297</ele>
        <time>2023-06-18T07:17:18Z</time>
      </trkpt>
      <trkpt lat="49.41843" lon="5.73652">
        <ele>293</ele>
        <time>2023-06-18T07:17:20Z</time>
      </trkpt>
      <trkpt lat="49.41845" lon="5.73656">
        <ele>293</ele>
        <time>2023-06-18T07:17:21Z</time>
      </trkpt>
      <trkpt lat="49.41846" lon="5.7366">
        <ele>293.20001220703</ele>
        <time>2023-06-18T07:17:22Z</time>
      </trkpt>
      <trkpt lat="49.41848" lon="5.73663">
        <ele>293.39999389648</ele>
        <time>2023-06-18T07:17:23Z</time>
      </trkpt>
      <trkpt lat="49.4185" lon="5.73667">
        <ele>293.39999389648</ele>
        <time>2023-06-18T07:17:24Z</time>
      </trkpt>
      <trkpt lat="49.41856" lon="5.73673">
        <ele>293.79998779297</ele>
        <time>2023-06-18T07:17:26Z</time>
      </trkpt>
      <trkpt lat="49.4186" lon="5.73676">
        <ele>294</ele>
        <time>2023-06-18T07:17:28Z</time>
      </trkpt>
      <trkpt lat="49.41863" lon="5.73677">
        <ele>294.20001220703</ele>
        <time>2023-06-18T07:17:29Z</time>
      </trkpt>
      <trkpt lat="49.41867" lon="5.73679">
        <ele>294.60000610352</ele>
        <time>2023-06-18T07:17:30Z</time>
      </trkpt>
      <trkpt lat="49.4187" lon="5.73682">
        <ele>295</ele>
        <time>2023-06-18T07:17:31Z</time>
      </trkpt>
      <trkpt lat="49.41872" lon="5.73685">
        <ele>295.60000610352</ele>
        <time>2023-06-18T07:17:32Z</time>
      </trkpt>
      <trkpt lat="49.41877" lon="5.7369">
        <ele>296.20001220703</ele>
        <time>2023-06-18T07:17:34Z</time>
      </trkpt>
      <trkpt lat="49.41878" lon="5.73691">
        <ele>296.20001220703</ele>
        <time>2023-06-18T07:17:35Z</time>
      </trkpt>
      <trkpt lat="49.41879" lon="5.73693">
        <ele>296.39999389648</ele>
        <time>2023-06-18T07:17:36Z</time>
      </trkpt>
      <trkpt lat="49.41884" lon="5.737">
        <ele>296.60000610352</ele>
        <time>2023-06-18T07:17:38Z</time>
      </trkpt>
      <trkpt lat="49.41886" lon="5.73702">
        <ele>296.79998779297</ele>
        <time>2023-06-18T07:17:39Z</time>
      </trkpt>
      <trkpt lat="49.41888" lon="5.73705">
        <ele>297</ele>
        <time>2023-06-18T07:17:40Z</time>
      </trkpt>
      <trkpt lat="49.41894" lon="5.73711">
        <ele>297</ele>
        <time>2023-06-18T07:17:42Z</time>
      </trkpt>
      <trkpt lat="49.41899" lon="5.73716">
        <ele>297.20001220703</ele>
        <time>2023-06-18T07:17:44Z</time>
      </trkpt>
      <trkpt lat="49.41904" lon="5.73723">
        <ele>297.39999389648</ele>
        <time>2023-06-18T07:17:46Z</time>
      </trkpt>
      <trkpt lat="49.41908" lon="5.73729">
        <ele>297.60000610352</ele>
        <time>2023-06-18T07:17:48Z</time>
      </trkpt>
      <trkpt lat="49.4191" lon="5.73733">
        <ele>297.60000610352</ele>
        <time>2023-06-18T07:17:49Z</time>
      </trkpt>
      <trkpt lat="49.41912" lon="5.73737">
        <ele>297.79998779297</ele>
        <time>2023-06-18T07:17:50Z</time>
      </trkpt>
      <trkpt lat="49.41915" lon="5.73745">
        <ele>298</ele>
        <time>2023-06-18T07:17:52Z</time>
      </trkpt>
      <trkpt lat="49.41917" lon="5.73748">
        <ele>298.20001220703</ele>
        <time>2023-06-18T07:17:53Z</time>
      </trkpt>
      <trkpt lat="49.41918" lon="5.73751">
        <ele>298.20001220703</ele>
        <time>2023-06-18T07:17:54Z</time>
      </trkpt>
      <trkpt lat="49.41921" lon="5.73758">
        <ele>298.39999389648</ele>
        <time>2023-06-18T07:17:56Z</time>
      </trkpt>
      <trkpt lat="49.41922" lon="5.73765">
        <ele>298.60000610352</ele>
        <time>2023-06-18T07:17:58Z</time>
      </trkpt>
      <trkpt lat="49.41923" lon="5.73772">
        <ele>299.20001220703</ele>
        <time>2023-06-18T07:18:00Z</time>
      </trkpt>
      <trkpt lat="49.41924" lon="5.73776">
        <ele>299.20001220703</ele>
        <time>2023-06-18T07:18:01Z</time>
      </trkpt>
      <trkpt lat="49.41925" lon="5.73779">
        <ele>299.60000610352</ele>
        <time>2023-06-18T07:18:02Z</time>
      </trkpt>
      <trkpt lat="49.41927" lon="5.73787">
        <ele>300.20001220703</ele>
        <time>2023-06-18T07:18:04Z</time>
      </trkpt>
      <trkpt lat="49.41928" lon="5.7379">
        <ele>300.39999389648</ele>
        <time>2023-06-18T07:18:05Z</time>
      </trkpt>
      <trkpt lat="49.41928" lon="5.73794">
        <ele>301</ele>
        <time>2023-06-18T07:18:06Z</time>
      </trkpt>
      <trkpt lat="49.41928" lon="5.73798">
        <ele>301.60000610352</ele>
        <time>2023-06-18T07:18:07Z</time>
      </trkpt>
      <trkpt lat="49.41928" lon="5.73801">
        <ele>302</ele>
        <time>2023-06-18T07:18:08Z</time>
      </trkpt>
      <trkpt lat="49.41929" lon="5.73809">
        <ele>302.39999389648</ele>
        <time>2023-06-18T07:18:10Z</time>
      </trkpt>
      <trkpt lat="49.41929" lon="5.73812">
        <ele>302.79998779297</ele>
        <time>2023-06-18T07:18:11Z</time>
      </trkpt>
      <trkpt lat="49.41929" lon="5.73815">
        <ele>303</ele>
        <time>2023-06-18T07:18:12Z</time>
      </trkpt>
      <trkpt lat="49.41929" lon="5.73818">
        <ele>303.20001220703</ele>
        <time>2023-06-18T07:18:13Z</time>
      </trkpt>
      <trkpt lat="49.4193" lon="5.73821">
        <ele>303.60000610352</ele>
        <time>2023-06-18T07:18:14Z</time>
      </trkpt>
      <trkpt lat="49.4193" lon="5.73826">
        <ele>304</ele>
        <time>2023-06-18T07:18:16Z</time>
      </trkpt>
      <trkpt lat="49.41931" lon="5.73829">
        <ele>304.20001220703</ele>
        <time>2023-06-18T07:18:17Z</time>
      </trkpt>
      <trkpt lat="49.41931" lon="5.73831">
        <ele>304.60000610352</ele>
        <time>2023-06-18T07:18:18Z</time>
      </trkpt>
      <trkpt lat="49.41933" lon="5.73836">
        <ele>305.20001220703</ele>
        <time>2023-06-18T07:18:20Z</time>
      </trkpt>
      <trkpt lat="49.41935" lon="5.73841">
        <ele>305.39999389648</ele>
        <time>2023-06-18T07:18:22Z</time>
      </trkpt>
      <trkpt lat="49.41938" lon="5.73846">
        <ele>305.60000610352</ele>
        <time>2023-06-18T07:18:24Z</time>
      </trkpt>
      <trkpt lat="49.41939" lon="5.73849">
        <ele>305.60000610352</ele>
        <time>2023-06-18T07:18:25Z</time>
      </trkpt>
      <trkpt lat="49.41941" lon="5.73852">
        <ele>305.79998779297</ele>
        <time>2023-06-18T07:18:26Z</time>
      </trkpt>
      <trkpt lat="49.41944" lon="5.73857">
        <ele>306</ele>
        <time>2023-06-18T07:18:28Z</time>
      </trkpt>
      <trkpt lat="49.41946" lon="5.73863">
        <ele>306</ele>
        <time>2023-06-18T07:18:30Z</time>
      </trkpt>
      <trkpt lat="49.41949" lon="5.73869">
        <ele>306</ele>
        <time>2023-06-18T07:18:32Z</time>
      </trkpt>
      <trkpt lat="49.41952" lon="5.73874">
        <ele>306</ele>
        <time>2023-06-18T07:18:34Z</time>
      </trkpt>
      <trkpt lat="49.41954" lon="5.73878">
        <ele>306.20001220703</ele>
        <time>2023-06-18T07:18:36Z</time>
      </trkpt>
      <trkpt lat="49.41958" lon="5.73883">
        <ele>306.20001220703</ele>
        <time>2023-06-18T07:18:38Z</time>
      </trkpt>
      <trkpt lat="49.41959" lon="5.73885">
        <ele>306.20001220703</ele>
        <time>2023-06-18T07:18:39Z</time>
      </trkpt>
      <trkpt lat="49.4196" lon="5.73887">
        <ele>306</ele>
        <time>2023-06-18T07:18:40Z</time>
      </trkpt>
      <trkpt lat="49.41963" lon="5.73892">
        <ele>306</ele>
        <time>2023-06-18T07:18:42Z</time>
      </trkpt>
      <trkpt lat="49.41967" lon="5.73898">
        <ele>306</ele>
        <time>2023-06-18T07:18:44Z</time>
      </trkpt>
      <trkpt lat="49.41969" lon="5.73902">
        <ele>306.20001220703</ele>
        <time>2023-06-18T07:18:46Z</time>
      </trkpt>
      <trkpt lat="49.41973" lon="5.73907">
        <ele>306.39999389648</ele>
        <time>2023-06-18T07:18:48Z</time>
      </trkpt>
      <trkpt lat="49.41976" lon="5.73913">
        <ele>306.60000610352</ele>
        <time>2023-06-18T07:18:50Z</time>
      </trkpt>
      <trkpt lat="49.41978" lon="5.73916">
        <ele>306.60000610352</ele>
        <time>2023-06-18T07:18:51Z</time>
      </trkpt>
      <trkpt lat="49.4198" lon="5.73918">
        <ele>306.60000610352</ele>
        <time>2023-06-18T07:18:52Z</time>
      </trkpt>
      <trkpt lat="49.41983" lon="5.73925">
        <ele>306.79998779297</ele>
        <time>2023-06-18T07:18:54Z</time>
      </trkpt>
      <trkpt lat="49.41985" lon="5.7393">
        <ele>306.79998779297</ele>
        <time>2023-06-18T07:18:56Z</time>
      </trkpt>
      <trkpt lat="49.41987" lon="5.73933">
        <ele>306.79998779297</ele>
        <time>2023-06-18T07:18:57Z</time>
      </trkpt>
      <trkpt lat="49.41988" lon="5.73936">
        <ele>306.79998779297</ele>
        <time>2023-06-18T07:18:58Z</time>
      </trkpt>
      <trkpt lat="49.41994" lon="5.73945">
        <ele>306.79998779297</ele>
        <time>2023-06-18T07:19:00Z</time>
      </trkpt>
      <trkpt lat="49.41999" lon="5.73951">
        <ele>306.79998779297</ele>
        <time>2023-06-18T07:19:02Z</time>
      </trkpt>
      <trkpt lat="49.42002" lon="5.73954">
        <ele>306.79998779297</ele>
        <time>2023-06-18T07:19:03Z</time>
      </trkpt>
      <trkpt lat="49.42005" lon="5.73957">
        <ele>306.60000610352</ele>
        <time>2023-06-18T07:19:04Z</time>
      </trkpt>
      <trkpt lat="49.42012" lon="5.73966">
        <ele>306.60000610352</ele>
        <time>2023-06-18T07:19:06Z</time>
      </trkpt>
      <trkpt lat="49.42015" lon="5.73967">
        <ele>306.60000610352</ele>
        <time>2023-06-18T07:19:07Z</time>
      </trkpt>
      <trkpt lat="49.42019" lon="5.73968">
        <ele>306.39999389648</ele>
        <time>2023-06-18T07:19:08Z</time>
      </trkpt>
      <trkpt lat="49.4203" lon="5.73967">
        <ele>306.39999389648</ele>
        <time>2023-06-18T07:19:10Z</time>
      </trkpt>
      <trkpt lat="49.42041" lon="5.7396">
        <ele>306</ele>
        <time>2023-06-18T07:19:12Z</time>
      </trkpt>
      <trkpt lat="49.42053" lon="5.73952">
        <ele>305.39999389648</ele>
        <time>2023-06-18T07:19:14Z</time>
      </trkpt>
      <trkpt lat="49.42058" lon="5.73951">
        <ele>304.39999389648</ele>
        <time>2023-06-18T07:19:15Z</time>
      </trkpt>
      <trkpt lat="49.42063" lon="5.73952">
        <ele>303.60000610352</ele>
        <time>2023-06-18T07:19:16Z</time>
      </trkpt>
      <trkpt lat="49.42067" lon="5.73955">
        <ele>302.20001220703</ele>
        <time>2023-06-18T07:19:17Z</time>
      </trkpt>
      <trkpt lat="49.42073" lon="5.73956">
        <ele>301</ele>
        <time>2023-06-18T07:19:18Z</time>
      </trkpt>
      <trkpt lat="49.42081" lon="5.73959">
        <ele>299.60000610352</ele>
        <time>2023-06-18T07:19:20Z</time>
      </trkpt>
      <trkpt lat="49.42086" lon="5.73961">
        <ele>299</ele>
        <time>2023-06-18T07:19:21Z</time>
      </trkpt>
      <trkpt lat="49.4209" lon="5.73962">
        <ele>298.20001220703</ele>
        <time>2023-06-18T07:19:22Z</time>
      </trkpt>
      <trkpt lat="49.42096" lon="5.73966">
        <ele>297.20001220703</ele>
        <time>2023-06-18T07:19:24Z</time>
      </trkpt>
      <trkpt lat="49.421" lon="5.73969">
        <ele>296.79998779297</ele>
        <time>2023-06-18T07:19:25Z</time>
      </trkpt>
      <trkpt lat="49.42105" lon="5.73972">
        <ele>296.79998779297</ele>
        <time>2023-06-18T07:19:26Z</time>
      </trkpt>
      <trkpt lat="49.42112" lon="5.7398">
        <ele>296.79998779297</ele>
        <time>2023-06-18T07:19:28Z</time>
      </trkpt>
      <trkpt lat="49.42117" lon="5.73987">
        <ele>296.79998779297</ele>
        <time>2023-06-18T07:19:30Z</time>
      </trkpt>
      <trkpt lat="49.42121" lon="5.73994">
        <ele>296.79998779297</ele>
        <time>2023-06-18T07:19:32Z</time>
      </trkpt>
      <trkpt lat="49.42127" lon="5.74">
        <ele>296.79998779297</ele>
        <time>2023-06-18T07:19:34Z</time>
      </trkpt>
      <trkpt lat="49.42133" lon="5.74007">
        <ele>297</ele>
        <time>2023-06-18T07:19:36Z</time>
      </trkpt>
      <trkpt lat="49.42137" lon="5.74013">
        <ele>297.39999389648</ele>
        <time>2023-06-18T07:19:38Z</time>
      </trkpt>
      <trkpt lat="49.42146" lon="5.74022">
        <ele>297.79998779297</ele>
        <time>2023-06-18T07:19:40Z</time>
      </trkpt>
      <trkpt lat="49.42149" lon="5.74028">
        <ele>297.79998779297</ele>
        <time>2023-06-18T07:19:42Z</time>
      </trkpt>
      <trkpt lat="49.42151" lon="5.74031">
        <ele>298</ele>
        <time>2023-06-18T07:19:43Z</time>
      </trkpt>
      <trkpt lat="49.42153" lon="5.74033">
        <ele>298</ele>
        <time>2023-06-18T07:19:44Z</time>
      </trkpt>
      <trkpt lat="49.42156" lon="5.74038">
        <ele>298</ele>
        <time>2023-06-18T07:19:46Z</time>
      </trkpt>
      <trkpt lat="49.4216" lon="5.74043">
        <ele>298</ele>
        <time>2023-06-18T07:19:48Z</time>
      </trkpt>
      <trkpt lat="49.42168" lon="5.74049">
        <ele>298.39999389648</ele>
        <time>2023-06-18T07:19:50Z</time>
      </trkpt>
      <trkpt lat="49.42173" lon="5.74054">
        <ele>298.39999389648</ele>
        <time>2023-06-18T07:19:52Z</time>
      </trkpt>
      <trkpt lat="49.42177" lon="5.74056">
        <ele>298.39999389648</ele>
        <time>2023-06-18T07:19:53Z</time>
      </trkpt>
      <trkpt lat="49.4218" lon="5.74059">
        <ele>298.39999389648</ele>
        <time>2023-06-18T07:19:54Z</time>
      </trkpt>
      <trkpt lat="49.42185" lon="5.74065">
        <ele>298.39999389648</ele>
        <time>2023-06-18T07:19:56Z</time>
      </trkpt>
      <trkpt lat="49.42191" lon="5.74072">
        <ele>298.39999389648</ele>
        <time>2023-06-18T07:19:58Z</time>
      </trkpt>
      <trkpt lat="49.42194" lon="5.74075">
        <ele>298.39999389648</ele>
        <time>2023-06-18T07:19:59Z</time>
      </trkpt>
      <trkpt lat="49.42196" lon="5.74079">
        <ele>298.39999389648</ele>
        <time>2023-06-18T07:20:00Z</time>
      </trkpt>
      <trkpt lat="49.42203" lon="5.74087">
        <ele>298.20001220703</ele>
        <time>2023-06-18T07:20:02Z</time>
      </trkpt>
      <trkpt lat="49.42208" lon="5.74096">
        <ele>298.20001220703</ele>
        <time>2023-06-18T07:20:04Z</time>
      </trkpt>
      <trkpt lat="49.42212" lon="5.74105">
        <ele>298.20001220703</ele>
        <time>2023-06-18T07:20:06Z</time>
      </trkpt>
      <trkpt lat="49.42216" lon="5.74114">
        <ele>298.20001220703</ele>
        <time>2023-06-18T07:20:08Z</time>
      </trkpt>
      <trkpt lat="49.42222" lon="5.74125">
        <ele>298.20001220703</ele>
        <time>2023-06-18T07:20:10Z</time>
      </trkpt>
      <trkpt lat="49.42229" lon="5.74136">
        <ele>298.20001220703</ele>
        <time>2023-06-18T07:20:12Z</time>
      </trkpt>
      <trkpt lat="49.42234" lon="5.74147">
        <ele>298</ele>
        <time>2023-06-18T07:20:14Z</time>
      </trkpt>
      <trkpt lat="49.42241" lon="5.74158">
        <ele>298</ele>
        <time>2023-06-18T07:20:16Z</time>
      </trkpt>
      <trkpt lat="49.42248" lon="5.74169">
        <ele>298</ele>
        <time>2023-06-18T07:20:18Z</time>
      </trkpt>
      <trkpt lat="49.42255" lon="5.74183">
        <ele>298</ele>
        <time>2023-06-18T07:20:20Z</time>
      </trkpt>
      <trkpt lat="49.42265" lon="5.74195">
        <ele>298</ele>
        <time>2023-06-18T07:20:22Z</time>
      </trkpt>
      <trkpt lat="49.42268" lon="5.74201">
        <ele>298</ele>
        <time>2023-06-18T07:20:23Z</time>
      </trkpt>
      <trkpt lat="49.42272" lon="5.74207">
        <ele>298</ele>
        <time>2023-06-18T07:20:24Z</time>
      </trkpt>
      <trkpt lat="49.42277" lon="5.74218">
        <ele>298</ele>
        <time>2023-06-18T07:20:26Z</time>
      </trkpt>
      <trkpt lat="49.4228" lon="5.74227">
        <ele>298.39999389648</ele>
        <time>2023-06-18T07:20:28Z</time>
      </trkpt>
      <trkpt lat="49.42282" lon="5.7423">
        <ele>298.60000610352</ele>
        <time>2023-06-18T07:20:29Z</time>
      </trkpt>
      <trkpt lat="49.42284" lon="5.74235">
        <ele>298.79998779297</ele>
        <time>2023-06-18T07:20:30Z</time>
      </trkpt>
      <trkpt lat="49.42288" lon="5.74245">
        <ele>299.20001220703</ele>
        <time>2023-06-18T07:20:32Z</time>
      </trkpt>
      <trkpt lat="49.4229" lon="5.74254">
        <ele>299.79998779297</ele>
        <time>2023-06-18T07:20:34Z</time>
      </trkpt>
      <trkpt lat="49.42291" lon="5.74257">
        <ele>300</ele>
        <time>2023-06-18T07:20:35Z</time>
      </trkpt>
      <trkpt lat="49.42291" lon="5.7426">
        <ele>300.39999389648</ele>
        <time>2023-06-18T07:20:36Z</time>
      </trkpt>
      <trkpt lat="49.42293" lon="5.74267">
        <ele>301.20001220703</ele>
        <time>2023-06-18T07:20:38Z</time>
      </trkpt>
      <trkpt lat="49.42294" lon="5.74273">
        <ele>301.79998779297</ele>
        <time>2023-06-18T07:20:40Z</time>
      </trkpt>
      <trkpt lat="49.42294" lon="5.74276">
        <ele>302</ele>
        <time>2023-06-18T07:20:41Z</time>
      </trkpt>
      <trkpt lat="49.42295" lon="5.74279">
        <ele>302.39999389648</ele>
        <time>2023-06-18T07:20:42Z</time>
      </trkpt>
      <trkpt lat="49.42296" lon="5.74285">
        <ele>303.20001220703</ele>
        <time>2023-06-18T07:20:44Z</time>
      </trkpt>
      <trkpt lat="49.42297" lon="5.74291">
        <ele>303.60000610352</ele>
        <time>2023-06-18T07:20:46Z</time>
      </trkpt>
      <trkpt lat="49.42298" lon="5.74296">
        <ele>303.79998779297</ele>
        <time>2023-06-18T07:20:48Z</time>
      </trkpt>
      <trkpt lat="49.42298" lon="5.74301">
        <ele>304</ele>
        <time>2023-06-18T07:20:50Z</time>
      </trkpt>
      <trkpt lat="49.42299" lon="5.74305">
        <ele>304.20001220703</ele>
        <time>2023-06-18T07:20:52Z</time>
      </trkpt>
      <trkpt lat="49.42301" lon="5.74308">
        <ele>304.39999389648</ele>
        <time>2023-06-18T07:20:54Z</time>
      </trkpt>
      <trkpt lat="49.42303" lon="5.74314">
        <ele>304.39999389648</ele>
        <time>2023-06-18T07:20:56Z</time>
      </trkpt>
      <trkpt lat="49.42306" lon="5.74319">
        <ele>304.39999389648</ele>
        <time>2023-06-18T07:20:58Z</time>
      </trkpt>
      <trkpt lat="49.4231" lon="5.74323">
        <ele>304.60000610352</ele>
        <time>2023-06-18T07:21:00Z</time>
      </trkpt>
      <trkpt lat="49.42311" lon="5.74326">
        <ele>304.79998779297</ele>
        <time>2023-06-18T07:21:01Z</time>
      </trkpt>
      <trkpt lat="49.42312" lon="5.74329">
        <ele>305</ele>
        <time>2023-06-18T07:21:02Z</time>
      </trkpt>
      <trkpt lat="49.42315" lon="5.74334">
        <ele>305.39999389648</ele>
        <time>2023-06-18T07:21:04Z</time>
      </trkpt>
      <trkpt lat="49.42317" lon="5.74338">
        <ele>305.60000610352</ele>
        <time>2023-06-18T07:21:06Z</time>
      </trkpt>
      <trkpt lat="49.42318" lon="5.7434">
        <ele>305.79998779297</ele>
        <time>2023-06-18T07:21:07Z</time>
      </trkpt>
      <trkpt lat="49.42319" lon="5.74342">
        <ele>305.79998779297</ele>
        <time>2023-06-18T07:21:08Z</time>
      </trkpt>
      <trkpt lat="49.42322" lon="5.74348">
        <ele>306</ele>
        <time>2023-06-18T07:21:10Z</time>
      </trkpt>
      <trkpt lat="49.42325" lon="5.74354">
        <ele>306.20001220703</ele>
        <time>2023-06-18T07:21:12Z</time>
      </trkpt>
      <trkpt lat="49.42327" lon="5.7436">
        <ele>306.39999389648</ele>
        <time>2023-06-18T07:21:14Z</time>
      </trkpt>
      <trkpt lat="49.42331" lon="5.74366">
        <ele>306.60000610352</ele>
        <time>2023-06-18T07:21:16Z</time>
      </trkpt>
      <trkpt lat="49.42335" lon="5.74372">
        <ele>306.79998779297</ele>
        <time>2023-06-18T07:21:18Z</time>
      </trkpt>
      <trkpt lat="49.42339" lon="5.74378">
        <ele>306.79998779297</ele>
        <time>2023-06-18T07:21:20Z</time>
      </trkpt>
      <trkpt lat="49.42341" lon="5.74382">
        <ele>306.79998779297</ele>
        <time>2023-06-18T07:21:21Z</time>
      </trkpt>
      <trkpt lat="49.42343" lon="5.74385">
        <ele>307</ele>
        <time>2023-06-18T07:21:22Z</time>
      </trkpt>
      <trkpt lat="49.42347" lon="5.74392">
        <ele>307</ele>
        <time>2023-06-18T07:21:24Z</time>
      </trkpt>
      <trkpt lat="49.4235" lon="5.74399">
        <ele>307</ele>
        <time>2023-06-18T07:21:26Z</time>
      </trkpt>
      <trkpt lat="49.42354" lon="5.74406">
        <ele>307</ele>
        <time>2023-06-18T07:21:28Z</time>
      </trkpt>
      <trkpt lat="49.42357" lon="5.74414">
        <ele>307.20001220703</ele>
        <time>2023-06-18T07:21:30Z</time>
      </trkpt>
      <trkpt lat="49.42361" lon="5.74421">
        <ele>307.39999389648</ele>
        <time>2023-06-18T07:21:32Z</time>
      </trkpt>
      <trkpt lat="49.42363" lon="5.74424">
        <ele>307.39999389648</ele>
        <time>2023-06-18T07:21:33Z</time>
      </trkpt>
      <trkpt lat="49.42365" lon="5.74428">
        <ele>307.60000610352</ele>
        <time>2023-06-18T07:21:34Z</time>
      </trkpt>
      <trkpt lat="49.42369" lon="5.74434">
        <ele>307.79998779297</ele>
        <time>2023-06-18T07:21:36Z</time>
      </trkpt>
      <trkpt lat="49.42373" lon="5.74441">
        <ele>308</ele>
        <time>2023-06-18T07:21:38Z</time>
      </trkpt>
      <trkpt lat="49.42374" lon="5.74443">
        <ele>308.20001220703</ele>
        <time>2023-06-18T07:21:39Z</time>
      </trkpt>
      <trkpt lat="49.42376" lon="5.74446">
        <ele>308.20001220703</ele>
        <time>2023-06-18T07:21:40Z</time>
      </trkpt>
      <trkpt lat="49.4238" lon="5.74453">
        <ele>308.39999389648</ele>
        <time>2023-06-18T07:21:42Z</time>
      </trkpt>
      <trkpt lat="49.42382" lon="5.74456">
        <ele>308.60000610352</ele>
        <time>2023-06-18T07:21:43Z</time>
      </trkpt>
      <trkpt lat="49.42384" lon="5.74461">
        <ele>308.79998779297</ele>
        <time>2023-06-18T07:21:44Z</time>
      </trkpt>
      <trkpt lat="49.42389" lon="5.74468">
        <ele>309</ele>
        <time>2023-06-18T07:21:46Z</time>
      </trkpt>
      <trkpt lat="49.42393" lon="5.74474">
        <ele>309.39999389648</ele>
        <time>2023-06-18T07:21:48Z</time>
      </trkpt>
      <trkpt lat="49.42394" lon="5.74477">
        <ele>309.60000610352</ele>
        <time>2023-06-18T07:21:49Z</time>
      </trkpt>
      <trkpt lat="49.42396" lon="5.7448">
        <ele>309.79998779297</ele>
        <time>2023-06-18T07:21:50Z</time>
      </trkpt>
      <trkpt lat="49.424" lon="5.74485">
        <ele>310.20001220703</ele>
        <time>2023-06-18T07:21:52Z</time>
      </trkpt>
      <trkpt lat="49.42405" lon="5.7449">
        <ele>310.39999389648</ele>
        <time>2023-06-18T07:21:54Z</time>
      </trkpt>
      <trkpt lat="49.42408" lon="5.74495">
        <ele>310.60000610352</ele>
        <time>2023-06-18T07:21:56Z</time>
      </trkpt>
      <trkpt lat="49.42411" lon="5.74503">
        <ele>310.79998779297</ele>
        <time>2023-06-18T07:21:58Z</time>
      </trkpt>
      <trkpt lat="49.42416" lon="5.7451">
        <ele>310.79998779297</ele>
        <time>2023-06-18T07:22:00Z</time>
      </trkpt>
      <trkpt lat="49.42419" lon="5.74517">
        <ele>310.79998779297</ele>
        <time>2023-06-18T07:22:02Z</time>
      </trkpt>
      <trkpt lat="49.42422" lon="5.7452">
        <ele>310.79998779297</ele>
        <time>2023-06-18T07:22:03Z</time>
      </trkpt>
      <trkpt lat="49.42424" lon="5.74524">
        <ele>310.79998779297</ele>
        <time>2023-06-18T07:22:04Z</time>
      </trkpt>
      <trkpt lat="49.42428" lon="5.74531">
        <ele>310.79998779297</ele>
        <time>2023-06-18T07:22:06Z</time>
      </trkpt>
      <trkpt lat="49.42432" lon="5.74539">
        <ele>310.79998779297</ele>
        <time>2023-06-18T07:22:08Z</time>
      </trkpt>
      <trkpt lat="49.42436" lon="5.74548">
        <ele>310.60000610352</ele>
        <time>2023-06-18T07:22:10Z</time>
      </trkpt>
      <trkpt lat="49.4244" lon="5.74557">
        <ele>310.60000610352</ele>
        <time>2023-06-18T07:22:12Z</time>
      </trkpt>
      <trkpt lat="49.42444" lon="5.74565">
        <ele>310.60000610352</ele>
        <time>2023-06-18T07:22:14Z</time>
      </trkpt>
      <trkpt lat="49.42446" lon="5.7457">
        <ele>310.60000610352</ele>
        <time>2023-06-18T07:22:15Z</time>
      </trkpt>
      <trkpt lat="49.42447" lon="5.74574">
        <ele>310.60000610352</ele>
        <time>2023-06-18T07:22:16Z</time>
      </trkpt>
      <trkpt lat="49.42452" lon="5.74582">
        <ele>310.60000610352</ele>
        <time>2023-06-18T07:22:18Z</time>
      </trkpt>
      <trkpt lat="49.42456" lon="5.74589">
        <ele>310.60000610352</ele>
        <time>2023-06-18T07:22:20Z</time>
      </trkpt>
      <trkpt lat="49.42458" lon="5.74593">
        <ele>310.60000610352</ele>
        <time>2023-06-18T07:22:21Z</time>
      </trkpt>
      <trkpt lat="49.42461" lon="5.74598">
        <ele>310.60000610352</ele>
        <time>2023-06-18T07:22:22Z</time>
      </trkpt>
      <trkpt lat="49.42466" lon="5.7461">
        <ele>310.79998779297</ele>
        <time>2023-06-18T07:22:24Z</time>
      </trkpt>
      <trkpt lat="49.42469" lon="5.7462">
        <ele>310.79998779297</ele>
        <time>2023-06-18T07:22:26Z</time>
      </trkpt>
      <trkpt lat="49.42471" lon="5.74624">
        <ele>310.79998779297</ele>
        <time>2023-06-18T07:22:27Z</time>
      </trkpt>
      <trkpt lat="49.42472" lon="5.74627">
        <ele>310.79998779297</ele>
        <time>2023-06-18T07:22:28Z</time>
      </trkpt>
      <trkpt lat="49.42476" lon="5.74637">
        <ele>311</ele>
        <time>2023-06-18T07:22:30Z</time>
      </trkpt>
      <trkpt lat="49.4248" lon="5.74645">
        <ele>311</ele>
        <time>2023-06-18T07:22:32Z</time>
      </trkpt>
      <trkpt lat="49.42484" lon="5.74654">
        <ele>311</ele>
        <time>2023-06-18T07:22:34Z</time>
      </trkpt>
      <trkpt lat="49.42488" lon="5.74663">
        <ele>311</ele>
        <time>2023-06-18T07:22:36Z</time>
      </trkpt>
      <trkpt lat="49.42493" lon="5.7467">
        <ele>311.20001220703</ele>
        <time>2023-06-18T07:22:38Z</time>
      </trkpt>
      <trkpt lat="49.425" lon="5.74678">
        <ele>311.20001220703</ele>
        <time>2023-06-18T07:22:40Z</time>
      </trkpt>
      <trkpt lat="49.42506" lon="5.74687">
        <ele>311.20001220703</ele>
        <time>2023-06-18T07:22:42Z</time>
      </trkpt>
      <trkpt lat="49.42511" lon="5.74698">
        <ele>311</ele>
        <time>2023-06-18T07:22:44Z</time>
      </trkpt>
      <trkpt lat="49.42516" lon="5.7471">
        <ele>311</ele>
        <time>2023-06-18T07:22:46Z</time>
      </trkpt>
      <trkpt lat="49.42519" lon="5.74721">
        <ele>311.20001220703</ele>
        <time>2023-06-18T07:22:48Z</time>
      </trkpt>
      <trkpt lat="49.4252" lon="5.74726">
        <ele>311.20001220703</ele>
        <time>2023-06-18T07:22:49Z</time>
      </trkpt>
      <trkpt lat="49.42522" lon="5.74731">
        <ele>311.39999389648</ele>
        <time>2023-06-18T07:22:50Z</time>
      </trkpt>
      <trkpt lat="49.42524" lon="5.74742">
        <ele>311.20001220703</ele>
        <time>2023-06-18T07:22:52Z</time>
      </trkpt>
      <trkpt lat="49.42525" lon="5.74751">
        <ele>311.39999389648</ele>
        <time>2023-06-18T07:22:54Z</time>
      </trkpt>
      <trkpt lat="49.42528" lon="5.74757">
        <ele>311.39999389648</ele>
        <time>2023-06-18T07:22:55Z</time>
      </trkpt>
      <trkpt lat="49.42529" lon="5.74763">
        <ele>311.39999389648</ele>
        <time>2023-06-18T07:22:56Z</time>
      </trkpt>
      <trkpt lat="49.42529" lon="5.74773">
        <ele>311.79998779297</ele>
        <time>2023-06-18T07:22:58Z</time>
      </trkpt>
      <trkpt lat="49.42531" lon="5.74782">
        <ele>312</ele>
        <time>2023-06-18T07:23:00Z</time>
      </trkpt>
      <trkpt lat="49.42531" lon="5.74792">
        <ele>312.60000610352</ele>
        <time>2023-06-18T07:23:02Z</time>
      </trkpt>
      <trkpt lat="49.42532" lon="5.74803">
        <ele>313</ele>
        <time>2023-06-18T07:23:04Z</time>
      </trkpt>
      <trkpt lat="49.42533" lon="5.74813">
        <ele>313.60000610352</ele>
        <time>2023-06-18T07:23:06Z</time>
      </trkpt>
      <trkpt lat="49.42533" lon="5.74819">
        <ele>313.79998779297</ele>
        <time>2023-06-18T07:23:07Z</time>
      </trkpt>
      <trkpt lat="49.42534" lon="5.74822">
        <ele>313.79998779297</ele>
        <time>2023-06-18T07:23:08Z</time>
      </trkpt>
      <trkpt lat="49.42534" lon="5.7483">
        <ele>314</ele>
        <time>2023-06-18T07:23:10Z</time>
      </trkpt>
      <trkpt lat="49.42533" lon="5.74838">
        <ele>314.60000610352</ele>
        <time>2023-06-18T07:23:12Z</time>
      </trkpt>
      <trkpt lat="49.42533" lon="5.74847">
        <ele>314.79998779297</ele>
        <time>2023-06-18T07:23:14Z</time>
      </trkpt>
      <trkpt lat="49.42532" lon="5.74851">
        <ele>315</ele>
        <time>2023-06-18T07:23:15Z</time>
      </trkpt>
      <trkpt lat="49.42532" lon="5.74855">
        <ele>315</ele>
        <time>2023-06-18T07:23:16Z</time>
      </trkpt>
      <trkpt lat="49.42532" lon="5.74862">
        <ele>315.20001220703</ele>
        <time>2023-06-18T07:23:18Z</time>
      </trkpt>
      <trkpt lat="49.42531" lon="5.74868">
        <ele>315.60000610352</ele>
        <time>2023-06-18T07:23:20Z</time>
      </trkpt>
      <trkpt lat="49.4253" lon="5.74873">
        <ele>315.79998779297</ele>
        <time>2023-06-18T07:23:21Z</time>
      </trkpt>
      <trkpt lat="49.42529" lon="5.74877">
        <ele>316.20001220703</ele>
        <time>2023-06-18T07:23:22Z</time>
      </trkpt>
      <trkpt lat="49.42525" lon="5.74886">
        <ele>316.60000610352</ele>
        <time>2023-06-18T07:23:24Z</time>
      </trkpt>
      <trkpt lat="49.42522" lon="5.74893">
        <ele>317</ele>
        <time>2023-06-18T07:23:26Z</time>
      </trkpt>
      <trkpt lat="49.4252" lon="5.749">
        <ele>317.79998779297</ele>
        <time>2023-06-18T07:23:28Z</time>
      </trkpt>
      <trkpt lat="49.42517" lon="5.74905">
        <ele>318.20001220703</ele>
        <time>2023-06-18T07:23:30Z</time>
      </trkpt>
      <trkpt lat="49.42515" lon="5.7491">
        <ele>318.79998779297</ele>
        <time>2023-06-18T07:23:32Z</time>
      </trkpt>
      <trkpt lat="49.42512" lon="5.74916">
        <ele>319.20001220703</ele>
        <time>2023-06-18T07:23:34Z</time>
      </trkpt>
      <trkpt lat="49.4251" lon="5.74918">
        <ele>319.39999389648</ele>
        <time>2023-06-18T07:23:35Z</time>
      </trkpt>
      <trkpt lat="49.4251" lon="5.7492">
        <ele>319.60000610352</ele>
        <time>2023-06-18T07:23:36Z</time>
      </trkpt>
      <trkpt lat="49.42508" lon="5.74926">
        <ele>320.20001220703</ele>
        <time>2023-06-18T07:23:38Z</time>
      </trkpt>
      <trkpt lat="49.42506" lon="5.74929">
        <ele>320.39999389648</ele>
        <time>2023-06-18T07:23:39Z</time>
      </trkpt>
      <trkpt lat="49.42505" lon="5.74931">
        <ele>320.60000610352</ele>
        <time>2023-06-18T07:23:40Z</time>
      </trkpt>
      <trkpt lat="49.42504" lon="5.74933">
        <ele>320.79998779297</ele>
        <time>2023-06-18T07:23:41Z</time>
      </trkpt>
      <trkpt lat="49.42502" lon="5.74935">
        <ele>321</ele>
        <time>2023-06-18T07:23:42Z</time>
      </trkpt>
      <trkpt lat="49.42499" lon="5.7494">
        <ele>321.39999389648</ele>
        <time>2023-06-18T07:23:44Z</time>
      </trkpt>
      <trkpt lat="49.42499" lon="5.74943">
        <ele>321.39999389648</ele>
        <time>2023-06-18T07:23:45Z</time>
      </trkpt>
      <trkpt lat="49.425" lon="5.74946">
        <ele>321.60000610352</ele>
        <time>2023-06-18T07:23:46Z</time>
      </trkpt>
      <trkpt lat="49.42501" lon="5.74953">
        <ele>322</ele>
        <time>2023-06-18T07:23:48Z</time>
      </trkpt>
      <trkpt lat="49.42503" lon="5.74959">
        <ele>322.20001220703</ele>
        <time>2023-06-18T07:23:50Z</time>
      </trkpt>
      <trkpt lat="49.42503" lon="5.74966">
        <ele>322.20001220703</ele>
        <time>2023-06-18T07:23:52Z</time>
      </trkpt>
      <trkpt lat="49.42504" lon="5.74972">
        <ele>322.39999389648</ele>
        <time>2023-06-18T07:23:54Z</time>
      </trkpt>
      <trkpt lat="49.42505" lon="5.74981">
        <ele>322.39999389648</ele>
        <time>2023-06-18T07:23:56Z</time>
      </trkpt>
      <trkpt lat="49.42505" lon="5.74989">
        <ele>322.39999389648</ele>
        <time>2023-06-18T07:23:58Z</time>
      </trkpt>
      <trkpt lat="49.42505" lon="5.74992">
        <ele>322.39999389648</ele>
        <time>2023-06-18T07:23:59Z</time>
      </trkpt>
      <trkpt lat="49.42506" lon="5.74996">
        <ele>322.39999389648</ele>
        <time>2023-06-18T07:24:00Z</time>
      </trkpt>
      <trkpt lat="49.42507" lon="5.75002">
        <ele>322.39999389648</ele>
        <time>2023-06-18T07:24:02Z</time>
      </trkpt>
      <trkpt lat="49.42507" lon="5.75008">
        <ele>322.39999389648</ele>
        <time>2023-06-18T07:24:04Z</time>
      </trkpt>
      <trkpt lat="49.42509" lon="5.75016">
        <ele>322.20001220703</ele>
        <time>2023-06-18T07:24:06Z</time>
      </trkpt>
      <trkpt lat="49.4251" lon="5.75024">
        <ele>322</ele>
        <time>2023-06-18T07:24:08Z</time>
      </trkpt>
      <trkpt lat="49.42513" lon="5.75032">
        <ele>321.79998779297</ele>
        <time>2023-06-18T07:24:10Z</time>
      </trkpt>
      <trkpt lat="49.42515" lon="5.7504">
        <ele>321.60000610352</ele>
        <time>2023-06-18T07:24:12Z</time>
      </trkpt>
      <trkpt lat="49.42518" lon="5.75047">
        <ele>321.39999389648</ele>
        <time>2023-06-18T07:24:14Z</time>
      </trkpt>
      <trkpt lat="49.42521" lon="5.75056">
        <ele>321.39999389648</ele>
        <time>2023-06-18T07:24:16Z</time>
      </trkpt>
      <trkpt lat="49.42523" lon="5.75063">
        <ele>321.20001220703</ele>
        <time>2023-06-18T07:24:18Z</time>
      </trkpt>
      <trkpt lat="49.42524" lon="5.75067">
        <ele>321.20001220703</ele>
        <time>2023-06-18T07:24:19Z</time>
      </trkpt>
      <trkpt lat="49.42526" lon="5.75071">
        <ele>321</ele>
        <time>2023-06-18T07:24:20Z</time>
      </trkpt>
      <trkpt lat="49.42529" lon="5.75081">
        <ele>320.79998779297</ele>
        <time>2023-06-18T07:24:22Z</time>
      </trkpt>
      <trkpt lat="49.42534" lon="5.75091">
        <ele>320.60000610352</ele>
        <time>2023-06-18T07:24:24Z</time>
      </trkpt>
      <trkpt lat="49.42537" lon="5.75098">
        <ele>320.39999389648</ele>
        <time>2023-06-18T07:24:25Z</time>
      </trkpt>
      <trkpt lat="49.4254" lon="5.75104">
        <ele>320.39999389648</ele>
        <time>2023-06-18T07:24:26Z</time>
      </trkpt>
      <trkpt lat="49.42544" lon="5.75119">
        <ele>320.20001220703</ele>
        <time>2023-06-18T07:24:28Z</time>
      </trkpt>
      <trkpt lat="49.42547" lon="5.75128">
        <ele>319.60000610352</ele>
        <time>2023-06-18T07:24:30Z</time>
      </trkpt>
      <trkpt lat="49.42549" lon="5.75133">
        <ele>319.20001220703</ele>
        <time>2023-06-18T07:24:31Z</time>
      </trkpt>
      <trkpt lat="49.42553" lon="5.75138">
        <ele>318.60000610352</ele>
        <time>2023-06-18T07:24:32Z</time>
      </trkpt>
      <trkpt lat="49.42556" lon="5.75144">
        <ele>318</ele>
        <time>2023-06-18T07:24:33Z</time>
      </trkpt>
      <trkpt lat="49.42559" lon="5.75152">
        <ele>317.39999389648</ele>
        <time>2023-06-18T07:24:34Z</time>
      </trkpt>
      <trkpt lat="49.42566" lon="5.75171">
        <ele>316.79998779297</ele>
        <time>2023-06-18T07:24:36Z</time>
      </trkpt>
      <trkpt lat="49.42573" lon="5.75193">
        <ele>316.60000610352</ele>
        <time>2023-06-18T07:24:38Z</time>
      </trkpt>
      <trkpt lat="49.42576" lon="5.75214">
        <ele>315.60000610352</ele>
        <time>2023-06-18T07:24:40Z</time>
      </trkpt>
      <trkpt lat="49.42578" lon="5.75237">
        <ele>314</ele>
        <time>2023-06-18T07:24:42Z</time>
      </trkpt>
      <trkpt lat="49.42579" lon="5.75248">
        <ele>312.79998779297</ele>
        <time>2023-06-18T07:24:43Z</time>
      </trkpt>
      <trkpt lat="49.4258" lon="5.75258">
        <ele>311.20001220703</ele>
        <time>2023-06-18T07:24:44Z</time>
      </trkpt>
      <trkpt lat="49.42581" lon="5.75266">
        <ele>310</ele>
        <time>2023-06-18T07:24:45Z</time>
      </trkpt>
      <trkpt lat="49.42582" lon="5.75278">
        <ele>309.39999389648</ele>
        <time>2023-06-18T07:24:46Z</time>
      </trkpt>
      <trkpt lat="49.42584" lon="5.7529">
        <ele>308.60000610352</ele>
        <time>2023-06-18T07:24:47Z</time>
      </trkpt>
      <trkpt lat="49.42587" lon="5.75303">
        <ele>307.79998779297</ele>
        <time>2023-06-18T07:24:48Z</time>
      </trkpt>
      <trkpt lat="49.42589" lon="5.75314">
        <ele>307</ele>
        <time>2023-06-18T07:24:49Z</time>
      </trkpt>
      <trkpt lat="49.42592" lon="5.75323">
        <ele>306.20001220703</ele>
        <time>2023-06-18T07:24:50Z</time>
      </trkpt>
      <trkpt lat="49.42596" lon="5.75333">
        <ele>305.79998779297</ele>
        <time>2023-06-18T07:24:51Z</time>
      </trkpt>
      <trkpt lat="49.42598" lon="5.75343">
        <ele>305.39999389648</ele>
        <time>2023-06-18T07:24:52Z</time>
      </trkpt>
      <trkpt lat="49.42601" lon="5.75352">
        <ele>305</ele>
        <time>2023-06-18T07:24:53Z</time>
      </trkpt>
      <trkpt lat="49.42604" lon="5.75359">
        <ele>304.60000610352</ele>
        <time>2023-06-18T07:24:54Z</time>
      </trkpt>
      <trkpt lat="49.42607" lon="5.75366">
        <ele>304.20001220703</ele>
        <time>2023-06-18T07:24:55Z</time>
      </trkpt>
      <trkpt lat="49.4261" lon="5.75373">
        <ele>303.39999389648</ele>
        <time>2023-06-18T07:24:56Z</time>
      </trkpt>
      <trkpt lat="49.42617" lon="5.75387">
        <ele>302.39999389648</ele>
        <time>2023-06-18T07:24:58Z</time>
      </trkpt>
      <trkpt lat="49.42625" lon="5.75399">
        <ele>301.79998779297</ele>
        <time>2023-06-18T07:25:00Z</time>
      </trkpt>
      <trkpt lat="49.42627" lon="5.75403">
        <ele>301.60000610352</ele>
        <time>2023-06-18T07:25:01Z</time>
      </trkpt>
      <trkpt lat="49.42629" lon="5.75408">
        <ele>301.20001220703</ele>
        <time>2023-06-18T07:25:02Z</time>
      </trkpt>
      <trkpt lat="49.42632" lon="5.75415">
        <ele>299</ele>
        <time>2023-06-18T07:25:04Z</time>
      </trkpt>
      <trkpt lat="49.42635" lon="5.75418">
        <ele>298</ele>
        <time>2023-06-18T07:25:05Z</time>
      </trkpt>
      <trkpt lat="49.42637" lon="5.75421">
        <ele>297</ele>
        <time>2023-06-18T07:25:06Z</time>
      </trkpt>
      <trkpt lat="49.42639" lon="5.75423">
        <ele>296.39999389648</ele>
        <time>2023-06-18T07:25:07Z</time>
      </trkpt>
      <trkpt lat="49.42641" lon="5.75426">
        <ele>296</ele>
        <time>2023-06-18T07:25:08Z</time>
      </trkpt>
      <trkpt lat="49.42647" lon="5.75431">
        <ele>295.60000610352</ele>
        <time>2023-06-18T07:25:10Z</time>
      </trkpt>
      <trkpt lat="49.42652" lon="5.75439">
        <ele>295.39999389648</ele>
        <time>2023-06-18T07:25:12Z</time>
      </trkpt>
      <trkpt lat="49.42656" lon="5.75445">
        <ele>294.60000610352</ele>
        <time>2023-06-18T07:25:14Z</time>
      </trkpt>
      <trkpt lat="49.42658" lon="5.75448">
        <ele>294</ele>
        <time>2023-06-18T07:25:15Z</time>
      </trkpt>
      <trkpt lat="49.42659" lon="5.75449">
        <ele>293.60000610352</ele>
        <time>2023-06-18T07:25:16Z</time>
      </trkpt>
      <trkpt lat="49.42661" lon="5.75451">
        <ele>293</ele>
        <time>2023-06-18T07:25:18Z</time>
      </trkpt>
      <trkpt lat="49.42662" lon="5.75454">
        <ele>292.39999389648</ele>
        <time>2023-06-18T07:25:20Z</time>
      </trkpt>
      <trkpt lat="49.42667" lon="5.75455">
        <ele>292.20001220703</ele>
        <time>2023-06-18T07:25:22Z</time>
      </trkpt>
      <trkpt lat="49.4267" lon="5.75456">
        <ele>292</ele>
        <time>2023-06-18T07:25:24Z</time>
      </trkpt>
      <trkpt lat="49.42674" lon="5.75458">
        <ele>292</ele>
        <time>2023-06-18T07:25:26Z</time>
      </trkpt>
      <trkpt lat="49.42677" lon="5.75458">
        <ele>292</ele>
        <time>2023-06-18T07:25:28Z</time>
      </trkpt>
      <trkpt lat="49.42677" lon="5.75458">
        <ele>292</ele>
        <time>2023-06-18T07:25:30Z</time>
      </trkpt>
      <trkpt lat="49.42677" lon="5.75458">
        <ele>291.79998779297</ele>
        <time>2023-06-18T07:25:32Z</time>
      </trkpt>
      <trkpt lat="49.42677" lon="5.75458">
        <ele>291.79998779297</ele>
        <time>2023-06-18T07:25:34Z</time>
      </trkpt>
      <trkpt lat="49.42677" lon="5.75458">
        <ele>291.79998779297</ele>
        <time>2023-06-18T07:25:35Z</time>
      </trkpt>
      <trkpt lat="49.42677" lon="5.75458">
        <ele>291.79998779297</ele>
        <time>2023-06-18T07:25:36Z</time>
      </trkpt>
      <trkpt lat="49.42677" lon="5.75458">
        <ele>291.79998779297</ele>
        <time>2023-06-18T07:25:38Z</time>
      </trkpt>
      <trkpt lat="49.42677" lon="5.75459">
        <ele>291.60000610352</ele>
        <time>2023-06-18T07:25:40Z</time>
      </trkpt>
      <trkpt lat="49.42677" lon="5.75459">
        <ele>291.79998779297</ele>
        <time>2023-06-18T07:25:42Z</time>
      </trkpt>
      <trkpt lat="49.42677" lon="5.75459">
        <ele>291.79998779297</ele>
        <time>2023-06-18T07:25:44Z</time>
      </trkpt>
      <trkpt lat="49.42678" lon="5.75458">
        <ele>291.39999389648</ele>
        <time>2023-06-18T07:25:46Z</time>
      </trkpt>
      <trkpt lat="49.42679" lon="5.75457">
        <ele>291.39999389648</ele>
        <time>2023-06-18T07:25:47Z</time>
      </trkpt>
      <trkpt lat="49.4268" lon="5.75455">
        <ele>291.39999389648</ele>
        <time>2023-06-18T07:25:48Z</time>
      </trkpt>
      <trkpt lat="49.42682" lon="5.75449">
        <ele>291.39999389648</ele>
        <time>2023-06-18T07:25:50Z</time>
      </trkpt>
      <trkpt lat="49.42683" lon="5.75445">
        <ele>291.60000610352</ele>
        <time>2023-06-18T07:25:51Z</time>
      </trkpt>
      <trkpt lat="49.42685" lon="5.7544">
        <ele>291.39999389648</ele>
        <time>2023-06-18T07:25:52Z</time>
      </trkpt>
      <trkpt lat="49.42688" lon="5.7543">
        <ele>291.20001220703</ele>
        <time>2023-06-18T07:25:54Z</time>
      </trkpt>
      <trkpt lat="49.42691" lon="5.75423">
        <ele>291</ele>
        <time>2023-06-18T07:25:56Z</time>
      </trkpt>
      <trkpt lat="49.42693" lon="5.7542">
        <ele>290.39999389648</ele>
        <time>2023-06-18T07:25:57Z</time>
      </trkpt>
      <trkpt lat="49.42696" lon="5.75418">
        <ele>290</ele>
        <time>2023-06-18T07:25:58Z</time>
      </trkpt>
      <trkpt lat="49.42698" lon="5.75416">
        <ele>289.20001220703</ele>
        <time>2023-06-18T07:25:59Z</time>
      </trkpt>
      <trkpt lat="49.427" lon="5.75415">
        <ele>288.20001220703</ele>
        <time>2023-06-18T07:26:00Z</time>
      </trkpt>
      <trkpt lat="49.42702" lon="5.75415">
        <ele>286</ele>
        <time>2023-06-18T07:26:01Z</time>
      </trkpt>
      <trkpt lat="49.42705" lon="5.75415">
        <ele>284.79998779297</ele>
        <time>2023-06-18T07:26:02Z</time>
      </trkpt>
      <trkpt lat="49.4271" lon="5.75413">
        <ele>282.79998779297</ele>
        <time>2023-06-18T07:26:04Z</time>
      </trkpt>
      <trkpt lat="49.42713" lon="5.75412">
        <ele>281.39999389648</ele>
        <time>2023-06-18T07:26:05Z</time>
      </trkpt>
      <trkpt lat="49.42717" lon="5.75411">
        <ele>280</ele>
        <time>2023-06-18T07:26:06Z</time>
      </trkpt>
      <trkpt lat="49.42721" lon="5.75409">
        <ele>278.20001220703</ele>
        <time>2023-06-18T07:26:07Z</time>
      </trkpt>
      <trkpt lat="49.42724" lon="5.75406">
        <ele>276.79998779297</ele>
        <time>2023-06-18T07:26:08Z</time>
      </trkpt>
      <trkpt lat="49.42727" lon="5.75403">
        <ele>274.79998779297</ele>
        <time>2023-06-18T07:26:09Z</time>
      </trkpt>
      <trkpt lat="49.42731" lon="5.75401">
        <ele>272.60000610352</ele>
        <time>2023-06-18T07:26:10Z</time>
      </trkpt>
      <trkpt lat="49.42735" lon="5.754">
        <ele>270.39999389648</ele>
        <time>2023-06-18T07:26:11Z</time>
      </trkpt>
      <trkpt lat="49.42737" lon="5.75399">
        <ele>268.20001220703</ele>
        <time>2023-06-18T07:26:12Z</time>
      </trkpt>
      <trkpt lat="49.4274" lon="5.754">
        <ele>266.39999389648</ele>
        <time>2023-06-18T07:26:13Z</time>
      </trkpt>
      <trkpt lat="49.42743" lon="5.754">
        <ele>264.60000610352</ele>
        <time>2023-06-18T07:26:14Z</time>
      </trkpt>
      <trkpt lat="49.42748" lon="5.75399">
        <ele>262.79998779297</ele>
        <time>2023-06-18T07:26:15Z</time>
      </trkpt>
      <trkpt lat="49.42751" lon="5.75398">
        <ele>261</ele>
        <time>2023-06-18T07:26:16Z</time>
      </trkpt>
      <trkpt lat="49.42754" lon="5.75398">
        <ele>259.79998779297</ele>
        <time>2023-06-18T07:26:17Z</time>
      </trkpt>
      <trkpt lat="49.42757" lon="5.75398">
        <ele>258.20001220703</ele>
        <time>2023-06-18T07:26:18Z</time>
      </trkpt>
      <trkpt lat="49.42761" lon="5.75397">
        <ele>256.79998779297</ele>
        <time>2023-06-18T07:26:20Z</time>
      </trkpt>
      <trkpt lat="49.42763" lon="5.75397">
        <ele>256.20001220703</ele>
        <time>2023-06-18T07:26:22Z</time>
      </trkpt>
      <trkpt lat="49.42763" lon="5.75397">
        <ele>256</ele>
        <time>2023-06-18T07:26:24Z</time>
      </trkpt>
      <trkpt lat="49.42763" lon="5.75397">
        <ele>256</ele>
        <time>2023-06-18T07:26:26Z</time>
      </trkpt>
      <trkpt lat="49.42763" lon="5.75397">
        <ele>256</ele>
        <time>2023-06-18T07:26:28Z</time>
      </trkpt>
      <trkpt lat="49.42763" lon="5.75397">
        <ele>256</ele>
        <time>2023-06-18T07:26:30Z</time>
      </trkpt>
      <trkpt lat="49.42763" lon="5.75397">
        <ele>256</ele>
        <time>2023-06-18T07:26:32Z</time>
      </trkpt>
      <trkpt lat="49.42763" lon="5.75397">
        <ele>256</ele>
        <time>2023-06-18T07:26:33Z</time>
      </trkpt>
      <trkpt lat="49.42763" lon="5.75397">
        <ele>256</ele>
        <time>2023-06-18T07:26:34Z</time>
      </trkpt>
      <trkpt lat="49.42763" lon="5.75397">
        <ele>255.80000305176</ele>
        <time>2023-06-18T07:26:36Z</time>
      </trkpt>
      <trkpt lat="49.42763" lon="5.75397">
        <ele>256</ele>
        <time>2023-06-18T07:26:38Z</time>
      </trkpt>
      <trkpt lat="49.42764" lon="5.75397">
        <ele>256</ele>
        <time>2023-06-18T07:26:40Z</time>
      </trkpt>
      <trkpt lat="49.42764" lon="5.75397">
        <ele>255.80000305176</ele>
        <time>2023-06-18T07:26:42Z</time>
      </trkpt>
      <trkpt lat="49.42764" lon="5.75397">
        <ele>255.80000305176</ele>
        <time>2023-06-18T07:26:44Z</time>
      </trkpt>
      <trkpt lat="49.42764" lon="5.75397">
        <ele>255.80000305176</ele>
        <time>2023-06-18T07:26:45Z</time>
      </trkpt>
      <trkpt lat="49.42764" lon="5.75397">
        <ele>255.60000610352</ele>
        <time>2023-06-18T07:26:46Z</time>
      </trkpt>
      <trkpt lat="49.42764" lon="5.75397">
        <ele>255.60000610352</ele>
        <time>2023-06-18T07:26:48Z</time>
      </trkpt>
      <trkpt lat="49.42764" lon="5.75397">
        <ele>255.60000610352</ele>
        <time>2023-06-18T07:26:50Z</time>
      </trkpt>
      <trkpt lat="49.42764" lon="5.75397">
        <ele>255.60000610352</ele>
        <time>2023-06-18T07:26:52Z</time>
      </trkpt>
      <trkpt lat="49.42764" lon="5.75397">
        <ele>255.60000610352</ele>
        <time>2023-06-18T07:26:54Z</time>
      </trkpt>
      <trkpt lat="49.42764" lon="5.75397">
        <ele>255.60000610352</ele>
        <time>2023-06-18T07:26:55Z</time>
      </trkpt>
      <trkpt lat="49.42764" lon="5.75397">
        <ele>255.60000610352</ele>
        <time>2023-06-18T07:26:56Z</time>
      </trkpt>
      <trkpt lat="49.42765" lon="5.75397">
        <ele>255.60000610352</ele>
        <time>2023-06-18T07:26:58Z</time>
      </trkpt>
      <trkpt lat="49.42765" lon="5.75397">
        <ele>255.60000610352</ele>
        <time>2023-06-18T07:27:00Z</time>
      </trkpt>
      <trkpt lat="49.42765" lon="5.75397">
        <ele>255.60000610352</ele>
        <time>2023-06-18T07:27:02Z</time>
      </trkpt>
      <trkpt lat="49.42765" lon="5.75398">
        <ele>255.60000610352</ele>
        <time>2023-06-18T07:27:04Z</time>
      </trkpt>
      <trkpt lat="49.42766" lon="5.75398">
        <ele>255.60000610352</ele>
        <time>2023-06-18T07:27:06Z</time>
      </trkpt>
      <trkpt lat="49.42766" lon="5.75398">
        <ele>255.60000610352</ele>
        <time>2023-06-18T07:27:07Z</time>
      </trkpt>
      <trkpt lat="49.42766" lon="5.75398">
        <ele>255.60000610352</ele>
        <time>2023-06-18T07:27:08Z</time>
      </trkpt>
      <trkpt lat="49.42766" lon="5.75397">
        <ele>255.60000610352</ele>
        <time>2023-06-18T07:27:10Z</time>
      </trkpt>
      <trkpt lat="49.42766" lon="5.75397">
        <ele>255.60000610352</ele>
        <time>2023-06-18T07:27:12Z</time>
      </trkpt>
      <trkpt lat="49.42767" lon="5.75397">
        <ele>255.60000610352</ele>
        <time>2023-06-18T07:27:14Z</time>
      </trkpt>
      <trkpt lat="49.42767" lon="5.75397">
        <ele>255.60000610352</ele>
        <time>2023-06-18T07:27:16Z</time>
      </trkpt>
      <trkpt lat="49.42767" lon="5.75397">
        <ele>255.60000610352</ele>
        <time>2023-06-18T07:27:18Z</time>
      </trkpt>
      <trkpt lat="49.42767" lon="5.75397">
        <ele>255.60000610352</ele>
        <time>2023-06-18T07:27:20Z</time>
      </trkpt>
      <trkpt lat="49.42767" lon="5.75397">
        <ele>255.60000610352</ele>
        <time>2023-06-18T07:27:22Z</time>
      </trkpt>
      <trkpt lat="49.42767" lon="5.75397">
        <ele>255.60000610352</ele>
        <time>2023-06-18T07:27:24Z</time>
      </trkpt>
      <trkpt lat="49.42767" lon="5.75397">
        <ele>255.39999389648</ele>
        <time>2023-06-18T07:27:26Z</time>
      </trkpt>
      <trkpt lat="49.42767" lon="5.75397">
        <ele>255.39999389648</ele>
        <time>2023-06-18T07:27:28Z</time>
      </trkpt>
      <trkpt lat="49.42767" lon="5.75397">
        <ele>255.39999389648</ele>
        <time>2023-06-18T07:27:30Z</time>
      </trkpt>
      <trkpt lat="49.42767" lon="5.75397">
        <ele>255.39999389648</ele>
        <time>2023-06-18T07:27:32Z</time>
      </trkpt>
      <trkpt lat="49.42767" lon="5.75397">
        <ele>255.60000610352</ele>
        <time>2023-06-18T07:27:34Z</time>
      </trkpt>
      <trkpt lat="49.42766" lon="5.75397">
        <ele>255.39999389648</ele>
        <time>2023-06-18T07:27:36Z</time>
      </trkpt>
      <trkpt lat="49.42766" lon="5.75397">
        <ele>255.39999389648</ele>
        <time>2023-06-18T07:27:38Z</time>
      </trkpt>
      <trkpt lat="49.42766" lon="5.75396">
        <ele>255.39999389648</ele>
        <time>2023-06-18T07:27:40Z</time>
      </trkpt>
      <trkpt lat="49.42766" lon="5.75396">
        <ele>255.60000610352</ele>
        <time>2023-06-18T07:27:42Z</time>
      </trkpt>
      <trkpt lat="49.42766" lon="5.75396">
        <ele>255.60000610352</ele>
        <time>2023-06-18T07:27:44Z</time>
      </trkpt>
      <trkpt lat="49.42766" lon="5.75396">
        <ele>255.39999389648</ele>
        <time>2023-06-18T07:27:46Z</time>
      </trkpt>
      <trkpt lat="49.42767" lon="5.75396">
        <ele>255.19999694824</ele>
        <time>2023-06-18T07:27:48Z</time>
      </trkpt>
      <trkpt lat="49.42767" lon="5.75396">
        <ele>255.19999694824</ele>
        <time>2023-06-18T07:27:50Z</time>
      </trkpt>
      <trkpt lat="49.42767" lon="5.75396">
        <ele>255.19999694824</ele>
        <time>2023-06-18T07:27:51Z</time>
      </trkpt>
      <trkpt lat="49.42767" lon="5.75396">
        <ele>255.19999694824</ele>
        <time>2023-06-18T07:27:52Z</time>
      </trkpt>
      <trkpt lat="49.42768" lon="5.75396">
        <ele>255.19999694824</ele>
        <time>2023-06-18T07:27:54Z</time>
      </trkpt>
      <trkpt lat="49.42768" lon="5.75396">
        <ele>255.19999694824</ele>
        <time>2023-06-18T07:27:56Z</time>
      </trkpt>
      <trkpt lat="49.42769" lon="5.75397">
        <ele>255.19999694824</ele>
        <time>2023-06-18T07:27:58Z</time>
      </trkpt>
      <trkpt lat="49.42769" lon="5.75396">
        <ele>255.19999694824</ele>
        <time>2023-06-18T07:28:00Z</time>
      </trkpt>
      <trkpt lat="49.42769" lon="5.75397">
        <ele>255.19999694824</ele>
        <time>2023-06-18T07:28:02Z</time>
      </trkpt>
      <trkpt lat="49.42769" lon="5.75398">
        <ele>255.39999389648</ele>
        <time>2023-06-18T07:28:04Z</time>
      </trkpt>
      <trkpt lat="49.42769" lon="5.75399">
        <ele>255.39999389648</ele>
        <time>2023-06-18T07:28:06Z</time>
      </trkpt>
      <trkpt lat="49.4277" lon="5.75399">
        <ele>255.39999389648</ele>
        <time>2023-06-18T07:28:07Z</time>
      </trkpt>
      <trkpt lat="49.4277" lon="5.75399">
        <ele>255.39999389648</ele>
        <time>2023-06-18T07:28:08Z</time>
      </trkpt>
      <trkpt lat="49.4277" lon="5.75399">
        <ele>255.39999389648</ele>
        <time>2023-06-18T07:28:10Z</time>
      </trkpt>
      <trkpt lat="49.4277" lon="5.754">
        <ele>255.39999389648</ele>
        <time>2023-06-18T07:28:12Z</time>
      </trkpt>
      <trkpt lat="49.4277" lon="5.754">
        <ele>255.39999389648</ele>
        <time>2023-06-18T07:28:14Z</time>
      </trkpt>
      <trkpt lat="49.4277" lon="5.754">
        <ele>255.39999389648</ele>
        <time>2023-06-18T07:28:16Z</time>
      </trkpt>
      <trkpt lat="49.4277" lon="5.754">
        <ele>255.39999389648</ele>
        <time>2023-06-18T07:28:18Z</time>
      </trkpt>
      <trkpt lat="49.4277" lon="5.75401">
        <ele>255.39999389648</ele>
        <time>2023-06-18T07:28:20Z</time>
      </trkpt>
      <trkpt lat="49.42769" lon="5.75401">
        <ele>255.39999389648</ele>
        <time>2023-06-18T07:28:22Z</time>
      </trkpt>
      <trkpt lat="49.42769" lon="5.75401">
        <ele>255.39999389648</ele>
        <time>2023-06-18T07:28:24Z</time>
      </trkpt>
      <trkpt lat="49.42769" lon="5.75401">
        <ele>255.39999389648</ele>
        <time>2023-06-18T07:28:26Z</time>
      </trkpt>
      <trkpt lat="49.42769" lon="5.75401">
        <ele>255.19999694824</ele>
        <time>2023-06-18T07:28:28Z</time>
      </trkpt>
      <trkpt lat="49.42769" lon="5.75401">
        <ele>255.19999694824</ele>
        <time>2023-06-18T07:28:30Z</time>
      </trkpt>
      <trkpt lat="49.42769" lon="5.75401">
        <ele>255.19999694824</ele>
        <time>2023-06-18T07:28:32Z</time>
      </trkpt>
      <trkpt lat="49.42769" lon="5.75401">
        <ele>255.19999694824</ele>
        <time>2023-06-18T07:28:34Z</time>
      </trkpt>
      <trkpt lat="49.42769" lon="5.75401">
        <ele>255.19999694824</ele>
        <time>2023-06-18T07:28:36Z</time>
      </trkpt>
      <trkpt lat="49.42769" lon="5.75401">
        <ele>255.19999694824</ele>
        <time>2023-06-18T07:28:38Z</time>
      </trkpt>
      <trkpt lat="49.42769" lon="5.75401">
        <ele>255.19999694824</ele>
        <time>2023-06-18T07:28:40Z</time>
      </trkpt>
      <trkpt lat="49.42769" lon="5.75401">
        <ele>255.19999694824</ele>
        <time>2023-06-18T07:28:42Z</time>
      </trkpt>
      <trkpt lat="49.42769" lon="5.754">
        <ele>255.19999694824</ele>
        <time>2023-06-18T07:28:44Z</time>
      </trkpt>
      <trkpt lat="49.42768" lon="5.754">
        <ele>255.39999389648</ele>
        <time>2023-06-18T07:28:46Z</time>
      </trkpt>
      <trkpt lat="49.42768" lon="5.75401">
        <ele>255.39999389648</ele>
        <time>2023-06-18T07:28:48Z</time>
      </trkpt>
      <trkpt lat="49.42768" lon="5.75401">
        <ele>255.60000610352</ele>
        <time>2023-06-18T07:28:50Z</time>
      </trkpt>
      <trkpt lat="49.42769" lon="5.75401">
        <ele>255.60000610352</ele>
        <time>2023-06-18T07:28:52Z</time>
      </trkpt>
      <trkpt lat="49.42769" lon="5.75403">
        <ele>255.60000610352</ele>
        <time>2023-06-18T07:28:54Z</time>
      </trkpt>
      <trkpt lat="49.42769" lon="5.75405">
        <ele>255.60000610352</ele>
        <time>2023-06-18T07:28:56Z</time>
      </trkpt>
      <trkpt lat="49.42769" lon="5.75408">
        <ele>255.60000610352</ele>
        <time>2023-06-18T07:28:58Z</time>
      </trkpt>
      <trkpt lat="49.4277" lon="5.7541">
        <ele>255.60000610352</ele>
        <time>2023-06-18T07:28:59Z</time>
      </trkpt>
      <trkpt lat="49.4277" lon="5.75412">
        <ele>255.60000610352</ele>
        <time>2023-06-18T07:29:00Z</time>
      </trkpt>
      <trkpt lat="49.4277" lon="5.75417">
        <ele>255.60000610352</ele>
        <time>2023-06-18T07:29:02Z</time>
      </trkpt>
      <trkpt lat="49.42769" lon="5.75423">
        <ele>255.80000305176</ele>
        <time>2023-06-18T07:29:04Z</time>
      </trkpt>
      <trkpt lat="49.42769" lon="5.75428">
        <ele>255.80000305176</ele>
        <time>2023-06-18T07:29:06Z</time>
      </trkpt>
      <trkpt lat="49.42769" lon="5.75434">
        <ele>256.20001220703</ele>
        <time>2023-06-18T07:29:08Z</time>
      </trkpt>
      <trkpt lat="49.42769" lon="5.7544">
        <ele>256.60000610352</ele>
        <time>2023-06-18T07:29:10Z</time>
      </trkpt>
      <trkpt lat="49.4277" lon="5.75443">
        <ele>256.60000610352</ele>
        <time>2023-06-18T07:29:11Z</time>
      </trkpt>
      <trkpt lat="49.4277" lon="5.75445">
        <ele>257</ele>
        <time>2023-06-18T07:29:12Z</time>
      </trkpt>
      <trkpt lat="49.42771" lon="5.75448">
        <ele>257.20001220703</ele>
        <time>2023-06-18T07:29:13Z</time>
      </trkpt>
      <trkpt lat="49.42771" lon="5.7545">
        <ele>257.60000610352</ele>
        <time>2023-06-18T07:29:14Z</time>
      </trkpt>
      <trkpt lat="49.42773" lon="5.75455">
        <ele>258.39999389648</ele>
        <time>2023-06-18T07:29:16Z</time>
      </trkpt>
      <trkpt lat="49.42772" lon="5.75459">
        <ele>258.79998779297</ele>
        <time>2023-06-18T07:29:17Z</time>
      </trkpt>
      <trkpt lat="49.42772" lon="5.75462">
        <ele>259.60000610352</ele>
        <time>2023-06-18T07:29:18Z</time>
      </trkpt>
      <trkpt lat="49.42772" lon="5.75467">
        <ele>260.20001220703</ele>
        <time>2023-06-18T07:29:20Z</time>
      </trkpt>
      <trkpt lat="49.42773" lon="5.75469">
        <ele>260.60000610352</ele>
        <time>2023-06-18T07:29:21Z</time>
      </trkpt>
      <trkpt lat="49.42774" lon="5.75472">
        <ele>260.79998779297</ele>
        <time>2023-06-18T07:29:22Z</time>
      </trkpt>
      <trkpt lat="49.42775" lon="5.75479">
        <ele>261.39999389648</ele>
        <time>2023-06-18T07:29:24Z</time>
      </trkpt>
      <trkpt lat="49.42775" lon="5.75482">
        <ele>261.60000610352</ele>
        <time>2023-06-18T07:29:25Z</time>
      </trkpt>
      <trkpt lat="49.42776" lon="5.75485">
        <ele>261.79998779297</ele>
        <time>2023-06-18T07:29:26Z</time>
      </trkpt>
      <trkpt lat="49.42777" lon="5.75489">
        <ele>262.20001220703</ele>
        <time>2023-06-18T07:29:28Z</time>
      </trkpt>
      <trkpt lat="49.42778" lon="5.75495">
        <ele>262.60000610352</ele>
        <time>2023-06-18T07:29:30Z</time>
      </trkpt>
      <trkpt lat="49.42779" lon="5.75498">
        <ele>262.79998779297</ele>
        <time>2023-06-18T07:29:31Z</time>
      </trkpt>
      <trkpt lat="49.4278" lon="5.75501">
        <ele>263.20001220703</ele>
        <time>2023-06-18T07:29:32Z</time>
      </trkpt>
      <trkpt lat="49.42781" lon="5.75507">
        <ele>263.39999389648</ele>
        <time>2023-06-18T07:29:34Z</time>
      </trkpt>
      <trkpt lat="49.42782" lon="5.75513">
        <ele>263.79998779297</ele>
        <time>2023-06-18T07:29:36Z</time>
      </trkpt>
      <trkpt lat="49.42783" lon="5.75517">
        <ele>263.79998779297</ele>
        <time>2023-06-18T07:29:37Z</time>
      </trkpt>
      <trkpt lat="49.42783" lon="5.75522">
        <ele>264</ele>
        <time>2023-06-18T07:29:38Z</time>
      </trkpt>
      <trkpt lat="49.42783" lon="5.75529">
        <ele>264.39999389648</ele>
        <time>2023-06-18T07:29:40Z</time>
      </trkpt>
      <trkpt lat="49.42784" lon="5.75538">
        <ele>264.79998779297</ele>
        <time>2023-06-18T07:29:42Z</time>
      </trkpt>
      <trkpt lat="49.42783" lon="5.75541">
        <ele>264.79998779297</ele>
        <time>2023-06-18T07:29:43Z</time>
      </trkpt>
      <trkpt lat="49.42783" lon="5.75545">
        <ele>265</ele>
        <time>2023-06-18T07:29:44Z</time>
      </trkpt>
      <trkpt lat="49.42784" lon="5.75548">
        <ele>265</ele>
        <time>2023-06-18T07:29:45Z</time>
      </trkpt>
      <trkpt lat="49.42784" lon="5.75552">
        <ele>265.20001220703</ele>
        <time>2023-06-18T07:29:46Z</time>
      </trkpt>
      <trkpt lat="49.42783" lon="5.75559">
        <ele>265.39999389648</ele>
        <time>2023-06-18T07:29:48Z</time>
      </trkpt>
      <trkpt lat="49.42783" lon="5.75566">
        <ele>265.60000610352</ele>
        <time>2023-06-18T07:29:50Z</time>
      </trkpt>
      <trkpt lat="49.42782" lon="5.75574">
        <ele>265.79998779297</ele>
        <time>2023-06-18T07:29:52Z</time>
      </trkpt>
      <trkpt lat="49.42782" lon="5.75578">
        <ele>265.79998779297</ele>
        <time>2023-06-18T07:29:53Z</time>
      </trkpt>
      <trkpt lat="49.42782" lon="5.75582">
        <ele>265.79998779297</ele>
        <time>2023-06-18T07:29:54Z</time>
      </trkpt>
      <trkpt lat="49.42782" lon="5.75585">
        <ele>266</ele>
        <time>2023-06-18T07:29:55Z</time>
      </trkpt>
      <trkpt lat="49.42782" lon="5.75587">
        <ele>266.20001220703</ele>
        <time>2023-06-18T07:29:56Z</time>
      </trkpt>
      <trkpt lat="49.42782" lon="5.7559">
        <ele>266.20001220703</ele>
        <time>2023-06-18T07:29:57Z</time>
      </trkpt>
      <trkpt lat="49.42781" lon="5.75592">
        <ele>266.39999389648</ele>
        <time>2023-06-18T07:29:58Z</time>
      </trkpt>
      <trkpt lat="49.4278" lon="5.75598">
        <ele>266.39999389648</ele>
        <time>2023-06-18T07:30:00Z</time>
      </trkpt>
      <trkpt lat="49.42778" lon="5.75605">
        <ele>266.60000610352</ele>
        <time>2023-06-18T07:30:02Z</time>
      </trkpt>
      <trkpt lat="49.42777" lon="5.7561">
        <ele>266.79998779297</ele>
        <time>2023-06-18T07:30:04Z</time>
      </trkpt>
      <trkpt lat="49.42774" lon="5.75615">
        <ele>266.79998779297</ele>
        <time>2023-06-18T07:30:06Z</time>
      </trkpt>
      <trkpt lat="49.4277" lon="5.75621">
        <ele>266.79998779297</ele>
        <time>2023-06-18T07:30:08Z</time>
      </trkpt>
      <trkpt lat="49.42766" lon="5.7563">
        <ele>266.79998779297</ele>
        <time>2023-06-18T07:30:10Z</time>
      </trkpt>
      <trkpt lat="49.42761" lon="5.75638">
        <ele>266.79998779297</ele>
        <time>2023-06-18T07:30:12Z</time>
      </trkpt>
      <trkpt lat="49.42755" lon="5.75645">
        <ele>266.20001220703</ele>
        <time>2023-06-18T07:30:14Z</time>
      </trkpt>
      <trkpt lat="49.42746" lon="5.75649">
        <ele>265.20001220703</ele>
        <time>2023-06-18T07:30:16Z</time>
      </trkpt>
      <trkpt lat="49.42742" lon="5.75651">
        <ele>264.60000610352</ele>
        <time>2023-06-18T07:30:17Z</time>
      </trkpt>
      <trkpt lat="49.42739" lon="5.75654">
        <ele>264.20001220703</ele>
        <time>2023-06-18T07:30:18Z</time>
      </trkpt>
      <trkpt lat="49.42732" lon="5.75657">
        <ele>263.79998779297</ele>
        <time>2023-06-18T07:30:20Z</time>
      </trkpt>
      <trkpt lat="49.42726" lon="5.75661">
        <ele>263.79998779297</ele>
        <time>2023-06-18T07:30:22Z</time>
      </trkpt>
      <trkpt lat="49.4272" lon="5.75663">
        <ele>263.79998779297</ele>
        <time>2023-06-18T07:30:24Z</time>
      </trkpt>
      <trkpt lat="49.42717" lon="5.75664">
        <ele>263.79998779297</ele>
        <time>2023-06-18T07:30:25Z</time>
      </trkpt>
      <trkpt lat="49.42715" lon="5.75666">
        <ele>263.79998779297</ele>
        <time>2023-06-18T07:30:26Z</time>
      </trkpt>
      <trkpt lat="49.42709" lon="5.7567">
        <ele>263.79998779297</ele>
        <time>2023-06-18T07:30:28Z</time>
      </trkpt>
      <trkpt lat="49.42704" lon="5.75673">
        <ele>264.39999389648</ele>
        <time>2023-06-18T07:30:30Z</time>
      </trkpt>
      <trkpt lat="49.42701" lon="5.75674">
        <ele>264.60000610352</ele>
        <time>2023-06-18T07:30:31Z</time>
      </trkpt>
      <trkpt lat="49.42697" lon="5.75675">
        <ele>264.60000610352</ele>
        <time>2023-06-18T07:30:32Z</time>
      </trkpt>
      <trkpt lat="49.4269" lon="5.75678">
        <ele>264.79998779297</ele>
        <time>2023-06-18T07:30:34Z</time>
      </trkpt>
      <trkpt lat="49.42682" lon="5.75682">
        <ele>265</ele>
        <time>2023-06-18T07:30:36Z</time>
      </trkpt>
      <trkpt lat="49.42678" lon="5.75684">
        <ele>265</ele>
        <time>2023-06-18T07:30:37Z</time>
      </trkpt>
      <trkpt lat="49.42675" lon="5.75687">
        <ele>265</ele>
        <time>2023-06-18T07:30:38Z</time>
      </trkpt>
      <trkpt lat="49.42666" lon="5.75691">
        <ele>265</ele>
        <time>2023-06-18T07:30:40Z</time>
      </trkpt>
      <trkpt lat="49.42659" lon="5.75695">
        <ele>265</ele>
        <time>2023-06-18T07:30:42Z</time>
      </trkpt>
      <trkpt lat="49.42655" lon="5.75699">
        <ele>265</ele>
        <time>2023-06-18T07:30:43Z</time>
      </trkpt>
      <trkpt lat="49.42651" lon="5.75702">
        <ele>264.79998779297</ele>
        <time>2023-06-18T07:30:44Z</time>
      </trkpt>
      <trkpt lat="49.42645" lon="5.75708">
        <ele>264.79998779297</ele>
        <time>2023-06-18T07:30:46Z</time>
      </trkpt>
      <trkpt lat="49.4264" lon="5.75713">
        <ele>264.60000610352</ele>
        <time>2023-06-18T07:30:48Z</time>
      </trkpt>
      <trkpt lat="49.42635" lon="5.75718">
        <ele>264.20001220703</ele>
        <time>2023-06-18T07:30:50Z</time>
      </trkpt>
      <trkpt lat="49.42629" lon="5.75723">
        <ele>264.20001220703</ele>
        <time>2023-06-18T07:30:52Z</time>
      </trkpt>
      <trkpt lat="49.42623" lon="5.75728">
        <ele>264.20001220703</ele>
        <time>2023-06-18T07:30:54Z</time>
      </trkpt>
      <trkpt lat="49.42616" lon="5.75736">
        <ele>264</ele>
        <time>2023-06-18T07:30:56Z</time>
      </trkpt>
      <trkpt lat="49.42609" lon="5.75748">
        <ele>264</ele>
        <time>2023-06-18T07:30:58Z</time>
      </trkpt>
      <trkpt lat="49.42607" lon="5.75754">
        <ele>263.79998779297</ele>
        <time>2023-06-18T07:30:59Z</time>
      </trkpt>
      <trkpt lat="49.42603" lon="5.75762">
        <ele>263.79998779297</ele>
        <time>2023-06-18T07:31:00Z</time>
      </trkpt>
      <trkpt lat="49.42597" lon="5.75783">
        <ele>263.60000610352</ele>
        <time>2023-06-18T07:31:02Z</time>
      </trkpt>
      <trkpt lat="49.42594" lon="5.75793">
        <ele>263.20001220703</ele>
        <time>2023-06-18T07:31:03Z</time>
      </trkpt>
      <trkpt lat="49.42592" lon="5.75805">
        <ele>262.79998779297</ele>
        <time>2023-06-18T07:31:04Z</time>
      </trkpt>
      <trkpt lat="49.42589" lon="5.75828">
        <ele>262.39999389648</ele>
        <time>2023-06-18T07:31:06Z</time>
      </trkpt>
      <trkpt lat="49.42587" lon="5.7584">
        <ele>261.79998779297</ele>
        <time>2023-06-18T07:31:07Z</time>
      </trkpt>
      <trkpt lat="49.42583" lon="5.75853">
        <ele>261.60000610352</ele>
        <time>2023-06-18T07:31:08Z</time>
      </trkpt>
      <trkpt lat="49.42582" lon="5.75863">
        <ele>261</ele>
        <time>2023-06-18T07:31:09Z</time>
      </trkpt>
      <trkpt lat="49.4258" lon="5.75876">
        <ele>259.39999389648</ele>
        <time>2023-06-18T07:31:10Z</time>
      </trkpt>
      <trkpt lat="49.42579" lon="5.75896">
        <ele>257.79998779297</ele>
        <time>2023-06-18T07:31:12Z</time>
      </trkpt>
      <trkpt lat="49.42577" lon="5.7592">
        <ele>257</ele>
        <time>2023-06-18T07:31:14Z</time>
      </trkpt>
      <trkpt lat="49.42574" lon="5.75934">
        <ele>256.79998779297</ele>
        <time>2023-06-18T07:31:15Z</time>
      </trkpt>
      <trkpt lat="49.42573" lon="5.75947">
        <ele>256.60000610352</ele>
        <time>2023-06-18T07:31:16Z</time>
      </trkpt>
      <trkpt lat="49.42573" lon="5.75958">
        <ele>256.60000610352</ele>
        <time>2023-06-18T07:31:17Z</time>
      </trkpt>
      <trkpt lat="49.42573" lon="5.75966">
        <ele>256.39999389648</ele>
        <time>2023-06-18T07:31:18Z</time>
      </trkpt>
      <trkpt lat="49.42571" lon="5.75984">
        <ele>256.39999389648</ele>
        <time>2023-06-18T07:31:20Z</time>
      </trkpt>
      <trkpt lat="49.42571" lon="5.75992">
        <ele>256.39999389648</ele>
        <time>2023-06-18T07:31:21Z</time>
      </trkpt>
      <trkpt lat="49.42572" lon="5.75998">
        <ele>256.39999389648</ele>
        <time>2023-06-18T07:31:22Z</time>
      </trkpt>
      <trkpt lat="49.42573" lon="5.76013">
        <ele>256.39999389648</ele>
        <time>2023-06-18T07:31:24Z</time>
      </trkpt>
      <trkpt lat="49.42574" lon="5.76028">
        <ele>256.60000610352</ele>
        <time>2023-06-18T07:31:26Z</time>
      </trkpt>
      <trkpt lat="49.42577" lon="5.76041">
        <ele>256.60000610352</ele>
        <time>2023-06-18T07:31:28Z</time>
      </trkpt>
      <trkpt lat="49.4258" lon="5.76052">
        <ele>256.60000610352</ele>
        <time>2023-06-18T07:31:30Z</time>
      </trkpt>
      <trkpt lat="49.42587" lon="5.7606">
        <ele>256.79998779297</ele>
        <time>2023-06-18T07:31:32Z</time>
      </trkpt>
      <trkpt lat="49.42591" lon="5.76063">
        <ele>257</ele>
        <time>2023-06-18T07:31:33Z</time>
      </trkpt>
      <trkpt lat="49.42595" lon="5.76064">
        <ele>257</ele>
        <time>2023-06-18T07:31:34Z</time>
      </trkpt>
      <trkpt lat="49.426" lon="5.76059">
        <ele>257</ele>
        <time>2023-06-18T07:31:36Z</time>
      </trkpt>
      <trkpt lat="49.42601" lon="5.76051">
        <ele>257</ele>
        <time>2023-06-18T07:31:38Z</time>
      </trkpt>
      <trkpt lat="49.42601" lon="5.76045">
        <ele>257</ele>
        <time>2023-06-18T07:31:40Z</time>
      </trkpt>
      <trkpt lat="49.42602" lon="5.76041">
        <ele>257</ele>
        <time>2023-06-18T07:31:41Z</time>
      </trkpt>
      <trkpt lat="49.42603" lon="5.76038">
        <ele>257</ele>
        <time>2023-06-18T07:31:42Z</time>
      </trkpt>
      <trkpt lat="49.42605" lon="5.76032">
        <ele>257.20001220703</ele>
        <time>2023-06-18T07:31:44Z</time>
      </trkpt>
      <trkpt lat="49.42606" lon="5.7603">
        <ele>257.20001220703</ele>
        <time>2023-06-18T07:31:45Z</time>
      </trkpt>
      <trkpt lat="49.42607" lon="5.76028">
        <ele>257.20001220703</ele>
        <time>2023-06-18T07:31:46Z</time>
      </trkpt>
      <trkpt lat="49.42608" lon="5.76025">
        <ele>257.39999389648</ele>
        <time>2023-06-18T07:31:48Z</time>
      </trkpt>
      <trkpt lat="49.42609" lon="5.76022">
        <ele>257.60000610352</ele>
        <time>2023-06-18T07:31:50Z</time>
      </trkpt>
      <trkpt lat="49.4261" lon="5.7602">
        <ele>257.60000610352</ele>
        <time>2023-06-18T07:31:51Z</time>
      </trkpt>
      <trkpt lat="49.42611" lon="5.76018">
        <ele>258</ele>
        <time>2023-06-18T07:31:52Z</time>
      </trkpt>
      <trkpt lat="49.42612" lon="5.76015">
        <ele>258.79998779297</ele>
        <time>2023-06-18T07:31:54Z</time>
      </trkpt>
      <trkpt lat="49.42613" lon="5.76014">
        <ele>259.20001220703</ele>
        <time>2023-06-18T07:31:55Z</time>
      </trkpt>
      <trkpt lat="49.42613" lon="5.76012">
        <ele>259.39999389648</ele>
        <time>2023-06-18T07:31:56Z</time>
      </trkpt>
      <trkpt lat="49.42614" lon="5.76011">
        <ele>259.79998779297</ele>
        <time>2023-06-18T07:31:57Z</time>
      </trkpt>
      <trkpt lat="49.42615" lon="5.7601">
        <ele>260</ele>
        <time>2023-06-18T07:31:58Z</time>
      </trkpt>
      <trkpt lat="49.42616" lon="5.76008">
        <ele>260.39999389648</ele>
        <time>2023-06-18T07:31:59Z</time>
      </trkpt>
      <trkpt lat="49.42616" lon="5.76007">
        <ele>260.60000610352</ele>
        <time>2023-06-18T07:32:00Z</time>
      </trkpt>
      <trkpt lat="49.42618" lon="5.76003">
        <ele>261.20001220703</ele>
        <time>2023-06-18T07:32:02Z</time>
      </trkpt>
      <trkpt lat="49.42619" lon="5.76003">
        <ele>261.20001220703</ele>
        <time>2023-06-18T07:32:03Z</time>
      </trkpt>
      <trkpt lat="49.4262" lon="5.76003">
        <ele>261.39999389648</ele>
        <time>2023-06-18T07:32:04Z</time>
      </trkpt>
      <trkpt lat="49.42623" lon="5.76003">
        <ele>262</ele>
        <time>2023-06-18T07:32:06Z</time>
      </trkpt>
      <trkpt lat="49.42625" lon="5.76004">
        <ele>262.60000610352</ele>
        <time>2023-06-18T07:32:08Z</time>
      </trkpt>
      <trkpt lat="49.42627" lon="5.76005">
        <ele>263.60000610352</ele>
        <time>2023-06-18T07:32:10Z</time>
      </trkpt>
      <trkpt lat="49.42628" lon="5.76005">
        <ele>264</ele>
        <time>2023-06-18T07:32:11Z</time>
      </trkpt>
      <trkpt lat="49.42629" lon="5.76005">
        <ele>264.20001220703</ele>
        <time>2023-06-18T07:32:12Z</time>
      </trkpt>
      <trkpt lat="49.42632" lon="5.76005">
        <ele>264.79998779297</ele>
        <time>2023-06-18T07:32:14Z</time>
      </trkpt>
      <trkpt lat="49.42633" lon="5.76005">
        <ele>265</ele>
        <time>2023-06-18T07:32:15Z</time>
      </trkpt>
      <trkpt lat="49.42634" lon="5.76005">
        <ele>265.39999389648</ele>
        <time>2023-06-18T07:32:16Z</time>
      </trkpt>
      <trkpt lat="49.42636" lon="5.76005">
        <ele>266</ele>
        <time>2023-06-18T07:32:18Z</time>
      </trkpt>
      <trkpt lat="49.42639" lon="5.76006">
        <ele>266.60000610352</ele>
        <time>2023-06-18T07:32:20Z</time>
      </trkpt>
      <trkpt lat="49.4264" lon="5.76006">
        <ele>267</ele>
        <time>2023-06-18T07:32:21Z</time>
      </trkpt>
      <trkpt lat="49.42641" lon="5.76007">
        <ele>267.39999389648</ele>
        <time>2023-06-18T07:32:22Z</time>
      </trkpt>
      <trkpt lat="49.42644" lon="5.76009">
        <ele>268.20001220703</ele>
        <time>2023-06-18T07:32:24Z</time>
      </trkpt>
      <trkpt lat="49.42646" lon="5.76009">
        <ele>268.79998779297</ele>
        <time>2023-06-18T07:32:26Z</time>
      </trkpt>
      <trkpt lat="49.42647" lon="5.76009">
        <ele>269.20001220703</ele>
        <time>2023-06-18T07:32:27Z</time>
      </trkpt>
      <trkpt lat="49.42648" lon="5.76009">
        <ele>269.39999389648</ele>
        <time>2023-06-18T07:32:28Z</time>
      </trkpt>
      <trkpt lat="49.4265" lon="5.7601">
        <ele>270</ele>
        <time>2023-06-18T07:32:30Z</time>
      </trkpt>
      <trkpt lat="49.42652" lon="5.7601">
        <ele>270.39999389648</ele>
        <time>2023-06-18T07:32:31Z</time>
      </trkpt>
      <trkpt lat="49.42653" lon="5.7601">
        <ele>270.79998779297</ele>
        <time>2023-06-18T07:32:32Z</time>
      </trkpt>
      <trkpt lat="49.42654" lon="5.76011">
        <ele>271</ele>
        <time>2023-06-18T07:32:33Z</time>
      </trkpt>
      <trkpt lat="49.42655" lon="5.7601">
        <ele>271.39999389648</ele>
        <time>2023-06-18T07:32:34Z</time>
      </trkpt>
      <trkpt lat="49.42656" lon="5.7601">
        <ele>272</ele>
        <time>2023-06-18T07:32:35Z</time>
      </trkpt>
      <trkpt lat="49.42657" lon="5.7601">
        <ele>272.39999389648</ele>
        <time>2023-06-18T07:32:36Z</time>
      </trkpt>
      <trkpt lat="49.42659" lon="5.76011">
        <ele>273.20001220703</ele>
        <time>2023-06-18T07:32:38Z</time>
      </trkpt>
      <trkpt lat="49.42661" lon="5.76011">
        <ele>273.79998779297</ele>
        <time>2023-06-18T07:32:40Z</time>
      </trkpt>
      <trkpt lat="49.42663" lon="5.76011">
        <ele>274.39999389648</ele>
        <time>2023-06-18T07:32:42Z</time>
      </trkpt>
      <trkpt lat="49.42665" lon="5.76012">
        <ele>275</ele>
        <time>2023-06-18T07:32:44Z</time>
      </trkpt>
      <trkpt lat="49.42667" lon="5.76013">
        <ele>275.20001220703</ele>
        <time>2023-06-18T07:32:45Z</time>
      </trkpt>
      <trkpt lat="49.42668" lon="5.76013">
        <ele>275.39999389648</ele>
        <time>2023-06-18T07:32:46Z</time>
      </trkpt>
      <trkpt lat="49.42671" lon="5.76015">
        <ele>276</ele>
        <time>2023-06-18T07:32:48Z</time>
      </trkpt>
      <trkpt lat="49.42673" lon="5.76016">
        <ele>276.60000610352</ele>
        <time>2023-06-18T07:32:50Z</time>
      </trkpt>
      <trkpt lat="49.42675" lon="5.76016">
        <ele>277</ele>
        <time>2023-06-18T07:32:52Z</time>
      </trkpt>
      <trkpt lat="49.42678" lon="5.76017">
        <ele>277.60000610352</ele>
        <time>2023-06-18T07:32:54Z</time>
      </trkpt>
      <trkpt lat="49.42679" lon="5.76017">
        <ele>278</ele>
        <time>2023-06-18T07:32:55Z</time>
      </trkpt>
      <trkpt lat="49.4268" lon="5.76016">
        <ele>278.20001220703</ele>
        <time>2023-06-18T07:32:56Z</time>
      </trkpt>
      <trkpt lat="49.42682" lon="5.76016">
        <ele>278.79998779297</ele>
        <time>2023-06-18T07:32:58Z</time>
      </trkpt>
      <trkpt lat="49.42683" lon="5.76017">
        <ele>279.20001220703</ele>
        <time>2023-06-18T07:32:59Z</time>
      </trkpt>
      <trkpt lat="49.42684" lon="5.76016">
        <ele>279.60000610352</ele>
        <time>2023-06-18T07:33:00Z</time>
      </trkpt>
      <trkpt lat="49.42687" lon="5.76016">
        <ele>280.39999389648</ele>
        <time>2023-06-18T07:33:02Z</time>
      </trkpt>
      <trkpt lat="49.42689" lon="5.76017">
        <ele>280.79998779297</ele>
        <time>2023-06-18T07:33:04Z</time>
      </trkpt>
      <trkpt lat="49.4269" lon="5.76018">
        <ele>281.39999389648</ele>
        <time>2023-06-18T07:33:06Z</time>
      </trkpt>
      <trkpt lat="49.42691" lon="5.76018">
        <ele>281.60000610352</ele>
        <time>2023-06-18T07:33:07Z</time>
      </trkpt>
      <trkpt lat="49.42692" lon="5.76018">
        <ele>281.79998779297</ele>
        <time>2023-06-18T07:33:08Z</time>
      </trkpt>
      <trkpt lat="49.42694" lon="5.76018">
        <ele>282.60000610352</ele>
        <time>2023-06-18T07:33:10Z</time>
      </trkpt>
      <trkpt lat="49.42696" lon="5.76019">
        <ele>283</ele>
        <time>2023-06-18T07:33:12Z</time>
      </trkpt>
      <trkpt lat="49.42698" lon="5.76019">
        <ele>283.60000610352</ele>
        <time>2023-06-18T07:33:14Z</time>
      </trkpt>
      <trkpt lat="49.42701" lon="5.76019">
        <ele>284.20001220703</ele>
        <time>2023-06-18T07:33:16Z</time>
      </trkpt>
      <trkpt lat="49.42704" lon="5.7602">
        <ele>284.60000610352</ele>
        <time>2023-06-18T07:33:18Z</time>
      </trkpt>
      <trkpt lat="49.42705" lon="5.7602">
        <ele>285</ele>
        <time>2023-06-18T07:33:19Z</time>
      </trkpt>
      <trkpt lat="49.42707" lon="5.7602">
        <ele>285</ele>
        <time>2023-06-18T07:33:20Z</time>
      </trkpt>
      <trkpt lat="49.42709" lon="5.76019">
        <ele>285.39999389648</ele>
        <time>2023-06-18T07:33:22Z</time>
      </trkpt>
      <trkpt lat="49.42711" lon="5.76018">
        <ele>285.79998779297</ele>
        <time>2023-06-18T07:33:24Z</time>
      </trkpt>
      <trkpt lat="49.42713" lon="5.76017">
        <ele>286.20001220703</ele>
        <time>2023-06-18T07:33:26Z</time>
      </trkpt>
      <trkpt lat="49.42715" lon="5.76016">
        <ele>286.79998779297</ele>
        <time>2023-06-18T07:33:28Z</time>
      </trkpt>
      <trkpt lat="49.42716" lon="5.76016">
        <ele>287</ele>
        <time>2023-06-18T07:33:29Z</time>
      </trkpt>
      <trkpt lat="49.42717" lon="5.76015">
        <ele>287.39999389648</ele>
        <time>2023-06-18T07:33:30Z</time>
      </trkpt>
      <trkpt lat="49.42719" lon="5.76013">
        <ele>287.79998779297</ele>
        <time>2023-06-18T07:33:32Z</time>
      </trkpt>
      <trkpt lat="49.42721" lon="5.76011">
        <ele>288.20001220703</ele>
        <time>2023-06-18T07:33:34Z</time>
      </trkpt>
      <trkpt lat="49.42722" lon="5.76009">
        <ele>288.39999389648</ele>
        <time>2023-06-18T07:33:36Z</time>
      </trkpt>
      <trkpt lat="49.42724" lon="5.76007">
        <ele>289</ele>
        <time>2023-06-18T07:33:38Z</time>
      </trkpt>
      <trkpt lat="49.42726" lon="5.76005">
        <ele>289.39999389648</ele>
        <time>2023-06-18T07:33:40Z</time>
      </trkpt>
      <trkpt lat="49.42727" lon="5.76004">
        <ele>289.60000610352</ele>
        <time>2023-06-18T07:33:41Z</time>
      </trkpt>
      <trkpt lat="49.42727" lon="5.76003">
        <ele>289.79998779297</ele>
        <time>2023-06-18T07:33:42Z</time>
      </trkpt>
      <trkpt lat="49.42729" lon="5.76001">
        <ele>290.20001220703</ele>
        <time>2023-06-18T07:33:44Z</time>
      </trkpt>
      <trkpt lat="49.4273" lon="5.75999">
        <ele>290.60000610352</ele>
        <time>2023-06-18T07:33:46Z</time>
      </trkpt>
      <trkpt lat="49.42731" lon="5.75997">
        <ele>291.20001220703</ele>
        <time>2023-06-18T07:33:48Z</time>
      </trkpt>
      <trkpt lat="49.42733" lon="5.75995">
        <ele>291.60000610352</ele>
        <time>2023-06-18T07:33:50Z</time>
      </trkpt>
      <trkpt lat="49.42733" lon="5.75993">
        <ele>291.79998779297</ele>
        <time>2023-06-18T07:33:51Z</time>
      </trkpt>
      <trkpt lat="49.42734" lon="5.75992">
        <ele>292.20001220703</ele>
        <time>2023-06-18T07:33:52Z</time>
      </trkpt>
      <trkpt lat="49.42735" lon="5.75989">
        <ele>292.60000610352</ele>
        <time>2023-06-18T07:33:54Z</time>
      </trkpt>
      <trkpt lat="49.42736" lon="5.75988">
        <ele>292.79998779297</ele>
        <time>2023-06-18T07:33:55Z</time>
      </trkpt>
      <trkpt lat="49.42737" lon="5.75987">
        <ele>293</ele>
        <time>2023-06-18T07:33:56Z</time>
      </trkpt>
      <trkpt lat="49.42738" lon="5.75985">
        <ele>293.60000610352</ele>
        <time>2023-06-18T07:33:58Z</time>
      </trkpt>
      <trkpt lat="49.4274" lon="5.75983">
        <ele>294</ele>
        <time>2023-06-18T07:34:00Z</time>
      </trkpt>
      <trkpt lat="49.42741" lon="5.75981">
        <ele>294.39999389648</ele>
        <time>2023-06-18T07:34:02Z</time>
      </trkpt>
      <trkpt lat="49.42743" lon="5.75979">
        <ele>294.39999389648</ele>
        <time>2023-06-18T07:34:04Z</time>
      </trkpt>
      <trkpt lat="49.42746" lon="5.75978">
        <ele>294.60000610352</ele>
        <time>2023-06-18T07:34:06Z</time>
      </trkpt>
      <trkpt lat="49.42748" lon="5.75977">
        <ele>294.79998779297</ele>
        <time>2023-06-18T07:34:08Z</time>
      </trkpt>
      <trkpt lat="49.4275" lon="5.75975">
        <ele>295</ele>
        <time>2023-06-18T07:34:10Z</time>
      </trkpt>
      <trkpt lat="49.42752" lon="5.75974">
        <ele>295.20001220703</ele>
        <time>2023-06-18T07:34:12Z</time>
      </trkpt>
      <trkpt lat="49.42754" lon="5.75973">
        <ele>295.39999389648</ele>
        <time>2023-06-18T07:34:14Z</time>
      </trkpt>
      <trkpt lat="49.42756" lon="5.75971">
        <ele>296</ele>
        <time>2023-06-18T07:34:16Z</time>
      </trkpt>
      <trkpt lat="49.42758" lon="5.7597">
        <ele>296.20001220703</ele>
        <time>2023-06-18T07:34:17Z</time>
      </trkpt>
      <trkpt lat="49.42759" lon="5.7597">
        <ele>296.39999389648</ele>
        <time>2023-06-18T07:34:18Z</time>
      </trkpt>
      <trkpt lat="49.42761" lon="5.75967">
        <ele>296.60000610352</ele>
        <time>2023-06-18T07:34:20Z</time>
      </trkpt>
      <trkpt lat="49.42764" lon="5.75965">
        <ele>297</ele>
        <time>2023-06-18T07:34:22Z</time>
      </trkpt>
      <trkpt lat="49.42767" lon="5.75964">
        <ele>297.20001220703</ele>
        <time>2023-06-18T07:34:24Z</time>
      </trkpt>
      <trkpt lat="49.42771" lon="5.75962">
        <ele>297.39999389648</ele>
        <time>2023-06-18T07:34:26Z</time>
      </trkpt>
      <trkpt lat="49.42774" lon="5.75961">
        <ele>297.60000610352</ele>
        <time>2023-06-18T07:34:28Z</time>
      </trkpt>
      <trkpt lat="49.42775" lon="5.7596">
        <ele>297.60000610352</ele>
        <time>2023-06-18T07:34:29Z</time>
      </trkpt>
      <trkpt lat="49.42777" lon="5.75959">
        <ele>297.60000610352</ele>
        <time>2023-06-18T07:34:30Z</time>
      </trkpt>
      <trkpt lat="49.42781" lon="5.75959">
        <ele>297.60000610352</ele>
        <time>2023-06-18T07:34:32Z</time>
      </trkpt>
      <trkpt lat="49.42785" lon="5.75958">
        <ele>297.79998779297</ele>
        <time>2023-06-18T07:34:34Z</time>
      </trkpt>
      <trkpt lat="49.4279" lon="5.75958">
        <ele>298</ele>
        <time>2023-06-18T07:34:36Z</time>
      </trkpt>
      <trkpt lat="49.42792" lon="5.75958">
        <ele>298</ele>
        <time>2023-06-18T07:34:37Z</time>
      </trkpt>
      <trkpt lat="49.42794" lon="5.75958">
        <ele>298.20001220703</ele>
        <time>2023-06-18T07:34:38Z</time>
      </trkpt>
      <trkpt lat="49.42796" lon="5.75958">
        <ele>298.39999389648</ele>
        <time>2023-06-18T07:34:39Z</time>
      </trkpt>
      <trkpt lat="49.42798" lon="5.75957">
        <ele>298.60000610352</ele>
        <time>2023-06-18T07:34:40Z</time>
      </trkpt>
      <trkpt lat="49.42802" lon="5.75957">
        <ele>298.79998779297</ele>
        <time>2023-06-18T07:34:42Z</time>
      </trkpt>
      <trkpt lat="49.42806" lon="5.75956">
        <ele>299.20001220703</ele>
        <time>2023-06-18T07:34:44Z</time>
      </trkpt>
      <trkpt lat="49.42809" lon="5.75956">
        <ele>299.60000610352</ele>
        <time>2023-06-18T07:34:46Z</time>
      </trkpt>
      <trkpt lat="49.42813" lon="5.75956">
        <ele>299.79998779297</ele>
        <time>2023-06-18T07:34:48Z</time>
      </trkpt>
      <trkpt lat="49.42816" lon="5.75955">
        <ele>300.20001220703</ele>
        <time>2023-06-18T07:34:50Z</time>
      </trkpt>
      <trkpt lat="49.42819" lon="5.75955">
        <ele>300.39999389648</ele>
        <time>2023-06-18T07:34:52Z</time>
      </trkpt>
      <trkpt lat="49.42821" lon="5.75955">
        <ele>300.60000610352</ele>
        <time>2023-06-18T07:34:53Z</time>
      </trkpt>
      <trkpt lat="49.42822" lon="5.75955">
        <ele>300.79998779297</ele>
        <time>2023-06-18T07:34:54Z</time>
      </trkpt>
      <trkpt lat="49.42824" lon="5.75955">
        <ele>301</ele>
        <time>2023-06-18T07:34:55Z</time>
      </trkpt>
      <trkpt lat="49.42826" lon="5.75955">
        <ele>301.20001220703</ele>
        <time>2023-06-18T07:34:56Z</time>
      </trkpt>
      <trkpt lat="49.42829" lon="5.75955">
        <ele>301.20001220703</ele>
        <time>2023-06-18T07:34:58Z</time>
      </trkpt>
      <trkpt lat="49.42832" lon="5.75955">
        <ele>301.39999389648</ele>
        <time>2023-06-18T07:35:00Z</time>
      </trkpt>
      <trkpt lat="49.42835" lon="5.75956">
        <ele>301.60000610352</ele>
        <time>2023-06-18T07:35:02Z</time>
      </trkpt>
      <trkpt lat="49.42837" lon="5.75956">
        <ele>301.60000610352</ele>
        <time>2023-06-18T07:35:04Z</time>
      </trkpt>
      <trkpt lat="49.42838" lon="5.75956">
        <ele>301.60000610352</ele>
        <time>2023-06-18T07:35:05Z</time>
      </trkpt>
      <trkpt lat="49.4284" lon="5.75956">
        <ele>301.79998779297</ele>
        <time>2023-06-18T07:35:06Z</time>
      </trkpt>
      <trkpt lat="49.42842" lon="5.75956">
        <ele>302</ele>
        <time>2023-06-18T07:35:08Z</time>
      </trkpt>
      <trkpt lat="49.42845" lon="5.75957">
        <ele>302.39999389648</ele>
        <time>2023-06-18T07:35:10Z</time>
      </trkpt>
      <trkpt lat="49.42846" lon="5.75958">
        <ele>302.60000610352</ele>
        <time>2023-06-18T07:35:11Z</time>
      </trkpt>
      <trkpt lat="49.42847" lon="5.75958">
        <ele>302.79998779297</ele>
        <time>2023-06-18T07:35:12Z</time>
      </trkpt>
      <trkpt lat="49.4285" lon="5.75958">
        <ele>303</ele>
        <time>2023-06-18T07:35:14Z</time>
      </trkpt>
      <trkpt lat="49.42852" lon="5.75958">
        <ele>303.39999389648</ele>
        <time>2023-06-18T07:35:16Z</time>
      </trkpt>
      <trkpt lat="49.42855" lon="5.75959">
        <ele>303.60000610352</ele>
        <time>2023-06-18T07:35:18Z</time>
      </trkpt>
      <trkpt lat="49.42857" lon="5.75959">
        <ele>303.79998779297</ele>
        <time>2023-06-18T07:35:19Z</time>
      </trkpt>
      <trkpt lat="49.42858" lon="5.75959">
        <ele>303.79998779297</ele>
        <time>2023-06-18T07:35:20Z</time>
      </trkpt>
      <trkpt lat="49.42859" lon="5.75959">
        <ele>304</ele>
        <time>2023-06-18T07:35:21Z</time>
      </trkpt>
      <trkpt lat="49.42861" lon="5.75959">
        <ele>304</ele>
        <time>2023-06-18T07:35:22Z</time>
      </trkpt>
      <trkpt lat="49.42864" lon="5.7596">
        <ele>304.39999389648</ele>
        <time>2023-06-18T07:35:24Z</time>
      </trkpt>
      <trkpt lat="49.42865" lon="5.75961">
        <ele>304.60000610352</ele>
        <time>2023-06-18T07:35:25Z</time>
      </trkpt>
      <trkpt lat="49.42865" lon="5.75962">
        <ele>304.60000610352</ele>
        <time>2023-06-18T07:35:26Z</time>
      </trkpt>
      <trkpt lat="49.42867" lon="5.75965">
        <ele>304.79998779297</ele>
        <time>2023-06-18T07:35:28Z</time>
      </trkpt>
      <trkpt lat="49.42867" lon="5.75967">
        <ele>305</ele>
        <time>2023-06-18T07:35:29Z</time>
      </trkpt>
      <trkpt lat="49.42867" lon="5.75969">
        <ele>305</ele>
        <time>2023-06-18T07:35:30Z</time>
      </trkpt>
      <trkpt lat="49.42867" lon="5.75971">
        <ele>305.20001220703</ele>
        <time>2023-06-18T07:35:31Z</time>
      </trkpt>
      <trkpt lat="49.42867" lon="5.75973">
        <ele>305.39999389648</ele>
        <time>2023-06-18T07:35:32Z</time>
      </trkpt>
      <trkpt lat="49.42866" lon="5.75975">
        <ele>305.79998779297</ele>
        <time>2023-06-18T07:35:34Z</time>
      </trkpt>
      <trkpt lat="49.42865" lon="5.75977">
        <ele>305.79998779297</ele>
        <time>2023-06-18T07:35:36Z</time>
      </trkpt>
      <trkpt lat="49.42864" lon="5.75978">
        <ele>306</ele>
        <time>2023-06-18T07:35:37Z</time>
      </trkpt>
      <trkpt lat="49.42863" lon="5.75979">
        <ele>306.20001220703</ele>
        <time>2023-06-18T07:35:38Z</time>
      </trkpt>
      <trkpt lat="49.42862" lon="5.75981">
        <ele>306.20001220703</ele>
        <time>2023-06-18T07:35:40Z</time>
      </trkpt>
      <trkpt lat="49.42859" lon="5.75984">
        <ele>306.39999389648</ele>
        <time>2023-06-18T07:35:42Z</time>
      </trkpt>
      <trkpt lat="49.42857" lon="5.75986">
        <ele>306.39999389648</ele>
        <time>2023-06-18T07:35:44Z</time>
      </trkpt>
      <trkpt lat="49.42855" lon="5.75988">
        <ele>306.39999389648</ele>
        <time>2023-06-18T07:35:45Z</time>
      </trkpt>
      <trkpt lat="49.42854" lon="5.7599">
        <ele>306.39999389648</ele>
        <time>2023-06-18T07:35:46Z</time>
      </trkpt>
      <trkpt lat="49.42853" lon="5.75994">
        <ele>306.39999389648</ele>
        <time>2023-06-18T07:35:48Z</time>
      </trkpt>
      <trkpt lat="49.42852" lon="5.75999">
        <ele>306.39999389648</ele>
        <time>2023-06-18T07:35:50Z</time>
      </trkpt>
      <trkpt lat="49.4285" lon="5.76004">
        <ele>306.39999389648</ele>
        <time>2023-06-18T07:35:52Z</time>
      </trkpt>
      <trkpt lat="49.42848" lon="5.76009">
        <ele>306.39999389648</ele>
        <time>2023-06-18T07:35:54Z</time>
      </trkpt>
      <trkpt lat="49.42846" lon="5.76015">
        <ele>306.39999389648</ele>
        <time>2023-06-18T07:35:56Z</time>
      </trkpt>
      <trkpt lat="49.42844" lon="5.76021">
        <ele>306.39999389648</ele>
        <time>2023-06-18T07:35:58Z</time>
      </trkpt>
      <trkpt lat="49.42842" lon="5.76028">
        <ele>306.39999389648</ele>
        <time>2023-06-18T07:36:00Z</time>
      </trkpt>
      <trkpt lat="49.42841" lon="5.76036">
        <ele>306.39999389648</ele>
        <time>2023-06-18T07:36:02Z</time>
      </trkpt>
      <trkpt lat="49.42839" lon="5.76047">
        <ele>306.39999389648</ele>
        <time>2023-06-18T07:36:04Z</time>
      </trkpt>
      <trkpt lat="49.42836" lon="5.76059">
        <ele>306.39999389648</ele>
        <time>2023-06-18T07:36:06Z</time>
      </trkpt>
      <trkpt lat="49.42835" lon="5.76065">
        <ele>306.39999389648</ele>
        <time>2023-06-18T07:36:07Z</time>
      </trkpt>
      <trkpt lat="49.42833" lon="5.76069">
        <ele>306.39999389648</ele>
        <time>2023-06-18T07:36:08Z</time>
      </trkpt>
      <trkpt lat="49.42827" lon="5.76079">
        <ele>305.79998779297</ele>
        <time>2023-06-18T07:36:10Z</time>
      </trkpt>
      <trkpt lat="49.42822" lon="5.76085">
        <ele>305.39999389648</ele>
        <time>2023-06-18T07:36:11Z</time>
      </trkpt>
      <trkpt lat="49.42818" lon="5.76092">
        <ele>305</ele>
        <time>2023-06-18T07:36:12Z</time>
      </trkpt>
      <trkpt lat="49.4281" lon="5.76099">
        <ele>303.60000610352</ele>
        <time>2023-06-18T07:36:14Z</time>
      </trkpt>
      <trkpt lat="49.42805" lon="5.76104">
        <ele>302.39999389648</ele>
        <time>2023-06-18T07:36:16Z</time>
      </trkpt>
      <trkpt lat="49.42803" lon="5.76107">
        <ele>301.79998779297</ele>
        <time>2023-06-18T07:36:17Z</time>
      </trkpt>
      <trkpt lat="49.42802" lon="5.76111">
        <ele>301.39999389648</ele>
        <time>2023-06-18T07:36:18Z</time>
      </trkpt>
      <trkpt lat="49.42801" lon="5.76114">
        <ele>300.60000610352</ele>
        <time>2023-06-18T07:36:19Z</time>
      </trkpt>
      <trkpt lat="49.42801" lon="5.76118">
        <ele>298.39999389648</ele>
        <time>2023-06-18T07:36:20Z</time>
      </trkpt>
      <trkpt lat="49.42802" lon="5.7612">
        <ele>297.20001220703</ele>
        <time>2023-06-18T07:36:21Z</time>
      </trkpt>
      <trkpt lat="49.42803" lon="5.76123">
        <ele>296.20001220703</ele>
        <time>2023-06-18T07:36:22Z</time>
      </trkpt>
      <trkpt lat="49.42805" lon="5.7613">
        <ele>295.20001220703</ele>
        <time>2023-06-18T07:36:24Z</time>
      </trkpt>
      <trkpt lat="49.42806" lon="5.76134">
        <ele>294.79998779297</ele>
        <time>2023-06-18T07:36:25Z</time>
      </trkpt>
      <trkpt lat="49.42808" lon="5.76139">
        <ele>294.60000610352</ele>
        <time>2023-06-18T07:36:26Z</time>
      </trkpt>
      <trkpt lat="49.42808" lon="5.76149">
        <ele>293.79998779297</ele>
        <time>2023-06-18T07:36:28Z</time>
      </trkpt>
      <trkpt lat="49.4281" lon="5.7616">
        <ele>293.20001220703</ele>
        <time>2023-06-18T07:36:30Z</time>
      </trkpt>
      <trkpt lat="49.4281" lon="5.76166">
        <ele>293</ele>
        <time>2023-06-18T07:36:31Z</time>
      </trkpt>
      <trkpt lat="49.4281" lon="5.7617">
        <ele>292.60000610352</ele>
        <time>2023-06-18T07:36:32Z</time>
      </trkpt>
      <trkpt lat="49.4281" lon="5.76174">
        <ele>292.39999389648</ele>
        <time>2023-06-18T07:36:33Z</time>
      </trkpt>
      <trkpt lat="49.42811" lon="5.76179">
        <ele>292</ele>
        <time>2023-06-18T07:36:34Z</time>
      </trkpt>
      <trkpt lat="49.42811" lon="5.76189">
        <ele>291.79998779297</ele>
        <time>2023-06-18T07:36:36Z</time>
      </trkpt>
      <trkpt lat="49.4281" lon="5.762">
        <ele>291.79998779297</ele>
        <time>2023-06-18T07:36:38Z</time>
      </trkpt>
      <trkpt lat="49.4281" lon="5.76209">
        <ele>291.60000610352</ele>
        <time>2023-06-18T07:36:40Z</time>
      </trkpt>
      <trkpt lat="49.4281" lon="5.7622">
        <ele>291.60000610352</ele>
        <time>2023-06-18T07:36:42Z</time>
      </trkpt>
      <trkpt lat="49.42809" lon="5.76224">
        <ele>291.60000610352</ele>
        <time>2023-06-18T07:36:43Z</time>
      </trkpt>
      <trkpt lat="49.42808" lon="5.76228">
        <ele>291.60000610352</ele>
        <time>2023-06-18T07:36:44Z</time>
      </trkpt>
      <trkpt lat="49.42807" lon="5.76239">
        <ele>292.20001220703</ele>
        <time>2023-06-18T07:36:46Z</time>
      </trkpt>
      <trkpt lat="49.42806" lon="5.76244">
        <ele>292.79998779297</ele>
        <time>2023-06-18T07:36:47Z</time>
      </trkpt>
      <trkpt lat="49.42805" lon="5.76248">
        <ele>292.79998779297</ele>
        <time>2023-06-18T07:36:48Z</time>
      </trkpt>
      <trkpt lat="49.42804" lon="5.76258">
        <ele>293</ele>
        <time>2023-06-18T07:36:50Z</time>
      </trkpt>
      <trkpt lat="49.42804" lon="5.76266">
        <ele>293.20001220703</ele>
        <time>2023-06-18T07:36:52Z</time>
      </trkpt>
      <trkpt lat="49.42804" lon="5.76274">
        <ele>293.39999389648</ele>
        <time>2023-06-18T07:36:54Z</time>
      </trkpt>
      <trkpt lat="49.42804" lon="5.76281">
        <ele>293.60000610352</ele>
        <time>2023-06-18T07:36:56Z</time>
      </trkpt>
      <trkpt lat="49.42803" lon="5.76285">
        <ele>293.79998779297</ele>
        <time>2023-06-18T07:36:57Z</time>
      </trkpt>
      <trkpt lat="49.42802" lon="5.76289">
        <ele>293.79998779297</ele>
        <time>2023-06-18T07:36:58Z</time>
      </trkpt>
      <trkpt lat="49.42799" lon="5.76297">
        <ele>294</ele>
        <time>2023-06-18T07:37:00Z</time>
      </trkpt>
      <trkpt lat="49.42796" lon="5.76309">
        <ele>294</ele>
        <time>2023-06-18T07:37:02Z</time>
      </trkpt>
      <trkpt lat="49.42794" lon="5.76319">
        <ele>294</ele>
        <time>2023-06-18T07:37:04Z</time>
      </trkpt>
      <trkpt lat="49.42792" lon="5.76328">
        <ele>294</ele>
        <time>2023-06-18T07:37:06Z</time>
      </trkpt>
      <trkpt lat="49.4279" lon="5.76336">
        <ele>294</ele>
        <time>2023-06-18T07:37:08Z</time>
      </trkpt>
      <trkpt lat="49.42786" lon="5.76347">
        <ele>293.79998779297</ele>
        <time>2023-06-18T07:37:10Z</time>
      </trkpt>
      <trkpt lat="49.42783" lon="5.7636">
        <ele>293.60000610352</ele>
        <time>2023-06-18T07:37:12Z</time>
      </trkpt>
      <trkpt lat="49.42782" lon="5.76365">
        <ele>293.60000610352</ele>
        <time>2023-06-18T07:37:13Z</time>
      </trkpt>
      <trkpt lat="49.4278" lon="5.76371">
        <ele>293.60000610352</ele>
        <time>2023-06-18T07:37:14Z</time>
      </trkpt>
      <trkpt lat="49.42777" lon="5.76382">
        <ele>293.20001220703</ele>
        <time>2023-06-18T07:37:16Z</time>
      </trkpt>
      <trkpt lat="49.42774" lon="5.76396">
        <ele>293.20001220703</ele>
        <time>2023-06-18T07:37:18Z</time>
      </trkpt>
      <trkpt lat="49.42772" lon="5.76409">
        <ele>292.60000610352</ele>
        <time>2023-06-18T07:37:20Z</time>
      </trkpt>
      <trkpt lat="49.42771" lon="5.76415">
        <ele>292</ele>
        <time>2023-06-18T07:37:21Z</time>
      </trkpt>
      <trkpt lat="49.4277" lon="5.76421">
        <ele>291.39999389648</ele>
        <time>2023-06-18T07:37:22Z</time>
      </trkpt>
      <trkpt lat="49.42769" lon="5.76425">
        <ele>291</ele>
        <time>2023-06-18T07:37:23Z</time>
      </trkpt>
      <trkpt lat="49.42768" lon="5.76427">
        <ele>290.79998779297</ele>
        <time>2023-06-18T07:37:24Z</time>
      </trkpt>
      <trkpt lat="49.42766" lon="5.76431">
        <ele>290.60000610352</ele>
        <time>2023-06-18T07:37:26Z</time>
      </trkpt>
      <trkpt lat="49.42764" lon="5.76433">
        <ele>290.60000610352</ele>
        <time>2023-06-18T07:37:27Z</time>
      </trkpt>
      <trkpt lat="49.42764" lon="5.76434">
        <ele>290.60000610352</ele>
        <time>2023-06-18T07:37:28Z</time>
      </trkpt>
      <trkpt lat="49.42761" lon="5.76438">
        <ele>290.60000610352</ele>
        <time>2023-06-18T07:37:30Z</time>
      </trkpt>
      <trkpt lat="49.4276" lon="5.76442">
        <ele>290.60000610352</ele>
        <time>2023-06-18T07:37:32Z</time>
      </trkpt>
      <trkpt lat="49.42758" lon="5.76445">
        <ele>290.79998779297</ele>
        <time>2023-06-18T07:37:34Z</time>
      </trkpt>
      <trkpt lat="49.42755" lon="5.76451">
        <ele>291</ele>
        <time>2023-06-18T07:37:36Z</time>
      </trkpt>
      <trkpt lat="49.42754" lon="5.76452">
        <ele>291</ele>
        <time>2023-06-18T07:37:38Z</time>
      </trkpt>
      <trkpt lat="49.42754" lon="5.76452">
        <ele>291</ele>
        <time>2023-06-18T07:37:40Z</time>
      </trkpt>
      <trkpt lat="49.42754" lon="5.76452">
        <ele>291</ele>
        <time>2023-06-18T07:37:42Z</time>
      </trkpt>
      <trkpt lat="49.42754" lon="5.76451">
        <ele>291</ele>
        <time>2023-06-18T07:37:44Z</time>
      </trkpt>
      <trkpt lat="49.42755" lon="5.76451">
        <ele>291</ele>
        <time>2023-06-18T07:37:46Z</time>
      </trkpt>
      <trkpt lat="49.42754" lon="5.76451">
        <ele>291</ele>
        <time>2023-06-18T07:37:48Z</time>
      </trkpt>
      <trkpt lat="49.42754" lon="5.7645">
        <ele>291</ele>
        <time>2023-06-18T07:37:50Z</time>
      </trkpt>
      <trkpt lat="49.42754" lon="5.7645">
        <ele>291</ele>
        <time>2023-06-18T07:37:52Z</time>
      </trkpt>
      <trkpt lat="49.42753" lon="5.76451">
        <ele>291</ele>
        <time>2023-06-18T07:37:54Z</time>
      </trkpt>
      <trkpt lat="49.42752" lon="5.76452">
        <ele>291</ele>
        <time>2023-06-18T07:37:56Z</time>
      </trkpt>
      <trkpt lat="49.42751" lon="5.76453">
        <ele>291</ele>
        <time>2023-06-18T07:37:58Z</time>
      </trkpt>
      <trkpt lat="49.42751" lon="5.76453">
        <ele>291</ele>
        <time>2023-06-18T07:37:59Z</time>
      </trkpt>
      <trkpt lat="49.42751" lon="5.76453">
        <ele>291</ele>
        <time>2023-06-18T07:38:00Z</time>
      </trkpt>
      <trkpt lat="49.42749" lon="5.76454">
        <ele>291</ele>
        <time>2023-06-18T07:38:02Z</time>
      </trkpt>
      <trkpt lat="49.42749" lon="5.76455">
        <ele>290.79998779297</ele>
        <time>2023-06-18T07:38:04Z</time>
      </trkpt>
      <trkpt lat="49.42748" lon="5.76455">
        <ele>290.79998779297</ele>
        <time>2023-06-18T07:38:06Z</time>
      </trkpt>
      <trkpt lat="49.42748" lon="5.76455">
        <ele>290.79998779297</ele>
        <time>2023-06-18T07:38:08Z</time>
      </trkpt>
      <trkpt lat="49.42748" lon="5.76455">
        <ele>290.79998779297</ele>
        <time>2023-06-18T07:38:10Z</time>
      </trkpt>
      <trkpt lat="49.42748" lon="5.76455">
        <ele>290.79998779297</ele>
        <time>2023-06-18T07:38:11Z</time>
      </trkpt>
      <trkpt lat="49.42748" lon="5.76455">
        <ele>290.79998779297</ele>
        <time>2023-06-18T07:38:12Z</time>
      </trkpt>
      <trkpt lat="49.42747" lon="5.76454">
        <ele>290.79998779297</ele>
        <time>2023-06-18T07:38:14Z</time>
      </trkpt>
      <trkpt lat="49.42747" lon="5.76454">
        <ele>290.79998779297</ele>
        <time>2023-06-18T07:38:16Z</time>
      </trkpt>
      <trkpt lat="49.42747" lon="5.76455">
        <ele>290.79998779297</ele>
        <time>2023-06-18T07:38:18Z</time>
      </trkpt>
      <trkpt lat="49.42747" lon="5.76455">
        <ele>290.60000610352</ele>
        <time>2023-06-18T07:38:20Z</time>
      </trkpt>
      <trkpt lat="49.42747" lon="5.76455">
        <ele>290.60000610352</ele>
        <time>2023-06-18T07:38:22Z</time>
      </trkpt>
      <trkpt lat="49.42746" lon="5.76455">
        <ele>290.60000610352</ele>
        <time>2023-06-18T07:38:24Z</time>
      </trkpt>
      <trkpt lat="49.42746" lon="5.76455">
        <ele>290.60000610352</ele>
        <time>2023-06-18T07:38:25Z</time>
      </trkpt>
      <trkpt lat="49.42746" lon="5.76455">
        <ele>290.60000610352</ele>
        <time>2023-06-18T07:38:26Z</time>
      </trkpt>
      <trkpt lat="49.42746" lon="5.76455">
        <ele>290.60000610352</ele>
        <time>2023-06-18T07:38:28Z</time>
      </trkpt>
      <trkpt lat="49.42745" lon="5.76455">
        <ele>290.60000610352</ele>
        <time>2023-06-18T07:38:30Z</time>
      </trkpt>
      <trkpt lat="49.42745" lon="5.76455">
        <ele>290.60000610352</ele>
        <time>2023-06-18T07:38:32Z</time>
      </trkpt>
      <trkpt lat="49.42745" lon="5.76456">
        <ele>290.60000610352</ele>
        <time>2023-06-18T07:38:34Z</time>
      </trkpt>
      <trkpt lat="49.42745" lon="5.76456">
        <ele>290.60000610352</ele>
        <time>2023-06-18T07:38:36Z</time>
      </trkpt>
      <trkpt lat="49.42745" lon="5.76456">
        <ele>290.60000610352</ele>
        <time>2023-06-18T07:38:38Z</time>
      </trkpt>
      <trkpt lat="49.42745" lon="5.76456">
        <ele>290.60000610352</ele>
        <time>2023-06-18T07:38:39Z</time>
      </trkpt>
      <trkpt lat="49.42745" lon="5.76457">
        <ele>290.60000610352</ele>
        <time>2023-06-18T07:38:40Z</time>
      </trkpt>
      <trkpt lat="49.42745" lon="5.76457">
        <ele>290.39999389648</ele>
        <time>2023-06-18T07:38:42Z</time>
      </trkpt>
      <trkpt lat="49.42745" lon="5.76458">
        <ele>290.39999389648</ele>
        <time>2023-06-18T07:38:44Z</time>
      </trkpt>
      <trkpt lat="49.42745" lon="5.76458">
        <ele>290.39999389648</ele>
        <time>2023-06-18T07:38:46Z</time>
      </trkpt>
      <trkpt lat="49.42744" lon="5.76457">
        <ele>290.39999389648</ele>
        <time>2023-06-18T07:38:48Z</time>
      </trkpt>
      <trkpt lat="49.42742" lon="5.76456">
        <ele>290.39999389648</ele>
        <time>2023-06-18T07:38:50Z</time>
      </trkpt>
      <trkpt lat="49.42738" lon="5.76457">
        <ele>290.39999389648</ele>
        <time>2023-06-18T07:38:52Z</time>
      </trkpt>
      <trkpt lat="49.42734" lon="5.76457">
        <ele>290.39999389648</ele>
        <time>2023-06-18T07:38:54Z</time>
      </trkpt>
      <trkpt lat="49.42731" lon="5.76459">
        <ele>290.20001220703</ele>
        <time>2023-06-18T07:38:56Z</time>
      </trkpt>
      <trkpt lat="49.42728" lon="5.76462">
        <ele>290.20001220703</ele>
        <time>2023-06-18T07:38:58Z</time>
      </trkpt>
      <trkpt lat="49.42725" lon="5.76465">
        <ele>290.20001220703</ele>
        <time>2023-06-18T07:39:00Z</time>
      </trkpt>
      <trkpt lat="49.42721" lon="5.76469">
        <ele>290.20001220703</ele>
        <time>2023-06-18T07:39:02Z</time>
      </trkpt>
      <trkpt lat="49.4272" lon="5.76471">
        <ele>290.20001220703</ele>
        <time>2023-06-18T07:39:03Z</time>
      </trkpt>
      <trkpt lat="49.42718" lon="5.76473">
        <ele>290.20001220703</ele>
        <time>2023-06-18T07:39:04Z</time>
      </trkpt>
      <trkpt lat="49.42715" lon="5.76477">
        <ele>290.20001220703</ele>
        <time>2023-06-18T07:39:06Z</time>
      </trkpt>
      <trkpt lat="49.42712" lon="5.76481">
        <ele>290.60000610352</ele>
        <time>2023-06-18T07:39:08Z</time>
      </trkpt>
      <trkpt lat="49.42708" lon="5.76486">
        <ele>291.39999389648</ele>
        <time>2023-06-18T07:39:10Z</time>
      </trkpt>
      <trkpt lat="49.42705" lon="5.76489">
        <ele>291.60000610352</ele>
        <time>2023-06-18T07:39:12Z</time>
      </trkpt>
      <trkpt lat="49.42703" lon="5.7649">
        <ele>291.79998779297</ele>
        <time>2023-06-18T07:39:13Z</time>
      </trkpt>
      <trkpt lat="49.42701" lon="5.76493">
        <ele>292</ele>
        <time>2023-06-18T07:39:14Z</time>
      </trkpt>
      <trkpt lat="49.42699" lon="5.76494">
        <ele>292</ele>
        <time>2023-06-18T07:39:15Z</time>
      </trkpt>
      <trkpt lat="49.42697" lon="5.76495">
        <ele>292</ele>
        <time>2023-06-18T07:39:16Z</time>
      </trkpt>
      <trkpt lat="49.42693" lon="5.765">
        <ele>292</ele>
        <time>2023-06-18T07:39:18Z</time>
      </trkpt>
      <trkpt lat="49.42688" lon="5.76505">
        <ele>292.20001220703</ele>
        <time>2023-06-18T07:39:20Z</time>
      </trkpt>
      <trkpt lat="49.42683" lon="5.76509">
        <ele>292.20001220703</ele>
        <time>2023-06-18T07:39:22Z</time>
      </trkpt>
      <trkpt lat="49.42682" lon="5.7651">
        <ele>292.39999389648</ele>
        <time>2023-06-18T07:39:23Z</time>
      </trkpt>
      <trkpt lat="49.4268" lon="5.76512">
        <ele>292.39999389648</ele>
        <time>2023-06-18T07:39:24Z</time>
      </trkpt>
      <trkpt lat="49.42676" lon="5.76516">
        <ele>292.20001220703</ele>
        <time>2023-06-18T07:39:26Z</time>
      </trkpt>
      <trkpt lat="49.42672" lon="5.7652">
        <ele>292.20001220703</ele>
        <time>2023-06-18T07:39:28Z</time>
      </trkpt>
      <trkpt lat="49.42669" lon="5.76524">
        <ele>292.20001220703</ele>
        <time>2023-06-18T07:39:30Z</time>
      </trkpt>
      <trkpt lat="49.42667" lon="5.76527">
        <ele>292</ele>
        <time>2023-06-18T07:39:31Z</time>
      </trkpt>
      <trkpt lat="49.42665" lon="5.76528">
        <ele>292</ele>
        <time>2023-06-18T07:39:32Z</time>
      </trkpt>
      <trkpt lat="49.42659" lon="5.76534">
        <ele>292</ele>
        <time>2023-06-18T07:39:34Z</time>
      </trkpt>
      <trkpt lat="49.42656" lon="5.76541">
        <ele>291.79998779297</ele>
        <time>2023-06-18T07:39:36Z</time>
      </trkpt>
      <trkpt lat="49.42653" lon="5.76546">
        <ele>292</ele>
        <time>2023-06-18T07:39:37Z</time>
      </trkpt>
      <trkpt lat="49.42651" lon="5.76549">
        <ele>292</ele>
        <time>2023-06-18T07:39:38Z</time>
      </trkpt>
      <trkpt lat="49.42648" lon="5.76558">
        <ele>291.79998779297</ele>
        <time>2023-06-18T07:39:40Z</time>
      </trkpt>
      <trkpt lat="49.42644" lon="5.76568">
        <ele>291.79998779297</ele>
        <time>2023-06-18T07:39:42Z</time>
      </trkpt>
      <trkpt lat="49.42642" lon="5.76573">
        <ele>291.79998779297</ele>
        <time>2023-06-18T07:39:43Z</time>
      </trkpt>
      <trkpt lat="49.42642" lon="5.76577">
        <ele>291.79998779297</ele>
        <time>2023-06-18T07:39:44Z</time>
      </trkpt>
      <trkpt lat="49.42635" lon="5.76592">
        <ele>292</ele>
        <time>2023-06-18T07:39:46Z</time>
      </trkpt>
      <trkpt lat="49.42634" lon="5.76601">
        <ele>292.20001220703</ele>
        <time>2023-06-18T07:39:48Z</time>
      </trkpt>
      <trkpt lat="49.42634" lon="5.76607">
        <ele>292.39999389648</ele>
        <time>2023-06-18T07:39:49Z</time>
      </trkpt>
      <trkpt lat="49.42634" lon="5.76611">
        <ele>293</ele>
        <time>2023-06-18T07:39:50Z</time>
      </trkpt>
      <trkpt lat="49.42634" lon="5.76615">
        <ele>293</ele>
        <time>2023-06-18T07:39:51Z</time>
      </trkpt>
      <trkpt lat="49.42633" lon="5.76621">
        <ele>293</ele>
        <time>2023-06-18T07:39:52Z</time>
      </trkpt>
      <trkpt lat="49.42633" lon="5.76632">
        <ele>293.20001220703</ele>
        <time>2023-06-18T07:39:54Z</time>
      </trkpt>
      <trkpt lat="49.42633" lon="5.76644">
        <ele>293.20001220703</ele>
        <time>2023-06-18T07:39:56Z</time>
      </trkpt>
      <trkpt lat="49.42634" lon="5.76661">
        <ele>293.20001220703</ele>
        <time>2023-06-18T07:39:58Z</time>
      </trkpt>
      <trkpt lat="49.42635" lon="5.76668">
        <ele>293.20001220703</ele>
        <time>2023-06-18T07:39:59Z</time>
      </trkpt>
      <trkpt lat="49.42635" lon="5.76676">
        <ele>293.39999389648</ele>
        <time>2023-06-18T07:40:00Z</time>
      </trkpt>
      <trkpt lat="49.42635" lon="5.76687">
        <ele>293.20001220703</ele>
        <time>2023-06-18T07:40:02Z</time>
      </trkpt>
      <trkpt lat="49.42636" lon="5.76694">
        <ele>293.20001220703</ele>
        <time>2023-06-18T07:40:04Z</time>
      </trkpt>
      <trkpt lat="49.42638" lon="5.76705">
        <ele>293</ele>
        <time>2023-06-18T07:40:06Z</time>
      </trkpt>
      <trkpt lat="49.42641" lon="5.76717">
        <ele>292.79998779297</ele>
        <time>2023-06-18T07:40:08Z</time>
      </trkpt>
      <trkpt lat="49.42644" lon="5.76729">
        <ele>292.60000610352</ele>
        <time>2023-06-18T07:40:10Z</time>
      </trkpt>
      <trkpt lat="49.42646" lon="5.76735">
        <ele>292.60000610352</ele>
        <time>2023-06-18T07:40:11Z</time>
      </trkpt>
      <trkpt lat="49.42647" lon="5.76741">
        <ele>292.60000610352</ele>
        <time>2023-06-18T07:40:12Z</time>
      </trkpt>
      <trkpt lat="49.42649" lon="5.76751">
        <ele>292.60000610352</ele>
        <time>2023-06-18T07:40:14Z</time>
      </trkpt>
      <trkpt lat="49.42651" lon="5.76759">
        <ele>292.79998779297</ele>
        <time>2023-06-18T07:40:16Z</time>
      </trkpt>
      <trkpt lat="49.42652" lon="5.76763">
        <ele>292.79998779297</ele>
        <time>2023-06-18T07:40:17Z</time>
      </trkpt>
      <trkpt lat="49.42654" lon="5.76768">
        <ele>292.79998779297</ele>
        <time>2023-06-18T07:40:18Z</time>
      </trkpt>
      <trkpt lat="49.42656" lon="5.76778">
        <ele>293</ele>
        <time>2023-06-18T07:40:20Z</time>
      </trkpt>
      <trkpt lat="49.42659" lon="5.76787">
        <ele>293</ele>
        <time>2023-06-18T07:40:22Z</time>
      </trkpt>
      <trkpt lat="49.4266" lon="5.76791">
        <ele>293</ele>
        <time>2023-06-18T07:40:23Z</time>
      </trkpt>
      <trkpt lat="49.42661" lon="5.76796">
        <ele>293.20001220703</ele>
        <time>2023-06-18T07:40:24Z</time>
      </trkpt>
      <trkpt lat="49.42664" lon="5.76808">
        <ele>293.79998779297</ele>
        <time>2023-06-18T07:40:26Z</time>
      </trkpt>
      <trkpt lat="49.42665" lon="5.76814">
        <ele>294.20001220703</ele>
        <time>2023-06-18T07:40:27Z</time>
      </trkpt>
      <trkpt lat="49.42666" lon="5.76819">
        <ele>294.39999389648</ele>
        <time>2023-06-18T07:40:28Z</time>
      </trkpt>
      <trkpt lat="49.42667" lon="5.76824">
        <ele>294.60000610352</ele>
        <time>2023-06-18T07:40:29Z</time>
      </trkpt>
      <trkpt lat="49.42668" lon="5.76831">
        <ele>294.60000610352</ele>
        <time>2023-06-18T07:40:30Z</time>
      </trkpt>
      <trkpt lat="49.42669" lon="5.76846">
        <ele>294.60000610352</ele>
        <time>2023-06-18T07:40:32Z</time>
      </trkpt>
      <trkpt lat="49.4267" lon="5.7686">
        <ele>294.60000610352</ele>
        <time>2023-06-18T07:40:34Z</time>
      </trkpt>
      <trkpt lat="49.4267" lon="5.76867">
        <ele>294.60000610352</ele>
        <time>2023-06-18T07:40:35Z</time>
      </trkpt>
      <trkpt lat="49.4267" lon="5.76876">
        <ele>294.39999389648</ele>
        <time>2023-06-18T07:40:36Z</time>
      </trkpt>
      <trkpt lat="49.4267" lon="5.76889">
        <ele>293.39999389648</ele>
        <time>2023-06-18T07:40:38Z</time>
      </trkpt>
      <trkpt lat="49.42671" lon="5.76897">
        <ele>293.20001220703</ele>
        <time>2023-06-18T07:40:39Z</time>
      </trkpt>
      <trkpt lat="49.42672" lon="5.76904">
        <ele>292.60000610352</ele>
        <time>2023-06-18T07:40:40Z</time>
      </trkpt>
      <trkpt lat="49.42672" lon="5.76911">
        <ele>292.39999389648</ele>
        <time>2023-06-18T07:40:41Z</time>
      </trkpt>
      <trkpt lat="49.42673" lon="5.76917">
        <ele>292.20001220703</ele>
        <time>2023-06-18T07:40:42Z</time>
      </trkpt>
      <trkpt lat="49.42673" lon="5.76924">
        <ele>292</ele>
        <time>2023-06-18T07:40:43Z</time>
      </trkpt>
      <trkpt lat="49.42675" lon="5.76932">
        <ele>292</ele>
        <time>2023-06-18T07:40:44Z</time>
      </trkpt>
      <trkpt lat="49.42678" lon="5.76945">
        <ele>292</ele>
        <time>2023-06-18T07:40:46Z</time>
      </trkpt>
      <trkpt lat="49.42678" lon="5.76952">
        <ele>292</ele>
        <time>2023-06-18T07:40:47Z</time>
      </trkpt>
      <trkpt lat="49.42679" lon="5.76958">
        <ele>292</ele>
        <time>2023-06-18T07:40:48Z</time>
      </trkpt>
      <trkpt lat="49.42681" lon="5.7697">
        <ele>292</ele>
        <time>2023-06-18T07:40:50Z</time>
      </trkpt>
      <trkpt lat="49.42682" lon="5.76981">
        <ele>292</ele>
        <time>2023-06-18T07:40:52Z</time>
      </trkpt>
      <trkpt lat="49.42683" lon="5.76986">
        <ele>292.20001220703</ele>
        <time>2023-06-18T07:40:53Z</time>
      </trkpt>
      <trkpt lat="49.42681" lon="5.76994">
        <ele>292.60000610352</ele>
        <time>2023-06-18T07:40:54Z</time>
      </trkpt>
      <trkpt lat="49.4268" lon="5.7701">
        <ele>293.39999389648</ele>
        <time>2023-06-18T07:40:56Z</time>
      </trkpt>
      <trkpt lat="49.42679" lon="5.77022">
        <ele>294</ele>
        <time>2023-06-18T07:40:58Z</time>
      </trkpt>
      <trkpt lat="49.42678" lon="5.77029">
        <ele>294.39999389648</ele>
        <time>2023-06-18T07:40:59Z</time>
      </trkpt>
      <trkpt lat="49.42678" lon="5.77036">
        <ele>294.79998779297</ele>
        <time>2023-06-18T07:41:00Z</time>
      </trkpt>
      <trkpt lat="49.42676" lon="5.77049">
        <ele>296</ele>
        <time>2023-06-18T07:41:02Z</time>
      </trkpt>
      <trkpt lat="49.42675" lon="5.77062">
        <ele>296.60000610352</ele>
        <time>2023-06-18T07:41:04Z</time>
      </trkpt>
      <trkpt lat="49.42675" lon="5.77075">
        <ele>297</ele>
        <time>2023-06-18T07:41:06Z</time>
      </trkpt>
      <trkpt lat="49.42674" lon="5.77085">
        <ele>297.39999389648</ele>
        <time>2023-06-18T07:41:08Z</time>
      </trkpt>
      <trkpt lat="49.42674" lon="5.77093">
        <ele>297.60000610352</ele>
        <time>2023-06-18T07:41:10Z</time>
      </trkpt>
      <trkpt lat="49.42674" lon="5.77103">
        <ele>298.20001220703</ele>
        <time>2023-06-18T07:41:12Z</time>
      </trkpt>
      <trkpt lat="49.42675" lon="5.77108">
        <ele>298.20001220703</ele>
        <time>2023-06-18T07:41:13Z</time>
      </trkpt>
      <trkpt lat="49.42674" lon="5.77111">
        <ele>298.60000610352</ele>
        <time>2023-06-18T07:41:14Z</time>
      </trkpt>
      <trkpt lat="49.42672" lon="5.7712">
        <ele>299.20001220703</ele>
        <time>2023-06-18T07:41:16Z</time>
      </trkpt>
      <trkpt lat="49.42671" lon="5.77124">
        <ele>299.60000610352</ele>
        <time>2023-06-18T07:41:17Z</time>
      </trkpt>
      <trkpt lat="49.42671" lon="5.77127">
        <ele>299.79998779297</ele>
        <time>2023-06-18T07:41:18Z</time>
      </trkpt>
      <trkpt lat="49.42671" lon="5.77134">
        <ele>300.60000610352</ele>
        <time>2023-06-18T07:41:20Z</time>
      </trkpt>
      <trkpt lat="49.42671" lon="5.77142">
        <ele>301.20001220703</ele>
        <time>2023-06-18T07:41:22Z</time>
      </trkpt>
      <trkpt lat="49.42672" lon="5.77145">
        <ele>301.39999389648</ele>
        <time>2023-06-18T07:41:23Z</time>
      </trkpt>
      <trkpt lat="49.42672" lon="5.7715">
        <ele>301.79998779297</ele>
        <time>2023-06-18T07:41:24Z</time>
      </trkpt>
      <trkpt lat="49.42674" lon="5.77159">
        <ele>302.20001220703</ele>
        <time>2023-06-18T07:41:26Z</time>
      </trkpt>
      <trkpt lat="49.42676" lon="5.77168">
        <ele>302.60000610352</ele>
        <time>2023-06-18T07:41:28Z</time>
      </trkpt>
      <trkpt lat="49.42676" lon="5.77172">
        <ele>303</ele>
        <time>2023-06-18T07:41:29Z</time>
      </trkpt>
      <trkpt lat="49.42676" lon="5.77176">
        <ele>303.39999389648</ele>
        <time>2023-06-18T07:41:30Z</time>
      </trkpt>
      <trkpt lat="49.42677" lon="5.77183">
        <ele>303.79998779297</ele>
        <time>2023-06-18T07:41:32Z</time>
      </trkpt>
      <trkpt lat="49.42678" lon="5.77186">
        <ele>304</ele>
        <time>2023-06-18T07:41:33Z</time>
      </trkpt>
      <trkpt lat="49.42679" lon="5.77189">
        <ele>304.20001220703</ele>
        <time>2023-06-18T07:41:34Z</time>
      </trkpt>
      <trkpt lat="49.42679" lon="5.77197">
        <ele>304.39999389648</ele>
        <time>2023-06-18T07:41:36Z</time>
      </trkpt>
      <trkpt lat="49.4268" lon="5.77206">
        <ele>304.60000610352</ele>
        <time>2023-06-18T07:41:38Z</time>
      </trkpt>
      <trkpt lat="49.42681" lon="5.77214">
        <ele>304.79998779297</ele>
        <time>2023-06-18T07:41:40Z</time>
      </trkpt>
      <trkpt lat="49.42682" lon="5.77224">
        <ele>304.79998779297</ele>
        <time>2023-06-18T07:41:42Z</time>
      </trkpt>
      <trkpt lat="49.42682" lon="5.77229">
        <ele>304.79998779297</ele>
        <time>2023-06-18T07:41:43Z</time>
      </trkpt>
      <trkpt lat="49.42683" lon="5.77234">
        <ele>304.79998779297</ele>
        <time>2023-06-18T07:41:44Z</time>
      </trkpt>
      <trkpt lat="49.42684" lon="5.77243">
        <ele>304.79998779297</ele>
        <time>2023-06-18T07:41:46Z</time>
      </trkpt>
      <trkpt lat="49.42687" lon="5.77252">
        <ele>304.79998779297</ele>
        <time>2023-06-18T07:41:48Z</time>
      </trkpt>
      <trkpt lat="49.42688" lon="5.7726">
        <ele>305</ele>
        <time>2023-06-18T07:41:50Z</time>
      </trkpt>
      <trkpt lat="49.4269" lon="5.77269">
        <ele>305</ele>
        <time>2023-06-18T07:41:52Z</time>
      </trkpt>
      <trkpt lat="49.4269" lon="5.77275">
        <ele>305.20001220703</ele>
        <time>2023-06-18T07:41:53Z</time>
      </trkpt>
      <trkpt lat="49.4269" lon="5.77279">
        <ele>305.39999389648</ele>
        <time>2023-06-18T07:41:54Z</time>
      </trkpt>
      <trkpt lat="49.42691" lon="5.77284">
        <ele>305.60000610352</ele>
        <time>2023-06-18T07:41:55Z</time>
      </trkpt>
      <trkpt lat="49.42691" lon="5.7729">
        <ele>305.79998779297</ele>
        <time>2023-06-18T07:41:56Z</time>
      </trkpt>
      <trkpt lat="49.42692" lon="5.77295">
        <ele>305.79998779297</ele>
        <time>2023-06-18T07:41:57Z</time>
      </trkpt>
      <trkpt lat="49.42694" lon="5.77301">
        <ele>306</ele>
        <time>2023-06-18T07:41:58Z</time>
      </trkpt>
      <trkpt lat="49.42695" lon="5.77311">
        <ele>306.20001220703</ele>
        <time>2023-06-18T07:42:00Z</time>
      </trkpt>
      <trkpt lat="49.42697" lon="5.77317">
        <ele>306.20001220703</ele>
        <time>2023-06-18T07:42:01Z</time>
      </trkpt>
      <trkpt lat="49.42697" lon="5.77321">
        <ele>306.20001220703</ele>
        <time>2023-06-18T07:42:02Z</time>
      </trkpt>
      <trkpt lat="49.42699" lon="5.77332">
        <ele>306.39999389648</ele>
        <time>2023-06-18T07:42:04Z</time>
      </trkpt>
      <trkpt lat="49.427" lon="5.77339">
        <ele>306.39999389648</ele>
        <time>2023-06-18T07:42:05Z</time>
      </trkpt>
      <trkpt lat="49.42701" lon="5.77346">
        <ele>306.39999389648</ele>
        <time>2023-06-18T07:42:06Z</time>
      </trkpt>
      <trkpt lat="49.42702" lon="5.77357">
        <ele>306.39999389648</ele>
        <time>2023-06-18T07:42:08Z</time>
      </trkpt>
      <trkpt lat="49.42705" lon="5.7737">
        <ele>306.39999389648</ele>
        <time>2023-06-18T07:42:10Z</time>
      </trkpt>
      <trkpt lat="49.42708" lon="5.77382">
        <ele>306.20001220703</ele>
        <time>2023-06-18T07:42:12Z</time>
      </trkpt>
      <trkpt lat="49.42712" lon="5.77393">
        <ele>306.20001220703</ele>
        <time>2023-06-18T07:42:14Z</time>
      </trkpt>
      <trkpt lat="49.42716" lon="5.77401">
        <ele>306.20001220703</ele>
        <time>2023-06-18T07:42:16Z</time>
      </trkpt>
      <trkpt lat="49.42718" lon="5.77406">
        <ele>306.20001220703</ele>
        <time>2023-06-18T07:42:18Z</time>
      </trkpt>
      <trkpt lat="49.4272" lon="5.7741">
        <ele>306.20001220703</ele>
        <time>2023-06-18T07:42:20Z</time>
      </trkpt>
      <trkpt lat="49.42725" lon="5.77418">
        <ele>306.20001220703</ele>
        <time>2023-06-18T07:42:22Z</time>
      </trkpt>
      <trkpt lat="49.42726" lon="5.77423">
        <ele>306.60000610352</ele>
        <time>2023-06-18T07:42:24Z</time>
      </trkpt>
      <trkpt lat="49.42728" lon="5.77429">
        <ele>307.60000610352</ele>
        <time>2023-06-18T07:42:26Z</time>
      </trkpt>
      <trkpt lat="49.42729" lon="5.77431">
        <ele>308</ele>
        <time>2023-06-18T07:42:27Z</time>
      </trkpt>
      <trkpt lat="49.4273" lon="5.77435">
        <ele>308.39999389648</ele>
        <time>2023-06-18T07:42:28Z</time>
      </trkpt>
      <trkpt lat="49.42732" lon="5.77438">
        <ele>308.60000610352</ele>
        <time>2023-06-18T07:42:29Z</time>
      </trkpt>
      <trkpt lat="49.42733" lon="5.7744">
        <ele>308.79998779297</ele>
        <time>2023-06-18T07:42:30Z</time>
      </trkpt>
      <trkpt lat="49.42738" lon="5.77448">
        <ele>309.39999389648</ele>
        <time>2023-06-18T07:42:32Z</time>
      </trkpt>
      <trkpt lat="49.42743" lon="5.77456">
        <ele>309.79998779297</ele>
        <time>2023-06-18T07:42:34Z</time>
      </trkpt>
      <trkpt lat="49.42749" lon="5.77458">
        <ele>310.39999389648</ele>
        <time>2023-06-18T07:42:36Z</time>
      </trkpt>
      <trkpt lat="49.42755" lon="5.77459">
        <ele>311.20001220703</ele>
        <time>2023-06-18T07:42:38Z</time>
      </trkpt>
      <trkpt lat="49.4276" lon="5.7746">
        <ele>312</ele>
        <time>2023-06-18T07:42:40Z</time>
      </trkpt>
      <trkpt lat="49.42763" lon="5.77463">
        <ele>312.39999389648</ele>
        <time>2023-06-18T07:42:41Z</time>
      </trkpt>
      <trkpt lat="49.42765" lon="5.77467">
        <ele>312.79998779297</ele>
        <time>2023-06-18T07:42:42Z</time>
      </trkpt>
      <trkpt lat="49.42769" lon="5.77473">
        <ele>313.39999389648</ele>
        <time>2023-06-18T07:42:44Z</time>
      </trkpt>
      <trkpt lat="49.4277" lon="5.77475">
        <ele>313.79998779297</ele>
        <time>2023-06-18T07:42:45Z</time>
      </trkpt>
      <trkpt lat="49.42771" lon="5.77478">
        <ele>314</ele>
        <time>2023-06-18T07:42:46Z</time>
      </trkpt>
      <trkpt lat="49.42773" lon="5.77484">
        <ele>314.60000610352</ele>
        <time>2023-06-18T07:42:48Z</time>
      </trkpt>
      <trkpt lat="49.42774" lon="5.77491">
        <ele>314.79998779297</ele>
        <time>2023-06-18T07:42:50Z</time>
      </trkpt>
      <trkpt lat="49.42774" lon="5.77495">
        <ele>314.79998779297</ele>
        <time>2023-06-18T07:42:51Z</time>
      </trkpt>
      <trkpt lat="49.42776" lon="5.775">
        <ele>315.20001220703</ele>
        <time>2023-06-18T07:42:52Z</time>
      </trkpt>
      <trkpt lat="49.42779" lon="5.7751">
        <ele>315.20001220703</ele>
        <time>2023-06-18T07:42:54Z</time>
      </trkpt>
      <trkpt lat="49.42782" lon="5.77522">
        <ele>315.20001220703</ele>
        <time>2023-06-18T07:42:56Z</time>
      </trkpt>
      <trkpt lat="49.42784" lon="5.77527">
        <ele>315.20001220703</ele>
        <time>2023-06-18T07:42:57Z</time>
      </trkpt>
      <trkpt lat="49.42785" lon="5.77534">
        <ele>314.79998779297</ele>
        <time>2023-06-18T07:42:58Z</time>
      </trkpt>
      <trkpt lat="49.42791" lon="5.77549">
        <ele>314.60000610352</ele>
        <time>2023-06-18T07:43:00Z</time>
      </trkpt>
      <trkpt lat="49.42795" lon="5.7756">
        <ele>314</ele>
        <time>2023-06-18T07:43:02Z</time>
      </trkpt>
      <trkpt lat="49.42797" lon="5.77566">
        <ele>314</ele>
        <time>2023-06-18T07:43:03Z</time>
      </trkpt>
      <trkpt lat="49.42799" lon="5.77572">
        <ele>313.79998779297</ele>
        <time>2023-06-18T07:43:04Z</time>
      </trkpt>
      <trkpt lat="49.42804" lon="5.77582">
        <ele>313.79998779297</ele>
        <time>2023-06-18T07:43:06Z</time>
      </trkpt>
      <trkpt lat="49.4281" lon="5.77593">
        <ele>313.79998779297</ele>
        <time>2023-06-18T07:43:08Z</time>
      </trkpt>
      <trkpt lat="49.42816" lon="5.77603">
        <ele>313.79998779297</ele>
        <time>2023-06-18T07:43:10Z</time>
      </trkpt>
      <trkpt lat="49.42821" lon="5.77611">
        <ele>313.79998779297</ele>
        <time>2023-06-18T07:43:12Z</time>
      </trkpt>
      <trkpt lat="49.42826" lon="5.77619">
        <ele>313.79998779297</ele>
        <time>2023-06-18T07:43:14Z</time>
      </trkpt>
      <trkpt lat="49.42829" lon="5.77626">
        <ele>314</ele>
        <time>2023-06-18T07:43:16Z</time>
      </trkpt>
      <trkpt lat="49.42834" lon="5.77635">
        <ele>314.39999389648</ele>
        <time>2023-06-18T07:43:18Z</time>
      </trkpt>
      <trkpt lat="49.42839" lon="5.77645">
        <ele>314.79998779297</ele>
        <time>2023-06-18T07:43:20Z</time>
      </trkpt>
      <trkpt lat="49.42841" lon="5.7765">
        <ele>314.79998779297</ele>
        <time>2023-06-18T07:43:21Z</time>
      </trkpt>
      <trkpt lat="49.42843" lon="5.77655">
        <ele>315.20001220703</ele>
        <time>2023-06-18T07:43:22Z</time>
      </trkpt>
      <trkpt lat="49.42848" lon="5.77666">
        <ele>315.39999389648</ele>
        <time>2023-06-18T07:43:24Z</time>
      </trkpt>
      <trkpt lat="49.4285" lon="5.77671">
        <ele>315.79998779297</ele>
        <time>2023-06-18T07:43:25Z</time>
      </trkpt>
      <trkpt lat="49.42852" lon="5.77675">
        <ele>316</ele>
        <time>2023-06-18T07:43:26Z</time>
      </trkpt>
      <trkpt lat="49.42855" lon="5.77679">
        <ele>316</ele>
        <time>2023-06-18T07:43:27Z</time>
      </trkpt>
      <trkpt lat="49.42857" lon="5.77684">
        <ele>316</ele>
        <time>2023-06-18T07:43:28Z</time>
      </trkpt>
      <trkpt lat="49.4286" lon="5.77694">
        <ele>316.39999389648</ele>
        <time>2023-06-18T07:43:30Z</time>
      </trkpt>
      <trkpt lat="49.42865" lon="5.77704">
        <ele>316.60000610352</ele>
        <time>2023-06-18T07:43:32Z</time>
      </trkpt>
      <trkpt lat="49.42866" lon="5.77712">
        <ele>316.79998779297</ele>
        <time>2023-06-18T07:43:34Z</time>
      </trkpt>
      <trkpt lat="49.42868" lon="5.7772">
        <ele>317</ele>
        <time>2023-06-18T07:43:36Z</time>
      </trkpt>
      <trkpt lat="49.4287" lon="5.77724">
        <ele>317</ele>
        <time>2023-06-18T07:43:37Z</time>
      </trkpt>
      <trkpt lat="49.42872" lon="5.7773">
        <ele>317</ele>
        <time>2023-06-18T07:43:38Z</time>
      </trkpt>
      <trkpt lat="49.42874" lon="5.77741">
        <ele>317.20001220703</ele>
        <time>2023-06-18T07:43:40Z</time>
      </trkpt>
      <trkpt lat="49.42878" lon="5.77751">
        <ele>317.39999389648</ele>
        <time>2023-06-18T07:43:42Z</time>
      </trkpt>
      <trkpt lat="49.42879" lon="5.77757">
        <ele>317.39999389648</ele>
        <time>2023-06-18T07:43:43Z</time>
      </trkpt>
      <trkpt lat="49.4288" lon="5.77764">
        <ele>317.39999389648</ele>
        <time>2023-06-18T07:43:44Z</time>
      </trkpt>
      <trkpt lat="49.42883" lon="5.77778">
        <ele>317.39999389648</ele>
        <time>2023-06-18T07:43:46Z</time>
      </trkpt>
      <trkpt lat="49.42887" lon="5.77792">
        <ele>317.39999389648</ele>
        <time>2023-06-18T07:43:48Z</time>
      </trkpt>
      <trkpt lat="49.4289" lon="5.77805">
        <ele>317.39999389648</ele>
        <time>2023-06-18T07:43:50Z</time>
      </trkpt>
      <trkpt lat="49.42894" lon="5.77817">
        <ele>317.39999389648</ele>
        <time>2023-06-18T07:43:52Z</time>
      </trkpt>
      <trkpt lat="49.42896" lon="5.77822">
        <ele>317.39999389648</ele>
        <time>2023-06-18T07:43:53Z</time>
      </trkpt>
      <trkpt lat="49.42898" lon="5.77827">
        <ele>317.39999389648</ele>
        <time>2023-06-18T07:43:54Z</time>
      </trkpt>
      <trkpt lat="49.42902" lon="5.77841">
        <ele>317.39999389648</ele>
        <time>2023-06-18T07:43:56Z</time>
      </trkpt>
      <trkpt lat="49.42906" lon="5.77852">
        <ele>317.39999389648</ele>
        <time>2023-06-18T07:43:58Z</time>
      </trkpt>
      <trkpt lat="49.42907" lon="5.77856">
        <ele>317.39999389648</ele>
        <time>2023-06-18T07:43:59Z</time>
      </trkpt>
      <trkpt lat="49.42907" lon="5.7786">
        <ele>317.39999389648</ele>
        <time>2023-06-18T07:44:00Z</time>
      </trkpt>
      <trkpt lat="49.42907" lon="5.77868">
        <ele>317.39999389648</ele>
        <time>2023-06-18T07:44:02Z</time>
      </trkpt>
      <trkpt lat="49.42906" lon="5.77876">
        <ele>317.39999389648</ele>
        <time>2023-06-18T07:44:04Z</time>
      </trkpt>
      <trkpt lat="49.42904" lon="5.77886">
        <ele>317.39999389648</ele>
        <time>2023-06-18T07:44:06Z</time>
      </trkpt>
      <trkpt lat="49.42899" lon="5.77897">
        <ele>317.39999389648</ele>
        <time>2023-06-18T07:44:08Z</time>
      </trkpt>
      <trkpt lat="49.42892" lon="5.7791">
        <ele>317.39999389648</ele>
        <time>2023-06-18T07:44:10Z</time>
      </trkpt>
      <trkpt lat="49.42888" lon="5.77919">
        <ele>317.20001220703</ele>
        <time>2023-06-18T07:44:12Z</time>
      </trkpt>
      <trkpt lat="49.42885" lon="5.77924">
        <ele>317</ele>
        <time>2023-06-18T07:44:13Z</time>
      </trkpt>
      <trkpt lat="49.42884" lon="5.77928">
        <ele>316.39999389648</ele>
        <time>2023-06-18T07:44:14Z</time>
      </trkpt>
      <trkpt lat="49.42882" lon="5.77932">
        <ele>315.39999389648</ele>
        <time>2023-06-18T07:44:15Z</time>
      </trkpt>
      <trkpt lat="49.42881" lon="5.77936">
        <ele>314.79998779297</ele>
        <time>2023-06-18T07:44:16Z</time>
      </trkpt>
      <trkpt lat="49.42879" lon="5.7794">
        <ele>313.79998779297</ele>
        <time>2023-06-18T07:44:17Z</time>
      </trkpt>
      <trkpt lat="49.42877" lon="5.77944">
        <ele>311.60000610352</ele>
        <time>2023-06-18T07:44:18Z</time>
      </trkpt>
      <trkpt lat="49.42876" lon="5.77947">
        <ele>310.79998779297</ele>
        <time>2023-06-18T07:44:19Z</time>
      </trkpt>
      <trkpt lat="49.42874" lon="5.77951">
        <ele>310.20001220703</ele>
        <time>2023-06-18T07:44:20Z</time>
      </trkpt>
      <trkpt lat="49.42872" lon="5.77957">
        <ele>310</ele>
        <time>2023-06-18T07:44:22Z</time>
      </trkpt>
      <trkpt lat="49.42868" lon="5.77964">
        <ele>308.79998779297</ele>
        <time>2023-06-18T07:44:24Z</time>
      </trkpt>
      <trkpt lat="49.4286" lon="5.77977">
        <ele>308</ele>
        <time>2023-06-18T07:44:26Z</time>
      </trkpt>
      <trkpt lat="49.42855" lon="5.77984">
        <ele>307.39999389648</ele>
        <time>2023-06-18T07:44:27Z</time>
      </trkpt>
      <trkpt lat="49.4285" lon="5.77993">
        <ele>307</ele>
        <time>2023-06-18T07:44:28Z</time>
      </trkpt>
      <trkpt lat="49.42839" lon="5.78011">
        <ele>306.20001220703</ele>
        <time>2023-06-18T07:44:30Z</time>
      </trkpt>
      <trkpt lat="49.42832" lon="5.78019">
        <ele>305.79998779297</ele>
        <time>2023-06-18T07:44:31Z</time>
      </trkpt>
      <trkpt lat="49.42825" lon="5.78026">
        <ele>305</ele>
        <time>2023-06-18T07:44:32Z</time>
      </trkpt>
      <trkpt lat="49.42817" lon="5.78031">
        <ele>303.79998779297</ele>
        <time>2023-06-18T07:44:33Z</time>
      </trkpt>
      <trkpt lat="49.42808" lon="5.78037">
        <ele>302.79998779297</ele>
        <time>2023-06-18T07:44:34Z</time>
      </trkpt>
      <trkpt lat="49.428" lon="5.78041">
        <ele>301.60000610352</ele>
        <time>2023-06-18T07:44:35Z</time>
      </trkpt>
      <trkpt lat="49.42792" lon="5.78046">
        <ele>299.60000610352</ele>
        <time>2023-06-18T07:44:36Z</time>
      </trkpt>
      <trkpt lat="49.42785" lon="5.78048">
        <ele>297.79998779297</ele>
        <time>2023-06-18T07:44:37Z</time>
      </trkpt>
      <trkpt lat="49.4278" lon="5.78051">
        <ele>296</ele>
        <time>2023-06-18T07:44:38Z</time>
      </trkpt>
      <trkpt lat="49.42773" lon="5.78055">
        <ele>294.79998779297</ele>
        <time>2023-06-18T07:44:39Z</time>
      </trkpt>
      <trkpt lat="49.42767" lon="5.7806">
        <ele>292.79998779297</ele>
        <time>2023-06-18T07:44:40Z</time>
      </trkpt>
      <trkpt lat="49.4276" lon="5.78066">
        <ele>291</ele>
        <time>2023-06-18T07:44:41Z</time>
      </trkpt>
      <trkpt lat="49.42755" lon="5.78072">
        <ele>289</ele>
        <time>2023-06-18T07:44:42Z</time>
      </trkpt>
      <trkpt lat="49.42751" lon="5.7808">
        <ele>287.20001220703</ele>
        <time>2023-06-18T07:44:43Z</time>
      </trkpt>
      <trkpt lat="49.42748" lon="5.7809">
        <ele>286.20001220703</ele>
        <time>2023-06-18T07:44:44Z</time>
      </trkpt>
      <trkpt lat="49.42743" lon="5.78114">
        <ele>283.79998779297</ele>
        <time>2023-06-18T07:44:46Z</time>
      </trkpt>
      <trkpt lat="49.42742" lon="5.78127">
        <ele>282.20001220703</ele>
        <time>2023-06-18T07:44:47Z</time>
      </trkpt>
      <trkpt lat="49.42739" lon="5.7814">
        <ele>280.60000610352</ele>
        <time>2023-06-18T07:44:48Z</time>
      </trkpt>
      <trkpt lat="49.42737" lon="5.78145">
        <ele>278.79998779297</ele>
        <time>2023-06-18T07:44:49Z</time>
      </trkpt>
      <trkpt lat="49.42734" lon="5.7815">
        <ele>277.60000610352</ele>
        <time>2023-06-18T07:44:50Z</time>
      </trkpt>
      <trkpt lat="49.42731" lon="5.78151">
        <ele>276.39999389648</ele>
        <time>2023-06-18T07:44:51Z</time>
      </trkpt>
      <trkpt lat="49.42729" lon="5.78152">
        <ele>275.79998779297</ele>
        <time>2023-06-18T07:44:52Z</time>
      </trkpt>
      <trkpt lat="49.42727" lon="5.78153">
        <ele>274.79998779297</ele>
        <time>2023-06-18T07:44:53Z</time>
      </trkpt>
      <trkpt lat="49.42726" lon="5.78154">
        <ele>274.39999389648</ele>
        <time>2023-06-18T07:44:54Z</time>
      </trkpt>
      <trkpt lat="49.42723" lon="5.78154">
        <ele>273.79998779297</ele>
        <time>2023-06-18T07:44:56Z</time>
      </trkpt>
      <trkpt lat="49.4272" lon="5.78154">
        <ele>273.79998779297</ele>
        <time>2023-06-18T07:44:58Z</time>
      </trkpt>
      <trkpt lat="49.42719" lon="5.78154">
        <ele>273.60000610352</ele>
        <time>2023-06-18T07:44:59Z</time>
      </trkpt>
      <trkpt lat="49.42716" lon="5.78156">
        <ele>273.60000610352</ele>
        <time>2023-06-18T07:45:00Z</time>
      </trkpt>
      <trkpt lat="49.4271" lon="5.78157">
        <ele>273.39999389648</ele>
        <time>2023-06-18T07:45:02Z</time>
      </trkpt>
      <trkpt lat="49.42706" lon="5.7816">
        <ele>273.39999389648</ele>
        <time>2023-06-18T07:45:04Z</time>
      </trkpt>
      <trkpt lat="49.42703" lon="5.78166">
        <ele>273.60000610352</ele>
        <time>2023-06-18T07:45:06Z</time>
      </trkpt>
      <trkpt lat="49.42702" lon="5.78169">
        <ele>273.60000610352</ele>
        <time>2023-06-18T07:45:07Z</time>
      </trkpt>
      <trkpt lat="49.42702" lon="5.78171">
        <ele>273.60000610352</ele>
        <time>2023-06-18T07:45:08Z</time>
      </trkpt>
      <trkpt lat="49.42701" lon="5.78175">
        <ele>273.60000610352</ele>
        <time>2023-06-18T07:45:10Z</time>
      </trkpt>
      <trkpt lat="49.42701" lon="5.78179">
        <ele>273.79998779297</ele>
        <time>2023-06-18T07:45:12Z</time>
      </trkpt>
      <trkpt lat="49.42702" lon="5.78181">
        <ele>274</ele>
        <time>2023-06-18T07:45:14Z</time>
      </trkpt>
      <trkpt lat="49.42702" lon="5.78182">
        <ele>274.39999389648</ele>
        <time>2023-06-18T07:45:15Z</time>
      </trkpt>
      <trkpt lat="49.42702" lon="5.78183">
        <ele>274.39999389648</ele>
        <time>2023-06-18T07:45:16Z</time>
      </trkpt>
      <trkpt lat="49.42701" lon="5.78187">
        <ele>274.60000610352</ele>
        <time>2023-06-18T07:45:18Z</time>
      </trkpt>
      <trkpt lat="49.42701" lon="5.7819">
        <ele>274.60000610352</ele>
        <time>2023-06-18T07:45:19Z</time>
      </trkpt>
      <trkpt lat="49.42701" lon="5.78191">
        <ele>274.60000610352</ele>
        <time>2023-06-18T07:45:20Z</time>
      </trkpt>
      <trkpt lat="49.427" lon="5.78195">
        <ele>274.79998779297</ele>
        <time>2023-06-18T07:45:22Z</time>
      </trkpt>
      <trkpt lat="49.427" lon="5.782">
        <ele>274.79998779297</ele>
        <time>2023-06-18T07:45:24Z</time>
      </trkpt>
      <trkpt lat="49.427" lon="5.78204">
        <ele>274.79998779297</ele>
        <time>2023-06-18T07:45:26Z</time>
      </trkpt>
      <trkpt lat="49.42699" lon="5.78208">
        <ele>275</ele>
        <time>2023-06-18T07:45:28Z</time>
      </trkpt>
      <trkpt lat="49.42699" lon="5.7821">
        <ele>275.20001220703</ele>
        <time>2023-06-18T07:45:30Z</time>
      </trkpt>
      <trkpt lat="49.42699" lon="5.78213">
        <ele>275.20001220703</ele>
        <time>2023-06-18T07:45:32Z</time>
      </trkpt>
      <trkpt lat="49.427" lon="5.78216">
        <ele>275.39999389648</ele>
        <time>2023-06-18T07:45:34Z</time>
      </trkpt>
      <trkpt lat="49.42701" lon="5.78218">
        <ele>275.39999389648</ele>
        <time>2023-06-18T07:45:36Z</time>
      </trkpt>
      <trkpt lat="49.42702" lon="5.78221">
        <ele>275.60000610352</ele>
        <time>2023-06-18T07:45:38Z</time>
      </trkpt>
      <trkpt lat="49.42704" lon="5.78224">
        <ele>275.79998779297</ele>
        <time>2023-06-18T07:45:40Z</time>
      </trkpt>
      <trkpt lat="49.42705" lon="5.78226">
        <ele>276</ele>
        <time>2023-06-18T07:45:41Z</time>
      </trkpt>
      <trkpt lat="49.42706" lon="5.78227">
        <ele>276</ele>
        <time>2023-06-18T07:45:42Z</time>
      </trkpt>
      <trkpt lat="49.42708" lon="5.7823">
        <ele>276.20001220703</ele>
        <time>2023-06-18T07:45:44Z</time>
      </trkpt>
      <trkpt lat="49.42708" lon="5.78231">
        <ele>276.39999389648</ele>
        <time>2023-06-18T07:45:46Z</time>
      </trkpt>
      <trkpt lat="49.42708" lon="5.78231">
        <ele>276.60000610352</ele>
        <time>2023-06-18T07:45:47Z</time>
      </trkpt>
      <trkpt lat="49.42709" lon="5.78231">
        <ele>276.79998779297</ele>
        <time>2023-06-18T07:45:48Z</time>
      </trkpt>
      <trkpt lat="49.4271" lon="5.78231">
        <ele>276.79998779297</ele>
        <time>2023-06-18T07:45:50Z</time>
      </trkpt>
      <trkpt lat="49.4271" lon="5.78232">
        <ele>277</ele>
        <time>2023-06-18T07:45:52Z</time>
      </trkpt>
      <trkpt lat="49.4271" lon="5.78232">
        <ele>277</ele>
        <time>2023-06-18T07:45:54Z</time>
      </trkpt>
      <trkpt lat="49.42711" lon="5.78232">
        <ele>277</ele>
        <time>2023-06-18T07:45:56Z</time>
      </trkpt>
      <trkpt lat="49.42711" lon="5.78232">
        <ele>277</ele>
        <time>2023-06-18T07:45:58Z</time>
      </trkpt>
      <trkpt lat="49.42711" lon="5.78232">
        <ele>277</ele>
        <time>2023-06-18T07:46:00Z</time>
      </trkpt>
      <trkpt lat="49.42711" lon="5.78232">
        <ele>277</ele>
        <time>2023-06-18T07:46:02Z</time>
      </trkpt>
      <trkpt lat="49.42711" lon="5.78233">
        <ele>276.79998779297</ele>
        <time>2023-06-18T07:46:04Z</time>
      </trkpt>
      <trkpt lat="49.42711" lon="5.78233">
        <ele>276.79998779297</ele>
        <time>2023-06-18T07:46:06Z</time>
      </trkpt>
      <trkpt lat="49.42711" lon="5.78233">
        <ele>276.79998779297</ele>
        <time>2023-06-18T07:46:08Z</time>
      </trkpt>
      <trkpt lat="49.42711" lon="5.78233">
        <ele>276.79998779297</ele>
        <time>2023-06-18T07:46:10Z</time>
      </trkpt>
      <trkpt lat="49.42711" lon="5.78233">
        <ele>276.79998779297</ele>
        <time>2023-06-18T07:46:12Z</time>
      </trkpt>
      <trkpt lat="49.42711" lon="5.78233">
        <ele>276.79998779297</ele>
        <time>2023-06-18T07:46:14Z</time>
      </trkpt>
      <trkpt lat="49.42711" lon="5.78234">
        <ele>276.79998779297</ele>
        <time>2023-06-18T07:46:16Z</time>
      </trkpt>
      <trkpt lat="49.42711" lon="5.78234">
        <ele>276.79998779297</ele>
        <time>2023-06-18T07:46:18Z</time>
      </trkpt>
      <trkpt lat="49.4271" lon="5.78234">
        <ele>276.79998779297</ele>
        <time>2023-06-18T07:46:20Z</time>
      </trkpt>
      <trkpt lat="49.4271" lon="5.78235">
        <ele>276.79998779297</ele>
        <time>2023-06-18T07:46:22Z</time>
      </trkpt>
      <trkpt lat="49.4271" lon="5.78234">
        <ele>276.79998779297</ele>
        <time>2023-06-18T07:46:24Z</time>
      </trkpt>
      <trkpt lat="49.4271" lon="5.78235">
        <ele>276.79998779297</ele>
        <time>2023-06-18T07:46:26Z</time>
      </trkpt>
      <trkpt lat="49.4271" lon="5.78234">
        <ele>276.79998779297</ele>
        <time>2023-06-18T07:46:28Z</time>
      </trkpt>
      <trkpt lat="49.4271" lon="5.78234">
        <ele>277</ele>
        <time>2023-06-18T07:46:30Z</time>
      </trkpt>
      <trkpt lat="49.42709" lon="5.78233">
        <ele>277</ele>
        <time>2023-06-18T07:46:31Z</time>
      </trkpt>
      <trkpt lat="49.42709" lon="5.78233">
        <ele>277</ele>
        <time>2023-06-18T07:46:32Z</time>
      </trkpt>
      <trkpt lat="49.42709" lon="5.78233">
        <ele>277</ele>
        <time>2023-06-18T07:46:34Z</time>
      </trkpt>
      <trkpt lat="49.42709" lon="5.78232">
        <ele>277</ele>
        <time>2023-06-18T07:46:36Z</time>
      </trkpt>
      <trkpt lat="49.42709" lon="5.78233">
        <ele>277</ele>
        <time>2023-06-18T07:46:38Z</time>
      </trkpt>
      <trkpt lat="49.42709" lon="5.78233">
        <ele>277</ele>
        <time>2023-06-18T07:46:40Z</time>
      </trkpt>
      <trkpt lat="49.42709" lon="5.78233">
        <ele>277</ele>
        <time>2023-06-18T07:46:42Z</time>
      </trkpt>
      <trkpt lat="49.42709" lon="5.78233">
        <ele>277.20001220703</ele>
        <time>2023-06-18T07:46:44Z</time>
      </trkpt>
      <trkpt lat="49.42709" lon="5.78233">
        <ele>277.20001220703</ele>
        <time>2023-06-18T07:46:46Z</time>
      </trkpt>
      <trkpt lat="49.42709" lon="5.78233">
        <ele>277.20001220703</ele>
        <time>2023-06-18T07:46:48Z</time>
      </trkpt>
      <trkpt lat="49.42709" lon="5.78233">
        <ele>277.20001220703</ele>
        <time>2023-06-18T07:46:50Z</time>
      </trkpt>
      <trkpt lat="49.42709" lon="5.78233">
        <ele>277.20001220703</ele>
        <time>2023-06-18T07:46:52Z</time>
      </trkpt>
      <trkpt lat="49.42709" lon="5.78233">
        <ele>277.20001220703</ele>
        <time>2023-06-18T07:46:54Z</time>
      </trkpt>
      <trkpt lat="49.42709" lon="5.78233">
        <ele>277.20001220703</ele>
        <time>2023-06-18T07:46:56Z</time>
      </trkpt>
      <trkpt lat="49.42709" lon="5.78233">
        <ele>277.20001220703</ele>
        <time>2023-06-18T07:46:57Z</time>
      </trkpt>
      <trkpt lat="49.42709" lon="5.78233">
        <ele>277.20001220703</ele>
        <time>2023-06-18T07:46:58Z</time>
      </trkpt>
      <trkpt lat="49.42709" lon="5.78233">
        <ele>277.20001220703</ele>
        <time>2023-06-18T07:47:00Z</time>
      </trkpt>
      <trkpt lat="49.42709" lon="5.78233">
        <ele>277.20001220703</ele>
        <time>2023-06-18T07:47:02Z</time>
      </trkpt>
      <trkpt lat="49.42709" lon="5.78233">
        <ele>277.20001220703</ele>
        <time>2023-06-18T07:47:04Z</time>
      </trkpt>
      <trkpt lat="49.42709" lon="5.78234">
        <ele>277.20001220703</ele>
        <time>2023-06-18T07:47:06Z</time>
      </trkpt>
      <trkpt lat="49.42709" lon="5.78234">
        <ele>277.20001220703</ele>
        <time>2023-06-18T07:47:08Z</time>
      </trkpt>
      <trkpt lat="49.42709" lon="5.78234">
        <ele>277.20001220703</ele>
        <time>2023-06-18T07:47:10Z</time>
      </trkpt>
      <trkpt lat="49.42709" lon="5.78234">
        <ele>277.20001220703</ele>
        <time>2023-06-18T07:47:11Z</time>
      </trkpt>
      <trkpt lat="49.42709" lon="5.78234">
        <ele>277.39999389648</ele>
        <time>2023-06-18T07:47:12Z</time>
      </trkpt>
      <trkpt lat="49.42709" lon="5.78234">
        <ele>277.39999389648</ele>
        <time>2023-06-18T07:47:14Z</time>
      </trkpt>
      <trkpt lat="49.42709" lon="5.78234">
        <ele>277.39999389648</ele>
        <time>2023-06-18T07:47:16Z</time>
      </trkpt>
      <trkpt lat="49.42709" lon="5.78234">
        <ele>277.39999389648</ele>
        <time>2023-06-18T07:47:18Z</time>
      </trkpt>
      <trkpt lat="49.42709" lon="5.78234">
        <ele>277.39999389648</ele>
        <time>2023-06-18T07:47:20Z</time>
      </trkpt>
      <trkpt lat="49.42709" lon="5.78234">
        <ele>277.39999389648</ele>
        <time>2023-06-18T07:47:22Z</time>
      </trkpt>
      <trkpt lat="49.42709" lon="5.78234">
        <ele>277.39999389648</ele>
        <time>2023-06-18T07:47:24Z</time>
      </trkpt>
      <trkpt lat="49.42709" lon="5.78234">
        <ele>277.39999389648</ele>
        <time>2023-06-18T07:47:26Z</time>
      </trkpt>
      <trkpt lat="49.42709" lon="5.78234">
        <ele>277.39999389648</ele>
        <time>2023-06-18T07:47:28Z</time>
      </trkpt>
      <trkpt lat="49.42709" lon="5.78234">
        <ele>277.20001220703</ele>
        <time>2023-06-18T07:47:30Z</time>
      </trkpt>
      <trkpt lat="49.42709" lon="5.78234">
        <ele>277.20001220703</ele>
        <time>2023-06-18T07:47:32Z</time>
      </trkpt>
      <trkpt lat="49.42709" lon="5.78234">
        <ele>277</ele>
        <time>2023-06-18T07:47:34Z</time>
      </trkpt>
      <trkpt lat="49.42709" lon="5.78234">
        <ele>277</ele>
        <time>2023-06-18T07:47:36Z</time>
      </trkpt>
      <trkpt lat="49.42709" lon="5.78234">
        <ele>277</ele>
        <time>2023-06-18T07:47:38Z</time>
      </trkpt>
      <trkpt lat="49.42709" lon="5.78234">
        <ele>277</ele>
        <time>2023-06-18T07:47:40Z</time>
      </trkpt>
      <trkpt lat="49.42709" lon="5.78234">
        <ele>277</ele>
        <time>2023-06-18T07:47:42Z</time>
      </trkpt>
      <trkpt lat="49.42709" lon="5.78234">
        <ele>277</ele>
        <time>2023-06-18T07:47:44Z</time>
      </trkpt>
      <trkpt lat="49.42709" lon="5.78234">
        <ele>277</ele>
        <time>2023-06-18T07:47:46Z</time>
      </trkpt>
      <trkpt lat="49.4271" lon="5.78234">
        <ele>277</ele>
        <time>2023-06-18T07:47:48Z</time>
      </trkpt>
      <trkpt lat="49.4271" lon="5.78234">
        <ele>277</ele>
        <time>2023-06-18T07:47:50Z</time>
      </trkpt>
      <trkpt lat="49.4271" lon="5.78234">
        <ele>277</ele>
        <time>2023-06-18T07:47:52Z</time>
      </trkpt>
      <trkpt lat="49.4271" lon="5.78234">
        <ele>277</ele>
        <time>2023-06-18T07:47:53Z</time>
      </trkpt>
      <trkpt lat="49.4271" lon="5.78234">
        <ele>277</ele>
        <time>2023-06-18T07:47:54Z</time>
      </trkpt>
      <trkpt lat="49.4271" lon="5.78234">
        <ele>277</ele>
        <time>2023-06-18T07:47:56Z</time>
      </trkpt>
      <trkpt lat="49.4271" lon="5.78234">
        <ele>277</ele>
        <time>2023-06-18T07:47:58Z</time>
      </trkpt>
      <trkpt lat="49.4271" lon="5.78234">
        <ele>277</ele>
        <time>2023-06-18T07:48:00Z</time>
      </trkpt>
      <trkpt lat="49.4271" lon="5.78234">
        <ele>277.20001220703</ele>
        <time>2023-06-18T07:48:02Z</time>
      </trkpt>
      <trkpt lat="49.4271" lon="5.78234">
        <ele>277.20001220703</ele>
        <time>2023-06-18T07:48:04Z</time>
      </trkpt>
      <trkpt lat="49.4271" lon="5.78234">
        <ele>277.20001220703</ele>
        <time>2023-06-18T07:48:06Z</time>
      </trkpt>
      <trkpt lat="49.42711" lon="5.78234">
        <ele>277.20001220703</ele>
        <time>2023-06-18T07:48:08Z</time>
      </trkpt>
      <trkpt lat="49.42711" lon="5.78234">
        <ele>277.39999389648</ele>
        <time>2023-06-18T07:48:10Z</time>
      </trkpt>
      <trkpt lat="49.42711" lon="5.78234">
        <ele>277.39999389648</ele>
        <time>2023-06-18T07:48:12Z</time>
      </trkpt>
      <trkpt lat="49.42712" lon="5.78234">
        <ele>277.39999389648</ele>
        <time>2023-06-18T07:48:14Z</time>
      </trkpt>
      <trkpt lat="49.42712" lon="5.78234">
        <ele>277.39999389648</ele>
        <time>2023-06-18T07:48:16Z</time>
      </trkpt>
      <trkpt lat="49.42712" lon="5.78234">
        <ele>277.39999389648</ele>
        <time>2023-06-18T07:48:18Z</time>
      </trkpt>
      <trkpt lat="49.42712" lon="5.78234">
        <ele>277.39999389648</ele>
        <time>2023-06-18T07:48:20Z</time>
      </trkpt>
      <trkpt lat="49.42712" lon="5.78233">
        <ele>277.39999389648</ele>
        <time>2023-06-18T07:48:22Z</time>
      </trkpt>
      <trkpt lat="49.42712" lon="5.78234">
        <ele>277.39999389648</ele>
        <time>2023-06-18T07:48:23Z</time>
      </trkpt>
      <trkpt lat="49.42712" lon="5.78234">
        <ele>277.39999389648</ele>
        <time>2023-06-18T07:48:24Z</time>
      </trkpt>
      <trkpt lat="49.42712" lon="5.78234">
        <ele>277.39999389648</ele>
        <time>2023-06-18T07:48:26Z</time>
      </trkpt>
      <trkpt lat="49.42712" lon="5.78233">
        <ele>277.39999389648</ele>
        <time>2023-06-18T07:48:28Z</time>
      </trkpt>
      <trkpt lat="49.42712" lon="5.78233">
        <ele>277.39999389648</ele>
        <time>2023-06-18T07:48:30Z</time>
      </trkpt>
      <trkpt lat="49.42713" lon="5.78233">
        <ele>277.39999389648</ele>
        <time>2023-06-18T07:48:32Z</time>
      </trkpt>
      <trkpt lat="49.42713" lon="5.78233">
        <ele>277.39999389648</ele>
        <time>2023-06-18T07:48:34Z</time>
      </trkpt>
      <trkpt lat="49.42713" lon="5.78233">
        <ele>277.39999389648</ele>
        <time>2023-06-18T07:48:35Z</time>
      </trkpt>
      <trkpt lat="49.42712" lon="5.78233">
        <ele>277.39999389648</ele>
        <time>2023-06-18T07:48:36Z</time>
      </trkpt>
      <trkpt lat="49.42712" lon="5.78233">
        <ele>277.39999389648</ele>
        <time>2023-06-18T07:48:38Z</time>
      </trkpt>
      <trkpt lat="49.42712" lon="5.78233">
        <ele>277.39999389648</ele>
        <time>2023-06-18T07:48:40Z</time>
      </trkpt>
      <trkpt lat="49.42712" lon="5.78233">
        <ele>277.39999389648</ele>
        <time>2023-06-18T07:48:42Z</time>
      </trkpt>
      <trkpt lat="49.42712" lon="5.78233">
        <ele>277.39999389648</ele>
        <time>2023-06-18T07:48:44Z</time>
      </trkpt>
      <trkpt lat="49.42712" lon="5.78233">
        <ele>277.39999389648</ele>
        <time>2023-06-18T07:48:46Z</time>
      </trkpt>
      <trkpt lat="49.42712" lon="5.78233">
        <ele>277.39999389648</ele>
        <time>2023-06-18T07:48:48Z</time>
      </trkpt>
      <trkpt lat="49.42712" lon="5.78234">
        <ele>277.39999389648</ele>
        <time>2023-06-18T07:48:50Z</time>
      </trkpt>
      <trkpt lat="49.42712" lon="5.78234">
        <ele>277.39999389648</ele>
        <time>2023-06-18T07:48:52Z</time>
      </trkpt>
      <trkpt lat="49.42712" lon="5.78234">
        <ele>277.39999389648</ele>
        <time>2023-06-18T07:48:54Z</time>
      </trkpt>
      <trkpt lat="49.42712" lon="5.78234">
        <ele>277.39999389648</ele>
        <time>2023-06-18T07:48:56Z</time>
      </trkpt>
      <trkpt lat="49.42712" lon="5.78234">
        <ele>277.39999389648</ele>
        <time>2023-06-18T07:48:58Z</time>
      </trkpt>
      <trkpt lat="49.42712" lon="5.78234">
        <ele>277.39999389648</ele>
        <time>2023-06-18T07:49:00Z</time>
      </trkpt>
      <trkpt lat="49.42712" lon="5.78234">
        <ele>277.39999389648</ele>
        <time>2023-06-18T07:49:02Z</time>
      </trkpt>
      <trkpt lat="49.42712" lon="5.78234">
        <ele>277.39999389648</ele>
        <time>2023-06-18T07:49:04Z</time>
      </trkpt>
      <trkpt lat="49.42712" lon="5.78234">
        <ele>277.39999389648</ele>
        <time>2023-06-18T07:49:06Z</time>
      </trkpt>
      <trkpt lat="49.42712" lon="5.78234">
        <ele>277.39999389648</ele>
        <time>2023-06-18T07:49:08Z</time>
      </trkpt>
      <trkpt lat="49.42712" lon="5.78234">
        <ele>277.39999389648</ele>
        <time>2023-06-18T07:49:10Z</time>
      </trkpt>
      <trkpt lat="49.42712" lon="5.78234">
        <ele>277.39999389648</ele>
        <time>2023-06-18T07:49:12Z</time>
      </trkpt>
      <trkpt lat="49.42712" lon="5.78234">
        <ele>277.39999389648</ele>
        <time>2023-06-18T07:49:14Z</time>
      </trkpt>
      <trkpt lat="49.42712" lon="5.78234">
        <ele>277.39999389648</ele>
        <time>2023-06-18T07:49:16Z</time>
      </trkpt>
      <trkpt lat="49.42712" lon="5.78234">
        <ele>277.39999389648</ele>
        <time>2023-06-18T07:49:18Z</time>
      </trkpt>
      <trkpt lat="49.42712" lon="5.78234">
        <ele>277.39999389648</ele>
        <time>2023-06-18T07:49:19Z</time>
      </trkpt>
      <trkpt lat="49.42712" lon="5.78234">
        <ele>277.39999389648</ele>
        <time>2023-06-18T07:49:20Z</time>
      </trkpt>
      <trkpt lat="49.42712" lon="5.78234">
        <ele>277.39999389648</ele>
        <time>2023-06-18T07:49:22Z</time>
      </trkpt>
      <trkpt lat="49.42712" lon="5.78234">
        <ele>277.39999389648</ele>
        <time>2023-06-18T07:49:24Z</time>
      </trkpt>
      <trkpt lat="49.42712" lon="5.78234">
        <ele>277.39999389648</ele>
        <time>2023-06-18T07:49:26Z</time>
      </trkpt>
      <trkpt lat="49.42712" lon="5.78234">
        <ele>277.39999389648</ele>
        <time>2023-06-18T07:49:28Z</time>
      </trkpt>
      <trkpt lat="49.42712" lon="5.78234">
        <ele>277.39999389648</ele>
        <time>2023-06-18T07:49:30Z</time>
      </trkpt>
      <trkpt lat="49.42712" lon="5.78234">
        <ele>277.39999389648</ele>
        <time>2023-06-18T07:49:32Z</time>
      </trkpt>
      <trkpt lat="49.42712" lon="5.78234">
        <ele>277.39999389648</ele>
        <time>2023-06-18T07:49:34Z</time>
      </trkpt>
      <trkpt lat="49.42712" lon="5.78234">
        <ele>277.39999389648</ele>
        <time>2023-06-18T07:49:36Z</time>
      </trkpt>
      <trkpt lat="49.42711" lon="5.78234">
        <ele>277.39999389648</ele>
        <time>2023-06-18T07:49:38Z</time>
      </trkpt>
      <trkpt lat="49.42711" lon="5.78234">
        <ele>277.39999389648</ele>
        <time>2023-06-18T07:49:40Z</time>
      </trkpt>
      <trkpt lat="49.42711" lon="5.78234">
        <ele>277.39999389648</ele>
        <time>2023-06-18T07:49:42Z</time>
      </trkpt>
      <trkpt lat="49.42711" lon="5.78234">
        <ele>277.39999389648</ele>
        <time>2023-06-18T07:49:44Z</time>
      </trkpt>
      <trkpt lat="49.42711" lon="5.78235">
        <ele>277.39999389648</ele>
        <time>2023-06-18T07:49:46Z</time>
      </trkpt>
      <trkpt lat="49.42711" lon="5.78235">
        <ele>277.39999389648</ele>
        <time>2023-06-18T07:49:48Z</time>
      </trkpt>
      <trkpt lat="49.42711" lon="5.78234">
        <ele>277.39999389648</ele>
        <time>2023-06-18T07:49:50Z</time>
      </trkpt>
      <trkpt lat="49.42711" lon="5.78234">
        <ele>277.39999389648</ele>
        <time>2023-06-18T07:49:52Z</time>
      </trkpt>
      <trkpt lat="49.42711" lon="5.78234">
        <ele>277.39999389648</ele>
        <time>2023-06-18T07:49:54Z</time>
      </trkpt>
      <trkpt lat="49.42711" lon="5.78234">
        <ele>277.39999389648</ele>
        <time>2023-06-18T07:49:56Z</time>
      </trkpt>
      <trkpt lat="49.42711" lon="5.78234">
        <ele>277.39999389648</ele>
        <time>2023-06-18T07:49:58Z</time>
      </trkpt>
      <trkpt lat="49.42711" lon="5.78234">
        <ele>277.39999389648</ele>
        <time>2023-06-18T07:50:00Z</time>
      </trkpt>
      <trkpt lat="49.42711" lon="5.78234">
        <ele>277.39999389648</ele>
        <time>2023-06-18T07:50:02Z</time>
      </trkpt>
      <trkpt lat="49.42711" lon="5.78234">
        <ele>277.39999389648</ele>
        <time>2023-06-18T07:50:04Z</time>
      </trkpt>
      <trkpt lat="49.42711" lon="5.78234">
        <ele>277.39999389648</ele>
        <time>2023-06-18T07:50:06Z</time>
      </trkpt>
      <trkpt lat="49.42712" lon="5.78234">
        <ele>277.60000610352</ele>
        <time>2023-06-18T07:50:08Z</time>
      </trkpt>
      <trkpt lat="49.42711" lon="5.78234">
        <ele>277.60000610352</ele>
        <time>2023-06-18T07:50:10Z</time>
      </trkpt>
      <trkpt lat="49.42711" lon="5.78234">
        <ele>277.60000610352</ele>
        <time>2023-06-18T07:50:12Z</time>
      </trkpt>
      <trkpt lat="49.42711" lon="5.78234">
        <ele>277.60000610352</ele>
        <time>2023-06-18T07:50:14Z</time>
      </trkpt>
      <trkpt lat="49.42711" lon="5.78234">
        <ele>277.60000610352</ele>
        <time>2023-06-18T07:50:16Z</time>
      </trkpt>
      <trkpt lat="49.42711" lon="5.78234">
        <ele>277.60000610352</ele>
        <time>2023-06-18T07:50:18Z</time>
      </trkpt>
      <trkpt lat="49.42711" lon="5.78234">
        <ele>277.60000610352</ele>
        <time>2023-06-18T07:50:20Z</time>
      </trkpt>
      <trkpt lat="49.42711" lon="5.78234">
        <ele>277.60000610352</ele>
        <time>2023-06-18T07:50:22Z</time>
      </trkpt>
      <trkpt lat="49.42711" lon="5.78234">
        <ele>277.60000610352</ele>
        <time>2023-06-18T07:50:24Z</time>
      </trkpt>
      <trkpt lat="49.42711" lon="5.78234">
        <ele>277.60000610352</ele>
        <time>2023-06-18T07:50:26Z</time>
      </trkpt>
      <trkpt lat="49.42711" lon="5.78234">
        <ele>277.60000610352</ele>
        <time>2023-06-18T07:50:28Z</time>
      </trkpt>
      <trkpt lat="49.42711" lon="5.78234">
        <ele>277.60000610352</ele>
        <time>2023-06-18T07:50:30Z</time>
      </trkpt>
      <trkpt lat="49.42711" lon="5.78234">
        <ele>277.60000610352</ele>
        <time>2023-06-18T07:50:32Z</time>
      </trkpt>
      <trkpt lat="49.42711" lon="5.78234">
        <ele>277.60000610352</ele>
        <time>2023-06-18T07:50:34Z</time>
      </trkpt>
      <trkpt lat="49.42711" lon="5.78233">
        <ele>277.60000610352</ele>
        <time>2023-06-18T07:50:36Z</time>
      </trkpt>
      <trkpt lat="49.42711" lon="5.78233">
        <ele>277.60000610352</ele>
        <time>2023-06-18T07:50:38Z</time>
      </trkpt>
      <trkpt lat="49.42711" lon="5.78233">
        <ele>277.60000610352</ele>
        <time>2023-06-18T07:50:40Z</time>
      </trkpt>
      <trkpt lat="49.42711" lon="5.78233">
        <ele>277.60000610352</ele>
        <time>2023-06-18T07:50:42Z</time>
      </trkpt>
      <trkpt lat="49.42711" lon="5.78233">
        <ele>277.79998779297</ele>
        <time>2023-06-18T07:50:44Z</time>
      </trkpt>
      <trkpt lat="49.42711" lon="5.78232">
        <ele>277.79998779297</ele>
        <time>2023-06-18T07:50:46Z</time>
      </trkpt>
      <trkpt lat="49.42711" lon="5.78232">
        <ele>277.79998779297</ele>
        <time>2023-06-18T07:50:48Z</time>
      </trkpt>
      <trkpt lat="49.42711" lon="5.78232">
        <ele>277.79998779297</ele>
        <time>2023-06-18T07:50:50Z</time>
      </trkpt>
      <trkpt lat="49.42712" lon="5.78231">
        <ele>277.79998779297</ele>
        <time>2023-06-18T07:50:52Z</time>
      </trkpt>
      <trkpt lat="49.42712" lon="5.78231">
        <ele>277.79998779297</ele>
        <time>2023-06-18T07:50:54Z</time>
      </trkpt>
      <trkpt lat="49.42712" lon="5.78231">
        <ele>277.79998779297</ele>
        <time>2023-06-18T07:50:56Z</time>
      </trkpt>
      <trkpt lat="49.42712" lon="5.78231">
        <ele>277.79998779297</ele>
        <time>2023-06-18T07:50:57Z</time>
      </trkpt>
      <trkpt lat="49.42712" lon="5.78231">
        <ele>277.79998779297</ele>
        <time>2023-06-18T07:50:58Z</time>
      </trkpt>
      <trkpt lat="49.42712" lon="5.7823">
        <ele>277.79998779297</ele>
        <time>2023-06-18T07:51:00Z</time>
      </trkpt>
      <trkpt lat="49.42712" lon="5.7823">
        <ele>277.79998779297</ele>
        <time>2023-06-18T07:51:02Z</time>
      </trkpt>
      <trkpt lat="49.42712" lon="5.7823">
        <ele>277.79998779297</ele>
        <time>2023-06-18T07:51:04Z</time>
      </trkpt>
      <trkpt lat="49.42712" lon="5.7823">
        <ele>277.79998779297</ele>
        <time>2023-06-18T07:51:06Z</time>
      </trkpt>
      <trkpt lat="49.42711" lon="5.7823">
        <ele>277.79998779297</ele>
        <time>2023-06-18T07:51:08Z</time>
      </trkpt>
      <trkpt lat="49.42711" lon="5.7823">
        <ele>277.79998779297</ele>
        <time>2023-06-18T07:51:10Z</time>
      </trkpt>
      <trkpt lat="49.42711" lon="5.7823">
        <ele>277.79998779297</ele>
        <time>2023-06-18T07:51:12Z</time>
      </trkpt>
      <trkpt lat="49.42711" lon="5.7823">
        <ele>277.79998779297</ele>
        <time>2023-06-18T07:51:14Z</time>
      </trkpt>
      <trkpt lat="49.42711" lon="5.7823">
        <ele>277.79998779297</ele>
        <time>2023-06-18T07:51:16Z</time>
      </trkpt>
      <trkpt lat="49.42711" lon="5.7823">
        <ele>277.79998779297</ele>
        <time>2023-06-18T07:51:18Z</time>
      </trkpt>
      <trkpt lat="49.42711" lon="5.7823">
        <ele>277.79998779297</ele>
        <time>2023-06-18T07:51:19Z</time>
      </trkpt>
      <trkpt lat="49.42711" lon="5.7823">
        <ele>278</ele>
        <time>2023-06-18T07:51:20Z</time>
      </trkpt>
      <trkpt lat="49.42711" lon="5.7823">
        <ele>278</ele>
        <time>2023-06-18T07:51:22Z</time>
      </trkpt>
      <trkpt lat="49.42711" lon="5.7823">
        <ele>278</ele>
        <time>2023-06-18T07:51:24Z</time>
      </trkpt>
      <trkpt lat="49.42711" lon="5.7823">
        <ele>278</ele>
        <time>2023-06-18T07:51:26Z</time>
      </trkpt>
      <trkpt lat="49.42711" lon="5.7823">
        <ele>278</ele>
        <time>2023-06-18T07:51:28Z</time>
      </trkpt>
      <trkpt lat="49.42711" lon="5.7823">
        <ele>278</ele>
        <time>2023-06-18T07:51:30Z</time>
      </trkpt>
      <trkpt lat="49.42711" lon="5.7823">
        <ele>278</ele>
        <time>2023-06-18T07:51:32Z</time>
      </trkpt>
      <trkpt lat="49.42711" lon="5.7823">
        <ele>278</ele>
        <time>2023-06-18T07:51:34Z</time>
      </trkpt>
      <trkpt lat="49.42711" lon="5.7823">
        <ele>278</ele>
        <time>2023-06-18T07:51:36Z</time>
      </trkpt>
      <trkpt lat="49.42711" lon="5.7823">
        <ele>278</ele>
        <time>2023-06-18T07:51:38Z</time>
      </trkpt>
      <trkpt lat="49.42711" lon="5.7823">
        <ele>278</ele>
        <time>2023-06-18T07:51:40Z</time>
      </trkpt>
      <trkpt lat="49.42711" lon="5.7823">
        <ele>278</ele>
        <time>2023-06-18T07:51:42Z</time>
      </trkpt>
      <trkpt lat="49.42711" lon="5.7823">
        <ele>278</ele>
        <time>2023-06-18T07:51:44Z</time>
      </trkpt>
      <trkpt lat="49.42712" lon="5.7823">
        <ele>278</ele>
        <time>2023-06-18T07:51:45Z</time>
      </trkpt>
      <trkpt lat="49.42712" lon="5.7823">
        <ele>278</ele>
        <time>2023-06-18T07:51:46Z</time>
      </trkpt>
      <trkpt lat="49.42711" lon="5.7823">
        <ele>278</ele>
        <time>2023-06-18T07:51:48Z</time>
      </trkpt>
      <trkpt lat="49.42711" lon="5.7823">
        <ele>278</ele>
        <time>2023-06-18T07:51:50Z</time>
      </trkpt>
      <trkpt lat="49.42711" lon="5.7823">
        <ele>278</ele>
        <time>2023-06-18T07:51:52Z</time>
      </trkpt>
      <trkpt lat="49.42711" lon="5.7823">
        <ele>277.79998779297</ele>
        <time>2023-06-18T07:51:54Z</time>
      </trkpt>
      <trkpt lat="49.42711" lon="5.7823">
        <ele>277.79998779297</ele>
        <time>2023-06-18T07:51:56Z</time>
      </trkpt>
      <trkpt lat="49.42711" lon="5.7823">
        <ele>277.79998779297</ele>
        <time>2023-06-18T07:51:58Z</time>
      </trkpt>
      <trkpt lat="49.42711" lon="5.7823">
        <ele>277.79998779297</ele>
        <time>2023-06-18T07:52:00Z</time>
      </trkpt>
      <trkpt lat="49.42711" lon="5.7823">
        <ele>277.79998779297</ele>
        <time>2023-06-18T07:52:02Z</time>
      </trkpt>
      <trkpt lat="49.42711" lon="5.7823">
        <ele>277.79998779297</ele>
        <time>2023-06-18T07:52:04Z</time>
      </trkpt>
      <trkpt lat="49.42711" lon="5.7823">
        <ele>277.79998779297</ele>
        <time>2023-06-18T07:52:06Z</time>
      </trkpt>
      <trkpt lat="49.42711" lon="5.7823">
        <ele>277.79998779297</ele>
        <time>2023-06-18T07:52:08Z</time>
      </trkpt>
      <trkpt lat="49.42711" lon="5.7823">
        <ele>277.79998779297</ele>
        <time>2023-06-18T07:52:10Z</time>
      </trkpt>
      <trkpt lat="49.42711" lon="5.7823">
        <ele>277.79998779297</ele>
        <time>2023-06-18T07:52:12Z</time>
      </trkpt>
      <trkpt lat="49.42712" lon="5.78231">
        <ele>277.79998779297</ele>
        <time>2023-06-18T07:52:14Z</time>
      </trkpt>
      <trkpt lat="49.42712" lon="5.78231">
        <ele>277.79998779297</ele>
        <time>2023-06-18T07:52:15Z</time>
      </trkpt>
      <trkpt lat="49.42712" lon="5.78231">
        <ele>277.79998779297</ele>
        <time>2023-06-18T07:52:16Z</time>
      </trkpt>
      <trkpt lat="49.42712" lon="5.7823">
        <ele>277.79998779297</ele>
        <time>2023-06-18T07:52:18Z</time>
      </trkpt>
      <trkpt lat="49.42712" lon="5.7823">
        <ele>277.79998779297</ele>
        <time>2023-06-18T07:52:20Z</time>
      </trkpt>
      <trkpt lat="49.42712" lon="5.78231">
        <ele>277.79998779297</ele>
        <time>2023-06-18T07:52:22Z</time>
      </trkpt>
      <trkpt lat="49.42712" lon="5.78231">
        <ele>277.79998779297</ele>
        <time>2023-06-18T07:52:24Z</time>
      </trkpt>
      <trkpt lat="49.42712" lon="5.78231">
        <ele>277.79998779297</ele>
        <time>2023-06-18T07:52:26Z</time>
      </trkpt>
      <trkpt lat="49.42712" lon="5.78231">
        <ele>277.79998779297</ele>
        <time>2023-06-18T07:52:28Z</time>
      </trkpt>
      <trkpt lat="49.42712" lon="5.78231">
        <ele>277.79998779297</ele>
        <time>2023-06-18T07:52:30Z</time>
      </trkpt>
      <trkpt lat="49.42713" lon="5.78231">
        <ele>277.79998779297</ele>
        <time>2023-06-18T07:52:32Z</time>
      </trkpt>
      <trkpt lat="49.42712" lon="5.78231">
        <ele>277.79998779297</ele>
        <time>2023-06-18T07:52:34Z</time>
      </trkpt>
      <trkpt lat="49.42712" lon="5.7823">
        <ele>277.79998779297</ele>
        <time>2023-06-18T07:52:36Z</time>
      </trkpt>
      <trkpt lat="49.42712" lon="5.7823">
        <ele>277.60000610352</ele>
        <time>2023-06-18T07:52:38Z</time>
      </trkpt>
      <trkpt lat="49.42712" lon="5.7823">
        <ele>277.60000610352</ele>
        <time>2023-06-18T07:52:40Z</time>
      </trkpt>
      <trkpt lat="49.42712" lon="5.7823">
        <ele>277.60000610352</ele>
        <time>2023-06-18T07:52:42Z</time>
      </trkpt>
      <trkpt lat="49.42712" lon="5.7823">
        <ele>277.60000610352</ele>
        <time>2023-06-18T07:52:43Z</time>
      </trkpt>
      <trkpt lat="49.42712" lon="5.7823">
        <ele>277.79998779297</ele>
        <time>2023-06-18T07:52:44Z</time>
      </trkpt>
      <trkpt lat="49.42712" lon="5.7823">
        <ele>277.79998779297</ele>
        <time>2023-06-18T07:52:46Z</time>
      </trkpt>
      <trkpt lat="49.42712" lon="5.7823">
        <ele>277.60000610352</ele>
        <time>2023-06-18T07:52:48Z</time>
      </trkpt>
      <trkpt lat="49.42712" lon="5.7823">
        <ele>277.79998779297</ele>
        <time>2023-06-18T07:52:50Z</time>
      </trkpt>
      <trkpt lat="49.42711" lon="5.7823">
        <ele>277.79998779297</ele>
        <time>2023-06-18T07:52:52Z</time>
      </trkpt>
      <trkpt lat="49.42711" lon="5.7823">
        <ele>277.60000610352</ele>
        <time>2023-06-18T07:52:54Z</time>
      </trkpt>
      <trkpt lat="49.42711" lon="5.7823">
        <ele>277.60000610352</ele>
        <time>2023-06-18T07:52:56Z</time>
      </trkpt>
      <trkpt lat="49.42711" lon="5.78231">
        <ele>277.60000610352</ele>
        <time>2023-06-18T07:52:58Z</time>
      </trkpt>
      <trkpt lat="49.42711" lon="5.78231">
        <ele>277.79998779297</ele>
        <time>2023-06-18T07:53:00Z</time>
      </trkpt>
      <trkpt lat="49.42711" lon="5.78232">
        <ele>277.79998779297</ele>
        <time>2023-06-18T07:53:02Z</time>
      </trkpt>
      <trkpt lat="49.4271" lon="5.78234">
        <ele>277.60000610352</ele>
        <time>2023-06-18T07:53:04Z</time>
      </trkpt>
      <trkpt lat="49.4271" lon="5.78236">
        <ele>277.60000610352</ele>
        <time>2023-06-18T07:53:06Z</time>
      </trkpt>
      <trkpt lat="49.4271" lon="5.78237">
        <ele>277.79998779297</ele>
        <time>2023-06-18T07:53:08Z</time>
      </trkpt>
      <trkpt lat="49.4271" lon="5.78238">
        <ele>277.79998779297</ele>
        <time>2023-06-18T07:53:09Z</time>
      </trkpt>
      <trkpt lat="49.4271" lon="5.78238">
        <ele>277.79998779297</ele>
        <time>2023-06-18T07:53:10Z</time>
      </trkpt>
      <trkpt lat="49.4271" lon="5.78239">
        <ele>277.79998779297</ele>
        <time>2023-06-18T07:53:12Z</time>
      </trkpt>
      <trkpt lat="49.4271" lon="5.78238">
        <ele>277.79998779297</ele>
        <time>2023-06-18T07:53:14Z</time>
      </trkpt>
      <trkpt lat="49.4271" lon="5.78238">
        <ele>277.79998779297</ele>
        <time>2023-06-18T07:53:16Z</time>
      </trkpt>
      <trkpt lat="49.4271" lon="5.78238">
        <ele>277.79998779297</ele>
        <time>2023-06-18T07:53:18Z</time>
      </trkpt>
      <trkpt lat="49.4271" lon="5.78238">
        <ele>277.79998779297</ele>
        <time>2023-06-18T07:53:20Z</time>
      </trkpt>
      <trkpt lat="49.4271" lon="5.78238">
        <ele>277.79998779297</ele>
        <time>2023-06-18T07:53:22Z</time>
      </trkpt>
      <trkpt lat="49.4271" lon="5.78238">
        <ele>277.79998779297</ele>
        <time>2023-06-18T07:53:24Z</time>
      </trkpt>
      <trkpt lat="49.4271" lon="5.78238">
        <ele>277.79998779297</ele>
        <time>2023-06-18T07:53:26Z</time>
      </trkpt>
      <trkpt lat="49.4271" lon="5.78238">
        <ele>277.79998779297</ele>
        <time>2023-06-18T07:53:27Z</time>
      </trkpt>
      <trkpt lat="49.4271" lon="5.78238">
        <ele>277.79998779297</ele>
        <time>2023-06-18T07:53:28Z</time>
      </trkpt>
      <trkpt lat="49.4271" lon="5.78238">
        <ele>277.79998779297</ele>
        <time>2023-06-18T07:53:30Z</time>
      </trkpt>
      <trkpt lat="49.4271" lon="5.78238">
        <ele>277.79998779297</ele>
        <time>2023-06-18T07:53:32Z</time>
      </trkpt>
      <trkpt lat="49.4271" lon="5.78238">
        <ele>277.60000610352</ele>
        <time>2023-06-18T07:53:34Z</time>
      </trkpt>
      <trkpt lat="49.4271" lon="5.78238">
        <ele>277.79998779297</ele>
        <time>2023-06-18T07:53:36Z</time>
      </trkpt>
      <trkpt lat="49.4271" lon="5.78238">
        <ele>277.79998779297</ele>
        <time>2023-06-18T07:53:38Z</time>
      </trkpt>
      <trkpt lat="49.4271" lon="5.78239">
        <ele>277.79998779297</ele>
        <time>2023-06-18T07:53:40Z</time>
      </trkpt>
      <trkpt lat="49.4271" lon="5.78239">
        <ele>277.79998779297</ele>
        <time>2023-06-18T07:53:41Z</time>
      </trkpt>
      <trkpt lat="49.4271" lon="5.78239">
        <ele>277.79998779297</ele>
        <time>2023-06-18T07:53:42Z</time>
      </trkpt>
      <trkpt lat="49.4271" lon="5.78239">
        <ele>277.79998779297</ele>
        <time>2023-06-18T07:53:44Z</time>
      </trkpt>
      <trkpt lat="49.4271" lon="5.78239">
        <ele>277.79998779297</ele>
        <time>2023-06-18T07:53:46Z</time>
      </trkpt>
      <trkpt lat="49.4271" lon="5.78238">
        <ele>277.79998779297</ele>
        <time>2023-06-18T07:53:48Z</time>
      </trkpt>
      <trkpt lat="49.4271" lon="5.78238">
        <ele>277.79998779297</ele>
        <time>2023-06-18T07:53:50Z</time>
      </trkpt>
      <trkpt lat="49.4271" lon="5.78238">
        <ele>278</ele>
        <time>2023-06-18T07:53:52Z</time>
      </trkpt>
      <trkpt lat="49.4271" lon="5.78238">
        <ele>278</ele>
        <time>2023-06-18T07:53:54Z</time>
      </trkpt>
      <trkpt lat="49.4271" lon="5.78238">
        <ele>278</ele>
        <time>2023-06-18T07:53:56Z</time>
      </trkpt>
      <trkpt lat="49.4271" lon="5.78238">
        <ele>278</ele>
        <time>2023-06-18T07:53:58Z</time>
      </trkpt>
      <trkpt lat="49.4271" lon="5.78238">
        <ele>278</ele>
        <time>2023-06-18T07:54:00Z</time>
      </trkpt>
      <trkpt lat="49.4271" lon="5.78238">
        <ele>278</ele>
        <time>2023-06-18T07:54:02Z</time>
      </trkpt>
      <trkpt lat="49.4271" lon="5.78238">
        <ele>278</ele>
        <time>2023-06-18T07:54:04Z</time>
      </trkpt>
      <trkpt lat="49.4271" lon="5.78238">
        <ele>278</ele>
        <time>2023-06-18T07:54:06Z</time>
      </trkpt>
      <trkpt lat="49.4271" lon="5.78237">
        <ele>278</ele>
        <time>2023-06-18T07:54:07Z</time>
      </trkpt>
      <trkpt lat="49.4271" lon="5.78237">
        <ele>278</ele>
        <time>2023-06-18T07:54:08Z</time>
      </trkpt>
      <trkpt lat="49.4271" lon="5.78238">
        <ele>278</ele>
        <time>2023-06-18T07:54:10Z</time>
      </trkpt>
      <trkpt lat="49.42709" lon="5.78238">
        <ele>277.79998779297</ele>
        <time>2023-06-18T07:54:12Z</time>
      </trkpt>
      <trkpt lat="49.4271" lon="5.78239">
        <ele>277.79998779297</ele>
        <time>2023-06-18T07:54:14Z</time>
      </trkpt>
      <trkpt lat="49.4271" lon="5.78239">
        <ele>278</ele>
        <time>2023-06-18T07:54:16Z</time>
      </trkpt>
      <trkpt lat="49.4271" lon="5.78239">
        <ele>278</ele>
        <time>2023-06-18T07:54:18Z</time>
      </trkpt>
      <trkpt lat="49.4271" lon="5.78239">
        <ele>278</ele>
        <time>2023-06-18T07:54:20Z</time>
      </trkpt>
      <trkpt lat="49.4271" lon="5.78239">
        <ele>278</ele>
        <time>2023-06-18T07:54:22Z</time>
      </trkpt>
      <trkpt lat="49.4271" lon="5.78238">
        <ele>278</ele>
        <time>2023-06-18T07:54:24Z</time>
      </trkpt>
      <trkpt lat="49.4271" lon="5.78238">
        <ele>278.20001220703</ele>
        <time>2023-06-18T07:54:26Z</time>
      </trkpt>
      <trkpt lat="49.42709" lon="5.78238">
        <ele>278</ele>
        <time>2023-06-18T07:54:27Z</time>
      </trkpt>
      <trkpt lat="49.42709" lon="5.78238">
        <ele>278.20001220703</ele>
        <time>2023-06-18T07:54:28Z</time>
      </trkpt>
      <trkpt lat="49.4271" lon="5.78238">
        <ele>278.20001220703</ele>
        <time>2023-06-18T07:54:30Z</time>
      </trkpt>
      <trkpt lat="49.4271" lon="5.78238">
        <ele>278</ele>
        <time>2023-06-18T07:54:32Z</time>
      </trkpt>
      <trkpt lat="49.4271" lon="5.78238">
        <ele>278.20001220703</ele>
        <time>2023-06-18T07:54:34Z</time>
      </trkpt>
      <trkpt lat="49.4271" lon="5.78238">
        <ele>278</ele>
        <time>2023-06-18T07:54:36Z</time>
      </trkpt>
      <trkpt lat="49.4271" lon="5.78238">
        <ele>278.20001220703</ele>
        <time>2023-06-18T07:54:38Z</time>
      </trkpt>
      <trkpt lat="49.4271" lon="5.78238">
        <ele>278.20001220703</ele>
        <time>2023-06-18T07:54:40Z</time>
      </trkpt>
      <trkpt lat="49.4271" lon="5.78239">
        <ele>278.20001220703</ele>
        <time>2023-06-18T07:54:42Z</time>
      </trkpt>
      <trkpt lat="49.4271" lon="5.78239">
        <ele>278.20001220703</ele>
        <time>2023-06-18T07:54:44Z</time>
      </trkpt>
      <trkpt lat="49.4271" lon="5.7824">
        <ele>278</ele>
        <time>2023-06-18T07:54:46Z</time>
      </trkpt>
      <trkpt lat="49.42709" lon="5.7824">
        <ele>278</ele>
        <time>2023-06-18T07:54:48Z</time>
      </trkpt>
      <trkpt lat="49.42709" lon="5.7824">
        <ele>278</ele>
        <time>2023-06-18T07:54:50Z</time>
      </trkpt>
      <trkpt lat="49.42709" lon="5.7824">
        <ele>278.20001220703</ele>
        <time>2023-06-18T07:54:52Z</time>
      </trkpt>
      <trkpt lat="49.42709" lon="5.7824">
        <ele>278</ele>
        <time>2023-06-18T07:54:54Z</time>
      </trkpt>
      <trkpt lat="49.42709" lon="5.7824">
        <ele>278</ele>
        <time>2023-06-18T07:54:56Z</time>
      </trkpt>
      <trkpt lat="49.42709" lon="5.7824">
        <ele>278</ele>
        <time>2023-06-18T07:54:58Z</time>
      </trkpt>
      <trkpt lat="49.42709" lon="5.7824">
        <ele>278</ele>
        <time>2023-06-18T07:54:59Z</time>
      </trkpt>
      <trkpt lat="49.42709" lon="5.7824">
        <ele>278</ele>
        <time>2023-06-18T07:55:00Z</time>
      </trkpt>
      <trkpt lat="49.42709" lon="5.7824">
        <ele>278</ele>
        <time>2023-06-18T07:55:02Z</time>
      </trkpt>
      <trkpt lat="49.42709" lon="5.7824">
        <ele>278</ele>
        <time>2023-06-18T07:55:04Z</time>
      </trkpt>
      <trkpt lat="49.42709" lon="5.7824">
        <ele>278</ele>
        <time>2023-06-18T07:55:06Z</time>
      </trkpt>
      <trkpt lat="49.42709" lon="5.7824">
        <ele>278</ele>
        <time>2023-06-18T07:55:08Z</time>
      </trkpt>
      <trkpt lat="49.42709" lon="5.7824">
        <ele>278</ele>
        <time>2023-06-18T07:55:10Z</time>
      </trkpt>
      <trkpt lat="49.42709" lon="5.7824">
        <ele>278.20001220703</ele>
        <time>2023-06-18T07:55:12Z</time>
      </trkpt>
      <trkpt lat="49.42709" lon="5.78239">
        <ele>277.79998779297</ele>
        <time>2023-06-18T07:55:14Z</time>
      </trkpt>
      <trkpt lat="49.42709" lon="5.78239">
        <ele>277.79998779297</ele>
        <time>2023-06-18T07:55:16Z</time>
      </trkpt>
      <trkpt lat="49.42709" lon="5.78239">
        <ele>277.79998779297</ele>
        <time>2023-06-18T07:55:18Z</time>
      </trkpt>
      <trkpt lat="49.42709" lon="5.78239">
        <ele>277.79998779297</ele>
        <time>2023-06-18T07:55:20Z</time>
      </trkpt>
      <trkpt lat="49.42709" lon="5.78239">
        <ele>277.79998779297</ele>
        <time>2023-06-18T07:55:22Z</time>
      </trkpt>
      <trkpt lat="49.42709" lon="5.78239">
        <ele>277.79998779297</ele>
        <time>2023-06-18T07:55:24Z</time>
      </trkpt>
      <trkpt lat="49.42709" lon="5.78239">
        <ele>278</ele>
        <time>2023-06-18T07:55:26Z</time>
      </trkpt>
      <trkpt lat="49.42709" lon="5.78239">
        <ele>278</ele>
        <time>2023-06-18T07:55:28Z</time>
      </trkpt>
      <trkpt lat="49.42709" lon="5.78239">
        <ele>278</ele>
        <time>2023-06-18T07:55:30Z</time>
      </trkpt>
      <trkpt lat="49.42709" lon="5.78239">
        <ele>278</ele>
        <time>2023-06-18T07:55:32Z</time>
      </trkpt>
      <trkpt lat="49.42709" lon="5.78239">
        <ele>277.79998779297</ele>
        <time>2023-06-18T07:55:34Z</time>
      </trkpt>
      <trkpt lat="49.42709" lon="5.78239">
        <ele>277.79998779297</ele>
        <time>2023-06-18T07:55:36Z</time>
      </trkpt>
      <trkpt lat="49.42709" lon="5.78239">
        <ele>277.79998779297</ele>
        <time>2023-06-18T07:55:38Z</time>
      </trkpt>
      <trkpt lat="49.42709" lon="5.78239">
        <ele>277.79998779297</ele>
        <time>2023-06-18T07:55:39Z</time>
      </trkpt>
      <trkpt lat="49.42709" lon="5.78239">
        <ele>278</ele>
        <time>2023-06-18T07:55:40Z</time>
      </trkpt>
      <trkpt lat="49.42708" lon="5.78239">
        <ele>278</ele>
        <time>2023-06-18T07:55:42Z</time>
      </trkpt>
      <trkpt lat="49.42709" lon="5.78238">
        <ele>277.79998779297</ele>
        <time>2023-06-18T07:55:44Z</time>
      </trkpt>
      <trkpt lat="49.42708" lon="5.78238">
        <ele>277.79998779297</ele>
        <time>2023-06-18T07:55:46Z</time>
      </trkpt>
      <trkpt lat="49.42708" lon="5.78237">
        <ele>277.79998779297</ele>
        <time>2023-06-18T07:55:48Z</time>
      </trkpt>
      <trkpt lat="49.42708" lon="5.78237">
        <ele>277.79998779297</ele>
        <time>2023-06-18T07:55:50Z</time>
      </trkpt>
      <trkpt lat="49.42708" lon="5.78237">
        <ele>277.79998779297</ele>
        <time>2023-06-18T07:55:52Z</time>
      </trkpt>
      <trkpt lat="49.42708" lon="5.78237">
        <ele>277.79998779297</ele>
        <time>2023-06-18T07:55:54Z</time>
      </trkpt>
      <trkpt lat="49.42708" lon="5.78237">
        <ele>277.79998779297</ele>
        <time>2023-06-18T07:55:55Z</time>
      </trkpt>
      <trkpt lat="49.42708" lon="5.78237">
        <ele>277.79998779297</ele>
        <time>2023-06-18T07:55:56Z</time>
      </trkpt>
      <trkpt lat="49.42709" lon="5.78236">
        <ele>277.79998779297</ele>
        <time>2023-06-18T07:55:58Z</time>
      </trkpt>
      <trkpt lat="49.42709" lon="5.78236">
        <ele>277.79998779297</ele>
        <time>2023-06-18T07:56:00Z</time>
      </trkpt>
      <trkpt lat="49.42709" lon="5.78236">
        <ele>277.79998779297</ele>
        <time>2023-06-18T07:56:02Z</time>
      </trkpt>
      <trkpt lat="49.42708" lon="5.78236">
        <ele>277.79998779297</ele>
        <time>2023-06-18T07:56:04Z</time>
      </trkpt>
      <trkpt lat="49.42708" lon="5.78236">
        <ele>278</ele>
        <time>2023-06-18T07:56:06Z</time>
      </trkpt>
      <trkpt lat="49.42708" lon="5.78236">
        <ele>277.79998779297</ele>
        <time>2023-06-18T07:56:08Z</time>
      </trkpt>
      <trkpt lat="49.42708" lon="5.78236">
        <ele>277.79998779297</ele>
        <time>2023-06-18T07:56:10Z</time>
      </trkpt>
      <trkpt lat="49.42708" lon="5.78236">
        <ele>277.79998779297</ele>
        <time>2023-06-18T07:56:12Z</time>
      </trkpt>
      <trkpt lat="49.42708" lon="5.78236">
        <ele>277.79998779297</ele>
        <time>2023-06-18T07:56:14Z</time>
      </trkpt>
      <trkpt lat="49.42708" lon="5.78236">
        <ele>277.79998779297</ele>
        <time>2023-06-18T07:56:15Z</time>
      </trkpt>
      <trkpt lat="49.42708" lon="5.78236">
        <ele>277.79998779297</ele>
        <time>2023-06-18T07:56:16Z</time>
      </trkpt>
      <trkpt lat="49.42709" lon="5.78236">
        <ele>278</ele>
        <time>2023-06-18T07:56:18Z</time>
      </trkpt>
      <trkpt lat="49.42709" lon="5.78235">
        <ele>277.79998779297</ele>
        <time>2023-06-18T07:56:20Z</time>
      </trkpt>
      <trkpt lat="49.42709" lon="5.78234">
        <ele>278</ele>
        <time>2023-06-18T07:56:22Z</time>
      </trkpt>
      <trkpt lat="49.42709" lon="5.78233">
        <ele>277.79998779297</ele>
        <time>2023-06-18T07:56:24Z</time>
      </trkpt>
      <trkpt lat="49.42709" lon="5.78232">
        <ele>278</ele>
        <time>2023-06-18T07:56:26Z</time>
      </trkpt>
      <trkpt lat="49.42709" lon="5.78233">
        <ele>278</ele>
        <time>2023-06-18T07:56:28Z</time>
      </trkpt>
      <trkpt lat="49.42709" lon="5.78233">
        <ele>278.20001220703</ele>
        <time>2023-06-18T07:56:30Z</time>
      </trkpt>
      <trkpt lat="49.4271" lon="5.78233">
        <ele>278.39999389648</ele>
        <time>2023-06-18T07:56:32Z</time>
      </trkpt>
      <trkpt lat="49.42709" lon="5.78233">
        <ele>278.39999389648</ele>
        <time>2023-06-18T07:56:34Z</time>
      </trkpt>
      <trkpt lat="49.42709" lon="5.78233">
        <ele>278.39999389648</ele>
        <time>2023-06-18T07:56:36Z</time>
      </trkpt>
      <trkpt lat="49.42709" lon="5.78234">
        <ele>278.60000610352</ele>
        <time>2023-06-18T07:56:38Z</time>
      </trkpt>
      <trkpt lat="49.42709" lon="5.78234">
        <ele>278.60000610352</ele>
        <time>2023-06-18T07:56:40Z</time>
      </trkpt>
      <trkpt lat="49.4271" lon="5.78234">
        <ele>278.60000610352</ele>
        <time>2023-06-18T07:56:42Z</time>
      </trkpt>
      <trkpt lat="49.4271" lon="5.78235">
        <ele>278.79998779297</ele>
        <time>2023-06-18T07:56:44Z</time>
      </trkpt>
      <trkpt lat="49.4271" lon="5.78235">
        <ele>279</ele>
        <time>2023-06-18T07:56:46Z</time>
      </trkpt>
      <trkpt lat="49.4271" lon="5.78236">
        <ele>279</ele>
        <time>2023-06-18T07:56:48Z</time>
      </trkpt>
      <trkpt lat="49.4271" lon="5.78236">
        <ele>279</ele>
        <time>2023-06-18T07:56:49Z</time>
      </trkpt>
      <trkpt lat="49.42711" lon="5.78236">
        <ele>279</ele>
        <time>2023-06-18T07:56:50Z</time>
      </trkpt>
      <trkpt lat="49.4271" lon="5.78235">
        <ele>279</ele>
        <time>2023-06-18T07:56:52Z</time>
      </trkpt>
      <trkpt lat="49.4271" lon="5.78235">
        <ele>279</ele>
        <time>2023-06-18T07:56:54Z</time>
      </trkpt>
      <trkpt lat="49.4271" lon="5.78235">
        <ele>279</ele>
        <time>2023-06-18T07:56:55Z</time>
      </trkpt>
      <trkpt lat="49.4271" lon="5.78235">
        <ele>279</ele>
        <time>2023-06-18T07:56:56Z</time>
      </trkpt>
      <trkpt lat="49.4271" lon="5.78235">
        <ele>279</ele>
        <time>2023-06-18T07:56:58Z</time>
      </trkpt>
      <trkpt lat="49.4271" lon="5.78235">
        <ele>279</ele>
        <time>2023-06-18T07:57:00Z</time>
      </trkpt>
      <trkpt lat="49.4271" lon="5.78235">
        <ele>279</ele>
        <time>2023-06-18T07:57:02Z</time>
      </trkpt>
      <trkpt lat="49.4271" lon="5.78235">
        <ele>279</ele>
        <time>2023-06-18T07:57:04Z</time>
      </trkpt>
      <trkpt lat="49.4271" lon="5.78235">
        <ele>279.20001220703</ele>
        <time>2023-06-18T07:57:06Z</time>
      </trkpt>
      <trkpt lat="49.4271" lon="5.78235">
        <ele>279.20001220703</ele>
        <time>2023-06-18T07:57:08Z</time>
      </trkpt>
      <trkpt lat="49.4271" lon="5.78235">
        <ele>279.20001220703</ele>
        <time>2023-06-18T07:57:10Z</time>
      </trkpt>
      <trkpt lat="49.4271" lon="5.78235">
        <ele>279.20001220703</ele>
        <time>2023-06-18T07:57:12Z</time>
      </trkpt>
      <trkpt lat="49.4271" lon="5.78235">
        <ele>279.20001220703</ele>
        <time>2023-06-18T07:57:14Z</time>
      </trkpt>
      <trkpt lat="49.4271" lon="5.78235">
        <ele>279.20001220703</ele>
        <time>2023-06-18T07:57:15Z</time>
      </trkpt>
      <trkpt lat="49.4271" lon="5.78235">
        <ele>279.20001220703</ele>
        <time>2023-06-18T07:57:16Z</time>
      </trkpt>
      <trkpt lat="49.4271" lon="5.78235">
        <ele>279.20001220703</ele>
        <time>2023-06-18T07:57:18Z</time>
      </trkpt>
      <trkpt lat="49.4271" lon="5.78235">
        <ele>279.20001220703</ele>
        <time>2023-06-18T07:57:20Z</time>
      </trkpt>
      <trkpt lat="49.4271" lon="5.78235">
        <ele>279.20001220703</ele>
        <time>2023-06-18T07:57:22Z</time>
      </trkpt>
      <trkpt lat="49.4271" lon="5.78235">
        <ele>279.20001220703</ele>
        <time>2023-06-18T07:57:24Z</time>
      </trkpt>
      <trkpt lat="49.4271" lon="5.78235">
        <ele>279.20001220703</ele>
        <time>2023-06-18T07:57:26Z</time>
      </trkpt>
      <trkpt lat="49.4271" lon="5.78235">
        <ele>279.20001220703</ele>
        <time>2023-06-18T07:57:28Z</time>
      </trkpt>
      <trkpt lat="49.4271" lon="5.78235">
        <ele>279.20001220703</ele>
        <time>2023-06-18T07:57:30Z</time>
      </trkpt>
      <trkpt lat="49.4271" lon="5.78235">
        <ele>279.20001220703</ele>
        <time>2023-06-18T07:57:32Z</time>
      </trkpt>
      <trkpt lat="49.4271" lon="5.78236">
        <ele>279.20001220703</ele>
        <time>2023-06-18T07:57:34Z</time>
      </trkpt>
      <trkpt lat="49.4271" lon="5.78236">
        <ele>279.20001220703</ele>
        <time>2023-06-18T07:57:36Z</time>
      </trkpt>
      <trkpt lat="49.42711" lon="5.78236">
        <ele>279.20001220703</ele>
        <time>2023-06-18T07:57:38Z</time>
      </trkpt>
      <trkpt lat="49.42711" lon="5.78236">
        <ele>279.20001220703</ele>
        <time>2023-06-18T07:57:40Z</time>
      </trkpt>
      <trkpt lat="49.42711" lon="5.78236">
        <ele>279.20001220703</ele>
        <time>2023-06-18T07:57:42Z</time>
      </trkpt>
      <trkpt lat="49.42711" lon="5.78237">
        <ele>279.20001220703</ele>
        <time>2023-06-18T07:57:44Z</time>
      </trkpt>
      <trkpt lat="49.42712" lon="5.78237">
        <ele>279.20001220703</ele>
        <time>2023-06-18T07:57:46Z</time>
      </trkpt>
      <trkpt lat="49.42714" lon="5.78238">
        <ele>279.20001220703</ele>
        <time>2023-06-18T07:57:48Z</time>
      </trkpt>
      <trkpt lat="49.42716" lon="5.78239">
        <ele>279.20001220703</ele>
        <time>2023-06-18T07:57:50Z</time>
      </trkpt>
      <trkpt lat="49.42717" lon="5.7824">
        <ele>279.20001220703</ele>
        <time>2023-06-18T07:57:51Z</time>
      </trkpt>
      <trkpt lat="49.42719" lon="5.78241">
        <ele>279.20001220703</ele>
        <time>2023-06-18T07:57:52Z</time>
      </trkpt>
      <trkpt lat="49.42721" lon="5.78243">
        <ele>279.20001220703</ele>
        <time>2023-06-18T07:57:54Z</time>
      </trkpt>
      <trkpt lat="49.42723" lon="5.78244">
        <ele>279.20001220703</ele>
        <time>2023-06-18T07:57:55Z</time>
      </trkpt>
      <trkpt lat="49.42724" lon="5.78245">
        <ele>279.20001220703</ele>
        <time>2023-06-18T07:57:56Z</time>
      </trkpt>
      <trkpt lat="49.42727" lon="5.78246">
        <ele>279.20001220703</ele>
        <time>2023-06-18T07:57:58Z</time>
      </trkpt>
      <trkpt lat="49.4273" lon="5.78248">
        <ele>279.20001220703</ele>
        <time>2023-06-18T07:58:00Z</time>
      </trkpt>
      <trkpt lat="49.42736" lon="5.7825">
        <ele>279.20001220703</ele>
        <time>2023-06-18T07:58:02Z</time>
      </trkpt>
      <trkpt lat="49.42742" lon="5.78253">
        <ele>279.20001220703</ele>
        <time>2023-06-18T07:58:04Z</time>
      </trkpt>
      <trkpt lat="49.42748" lon="5.78256">
        <ele>279.20001220703</ele>
        <time>2023-06-18T07:58:06Z</time>
      </trkpt>
      <trkpt lat="49.42754" lon="5.7826">
        <ele>279.20001220703</ele>
        <time>2023-06-18T07:58:08Z</time>
      </trkpt>
      <trkpt lat="49.42757" lon="5.78261">
        <ele>279.20001220703</ele>
        <time>2023-06-18T07:58:09Z</time>
      </trkpt>
      <trkpt lat="49.4276" lon="5.78263">
        <ele>279.20001220703</ele>
        <time>2023-06-18T07:58:10Z</time>
      </trkpt>
      <trkpt lat="49.42765" lon="5.78266">
        <ele>279.20001220703</ele>
        <time>2023-06-18T07:58:12Z</time>
      </trkpt>
      <trkpt lat="49.42767" lon="5.78268">
        <ele>279.20001220703</ele>
        <time>2023-06-18T07:58:13Z</time>
      </trkpt>
      <trkpt lat="49.42769" lon="5.7827">
        <ele>279.20001220703</ele>
        <time>2023-06-18T07:58:14Z</time>
      </trkpt>
      <trkpt lat="49.42775" lon="5.78273">
        <ele>279.39999389648</ele>
        <time>2023-06-18T07:58:16Z</time>
      </trkpt>
      <trkpt lat="49.42777" lon="5.78275">
        <ele>279.39999389648</ele>
        <time>2023-06-18T07:58:17Z</time>
      </trkpt>
      <trkpt lat="49.42779" lon="5.78277">
        <ele>279.39999389648</ele>
        <time>2023-06-18T07:58:18Z</time>
      </trkpt>
      <trkpt lat="49.42783" lon="5.78282">
        <ele>279.39999389648</ele>
        <time>2023-06-18T07:58:20Z</time>
      </trkpt>
      <trkpt lat="49.42784" lon="5.78285">
        <ele>279.39999389648</ele>
        <time>2023-06-18T07:58:21Z</time>
      </trkpt>
      <trkpt lat="49.42785" lon="5.78289">
        <ele>279.60000610352</ele>
        <time>2023-06-18T07:58:22Z</time>
      </trkpt>
      <trkpt lat="49.42787" lon="5.78293">
        <ele>279.79998779297</ele>
        <time>2023-06-18T07:58:24Z</time>
      </trkpt>
      <trkpt lat="49.42787" lon="5.78298">
        <ele>279.79998779297</ele>
        <time>2023-06-18T07:58:26Z</time>
      </trkpt>
      <trkpt lat="49.42786" lon="5.783">
        <ele>279.79998779297</ele>
        <time>2023-06-18T07:58:27Z</time>
      </trkpt>
      <trkpt lat="49.42785" lon="5.78302">
        <ele>280</ele>
        <time>2023-06-18T07:58:28Z</time>
      </trkpt>
      <trkpt lat="49.42783" lon="5.78305">
        <ele>280</ele>
        <time>2023-06-18T07:58:30Z</time>
      </trkpt>
      <trkpt lat="49.42781" lon="5.78306">
        <ele>280.39999389648</ele>
        <time>2023-06-18T07:58:32Z</time>
      </trkpt>
      <trkpt lat="49.4278" lon="5.78307">
        <ele>280.60000610352</ele>
        <time>2023-06-18T07:58:33Z</time>
      </trkpt>
      <trkpt lat="49.42778" lon="5.78308">
        <ele>280.79998779297</ele>
        <time>2023-06-18T07:58:34Z</time>
      </trkpt>
      <trkpt lat="49.42776" lon="5.7831">
        <ele>281.20001220703</ele>
        <time>2023-06-18T07:58:36Z</time>
      </trkpt>
      <trkpt lat="49.42773" lon="5.78312">
        <ele>281.39999389648</ele>
        <time>2023-06-18T07:58:38Z</time>
      </trkpt>
      <trkpt lat="49.42773" lon="5.78313">
        <ele>281.79998779297</ele>
        <time>2023-06-18T07:58:39Z</time>
      </trkpt>
      <trkpt lat="49.42772" lon="5.78315">
        <ele>282</ele>
        <time>2023-06-18T07:58:40Z</time>
      </trkpt>
      <trkpt lat="49.4277" lon="5.78318">
        <ele>282.20001220703</ele>
        <time>2023-06-18T07:58:42Z</time>
      </trkpt>
      <trkpt lat="49.4277" lon="5.7832">
        <ele>282.20001220703</ele>
        <time>2023-06-18T07:58:43Z</time>
      </trkpt>
      <trkpt lat="49.4277" lon="5.78322">
        <ele>282.39999389648</ele>
        <time>2023-06-18T07:58:44Z</time>
      </trkpt>
      <trkpt lat="49.4277" lon="5.78323">
        <ele>282.60000610352</ele>
        <time>2023-06-18T07:58:45Z</time>
      </trkpt>
      <trkpt lat="49.42771" lon="5.78325">
        <ele>283</ele>
        <time>2023-06-18T07:58:46Z</time>
      </trkpt>
      <trkpt lat="49.42771" lon="5.78327">
        <ele>283.39999389648</ele>
        <time>2023-06-18T07:58:47Z</time>
      </trkpt>
      <trkpt lat="49.42772" lon="5.78329">
        <ele>283.60000610352</ele>
        <time>2023-06-18T07:58:48Z</time>
      </trkpt>
      <trkpt lat="49.42773" lon="5.78331">
        <ele>283.79998779297</ele>
        <time>2023-06-18T07:58:49Z</time>
      </trkpt>
      <trkpt lat="49.42774" lon="5.78333">
        <ele>284.20001220703</ele>
        <time>2023-06-18T07:58:50Z</time>
      </trkpt>
      <trkpt lat="49.42775" lon="5.78334">
        <ele>284.60000610352</ele>
        <time>2023-06-18T07:58:51Z</time>
      </trkpt>
      <trkpt lat="49.42777" lon="5.78335">
        <ele>284.79998779297</ele>
        <time>2023-06-18T07:58:52Z</time>
      </trkpt>
      <trkpt lat="49.4278" lon="5.78337">
        <ele>285.20001220703</ele>
        <time>2023-06-18T07:58:54Z</time>
      </trkpt>
      <trkpt lat="49.42783" lon="5.78339">
        <ele>285.20001220703</ele>
        <time>2023-06-18T07:58:56Z</time>
      </trkpt>
      <trkpt lat="49.42787" lon="5.78338">
        <ele>285.20001220703</ele>
        <time>2023-06-18T07:58:58Z</time>
      </trkpt>
      <trkpt lat="49.42793" lon="5.78336">
        <ele>285.20001220703</ele>
        <time>2023-06-18T07:59:00Z</time>
      </trkpt>
      <trkpt lat="49.42797" lon="5.78333">
        <ele>285.20001220703</ele>
        <time>2023-06-18T07:59:02Z</time>
      </trkpt>
      <trkpt lat="49.42801" lon="5.78331">
        <ele>285</ele>
        <time>2023-06-18T07:59:04Z</time>
      </trkpt>
      <trkpt lat="49.42804" lon="5.78327">
        <ele>284.79998779297</ele>
        <time>2023-06-18T07:59:06Z</time>
      </trkpt>
      <trkpt lat="49.42807" lon="5.78323">
        <ele>284.39999389648</ele>
        <time>2023-06-18T07:59:08Z</time>
      </trkpt>
      <trkpt lat="49.4281" lon="5.78322">
        <ele>284</ele>
        <time>2023-06-18T07:59:10Z</time>
      </trkpt>
      <trkpt lat="49.42812" lon="5.7832">
        <ele>283.79998779297</ele>
        <time>2023-06-18T07:59:12Z</time>
      </trkpt>
      <trkpt lat="49.42816" lon="5.78317">
        <ele>283.39999389648</ele>
        <time>2023-06-18T07:59:14Z</time>
      </trkpt>
      <trkpt lat="49.42819" lon="5.78316">
        <ele>283</ele>
        <time>2023-06-18T07:59:15Z</time>
      </trkpt>
      <trkpt lat="49.42822" lon="5.78315">
        <ele>283</ele>
        <time>2023-06-18T07:59:16Z</time>
      </trkpt>
      <trkpt lat="49.42828" lon="5.78312">
        <ele>282.60000610352</ele>
        <time>2023-06-18T07:59:18Z</time>
      </trkpt>
      <trkpt lat="49.42836" lon="5.78308">
        <ele>282.60000610352</ele>
        <time>2023-06-18T07:59:20Z</time>
      </trkpt>
      <trkpt lat="49.42844" lon="5.78307">
        <ele>282.39999389648</ele>
        <time>2023-06-18T07:59:22Z</time>
      </trkpt>
      <trkpt lat="49.4285" lon="5.78309">
        <ele>282.39999389648</ele>
        <time>2023-06-18T07:59:24Z</time>
      </trkpt>
      <trkpt lat="49.42855" lon="5.78316">
        <ele>281.79998779297</ele>
        <time>2023-06-18T07:59:26Z</time>
      </trkpt>
      <trkpt lat="49.42858" lon="5.78321">
        <ele>281.39999389648</ele>
        <time>2023-06-18T07:59:27Z</time>
      </trkpt>
      <trkpt lat="49.42862" lon="5.78325">
        <ele>281.20001220703</ele>
        <time>2023-06-18T07:59:28Z</time>
      </trkpt>
      <trkpt lat="49.42866" lon="5.78332">
        <ele>280.79998779297</ele>
        <time>2023-06-18T07:59:30Z</time>
      </trkpt>
      <trkpt lat="49.42869" lon="5.78337">
        <ele>280.60000610352</ele>
        <time>2023-06-18T07:59:32Z</time>
      </trkpt>
      <trkpt lat="49.42872" lon="5.78342">
        <ele>280.60000610352</ele>
        <time>2023-06-18T07:59:34Z</time>
      </trkpt>
      <trkpt lat="49.42875" lon="5.78348">
        <ele>280.39999389648</ele>
        <time>2023-06-18T07:59:36Z</time>
      </trkpt>
      <trkpt lat="49.42877" lon="5.78353">
        <ele>280.39999389648</ele>
        <time>2023-06-18T07:59:38Z</time>
      </trkpt>
      <trkpt lat="49.42879" lon="5.78356">
        <ele>280.39999389648</ele>
        <time>2023-06-18T07:59:39Z</time>
      </trkpt>
      <trkpt lat="49.4288" lon="5.78358">
        <ele>280.39999389648</ele>
        <time>2023-06-18T07:59:40Z</time>
      </trkpt>
      <trkpt lat="49.42882" lon="5.78362">
        <ele>280.60000610352</ele>
        <time>2023-06-18T07:59:42Z</time>
      </trkpt>
      <trkpt lat="49.42883" lon="5.78364">
        <ele>280.60000610352</ele>
        <time>2023-06-18T07:59:43Z</time>
      </trkpt>
      <trkpt lat="49.42884" lon="5.78367">
        <ele>280.60000610352</ele>
        <time>2023-06-18T07:59:44Z</time>
      </trkpt>
      <trkpt lat="49.42885" lon="5.78373">
        <ele>281.20001220703</ele>
        <time>2023-06-18T07:59:46Z</time>
      </trkpt>
      <trkpt lat="49.42887" lon="5.78379">
        <ele>281.39999389648</ele>
        <time>2023-06-18T07:59:48Z</time>
      </trkpt>
      <trkpt lat="49.4289" lon="5.78386">
        <ele>281.79998779297</ele>
        <time>2023-06-18T07:59:50Z</time>
      </trkpt>
      <trkpt lat="49.42892" lon="5.78391">
        <ele>282</ele>
        <time>2023-06-18T07:59:52Z</time>
      </trkpt>
      <trkpt lat="49.42894" lon="5.78397">
        <ele>282.39999389648</ele>
        <time>2023-06-18T07:59:54Z</time>
      </trkpt>
      <trkpt lat="49.42896" lon="5.78403">
        <ele>283</ele>
        <time>2023-06-18T07:59:56Z</time>
      </trkpt>
      <trkpt lat="49.42899" lon="5.78409">
        <ele>283.20001220703</ele>
        <time>2023-06-18T07:59:58Z</time>
      </trkpt>
      <trkpt lat="49.42902" lon="5.78414">
        <ele>283.39999389648</ele>
        <time>2023-06-18T08:00:00Z</time>
      </trkpt>
      <trkpt lat="49.42905" lon="5.78418">
        <ele>283.60000610352</ele>
        <time>2023-06-18T08:00:02Z</time>
      </trkpt>
      <trkpt lat="49.42908" lon="5.78422">
        <ele>284</ele>
        <time>2023-06-18T08:00:04Z</time>
      </trkpt>
      <trkpt lat="49.4291" lon="5.78426">
        <ele>284.60000610352</ele>
        <time>2023-06-18T08:00:06Z</time>
      </trkpt>
      <trkpt lat="49.42914" lon="5.78429">
        <ele>285</ele>
        <time>2023-06-18T08:00:08Z</time>
      </trkpt>
      <trkpt lat="49.42918" lon="5.78432">
        <ele>285.20001220703</ele>
        <time>2023-06-18T08:00:10Z</time>
      </trkpt>
      <trkpt lat="49.42923" lon="5.78436">
        <ele>285.79998779297</ele>
        <time>2023-06-18T08:00:12Z</time>
      </trkpt>
      <trkpt lat="49.42929" lon="5.78442">
        <ele>286</ele>
        <time>2023-06-18T08:00:14Z</time>
      </trkpt>
      <trkpt lat="49.42934" lon="5.78448">
        <ele>286.39999389648</ele>
        <time>2023-06-18T08:00:16Z</time>
      </trkpt>
      <trkpt lat="49.42938" lon="5.78451">
        <ele>286.60000610352</ele>
        <time>2023-06-18T08:00:18Z</time>
      </trkpt>
      <trkpt lat="49.42942" lon="5.78455">
        <ele>287</ele>
        <time>2023-06-18T08:00:20Z</time>
      </trkpt>
      <trkpt lat="49.42948" lon="5.78459">
        <ele>287.39999389648</ele>
        <time>2023-06-18T08:00:22Z</time>
      </trkpt>
      <trkpt lat="49.42955" lon="5.78463">
        <ele>287.79998779297</ele>
        <time>2023-06-18T08:00:24Z</time>
      </trkpt>
      <trkpt lat="49.42957" lon="5.78464">
        <ele>288</ele>
        <time>2023-06-18T08:00:25Z</time>
      </trkpt>
      <trkpt lat="49.42959" lon="5.78465">
        <ele>288</ele>
        <time>2023-06-18T08:00:26Z</time>
      </trkpt>
      <trkpt lat="49.42964" lon="5.78467">
        <ele>288.39999389648</ele>
        <time>2023-06-18T08:00:28Z</time>
      </trkpt>
      <trkpt lat="49.42966" lon="5.78468">
        <ele>288.39999389648</ele>
        <time>2023-06-18T08:00:29Z</time>
      </trkpt>
      <trkpt lat="49.42969" lon="5.78469">
        <ele>288.60000610352</ele>
        <time>2023-06-18T08:00:30Z</time>
      </trkpt>
      <trkpt lat="49.42976" lon="5.7847">
        <ele>289.20001220703</ele>
        <time>2023-06-18T08:00:32Z</time>
      </trkpt>
      <trkpt lat="49.42982" lon="5.78472">
        <ele>289.39999389648</ele>
        <time>2023-06-18T08:00:34Z</time>
      </trkpt>
      <trkpt lat="49.42985" lon="5.78473">
        <ele>289.79998779297</ele>
        <time>2023-06-18T08:00:35Z</time>
      </trkpt>
      <trkpt lat="49.42988" lon="5.78474">
        <ele>289.79998779297</ele>
        <time>2023-06-18T08:00:36Z</time>
      </trkpt>
      <trkpt lat="49.42993" lon="5.78474">
        <ele>289.79998779297</ele>
        <time>2023-06-18T08:00:38Z</time>
      </trkpt>
      <trkpt lat="49.42998" lon="5.78474">
        <ele>289.79998779297</ele>
        <time>2023-06-18T08:00:40Z</time>
      </trkpt>
      <trkpt lat="49.43003" lon="5.78473">
        <ele>290.20001220703</ele>
        <time>2023-06-18T08:00:42Z</time>
      </trkpt>
      <trkpt lat="49.43006" lon="5.78473">
        <ele>290.39999389648</ele>
        <time>2023-06-18T08:00:43Z</time>
      </trkpt>
      <trkpt lat="49.43008" lon="5.78474">
        <ele>290.79998779297</ele>
        <time>2023-06-18T08:00:44Z</time>
      </trkpt>
      <trkpt lat="49.43014" lon="5.78474">
        <ele>291</ele>
        <time>2023-06-18T08:00:46Z</time>
      </trkpt>
      <trkpt lat="49.43016" lon="5.78475">
        <ele>291</ele>
        <time>2023-06-18T08:00:47Z</time>
      </trkpt>
      <trkpt lat="49.43019" lon="5.78475">
        <ele>291.20001220703</ele>
        <time>2023-06-18T08:00:48Z</time>
      </trkpt>
      <trkpt lat="49.43024" lon="5.78476">
        <ele>291.60000610352</ele>
        <time>2023-06-18T08:00:50Z</time>
      </trkpt>
      <trkpt lat="49.43029" lon="5.78476">
        <ele>292</ele>
        <time>2023-06-18T08:00:52Z</time>
      </trkpt>
      <trkpt lat="49.43034" lon="5.78476">
        <ele>292.20001220703</ele>
        <time>2023-06-18T08:00:54Z</time>
      </trkpt>
      <trkpt lat="49.43036" lon="5.78476">
        <ele>292.39999389648</ele>
        <time>2023-06-18T08:00:55Z</time>
      </trkpt>
      <trkpt lat="49.43039" lon="5.78477">
        <ele>292.79998779297</ele>
        <time>2023-06-18T08:00:56Z</time>
      </trkpt>
      <trkpt lat="49.43044" lon="5.78476">
        <ele>293</ele>
        <time>2023-06-18T08:00:58Z</time>
      </trkpt>
      <trkpt lat="49.43049" lon="5.78477">
        <ele>293.39999389648</ele>
        <time>2023-06-18T08:01:00Z</time>
      </trkpt>
      <trkpt lat="49.43051" lon="5.78476">
        <ele>293.60000610352</ele>
        <time>2023-06-18T08:01:01Z</time>
      </trkpt>
      <trkpt lat="49.43053" lon="5.78476">
        <ele>293.60000610352</ele>
        <time>2023-06-18T08:01:02Z</time>
      </trkpt>
      <trkpt lat="49.43057" lon="5.78475">
        <ele>293.79998779297</ele>
        <time>2023-06-18T08:01:04Z</time>
      </trkpt>
      <trkpt lat="49.43061" lon="5.78475">
        <ele>294.20001220703</ele>
        <time>2023-06-18T08:01:06Z</time>
      </trkpt>
      <trkpt lat="49.43065" lon="5.78474">
        <ele>294.39999389648</ele>
        <time>2023-06-18T08:01:08Z</time>
      </trkpt>
      <trkpt lat="49.4307" lon="5.78474">
        <ele>294.60000610352</ele>
        <time>2023-06-18T08:01:10Z</time>
      </trkpt>
      <trkpt lat="49.43074" lon="5.78473">
        <ele>294.79998779297</ele>
        <time>2023-06-18T08:01:12Z</time>
      </trkpt>
      <trkpt lat="49.43078" lon="5.78473">
        <ele>295</ele>
        <time>2023-06-18T08:01:14Z</time>
      </trkpt>
      <trkpt lat="49.4308" lon="5.78472">
        <ele>295.20001220703</ele>
        <time>2023-06-18T08:01:15Z</time>
      </trkpt>
      <trkpt lat="49.43082" lon="5.78472">
        <ele>295.39999389648</ele>
        <time>2023-06-18T08:01:16Z</time>
      </trkpt>
      <trkpt lat="49.43085" lon="5.78471">
        <ele>295.79998779297</ele>
        <time>2023-06-18T08:01:18Z</time>
      </trkpt>
      <trkpt lat="49.43087" lon="5.78471">
        <ele>296</ele>
        <time>2023-06-18T08:01:19Z</time>
      </trkpt>
      <trkpt lat="49.43089" lon="5.7847">
        <ele>296</ele>
        <time>2023-06-18T08:01:20Z</time>
      </trkpt>
      <trkpt lat="49.43091" lon="5.78471">
        <ele>296.20001220703</ele>
        <time>2023-06-18T08:01:21Z</time>
      </trkpt>
      <trkpt lat="49.43093" lon="5.78471">
        <ele>296.20001220703</ele>
        <time>2023-06-18T08:01:22Z</time>
      </trkpt>
      <trkpt lat="49.43097" lon="5.78471">
        <ele>296.39999389648</ele>
        <time>2023-06-18T08:01:24Z</time>
      </trkpt>
      <trkpt lat="49.43098" lon="5.78471">
        <ele>296.60000610352</ele>
        <time>2023-06-18T08:01:25Z</time>
      </trkpt>
      <trkpt lat="49.431" lon="5.78471">
        <ele>296.60000610352</ele>
        <time>2023-06-18T08:01:26Z</time>
      </trkpt>
      <trkpt lat="49.43105" lon="5.78471">
        <ele>297</ele>
        <time>2023-06-18T08:01:28Z</time>
      </trkpt>
      <trkpt lat="49.43107" lon="5.78471">
        <ele>297</ele>
        <time>2023-06-18T08:01:29Z</time>
      </trkpt>
      <trkpt lat="49.4311" lon="5.78472">
        <ele>297.20001220703</ele>
        <time>2023-06-18T08:01:30Z</time>
      </trkpt>
      <trkpt lat="49.43114" lon="5.78465">
        <ele>297.60000610352</ele>
        <time>2023-06-18T08:01:32Z</time>
      </trkpt>
      <trkpt lat="49.43118" lon="5.78463">
        <ele>298</ele>
        <time>2023-06-18T08:01:34Z</time>
      </trkpt>
      <trkpt lat="49.43121" lon="5.78462">
        <ele>298.20001220703</ele>
        <time>2023-06-18T08:01:35Z</time>
      </trkpt>
      <trkpt lat="49.43124" lon="5.78462">
        <ele>298.20001220703</ele>
        <time>2023-06-18T08:01:36Z</time>
      </trkpt>
      <trkpt lat="49.43127" lon="5.78461">
        <ele>298.39999389648</ele>
        <time>2023-06-18T08:01:38Z</time>
      </trkpt>
      <trkpt lat="49.43131" lon="5.7846">
        <ele>298.79998779297</ele>
        <time>2023-06-18T08:01:40Z</time>
      </trkpt>
      <trkpt lat="49.43135" lon="5.78458">
        <ele>299.20001220703</ele>
        <time>2023-06-18T08:01:42Z</time>
      </trkpt>
      <trkpt lat="49.43137" lon="5.78453">
        <ele>299.39999389648</ele>
        <time>2023-06-18T08:01:44Z</time>
      </trkpt>
      <trkpt lat="49.43141" lon="5.78451">
        <ele>299.60000610352</ele>
        <time>2023-06-18T08:01:46Z</time>
      </trkpt>
      <trkpt lat="49.43143" lon="5.7845">
        <ele>300.39999389648</ele>
        <time>2023-06-18T08:01:47Z</time>
      </trkpt>
      <trkpt lat="49.43146" lon="5.7845">
        <ele>300.60000610352</ele>
        <time>2023-06-18T08:01:48Z</time>
      </trkpt>
      <trkpt lat="49.4315" lon="5.7845">
        <ele>301</ele>
        <time>2023-06-18T08:01:50Z</time>
      </trkpt>
      <trkpt lat="49.43155" lon="5.78451">
        <ele>301.20001220703</ele>
        <time>2023-06-18T08:01:52Z</time>
      </trkpt>
      <trkpt lat="49.4316" lon="5.78451">
        <ele>301.20001220703</ele>
        <time>2023-06-18T08:01:54Z</time>
      </trkpt>
      <trkpt lat="49.43164" lon="5.78451">
        <ele>301.79998779297</ele>
        <time>2023-06-18T08:01:56Z</time>
      </trkpt>
      <trkpt lat="49.43169" lon="5.78452">
        <ele>302.20001220703</ele>
        <time>2023-06-18T08:01:58Z</time>
      </trkpt>
      <trkpt lat="49.4317" lon="5.78451">
        <ele>302.39999389648</ele>
        <time>2023-06-18T08:01:59Z</time>
      </trkpt>
      <trkpt lat="49.43173" lon="5.78451">
        <ele>302.39999389648</ele>
        <time>2023-06-18T08:02:00Z</time>
      </trkpt>
      <trkpt lat="49.43175" lon="5.78451">
        <ele>302.39999389648</ele>
        <time>2023-06-18T08:02:01Z</time>
      </trkpt>
      <trkpt lat="49.43177" lon="5.78452">
        <ele>302.39999389648</ele>
        <time>2023-06-18T08:02:02Z</time>
      </trkpt>
      <trkpt lat="49.43181" lon="5.78453">
        <ele>303</ele>
        <time>2023-06-18T08:02:04Z</time>
      </trkpt>
      <trkpt lat="49.43183" lon="5.78453">
        <ele>303.20001220703</ele>
        <time>2023-06-18T08:02:05Z</time>
      </trkpt>
      <trkpt lat="49.43185" lon="5.78454">
        <ele>303.39999389648</ele>
        <time>2023-06-18T08:02:06Z</time>
      </trkpt>
      <trkpt lat="49.4319" lon="5.78453">
        <ele>303.60000610352</ele>
        <time>2023-06-18T08:02:08Z</time>
      </trkpt>
      <trkpt lat="49.43192" lon="5.78454">
        <ele>303.79998779297</ele>
        <time>2023-06-18T08:02:09Z</time>
      </trkpt>
      <trkpt lat="49.43194" lon="5.78455">
        <ele>303.79998779297</ele>
        <time>2023-06-18T08:02:10Z</time>
      </trkpt>
      <trkpt lat="49.432" lon="5.78458">
        <ele>303.79998779297</ele>
        <time>2023-06-18T08:02:12Z</time>
      </trkpt>
      <trkpt lat="49.43205" lon="5.7846">
        <ele>304.20001220703</ele>
        <time>2023-06-18T08:02:14Z</time>
      </trkpt>
      <trkpt lat="49.4321" lon="5.78462">
        <ele>304.79998779297</ele>
        <time>2023-06-18T08:02:16Z</time>
      </trkpt>
      <trkpt lat="49.43214" lon="5.78464">
        <ele>305</ele>
        <time>2023-06-18T08:02:18Z</time>
      </trkpt>
      <trkpt lat="49.43218" lon="5.78464">
        <ele>305.39999389648</ele>
        <time>2023-06-18T08:02:20Z</time>
      </trkpt>
      <trkpt lat="49.43221" lon="5.78466">
        <ele>305.60000610352</ele>
        <time>2023-06-18T08:02:22Z</time>
      </trkpt>
      <trkpt lat="49.43225" lon="5.78468">
        <ele>305.79998779297</ele>
        <time>2023-06-18T08:02:24Z</time>
      </trkpt>
      <trkpt lat="49.43229" lon="5.7847">
        <ele>306.20001220703</ele>
        <time>2023-06-18T08:02:26Z</time>
      </trkpt>
      <trkpt lat="49.43232" lon="5.78471">
        <ele>306.39999389648</ele>
        <time>2023-06-18T08:02:28Z</time>
      </trkpt>
      <trkpt lat="49.43237" lon="5.78471">
        <ele>307</ele>
        <time>2023-06-18T08:02:30Z</time>
      </trkpt>
      <trkpt lat="49.43241" lon="5.78473">
        <ele>307</ele>
        <time>2023-06-18T08:02:32Z</time>
      </trkpt>
      <trkpt lat="49.43245" lon="5.78472">
        <ele>307.39999389648</ele>
        <time>2023-06-18T08:02:34Z</time>
      </trkpt>
      <trkpt lat="49.43249" lon="5.78473">
        <ele>307.60000610352</ele>
        <time>2023-06-18T08:02:36Z</time>
      </trkpt>
      <trkpt lat="49.43252" lon="5.78475">
        <ele>308</ele>
        <time>2023-06-18T08:02:38Z</time>
      </trkpt>
      <trkpt lat="49.43253" lon="5.78478">
        <ele>308.39999389648</ele>
        <time>2023-06-18T08:02:40Z</time>
      </trkpt>
      <trkpt lat="49.43253" lon="5.7848">
        <ele>308.60000610352</ele>
        <time>2023-06-18T08:02:41Z</time>
      </trkpt>
      <trkpt lat="49.43252" lon="5.78482">
        <ele>308.79998779297</ele>
        <time>2023-06-18T08:02:42Z</time>
      </trkpt>
      <trkpt lat="49.43252" lon="5.78484">
        <ele>308.79998779297</ele>
        <time>2023-06-18T08:02:43Z</time>
      </trkpt>
      <trkpt lat="49.43252" lon="5.78485">
        <ele>309</ele>
        <time>2023-06-18T08:02:44Z</time>
      </trkpt>
      <trkpt lat="49.43251" lon="5.78487">
        <ele>309</ele>
        <time>2023-06-18T08:02:46Z</time>
      </trkpt>
      <trkpt lat="49.43249" lon="5.78486">
        <ele>309.39999389648</ele>
        <time>2023-06-18T08:02:48Z</time>
      </trkpt>
      <trkpt lat="49.43247" lon="5.78485">
        <ele>310</ele>
        <time>2023-06-18T08:02:50Z</time>
      </trkpt>
      <trkpt lat="49.43246" lon="5.78485">
        <ele>310.20001220703</ele>
        <time>2023-06-18T08:02:51Z</time>
      </trkpt>
      <trkpt lat="49.43244" lon="5.78485">
        <ele>310.20001220703</ele>
        <time>2023-06-18T08:02:52Z</time>
      </trkpt>
      <trkpt lat="49.43242" lon="5.78484">
        <ele>310.60000610352</ele>
        <time>2023-06-18T08:02:54Z</time>
      </trkpt>
      <trkpt lat="49.4324" lon="5.78483">
        <ele>310.79998779297</ele>
        <time>2023-06-18T08:02:56Z</time>
      </trkpt>
      <trkpt lat="49.43238" lon="5.78483">
        <ele>311</ele>
        <time>2023-06-18T08:02:58Z</time>
      </trkpt>
      <trkpt lat="49.43237" lon="5.78483">
        <ele>311.20001220703</ele>
        <time>2023-06-18T08:02:59Z</time>
      </trkpt>
      <trkpt lat="49.43236" lon="5.78483">
        <ele>311.39999389648</ele>
        <time>2023-06-18T08:03:00Z</time>
      </trkpt>
      <trkpt lat="49.43232" lon="5.78483">
        <ele>311.60000610352</ele>
        <time>2023-06-18T08:03:02Z</time>
      </trkpt>
      <trkpt lat="49.43229" lon="5.78482">
        <ele>311.60000610352</ele>
        <time>2023-06-18T08:03:04Z</time>
      </trkpt>
      <trkpt lat="49.43225" lon="5.78481">
        <ele>312</ele>
        <time>2023-06-18T08:03:06Z</time>
      </trkpt>
      <trkpt lat="49.43222" lon="5.78481">
        <ele>312.20001220703</ele>
        <time>2023-06-18T08:03:08Z</time>
      </trkpt>
      <trkpt lat="49.4322" lon="5.78482">
        <ele>312.60000610352</ele>
        <time>2023-06-18T08:03:09Z</time>
      </trkpt>
      <trkpt lat="49.43218" lon="5.78482">
        <ele>312.60000610352</ele>
        <time>2023-06-18T08:03:10Z</time>
      </trkpt>
      <trkpt lat="49.43214" lon="5.78482">
        <ele>313.20001220703</ele>
        <time>2023-06-18T08:03:12Z</time>
      </trkpt>
      <trkpt lat="49.43213" lon="5.78482">
        <ele>313.39999389648</ele>
        <time>2023-06-18T08:03:13Z</time>
      </trkpt>
      <trkpt lat="49.43211" lon="5.78483">
        <ele>313.39999389648</ele>
        <time>2023-06-18T08:03:14Z</time>
      </trkpt>
      <trkpt lat="49.43209" lon="5.78484">
        <ele>313.39999389648</ele>
        <time>2023-06-18T08:03:15Z</time>
      </trkpt>
      <trkpt lat="49.43206" lon="5.78485">
        <ele>313.79998779297</ele>
        <time>2023-06-18T08:03:16Z</time>
      </trkpt>
      <trkpt lat="49.43203" lon="5.78486">
        <ele>314.20001220703</ele>
        <time>2023-06-18T08:03:18Z</time>
      </trkpt>
      <trkpt lat="49.43199" lon="5.78488">
        <ele>314.39999389648</ele>
        <time>2023-06-18T08:03:20Z</time>
      </trkpt>
      <trkpt lat="49.43196" lon="5.7849">
        <ele>314.79998779297</ele>
        <time>2023-06-18T08:03:22Z</time>
      </trkpt>
      <trkpt lat="49.43193" lon="5.78492">
        <ele>315.20001220703</ele>
        <time>2023-06-18T08:03:24Z</time>
      </trkpt>
      <trkpt lat="49.43191" lon="5.78493">
        <ele>315.39999389648</ele>
        <time>2023-06-18T08:03:25Z</time>
      </trkpt>
      <trkpt lat="49.43189" lon="5.78494">
        <ele>315.79998779297</ele>
        <time>2023-06-18T08:03:26Z</time>
      </trkpt>
      <trkpt lat="49.43185" lon="5.78497">
        <ele>316</ele>
        <time>2023-06-18T08:03:28Z</time>
      </trkpt>
      <trkpt lat="49.43182" lon="5.785">
        <ele>316.39999389648</ele>
        <time>2023-06-18T08:03:30Z</time>
      </trkpt>
      <trkpt lat="49.4318" lon="5.785">
        <ele>316.39999389648</ele>
        <time>2023-06-18T08:03:31Z</time>
      </trkpt>
      <trkpt lat="49.43177" lon="5.78502">
        <ele>316.60000610352</ele>
        <time>2023-06-18T08:03:32Z</time>
      </trkpt>
      <trkpt lat="49.43173" lon="5.78505">
        <ele>316.79998779297</ele>
        <time>2023-06-18T08:03:34Z</time>
      </trkpt>
      <trkpt lat="49.43171" lon="5.78507">
        <ele>317</ele>
        <time>2023-06-18T08:03:35Z</time>
      </trkpt>
      <trkpt lat="49.43169" lon="5.78509">
        <ele>317.20001220703</ele>
        <time>2023-06-18T08:03:36Z</time>
      </trkpt>
      <trkpt lat="49.43164" lon="5.78513">
        <ele>317.39999389648</ele>
        <time>2023-06-18T08:03:38Z</time>
      </trkpt>
      <trkpt lat="49.4316" lon="5.78516">
        <ele>317.79998779297</ele>
        <time>2023-06-18T08:03:40Z</time>
      </trkpt>
      <trkpt lat="49.43157" lon="5.78521">
        <ele>318</ele>
        <time>2023-06-18T08:03:42Z</time>
      </trkpt>
      <trkpt lat="49.43153" lon="5.78525">
        <ele>318</ele>
        <time>2023-06-18T08:03:44Z</time>
      </trkpt>
      <trkpt lat="49.4315" lon="5.78528">
        <ele>318.60000610352</ele>
        <time>2023-06-18T08:03:46Z</time>
      </trkpt>
      <trkpt lat="49.43147" lon="5.78532">
        <ele>318.60000610352</ele>
        <time>2023-06-18T08:03:48Z</time>
      </trkpt>
      <trkpt lat="49.43144" lon="5.78536">
        <ele>319.20001220703</ele>
        <time>2023-06-18T08:03:50Z</time>
      </trkpt>
      <trkpt lat="49.4314" lon="5.78539">
        <ele>319.20001220703</ele>
        <time>2023-06-18T08:03:52Z</time>
      </trkpt>
      <trkpt lat="49.43138" lon="5.78541">
        <ele>319.39999389648</ele>
        <time>2023-06-18T08:03:53Z</time>
      </trkpt>
      <trkpt lat="49.43136" lon="5.78543">
        <ele>319.60000610352</ele>
        <time>2023-06-18T08:03:54Z</time>
      </trkpt>
      <trkpt lat="49.43131" lon="5.78547">
        <ele>319.79998779297</ele>
        <time>2023-06-18T08:03:56Z</time>
      </trkpt>
      <trkpt lat="49.43127" lon="5.78551">
        <ele>320</ele>
        <time>2023-06-18T08:03:58Z</time>
      </trkpt>
      <trkpt lat="49.43124" lon="5.78551">
        <ele>320</ele>
        <time>2023-06-18T08:03:59Z</time>
      </trkpt>
      <trkpt lat="49.43122" lon="5.78553">
        <ele>320</ele>
        <time>2023-06-18T08:04:00Z</time>
      </trkpt>
      <trkpt lat="49.43117" lon="5.78556">
        <ele>320.39999389648</ele>
        <time>2023-06-18T08:04:02Z</time>
      </trkpt>
      <trkpt lat="49.43111" lon="5.7856">
        <ele>320.60000610352</ele>
        <time>2023-06-18T08:04:04Z</time>
      </trkpt>
      <trkpt lat="49.43108" lon="5.78564">
        <ele>321</ele>
        <time>2023-06-18T08:04:06Z</time>
      </trkpt>
      <trkpt lat="49.43103" lon="5.78566">
        <ele>321.20001220703</ele>
        <time>2023-06-18T08:04:08Z</time>
      </trkpt>
      <trkpt lat="49.43098" lon="5.7857">
        <ele>321.60000610352</ele>
        <time>2023-06-18T08:04:10Z</time>
      </trkpt>
      <trkpt lat="49.43095" lon="5.78571">
        <ele>321.79998779297</ele>
        <time>2023-06-18T08:04:11Z</time>
      </trkpt>
      <trkpt lat="49.43092" lon="5.78573">
        <ele>321.79998779297</ele>
        <time>2023-06-18T08:04:12Z</time>
      </trkpt>
      <trkpt lat="49.43087" lon="5.78577">
        <ele>322</ele>
        <time>2023-06-18T08:04:14Z</time>
      </trkpt>
      <trkpt lat="49.43081" lon="5.78582">
        <ele>322.20001220703</ele>
        <time>2023-06-18T08:04:16Z</time>
      </trkpt>
      <trkpt lat="49.43075" lon="5.78586">
        <ele>322.60000610352</ele>
        <time>2023-06-18T08:04:18Z</time>
      </trkpt>
      <trkpt lat="49.4307" lon="5.7859">
        <ele>322.79998779297</ele>
        <time>2023-06-18T08:04:20Z</time>
      </trkpt>
      <trkpt lat="49.43067" lon="5.78593">
        <ele>322.79998779297</ele>
        <time>2023-06-18T08:04:21Z</time>
      </trkpt>
      <trkpt lat="49.43065" lon="5.78595">
        <ele>323</ele>
        <time>2023-06-18T08:04:22Z</time>
      </trkpt>
      <trkpt lat="49.4306" lon="5.78599">
        <ele>323.20001220703</ele>
        <time>2023-06-18T08:04:24Z</time>
      </trkpt>
      <trkpt lat="49.43056" lon="5.78603">
        <ele>323.60000610352</ele>
        <time>2023-06-18T08:04:26Z</time>
      </trkpt>
      <trkpt lat="49.43052" lon="5.78607">
        <ele>324</ele>
        <time>2023-06-18T08:04:28Z</time>
      </trkpt>
      <trkpt lat="49.43048" lon="5.78613">
        <ele>324.20001220703</ele>
        <time>2023-06-18T08:04:30Z</time>
      </trkpt>
      <trkpt lat="49.43044" lon="5.78618">
        <ele>324.20001220703</ele>
        <time>2023-06-18T08:04:32Z</time>
      </trkpt>
      <trkpt lat="49.4304" lon="5.78623">
        <ele>324.39999389648</ele>
        <time>2023-06-18T08:04:34Z</time>
      </trkpt>
      <trkpt lat="49.43036" lon="5.78629">
        <ele>324.79998779297</ele>
        <time>2023-06-18T08:04:36Z</time>
      </trkpt>
      <trkpt lat="49.43035" lon="5.78632">
        <ele>325</ele>
        <time>2023-06-18T08:04:37Z</time>
      </trkpt>
      <trkpt lat="49.43033" lon="5.78635">
        <ele>325.20001220703</ele>
        <time>2023-06-18T08:04:38Z</time>
      </trkpt>
      <trkpt lat="49.4303" lon="5.78641">
        <ele>325.20001220703</ele>
        <time>2023-06-18T08:04:40Z</time>
      </trkpt>
      <trkpt lat="49.43029" lon="5.78647">
        <ele>325.39999389648</ele>
        <time>2023-06-18T08:04:42Z</time>
      </trkpt>
      <trkpt lat="49.43028" lon="5.78652">
        <ele>325.79998779297</ele>
        <time>2023-06-18T08:04:44Z</time>
      </trkpt>
      <trkpt lat="49.43028" lon="5.78657">
        <ele>326</ele>
        <time>2023-06-18T08:04:46Z</time>
      </trkpt>
      <trkpt lat="49.43028" lon="5.78661">
        <ele>326.20001220703</ele>
        <time>2023-06-18T08:04:47Z</time>
      </trkpt>
      <trkpt lat="49.43028" lon="5.78664">
        <ele>326.39999389648</ele>
        <time>2023-06-18T08:04:48Z</time>
      </trkpt>
      <trkpt lat="49.43028" lon="5.78667">
        <ele>326.60000610352</ele>
        <time>2023-06-18T08:04:49Z</time>
      </trkpt>
      <trkpt lat="49.43028" lon="5.7867">
        <ele>326.60000610352</ele>
        <time>2023-06-18T08:04:50Z</time>
      </trkpt>
      <trkpt lat="49.43027" lon="5.78677">
        <ele>327</ele>
        <time>2023-06-18T08:04:52Z</time>
      </trkpt>
      <trkpt lat="49.43027" lon="5.78683">
        <ele>327.39999389648</ele>
        <time>2023-06-18T08:04:54Z</time>
      </trkpt>
      <trkpt lat="49.43026" lon="5.78687">
        <ele>327.39999389648</ele>
        <time>2023-06-18T08:04:55Z</time>
      </trkpt>
      <trkpt lat="49.43026" lon="5.7869">
        <ele>327.39999389648</ele>
        <time>2023-06-18T08:04:56Z</time>
      </trkpt>
      <trkpt lat="49.43026" lon="5.78696">
        <ele>327.79998779297</ele>
        <time>2023-06-18T08:04:58Z</time>
      </trkpt>
      <trkpt lat="49.43026" lon="5.78703">
        <ele>328</ele>
        <time>2023-06-18T08:05:00Z</time>
      </trkpt>
      <trkpt lat="49.43026" lon="5.78706">
        <ele>328</ele>
        <time>2023-06-18T08:05:01Z</time>
      </trkpt>
      <trkpt lat="49.43026" lon="5.78709">
        <ele>328.20001220703</ele>
        <time>2023-06-18T08:05:02Z</time>
      </trkpt>
      <trkpt lat="49.43026" lon="5.78712">
        <ele>328.39999389648</ele>
        <time>2023-06-18T08:05:03Z</time>
      </trkpt>
      <trkpt lat="49.43026" lon="5.78716">
        <ele>328.39999389648</ele>
        <time>2023-06-18T08:05:04Z</time>
      </trkpt>
      <trkpt lat="49.43027" lon="5.78724">
        <ele>328.79998779297</ele>
        <time>2023-06-18T08:05:06Z</time>
      </trkpt>
      <trkpt lat="49.43027" lon="5.7873">
        <ele>329.20001220703</ele>
        <time>2023-06-18T08:05:08Z</time>
      </trkpt>
      <trkpt lat="49.43026" lon="5.78737">
        <ele>329.39999389648</ele>
        <time>2023-06-18T08:05:10Z</time>
      </trkpt>
      <trkpt lat="49.43026" lon="5.78744">
        <ele>329.79998779297</ele>
        <time>2023-06-18T08:05:12Z</time>
      </trkpt>
      <trkpt lat="49.43027" lon="5.78749">
        <ele>330</ele>
        <time>2023-06-18T08:05:14Z</time>
      </trkpt>
      <trkpt lat="49.43028" lon="5.78754">
        <ele>330.20001220703</ele>
        <time>2023-06-18T08:05:16Z</time>
      </trkpt>
      <trkpt lat="49.43029" lon="5.78758">
        <ele>330.39999389648</ele>
        <time>2023-06-18T08:05:18Z</time>
      </trkpt>
      <trkpt lat="49.43031" lon="5.7876">
        <ele>330.79998779297</ele>
        <time>2023-06-18T08:05:20Z</time>
      </trkpt>
      <trkpt lat="49.43031" lon="5.78761">
        <ele>330.79998779297</ele>
        <time>2023-06-18T08:05:21Z</time>
      </trkpt>
      <trkpt lat="49.43032" lon="5.78763">
        <ele>331</ele>
        <time>2023-06-18T08:05:22Z</time>
      </trkpt>
      <trkpt lat="49.43034" lon="5.78766">
        <ele>331.39999389648</ele>
        <time>2023-06-18T08:05:24Z</time>
      </trkpt>
      <trkpt lat="49.43035" lon="5.78769">
        <ele>331.60000610352</ele>
        <time>2023-06-18T08:05:25Z</time>
      </trkpt>
      <trkpt lat="49.43036" lon="5.78772">
        <ele>331.79998779297</ele>
        <time>2023-06-18T08:05:26Z</time>
      </trkpt>
      <trkpt lat="49.43038" lon="5.78774">
        <ele>332.39999389648</ele>
        <time>2023-06-18T08:05:28Z</time>
      </trkpt>
      <trkpt lat="49.4304" lon="5.78777">
        <ele>332.60000610352</ele>
        <time>2023-06-18T08:05:30Z</time>
      </trkpt>
      <trkpt lat="49.43043" lon="5.7878">
        <ele>333</ele>
        <time>2023-06-18T08:05:32Z</time>
      </trkpt>
      <trkpt lat="49.43044" lon="5.78782">
        <ele>333</ele>
        <time>2023-06-18T08:05:33Z</time>
      </trkpt>
      <trkpt lat="49.43045" lon="5.78784">
        <ele>333.39999389648</ele>
        <time>2023-06-18T08:05:34Z</time>
      </trkpt>
      <trkpt lat="49.43047" lon="5.78787">
        <ele>333.79998779297</ele>
        <time>2023-06-18T08:05:36Z</time>
      </trkpt>
      <trkpt lat="49.43048" lon="5.78788">
        <ele>333.79998779297</ele>
        <time>2023-06-18T08:05:37Z</time>
      </trkpt>
      <trkpt lat="49.43049" lon="5.7879">
        <ele>334</ele>
        <time>2023-06-18T08:05:38Z</time>
      </trkpt>
      <trkpt lat="49.43052" lon="5.78794">
        <ele>334.20001220703</ele>
        <time>2023-06-18T08:05:40Z</time>
      </trkpt>
      <trkpt lat="49.43055" lon="5.78798">
        <ele>334.60000610352</ele>
        <time>2023-06-18T08:05:42Z</time>
      </trkpt>
      <trkpt lat="49.43058" lon="5.78802">
        <ele>335</ele>
        <time>2023-06-18T08:05:44Z</time>
      </trkpt>
      <trkpt lat="49.43063" lon="5.7881">
        <ele>335.20001220703</ele>
        <time>2023-06-18T08:05:46Z</time>
      </trkpt>
      <trkpt lat="49.43067" lon="5.78816">
        <ele>335.60000610352</ele>
        <time>2023-06-18T08:05:48Z</time>
      </trkpt>
      <trkpt lat="49.4307" lon="5.78821">
        <ele>336</ele>
        <time>2023-06-18T08:05:50Z</time>
      </trkpt>
      <trkpt lat="49.43072" lon="5.78824">
        <ele>336.20001220703</ele>
        <time>2023-06-18T08:05:51Z</time>
      </trkpt>
      <trkpt lat="49.43074" lon="5.78826">
        <ele>336.39999389648</ele>
        <time>2023-06-18T08:05:52Z</time>
      </trkpt>
      <trkpt lat="49.43077" lon="5.78832">
        <ele>336.60000610352</ele>
        <time>2023-06-18T08:05:54Z</time>
      </trkpt>
      <trkpt lat="49.4308" lon="5.78837">
        <ele>337.20001220703</ele>
        <time>2023-06-18T08:05:56Z</time>
      </trkpt>
      <trkpt lat="49.43083" lon="5.78841">
        <ele>337.39999389648</ele>
        <time>2023-06-18T08:05:58Z</time>
      </trkpt>
      <trkpt lat="49.43087" lon="5.78846">
        <ele>337.79998779297</ele>
        <time>2023-06-18T08:06:00Z</time>
      </trkpt>
      <trkpt lat="49.43088" lon="5.78848">
        <ele>337.79998779297</ele>
        <time>2023-06-18T08:06:01Z</time>
      </trkpt>
      <trkpt lat="49.43089" lon="5.7885">
        <ele>338</ele>
        <time>2023-06-18T08:06:02Z</time>
      </trkpt>
      <trkpt lat="49.4309" lon="5.78852">
        <ele>338.39999389648</ele>
        <time>2023-06-18T08:06:03Z</time>
      </trkpt>
      <trkpt lat="49.43092" lon="5.78855">
        <ele>338.60000610352</ele>
        <time>2023-06-18T08:06:04Z</time>
      </trkpt>
      <trkpt lat="49.43095" lon="5.78859">
        <ele>339</ele>
        <time>2023-06-18T08:06:06Z</time>
      </trkpt>
      <trkpt lat="49.43097" lon="5.78862">
        <ele>339.20001220703</ele>
        <time>2023-06-18T08:06:07Z</time>
      </trkpt>
      <trkpt lat="49.43098" lon="5.78864">
        <ele>339.20001220703</ele>
        <time>2023-06-18T08:06:08Z</time>
      </trkpt>
      <trkpt lat="49.431" lon="5.78867">
        <ele>339.39999389648</ele>
        <time>2023-06-18T08:06:09Z</time>
      </trkpt>
      <trkpt lat="49.43101" lon="5.78871">
        <ele>339.60000610352</ele>
        <time>2023-06-18T08:06:10Z</time>
      </trkpt>
      <trkpt lat="49.43104" lon="5.78876">
        <ele>339.79998779297</ele>
        <time>2023-06-18T08:06:12Z</time>
      </trkpt>
      <trkpt lat="49.43105" lon="5.78878">
        <ele>340</ele>
        <time>2023-06-18T08:06:13Z</time>
      </trkpt>
      <trkpt lat="49.43106" lon="5.78881">
        <ele>340</ele>
        <time>2023-06-18T08:06:14Z</time>
      </trkpt>
      <trkpt lat="49.4311" lon="5.78886">
        <ele>340.20001220703</ele>
        <time>2023-06-18T08:06:16Z</time>
      </trkpt>
      <trkpt lat="49.43111" lon="5.78888">
        <ele>340.39999389648</ele>
        <time>2023-06-18T08:06:17Z</time>
      </trkpt>
      <trkpt lat="49.43114" lon="5.78892">
        <ele>340.60000610352</ele>
        <time>2023-06-18T08:06:18Z</time>
      </trkpt>
      <trkpt lat="49.43116" lon="5.78894">
        <ele>340.79998779297</ele>
        <time>2023-06-18T08:06:19Z</time>
      </trkpt>
      <trkpt lat="49.43117" lon="5.78896">
        <ele>341</ele>
        <time>2023-06-18T08:06:20Z</time>
      </trkpt>
      <trkpt lat="49.43123" lon="5.78903">
        <ele>341.20001220703</ele>
        <time>2023-06-18T08:06:22Z</time>
      </trkpt>
      <trkpt lat="49.43126" lon="5.78906">
        <ele>341.60000610352</ele>
        <time>2023-06-18T08:06:23Z</time>
      </trkpt>
      <trkpt lat="49.43129" lon="5.78909">
        <ele>341.79998779297</ele>
        <time>2023-06-18T08:06:24Z</time>
      </trkpt>
      <trkpt lat="49.4313" lon="5.78912">
        <ele>341.79998779297</ele>
        <time>2023-06-18T08:06:25Z</time>
      </trkpt>
      <trkpt lat="49.43131" lon="5.78914">
        <ele>342</ele>
        <time>2023-06-18T08:06:26Z</time>
      </trkpt>
      <trkpt lat="49.43133" lon="5.78917">
        <ele>342.20001220703</ele>
        <time>2023-06-18T08:06:27Z</time>
      </trkpt>
      <trkpt lat="49.43134" lon="5.7892">
        <ele>342.20001220703</ele>
        <time>2023-06-18T08:06:28Z</time>
      </trkpt>
      <trkpt lat="49.43136" lon="5.78925">
        <ele>342.39999389648</ele>
        <time>2023-06-18T08:06:30Z</time>
      </trkpt>
      <trkpt lat="49.43138" lon="5.78929">
        <ele>342.39999389648</ele>
        <time>2023-06-18T08:06:31Z</time>
      </trkpt>
      <trkpt lat="49.43139" lon="5.78934">
        <ele>342.39999389648</ele>
        <time>2023-06-18T08:06:32Z</time>
      </trkpt>
      <trkpt lat="49.4314" lon="5.78938">
        <ele>342.60000610352</ele>
        <time>2023-06-18T08:06:33Z</time>
      </trkpt>
      <trkpt lat="49.43142" lon="5.78942">
        <ele>342.60000610352</ele>
        <time>2023-06-18T08:06:34Z</time>
      </trkpt>
      <trkpt lat="49.43144" lon="5.78947">
        <ele>342.79998779297</ele>
        <time>2023-06-18T08:06:35Z</time>
      </trkpt>
      <trkpt lat="49.43145" lon="5.7895">
        <ele>342.79998779297</ele>
        <time>2023-06-18T08:06:36Z</time>
      </trkpt>
      <trkpt lat="49.43147" lon="5.78958">
        <ele>343.20001220703</ele>
        <time>2023-06-18T08:06:38Z</time>
      </trkpt>
      <trkpt lat="49.43152" lon="5.78966">
        <ele>343.39999389648</ele>
        <time>2023-06-18T08:06:40Z</time>
      </trkpt>
      <trkpt lat="49.43155" lon="5.78975">
        <ele>343.60000610352</ele>
        <time>2023-06-18T08:06:42Z</time>
      </trkpt>
      <trkpt lat="49.43156" lon="5.7898">
        <ele>343.60000610352</ele>
        <time>2023-06-18T08:06:43Z</time>
      </trkpt>
      <trkpt lat="49.43156" lon="5.78985">
        <ele>343.79998779297</ele>
        <time>2023-06-18T08:06:44Z</time>
      </trkpt>
      <trkpt lat="49.43159" lon="5.78994">
        <ele>343.79998779297</ele>
        <time>2023-06-18T08:06:46Z</time>
      </trkpt>
      <trkpt lat="49.43162" lon="5.79004">
        <ele>344</ele>
        <time>2023-06-18T08:06:48Z</time>
      </trkpt>
      <trkpt lat="49.43162" lon="5.79008">
        <ele>344.39999389648</ele>
        <time>2023-06-18T08:06:49Z</time>
      </trkpt>
      <trkpt lat="49.43163" lon="5.79012">
        <ele>344.39999389648</ele>
        <time>2023-06-18T08:06:50Z</time>
      </trkpt>
      <trkpt lat="49.43166" lon="5.79023">
        <ele>344.60000610352</ele>
        <time>2023-06-18T08:06:52Z</time>
      </trkpt>
      <trkpt lat="49.43169" lon="5.79032">
        <ele>344.60000610352</ele>
        <time>2023-06-18T08:06:54Z</time>
      </trkpt>
      <trkpt lat="49.4317" lon="5.79042">
        <ele>344.60000610352</ele>
        <time>2023-06-18T08:06:56Z</time>
      </trkpt>
      <trkpt lat="49.43169" lon="5.79046">
        <ele>344.79998779297</ele>
        <time>2023-06-18T08:06:57Z</time>
      </trkpt>
      <trkpt lat="49.43168" lon="5.7905">
        <ele>345</ele>
        <time>2023-06-18T08:06:58Z</time>
      </trkpt>
      <trkpt lat="49.43166" lon="5.79054">
        <ele>345</ele>
        <time>2023-06-18T08:06:59Z</time>
      </trkpt>
      <trkpt lat="49.43163" lon="5.79056">
        <ele>345.39999389648</ele>
        <time>2023-06-18T08:07:00Z</time>
      </trkpt>
      <trkpt lat="49.43158" lon="5.79059">
        <ele>345.39999389648</ele>
        <time>2023-06-18T08:07:02Z</time>
      </trkpt>
      <trkpt lat="49.43154" lon="5.79061">
        <ele>345.39999389648</ele>
        <time>2023-06-18T08:07:04Z</time>
      </trkpt>
      <trkpt lat="49.43147" lon="5.79062">
        <ele>345.39999389648</ele>
        <time>2023-06-18T08:07:06Z</time>
      </trkpt>
      <trkpt lat="49.4314" lon="5.79066">
        <ele>345.39999389648</ele>
        <time>2023-06-18T08:07:08Z</time>
      </trkpt>
      <trkpt lat="49.43137" lon="5.79068">
        <ele>345.39999389648</ele>
        <time>2023-06-18T08:07:09Z</time>
      </trkpt>
      <trkpt lat="49.43134" lon="5.79071">
        <ele>345.39999389648</ele>
        <time>2023-06-18T08:07:10Z</time>
      </trkpt>
      <trkpt lat="49.43127" lon="5.79077">
        <ele>345.20001220703</ele>
        <time>2023-06-18T08:07:12Z</time>
      </trkpt>
      <trkpt lat="49.4312" lon="5.79082">
        <ele>344.60000610352</ele>
        <time>2023-06-18T08:07:14Z</time>
      </trkpt>
      <trkpt lat="49.43115" lon="5.79086">
        <ele>344</ele>
        <time>2023-06-18T08:07:15Z</time>
      </trkpt>
      <trkpt lat="49.43111" lon="5.7909">
        <ele>343.79998779297</ele>
        <time>2023-06-18T08:07:16Z</time>
      </trkpt>
      <trkpt lat="49.43101" lon="5.79097">
        <ele>342.79998779297</ele>
        <time>2023-06-18T08:07:18Z</time>
      </trkpt>
      <trkpt lat="49.43095" lon="5.791">
        <ele>342.60000610352</ele>
        <time>2023-06-18T08:07:19Z</time>
      </trkpt>
      <trkpt lat="49.4309" lon="5.79103">
        <ele>342.39999389648</ele>
        <time>2023-06-18T08:07:20Z</time>
      </trkpt>
      <trkpt lat="49.4308" lon="5.79109">
        <ele>341.79998779297</ele>
        <time>2023-06-18T08:07:22Z</time>
      </trkpt>
      <trkpt lat="49.43075" lon="5.79112">
        <ele>341.39999389648</ele>
        <time>2023-06-18T08:07:23Z</time>
      </trkpt>
      <trkpt lat="49.4307" lon="5.79115">
        <ele>341</ele>
        <time>2023-06-18T08:07:24Z</time>
      </trkpt>
      <trkpt lat="49.43062" lon="5.7912">
        <ele>340.20001220703</ele>
        <time>2023-06-18T08:07:26Z</time>
      </trkpt>
      <trkpt lat="49.43055" lon="5.79132">
        <ele>338.79998779297</ele>
        <time>2023-06-18T08:07:28Z</time>
      </trkpt>
      <trkpt lat="49.43054" lon="5.79138">
        <ele>338.20001220703</ele>
        <time>2023-06-18T08:07:29Z</time>
      </trkpt>
      <trkpt lat="49.43052" lon="5.79146">
        <ele>337.60000610352</ele>
        <time>2023-06-18T08:07:30Z</time>
      </trkpt>
      <trkpt lat="49.4305" lon="5.79151">
        <ele>337.39999389648</ele>
        <time>2023-06-18T08:07:31Z</time>
      </trkpt>
      <trkpt lat="49.43049" lon="5.79158">
        <ele>336.79998779297</ele>
        <time>2023-06-18T08:07:32Z</time>
      </trkpt>
      <trkpt lat="49.43049" lon="5.79165">
        <ele>336.20001220703</ele>
        <time>2023-06-18T08:07:33Z</time>
      </trkpt>
      <trkpt lat="49.43048" lon="5.79175">
        <ele>336</ele>
        <time>2023-06-18T08:07:34Z</time>
      </trkpt>
      <trkpt lat="49.43046" lon="5.79194">
        <ele>335.60000610352</ele>
        <time>2023-06-18T08:07:36Z</time>
      </trkpt>
      <trkpt lat="49.43047" lon="5.79208">
        <ele>335.60000610352</ele>
        <time>2023-06-18T08:07:38Z</time>
      </trkpt>
      <trkpt lat="49.43046" lon="5.79215">
        <ele>335.60000610352</ele>
        <time>2023-06-18T08:07:39Z</time>
      </trkpt>
      <trkpt lat="49.43047" lon="5.79223">
        <ele>335.39999389648</ele>
        <time>2023-06-18T08:07:40Z</time>
      </trkpt>
      <trkpt lat="49.43047" lon="5.79238">
        <ele>335.39999389648</ele>
        <time>2023-06-18T08:07:42Z</time>
      </trkpt>
      <trkpt lat="49.43046" lon="5.79252">
        <ele>335.60000610352</ele>
        <time>2023-06-18T08:07:44Z</time>
      </trkpt>
      <trkpt lat="49.43047" lon="5.79258">
        <ele>335.60000610352</ele>
        <time>2023-06-18T08:07:45Z</time>
      </trkpt>
      <trkpt lat="49.43047" lon="5.79264">
        <ele>335.60000610352</ele>
        <time>2023-06-18T08:07:46Z</time>
      </trkpt>
      <trkpt lat="49.4305" lon="5.79279">
        <ele>336</ele>
        <time>2023-06-18T08:07:48Z</time>
      </trkpt>
      <trkpt lat="49.43051" lon="5.79292">
        <ele>336</ele>
        <time>2023-06-18T08:07:50Z</time>
      </trkpt>
      <trkpt lat="49.43052" lon="5.793">
        <ele>336</ele>
        <time>2023-06-18T08:07:51Z</time>
      </trkpt>
      <trkpt lat="49.43053" lon="5.79307">
        <ele>336</ele>
        <time>2023-06-18T08:07:52Z</time>
      </trkpt>
      <trkpt lat="49.43054" lon="5.79322">
        <ele>336.20001220703</ele>
        <time>2023-06-18T08:07:54Z</time>
      </trkpt>
      <trkpt lat="49.43057" lon="5.79336">
        <ele>336.20001220703</ele>
        <time>2023-06-18T08:07:56Z</time>
      </trkpt>
      <trkpt lat="49.43058" lon="5.79344">
        <ele>336.20001220703</ele>
        <time>2023-06-18T08:07:57Z</time>
      </trkpt>
      <trkpt lat="49.4306" lon="5.7935">
        <ele>336.20001220703</ele>
        <time>2023-06-18T08:07:58Z</time>
      </trkpt>
      <trkpt lat="49.43063" lon="5.79363">
        <ele>336.20001220703</ele>
        <time>2023-06-18T08:08:00Z</time>
      </trkpt>
      <trkpt lat="49.43065" lon="5.79374">
        <ele>336.20001220703</ele>
        <time>2023-06-18T08:08:02Z</time>
      </trkpt>
      <trkpt lat="49.43066" lon="5.79385">
        <ele>336.39999389648</ele>
        <time>2023-06-18T08:08:04Z</time>
      </trkpt>
      <trkpt lat="49.43065" lon="5.79399">
        <ele>336.39999389648</ele>
        <time>2023-06-18T08:08:06Z</time>
      </trkpt>
      <trkpt lat="49.43066" lon="5.79406">
        <ele>336.60000610352</ele>
        <time>2023-06-18T08:08:07Z</time>
      </trkpt>
      <trkpt lat="49.43066" lon="5.79412">
        <ele>337</ele>
        <time>2023-06-18T08:08:08Z</time>
      </trkpt>
      <trkpt lat="49.43066" lon="5.79419">
        <ele>337</ele>
        <time>2023-06-18T08:08:09Z</time>
      </trkpt>
      <trkpt lat="49.43067" lon="5.79427">
        <ele>337.20001220703</ele>
        <time>2023-06-18T08:08:10Z</time>
      </trkpt>
      <trkpt lat="49.43069" lon="5.79442">
        <ele>337.20001220703</ele>
        <time>2023-06-18T08:08:12Z</time>
      </trkpt>
      <trkpt lat="49.43071" lon="5.79456">
        <ele>337.20001220703</ele>
        <time>2023-06-18T08:08:14Z</time>
      </trkpt>
      <trkpt lat="49.43073" lon="5.79476">
        <ele>337.20001220703</ele>
        <time>2023-06-18T08:08:16Z</time>
      </trkpt>
      <trkpt lat="49.43075" lon="5.79496">
        <ele>337.20001220703</ele>
        <time>2023-06-18T08:08:18Z</time>
      </trkpt>
      <trkpt lat="49.43077" lon="5.79512">
        <ele>337</ele>
        <time>2023-06-18T08:08:20Z</time>
      </trkpt>
      <trkpt lat="49.43079" lon="5.79525">
        <ele>336.79998779297</ele>
        <time>2023-06-18T08:08:22Z</time>
      </trkpt>
      <trkpt lat="49.4308" lon="5.79533">
        <ele>336.60000610352</ele>
        <time>2023-06-18T08:08:23Z</time>
      </trkpt>
      <trkpt lat="49.43079" lon="5.79541">
        <ele>336.60000610352</ele>
        <time>2023-06-18T08:08:24Z</time>
      </trkpt>
      <trkpt lat="49.43078" lon="5.79557">
        <ele>336.39999389648</ele>
        <time>2023-06-18T08:08:26Z</time>
      </trkpt>
      <trkpt lat="49.43079" lon="5.79563">
        <ele>336</ele>
        <time>2023-06-18T08:08:27Z</time>
      </trkpt>
      <trkpt lat="49.4308" lon="5.79569">
        <ele>336</ele>
        <time>2023-06-18T08:08:28Z</time>
      </trkpt>
      <trkpt lat="49.43084" lon="5.7958">
        <ele>335.79998779297</ele>
        <time>2023-06-18T08:08:30Z</time>
      </trkpt>
      <trkpt lat="49.43088" lon="5.79591">
        <ele>335.79998779297</ele>
        <time>2023-06-18T08:08:32Z</time>
      </trkpt>
      <trkpt lat="49.4309" lon="5.79594">
        <ele>335.79998779297</ele>
        <time>2023-06-18T08:08:33Z</time>
      </trkpt>
      <trkpt lat="49.43091" lon="5.79598">
        <ele>335.79998779297</ele>
        <time>2023-06-18T08:08:34Z</time>
      </trkpt>
      <trkpt lat="49.43092" lon="5.79604">
        <ele>335.79998779297</ele>
        <time>2023-06-18T08:08:36Z</time>
      </trkpt>
      <trkpt lat="49.43094" lon="5.79611">
        <ele>336</ele>
        <time>2023-06-18T08:08:38Z</time>
      </trkpt>
      <trkpt lat="49.43096" lon="5.79616">
        <ele>336</ele>
        <time>2023-06-18T08:08:39Z</time>
      </trkpt>
      <trkpt lat="49.43097" lon="5.7962">
        <ele>336.20001220703</ele>
        <time>2023-06-18T08:08:40Z</time>
      </trkpt>
      <trkpt lat="49.43099" lon="5.7963">
        <ele>336.79998779297</ele>
        <time>2023-06-18T08:08:42Z</time>
      </trkpt>
      <trkpt lat="49.431" lon="5.79641">
        <ele>337</ele>
        <time>2023-06-18T08:08:44Z</time>
      </trkpt>
      <trkpt lat="49.43101" lon="5.79645">
        <ele>337.20001220703</ele>
        <time>2023-06-18T08:08:45Z</time>
      </trkpt>
      <trkpt lat="49.43103" lon="5.79649">
        <ele>337.39999389648</ele>
        <time>2023-06-18T08:08:46Z</time>
      </trkpt>
      <trkpt lat="49.43107" lon="5.79658">
        <ele>337.79998779297</ele>
        <time>2023-06-18T08:08:48Z</time>
      </trkpt>
      <trkpt lat="49.4311" lon="5.79667">
        <ele>338</ele>
        <time>2023-06-18T08:08:50Z</time>
      </trkpt>
      <trkpt lat="49.43112" lon="5.79671">
        <ele>338.20001220703</ele>
        <time>2023-06-18T08:08:51Z</time>
      </trkpt>
      <trkpt lat="49.43113" lon="5.79673">
        <ele>338.20001220703</ele>
        <time>2023-06-18T08:08:52Z</time>
      </trkpt>
      <trkpt lat="49.43115" lon="5.7968">
        <ele>338.60000610352</ele>
        <time>2023-06-18T08:08:54Z</time>
      </trkpt>
      <trkpt lat="49.43117" lon="5.79686">
        <ele>339</ele>
        <time>2023-06-18T08:08:56Z</time>
      </trkpt>
      <trkpt lat="49.4312" lon="5.79694">
        <ele>339</ele>
        <time>2023-06-18T08:08:58Z</time>
      </trkpt>
      <trkpt lat="49.43124" lon="5.79707">
        <ele>339.20001220703</ele>
        <time>2023-06-18T08:09:00Z</time>
      </trkpt>
      <trkpt lat="49.43125" lon="5.79714">
        <ele>339.20001220703</ele>
        <time>2023-06-18T08:09:01Z</time>
      </trkpt>
      <trkpt lat="49.43125" lon="5.79721">
        <ele>339.20001220703</ele>
        <time>2023-06-18T08:09:02Z</time>
      </trkpt>
      <trkpt lat="49.43126" lon="5.79734">
        <ele>339.20001220703</ele>
        <time>2023-06-18T08:09:04Z</time>
      </trkpt>
      <trkpt lat="49.43126" lon="5.7974">
        <ele>339.39999389648</ele>
        <time>2023-06-18T08:09:05Z</time>
      </trkpt>
      <trkpt lat="49.43127" lon="5.79745">
        <ele>339.39999389648</ele>
        <time>2023-06-18T08:09:06Z</time>
      </trkpt>
      <trkpt lat="49.43128" lon="5.79751">
        <ele>339.39999389648</ele>
        <time>2023-06-18T08:09:07Z</time>
      </trkpt>
      <trkpt lat="49.43129" lon="5.79756">
        <ele>339.39999389648</ele>
        <time>2023-06-18T08:09:08Z</time>
      </trkpt>
      <trkpt lat="49.43131" lon="5.79767">
        <ele>339.60000610352</ele>
        <time>2023-06-18T08:09:10Z</time>
      </trkpt>
      <trkpt lat="49.43133" lon="5.79777">
        <ele>339.60000610352</ele>
        <time>2023-06-18T08:09:12Z</time>
      </trkpt>
      <trkpt lat="49.43135" lon="5.79787">
        <ele>340</ele>
        <time>2023-06-18T08:09:14Z</time>
      </trkpt>
      <trkpt lat="49.43137" lon="5.79796">
        <ele>340</ele>
        <time>2023-06-18T08:09:16Z</time>
      </trkpt>
      <trkpt lat="49.43139" lon="5.79805">
        <ele>340.20001220703</ele>
        <time>2023-06-18T08:09:18Z</time>
      </trkpt>
      <trkpt lat="49.4314" lon="5.79815">
        <ele>340.39999389648</ele>
        <time>2023-06-18T08:09:20Z</time>
      </trkpt>
      <trkpt lat="49.43141" lon="5.7982">
        <ele>340.39999389648</ele>
        <time>2023-06-18T08:09:21Z</time>
      </trkpt>
      <trkpt lat="49.43141" lon="5.79825">
        <ele>340.60000610352</ele>
        <time>2023-06-18T08:09:22Z</time>
      </trkpt>
      <trkpt lat="49.43142" lon="5.79836">
        <ele>341</ele>
        <time>2023-06-18T08:09:24Z</time>
      </trkpt>
      <trkpt lat="49.43143" lon="5.79846">
        <ele>341.20001220703</ele>
        <time>2023-06-18T08:09:26Z</time>
      </trkpt>
      <trkpt lat="49.43145" lon="5.79857">
        <ele>341.20001220703</ele>
        <time>2023-06-18T08:09:28Z</time>
      </trkpt>
      <trkpt lat="49.43147" lon="5.79867">
        <ele>341.39999389648</ele>
        <time>2023-06-18T08:09:30Z</time>
      </trkpt>
      <trkpt lat="49.43149" lon="5.79877">
        <ele>341.39999389648</ele>
        <time>2023-06-18T08:09:32Z</time>
      </trkpt>
      <trkpt lat="49.43151" lon="5.79888">
        <ele>341.60000610352</ele>
        <time>2023-06-18T08:09:34Z</time>
      </trkpt>
      <trkpt lat="49.43154" lon="5.79898">
        <ele>341.60000610352</ele>
        <time>2023-06-18T08:09:36Z</time>
      </trkpt>
      <trkpt lat="49.43155" lon="5.79903">
        <ele>341.60000610352</ele>
        <time>2023-06-18T08:09:37Z</time>
      </trkpt>
      <trkpt lat="49.43156" lon="5.79907">
        <ele>341.60000610352</ele>
        <time>2023-06-18T08:09:38Z</time>
      </trkpt>
      <trkpt lat="49.43158" lon="5.79917">
        <ele>341.79998779297</ele>
        <time>2023-06-18T08:09:40Z</time>
      </trkpt>
      <trkpt lat="49.43159" lon="5.79926">
        <ele>341.79998779297</ele>
        <time>2023-06-18T08:09:42Z</time>
      </trkpt>
      <trkpt lat="49.4316" lon="5.7993">
        <ele>342</ele>
        <time>2023-06-18T08:09:43Z</time>
      </trkpt>
      <trkpt lat="49.4316" lon="5.79935">
        <ele>342</ele>
        <time>2023-06-18T08:09:44Z</time>
      </trkpt>
      <trkpt lat="49.43162" lon="5.79944">
        <ele>342</ele>
        <time>2023-06-18T08:09:46Z</time>
      </trkpt>
      <trkpt lat="49.43163" lon="5.79951">
        <ele>342.39999389648</ele>
        <time>2023-06-18T08:09:48Z</time>
      </trkpt>
      <trkpt lat="49.43164" lon="5.79954">
        <ele>342.39999389648</ele>
        <time>2023-06-18T08:09:49Z</time>
      </trkpt>
      <trkpt lat="49.43164" lon="5.79958">
        <ele>342.39999389648</ele>
        <time>2023-06-18T08:09:50Z</time>
      </trkpt>
      <trkpt lat="49.43166" lon="5.79966">
        <ele>342.60000610352</ele>
        <time>2023-06-18T08:09:52Z</time>
      </trkpt>
      <trkpt lat="49.43167" lon="5.79972">
        <ele>342.79998779297</ele>
        <time>2023-06-18T08:09:54Z</time>
      </trkpt>
      <trkpt lat="49.43167" lon="5.79976">
        <ele>342.79998779297</ele>
        <time>2023-06-18T08:09:55Z</time>
      </trkpt>
      <trkpt lat="49.43167" lon="5.7998">
        <ele>342.79998779297</ele>
        <time>2023-06-18T08:09:56Z</time>
      </trkpt>
      <trkpt lat="49.43168" lon="5.79988">
        <ele>342.79998779297</ele>
        <time>2023-06-18T08:09:58Z</time>
      </trkpt>
      <trkpt lat="49.43169" lon="5.79998">
        <ele>343</ele>
        <time>2023-06-18T08:10:00Z</time>
      </trkpt>
      <trkpt lat="49.4317" lon="5.80003">
        <ele>343</ele>
        <time>2023-06-18T08:10:01Z</time>
      </trkpt>
      <trkpt lat="49.4317" lon="5.80008">
        <ele>343.20001220703</ele>
        <time>2023-06-18T08:10:02Z</time>
      </trkpt>
      <trkpt lat="49.43171" lon="5.80017">
        <ele>343.20001220703</ele>
        <time>2023-06-18T08:10:04Z</time>
      </trkpt>
      <trkpt lat="49.43173" lon="5.80027">
        <ele>343.39999389648</ele>
        <time>2023-06-18T08:10:06Z</time>
      </trkpt>
      <trkpt lat="49.43173" lon="5.80033">
        <ele>343.39999389648</ele>
        <time>2023-06-18T08:10:07Z</time>
      </trkpt>
      <trkpt lat="49.43175" lon="5.8004">
        <ele>343.39999389648</ele>
        <time>2023-06-18T08:10:08Z</time>
      </trkpt>
      <trkpt lat="49.43176" lon="5.80051">
        <ele>343.60000610352</ele>
        <time>2023-06-18T08:10:10Z</time>
      </trkpt>
      <trkpt lat="49.43178" lon="5.80061">
        <ele>343.79998779297</ele>
        <time>2023-06-18T08:10:12Z</time>
      </trkpt>
      <trkpt lat="49.4318" lon="5.80068">
        <ele>343.79998779297</ele>
        <time>2023-06-18T08:10:14Z</time>
      </trkpt>
      <trkpt lat="49.43183" lon="5.80075">
        <ele>344</ele>
        <time>2023-06-18T08:10:16Z</time>
      </trkpt>
      <trkpt lat="49.43184" lon="5.80078">
        <ele>344</ele>
        <time>2023-06-18T08:10:17Z</time>
      </trkpt>
      <trkpt lat="49.43186" lon="5.80082">
        <ele>344.20001220703</ele>
        <time>2023-06-18T08:10:18Z</time>
      </trkpt>
      <trkpt lat="49.43189" lon="5.80088">
        <ele>344.39999389648</ele>
        <time>2023-06-18T08:10:20Z</time>
      </trkpt>
      <trkpt lat="49.43193" lon="5.80094">
        <ele>344.60000610352</ele>
        <time>2023-06-18T08:10:22Z</time>
      </trkpt>
      <trkpt lat="49.43197" lon="5.80102">
        <ele>344.79998779297</ele>
        <time>2023-06-18T08:10:24Z</time>
      </trkpt>
      <trkpt lat="49.43201" lon="5.80109">
        <ele>345</ele>
        <time>2023-06-18T08:10:26Z</time>
      </trkpt>
      <trkpt lat="49.43205" lon="5.80116">
        <ele>345.39999389648</ele>
        <time>2023-06-18T08:10:28Z</time>
      </trkpt>
      <trkpt lat="49.43209" lon="5.80124">
        <ele>345.79998779297</ele>
        <time>2023-06-18T08:10:30Z</time>
      </trkpt>
      <trkpt lat="49.43213" lon="5.80132">
        <ele>346.20001220703</ele>
        <time>2023-06-18T08:10:32Z</time>
      </trkpt>
      <trkpt lat="49.43216" lon="5.80139">
        <ele>346.60000610352</ele>
        <time>2023-06-18T08:10:34Z</time>
      </trkpt>
      <trkpt lat="49.43218" lon="5.80142">
        <ele>346.79998779297</ele>
        <time>2023-06-18T08:10:35Z</time>
      </trkpt>
      <trkpt lat="49.4322" lon="5.80145">
        <ele>347</ele>
        <time>2023-06-18T08:10:36Z</time>
      </trkpt>
      <trkpt lat="49.43225" lon="5.80149">
        <ele>347.20001220703</ele>
        <time>2023-06-18T08:10:38Z</time>
      </trkpt>
      <trkpt lat="49.4323" lon="5.80154">
        <ele>347.39999389648</ele>
        <time>2023-06-18T08:10:40Z</time>
      </trkpt>
      <trkpt lat="49.43231" lon="5.80156">
        <ele>347.39999389648</ele>
        <time>2023-06-18T08:10:41Z</time>
      </trkpt>
      <trkpt lat="49.43233" lon="5.80158">
        <ele>347.60000610352</ele>
        <time>2023-06-18T08:10:42Z</time>
      </trkpt>
      <trkpt lat="49.43237" lon="5.80162">
        <ele>347.79998779297</ele>
        <time>2023-06-18T08:10:44Z</time>
      </trkpt>
      <trkpt lat="49.43242" lon="5.80167">
        <ele>348</ele>
        <time>2023-06-18T08:10:46Z</time>
      </trkpt>
      <trkpt lat="49.43245" lon="5.8017">
        <ele>348.20001220703</ele>
        <time>2023-06-18T08:10:47Z</time>
      </trkpt>
      <trkpt lat="49.43248" lon="5.80176">
        <ele>348.79998779297</ele>
        <time>2023-06-18T08:10:49Z</time>
      </trkpt>
      <trkpt lat="49.43252" lon="5.80182">
        <ele>349</ele>
        <time>2023-06-18T08:10:51Z</time>
      </trkpt>
      <trkpt lat="49.43254" lon="5.80185">
        <ele>349</ele>
        <time>2023-06-18T08:10:52Z</time>
      </trkpt>
      <trkpt lat="49.43256" lon="5.80187">
        <ele>349.20001220703</ele>
        <time>2023-06-18T08:10:53Z</time>
      </trkpt>
      <trkpt lat="49.43262" lon="5.80192">
        <ele>349.39999389648</ele>
        <time>2023-06-18T08:10:55Z</time>
      </trkpt>
      <trkpt lat="49.43265" lon="5.80194">
        <ele>349.39999389648</ele>
        <time>2023-06-18T08:10:56Z</time>
      </trkpt>
      <trkpt lat="49.43267" lon="5.80198">
        <ele>349.39999389648</ele>
        <time>2023-06-18T08:10:57Z</time>
      </trkpt>
      <trkpt lat="49.43271" lon="5.80203">
        <ele>349.60000610352</ele>
        <time>2023-06-18T08:10:59Z</time>
      </trkpt>
      <trkpt lat="49.43275" lon="5.80212">
        <ele>350</ele>
        <time>2023-06-18T08:11:02Z</time>
      </trkpt>
      <trkpt lat="49.43277" lon="5.80215">
        <ele>350</ele>
        <time>2023-06-18T08:11:03Z</time>
      </trkpt>
      <trkpt lat="49.43279" lon="5.80218">
        <ele>350.20001220703</ele>
        <time>2023-06-18T08:11:04Z</time>
      </trkpt>
      <trkpt lat="49.43282" lon="5.80222">
        <ele>350.20001220703</ele>
        <time>2023-06-18T08:11:06Z</time>
      </trkpt>
      <trkpt lat="49.43286" lon="5.80225">
        <ele>350.39999389648</ele>
        <time>2023-06-18T08:11:08Z</time>
      </trkpt>
      <trkpt lat="49.4329" lon="5.80228">
        <ele>350.60000610352</ele>
        <time>2023-06-18T08:11:10Z</time>
      </trkpt>
      <trkpt lat="49.43295" lon="5.80232">
        <ele>350.79998779297</ele>
        <time>2023-06-18T08:11:12Z</time>
      </trkpt>
      <trkpt lat="49.43299" lon="5.80236">
        <ele>350.79998779297</ele>
        <time>2023-06-18T08:11:14Z</time>
      </trkpt>
      <trkpt lat="49.43304" lon="5.8024">
        <ele>350.79998779297</ele>
        <time>2023-06-18T08:11:16Z</time>
      </trkpt>
      <trkpt lat="49.43309" lon="5.80244">
        <ele>351</ele>
        <time>2023-06-18T08:11:18Z</time>
      </trkpt>
      <trkpt lat="49.43314" lon="5.80248">
        <ele>351.20001220703</ele>
        <time>2023-06-18T08:11:20Z</time>
      </trkpt>
      <trkpt lat="49.43319" lon="5.80253">
        <ele>351.20001220703</ele>
        <time>2023-06-18T08:11:22Z</time>
      </trkpt>
      <trkpt lat="49.43321" lon="5.80256">
        <ele>351.60000610352</ele>
        <time>2023-06-18T08:11:23Z</time>
      </trkpt>
      <trkpt lat="49.43325" lon="5.80262">
        <ele>352</ele>
        <time>2023-06-18T08:11:25Z</time>
      </trkpt>
      <trkpt lat="49.43327" lon="5.80269">
        <ele>352</ele>
        <time>2023-06-18T08:11:27Z</time>
      </trkpt>
      <trkpt lat="49.43328" lon="5.80273">
        <ele>352.20001220703</ele>
        <time>2023-06-18T08:11:28Z</time>
      </trkpt>
      <trkpt lat="49.4333" lon="5.80277">
        <ele>352.20001220703</ele>
        <time>2023-06-18T08:11:29Z</time>
      </trkpt>
      <trkpt lat="49.43332" lon="5.80285">
        <ele>352.20001220703</ele>
        <time>2023-06-18T08:11:31Z</time>
      </trkpt>
      <trkpt lat="49.43336" lon="5.80292">
        <ele>352.20001220703</ele>
        <time>2023-06-18T08:11:33Z</time>
      </trkpt>
      <trkpt lat="49.43338" lon="5.80296">
        <ele>352.20001220703</ele>
        <time>2023-06-18T08:11:34Z</time>
      </trkpt>
      <trkpt lat="49.43339" lon="5.80298">
        <ele>352.20001220703</ele>
        <time>2023-06-18T08:11:35Z</time>
      </trkpt>
      <trkpt lat="49.43343" lon="5.80305">
        <ele>352.20001220703</ele>
        <time>2023-06-18T08:11:37Z</time>
      </trkpt>
      <trkpt lat="49.43347" lon="5.80313">
        <ele>352.20001220703</ele>
        <time>2023-06-18T08:11:39Z</time>
      </trkpt>
      <trkpt lat="49.43349" lon="5.80316">
        <ele>352.20001220703</ele>
        <time>2023-06-18T08:11:40Z</time>
      </trkpt>
      <trkpt lat="49.43351" lon="5.8032">
        <ele>352.20001220703</ele>
        <time>2023-06-18T08:11:41Z</time>
      </trkpt>
      <trkpt lat="49.43353" lon="5.80328">
        <ele>352.20001220703</ele>
        <time>2023-06-18T08:11:43Z</time>
      </trkpt>
      <trkpt lat="49.43356" lon="5.80336">
        <ele>352.20001220703</ele>
        <time>2023-06-18T08:11:45Z</time>
      </trkpt>
      <trkpt lat="49.43358" lon="5.80347">
        <ele>352.20001220703</ele>
        <time>2023-06-18T08:11:47Z</time>
      </trkpt>
      <trkpt lat="49.4336" lon="5.80358">
        <ele>352.20001220703</ele>
        <time>2023-06-18T08:11:49Z</time>
      </trkpt>
      <trkpt lat="49.43363" lon="5.80367">
        <ele>352.39999389648</ele>
        <time>2023-06-18T08:11:51Z</time>
      </trkpt>
      <trkpt lat="49.43367" lon="5.80374">
        <ele>352.39999389648</ele>
        <time>2023-06-18T08:11:53Z</time>
      </trkpt>
      <trkpt lat="49.43371" lon="5.80381">
        <ele>352.39999389648</ele>
        <time>2023-06-18T08:11:55Z</time>
      </trkpt>
      <trkpt lat="49.43373" lon="5.80388">
        <ele>352.39999389648</ele>
        <time>2023-06-18T08:11:57Z</time>
      </trkpt>
      <trkpt lat="49.43376" lon="5.80397">
        <ele>352.39999389648</ele>
        <time>2023-06-18T08:11:59Z</time>
      </trkpt>
      <trkpt lat="49.43379" lon="5.80407">
        <ele>352.39999389648</ele>
        <time>2023-06-18T08:12:01Z</time>
      </trkpt>
      <trkpt lat="49.4338" lon="5.80412">
        <ele>352.39999389648</ele>
        <time>2023-06-18T08:12:02Z</time>
      </trkpt>
      <trkpt lat="49.4338" lon="5.80415">
        <ele>352.60000610352</ele>
        <time>2023-06-18T08:12:03Z</time>
      </trkpt>
      <trkpt lat="49.43384" lon="5.80426">
        <ele>352.60000610352</ele>
        <time>2023-06-18T08:12:06Z</time>
      </trkpt>
      <trkpt lat="49.43389" lon="5.80433">
        <ele>352.60000610352</ele>
        <time>2023-06-18T08:12:08Z</time>
      </trkpt>
      <trkpt lat="49.43395" lon="5.80447">
        <ele>352.79998779297</ele>
        <time>2023-06-18T08:12:11Z</time>
      </trkpt>
      <trkpt lat="49.43397" lon="5.80451">
        <ele>352.79998779297</ele>
        <time>2023-06-18T08:12:12Z</time>
      </trkpt>
      <trkpt lat="49.43399" lon="5.80455">
        <ele>353</ele>
        <time>2023-06-18T08:12:13Z</time>
      </trkpt>
      <trkpt lat="49.43403" lon="5.80462">
        <ele>353</ele>
        <time>2023-06-18T08:12:15Z</time>
      </trkpt>
      <trkpt lat="49.43409" lon="5.80474">
        <ele>353.20001220703</ele>
        <time>2023-06-18T08:12:17Z</time>
      </trkpt>
      <trkpt lat="49.43416" lon="5.80483">
        <ele>353.20001220703</ele>
        <time>2023-06-18T08:12:19Z</time>
      </trkpt>
      <trkpt lat="49.4342" lon="5.80487">
        <ele>353.20001220703</ele>
        <time>2023-06-18T08:12:20Z</time>
      </trkpt>
      <trkpt lat="49.43422" lon="5.80491">
        <ele>353.20001220703</ele>
        <time>2023-06-18T08:12:21Z</time>
      </trkpt>
      <trkpt lat="49.43428" lon="5.80499">
        <ele>353.39999389648</ele>
        <time>2023-06-18T08:12:23Z</time>
      </trkpt>
      <trkpt lat="49.43434" lon="5.80507">
        <ele>353.60000610352</ele>
        <time>2023-06-18T08:12:25Z</time>
      </trkpt>
      <trkpt lat="49.4344" lon="5.80515">
        <ele>353.79998779297</ele>
        <time>2023-06-18T08:12:27Z</time>
      </trkpt>
      <trkpt lat="49.43444" lon="5.80523">
        <ele>354</ele>
        <time>2023-06-18T08:12:29Z</time>
      </trkpt>
      <trkpt lat="49.43449" lon="5.80531">
        <ele>354</ele>
        <time>2023-06-18T08:12:31Z</time>
      </trkpt>
      <trkpt lat="49.43454" lon="5.80541">
        <ele>354</ele>
        <time>2023-06-18T08:12:33Z</time>
      </trkpt>
      <trkpt lat="49.43459" lon="5.8055">
        <ele>354.20001220703</ele>
        <time>2023-06-18T08:12:35Z</time>
      </trkpt>
      <trkpt lat="49.43462" lon="5.80559">
        <ele>354.20001220703</ele>
        <time>2023-06-18T08:12:37Z</time>
      </trkpt>
      <trkpt lat="49.43467" lon="5.80566">
        <ele>354.20001220703</ele>
        <time>2023-06-18T08:12:39Z</time>
      </trkpt>
      <trkpt lat="49.43469" lon="5.80571">
        <ele>354.20001220703</ele>
        <time>2023-06-18T08:12:40Z</time>
      </trkpt>
      <trkpt lat="49.4347" lon="5.80574">
        <ele>354.20001220703</ele>
        <time>2023-06-18T08:12:41Z</time>
      </trkpt>
      <trkpt lat="49.43473" lon="5.80579">
        <ele>354.20001220703</ele>
        <time>2023-06-18T08:12:43Z</time>
      </trkpt>
      <trkpt lat="49.43472" lon="5.80581">
        <ele>354.39999389648</ele>
        <time>2023-06-18T08:12:45Z</time>
      </trkpt>
      <trkpt lat="49.43471" lon="5.80584">
        <ele>354.39999389648</ele>
        <time>2023-06-18T08:12:47Z</time>
      </trkpt>
      <trkpt lat="49.43471" lon="5.80586">
        <ele>354.60000610352</ele>
        <time>2023-06-18T08:12:48Z</time>
      </trkpt>
      <trkpt lat="49.4347" lon="5.80587">
        <ele>354.79998779297</ele>
        <time>2023-06-18T08:12:49Z</time>
      </trkpt>
      <trkpt lat="49.43468" lon="5.80589">
        <ele>354.79998779297</ele>
        <time>2023-06-18T08:12:51Z</time>
      </trkpt>
      <trkpt lat="49.43465" lon="5.80593">
        <ele>354.79998779297</ele>
        <time>2023-06-18T08:12:53Z</time>
      </trkpt>
      <trkpt lat="49.43462" lon="5.80597">
        <ele>354.79998779297</ele>
        <time>2023-06-18T08:12:55Z</time>
      </trkpt>
      <trkpt lat="49.43461" lon="5.80598">
        <ele>354.79998779297</ele>
        <time>2023-06-18T08:12:56Z</time>
      </trkpt>
      <trkpt lat="49.4346" lon="5.806">
        <ele>354.79998779297</ele>
        <time>2023-06-18T08:12:57Z</time>
      </trkpt>
      <trkpt lat="49.43458" lon="5.80603">
        <ele>354.79998779297</ele>
        <time>2023-06-18T08:12:59Z</time>
      </trkpt>
      <trkpt lat="49.43457" lon="5.80605">
        <ele>354.60000610352</ele>
        <time>2023-06-18T08:13:01Z</time>
      </trkpt>
      <trkpt lat="49.43455" lon="5.80608">
        <ele>354.39999389648</ele>
        <time>2023-06-18T08:13:03Z</time>
      </trkpt>
      <trkpt lat="49.43451" lon="5.80612">
        <ele>354.20001220703</ele>
        <time>2023-06-18T08:13:05Z</time>
      </trkpt>
      <trkpt lat="49.43447" lon="5.80616">
        <ele>354</ele>
        <time>2023-06-18T08:13:07Z</time>
      </trkpt>
      <trkpt lat="49.43444" lon="5.80619">
        <ele>354</ele>
        <time>2023-06-18T08:13:09Z</time>
      </trkpt>
      <trkpt lat="49.43439" lon="5.80624">
        <ele>353.60000610352</ele>
        <time>2023-06-18T08:13:11Z</time>
      </trkpt>
      <trkpt lat="49.43438" lon="5.80626">
        <ele>353.60000610352</ele>
        <time>2023-06-18T08:13:12Z</time>
      </trkpt>
      <trkpt lat="49.43436" lon="5.80627">
        <ele>353.20001220703</ele>
        <time>2023-06-18T08:13:13Z</time>
      </trkpt>
      <trkpt lat="49.43432" lon="5.80631">
        <ele>353</ele>
        <time>2023-06-18T08:13:15Z</time>
      </trkpt>
      <trkpt lat="49.43427" lon="5.80636">
        <ele>352.79998779297</ele>
        <time>2023-06-18T08:13:17Z</time>
      </trkpt>
      <trkpt lat="49.43424" lon="5.80638">
        <ele>352.60000610352</ele>
        <time>2023-06-18T08:13:18Z</time>
      </trkpt>
      <trkpt lat="49.43421" lon="5.8064">
        <ele>352.39999389648</ele>
        <time>2023-06-18T08:13:19Z</time>
      </trkpt>
      <trkpt lat="49.43416" lon="5.80643">
        <ele>352.20001220703</ele>
        <time>2023-06-18T08:13:21Z</time>
      </trkpt>
      <trkpt lat="49.43411" lon="5.80646">
        <ele>351.79998779297</ele>
        <time>2023-06-18T08:13:23Z</time>
      </trkpt>
      <trkpt lat="49.43408" lon="5.80648">
        <ele>351.79998779297</ele>
        <time>2023-06-18T08:13:24Z</time>
      </trkpt>
      <trkpt lat="49.43404" lon="5.80651">
        <ele>351.60000610352</ele>
        <time>2023-06-18T08:13:25Z</time>
      </trkpt>
      <trkpt lat="49.43394" lon="5.80658">
        <ele>351.60000610352</ele>
        <time>2023-06-18T08:13:27Z</time>
      </trkpt>
      <trkpt lat="49.43385" lon="5.80663">
        <ele>351.39999389648</ele>
        <time>2023-06-18T08:13:29Z</time>
      </trkpt>
      <trkpt lat="49.43377" lon="5.80669">
        <ele>351</ele>
        <time>2023-06-18T08:13:31Z</time>
      </trkpt>
      <trkpt lat="49.43368" lon="5.80675">
        <ele>350</ele>
        <time>2023-06-18T08:13:33Z</time>
      </trkpt>
      <trkpt lat="49.43365" lon="5.80677">
        <ele>349.60000610352</ele>
        <time>2023-06-18T08:13:34Z</time>
      </trkpt>
      <trkpt lat="49.43361" lon="5.80681">
        <ele>349.20001220703</ele>
        <time>2023-06-18T08:13:35Z</time>
      </trkpt>
      <trkpt lat="49.43355" lon="5.80688">
        <ele>348.60000610352</ele>
        <time>2023-06-18T08:13:37Z</time>
      </trkpt>
      <trkpt lat="49.43353" lon="5.80689">
        <ele>348.20001220703</ele>
        <time>2023-06-18T08:13:38Z</time>
      </trkpt>
      <trkpt lat="49.4335" lon="5.80692">
        <ele>347.79998779297</ele>
        <time>2023-06-18T08:13:39Z</time>
      </trkpt>
      <trkpt lat="49.43346" lon="5.80696">
        <ele>347.20001220703</ele>
        <time>2023-06-18T08:13:41Z</time>
      </trkpt>
      <trkpt lat="49.43343" lon="5.80698">
        <ele>347</ele>
        <time>2023-06-18T08:13:42Z</time>
      </trkpt>
      <trkpt lat="49.4334" lon="5.807">
        <ele>346.79998779297</ele>
        <time>2023-06-18T08:13:43Z</time>
      </trkpt>
      <trkpt lat="49.43336" lon="5.80703">
        <ele>346.60000610352</ele>
        <time>2023-06-18T08:13:45Z</time>
      </trkpt>
      <trkpt lat="49.43333" lon="5.80706">
        <ele>346.60000610352</ele>
        <time>2023-06-18T08:13:46Z</time>
      </trkpt>
      <trkpt lat="49.43332" lon="5.80709">
        <ele>346.39999389648</ele>
        <time>2023-06-18T08:13:47Z</time>
      </trkpt>
      <trkpt lat="49.43329" lon="5.80716">
        <ele>346.39999389648</ele>
        <time>2023-06-18T08:13:49Z</time>
      </trkpt>
      <trkpt lat="49.43329" lon="5.80723">
        <ele>345.79998779297</ele>
        <time>2023-06-18T08:13:51Z</time>
      </trkpt>
      <trkpt lat="49.43329" lon="5.80725">
        <ele>345.60000610352</ele>
        <time>2023-06-18T08:13:52Z</time>
      </trkpt>
      <trkpt lat="49.43329" lon="5.80728">
        <ele>345.39999389648</ele>
        <time>2023-06-18T08:13:53Z</time>
      </trkpt>
      <trkpt lat="49.4333" lon="5.80731">
        <ele>345.39999389648</ele>
        <time>2023-06-18T08:13:55Z</time>
      </trkpt>
      <trkpt lat="49.43333" lon="5.80735">
        <ele>345.39999389648</ele>
        <time>2023-06-18T08:13:57Z</time>
      </trkpt>
      <trkpt lat="49.43335" lon="5.80741">
        <ele>345.39999389648</ele>
        <time>2023-06-18T08:13:59Z</time>
      </trkpt>
      <trkpt lat="49.43337" lon="5.80748">
        <ele>345.60000610352</ele>
        <time>2023-06-18T08:14:01Z</time>
      </trkpt>
      <trkpt lat="49.43338" lon="5.8075">
        <ele>345.79998779297</ele>
        <time>2023-06-18T08:14:02Z</time>
      </trkpt>
      <trkpt lat="49.43337" lon="5.80753">
        <ele>345.79998779297</ele>
        <time>2023-06-18T08:14:03Z</time>
      </trkpt>
      <trkpt lat="49.43336" lon="5.80757">
        <ele>346</ele>
        <time>2023-06-18T08:14:05Z</time>
      </trkpt>
      <trkpt lat="49.43336" lon="5.80763">
        <ele>346.39999389648</ele>
        <time>2023-06-18T08:14:07Z</time>
      </trkpt>
      <trkpt lat="49.43336" lon="5.80765">
        <ele>346.39999389648</ele>
        <time>2023-06-18T08:14:08Z</time>
      </trkpt>
      <trkpt lat="49.43337" lon="5.80768">
        <ele>346.60000610352</ele>
        <time>2023-06-18T08:14:09Z</time>
      </trkpt>
      <trkpt lat="49.43337" lon="5.80771">
        <ele>346.60000610352</ele>
        <time>2023-06-18T08:14:10Z</time>
      </trkpt>
      <trkpt lat="49.43337" lon="5.80773">
        <ele>346.60000610352</ele>
        <time>2023-06-18T08:14:11Z</time>
      </trkpt>
      <trkpt lat="49.43336" lon="5.80773">
        <ele>346.79998779297</ele>
        <time>2023-06-18T08:14:12Z</time>
      </trkpt>
      <trkpt lat="49.43336" lon="5.80774">
        <ele>346.79998779297</ele>
        <time>2023-06-18T08:14:13Z</time>
      </trkpt>
      <trkpt lat="49.43336" lon="5.80775">
        <ele>346.79998779297</ele>
        <time>2023-06-18T08:14:15Z</time>
      </trkpt>
      <trkpt lat="49.43336" lon="5.80775">
        <ele>346.79998779297</ele>
        <time>2023-06-18T08:14:17Z</time>
      </trkpt>
      <trkpt lat="49.43336" lon="5.80775">
        <ele>346.79998779297</ele>
        <time>2023-06-18T08:14:19Z</time>
      </trkpt>
      <trkpt lat="49.43336" lon="5.80775">
        <ele>346.79998779297</ele>
        <time>2023-06-18T08:14:21Z</time>
      </trkpt>
      <trkpt lat="49.43336" lon="5.80775">
        <ele>346.79998779297</ele>
        <time>2023-06-18T08:14:22Z</time>
      </trkpt>
      <trkpt lat="49.43335" lon="5.80775">
        <ele>346.79998779297</ele>
        <time>2023-06-18T08:14:23Z</time>
      </trkpt>
      <trkpt lat="49.43336" lon="5.80775">
        <ele>346.60000610352</ele>
        <time>2023-06-18T08:14:25Z</time>
      </trkpt>
      <trkpt lat="49.43336" lon="5.80776">
        <ele>346.60000610352</ele>
        <time>2023-06-18T08:14:27Z</time>
      </trkpt>
      <trkpt lat="49.43336" lon="5.80776">
        <ele>346.60000610352</ele>
        <time>2023-06-18T08:14:29Z</time>
      </trkpt>
      <trkpt lat="49.43336" lon="5.80776">
        <ele>346.60000610352</ele>
        <time>2023-06-18T08:14:31Z</time>
      </trkpt>
      <trkpt lat="49.43336" lon="5.80776">
        <ele>346.60000610352</ele>
        <time>2023-06-18T08:14:33Z</time>
      </trkpt>
      <trkpt lat="49.43336" lon="5.80776">
        <ele>346.60000610352</ele>
        <time>2023-06-18T08:14:34Z</time>
      </trkpt>
      <trkpt lat="49.43336" lon="5.80776">
        <ele>346.60000610352</ele>
        <time>2023-06-18T08:14:35Z</time>
      </trkpt>
      <trkpt lat="49.43336" lon="5.80776">
        <ele>346.60000610352</ele>
        <time>2023-06-18T08:14:36Z</time>
      </trkpt>
      <trkpt lat="49.43336" lon="5.80776">
        <ele>346.60000610352</ele>
        <time>2023-06-18T08:14:37Z</time>
      </trkpt>
      <trkpt lat="49.43336" lon="5.80776">
        <ele>346.60000610352</ele>
        <time>2023-06-18T08:14:39Z</time>
      </trkpt>
      <trkpt lat="49.43336" lon="5.80776">
        <ele>346.60000610352</ele>
        <time>2023-06-18T08:14:41Z</time>
      </trkpt>
      <trkpt lat="49.43336" lon="5.80776">
        <ele>346.60000610352</ele>
        <time>2023-06-18T08:14:43Z</time>
      </trkpt>
      <trkpt lat="49.43336" lon="5.80776">
        <ele>346.60000610352</ele>
        <time>2023-06-18T08:14:45Z</time>
      </trkpt>
      <trkpt lat="49.43336" lon="5.80776">
        <ele>346.60000610352</ele>
        <time>2023-06-18T08:14:47Z</time>
      </trkpt>
      <trkpt lat="49.43335" lon="5.80776">
        <ele>346.60000610352</ele>
        <time>2023-06-18T08:14:49Z</time>
      </trkpt>
      <trkpt lat="49.43335" lon="5.80776">
        <ele>346.60000610352</ele>
        <time>2023-06-18T08:14:50Z</time>
      </trkpt>
      <trkpt lat="49.43335" lon="5.80777">
        <ele>346.79998779297</ele>
        <time>2023-06-18T08:14:51Z</time>
      </trkpt>
      <trkpt lat="49.43332" lon="5.8078">
        <ele>346.79998779297</ele>
        <time>2023-06-18T08:14:53Z</time>
      </trkpt>
      <trkpt lat="49.4333" lon="5.80781">
        <ele>346.79998779297</ele>
        <time>2023-06-18T08:14:54Z</time>
      </trkpt>
      <trkpt lat="49.43326" lon="5.80783">
        <ele>346.79998779297</ele>
        <time>2023-06-18T08:14:55Z</time>
      </trkpt>
      <trkpt lat="49.43322" lon="5.80784">
        <ele>346.79998779297</ele>
        <time>2023-06-18T08:14:56Z</time>
      </trkpt>
      <trkpt lat="49.43317" lon="5.80785">
        <ele>346.79998779297</ele>
        <time>2023-06-18T08:14:57Z</time>
      </trkpt>
      <trkpt lat="49.43312" lon="5.80787">
        <ele>346.79998779297</ele>
        <time>2023-06-18T08:14:58Z</time>
      </trkpt>
      <trkpt lat="49.43305" lon="5.80789">
        <ele>346.60000610352</ele>
        <time>2023-06-18T08:14:59Z</time>
      </trkpt>
      <trkpt lat="49.43293" lon="5.808">
        <ele>346.39999389648</ele>
        <time>2023-06-18T08:15:01Z</time>
      </trkpt>
      <trkpt lat="49.43287" lon="5.80806">
        <ele>345.79998779297</ele>
        <time>2023-06-18T08:15:02Z</time>
      </trkpt>
      <trkpt lat="49.43282" lon="5.80813">
        <ele>345.39999389648</ele>
        <time>2023-06-18T08:15:03Z</time>
      </trkpt>
      <trkpt lat="49.43272" lon="5.80831">
        <ele>344.60000610352</ele>
        <time>2023-06-18T08:15:05Z</time>
      </trkpt>
      <trkpt lat="49.43268" lon="5.80842">
        <ele>344.20001220703</ele>
        <time>2023-06-18T08:15:06Z</time>
      </trkpt>
      <trkpt lat="49.43265" lon="5.80854">
        <ele>343.39999389648</ele>
        <time>2023-06-18T08:15:07Z</time>
      </trkpt>
      <trkpt lat="49.43262" lon="5.80867">
        <ele>342.60000610352</ele>
        <time>2023-06-18T08:15:08Z</time>
      </trkpt>
      <trkpt lat="49.43258" lon="5.80882">
        <ele>341.79998779297</ele>
        <time>2023-06-18T08:15:09Z</time>
      </trkpt>
      <trkpt lat="49.43254" lon="5.80896">
        <ele>340.60000610352</ele>
        <time>2023-06-18T08:15:10Z</time>
      </trkpt>
      <trkpt lat="49.43251" lon="5.80912">
        <ele>339.39999389648</ele>
        <time>2023-06-18T08:15:11Z</time>
      </trkpt>
      <trkpt lat="49.43246" lon="5.80943">
        <ele>338</ele>
        <time>2023-06-18T08:15:13Z</time>
      </trkpt>
      <trkpt lat="49.43241" lon="5.80975">
        <ele>336.39999389648</ele>
        <time>2023-06-18T08:15:15Z</time>
      </trkpt>
      <trkpt lat="49.43239" lon="5.8099">
        <ele>335.20001220703</ele>
        <time>2023-06-18T08:15:16Z</time>
      </trkpt>
      <trkpt lat="49.43237" lon="5.81004">
        <ele>334</ele>
        <time>2023-06-18T08:15:17Z</time>
      </trkpt>
      <trkpt lat="49.43236" lon="5.81018">
        <ele>333</ele>
        <time>2023-06-18T08:15:18Z</time>
      </trkpt>
      <trkpt lat="49.43235" lon="5.81033">
        <ele>332.20001220703</ele>
        <time>2023-06-18T08:15:19Z</time>
      </trkpt>
      <trkpt lat="49.43233" lon="5.81047">
        <ele>328.79998779297</ele>
        <time>2023-06-18T08:15:20Z</time>
      </trkpt>
      <trkpt lat="49.43232" lon="5.8106">
        <ele>327.20001220703</ele>
        <time>2023-06-18T08:15:21Z</time>
      </trkpt>
      <trkpt lat="49.4323" lon="5.81073">
        <ele>326</ele>
        <time>2023-06-18T08:15:22Z</time>
      </trkpt>
      <trkpt lat="49.43229" lon="5.81084">
        <ele>325</ele>
        <time>2023-06-18T08:15:23Z</time>
      </trkpt>
      <trkpt lat="49.43228" lon="5.81094">
        <ele>324.20001220703</ele>
        <time>2023-06-18T08:15:24Z</time>
      </trkpt>
      <trkpt lat="49.43227" lon="5.81101">
        <ele>323.60000610352</ele>
        <time>2023-06-18T08:15:25Z</time>
      </trkpt>
      <trkpt lat="49.43226" lon="5.81107">
        <ele>322.39999389648</ele>
        <time>2023-06-18T08:15:26Z</time>
      </trkpt>
      <trkpt lat="49.43226" lon="5.81111">
        <ele>320.79998779297</ele>
        <time>2023-06-18T08:15:27Z</time>
      </trkpt>
      <trkpt lat="49.43225" lon="5.81113">
        <ele>319.39999389648</ele>
        <time>2023-06-18T08:15:28Z</time>
      </trkpt>
      <trkpt lat="49.43225" lon="5.81114">
        <ele>318.39999389648</ele>
        <time>2023-06-18T08:15:29Z</time>
      </trkpt>
      <trkpt lat="49.43224" lon="5.81115">
        <ele>317.79998779297</ele>
        <time>2023-06-18T08:15:30Z</time>
      </trkpt>
      <trkpt lat="49.43224" lon="5.81116">
        <ele>317.60000610352</ele>
        <time>2023-06-18T08:15:31Z</time>
      </trkpt>
      <trkpt lat="49.43221" lon="5.81118">
        <ele>317.20001220703</ele>
        <time>2023-06-18T08:15:33Z</time>
      </trkpt>
      <trkpt lat="49.43222" lon="5.8112">
        <ele>317</ele>
        <time>2023-06-18T08:15:35Z</time>
      </trkpt>
      <trkpt lat="49.43222" lon="5.81121">
        <ele>317</ele>
        <time>2023-06-18T08:15:36Z</time>
      </trkpt>
      <trkpt lat="49.43222" lon="5.81121">
        <ele>317</ele>
        <time>2023-06-18T08:15:37Z</time>
      </trkpt>
      <trkpt lat="49.43223" lon="5.81122">
        <ele>316.79998779297</ele>
        <time>2023-06-18T08:15:39Z</time>
      </trkpt>
      <trkpt lat="49.43223" lon="5.81122">
        <ele>316.39999389648</ele>
        <time>2023-06-18T08:15:41Z</time>
      </trkpt>
      <trkpt lat="49.43223" lon="5.81123">
        <ele>316.20001220703</ele>
        <time>2023-06-18T08:15:43Z</time>
      </trkpt>
      <trkpt lat="49.43223" lon="5.81123">
        <ele>316</ele>
        <time>2023-06-18T08:15:45Z</time>
      </trkpt>
      <trkpt lat="49.43223" lon="5.81123">
        <ele>315.60000610352</ele>
        <time>2023-06-18T08:15:47Z</time>
      </trkpt>
      <trkpt lat="49.43222" lon="5.81123">
        <ele>315.60000610352</ele>
        <time>2023-06-18T08:15:48Z</time>
      </trkpt>
      <trkpt lat="49.43223" lon="5.81123">
        <ele>315.60000610352</ele>
        <time>2023-06-18T08:15:49Z</time>
      </trkpt>
      <trkpt lat="49.43223" lon="5.81124">
        <ele>315.60000610352</ele>
        <time>2023-06-18T08:15:51Z</time>
      </trkpt>
      <trkpt lat="49.43224" lon="5.81125">
        <ele>315.60000610352</ele>
        <time>2023-06-18T08:15:53Z</time>
      </trkpt>
      <trkpt lat="49.43224" lon="5.81125">
        <ele>315.60000610352</ele>
        <time>2023-06-18T08:15:55Z</time>
      </trkpt>
      <trkpt lat="49.43225" lon="5.81125">
        <ele>315.79998779297</ele>
        <time>2023-06-18T08:15:57Z</time>
      </trkpt>
      <trkpt lat="49.43224" lon="5.81125">
        <ele>316.20001220703</ele>
        <time>2023-06-18T08:15:59Z</time>
      </trkpt>
      <trkpt lat="49.43224" lon="5.81126">
        <ele>316.20001220703</ele>
        <time>2023-06-18T08:16:01Z</time>
      </trkpt>
      <trkpt lat="49.43224" lon="5.81131">
        <ele>316.20001220703</ele>
        <time>2023-06-18T08:16:03Z</time>
      </trkpt>
      <trkpt lat="49.43224" lon="5.81134">
        <ele>316.20001220703</ele>
        <time>2023-06-18T08:16:04Z</time>
      </trkpt>
      <trkpt lat="49.43224" lon="5.81138">
        <ele>316.20001220703</ele>
        <time>2023-06-18T08:16:05Z</time>
      </trkpt>
      <trkpt lat="49.43223" lon="5.81147">
        <ele>316.20001220703</ele>
        <time>2023-06-18T08:16:07Z</time>
      </trkpt>
      <trkpt lat="49.43223" lon="5.81156">
        <ele>316.20001220703</ele>
        <time>2023-06-18T08:16:09Z</time>
      </trkpt>
      <trkpt lat="49.43223" lon="5.81159">
        <ele>316.20001220703</ele>
        <time>2023-06-18T08:16:10Z</time>
      </trkpt>
      <trkpt lat="49.43224" lon="5.8116">
        <ele>316</ele>
        <time>2023-06-18T08:16:11Z</time>
      </trkpt>
      <trkpt lat="49.43223" lon="5.81162">
        <ele>316</ele>
        <time>2023-06-18T08:16:12Z</time>
      </trkpt>
      <trkpt lat="49.43222" lon="5.81164">
        <ele>315.60000610352</ele>
        <time>2023-06-18T08:16:13Z</time>
      </trkpt>
      <trkpt lat="49.43221" lon="5.81168">
        <ele>314.60000610352</ele>
        <time>2023-06-18T08:16:15Z</time>
      </trkpt>
      <trkpt lat="49.43219" lon="5.8117">
        <ele>314.39999389648</ele>
        <time>2023-06-18T08:16:16Z</time>
      </trkpt>
      <trkpt lat="49.43217" lon="5.81172">
        <ele>314.39999389648</ele>
        <time>2023-06-18T08:16:17Z</time>
      </trkpt>
      <trkpt lat="49.43213" lon="5.81177">
        <ele>314.39999389648</ele>
        <time>2023-06-18T08:16:19Z</time>
      </trkpt>
      <trkpt lat="49.43208" lon="5.81184">
        <ele>314.20001220703</ele>
        <time>2023-06-18T08:16:21Z</time>
      </trkpt>
      <trkpt lat="49.43203" lon="5.81189">
        <ele>314</ele>
        <time>2023-06-18T08:16:23Z</time>
      </trkpt>
      <trkpt lat="49.43198" lon="5.81196">
        <ele>313.79998779297</ele>
        <time>2023-06-18T08:16:25Z</time>
      </trkpt>
      <trkpt lat="49.43196" lon="5.812">
        <ele>313.60000610352</ele>
        <time>2023-06-18T08:16:26Z</time>
      </trkpt>
      <trkpt lat="49.43194" lon="5.81205">
        <ele>313.39999389648</ele>
        <time>2023-06-18T08:16:27Z</time>
      </trkpt>
      <trkpt lat="49.43189" lon="5.81216">
        <ele>313</ele>
        <time>2023-06-18T08:16:29Z</time>
      </trkpt>
      <trkpt lat="49.43187" lon="5.81223">
        <ele>312.79998779297</ele>
        <time>2023-06-18T08:16:30Z</time>
      </trkpt>
      <trkpt lat="49.43185" lon="5.81228">
        <ele>312.60000610352</ele>
        <time>2023-06-18T08:16:31Z</time>
      </trkpt>
      <trkpt lat="49.43184" lon="5.81233">
        <ele>312.39999389648</ele>
        <time>2023-06-18T08:16:32Z</time>
      </trkpt>
      <trkpt lat="49.43183" lon="5.81237">
        <ele>312.20001220703</ele>
        <time>2023-06-18T08:16:33Z</time>
      </trkpt>
      <trkpt lat="49.43183" lon="5.81239">
        <ele>312</ele>
        <time>2023-06-18T08:16:34Z</time>
      </trkpt>
      <trkpt lat="49.43184" lon="5.8124">
        <ele>311.79998779297</ele>
        <time>2023-06-18T08:16:35Z</time>
      </trkpt>
      <trkpt lat="49.43184" lon="5.81241">
        <ele>311.39999389648</ele>
        <time>2023-06-18T08:16:37Z</time>
      </trkpt>
      <trkpt lat="49.43184" lon="5.81241">
        <ele>311</ele>
        <time>2023-06-18T08:16:39Z</time>
      </trkpt>
      <trkpt lat="49.43184" lon="5.81241">
        <ele>310.79998779297</ele>
        <time>2023-06-18T08:16:41Z</time>
      </trkpt>
      <trkpt lat="49.43184" lon="5.81242">
        <ele>310.79998779297</ele>
        <time>2023-06-18T08:16:43Z</time>
      </trkpt>
      <trkpt lat="49.43184" lon="5.81242">
        <ele>310.79998779297</ele>
        <time>2023-06-18T08:16:45Z</time>
      </trkpt>
      <trkpt lat="49.43184" lon="5.81242">
        <ele>310.79998779297</ele>
        <time>2023-06-18T08:16:47Z</time>
      </trkpt>
      <trkpt lat="49.43184" lon="5.81241">
        <ele>310.79998779297</ele>
        <time>2023-06-18T08:16:49Z</time>
      </trkpt>
      <trkpt lat="49.43184" lon="5.81241">
        <ele>310.79998779297</ele>
        <time>2023-06-18T08:16:50Z</time>
      </trkpt>
      <trkpt lat="49.43184" lon="5.81241">
        <ele>310.79998779297</ele>
        <time>2023-06-18T08:16:51Z</time>
      </trkpt>
      <trkpt lat="49.43184" lon="5.81241">
        <ele>310.79998779297</ele>
        <time>2023-06-18T08:16:53Z</time>
      </trkpt>
      <trkpt lat="49.43184" lon="5.81241">
        <ele>310.79998779297</ele>
        <time>2023-06-18T08:16:55Z</time>
      </trkpt>
      <trkpt lat="49.43184" lon="5.81242">
        <ele>310.60000610352</ele>
        <time>2023-06-18T08:16:57Z</time>
      </trkpt>
      <trkpt lat="49.43185" lon="5.81242">
        <ele>310.60000610352</ele>
        <time>2023-06-18T08:16:59Z</time>
      </trkpt>
      <trkpt lat="49.43186" lon="5.81243">
        <ele>310.60000610352</ele>
        <time>2023-06-18T08:17:00Z</time>
      </trkpt>
      <trkpt lat="49.43186" lon="5.81243">
        <ele>310.60000610352</ele>
        <time>2023-06-18T08:17:01Z</time>
      </trkpt>
      <trkpt lat="49.43188" lon="5.81244">
        <ele>310.60000610352</ele>
        <time>2023-06-18T08:17:02Z</time>
      </trkpt>
      <trkpt lat="49.43189" lon="5.81246">
        <ele>310.60000610352</ele>
        <time>2023-06-18T08:17:03Z</time>
      </trkpt>
      <trkpt lat="49.4319" lon="5.81248">
        <ele>310.60000610352</ele>
        <time>2023-06-18T08:17:05Z</time>
      </trkpt>
      <trkpt lat="49.4319" lon="5.8125">
        <ele>310.39999389648</ele>
        <time>2023-06-18T08:17:07Z</time>
      </trkpt>
      <trkpt lat="49.43191" lon="5.81251">
        <ele>310.39999389648</ele>
        <time>2023-06-18T08:17:08Z</time>
      </trkpt>
      <trkpt lat="49.43192" lon="5.81253">
        <ele>310.20001220703</ele>
        <time>2023-06-18T08:17:09Z</time>
      </trkpt>
      <trkpt lat="49.43193" lon="5.81254">
        <ele>309.60000610352</ele>
        <time>2023-06-18T08:17:10Z</time>
      </trkpt>
      <trkpt lat="49.43195" lon="5.81256">
        <ele>309.39999389648</ele>
        <time>2023-06-18T08:17:11Z</time>
      </trkpt>
      <trkpt lat="49.43201" lon="5.81259">
        <ele>309.39999389648</ele>
        <time>2023-06-18T08:17:13Z</time>
      </trkpt>
      <trkpt lat="49.43207" lon="5.81261">
        <ele>309.20001220703</ele>
        <time>2023-06-18T08:17:15Z</time>
      </trkpt>
      <trkpt lat="49.43213" lon="5.8126">
        <ele>309.20001220703</ele>
        <time>2023-06-18T08:17:17Z</time>
      </trkpt>
      <trkpt lat="49.43217" lon="5.81261">
        <ele>309.20001220703</ele>
        <time>2023-06-18T08:17:19Z</time>
      </trkpt>
      <trkpt lat="49.43221" lon="5.81264">
        <ele>309.20001220703</ele>
        <time>2023-06-18T08:17:21Z</time>
      </trkpt>
      <trkpt lat="49.43224" lon="5.81266">
        <ele>309.39999389648</ele>
        <time>2023-06-18T08:17:23Z</time>
      </trkpt>
      <trkpt lat="49.43226" lon="5.81267">
        <ele>309.60000610352</ele>
        <time>2023-06-18T08:17:24Z</time>
      </trkpt>
      <trkpt lat="49.43227" lon="5.8127">
        <ele>309.79998779297</ele>
        <time>2023-06-18T08:17:25Z</time>
      </trkpt>
      <trkpt lat="49.43231" lon="5.81273">
        <ele>310.39999389648</ele>
        <time>2023-06-18T08:17:27Z</time>
      </trkpt>
      <trkpt lat="49.43233" lon="5.81276">
        <ele>311</ele>
        <time>2023-06-18T08:17:29Z</time>
      </trkpt>
      <trkpt lat="49.43235" lon="5.81278">
        <ele>311.20001220703</ele>
        <time>2023-06-18T08:17:30Z</time>
      </trkpt>
      <trkpt lat="49.43236" lon="5.81279">
        <ele>311.39999389648</ele>
        <time>2023-06-18T08:17:31Z</time>
      </trkpt>
      <trkpt lat="49.4324" lon="5.81282">
        <ele>312.39999389648</ele>
        <time>2023-06-18T08:17:33Z</time>
      </trkpt>
      <trkpt lat="49.43242" lon="5.81283">
        <ele>313.20001220703</ele>
        <time>2023-06-18T08:17:35Z</time>
      </trkpt>
      <trkpt lat="49.43245" lon="5.81284">
        <ele>313.39999389648</ele>
        <time>2023-06-18T08:17:36Z</time>
      </trkpt>
      <trkpt lat="49.43246" lon="5.81285">
        <ele>314</ele>
        <time>2023-06-18T08:17:37Z</time>
      </trkpt>
      <trkpt lat="49.43249" lon="5.81287">
        <ele>314.60000610352</ele>
        <time>2023-06-18T08:17:39Z</time>
      </trkpt>
      <trkpt lat="49.4325" lon="5.8129">
        <ele>315</ele>
        <time>2023-06-18T08:17:41Z</time>
      </trkpt>
      <trkpt lat="49.43251" lon="5.81291">
        <ele>315.20001220703</ele>
        <time>2023-06-18T08:17:42Z</time>
      </trkpt>
      <trkpt lat="49.43253" lon="5.81292">
        <ele>315.39999389648</ele>
        <time>2023-06-18T08:17:43Z</time>
      </trkpt>
      <trkpt lat="49.43255" lon="5.81294">
        <ele>315.79998779297</ele>
        <time>2023-06-18T08:17:45Z</time>
      </trkpt>
      <trkpt lat="49.43256" lon="5.81297">
        <ele>316.20001220703</ele>
        <time>2023-06-18T08:17:47Z</time>
      </trkpt>
      <trkpt lat="49.43257" lon="5.81301">
        <ele>316.60000610352</ele>
        <time>2023-06-18T08:17:49Z</time>
      </trkpt>
      <trkpt lat="49.43258" lon="5.81304">
        <ele>317</ele>
        <time>2023-06-18T08:17:51Z</time>
      </trkpt>
      <trkpt lat="49.43259" lon="5.81308">
        <ele>317.39999389648</ele>
        <time>2023-06-18T08:17:53Z</time>
      </trkpt>
      <trkpt lat="49.4326" lon="5.81312">
        <ele>317.79998779297</ele>
        <time>2023-06-18T08:17:55Z</time>
      </trkpt>
      <trkpt lat="49.43261" lon="5.81315">
        <ele>318.39999389648</ele>
        <time>2023-06-18T08:17:57Z</time>
      </trkpt>
      <trkpt lat="49.43262" lon="5.81318">
        <ele>318.60000610352</ele>
        <time>2023-06-18T08:17:58Z</time>
      </trkpt>
      <trkpt lat="49.43262" lon="5.8132">
        <ele>318.79998779297</ele>
        <time>2023-06-18T08:17:59Z</time>
      </trkpt>
      <trkpt lat="49.43263" lon="5.81326">
        <ele>319.39999389648</ele>
        <time>2023-06-18T08:18:01Z</time>
      </trkpt>
      <trkpt lat="49.43263" lon="5.81328">
        <ele>319.60000610352</ele>
        <time>2023-06-18T08:18:02Z</time>
      </trkpt>
      <trkpt lat="49.43262" lon="5.81331">
        <ele>319.79998779297</ele>
        <time>2023-06-18T08:18:03Z</time>
      </trkpt>
      <trkpt lat="49.43261" lon="5.81336">
        <ele>320.60000610352</ele>
        <time>2023-06-18T08:18:05Z</time>
      </trkpt>
      <trkpt lat="49.43262" lon="5.81338">
        <ele>320.79998779297</ele>
        <time>2023-06-18T08:18:06Z</time>
      </trkpt>
      <trkpt lat="49.43261" lon="5.8134">
        <ele>321</ele>
        <time>2023-06-18T08:18:07Z</time>
      </trkpt>
      <trkpt lat="49.43261" lon="5.81344">
        <ele>321.60000610352</ele>
        <time>2023-06-18T08:18:09Z</time>
      </trkpt>
      <trkpt lat="49.4326" lon="5.81348">
        <ele>322.20001220703</ele>
        <time>2023-06-18T08:18:11Z</time>
      </trkpt>
      <trkpt lat="49.4326" lon="5.81352">
        <ele>322.79998779297</ele>
        <time>2023-06-18T08:18:13Z</time>
      </trkpt>
      <trkpt lat="49.43259" lon="5.81353">
        <ele>323.20001220703</ele>
        <time>2023-06-18T08:18:14Z</time>
      </trkpt>
      <trkpt lat="49.43259" lon="5.81354">
        <ele>323.39999389648</ele>
        <time>2023-06-18T08:18:15Z</time>
      </trkpt>
      <trkpt lat="49.43257" lon="5.81357">
        <ele>324</ele>
        <time>2023-06-18T08:18:17Z</time>
      </trkpt>
      <trkpt lat="49.43257" lon="5.81358">
        <ele>324.20001220703</ele>
        <time>2023-06-18T08:18:18Z</time>
      </trkpt>
      <trkpt lat="49.43257" lon="5.81359">
        <ele>324.60000610352</ele>
        <time>2023-06-18T08:18:19Z</time>
      </trkpt>
      <trkpt lat="49.43256" lon="5.81362">
        <ele>325.60000610352</ele>
        <time>2023-06-18T08:18:21Z</time>
      </trkpt>
      <trkpt lat="49.43256" lon="5.81364">
        <ele>326</ele>
        <time>2023-06-18T08:18:22Z</time>
      </trkpt>
      <trkpt lat="49.43256" lon="5.81366">
        <ele>326.39999389648</ele>
        <time>2023-06-18T08:18:23Z</time>
      </trkpt>
      <trkpt lat="49.43255" lon="5.81367">
        <ele>326.60000610352</ele>
        <time>2023-06-18T08:18:24Z</time>
      </trkpt>
      <trkpt lat="49.43255" lon="5.81368">
        <ele>327</ele>
        <time>2023-06-18T08:18:25Z</time>
      </trkpt>
      <trkpt lat="49.43254" lon="5.8137">
        <ele>327.39999389648</ele>
        <time>2023-06-18T08:18:27Z</time>
      </trkpt>
      <trkpt lat="49.43253" lon="5.81373">
        <ele>328</ele>
        <time>2023-06-18T08:18:29Z</time>
      </trkpt>
      <trkpt lat="49.43251" lon="5.81375">
        <ele>328.60000610352</ele>
        <time>2023-06-18T08:18:31Z</time>
      </trkpt>
      <trkpt lat="49.43251" lon="5.81377">
        <ele>329.20001220703</ele>
        <time>2023-06-18T08:18:33Z</time>
      </trkpt>
      <trkpt lat="49.43249" lon="5.8138">
        <ele>329.79998779297</ele>
        <time>2023-06-18T08:18:35Z</time>
      </trkpt>
      <trkpt lat="49.43248" lon="5.81384">
        <ele>330.20001220703</ele>
        <time>2023-06-18T08:18:37Z</time>
      </trkpt>
      <trkpt lat="49.43248" lon="5.81385">
        <ele>330.39999389648</ele>
        <time>2023-06-18T08:18:38Z</time>
      </trkpt>
      <trkpt lat="49.43248" lon="5.81387">
        <ele>330.79998779297</ele>
        <time>2023-06-18T08:18:39Z</time>
      </trkpt>
      <trkpt lat="49.43247" lon="5.81389">
        <ele>331.20001220703</ele>
        <time>2023-06-18T08:18:41Z</time>
      </trkpt>
      <trkpt lat="49.43246" lon="5.8139">
        <ele>331.39999389648</ele>
        <time>2023-06-18T08:18:42Z</time>
      </trkpt>
      <trkpt lat="49.43246" lon="5.81392">
        <ele>331.79998779297</ele>
        <time>2023-06-18T08:18:43Z</time>
      </trkpt>
      <trkpt lat="49.43245" lon="5.81395">
        <ele>332.20001220703</ele>
        <time>2023-06-18T08:18:45Z</time>
      </trkpt>
      <trkpt lat="49.43244" lon="5.81397">
        <ele>332.60000610352</ele>
        <time>2023-06-18T08:18:47Z</time>
      </trkpt>
      <trkpt lat="49.43244" lon="5.81399">
        <ele>333</ele>
        <time>2023-06-18T08:18:48Z</time>
      </trkpt>
      <trkpt lat="49.43243" lon="5.81401">
        <ele>333.20001220703</ele>
        <time>2023-06-18T08:18:49Z</time>
      </trkpt>
      <trkpt lat="49.43242" lon="5.81405">
        <ele>333.79998779297</ele>
        <time>2023-06-18T08:18:51Z</time>
      </trkpt>
      <trkpt lat="49.4324" lon="5.81409">
        <ele>334</ele>
        <time>2023-06-18T08:18:53Z</time>
      </trkpt>
      <trkpt lat="49.43239" lon="5.81413">
        <ele>334.60000610352</ele>
        <time>2023-06-18T08:18:55Z</time>
      </trkpt>
      <trkpt lat="49.43238" lon="5.81418">
        <ele>335</ele>
        <time>2023-06-18T08:18:57Z</time>
      </trkpt>
      <trkpt lat="49.43238" lon="5.8142">
        <ele>335.20001220703</ele>
        <time>2023-06-18T08:18:58Z</time>
      </trkpt>
      <trkpt lat="49.43237" lon="5.81422">
        <ele>335.60000610352</ele>
        <time>2023-06-18T08:18:59Z</time>
      </trkpt>
      <trkpt lat="49.43237" lon="5.81426">
        <ele>336.20001220703</ele>
        <time>2023-06-18T08:19:01Z</time>
      </trkpt>
      <trkpt lat="49.43236" lon="5.8143">
        <ele>336.60000610352</ele>
        <time>2023-06-18T08:19:03Z</time>
      </trkpt>
      <trkpt lat="49.43236" lon="5.81432">
        <ele>336.79998779297</ele>
        <time>2023-06-18T08:19:04Z</time>
      </trkpt>
      <trkpt lat="49.43236" lon="5.81434">
        <ele>337.20001220703</ele>
        <time>2023-06-18T08:19:05Z</time>
      </trkpt>
      <trkpt lat="49.43235" lon="5.81438">
        <ele>337.60000610352</ele>
        <time>2023-06-18T08:19:07Z</time>
      </trkpt>
      <trkpt lat="49.43234" lon="5.81441">
        <ele>337.79998779297</ele>
        <time>2023-06-18T08:19:09Z</time>
      </trkpt>
      <trkpt lat="49.43234" lon="5.81445">
        <ele>338.20001220703</ele>
        <time>2023-06-18T08:19:11Z</time>
      </trkpt>
      <trkpt lat="49.43234" lon="5.81448">
        <ele>338.60000610352</ele>
        <time>2023-06-18T08:19:13Z</time>
      </trkpt>
      <trkpt lat="49.43232" lon="5.81452">
        <ele>339</ele>
        <time>2023-06-18T08:19:15Z</time>
      </trkpt>
      <trkpt lat="49.43231" lon="5.81456">
        <ele>339.39999389648</ele>
        <time>2023-06-18T08:19:17Z</time>
      </trkpt>
      <trkpt lat="49.43229" lon="5.81461">
        <ele>339.60000610352</ele>
        <time>2023-06-18T08:19:19Z</time>
      </trkpt>
      <trkpt lat="49.43228" lon="5.81464">
        <ele>339.79998779297</ele>
        <time>2023-06-18T08:19:20Z</time>
      </trkpt>
      <trkpt lat="49.43227" lon="5.81466">
        <ele>339.79998779297</ele>
        <time>2023-06-18T08:19:21Z</time>
      </trkpt>
      <trkpt lat="49.43226" lon="5.8147">
        <ele>340</ele>
        <time>2023-06-18T08:19:23Z</time>
      </trkpt>
      <trkpt lat="49.43224" lon="5.81475">
        <ele>340.20001220703</ele>
        <time>2023-06-18T08:19:25Z</time>
      </trkpt>
      <trkpt lat="49.43222" lon="5.81479">
        <ele>340.60000610352</ele>
        <time>2023-06-18T08:19:27Z</time>
      </trkpt>
      <trkpt lat="49.43221" lon="5.81481">
        <ele>340.79998779297</ele>
        <time>2023-06-18T08:19:28Z</time>
      </trkpt>
      <trkpt lat="49.4322" lon="5.81483">
        <ele>341</ele>
        <time>2023-06-18T08:19:29Z</time>
      </trkpt>
      <trkpt lat="49.43218" lon="5.81489">
        <ele>341.20001220703</ele>
        <time>2023-06-18T08:19:31Z</time>
      </trkpt>
      <trkpt lat="49.43215" lon="5.81496">
        <ele>341.39999389648</ele>
        <time>2023-06-18T08:19:33Z</time>
      </trkpt>
      <trkpt lat="49.43214" lon="5.81501">
        <ele>341.79998779297</ele>
        <time>2023-06-18T08:19:35Z</time>
      </trkpt>
      <trkpt lat="49.43213" lon="5.81503">
        <ele>341.79998779297</ele>
        <time>2023-06-18T08:19:36Z</time>
      </trkpt>
      <trkpt lat="49.43212" lon="5.81505">
        <ele>341.79998779297</ele>
        <time>2023-06-18T08:19:37Z</time>
      </trkpt>
      <trkpt lat="49.43211" lon="5.81509">
        <ele>342.20001220703</ele>
        <time>2023-06-18T08:19:39Z</time>
      </trkpt>
      <trkpt lat="49.4321" lon="5.81513">
        <ele>342.39999389648</ele>
        <time>2023-06-18T08:19:41Z</time>
      </trkpt>
      <trkpt lat="49.43209" lon="5.81518">
        <ele>342.60000610352</ele>
        <time>2023-06-18T08:19:43Z</time>
      </trkpt>
      <trkpt lat="49.43208" lon="5.81522">
        <ele>342.79998779297</ele>
        <time>2023-06-18T08:19:45Z</time>
      </trkpt>
      <trkpt lat="49.43207" lon="5.81525">
        <ele>343</ele>
        <time>2023-06-18T08:19:46Z</time>
      </trkpt>
      <trkpt lat="49.43207" lon="5.81527">
        <ele>343.20001220703</ele>
        <time>2023-06-18T08:19:47Z</time>
      </trkpt>
      <trkpt lat="49.43206" lon="5.81531">
        <ele>343.60000610352</ele>
        <time>2023-06-18T08:19:49Z</time>
      </trkpt>
      <trkpt lat="49.43206" lon="5.81536">
        <ele>344</ele>
        <time>2023-06-18T08:19:51Z</time>
      </trkpt>
      <trkpt lat="49.43205" lon="5.8154">
        <ele>344.39999389648</ele>
        <time>2023-06-18T08:19:53Z</time>
      </trkpt>
      <trkpt lat="49.43203" lon="5.81545">
        <ele>345</ele>
        <time>2023-06-18T08:19:55Z</time>
      </trkpt>
      <trkpt lat="49.43202" lon="5.81548">
        <ele>345</ele>
        <time>2023-06-18T08:19:56Z</time>
      </trkpt>
      <trkpt lat="49.43202" lon="5.81551">
        <ele>345.39999389648</ele>
        <time>2023-06-18T08:19:57Z</time>
      </trkpt>
      <trkpt lat="49.432" lon="5.81556">
        <ele>345.79998779297</ele>
        <time>2023-06-18T08:19:59Z</time>
      </trkpt>
      <trkpt lat="49.43199" lon="5.81563">
        <ele>346.20001220703</ele>
        <time>2023-06-18T08:20:01Z</time>
      </trkpt>
      <trkpt lat="49.43199" lon="5.81566">
        <ele>346.39999389648</ele>
        <time>2023-06-18T08:20:02Z</time>
      </trkpt>
      <trkpt lat="49.43198" lon="5.81568">
        <ele>346.60000610352</ele>
        <time>2023-06-18T08:20:03Z</time>
      </trkpt>
      <trkpt lat="49.43197" lon="5.81571">
        <ele>347</ele>
        <time>2023-06-18T08:20:05Z</time>
      </trkpt>
      <trkpt lat="49.43196" lon="5.81572">
        <ele>347.20001220703</ele>
        <time>2023-06-18T08:20:06Z</time>
      </trkpt>
      <trkpt lat="49.43196" lon="5.81574">
        <ele>347.39999389648</ele>
        <time>2023-06-18T08:20:07Z</time>
      </trkpt>
      <trkpt lat="49.43196" lon="5.81576">
        <ele>347.60000610352</ele>
        <time>2023-06-18T08:20:08Z</time>
      </trkpt>
      <trkpt lat="49.43195" lon="5.81577">
        <ele>347.79998779297</ele>
        <time>2023-06-18T08:20:09Z</time>
      </trkpt>
      <trkpt lat="49.43195" lon="5.81578">
        <ele>348</ele>
        <time>2023-06-18T08:20:11Z</time>
      </trkpt>
      <trkpt lat="49.43193" lon="5.81582">
        <ele>348.20001220703</ele>
        <time>2023-06-18T08:20:13Z</time>
      </trkpt>
      <trkpt lat="49.43191" lon="5.81585">
        <ele>348.39999389648</ele>
        <time>2023-06-18T08:20:15Z</time>
      </trkpt>
      <trkpt lat="49.4319" lon="5.81588">
        <ele>348.39999389648</ele>
        <time>2023-06-18T08:20:17Z</time>
      </trkpt>
      <trkpt lat="49.43188" lon="5.81591">
        <ele>348.39999389648</ele>
        <time>2023-06-18T08:20:19Z</time>
      </trkpt>
      <trkpt lat="49.43186" lon="5.81593">
        <ele>348.39999389648</ele>
        <time>2023-06-18T08:20:21Z</time>
      </trkpt>
      <trkpt lat="49.43185" lon="5.81595">
        <ele>348.39999389648</ele>
        <time>2023-06-18T08:20:23Z</time>
      </trkpt>
      <trkpt lat="49.43183" lon="5.81598">
        <ele>348.39999389648</ele>
        <time>2023-06-18T08:20:25Z</time>
      </trkpt>
      <trkpt lat="49.4318" lon="5.816">
        <ele>348.39999389648</ele>
        <time>2023-06-18T08:20:27Z</time>
      </trkpt>
      <trkpt lat="49.43179" lon="5.81602">
        <ele>348.60000610352</ele>
        <time>2023-06-18T08:20:28Z</time>
      </trkpt>
      <trkpt lat="49.43178" lon="5.81603">
        <ele>348.60000610352</ele>
        <time>2023-06-18T08:20:29Z</time>
      </trkpt>
      <trkpt lat="49.43175" lon="5.81605">
        <ele>348.79998779297</ele>
        <time>2023-06-18T08:20:31Z</time>
      </trkpt>
      <trkpt lat="49.43173" lon="5.81607">
        <ele>348.60000610352</ele>
        <time>2023-06-18T08:20:33Z</time>
      </trkpt>
      <trkpt lat="49.43171" lon="5.81608">
        <ele>348.60000610352</ele>
        <time>2023-06-18T08:20:35Z</time>
      </trkpt>
      <trkpt lat="49.43169" lon="5.81609">
        <ele>348.79998779297</ele>
        <time>2023-06-18T08:20:36Z</time>
      </trkpt>
      <trkpt lat="49.43167" lon="5.8161">
        <ele>348.79998779297</ele>
        <time>2023-06-18T08:20:37Z</time>
      </trkpt>
      <trkpt lat="49.43166" lon="5.81611">
        <ele>348.79998779297</ele>
        <time>2023-06-18T08:20:38Z</time>
      </trkpt>
      <trkpt lat="49.43164" lon="5.81612">
        <ele>348.79998779297</ele>
        <time>2023-06-18T08:20:39Z</time>
      </trkpt>
      <trkpt lat="49.43161" lon="5.81615">
        <ele>348.79998779297</ele>
        <time>2023-06-18T08:20:41Z</time>
      </trkpt>
      <trkpt lat="49.43157" lon="5.81617">
        <ele>348.79998779297</ele>
        <time>2023-06-18T08:20:43Z</time>
      </trkpt>
      <trkpt lat="49.43154" lon="5.8162">
        <ele>348.60000610352</ele>
        <time>2023-06-18T08:20:45Z</time>
      </trkpt>
      <trkpt lat="49.4315" lon="5.81623">
        <ele>348.60000610352</ele>
        <time>2023-06-18T08:20:47Z</time>
      </trkpt>
      <trkpt lat="49.43147" lon="5.81626">
        <ele>348.60000610352</ele>
        <time>2023-06-18T08:20:49Z</time>
      </trkpt>
      <trkpt lat="49.43144" lon="5.81628">
        <ele>348.60000610352</ele>
        <time>2023-06-18T08:20:51Z</time>
      </trkpt>
      <trkpt lat="49.43141" lon="5.8163">
        <ele>348.60000610352</ele>
        <time>2023-06-18T08:20:53Z</time>
      </trkpt>
      <trkpt lat="49.43138" lon="5.81632">
        <ele>348.60000610352</ele>
        <time>2023-06-18T08:20:55Z</time>
      </trkpt>
      <trkpt lat="49.43135" lon="5.81634">
        <ele>348.79998779297</ele>
        <time>2023-06-18T08:20:57Z</time>
      </trkpt>
      <trkpt lat="49.4313" lon="5.81637">
        <ele>348.79998779297</ele>
        <time>2023-06-18T08:20:59Z</time>
      </trkpt>
      <trkpt lat="49.43127" lon="5.8164">
        <ele>348.79998779297</ele>
        <time>2023-06-18T08:21:01Z</time>
      </trkpt>
      <trkpt lat="49.43125" lon="5.81642">
        <ele>348.79998779297</ele>
        <time>2023-06-18T08:21:03Z</time>
      </trkpt>
      <trkpt lat="49.43121" lon="5.81645">
        <ele>349</ele>
        <time>2023-06-18T08:21:05Z</time>
      </trkpt>
      <trkpt lat="49.43118" lon="5.81648">
        <ele>349</ele>
        <time>2023-06-18T08:21:07Z</time>
      </trkpt>
      <trkpt lat="49.43114" lon="5.81652">
        <ele>349</ele>
        <time>2023-06-18T08:21:09Z</time>
      </trkpt>
      <trkpt lat="49.4311" lon="5.81656">
        <ele>349.20001220703</ele>
        <time>2023-06-18T08:21:11Z</time>
      </trkpt>
      <trkpt lat="49.43106" lon="5.81661">
        <ele>349.60000610352</ele>
        <time>2023-06-18T08:21:13Z</time>
      </trkpt>
      <trkpt lat="49.43103" lon="5.81666">
        <ele>350</ele>
        <time>2023-06-18T08:21:15Z</time>
      </trkpt>
      <trkpt lat="49.431" lon="5.81671">
        <ele>350</ele>
        <time>2023-06-18T08:21:17Z</time>
      </trkpt>
      <trkpt lat="49.43098" lon="5.81674">
        <ele>350.20001220703</ele>
        <time>2023-06-18T08:21:18Z</time>
      </trkpt>
      <trkpt lat="49.43096" lon="5.81676">
        <ele>350.20001220703</ele>
        <time>2023-06-18T08:21:19Z</time>
      </trkpt>
      <trkpt lat="49.43094" lon="5.81681">
        <ele>350.20001220703</ele>
        <time>2023-06-18T08:21:21Z</time>
      </trkpt>
      <trkpt lat="49.43091" lon="5.81685">
        <ele>350.20001220703</ele>
        <time>2023-06-18T08:21:23Z</time>
      </trkpt>
      <trkpt lat="49.43088" lon="5.8169">
        <ele>350.39999389648</ele>
        <time>2023-06-18T08:21:25Z</time>
      </trkpt>
      <trkpt lat="49.43085" lon="5.81694">
        <ele>350.60000610352</ele>
        <time>2023-06-18T08:21:27Z</time>
      </trkpt>
      <trkpt lat="49.43083" lon="5.81696">
        <ele>350.60000610352</ele>
        <time>2023-06-18T08:21:28Z</time>
      </trkpt>
      <trkpt lat="49.43081" lon="5.81698">
        <ele>350.79998779297</ele>
        <time>2023-06-18T08:21:29Z</time>
      </trkpt>
      <trkpt lat="49.43079" lon="5.81701">
        <ele>350.79998779297</ele>
        <time>2023-06-18T08:21:31Z</time>
      </trkpt>
      <trkpt lat="49.43076" lon="5.81704">
        <ele>351</ele>
        <time>2023-06-18T08:21:33Z</time>
      </trkpt>
      <trkpt lat="49.43073" lon="5.81709">
        <ele>351</ele>
        <time>2023-06-18T08:21:35Z</time>
      </trkpt>
      <trkpt lat="49.43069" lon="5.81714">
        <ele>351.20001220703</ele>
        <time>2023-06-18T08:21:37Z</time>
      </trkpt>
      <trkpt lat="49.43067" lon="5.81719">
        <ele>351.39999389648</ele>
        <time>2023-06-18T08:21:39Z</time>
      </trkpt>
      <trkpt lat="49.43064" lon="5.81723">
        <ele>351.39999389648</ele>
        <time>2023-06-18T08:21:41Z</time>
      </trkpt>
      <trkpt lat="49.43061" lon="5.81727">
        <ele>351.60000610352</ele>
        <time>2023-06-18T08:21:43Z</time>
      </trkpt>
      <trkpt lat="49.43057" lon="5.81732">
        <ele>351.60000610352</ele>
        <time>2023-06-18T08:21:45Z</time>
      </trkpt>
      <trkpt lat="49.43054" lon="5.81737">
        <ele>351.60000610352</ele>
        <time>2023-06-18T08:21:47Z</time>
      </trkpt>
      <trkpt lat="49.43052" lon="5.81739">
        <ele>351.60000610352</ele>
        <time>2023-06-18T08:21:48Z</time>
      </trkpt>
      <trkpt lat="49.43051" lon="5.81741">
        <ele>351.60000610352</ele>
        <time>2023-06-18T08:21:49Z</time>
      </trkpt>
      <trkpt lat="49.43048" lon="5.81746">
        <ele>351.60000610352</ele>
        <time>2023-06-18T08:21:51Z</time>
      </trkpt>
      <trkpt lat="49.43045" lon="5.81751">
        <ele>351.60000610352</ele>
        <time>2023-06-18T08:21:53Z</time>
      </trkpt>
      <trkpt lat="49.43044" lon="5.81753">
        <ele>351.79998779297</ele>
        <time>2023-06-18T08:21:54Z</time>
      </trkpt>
      <trkpt lat="49.43042" lon="5.81756">
        <ele>351.79998779297</ele>
        <time>2023-06-18T08:21:55Z</time>
      </trkpt>
      <trkpt lat="49.43039" lon="5.81759">
        <ele>351.79998779297</ele>
        <time>2023-06-18T08:21:57Z</time>
      </trkpt>
      <trkpt lat="49.43034" lon="5.81763">
        <ele>352</ele>
        <time>2023-06-18T08:21:59Z</time>
      </trkpt>
      <trkpt lat="49.43032" lon="5.81766">
        <ele>352</ele>
        <time>2023-06-18T08:22:00Z</time>
      </trkpt>
      <trkpt lat="49.43031" lon="5.81767">
        <ele>352.20001220703</ele>
        <time>2023-06-18T08:22:01Z</time>
      </trkpt>
      <trkpt lat="49.43027" lon="5.81772">
        <ele>352.20001220703</ele>
        <time>2023-06-18T08:22:03Z</time>
      </trkpt>
      <trkpt lat="49.43023" lon="5.81777">
        <ele>352.20001220703</ele>
        <time>2023-06-18T08:22:05Z</time>
      </trkpt>
      <trkpt lat="49.43021" lon="5.81779">
        <ele>352.20001220703</ele>
        <time>2023-06-18T08:22:06Z</time>
      </trkpt>
      <trkpt lat="49.43019" lon="5.81781">
        <ele>352.20001220703</ele>
        <time>2023-06-18T08:22:07Z</time>
      </trkpt>
      <trkpt lat="49.43016" lon="5.81785">
        <ele>352.20001220703</ele>
        <time>2023-06-18T08:22:09Z</time>
      </trkpt>
      <trkpt lat="49.43012" lon="5.8179">
        <ele>352</ele>
        <time>2023-06-18T08:22:11Z</time>
      </trkpt>
      <trkpt lat="49.43007" lon="5.81797">
        <ele>351.79998779297</ele>
        <time>2023-06-18T08:22:13Z</time>
      </trkpt>
      <trkpt lat="49.43002" lon="5.81804">
        <ele>351.79998779297</ele>
        <time>2023-06-18T08:22:15Z</time>
      </trkpt>
      <trkpt lat="49.42998" lon="5.81809">
        <ele>351.60000610352</ele>
        <time>2023-06-18T08:22:17Z</time>
      </trkpt>
      <trkpt lat="49.42994" lon="5.81813">
        <ele>351.60000610352</ele>
        <time>2023-06-18T08:22:19Z</time>
      </trkpt>
      <trkpt lat="49.4299" lon="5.81819">
        <ele>351.60000610352</ele>
        <time>2023-06-18T08:22:21Z</time>
      </trkpt>
      <trkpt lat="49.42987" lon="5.81826">
        <ele>351.60000610352</ele>
        <time>2023-06-18T08:22:23Z</time>
      </trkpt>
      <trkpt lat="49.42983" lon="5.81834">
        <ele>351.60000610352</ele>
        <time>2023-06-18T08:22:25Z</time>
      </trkpt>
      <trkpt lat="49.4298" lon="5.8184">
        <ele>351.60000610352</ele>
        <time>2023-06-18T08:22:27Z</time>
      </trkpt>
      <trkpt lat="49.42975" lon="5.81846">
        <ele>351.79998779297</ele>
        <time>2023-06-18T08:22:29Z</time>
      </trkpt>
      <trkpt lat="49.42972" lon="5.81852">
        <ele>352.20001220703</ele>
        <time>2023-06-18T08:22:31Z</time>
      </trkpt>
      <trkpt lat="49.42969" lon="5.8186">
        <ele>352.60000610352</ele>
        <time>2023-06-18T08:22:33Z</time>
      </trkpt>
      <trkpt lat="49.42968" lon="5.81865">
        <ele>352.79998779297</ele>
        <time>2023-06-18T08:22:35Z</time>
      </trkpt>
      <trkpt lat="49.42965" lon="5.81871">
        <ele>353.39999389648</ele>
        <time>2023-06-18T08:22:37Z</time>
      </trkpt>
      <trkpt lat="49.42963" lon="5.81876">
        <ele>353.79998779297</ele>
        <time>2023-06-18T08:22:39Z</time>
      </trkpt>
      <trkpt lat="49.42962" lon="5.81879">
        <ele>353.79998779297</ele>
        <time>2023-06-18T08:22:40Z</time>
      </trkpt>
      <trkpt lat="49.42961" lon="5.81882">
        <ele>354</ele>
        <time>2023-06-18T08:22:41Z</time>
      </trkpt>
      <trkpt lat="49.42959" lon="5.81888">
        <ele>354.20001220703</ele>
        <time>2023-06-18T08:22:43Z</time>
      </trkpt>
      <trkpt lat="49.42955" lon="5.81895">
        <ele>354.39999389648</ele>
        <time>2023-06-18T08:22:45Z</time>
      </trkpt>
      <trkpt lat="49.42953" lon="5.81898">
        <ele>354.39999389648</ele>
        <time>2023-06-18T08:22:46Z</time>
      </trkpt>
      <trkpt lat="49.42952" lon="5.81901">
        <ele>354.60000610352</ele>
        <time>2023-06-18T08:22:47Z</time>
      </trkpt>
      <trkpt lat="49.42951" lon="5.81904">
        <ele>354.79998779297</ele>
        <time>2023-06-18T08:22:48Z</time>
      </trkpt>
      <trkpt lat="49.42949" lon="5.81907">
        <ele>355</ele>
        <time>2023-06-18T08:22:49Z</time>
      </trkpt>
      <trkpt lat="49.42948" lon="5.81913">
        <ele>355.39999389648</ele>
        <time>2023-06-18T08:22:51Z</time>
      </trkpt>
      <trkpt lat="49.42948" lon="5.81915">
        <ele>355.60000610352</ele>
        <time>2023-06-18T08:22:52Z</time>
      </trkpt>
      <trkpt lat="49.42947" lon="5.81918">
        <ele>355.60000610352</ele>
        <time>2023-06-18T08:22:53Z</time>
      </trkpt>
      <trkpt lat="49.42946" lon="5.81923">
        <ele>355.79998779297</ele>
        <time>2023-06-18T08:22:55Z</time>
      </trkpt>
      <trkpt lat="49.42945" lon="5.81929">
        <ele>356.20001220703</ele>
        <time>2023-06-18T08:22:57Z</time>
      </trkpt>
      <trkpt lat="49.42945" lon="5.81931">
        <ele>356.20001220703</ele>
        <time>2023-06-18T08:22:58Z</time>
      </trkpt>
      <trkpt lat="49.42946" lon="5.81933">
        <ele>356.79998779297</ele>
        <time>2023-06-18T08:22:59Z</time>
      </trkpt>
      <trkpt lat="49.42946" lon="5.81939">
        <ele>357</ele>
        <time>2023-06-18T08:23:01Z</time>
      </trkpt>
      <trkpt lat="49.42946" lon="5.81945">
        <ele>357.39999389648</ele>
        <time>2023-06-18T08:23:03Z</time>
      </trkpt>
      <trkpt lat="49.42946" lon="5.81948">
        <ele>357.60000610352</ele>
        <time>2023-06-18T08:23:04Z</time>
      </trkpt>
      <trkpt lat="49.42947" lon="5.8195">
        <ele>358</ele>
        <time>2023-06-18T08:23:05Z</time>
      </trkpt>
      <trkpt lat="49.42946" lon="5.81956">
        <ele>358.39999389648</ele>
        <time>2023-06-18T08:23:07Z</time>
      </trkpt>
      <trkpt lat="49.42945" lon="5.81961">
        <ele>359</ele>
        <time>2023-06-18T08:23:09Z</time>
      </trkpt>
      <trkpt lat="49.42944" lon="5.81964">
        <ele>359.20001220703</ele>
        <time>2023-06-18T08:23:10Z</time>
      </trkpt>
      <trkpt lat="49.42944" lon="5.81966">
        <ele>359.39999389648</ele>
        <time>2023-06-18T08:23:11Z</time>
      </trkpt>
      <trkpt lat="49.42943" lon="5.81969">
        <ele>359.60000610352</ele>
        <time>2023-06-18T08:23:12Z</time>
      </trkpt>
      <trkpt lat="49.42943" lon="5.81972">
        <ele>359.79998779297</ele>
        <time>2023-06-18T08:23:13Z</time>
      </trkpt>
      <trkpt lat="49.42944" lon="5.81977">
        <ele>360.20001220703</ele>
        <time>2023-06-18T08:23:15Z</time>
      </trkpt>
      <trkpt lat="49.42945" lon="5.81983">
        <ele>360.39999389648</ele>
        <time>2023-06-18T08:23:17Z</time>
      </trkpt>
      <trkpt lat="49.42946" lon="5.81986">
        <ele>360.60000610352</ele>
        <time>2023-06-18T08:23:18Z</time>
      </trkpt>
      <trkpt lat="49.42946" lon="5.81989">
        <ele>360.79998779297</ele>
        <time>2023-06-18T08:23:19Z</time>
      </trkpt>
      <trkpt lat="49.42947" lon="5.81995">
        <ele>361.20001220703</ele>
        <time>2023-06-18T08:23:21Z</time>
      </trkpt>
      <trkpt lat="49.42947" lon="5.81999">
        <ele>361.60000610352</ele>
        <time>2023-06-18T08:23:23Z</time>
      </trkpt>
      <trkpt lat="49.42947" lon="5.82003">
        <ele>361.79998779297</ele>
        <time>2023-06-18T08:23:24Z</time>
      </trkpt>
      <trkpt lat="49.42946" lon="5.82006">
        <ele>362</ele>
        <time>2023-06-18T08:23:25Z</time>
      </trkpt>
      <trkpt lat="49.42946" lon="5.82013">
        <ele>362.39999389648</ele>
        <time>2023-06-18T08:23:27Z</time>
      </trkpt>
      <trkpt lat="49.42948" lon="5.82019">
        <ele>362.60000610352</ele>
        <time>2023-06-18T08:23:29Z</time>
      </trkpt>
      <trkpt lat="49.42948" lon="5.82023">
        <ele>362.60000610352</ele>
        <time>2023-06-18T08:23:31Z</time>
      </trkpt>
      <trkpt lat="49.42948" lon="5.82026">
        <ele>363</ele>
        <time>2023-06-18T08:23:32Z</time>
      </trkpt>
      <trkpt lat="49.42949" lon="5.82028">
        <ele>363</ele>
        <time>2023-06-18T08:23:33Z</time>
      </trkpt>
      <trkpt lat="49.42949" lon="5.82032">
        <ele>363.39999389648</ele>
        <time>2023-06-18T08:23:35Z</time>
      </trkpt>
      <trkpt lat="49.42951" lon="5.82038">
        <ele>363.60000610352</ele>
        <time>2023-06-18T08:23:37Z</time>
      </trkpt>
      <trkpt lat="49.42952" lon="5.82043">
        <ele>364</ele>
        <time>2023-06-18T08:23:39Z</time>
      </trkpt>
      <trkpt lat="49.42953" lon="5.82046">
        <ele>364</ele>
        <time>2023-06-18T08:23:40Z</time>
      </trkpt>
      <trkpt lat="49.42953" lon="5.82048">
        <ele>364.20001220703</ele>
        <time>2023-06-18T08:23:41Z</time>
      </trkpt>
      <trkpt lat="49.42953" lon="5.82053">
        <ele>364.20001220703</ele>
        <time>2023-06-18T08:23:43Z</time>
      </trkpt>
      <trkpt lat="49.42955" lon="5.82058">
        <ele>364.39999389648</ele>
        <time>2023-06-18T08:23:45Z</time>
      </trkpt>
      <trkpt lat="49.42957" lon="5.82061">
        <ele>364.39999389648</ele>
        <time>2023-06-18T08:23:47Z</time>
      </trkpt>
      <trkpt lat="49.42959" lon="5.82064">
        <ele>364.60000610352</ele>
        <time>2023-06-18T08:23:48Z</time>
      </trkpt>
      <trkpt lat="49.42959" lon="5.82066">
        <ele>364.79998779297</ele>
        <time>2023-06-18T08:23:49Z</time>
      </trkpt>
      <trkpt lat="49.42961" lon="5.82072">
        <ele>365</ele>
        <time>2023-06-18T08:23:51Z</time>
      </trkpt>
      <trkpt lat="49.42962" lon="5.82077">
        <ele>365.20001220703</ele>
        <time>2023-06-18T08:23:53Z</time>
      </trkpt>
      <trkpt lat="49.42963" lon="5.82082">
        <ele>365.60000610352</ele>
        <time>2023-06-18T08:23:55Z</time>
      </trkpt>
      <trkpt lat="49.42965" lon="5.8209">
        <ele>365.79998779297</ele>
        <time>2023-06-18T08:23:57Z</time>
      </trkpt>
      <trkpt lat="49.42966" lon="5.82093">
        <ele>365.79998779297</ele>
        <time>2023-06-18T08:23:58Z</time>
      </trkpt>
      <trkpt lat="49.42965" lon="5.82097">
        <ele>365.79998779297</ele>
        <time>2023-06-18T08:23:59Z</time>
      </trkpt>
      <trkpt lat="49.42965" lon="5.821">
        <ele>366.20001220703</ele>
        <time>2023-06-18T08:24:00Z</time>
      </trkpt>
      <trkpt lat="49.42966" lon="5.82104">
        <ele>366.39999389648</ele>
        <time>2023-06-18T08:24:01Z</time>
      </trkpt>
      <trkpt lat="49.42967" lon="5.82108">
        <ele>366.60000610352</ele>
        <time>2023-06-18T08:24:03Z</time>
      </trkpt>
      <trkpt lat="49.42968" lon="5.82111">
        <ele>366.79998779297</ele>
        <time>2023-06-18T08:24:04Z</time>
      </trkpt>
      <trkpt lat="49.42969" lon="5.82114">
        <ele>366.79998779297</ele>
        <time>2023-06-18T08:24:05Z</time>
      </trkpt>
      <trkpt lat="49.4297" lon="5.82117">
        <ele>367</ele>
        <time>2023-06-18T08:24:07Z</time>
      </trkpt>
      <trkpt lat="49.42972" lon="5.82121">
        <ele>367</ele>
        <time>2023-06-18T08:24:09Z</time>
      </trkpt>
      <trkpt lat="49.42973" lon="5.82123">
        <ele>367.20001220703</ele>
        <time>2023-06-18T08:24:11Z</time>
      </trkpt>
      <trkpt lat="49.42974" lon="5.82126">
        <ele>367.20001220703</ele>
        <time>2023-06-18T08:24:13Z</time>
      </trkpt>
      <trkpt lat="49.42974" lon="5.82127">
        <ele>367.20001220703</ele>
        <time>2023-06-18T08:24:14Z</time>
      </trkpt>
      <trkpt lat="49.42974" lon="5.82127">
        <ele>367.20001220703</ele>
        <time>2023-06-18T08:24:15Z</time>
      </trkpt>
      <trkpt lat="49.42974" lon="5.82127">
        <ele>367.39999389648</ele>
        <time>2023-06-18T08:24:17Z</time>
      </trkpt>
      <trkpt lat="49.42974" lon="5.82128">
        <ele>367.39999389648</ele>
        <time>2023-06-18T08:24:19Z</time>
      </trkpt>
      <trkpt lat="49.42974" lon="5.82128">
        <ele>367.39999389648</ele>
        <time>2023-06-18T08:24:21Z</time>
      </trkpt>
      <trkpt lat="49.42974" lon="5.82128">
        <ele>367.39999389648</ele>
        <time>2023-06-18T08:24:23Z</time>
      </trkpt>
      <trkpt lat="49.42975" lon="5.82128">
        <ele>367.39999389648</ele>
        <time>2023-06-18T08:24:25Z</time>
      </trkpt>
      <trkpt lat="49.42975" lon="5.82128">
        <ele>367.39999389648</ele>
        <time>2023-06-18T08:24:26Z</time>
      </trkpt>
      <trkpt lat="49.42975" lon="5.82128">
        <ele>367.39999389648</ele>
        <time>2023-06-18T08:24:27Z</time>
      </trkpt>
      <trkpt lat="49.42975" lon="5.82128">
        <ele>367.20001220703</ele>
        <time>2023-06-18T08:24:29Z</time>
      </trkpt>
      <trkpt lat="49.42975" lon="5.82128">
        <ele>367.20001220703</ele>
        <time>2023-06-18T08:24:31Z</time>
      </trkpt>
      <trkpt lat="49.42976" lon="5.82129">
        <ele>367.20001220703</ele>
        <time>2023-06-18T08:24:33Z</time>
      </trkpt>
      <trkpt lat="49.42976" lon="5.82129">
        <ele>367.20001220703</ele>
        <time>2023-06-18T08:24:35Z</time>
      </trkpt>
      <trkpt lat="49.42976" lon="5.82129">
        <ele>367.20001220703</ele>
        <time>2023-06-18T08:24:36Z</time>
      </trkpt>
      <trkpt lat="49.42976" lon="5.82129">
        <ele>367.20001220703</ele>
        <time>2023-06-18T08:24:37Z</time>
      </trkpt>
      <trkpt lat="49.42976" lon="5.82129">
        <ele>367.20001220703</ele>
        <time>2023-06-18T08:24:39Z</time>
      </trkpt>
      <trkpt lat="49.42977" lon="5.82129">
        <ele>367.20001220703</ele>
        <time>2023-06-18T08:24:41Z</time>
      </trkpt>
      <trkpt lat="49.42977" lon="5.8213">
        <ele>367.20001220703</ele>
        <time>2023-06-18T08:24:43Z</time>
      </trkpt>
      <trkpt lat="49.42978" lon="5.8213">
        <ele>367.20001220703</ele>
        <time>2023-06-18T08:24:45Z</time>
      </trkpt>
      <trkpt lat="49.42978" lon="5.82131">
        <ele>367.20001220703</ele>
        <time>2023-06-18T08:24:47Z</time>
      </trkpt>
      <trkpt lat="49.42978" lon="5.82131">
        <ele>367.20001220703</ele>
        <time>2023-06-18T08:24:48Z</time>
      </trkpt>
      <trkpt lat="49.42978" lon="5.82131">
        <ele>367.20001220703</ele>
        <time>2023-06-18T08:24:49Z</time>
      </trkpt>
      <trkpt lat="49.42978" lon="5.8213">
        <ele>367.20001220703</ele>
        <time>2023-06-18T08:24:51Z</time>
      </trkpt>
      <trkpt lat="49.42978" lon="5.82131">
        <ele>367.20001220703</ele>
        <time>2023-06-18T08:24:53Z</time>
      </trkpt>
      <trkpt lat="49.42978" lon="5.82131">
        <ele>367.20001220703</ele>
        <time>2023-06-18T08:24:55Z</time>
      </trkpt>
      <trkpt lat="49.42978" lon="5.82131">
        <ele>367.20001220703</ele>
        <time>2023-06-18T08:24:57Z</time>
      </trkpt>
      <trkpt lat="49.42978" lon="5.82131">
        <ele>367.20001220703</ele>
        <time>2023-06-18T08:24:59Z</time>
      </trkpt>
      <trkpt lat="49.42978" lon="5.82131">
        <ele>367.20001220703</ele>
        <time>2023-06-18T08:25:01Z</time>
      </trkpt>
      <trkpt lat="49.42978" lon="5.82131">
        <ele>367.20001220703</ele>
        <time>2023-06-18T08:25:03Z</time>
      </trkpt>
      <trkpt lat="49.42977" lon="5.82132">
        <ele>367.20001220703</ele>
        <time>2023-06-18T08:25:05Z</time>
      </trkpt>
      <trkpt lat="49.42978" lon="5.82133">
        <ele>367.20001220703</ele>
        <time>2023-06-18T08:25:07Z</time>
      </trkpt>
      <trkpt lat="49.42978" lon="5.82134">
        <ele>367.20001220703</ele>
        <time>2023-06-18T08:25:09Z</time>
      </trkpt>
      <trkpt lat="49.42979" lon="5.82134">
        <ele>367.20001220703</ele>
        <time>2023-06-18T08:25:11Z</time>
      </trkpt>
      <trkpt lat="49.42979" lon="5.82135">
        <ele>367.20001220703</ele>
        <time>2023-06-18T08:25:13Z</time>
      </trkpt>
      <trkpt lat="49.42979" lon="5.82135">
        <ele>367.20001220703</ele>
        <time>2023-06-18T08:25:14Z</time>
      </trkpt>
      <trkpt lat="49.42979" lon="5.82135">
        <ele>367.20001220703</ele>
        <time>2023-06-18T08:25:15Z</time>
      </trkpt>
      <trkpt lat="49.42979" lon="5.82135">
        <ele>367.20001220703</ele>
        <time>2023-06-18T08:25:17Z</time>
      </trkpt>
      <trkpt lat="49.42979" lon="5.82135">
        <ele>367.20001220703</ele>
        <time>2023-06-18T08:25:19Z</time>
      </trkpt>
      <trkpt lat="49.4298" lon="5.82136">
        <ele>367.20001220703</ele>
        <time>2023-06-18T08:25:21Z</time>
      </trkpt>
      <trkpt lat="49.4298" lon="5.82137">
        <ele>367.20001220703</ele>
        <time>2023-06-18T08:25:23Z</time>
      </trkpt>
      <trkpt lat="49.4298" lon="5.82137">
        <ele>367.20001220703</ele>
        <time>2023-06-18T08:25:25Z</time>
      </trkpt>
      <trkpt lat="49.4298" lon="5.82137">
        <ele>367.20001220703</ele>
        <time>2023-06-18T08:25:26Z</time>
      </trkpt>
      <trkpt lat="49.4298" lon="5.82137">
        <ele>367.20001220703</ele>
        <time>2023-06-18T08:25:27Z</time>
      </trkpt>
      <trkpt lat="49.4298" lon="5.82137">
        <ele>367.20001220703</ele>
        <time>2023-06-18T08:25:29Z</time>
      </trkpt>
      <trkpt lat="49.42981" lon="5.82138">
        <ele>367.20001220703</ele>
        <time>2023-06-18T08:25:31Z</time>
      </trkpt>
      <trkpt lat="49.42981" lon="5.82138">
        <ele>367.20001220703</ele>
        <time>2023-06-18T08:25:33Z</time>
      </trkpt>
      <trkpt lat="49.42982" lon="5.82139">
        <ele>367.20001220703</ele>
        <time>2023-06-18T08:25:35Z</time>
      </trkpt>
      <trkpt lat="49.42982" lon="5.82139">
        <ele>367.20001220703</ele>
        <time>2023-06-18T08:25:36Z</time>
      </trkpt>
      <trkpt lat="49.42982" lon="5.82139">
        <ele>367.20001220703</ele>
        <time>2023-06-18T08:25:37Z</time>
      </trkpt>
      <trkpt lat="49.42982" lon="5.82139">
        <ele>367.20001220703</ele>
        <time>2023-06-18T08:25:39Z</time>
      </trkpt>
      <trkpt lat="49.42982" lon="5.82139">
        <ele>367.20001220703</ele>
        <time>2023-06-18T08:25:41Z</time>
      </trkpt>
      <trkpt lat="49.42983" lon="5.82139">
        <ele>367</ele>
        <time>2023-06-18T08:25:43Z</time>
      </trkpt>
      <trkpt lat="49.42983" lon="5.82139">
        <ele>367</ele>
        <time>2023-06-18T08:25:45Z</time>
      </trkpt>
      <trkpt lat="49.42983" lon="5.8214">
        <ele>367</ele>
        <time>2023-06-18T08:25:46Z</time>
      </trkpt>
      <trkpt lat="49.42983" lon="5.8214">
        <ele>367</ele>
        <time>2023-06-18T08:25:47Z</time>
      </trkpt>
      <trkpt lat="49.42983" lon="5.8214">
        <ele>367</ele>
        <time>2023-06-18T08:25:49Z</time>
      </trkpt>
      <trkpt lat="49.42983" lon="5.8214">
        <ele>367</ele>
        <time>2023-06-18T08:25:51Z</time>
      </trkpt>
      <trkpt lat="49.42983" lon="5.8214">
        <ele>367</ele>
        <time>2023-06-18T08:25:53Z</time>
      </trkpt>
      <trkpt lat="49.42983" lon="5.82141">
        <ele>367</ele>
        <time>2023-06-18T08:25:55Z</time>
      </trkpt>
      <trkpt lat="49.42983" lon="5.82141">
        <ele>367</ele>
        <time>2023-06-18T08:25:57Z</time>
      </trkpt>
      <trkpt lat="49.42983" lon="5.82141">
        <ele>367</ele>
        <time>2023-06-18T08:25:59Z</time>
      </trkpt>
      <trkpt lat="49.42983" lon="5.82141">
        <ele>367</ele>
        <time>2023-06-18T08:26:01Z</time>
      </trkpt>
      <trkpt lat="49.42983" lon="5.82141">
        <ele>367</ele>
        <time>2023-06-18T08:26:03Z</time>
      </trkpt>
      <trkpt lat="49.42983" lon="5.82142">
        <ele>367</ele>
        <time>2023-06-18T08:26:05Z</time>
      </trkpt>
      <trkpt lat="49.42983" lon="5.82142">
        <ele>367</ele>
        <time>2023-06-18T08:26:07Z</time>
      </trkpt>
      <trkpt lat="49.42983" lon="5.82142">
        <ele>367</ele>
        <time>2023-06-18T08:26:09Z</time>
      </trkpt>
      <trkpt lat="49.42983" lon="5.82142">
        <ele>367</ele>
        <time>2023-06-18T08:26:11Z</time>
      </trkpt>
      <trkpt lat="49.42983" lon="5.82143">
        <ele>367</ele>
        <time>2023-06-18T08:26:13Z</time>
      </trkpt>
      <trkpt lat="49.42984" lon="5.82142">
        <ele>367</ele>
        <time>2023-06-18T08:26:15Z</time>
      </trkpt>
      <trkpt lat="49.42986" lon="5.82142">
        <ele>367</ele>
        <time>2023-06-18T08:26:17Z</time>
      </trkpt>
      <trkpt lat="49.42988" lon="5.82142">
        <ele>367</ele>
        <time>2023-06-18T08:26:19Z</time>
      </trkpt>
      <trkpt lat="49.4299" lon="5.82143">
        <ele>367</ele>
        <time>2023-06-18T08:26:20Z</time>
      </trkpt>
      <trkpt lat="49.42991" lon="5.82143">
        <ele>367</ele>
        <time>2023-06-18T08:26:21Z</time>
      </trkpt>
      <trkpt lat="49.42993" lon="5.82145">
        <ele>367.20001220703</ele>
        <time>2023-06-18T08:26:23Z</time>
      </trkpt>
      <trkpt lat="49.42995" lon="5.82146">
        <ele>367.20001220703</ele>
        <time>2023-06-18T08:26:24Z</time>
      </trkpt>
      <trkpt lat="49.42996" lon="5.82147">
        <ele>367.20001220703</ele>
        <time>2023-06-18T08:26:25Z</time>
      </trkpt>
      <trkpt lat="49.42998" lon="5.82149">
        <ele>367.20001220703</ele>
        <time>2023-06-18T08:26:27Z</time>
      </trkpt>
      <trkpt lat="49.43" lon="5.82152">
        <ele>367.20001220703</ele>
        <time>2023-06-18T08:26:29Z</time>
      </trkpt>
      <trkpt lat="49.43" lon="5.82154">
        <ele>367.39999389648</ele>
        <time>2023-06-18T08:26:31Z</time>
      </trkpt>
      <trkpt lat="49.43001" lon="5.82158">
        <ele>367.60000610352</ele>
        <time>2023-06-18T08:26:33Z</time>
      </trkpt>
      <trkpt lat="49.43001" lon="5.82161">
        <ele>367.60000610352</ele>
        <time>2023-06-18T08:26:35Z</time>
      </trkpt>
      <trkpt lat="49.43002" lon="5.82164">
        <ele>367.79998779297</ele>
        <time>2023-06-18T08:26:37Z</time>
      </trkpt>
      <trkpt lat="49.43003" lon="5.82169">
        <ele>368</ele>
        <time>2023-06-18T08:26:39Z</time>
      </trkpt>
      <trkpt lat="49.43003" lon="5.82171">
        <ele>368</ele>
        <time>2023-06-18T08:26:40Z</time>
      </trkpt>
      <trkpt lat="49.43003" lon="5.82173">
        <ele>368.20001220703</ele>
        <time>2023-06-18T08:26:41Z</time>
      </trkpt>
      <trkpt lat="49.43004" lon="5.82179">
        <ele>368.20001220703</ele>
        <time>2023-06-18T08:26:43Z</time>
      </trkpt>
      <trkpt lat="49.43004" lon="5.82184">
        <ele>368.39999389648</ele>
        <time>2023-06-18T08:26:45Z</time>
      </trkpt>
      <trkpt lat="49.43004" lon="5.82188">
        <ele>368.39999389648</ele>
        <time>2023-06-18T08:26:47Z</time>
      </trkpt>
      <trkpt lat="49.43005" lon="5.82192">
        <ele>368.60000610352</ele>
        <time>2023-06-18T08:26:49Z</time>
      </trkpt>
      <trkpt lat="49.43006" lon="5.82195">
        <ele>368.79998779297</ele>
        <time>2023-06-18T08:26:51Z</time>
      </trkpt>
      <trkpt lat="49.43007" lon="5.82195">
        <ele>368.79998779297</ele>
        <time>2023-06-18T08:26:53Z</time>
      </trkpt>
      <trkpt lat="49.43006" lon="5.82195">
        <ele>368.79998779297</ele>
        <time>2023-06-18T08:26:55Z</time>
      </trkpt>
      <trkpt lat="49.43006" lon="5.82193">
        <ele>368.79998779297</ele>
        <time>2023-06-18T08:26:57Z</time>
      </trkpt>
      <trkpt lat="49.43006" lon="5.82191">
        <ele>368.79998779297</ele>
        <time>2023-06-18T08:26:59Z</time>
      </trkpt>
      <trkpt lat="49.43007" lon="5.82189">
        <ele>368.79998779297</ele>
        <time>2023-06-18T08:27:00Z</time>
      </trkpt>
      <trkpt lat="49.43007" lon="5.82188">
        <ele>368.79998779297</ele>
        <time>2023-06-18T08:27:01Z</time>
      </trkpt>
      <trkpt lat="49.43007" lon="5.82185">
        <ele>368.79998779297</ele>
        <time>2023-06-18T08:27:03Z</time>
      </trkpt>
      <trkpt lat="49.43007" lon="5.82184">
        <ele>368.60000610352</ele>
        <time>2023-06-18T08:27:04Z</time>
      </trkpt>
      <trkpt lat="49.43007" lon="5.82182">
        <ele>368.60000610352</ele>
        <time>2023-06-18T08:27:05Z</time>
      </trkpt>
      <trkpt lat="49.43006" lon="5.82178">
        <ele>368.60000610352</ele>
        <time>2023-06-18T08:27:07Z</time>
      </trkpt>
      <trkpt lat="49.43006" lon="5.82175">
        <ele>368.39999389648</ele>
        <time>2023-06-18T08:27:09Z</time>
      </trkpt>
      <trkpt lat="49.43005" lon="5.82171">
        <ele>368.20001220703</ele>
        <time>2023-06-18T08:27:11Z</time>
      </trkpt>
      <trkpt lat="49.43004" lon="5.82169">
        <ele>368.20001220703</ele>
        <time>2023-06-18T08:27:12Z</time>
      </trkpt>
      <trkpt lat="49.43002" lon="5.82167">
        <ele>368.20001220703</ele>
        <time>2023-06-18T08:27:13Z</time>
      </trkpt>
      <trkpt lat="49.43" lon="5.82163">
        <ele>368</ele>
        <time>2023-06-18T08:27:15Z</time>
      </trkpt>
      <trkpt lat="49.42996" lon="5.82162">
        <ele>367.79998779297</ele>
        <time>2023-06-18T08:27:17Z</time>
      </trkpt>
      <trkpt lat="49.42995" lon="5.82163">
        <ele>367.79998779297</ele>
        <time>2023-06-18T08:27:18Z</time>
      </trkpt>
      <trkpt lat="49.42992" lon="5.82164">
        <ele>367.60000610352</ele>
        <time>2023-06-18T08:27:19Z</time>
      </trkpt>
      <trkpt lat="49.42987" lon="5.82164">
        <ele>367.39999389648</ele>
        <time>2023-06-18T08:27:21Z</time>
      </trkpt>
      <trkpt lat="49.42982" lon="5.82165">
        <ele>367.39999389648</ele>
        <time>2023-06-18T08:27:23Z</time>
      </trkpt>
      <trkpt lat="49.42981" lon="5.82166">
        <ele>367.20001220703</ele>
        <time>2023-06-18T08:27:24Z</time>
      </trkpt>
      <trkpt lat="49.42978" lon="5.82167">
        <ele>367.20001220703</ele>
        <time>2023-06-18T08:27:25Z</time>
      </trkpt>
      <trkpt lat="49.42972" lon="5.82167">
        <ele>367</ele>
        <time>2023-06-18T08:27:27Z</time>
      </trkpt>
      <trkpt lat="49.4297" lon="5.82166">
        <ele>367</ele>
        <time>2023-06-18T08:27:28Z</time>
      </trkpt>
      <trkpt lat="49.42968" lon="5.82166">
        <ele>366.79998779297</ele>
        <time>2023-06-18T08:27:29Z</time>
      </trkpt>
      <trkpt lat="49.42963" lon="5.82169">
        <ele>366.79998779297</ele>
        <time>2023-06-18T08:27:31Z</time>
      </trkpt>
      <trkpt lat="49.42958" lon="5.82172">
        <ele>366.79998779297</ele>
        <time>2023-06-18T08:27:33Z</time>
      </trkpt>
      <trkpt lat="49.42955" lon="5.82172">
        <ele>366.60000610352</ele>
        <time>2023-06-18T08:27:34Z</time>
      </trkpt>
      <trkpt lat="49.42952" lon="5.82174">
        <ele>366.60000610352</ele>
        <time>2023-06-18T08:27:35Z</time>
      </trkpt>
      <trkpt lat="49.42946" lon="5.82178">
        <ele>366.60000610352</ele>
        <time>2023-06-18T08:27:37Z</time>
      </trkpt>
      <trkpt lat="49.4294" lon="5.82181">
        <ele>366.60000610352</ele>
        <time>2023-06-18T08:27:39Z</time>
      </trkpt>
      <trkpt lat="49.42937" lon="5.82184">
        <ele>366.39999389648</ele>
        <time>2023-06-18T08:27:41Z</time>
      </trkpt>
      <trkpt lat="49.42932" lon="5.82188">
        <ele>366.39999389648</ele>
        <time>2023-06-18T08:27:43Z</time>
      </trkpt>
      <trkpt lat="49.4293" lon="5.82192">
        <ele>366.20001220703</ele>
        <time>2023-06-18T08:27:44Z</time>
      </trkpt>
      <trkpt lat="49.42928" lon="5.82195">
        <ele>366.20001220703</ele>
        <time>2023-06-18T08:27:45Z</time>
      </trkpt>
      <trkpt lat="49.42925" lon="5.822">
        <ele>366.20001220703</ele>
        <time>2023-06-18T08:27:46Z</time>
      </trkpt>
      <trkpt lat="49.42922" lon="5.82205">
        <ele>366.20001220703</ele>
        <time>2023-06-18T08:27:47Z</time>
      </trkpt>
      <trkpt lat="49.42917" lon="5.82213">
        <ele>366</ele>
        <time>2023-06-18T08:27:49Z</time>
      </trkpt>
      <trkpt lat="49.42914" lon="5.82224">
        <ele>365.79998779297</ele>
        <time>2023-06-18T08:27:51Z</time>
      </trkpt>
      <trkpt lat="49.42913" lon="5.82228">
        <ele>365.60000610352</ele>
        <time>2023-06-18T08:27:52Z</time>
      </trkpt>
      <trkpt lat="49.42911" lon="5.82233">
        <ele>365.39999389648</ele>
        <time>2023-06-18T08:27:53Z</time>
      </trkpt>
      <trkpt lat="49.42909" lon="5.82238">
        <ele>365.20001220703</ele>
        <time>2023-06-18T08:27:54Z</time>
      </trkpt>
      <trkpt lat="49.42908" lon="5.82243">
        <ele>365</ele>
        <time>2023-06-18T08:27:55Z</time>
      </trkpt>
      <trkpt lat="49.42906" lon="5.82254">
        <ele>364.79998779297</ele>
        <time>2023-06-18T08:27:57Z</time>
      </trkpt>
      <trkpt lat="49.42905" lon="5.82264">
        <ele>364.79998779297</ele>
        <time>2023-06-18T08:27:59Z</time>
      </trkpt>
      <trkpt lat="49.42903" lon="5.82275">
        <ele>364.79998779297</ele>
        <time>2023-06-18T08:28:01Z</time>
      </trkpt>
      <trkpt lat="49.42902" lon="5.82281">
        <ele>364.79998779297</ele>
        <time>2023-06-18T08:28:02Z</time>
      </trkpt>
      <trkpt lat="49.42901" lon="5.82285">
        <ele>364.79998779297</ele>
        <time>2023-06-18T08:28:03Z</time>
      </trkpt>
      <trkpt lat="49.42897" lon="5.8229">
        <ele>364.79998779297</ele>
        <time>2023-06-18T08:28:05Z</time>
      </trkpt>
      <trkpt lat="49.42894" lon="5.82292">
        <ele>364.79998779297</ele>
        <time>2023-06-18T08:28:06Z</time>
      </trkpt>
      <trkpt lat="49.42892" lon="5.82294">
        <ele>364.60000610352</ele>
        <time>2023-06-18T08:28:07Z</time>
      </trkpt>
      <trkpt lat="49.42884" lon="5.82297">
        <ele>364.60000610352</ele>
        <time>2023-06-18T08:28:09Z</time>
      </trkpt>
      <trkpt lat="49.4288" lon="5.82298">
        <ele>364.60000610352</ele>
        <time>2023-06-18T08:28:10Z</time>
      </trkpt>
      <trkpt lat="49.42875" lon="5.823">
        <ele>364.60000610352</ele>
        <time>2023-06-18T08:28:11Z</time>
      </trkpt>
      <trkpt lat="49.42864" lon="5.82301">
        <ele>364.39999389648</ele>
        <time>2023-06-18T08:28:13Z</time>
      </trkpt>
      <trkpt lat="49.42857" lon="5.82302">
        <ele>364.20001220703</ele>
        <time>2023-06-18T08:28:14Z</time>
      </trkpt>
      <trkpt lat="49.42851" lon="5.82306">
        <ele>364</ele>
        <time>2023-06-18T08:28:15Z</time>
      </trkpt>
      <trkpt lat="49.4284" lon="5.82313">
        <ele>363.20001220703</ele>
        <time>2023-06-18T08:28:17Z</time>
      </trkpt>
      <trkpt lat="49.42835" lon="5.82316">
        <ele>362.39999389648</ele>
        <time>2023-06-18T08:28:18Z</time>
      </trkpt>
      <trkpt lat="49.42831" lon="5.82318">
        <ele>361.60000610352</ele>
        <time>2023-06-18T08:28:19Z</time>
      </trkpt>
      <trkpt lat="49.42826" lon="5.82321">
        <ele>361.20001220703</ele>
        <time>2023-06-18T08:28:20Z</time>
      </trkpt>
      <trkpt lat="49.42822" lon="5.82325">
        <ele>360.39999389648</ele>
        <time>2023-06-18T08:28:21Z</time>
      </trkpt>
      <trkpt lat="49.42819" lon="5.82329">
        <ele>359.79998779297</ele>
        <time>2023-06-18T08:28:22Z</time>
      </trkpt>
      <trkpt lat="49.42815" lon="5.82333">
        <ele>359.20001220703</ele>
        <time>2023-06-18T08:28:23Z</time>
      </trkpt>
      <trkpt lat="49.42813" lon="5.82338">
        <ele>358.39999389648</ele>
        <time>2023-06-18T08:28:24Z</time>
      </trkpt>
      <trkpt lat="49.42811" lon="5.82342">
        <ele>357.39999389648</ele>
        <time>2023-06-18T08:28:25Z</time>
      </trkpt>
      <trkpt lat="49.4281" lon="5.82346">
        <ele>356.60000610352</ele>
        <time>2023-06-18T08:28:26Z</time>
      </trkpt>
      <trkpt lat="49.4281" lon="5.8235">
        <ele>356.20001220703</ele>
        <time>2023-06-18T08:28:27Z</time>
      </trkpt>
      <trkpt lat="49.4281" lon="5.82354">
        <ele>355.20001220703</ele>
        <time>2023-06-18T08:28:29Z</time>
      </trkpt>
      <trkpt lat="49.42811" lon="5.82359">
        <ele>354</ele>
        <time>2023-06-18T08:28:31Z</time>
      </trkpt>
      <trkpt lat="49.42811" lon="5.82362">
        <ele>352.60000610352</ele>
        <time>2023-06-18T08:28:32Z</time>
      </trkpt>
      <trkpt lat="49.42812" lon="5.82366">
        <ele>352.39999389648</ele>
        <time>2023-06-18T08:28:33Z</time>
      </trkpt>
      <trkpt lat="49.42813" lon="5.82372">
        <ele>352.20001220703</ele>
        <time>2023-06-18T08:28:35Z</time>
      </trkpt>
      <trkpt lat="49.42815" lon="5.82379">
        <ele>352.20001220703</ele>
        <time>2023-06-18T08:28:37Z</time>
      </trkpt>
      <trkpt lat="49.42817" lon="5.82385">
        <ele>352</ele>
        <time>2023-06-18T08:28:39Z</time>
      </trkpt>
      <trkpt lat="49.42818" lon="5.82388">
        <ele>352</ele>
        <time>2023-06-18T08:28:40Z</time>
      </trkpt>
      <trkpt lat="49.42818" lon="5.82391">
        <ele>352</ele>
        <time>2023-06-18T08:28:41Z</time>
      </trkpt>
      <trkpt lat="49.4282" lon="5.82399">
        <ele>352.20001220703</ele>
        <time>2023-06-18T08:28:43Z</time>
      </trkpt>
      <trkpt lat="49.42821" lon="5.82406">
        <ele>352.39999389648</ele>
        <time>2023-06-18T08:28:45Z</time>
      </trkpt>
      <trkpt lat="49.42822" lon="5.8241">
        <ele>352.39999389648</ele>
        <time>2023-06-18T08:28:46Z</time>
      </trkpt>
      <trkpt lat="49.42823" lon="5.82414">
        <ele>352.60000610352</ele>
        <time>2023-06-18T08:28:47Z</time>
      </trkpt>
      <trkpt lat="49.42823" lon="5.82421">
        <ele>352.79998779297</ele>
        <time>2023-06-18T08:28:49Z</time>
      </trkpt>
      <trkpt lat="49.42825" lon="5.82427">
        <ele>353.39999389648</ele>
        <time>2023-06-18T08:28:51Z</time>
      </trkpt>
      <trkpt lat="49.42826" lon="5.8243">
        <ele>353.60000610352</ele>
        <time>2023-06-18T08:28:52Z</time>
      </trkpt>
      <trkpt lat="49.42827" lon="5.82433">
        <ele>353.60000610352</ele>
        <time>2023-06-18T08:28:53Z</time>
      </trkpt>
      <trkpt lat="49.42829" lon="5.82438">
        <ele>354.20001220703</ele>
        <time>2023-06-18T08:28:55Z</time>
      </trkpt>
      <trkpt lat="49.4283" lon="5.82443">
        <ele>354.79998779297</ele>
        <time>2023-06-18T08:28:57Z</time>
      </trkpt>
      <trkpt lat="49.42831" lon="5.82445">
        <ele>355</ele>
        <time>2023-06-18T08:28:58Z</time>
      </trkpt>
      <trkpt lat="49.42832" lon="5.82447">
        <ele>355.39999389648</ele>
        <time>2023-06-18T08:28:59Z</time>
      </trkpt>
      <trkpt lat="49.42834" lon="5.82453">
        <ele>355.60000610352</ele>
        <time>2023-06-18T08:29:01Z</time>
      </trkpt>
      <trkpt lat="49.42834" lon="5.82456">
        <ele>355.79998779297</ele>
        <time>2023-06-18T08:29:02Z</time>
      </trkpt>
      <trkpt lat="49.42836" lon="5.82458">
        <ele>356</ele>
        <time>2023-06-18T08:29:03Z</time>
      </trkpt>
      <trkpt lat="49.42837" lon="5.82464">
        <ele>356.39999389648</ele>
        <time>2023-06-18T08:29:05Z</time>
      </trkpt>
      <trkpt lat="49.4284" lon="5.8247">
        <ele>356.79998779297</ele>
        <time>2023-06-18T08:29:07Z</time>
      </trkpt>
      <trkpt lat="49.42842" lon="5.82474">
        <ele>357.20001220703</ele>
        <time>2023-06-18T08:29:09Z</time>
      </trkpt>
      <trkpt lat="49.42844" lon="5.82478">
        <ele>357.39999389648</ele>
        <time>2023-06-18T08:29:11Z</time>
      </trkpt>
      <trkpt lat="49.42846" lon="5.82481">
        <ele>357.60000610352</ele>
        <time>2023-06-18T08:29:13Z</time>
      </trkpt>
      <trkpt lat="49.42849" lon="5.82487">
        <ele>358</ele>
        <time>2023-06-18T08:29:15Z</time>
      </trkpt>
      <trkpt lat="49.42852" lon="5.82492">
        <ele>358.39999389648</ele>
        <time>2023-06-18T08:29:17Z</time>
      </trkpt>
      <trkpt lat="49.42855" lon="5.82497">
        <ele>358.79998779297</ele>
        <time>2023-06-18T08:29:19Z</time>
      </trkpt>
      <trkpt lat="49.42856" lon="5.825">
        <ele>359.20001220703</ele>
        <time>2023-06-18T08:29:20Z</time>
      </trkpt>
      <trkpt lat="49.42857" lon="5.82502">
        <ele>359.20001220703</ele>
        <time>2023-06-18T08:29:21Z</time>
      </trkpt>
      <trkpt lat="49.42861" lon="5.82507">
        <ele>359.60000610352</ele>
        <time>2023-06-18T08:29:23Z</time>
      </trkpt>
      <trkpt lat="49.42863" lon="5.82513">
        <ele>360</ele>
        <time>2023-06-18T08:29:25Z</time>
      </trkpt>
      <trkpt lat="49.42866" lon="5.82517">
        <ele>360.39999389648</ele>
        <time>2023-06-18T08:29:27Z</time>
      </trkpt>
      <trkpt lat="49.4287" lon="5.82523">
        <ele>360.79998779297</ele>
        <time>2023-06-18T08:29:29Z</time>
      </trkpt>
      <trkpt lat="49.42873" lon="5.82529">
        <ele>361.20001220703</ele>
        <time>2023-06-18T08:29:31Z</time>
      </trkpt>
      <trkpt lat="49.42877" lon="5.82533">
        <ele>361.39999389648</ele>
        <time>2023-06-18T08:29:33Z</time>
      </trkpt>
      <trkpt lat="49.42879" lon="5.82535">
        <ele>361.60000610352</ele>
        <time>2023-06-18T08:29:34Z</time>
      </trkpt>
      <trkpt lat="49.42881" lon="5.82537">
        <ele>361.79998779297</ele>
        <time>2023-06-18T08:29:35Z</time>
      </trkpt>
      <trkpt lat="49.42885" lon="5.82542">
        <ele>362.39999389648</ele>
        <time>2023-06-18T08:29:37Z</time>
      </trkpt>
      <trkpt lat="49.42889" lon="5.82546">
        <ele>362.79998779297</ele>
        <time>2023-06-18T08:29:39Z</time>
      </trkpt>
      <trkpt lat="49.42894" lon="5.8255">
        <ele>363</ele>
        <time>2023-06-18T08:29:41Z</time>
      </trkpt>
      <trkpt lat="49.42898" lon="5.82553">
        <ele>363.39999389648</ele>
        <time>2023-06-18T08:29:43Z</time>
      </trkpt>
      <trkpt lat="49.42902" lon="5.82556">
        <ele>363.60000610352</ele>
        <time>2023-06-18T08:29:45Z</time>
      </trkpt>
      <trkpt lat="49.42906" lon="5.82559">
        <ele>363.79998779297</ele>
        <time>2023-06-18T08:29:47Z</time>
      </trkpt>
      <trkpt lat="49.42908" lon="5.82561">
        <ele>363.79998779297</ele>
        <time>2023-06-18T08:29:48Z</time>
      </trkpt>
      <trkpt lat="49.4291" lon="5.82563">
        <ele>364</ele>
        <time>2023-06-18T08:29:49Z</time>
      </trkpt>
      <trkpt lat="49.42913" lon="5.82566">
        <ele>364.39999389648</ele>
        <time>2023-06-18T08:29:51Z</time>
      </trkpt>
      <trkpt lat="49.42917" lon="5.82568">
        <ele>365</ele>
        <time>2023-06-18T08:29:53Z</time>
      </trkpt>
      <trkpt lat="49.4292" lon="5.82571">
        <ele>365.60000610352</ele>
        <time>2023-06-18T08:29:55Z</time>
      </trkpt>
      <trkpt lat="49.42922" lon="5.82574">
        <ele>366</ele>
        <time>2023-06-18T08:29:57Z</time>
      </trkpt>
      <trkpt lat="49.42924" lon="5.82578">
        <ele>366.60000610352</ele>
        <time>2023-06-18T08:29:59Z</time>
      </trkpt>
      <trkpt lat="49.42926" lon="5.82583">
        <ele>367</ele>
        <time>2023-06-18T08:30:01Z</time>
      </trkpt>
      <trkpt lat="49.42926" lon="5.82586">
        <ele>367.20001220703</ele>
        <time>2023-06-18T08:30:02Z</time>
      </trkpt>
      <trkpt lat="49.42927" lon="5.82588">
        <ele>367.20001220703</ele>
        <time>2023-06-18T08:30:03Z</time>
      </trkpt>
      <trkpt lat="49.42928" lon="5.82593">
        <ele>367.39999389648</ele>
        <time>2023-06-18T08:30:05Z</time>
      </trkpt>
      <trkpt lat="49.4293" lon="5.82598">
        <ele>367.60000610352</ele>
        <time>2023-06-18T08:30:07Z</time>
      </trkpt>
      <trkpt lat="49.4293" lon="5.826">
        <ele>367.60000610352</ele>
        <time>2023-06-18T08:30:08Z</time>
      </trkpt>
      <trkpt lat="49.4293" lon="5.82603">
        <ele>367.79998779297</ele>
        <time>2023-06-18T08:30:09Z</time>
      </trkpt>
      <trkpt lat="49.42931" lon="5.82607">
        <ele>368</ele>
        <time>2023-06-18T08:30:11Z</time>
      </trkpt>
      <trkpt lat="49.42932" lon="5.82611">
        <ele>368</ele>
        <time>2023-06-18T08:30:13Z</time>
      </trkpt>
      <trkpt lat="49.42933" lon="5.82617">
        <ele>368.20001220703</ele>
        <time>2023-06-18T08:30:15Z</time>
      </trkpt>
      <trkpt lat="49.42933" lon="5.8262">
        <ele>368.39999389648</ele>
        <time>2023-06-18T08:30:16Z</time>
      </trkpt>
      <trkpt lat="49.42934" lon="5.82623">
        <ele>368.39999389648</ele>
        <time>2023-06-18T08:30:17Z</time>
      </trkpt>
      <trkpt lat="49.42935" lon="5.82628">
        <ele>368.60000610352</ele>
        <time>2023-06-18T08:30:19Z</time>
      </trkpt>
      <trkpt lat="49.42937" lon="5.82634">
        <ele>368.60000610352</ele>
        <time>2023-06-18T08:30:21Z</time>
      </trkpt>
      <trkpt lat="49.42938" lon="5.8264">
        <ele>368.79998779297</ele>
        <time>2023-06-18T08:30:23Z</time>
      </trkpt>
      <trkpt lat="49.42939" lon="5.82642">
        <ele>369</ele>
        <time>2023-06-18T08:30:24Z</time>
      </trkpt>
      <trkpt lat="49.42939" lon="5.82644">
        <ele>369</ele>
        <time>2023-06-18T08:30:25Z</time>
      </trkpt>
      <trkpt lat="49.4294" lon="5.8265">
        <ele>369</ele>
        <time>2023-06-18T08:30:27Z</time>
      </trkpt>
      <trkpt lat="49.42942" lon="5.82657">
        <ele>369.39999389648</ele>
        <time>2023-06-18T08:30:29Z</time>
      </trkpt>
      <trkpt lat="49.42943" lon="5.82661">
        <ele>369.39999389648</ele>
        <time>2023-06-18T08:30:30Z</time>
      </trkpt>
      <trkpt lat="49.42943" lon="5.82665">
        <ele>369.60000610352</ele>
        <time>2023-06-18T08:30:31Z</time>
      </trkpt>
      <trkpt lat="49.42945" lon="5.82672">
        <ele>369.60000610352</ele>
        <time>2023-06-18T08:30:33Z</time>
      </trkpt>
      <trkpt lat="49.42946" lon="5.82678">
        <ele>370</ele>
        <time>2023-06-18T08:30:35Z</time>
      </trkpt>
      <trkpt lat="49.4295" lon="5.82685">
        <ele>370.20001220703</ele>
        <time>2023-06-18T08:30:37Z</time>
      </trkpt>
      <trkpt lat="49.42951" lon="5.82689">
        <ele>370.20001220703</ele>
        <time>2023-06-18T08:30:38Z</time>
      </trkpt>
      <trkpt lat="49.42952" lon="5.82692">
        <ele>370</ele>
        <time>2023-06-18T08:30:39Z</time>
      </trkpt>
      <trkpt lat="49.42954" lon="5.82698">
        <ele>370.39999389648</ele>
        <time>2023-06-18T08:30:41Z</time>
      </trkpt>
      <trkpt lat="49.42955" lon="5.82701">
        <ele>370.20001220703</ele>
        <time>2023-06-18T08:30:42Z</time>
      </trkpt>
      <trkpt lat="49.42955" lon="5.82705">
        <ele>370.60000610352</ele>
        <time>2023-06-18T08:30:43Z</time>
      </trkpt>
      <trkpt lat="49.42957" lon="5.82711">
        <ele>370.60000610352</ele>
        <time>2023-06-18T08:30:45Z</time>
      </trkpt>
      <trkpt lat="49.42958" lon="5.82717">
        <ele>370.60000610352</ele>
        <time>2023-06-18T08:30:47Z</time>
      </trkpt>
      <trkpt lat="49.42961" lon="5.82726">
        <ele>370.79998779297</ele>
        <time>2023-06-18T08:30:49Z</time>
      </trkpt>
      <trkpt lat="49.42962" lon="5.8273">
        <ele>370.79998779297</ele>
        <time>2023-06-18T08:30:50Z</time>
      </trkpt>
      <trkpt lat="49.42963" lon="5.82734">
        <ele>370.79998779297</ele>
        <time>2023-06-18T08:30:51Z</time>
      </trkpt>
      <trkpt lat="49.42966" lon="5.82742">
        <ele>370.79998779297</ele>
        <time>2023-06-18T08:30:53Z</time>
      </trkpt>
      <trkpt lat="49.42967" lon="5.82746">
        <ele>371</ele>
        <time>2023-06-18T08:30:54Z</time>
      </trkpt>
      <trkpt lat="49.42968" lon="5.8275">
        <ele>371</ele>
        <time>2023-06-18T08:30:55Z</time>
      </trkpt>
      <trkpt lat="49.42969" lon="5.82753">
        <ele>371</ele>
        <time>2023-06-18T08:30:56Z</time>
      </trkpt>
      <trkpt lat="49.4297" lon="5.82756">
        <ele>371</ele>
        <time>2023-06-18T08:30:57Z</time>
      </trkpt>
      <trkpt lat="49.42972" lon="5.82763">
        <ele>371.20001220703</ele>
        <time>2023-06-18T08:30:59Z</time>
      </trkpt>
      <trkpt lat="49.42974" lon="5.82771">
        <ele>371.20001220703</ele>
        <time>2023-06-18T08:31:01Z</time>
      </trkpt>
      <trkpt lat="49.42975" lon="5.82779">
        <ele>371.20001220703</ele>
        <time>2023-06-18T08:31:03Z</time>
      </trkpt>
      <trkpt lat="49.42976" lon="5.82783">
        <ele>371.39999389648</ele>
        <time>2023-06-18T08:31:04Z</time>
      </trkpt>
      <trkpt lat="49.42978" lon="5.82789">
        <ele>371.39999389648</ele>
        <time>2023-06-18T08:31:05Z</time>
      </trkpt>
      <trkpt lat="49.42978" lon="5.82801">
        <ele>371.60000610352</ele>
        <time>2023-06-18T08:31:07Z</time>
      </trkpt>
      <trkpt lat="49.42978" lon="5.82806">
        <ele>371.60000610352</ele>
        <time>2023-06-18T08:31:08Z</time>
      </trkpt>
      <trkpt lat="49.42977" lon="5.82813">
        <ele>371.60000610352</ele>
        <time>2023-06-18T08:31:09Z</time>
      </trkpt>
      <trkpt lat="49.42974" lon="5.82822">
        <ele>371.79998779297</ele>
        <time>2023-06-18T08:31:11Z</time>
      </trkpt>
      <trkpt lat="49.42972" lon="5.82823">
        <ele>371.79998779297</ele>
        <time>2023-06-18T08:31:12Z</time>
      </trkpt>
      <trkpt lat="49.4297" lon="5.82826">
        <ele>371.79998779297</ele>
        <time>2023-06-18T08:31:13Z</time>
      </trkpt>
      <trkpt lat="49.42964" lon="5.8283">
        <ele>371.79998779297</ele>
        <time>2023-06-18T08:31:15Z</time>
      </trkpt>
      <trkpt lat="49.42958" lon="5.82835">
        <ele>371.79998779297</ele>
        <time>2023-06-18T08:31:17Z</time>
      </trkpt>
      <trkpt lat="49.42953" lon="5.82841">
        <ele>371.60000610352</ele>
        <time>2023-06-18T08:31:19Z</time>
      </trkpt>
      <trkpt lat="49.42948" lon="5.82848">
        <ele>371.39999389648</ele>
        <time>2023-06-18T08:31:21Z</time>
      </trkpt>
      <trkpt lat="49.42945" lon="5.82852">
        <ele>371</ele>
        <time>2023-06-18T08:31:22Z</time>
      </trkpt>
      <trkpt lat="49.42941" lon="5.82856">
        <ele>370.79998779297</ele>
        <time>2023-06-18T08:31:23Z</time>
      </trkpt>
      <trkpt lat="49.42936" lon="5.82861">
        <ele>370.39999389648</ele>
        <time>2023-06-18T08:31:24Z</time>
      </trkpt>
      <trkpt lat="49.42931" lon="5.82866">
        <ele>370</ele>
        <time>2023-06-18T08:31:25Z</time>
      </trkpt>
      <trkpt lat="49.42921" lon="5.82875">
        <ele>369.60000610352</ele>
        <time>2023-06-18T08:31:27Z</time>
      </trkpt>
      <trkpt lat="49.42917" lon="5.82881">
        <ele>369.39999389648</ele>
        <time>2023-06-18T08:31:28Z</time>
      </trkpt>
      <trkpt lat="49.42912" lon="5.82886">
        <ele>369.20001220703</ele>
        <time>2023-06-18T08:31:29Z</time>
      </trkpt>
      <trkpt lat="49.42902" lon="5.82895">
        <ele>368.60000610352</ele>
        <time>2023-06-18T08:31:31Z</time>
      </trkpt>
      <trkpt lat="49.42898" lon="5.82899">
        <ele>368.39999389648</ele>
        <time>2023-06-18T08:31:32Z</time>
      </trkpt>
      <trkpt lat="49.42894" lon="5.82904">
        <ele>368.20001220703</ele>
        <time>2023-06-18T08:31:33Z</time>
      </trkpt>
      <trkpt lat="49.4289" lon="5.82909">
        <ele>368.20001220703</ele>
        <time>2023-06-18T08:31:34Z</time>
      </trkpt>
      <trkpt lat="49.42886" lon="5.82913">
        <ele>368</ele>
        <time>2023-06-18T08:31:35Z</time>
      </trkpt>
      <trkpt lat="49.42883" lon="5.82921">
        <ele>367.79998779297</ele>
        <time>2023-06-18T08:31:36Z</time>
      </trkpt>
      <trkpt lat="49.42881" lon="5.82927">
        <ele>367.79998779297</ele>
        <time>2023-06-18T08:31:37Z</time>
      </trkpt>
      <trkpt lat="49.4288" lon="5.82934">
        <ele>367.79998779297</ele>
        <time>2023-06-18T08:31:38Z</time>
      </trkpt>
      <trkpt lat="49.42878" lon="5.82942">
        <ele>367.60000610352</ele>
        <time>2023-06-18T08:31:39Z</time>
      </trkpt>
      <trkpt lat="49.42877" lon="5.82951">
        <ele>367.20001220703</ele>
        <time>2023-06-18T08:31:40Z</time>
      </trkpt>
      <trkpt lat="49.42876" lon="5.8296">
        <ele>367</ele>
        <time>2023-06-18T08:31:41Z</time>
      </trkpt>
      <trkpt lat="49.42874" lon="5.82977">
        <ele>365.60000610352</ele>
        <time>2023-06-18T08:31:43Z</time>
      </trkpt>
      <trkpt lat="49.42871" lon="5.82994">
        <ele>365.20001220703</ele>
        <time>2023-06-18T08:31:45Z</time>
      </trkpt>
      <trkpt lat="49.42867" lon="5.83012">
        <ele>365</ele>
        <time>2023-06-18T08:31:47Z</time>
      </trkpt>
      <trkpt lat="49.42863" lon="5.8303">
        <ele>364.60000610352</ele>
        <time>2023-06-18T08:31:49Z</time>
      </trkpt>
      <trkpt lat="49.42856" lon="5.83048">
        <ele>364.39999389648</ele>
        <time>2023-06-18T08:31:51Z</time>
      </trkpt>
      <trkpt lat="49.42846" lon="5.83069">
        <ele>363.39999389648</ele>
        <time>2023-06-18T08:31:53Z</time>
      </trkpt>
      <trkpt lat="49.4284" lon="5.8308">
        <ele>363.20001220703</ele>
        <time>2023-06-18T08:31:54Z</time>
      </trkpt>
      <trkpt lat="49.42835" lon="5.8309">
        <ele>362.79998779297</ele>
        <time>2023-06-18T08:31:55Z</time>
      </trkpt>
      <trkpt lat="49.4283" lon="5.83099">
        <ele>362.20001220703</ele>
        <time>2023-06-18T08:31:56Z</time>
      </trkpt>
      <trkpt lat="49.42827" lon="5.83108">
        <ele>361.79998779297</ele>
        <time>2023-06-18T08:31:57Z</time>
      </trkpt>
      <trkpt lat="49.42823" lon="5.83118">
        <ele>361.39999389648</ele>
        <time>2023-06-18T08:31:58Z</time>
      </trkpt>
      <trkpt lat="49.4282" lon="5.83127">
        <ele>360.60000610352</ele>
        <time>2023-06-18T08:31:59Z</time>
      </trkpt>
      <trkpt lat="49.42814" lon="5.83143">
        <ele>359</ele>
        <time>2023-06-18T08:32:01Z</time>
      </trkpt>
      <trkpt lat="49.42811" lon="5.83154">
        <ele>357.79998779297</ele>
        <time>2023-06-18T08:32:03Z</time>
      </trkpt>
      <trkpt lat="49.42809" lon="5.83166">
        <ele>357.39999389648</ele>
        <time>2023-06-18T08:32:05Z</time>
      </trkpt>
      <trkpt lat="49.42808" lon="5.83174">
        <ele>357.20001220703</ele>
        <time>2023-06-18T08:32:06Z</time>
      </trkpt>
      <trkpt lat="49.42808" lon="5.83181">
        <ele>356.60000610352</ele>
        <time>2023-06-18T08:32:07Z</time>
      </trkpt>
      <trkpt lat="49.42808" lon="5.83189">
        <ele>356.39999389648</ele>
        <time>2023-06-18T08:32:08Z</time>
      </trkpt>
      <trkpt lat="49.42808" lon="5.83199">
        <ele>355.79998779297</ele>
        <time>2023-06-18T08:32:09Z</time>
      </trkpt>
      <trkpt lat="49.42808" lon="5.83208">
        <ele>355</ele>
        <time>2023-06-18T08:32:10Z</time>
      </trkpt>
      <trkpt lat="49.42808" lon="5.83217">
        <ele>354</ele>
        <time>2023-06-18T08:32:11Z</time>
      </trkpt>
      <trkpt lat="49.42806" lon="5.83227">
        <ele>353.39999389648</ele>
        <time>2023-06-18T08:32:12Z</time>
      </trkpt>
      <trkpt lat="49.42804" lon="5.83234">
        <ele>352.79998779297</ele>
        <time>2023-06-18T08:32:13Z</time>
      </trkpt>
      <trkpt lat="49.42802" lon="5.83242">
        <ele>351.60000610352</ele>
        <time>2023-06-18T08:32:15Z</time>
      </trkpt>
      <trkpt lat="49.42801" lon="5.83244">
        <ele>350.60000610352</ele>
        <time>2023-06-18T08:32:16Z</time>
      </trkpt>
      <trkpt lat="49.428" lon="5.83247">
        <ele>350</ele>
        <time>2023-06-18T08:32:17Z</time>
      </trkpt>
      <trkpt lat="49.42798" lon="5.83252">
        <ele>349.60000610352</ele>
        <time>2023-06-18T08:32:19Z</time>
      </trkpt>
      <trkpt lat="49.42797" lon="5.83255">
        <ele>349.60000610352</ele>
        <time>2023-06-18T08:32:21Z</time>
      </trkpt>
      <trkpt lat="49.42796" lon="5.83258">
        <ele>349.39999389648</ele>
        <time>2023-06-18T08:32:23Z</time>
      </trkpt>
      <trkpt lat="49.42793" lon="5.83262">
        <ele>349.39999389648</ele>
        <time>2023-06-18T08:32:25Z</time>
      </trkpt>
      <trkpt lat="49.42792" lon="5.83264">
        <ele>349.39999389648</ele>
        <time>2023-06-18T08:32:26Z</time>
      </trkpt>
      <trkpt lat="49.42791" lon="5.83265">
        <ele>349.39999389648</ele>
        <time>2023-06-18T08:32:27Z</time>
      </trkpt>
      <trkpt lat="49.42789" lon="5.83266">
        <ele>349.39999389648</ele>
        <time>2023-06-18T08:32:29Z</time>
      </trkpt>
      <trkpt lat="49.42791" lon="5.83267">
        <ele>349.39999389648</ele>
        <time>2023-06-18T08:32:31Z</time>
      </trkpt>
      <trkpt lat="49.4279" lon="5.83269">
        <ele>349.39999389648</ele>
        <time>2023-06-18T08:32:33Z</time>
      </trkpt>
      <trkpt lat="49.42789" lon="5.83271">
        <ele>349.39999389648</ele>
        <time>2023-06-18T08:32:35Z</time>
      </trkpt>
      <trkpt lat="49.42788" lon="5.83271">
        <ele>349.39999389648</ele>
        <time>2023-06-18T08:32:36Z</time>
      </trkpt>
      <trkpt lat="49.42788" lon="5.83272">
        <ele>349.39999389648</ele>
        <time>2023-06-18T08:32:37Z</time>
      </trkpt>
      <trkpt lat="49.42787" lon="5.83273">
        <ele>349.20001220703</ele>
        <time>2023-06-18T08:32:39Z</time>
      </trkpt>
      <trkpt lat="49.42786" lon="5.83273">
        <ele>349</ele>
        <time>2023-06-18T08:32:41Z</time>
      </trkpt>
      <trkpt lat="49.42784" lon="5.83273">
        <ele>349</ele>
        <time>2023-06-18T08:32:43Z</time>
      </trkpt>
      <trkpt lat="49.42784" lon="5.83272">
        <ele>349</ele>
        <time>2023-06-18T08:32:45Z</time>
      </trkpt>
      <trkpt lat="49.42783" lon="5.83273">
        <ele>349</ele>
        <time>2023-06-18T08:32:47Z</time>
      </trkpt>
      <trkpt lat="49.42783" lon="5.83273">
        <ele>349</ele>
        <time>2023-06-18T08:32:49Z</time>
      </trkpt>
      <trkpt lat="49.42783" lon="5.83273">
        <ele>349</ele>
        <time>2023-06-18T08:32:51Z</time>
      </trkpt>
      <trkpt lat="49.42783" lon="5.83272">
        <ele>349</ele>
        <time>2023-06-18T08:32:53Z</time>
      </trkpt>
      <trkpt lat="49.42783" lon="5.83272">
        <ele>349</ele>
        <time>2023-06-18T08:32:55Z</time>
      </trkpt>
      <trkpt lat="49.42783" lon="5.83272">
        <ele>349</ele>
        <time>2023-06-18T08:32:57Z</time>
      </trkpt>
      <trkpt lat="49.42783" lon="5.83272">
        <ele>349</ele>
        <time>2023-06-18T08:32:59Z</time>
      </trkpt>
      <trkpt lat="49.42783" lon="5.83272">
        <ele>349</ele>
        <time>2023-06-18T08:33:01Z</time>
      </trkpt>
      <trkpt lat="49.42783" lon="5.83272">
        <ele>349</ele>
        <time>2023-06-18T08:33:03Z</time>
      </trkpt>
      <trkpt lat="49.42783" lon="5.83272">
        <ele>349</ele>
        <time>2023-06-18T08:33:05Z</time>
      </trkpt>
      <trkpt lat="49.42783" lon="5.83272">
        <ele>349</ele>
        <time>2023-06-18T08:33:07Z</time>
      </trkpt>
      <trkpt lat="49.42783" lon="5.83272">
        <ele>349</ele>
        <time>2023-06-18T08:33:09Z</time>
      </trkpt>
      <trkpt lat="49.42783" lon="5.83273">
        <ele>349</ele>
        <time>2023-06-18T08:33:11Z</time>
      </trkpt>
      <trkpt lat="49.42783" lon="5.83273">
        <ele>349</ele>
        <time>2023-06-18T08:33:13Z</time>
      </trkpt>
      <trkpt lat="49.42783" lon="5.83273">
        <ele>349</ele>
        <time>2023-06-18T08:33:15Z</time>
      </trkpt>
      <trkpt lat="49.42783" lon="5.83273">
        <ele>348.79998779297</ele>
        <time>2023-06-18T08:33:17Z</time>
      </trkpt>
      <trkpt lat="49.42782" lon="5.83273">
        <ele>348.79998779297</ele>
        <time>2023-06-18T08:33:19Z</time>
      </trkpt>
      <trkpt lat="49.42782" lon="5.83273">
        <ele>348.79998779297</ele>
        <time>2023-06-18T08:33:21Z</time>
      </trkpt>
      <trkpt lat="49.42782" lon="5.83273">
        <ele>348.79998779297</ele>
        <time>2023-06-18T08:33:23Z</time>
      </trkpt>
      <trkpt lat="49.42782" lon="5.83274">
        <ele>348.79998779297</ele>
        <time>2023-06-18T08:33:25Z</time>
      </trkpt>
      <trkpt lat="49.42782" lon="5.83275">
        <ele>348.79998779297</ele>
        <time>2023-06-18T08:33:27Z</time>
      </trkpt>
      <trkpt lat="49.42782" lon="5.83275">
        <ele>349</ele>
        <time>2023-06-18T08:33:29Z</time>
      </trkpt>
      <trkpt lat="49.42782" lon="5.83276">
        <ele>349</ele>
        <time>2023-06-18T08:33:31Z</time>
      </trkpt>
      <trkpt lat="49.42782" lon="5.83276">
        <ele>349</ele>
        <time>2023-06-18T08:33:33Z</time>
      </trkpt>
      <trkpt lat="49.42782" lon="5.83276">
        <ele>349.20001220703</ele>
        <time>2023-06-18T08:33:35Z</time>
      </trkpt>
      <trkpt lat="49.42782" lon="5.83277">
        <ele>349.39999389648</ele>
        <time>2023-06-18T08:33:37Z</time>
      </trkpt>
      <trkpt lat="49.42782" lon="5.83278">
        <ele>349.39999389648</ele>
        <time>2023-06-18T08:33:39Z</time>
      </trkpt>
      <trkpt lat="49.42781" lon="5.83281">
        <ele>349.39999389648</ele>
        <time>2023-06-18T08:33:41Z</time>
      </trkpt>
      <trkpt lat="49.4278" lon="5.83284">
        <ele>349.39999389648</ele>
        <time>2023-06-18T08:33:43Z</time>
      </trkpt>
      <trkpt lat="49.42776" lon="5.83292">
        <ele>349.39999389648</ele>
        <time>2023-06-18T08:33:45Z</time>
      </trkpt>
      <trkpt lat="49.42773" lon="5.833">
        <ele>349.20001220703</ele>
        <time>2023-06-18T08:33:47Z</time>
      </trkpt>
      <trkpt lat="49.42773" lon="5.83304">
        <ele>349.20001220703</ele>
        <time>2023-06-18T08:33:48Z</time>
      </trkpt>
      <trkpt lat="49.42773" lon="5.8331">
        <ele>349.20001220703</ele>
        <time>2023-06-18T08:33:49Z</time>
      </trkpt>
      <trkpt lat="49.42773" lon="5.8332">
        <ele>349.20001220703</ele>
        <time>2023-06-18T08:33:51Z</time>
      </trkpt>
      <trkpt lat="49.42771" lon="5.83323">
        <ele>349.20001220703</ele>
        <time>2023-06-18T08:33:52Z</time>
      </trkpt>
      <trkpt lat="49.4277" lon="5.83326">
        <ele>349.20001220703</ele>
        <time>2023-06-18T08:33:53Z</time>
      </trkpt>
      <trkpt lat="49.42768" lon="5.83331">
        <ele>348.39999389648</ele>
        <time>2023-06-18T08:33:55Z</time>
      </trkpt>
      <trkpt lat="49.42767" lon="5.83337">
        <ele>348</ele>
        <time>2023-06-18T08:33:57Z</time>
      </trkpt>
      <trkpt lat="49.42767" lon="5.83342">
        <ele>347.79998779297</ele>
        <time>2023-06-18T08:33:58Z</time>
      </trkpt>
      <trkpt lat="49.42768" lon="5.83346">
        <ele>347.79998779297</ele>
        <time>2023-06-18T08:33:59Z</time>
      </trkpt>
      <trkpt lat="49.4277" lon="5.83353">
        <ele>347.79998779297</ele>
        <time>2023-06-18T08:34:01Z</time>
      </trkpt>
      <trkpt lat="49.42771" lon="5.83356">
        <ele>347.79998779297</ele>
        <time>2023-06-18T08:34:02Z</time>
      </trkpt>
      <trkpt lat="49.42771" lon="5.8336">
        <ele>347.79998779297</ele>
        <time>2023-06-18T08:34:03Z</time>
      </trkpt>
      <trkpt lat="49.42773" lon="5.83365">
        <ele>347.79998779297</ele>
        <time>2023-06-18T08:34:05Z</time>
      </trkpt>
      <trkpt lat="49.42774" lon="5.83371">
        <ele>347.79998779297</ele>
        <time>2023-06-18T08:34:07Z</time>
      </trkpt>
      <trkpt lat="49.42774" lon="5.83374">
        <ele>347.79998779297</ele>
        <time>2023-06-18T08:34:08Z</time>
      </trkpt>
      <trkpt lat="49.42776" lon="5.83376">
        <ele>347.79998779297</ele>
        <time>2023-06-18T08:34:09Z</time>
      </trkpt>
      <trkpt lat="49.42779" lon="5.83378">
        <ele>347.79998779297</ele>
        <time>2023-06-18T08:34:10Z</time>
      </trkpt>
      <trkpt lat="49.4278" lon="5.83381">
        <ele>347.79998779297</ele>
        <time>2023-06-18T08:34:11Z</time>
      </trkpt>
      <trkpt lat="49.42781" lon="5.83386">
        <ele>347.79998779297</ele>
        <time>2023-06-18T08:34:12Z</time>
      </trkpt>
      <trkpt lat="49.42781" lon="5.8339">
        <ele>347.79998779297</ele>
        <time>2023-06-18T08:34:13Z</time>
      </trkpt>
      <trkpt lat="49.42784" lon="5.83399">
        <ele>347.79998779297</ele>
        <time>2023-06-18T08:34:15Z</time>
      </trkpt>
      <trkpt lat="49.42785" lon="5.83403">
        <ele>347.79998779297</ele>
        <time>2023-06-18T08:34:16Z</time>
      </trkpt>
      <trkpt lat="49.42786" lon="5.83409">
        <ele>347.79998779297</ele>
        <time>2023-06-18T08:34:17Z</time>
      </trkpt>
      <trkpt lat="49.4279" lon="5.8342">
        <ele>347.79998779297</ele>
        <time>2023-06-18T08:34:19Z</time>
      </trkpt>
      <trkpt lat="49.42793" lon="5.83429">
        <ele>347.79998779297</ele>
        <time>2023-06-18T08:34:21Z</time>
      </trkpt>
      <trkpt lat="49.42795" lon="5.83432">
        <ele>347.79998779297</ele>
        <time>2023-06-18T08:34:22Z</time>
      </trkpt>
      <trkpt lat="49.42797" lon="5.83435">
        <ele>347.79998779297</ele>
        <time>2023-06-18T08:34:23Z</time>
      </trkpt>
      <trkpt lat="49.42803" lon="5.83443">
        <ele>347.79998779297</ele>
        <time>2023-06-18T08:34:25Z</time>
      </trkpt>
      <trkpt lat="49.42805" lon="5.83447">
        <ele>347.79998779297</ele>
        <time>2023-06-18T08:34:26Z</time>
      </trkpt>
      <trkpt lat="49.42807" lon="5.83451">
        <ele>348</ele>
        <time>2023-06-18T08:34:27Z</time>
      </trkpt>
      <trkpt lat="49.42809" lon="5.83455">
        <ele>348</ele>
        <time>2023-06-18T08:34:28Z</time>
      </trkpt>
      <trkpt lat="49.42811" lon="5.83459">
        <ele>348</ele>
        <time>2023-06-18T08:34:29Z</time>
      </trkpt>
      <trkpt lat="49.42814" lon="5.83467">
        <ele>348.20001220703</ele>
        <time>2023-06-18T08:34:31Z</time>
      </trkpt>
      <trkpt lat="49.42818" lon="5.83476">
        <ele>348.20001220703</ele>
        <time>2023-06-18T08:34:33Z</time>
      </trkpt>
      <trkpt lat="49.42822" lon="5.83485">
        <ele>348.39999389648</ele>
        <time>2023-06-18T08:34:35Z</time>
      </trkpt>
      <trkpt lat="49.42827" lon="5.83494">
        <ele>348.39999389648</ele>
        <time>2023-06-18T08:34:37Z</time>
      </trkpt>
      <trkpt lat="49.4283" lon="5.835">
        <ele>348.39999389648</ele>
        <time>2023-06-18T08:34:39Z</time>
      </trkpt>
      <trkpt lat="49.42834" lon="5.83508">
        <ele>348.60000610352</ele>
        <time>2023-06-18T08:34:41Z</time>
      </trkpt>
      <trkpt lat="49.42836" lon="5.83512">
        <ele>348.60000610352</ele>
        <time>2023-06-18T08:34:42Z</time>
      </trkpt>
      <trkpt lat="49.42838" lon="5.83516">
        <ele>348.60000610352</ele>
        <time>2023-06-18T08:34:43Z</time>
      </trkpt>
      <trkpt lat="49.42839" lon="5.83521">
        <ele>348.79998779297</ele>
        <time>2023-06-18T08:34:44Z</time>
      </trkpt>
      <trkpt lat="49.4284" lon="5.83525">
        <ele>348.79998779297</ele>
        <time>2023-06-18T08:34:45Z</time>
      </trkpt>
      <trkpt lat="49.42841" lon="5.83535">
        <ele>349</ele>
        <time>2023-06-18T08:34:47Z</time>
      </trkpt>
      <trkpt lat="49.42843" lon="5.83545">
        <ele>349.39999389648</ele>
        <time>2023-06-18T08:34:49Z</time>
      </trkpt>
      <trkpt lat="49.42846" lon="5.83554">
        <ele>349.39999389648</ele>
        <time>2023-06-18T08:34:51Z</time>
      </trkpt>
      <trkpt lat="49.42851" lon="5.83563">
        <ele>349.60000610352</ele>
        <time>2023-06-18T08:34:53Z</time>
      </trkpt>
      <trkpt lat="49.42855" lon="5.83572">
        <ele>350</ele>
        <time>2023-06-18T08:34:55Z</time>
      </trkpt>
      <trkpt lat="49.4286" lon="5.83582">
        <ele>350</ele>
        <time>2023-06-18T08:34:57Z</time>
      </trkpt>
      <trkpt lat="49.42865" lon="5.83592">
        <ele>350.20001220703</ele>
        <time>2023-06-18T08:34:59Z</time>
      </trkpt>
      <trkpt lat="49.42869" lon="5.83603">
        <ele>350.39999389648</ele>
        <time>2023-06-18T08:35:01Z</time>
      </trkpt>
      <trkpt lat="49.42873" lon="5.83612">
        <ele>350.60000610352</ele>
        <time>2023-06-18T08:35:03Z</time>
      </trkpt>
      <trkpt lat="49.42876" lon="5.83623">
        <ele>350.79998779297</ele>
        <time>2023-06-18T08:35:05Z</time>
      </trkpt>
      <trkpt lat="49.4288" lon="5.83631">
        <ele>351</ele>
        <time>2023-06-18T08:35:07Z</time>
      </trkpt>
      <trkpt lat="49.4288" lon="5.83636">
        <ele>351.20001220703</ele>
        <time>2023-06-18T08:35:08Z</time>
      </trkpt>
      <trkpt lat="49.42882" lon="5.83641">
        <ele>351.20001220703</ele>
        <time>2023-06-18T08:35:09Z</time>
      </trkpt>
      <trkpt lat="49.42886" lon="5.83648">
        <ele>351.39999389648</ele>
        <time>2023-06-18T08:35:11Z</time>
      </trkpt>
      <trkpt lat="49.4289" lon="5.8366">
        <ele>351.39999389648</ele>
        <time>2023-06-18T08:35:13Z</time>
      </trkpt>
      <trkpt lat="49.42892" lon="5.83669">
        <ele>351.60000610352</ele>
        <time>2023-06-18T08:35:15Z</time>
      </trkpt>
      <trkpt lat="49.42894" lon="5.83679">
        <ele>351.79998779297</ele>
        <time>2023-06-18T08:35:17Z</time>
      </trkpt>
      <trkpt lat="49.42896" lon="5.83688">
        <ele>352</ele>
        <time>2023-06-18T08:35:19Z</time>
      </trkpt>
      <trkpt lat="49.42899" lon="5.83697">
        <ele>352.20001220703</ele>
        <time>2023-06-18T08:35:21Z</time>
      </trkpt>
      <trkpt lat="49.429" lon="5.83707">
        <ele>352.20001220703</ele>
        <time>2023-06-18T08:35:23Z</time>
      </trkpt>
      <trkpt lat="49.42903" lon="5.83719">
        <ele>352.20001220703</ele>
        <time>2023-06-18T08:35:25Z</time>
      </trkpt>
      <trkpt lat="49.42904" lon="5.83724">
        <ele>352.39999389648</ele>
        <time>2023-06-18T08:35:26Z</time>
      </trkpt>
      <trkpt lat="49.42905" lon="5.83729">
        <ele>352.39999389648</ele>
        <time>2023-06-18T08:35:27Z</time>
      </trkpt>
      <trkpt lat="49.42908" lon="5.83739">
        <ele>352.60000610352</ele>
        <time>2023-06-18T08:35:29Z</time>
      </trkpt>
      <trkpt lat="49.42911" lon="5.83747">
        <ele>352.60000610352</ele>
        <time>2023-06-18T08:35:31Z</time>
      </trkpt>
      <trkpt lat="49.42914" lon="5.83754">
        <ele>352.79998779297</ele>
        <time>2023-06-18T08:35:33Z</time>
      </trkpt>
      <trkpt lat="49.42916" lon="5.83762">
        <ele>352.79998779297</ele>
        <time>2023-06-18T08:35:35Z</time>
      </trkpt>
      <trkpt lat="49.42918" lon="5.83766">
        <ele>352.79998779297</ele>
        <time>2023-06-18T08:35:36Z</time>
      </trkpt>
      <trkpt lat="49.42919" lon="5.8377">
        <ele>353</ele>
        <time>2023-06-18T08:35:37Z</time>
      </trkpt>
      <trkpt lat="49.42921" lon="5.83779">
        <ele>353</ele>
        <time>2023-06-18T08:35:39Z</time>
      </trkpt>
      <trkpt lat="49.42923" lon="5.83789">
        <ele>353.20001220703</ele>
        <time>2023-06-18T08:35:41Z</time>
      </trkpt>
      <trkpt lat="49.42926" lon="5.83794">
        <ele>353.20001220703</ele>
        <time>2023-06-18T08:35:42Z</time>
      </trkpt>
      <trkpt lat="49.42927" lon="5.83799">
        <ele>353.20001220703</ele>
        <time>2023-06-18T08:35:43Z</time>
      </trkpt>
      <trkpt lat="49.42929" lon="5.83808">
        <ele>353.39999389648</ele>
        <time>2023-06-18T08:35:45Z</time>
      </trkpt>
      <trkpt lat="49.42931" lon="5.83816">
        <ele>353.39999389648</ele>
        <time>2023-06-18T08:35:47Z</time>
      </trkpt>
      <trkpt lat="49.42933" lon="5.8382">
        <ele>353.60000610352</ele>
        <time>2023-06-18T08:35:48Z</time>
      </trkpt>
      <trkpt lat="49.42934" lon="5.83823">
        <ele>353.60000610352</ele>
        <time>2023-06-18T08:35:49Z</time>
      </trkpt>
      <trkpt lat="49.42936" lon="5.83832">
        <ele>354.20001220703</ele>
        <time>2023-06-18T08:35:50Z</time>
      </trkpt>
      <trkpt lat="49.42936" lon="5.83837">
        <ele>354.20001220703</ele>
        <time>2023-06-18T08:35:51Z</time>
      </trkpt>
      <trkpt lat="49.42937" lon="5.83841">
        <ele>354.39999389648</ele>
        <time>2023-06-18T08:35:52Z</time>
      </trkpt>
      <trkpt lat="49.42938" lon="5.83846">
        <ele>354.60000610352</ele>
        <time>2023-06-18T08:35:53Z</time>
      </trkpt>
      <trkpt lat="49.42939" lon="5.8385">
        <ele>354.60000610352</ele>
        <time>2023-06-18T08:35:54Z</time>
      </trkpt>
      <trkpt lat="49.42941" lon="5.83856">
        <ele>354.79998779297</ele>
        <time>2023-06-18T08:35:55Z</time>
      </trkpt>
      <trkpt lat="49.42942" lon="5.83866">
        <ele>354.79998779297</ele>
        <time>2023-06-18T08:35:57Z</time>
      </trkpt>
      <trkpt lat="49.42943" lon="5.8387">
        <ele>354.79998779297</ele>
        <time>2023-06-18T08:35:58Z</time>
      </trkpt>
      <trkpt lat="49.42945" lon="5.83875">
        <ele>355</ele>
        <time>2023-06-18T08:35:59Z</time>
      </trkpt>
      <trkpt lat="49.42948" lon="5.83884">
        <ele>355</ele>
        <time>2023-06-18T08:36:01Z</time>
      </trkpt>
      <trkpt lat="49.42952" lon="5.83899">
        <ele>355</ele>
        <time>2023-06-18T08:36:03Z</time>
      </trkpt>
      <trkpt lat="49.42956" lon="5.83911">
        <ele>355</ele>
        <time>2023-06-18T08:36:05Z</time>
      </trkpt>
      <trkpt lat="49.4296" lon="5.83923">
        <ele>355.20001220703</ele>
        <time>2023-06-18T08:36:07Z</time>
      </trkpt>
      <trkpt lat="49.42962" lon="5.83934">
        <ele>355.20001220703</ele>
        <time>2023-06-18T08:36:09Z</time>
      </trkpt>
      <trkpt lat="49.42967" lon="5.83948">
        <ele>355.39999389648</ele>
        <time>2023-06-18T08:36:11Z</time>
      </trkpt>
      <trkpt lat="49.42971" lon="5.83958">
        <ele>355.39999389648</ele>
        <time>2023-06-18T08:36:13Z</time>
      </trkpt>
      <trkpt lat="49.42974" lon="5.83967">
        <ele>355.60000610352</ele>
        <time>2023-06-18T08:36:15Z</time>
      </trkpt>
      <trkpt lat="49.42975" lon="5.83972">
        <ele>355.60000610352</ele>
        <time>2023-06-18T08:36:16Z</time>
      </trkpt>
      <trkpt lat="49.42976" lon="5.83976">
        <ele>355.79998779297</ele>
        <time>2023-06-18T08:36:17Z</time>
      </trkpt>
      <trkpt lat="49.42977" lon="5.83986">
        <ele>356</ele>
        <time>2023-06-18T08:36:19Z</time>
      </trkpt>
      <trkpt lat="49.42978" lon="5.83992">
        <ele>356.20001220703</ele>
        <time>2023-06-18T08:36:20Z</time>
      </trkpt>
      <trkpt lat="49.42979" lon="5.83997">
        <ele>356.39999389648</ele>
        <time>2023-06-18T08:36:21Z</time>
      </trkpt>
      <trkpt lat="49.42981" lon="5.84001">
        <ele>356.39999389648</ele>
        <time>2023-06-18T08:36:22Z</time>
      </trkpt>
      <trkpt lat="49.42982" lon="5.84004">
        <ele>356.60000610352</ele>
        <time>2023-06-18T08:36:23Z</time>
      </trkpt>
      <trkpt lat="49.42984" lon="5.84009">
        <ele>356.79998779297</ele>
        <time>2023-06-18T08:36:25Z</time>
      </trkpt>
      <trkpt lat="49.42988" lon="5.84016">
        <ele>357</ele>
        <time>2023-06-18T08:36:27Z</time>
      </trkpt>
      <trkpt lat="49.42991" lon="5.84024">
        <ele>357.20001220703</ele>
        <time>2023-06-18T08:36:29Z</time>
      </trkpt>
      <trkpt lat="49.42993" lon="5.84028">
        <ele>357.20001220703</ele>
        <time>2023-06-18T08:36:30Z</time>
      </trkpt>
      <trkpt lat="49.42995" lon="5.84033">
        <ele>357.60000610352</ele>
        <time>2023-06-18T08:36:31Z</time>
      </trkpt>
      <trkpt lat="49.42997" lon="5.84038">
        <ele>357.79998779297</ele>
        <time>2023-06-18T08:36:32Z</time>
      </trkpt>
      <trkpt lat="49.42999" lon="5.84042">
        <ele>357.79998779297</ele>
        <time>2023-06-18T08:36:33Z</time>
      </trkpt>
      <trkpt lat="49.43003" lon="5.84049">
        <ele>358</ele>
        <time>2023-06-18T08:36:35Z</time>
      </trkpt>
      <trkpt lat="49.43005" lon="5.84058">
        <ele>358</ele>
        <time>2023-06-18T08:36:37Z</time>
      </trkpt>
      <trkpt lat="49.43008" lon="5.84068">
        <ele>358.20001220703</ele>
        <time>2023-06-18T08:36:39Z</time>
      </trkpt>
      <trkpt lat="49.43012" lon="5.84076">
        <ele>358.20001220703</ele>
        <time>2023-06-18T08:36:41Z</time>
      </trkpt>
      <trkpt lat="49.43013" lon="5.84081">
        <ele>358.20001220703</ele>
        <time>2023-06-18T08:36:42Z</time>
      </trkpt>
      <trkpt lat="49.43014" lon="5.84087">
        <ele>358.20001220703</ele>
        <time>2023-06-18T08:36:43Z</time>
      </trkpt>
      <trkpt lat="49.43016" lon="5.84092">
        <ele>358.39999389648</ele>
        <time>2023-06-18T08:36:44Z</time>
      </trkpt>
      <trkpt lat="49.43019" lon="5.84096">
        <ele>358.39999389648</ele>
        <time>2023-06-18T08:36:45Z</time>
      </trkpt>
      <trkpt lat="49.43021" lon="5.84101">
        <ele>358.39999389648</ele>
        <time>2023-06-18T08:36:46Z</time>
      </trkpt>
      <trkpt lat="49.43023" lon="5.84105">
        <ele>358.39999389648</ele>
        <time>2023-06-18T08:36:47Z</time>
      </trkpt>
      <trkpt lat="49.43029" lon="5.84113">
        <ele>358.39999389648</ele>
        <time>2023-06-18T08:36:49Z</time>
      </trkpt>
      <trkpt lat="49.43034" lon="5.84122">
        <ele>358.39999389648</ele>
        <time>2023-06-18T08:36:51Z</time>
      </trkpt>
      <trkpt lat="49.43036" lon="5.84126">
        <ele>358.39999389648</ele>
        <time>2023-06-18T08:36:52Z</time>
      </trkpt>
      <trkpt lat="49.43039" lon="5.84132">
        <ele>358.39999389648</ele>
        <time>2023-06-18T08:36:53Z</time>
      </trkpt>
      <trkpt lat="49.43045" lon="5.84143">
        <ele>358.39999389648</ele>
        <time>2023-06-18T08:36:55Z</time>
      </trkpt>
      <trkpt lat="49.4305" lon="5.84152">
        <ele>358.60000610352</ele>
        <time>2023-06-18T08:36:57Z</time>
      </trkpt>
      <trkpt lat="49.43057" lon="5.84159">
        <ele>358.60000610352</ele>
        <time>2023-06-18T08:36:59Z</time>
      </trkpt>
      <trkpt lat="49.43062" lon="5.8417">
        <ele>358.60000610352</ele>
        <time>2023-06-18T08:37:01Z</time>
      </trkpt>
      <trkpt lat="49.43065" lon="5.84175">
        <ele>358.60000610352</ele>
        <time>2023-06-18T08:37:02Z</time>
      </trkpt>
      <trkpt lat="49.43067" lon="5.84182">
        <ele>358.60000610352</ele>
        <time>2023-06-18T08:37:03Z</time>
      </trkpt>
      <trkpt lat="49.43073" lon="5.84192">
        <ele>358.79998779297</ele>
        <time>2023-06-18T08:37:05Z</time>
      </trkpt>
      <trkpt lat="49.43078" lon="5.84204">
        <ele>358.79998779297</ele>
        <time>2023-06-18T08:37:07Z</time>
      </trkpt>
      <trkpt lat="49.4308" lon="5.84209">
        <ele>358.60000610352</ele>
        <time>2023-06-18T08:37:08Z</time>
      </trkpt>
      <trkpt lat="49.43082" lon="5.84214">
        <ele>358.60000610352</ele>
        <time>2023-06-18T08:37:09Z</time>
      </trkpt>
      <trkpt lat="49.43088" lon="5.84223">
        <ele>359</ele>
        <time>2023-06-18T08:37:11Z</time>
      </trkpt>
      <trkpt lat="49.43093" lon="5.84233">
        <ele>359</ele>
        <time>2023-06-18T08:37:13Z</time>
      </trkpt>
      <trkpt lat="49.43096" lon="5.84239">
        <ele>359.20001220703</ele>
        <time>2023-06-18T08:37:14Z</time>
      </trkpt>
      <trkpt lat="49.43099" lon="5.84243">
        <ele>359.20001220703</ele>
        <time>2023-06-18T08:37:15Z</time>
      </trkpt>
      <trkpt lat="49.43104" lon="5.84252">
        <ele>359.39999389648</ele>
        <time>2023-06-18T08:37:17Z</time>
      </trkpt>
      <trkpt lat="49.43108" lon="5.84257">
        <ele>359.39999389648</ele>
        <time>2023-06-18T08:37:18Z</time>
      </trkpt>
      <trkpt lat="49.43111" lon="5.84261">
        <ele>359.39999389648</ele>
        <time>2023-06-18T08:37:19Z</time>
      </trkpt>
      <trkpt lat="49.43117" lon="5.84269">
        <ele>359.60000610352</ele>
        <time>2023-06-18T08:37:21Z</time>
      </trkpt>
      <trkpt lat="49.43121" lon="5.84276">
        <ele>359.79998779297</ele>
        <time>2023-06-18T08:37:23Z</time>
      </trkpt>
      <trkpt lat="49.43125" lon="5.84279">
        <ele>359.79998779297</ele>
        <time>2023-06-18T08:37:24Z</time>
      </trkpt>
      <trkpt lat="49.43128" lon="5.84284">
        <ele>359.79998779297</ele>
        <time>2023-06-18T08:37:25Z</time>
      </trkpt>
      <trkpt lat="49.43134" lon="5.84291">
        <ele>360</ele>
        <time>2023-06-18T08:37:27Z</time>
      </trkpt>
      <trkpt lat="49.43139" lon="5.843">
        <ele>360.20001220703</ele>
        <time>2023-06-18T08:37:29Z</time>
      </trkpt>
      <trkpt lat="49.43145" lon="5.84309">
        <ele>360.20001220703</ele>
        <time>2023-06-18T08:37:31Z</time>
      </trkpt>
      <trkpt lat="49.4315" lon="5.84317">
        <ele>360.39999389648</ele>
        <time>2023-06-18T08:37:33Z</time>
      </trkpt>
      <trkpt lat="49.43153" lon="5.8432">
        <ele>360.39999389648</ele>
        <time>2023-06-18T08:37:34Z</time>
      </trkpt>
      <trkpt lat="49.43156" lon="5.84322">
        <ele>360.60000610352</ele>
        <time>2023-06-18T08:37:35Z</time>
      </trkpt>
      <trkpt lat="49.43162" lon="5.84329">
        <ele>360.79998779297</ele>
        <time>2023-06-18T08:37:37Z</time>
      </trkpt>
      <trkpt lat="49.43167" lon="5.84332">
        <ele>361.20001220703</ele>
        <time>2023-06-18T08:37:39Z</time>
      </trkpt>
      <trkpt lat="49.43172" lon="5.84334">
        <ele>361.39999389648</ele>
        <time>2023-06-18T08:37:41Z</time>
      </trkpt>
      <trkpt lat="49.43176" lon="5.84336">
        <ele>362</ele>
        <time>2023-06-18T08:37:43Z</time>
      </trkpt>
      <trkpt lat="49.43178" lon="5.84336">
        <ele>362.20001220703</ele>
        <time>2023-06-18T08:37:44Z</time>
      </trkpt>
      <trkpt lat="49.43181" lon="5.84337">
        <ele>362.39999389648</ele>
        <time>2023-06-18T08:37:45Z</time>
      </trkpt>
      <trkpt lat="49.43185" lon="5.84337">
        <ele>363</ele>
        <time>2023-06-18T08:37:47Z</time>
      </trkpt>
      <trkpt lat="49.4319" lon="5.84339">
        <ele>363.20001220703</ele>
        <time>2023-06-18T08:37:49Z</time>
      </trkpt>
      <trkpt lat="49.43192" lon="5.8434">
        <ele>363.20001220703</ele>
        <time>2023-06-18T08:37:50Z</time>
      </trkpt>
      <trkpt lat="49.43194" lon="5.8434">
        <ele>363.60000610352</ele>
        <time>2023-06-18T08:37:51Z</time>
      </trkpt>
      <trkpt lat="49.43197" lon="5.84341">
        <ele>364</ele>
        <time>2023-06-18T08:37:52Z</time>
      </trkpt>
      <trkpt lat="49.432" lon="5.84342">
        <ele>364.20001220703</ele>
        <time>2023-06-18T08:37:53Z</time>
      </trkpt>
      <trkpt lat="49.43204" lon="5.84342">
        <ele>364.60000610352</ele>
        <time>2023-06-18T08:37:54Z</time>
      </trkpt>
      <trkpt lat="49.43207" lon="5.84343">
        <ele>364.79998779297</ele>
        <time>2023-06-18T08:37:55Z</time>
      </trkpt>
      <trkpt lat="49.43213" lon="5.84345">
        <ele>365.20001220703</ele>
        <time>2023-06-18T08:37:57Z</time>
      </trkpt>
      <trkpt lat="49.43216" lon="5.84346">
        <ele>365.60000610352</ele>
        <time>2023-06-18T08:37:58Z</time>
      </trkpt>
      <trkpt lat="49.43218" lon="5.84347">
        <ele>366</ele>
        <time>2023-06-18T08:37:59Z</time>
      </trkpt>
      <trkpt lat="49.43223" lon="5.84349">
        <ele>366.60000610352</ele>
        <time>2023-06-18T08:38:01Z</time>
      </trkpt>
      <trkpt lat="49.43226" lon="5.84351">
        <ele>366.79998779297</ele>
        <time>2023-06-18T08:38:02Z</time>
      </trkpt>
      <trkpt lat="49.43229" lon="5.84352">
        <ele>367.20001220703</ele>
        <time>2023-06-18T08:38:03Z</time>
      </trkpt>
      <trkpt lat="49.43235" lon="5.84352">
        <ele>367.79998779297</ele>
        <time>2023-06-18T08:38:05Z</time>
      </trkpt>
      <trkpt lat="49.43238" lon="5.84353">
        <ele>368.20001220703</ele>
        <time>2023-06-18T08:38:06Z</time>
      </trkpt>
      <trkpt lat="49.4324" lon="5.84354">
        <ele>368.60000610352</ele>
        <time>2023-06-18T08:38:07Z</time>
      </trkpt>
      <trkpt lat="49.43243" lon="5.84354">
        <ele>369</ele>
        <time>2023-06-18T08:38:08Z</time>
      </trkpt>
      <trkpt lat="49.43245" lon="5.84354">
        <ele>369.39999389648</ele>
        <time>2023-06-18T08:38:09Z</time>
      </trkpt>
      <trkpt lat="49.4325" lon="5.84356">
        <ele>370</ele>
        <time>2023-06-18T08:38:11Z</time>
      </trkpt>
      <trkpt lat="49.43254" lon="5.84357">
        <ele>370.60000610352</ele>
        <time>2023-06-18T08:38:13Z</time>
      </trkpt>
      <trkpt lat="49.43257" lon="5.84357">
        <ele>371</ele>
        <time>2023-06-18T08:38:15Z</time>
      </trkpt>
      <trkpt lat="49.43261" lon="5.84356">
        <ele>371.39999389648</ele>
        <time>2023-06-18T08:38:17Z</time>
      </trkpt>
      <trkpt lat="49.43264" lon="5.84356">
        <ele>371.60000610352</ele>
        <time>2023-06-18T08:38:18Z</time>
      </trkpt>
      <trkpt lat="49.43266" lon="5.84356">
        <ele>372</ele>
        <time>2023-06-18T08:38:19Z</time>
      </trkpt>
      <trkpt lat="49.4327" lon="5.84354">
        <ele>372.60000610352</ele>
        <time>2023-06-18T08:38:21Z</time>
      </trkpt>
      <trkpt lat="49.43272" lon="5.84354">
        <ele>372.79998779297</ele>
        <time>2023-06-18T08:38:22Z</time>
      </trkpt>
      <trkpt lat="49.43275" lon="5.84352">
        <ele>373</ele>
        <time>2023-06-18T08:38:23Z</time>
      </trkpt>
      <trkpt lat="49.4328" lon="5.8435">
        <ele>373.39999389648</ele>
        <time>2023-06-18T08:38:25Z</time>
      </trkpt>
      <trkpt lat="49.43285" lon="5.84349">
        <ele>373.79998779297</ele>
        <time>2023-06-18T08:38:27Z</time>
      </trkpt>
      <trkpt lat="49.43291" lon="5.84348">
        <ele>374.20001220703</ele>
        <time>2023-06-18T08:38:29Z</time>
      </trkpt>
      <trkpt lat="49.43295" lon="5.84346">
        <ele>374.20001220703</ele>
        <time>2023-06-18T08:38:31Z</time>
      </trkpt>
      <trkpt lat="49.433" lon="5.84345">
        <ele>374.60000610352</ele>
        <time>2023-06-18T08:38:33Z</time>
      </trkpt>
      <trkpt lat="49.43302" lon="5.84344">
        <ele>374.60000610352</ele>
        <time>2023-06-18T08:38:34Z</time>
      </trkpt>
      <trkpt lat="49.43305" lon="5.84344">
        <ele>374.60000610352</ele>
        <time>2023-06-18T08:38:35Z</time>
      </trkpt>
      <trkpt lat="49.4331" lon="5.84343">
        <ele>375</ele>
        <time>2023-06-18T08:38:37Z</time>
      </trkpt>
      <trkpt lat="49.43315" lon="5.84342">
        <ele>375.20001220703</ele>
        <time>2023-06-18T08:38:39Z</time>
      </trkpt>
      <trkpt lat="49.4332" lon="5.84341">
        <ele>375.39999389648</ele>
        <time>2023-06-18T08:38:41Z</time>
      </trkpt>
      <trkpt lat="49.43322" lon="5.84339">
        <ele>375.60000610352</ele>
        <time>2023-06-18T08:38:42Z</time>
      </trkpt>
      <trkpt lat="49.43325" lon="5.84338">
        <ele>375.60000610352</ele>
        <time>2023-06-18T08:38:43Z</time>
      </trkpt>
      <trkpt lat="49.43331" lon="5.84337">
        <ele>376</ele>
        <time>2023-06-18T08:38:45Z</time>
      </trkpt>
      <trkpt lat="49.43334" lon="5.84336">
        <ele>376</ele>
        <time>2023-06-18T08:38:46Z</time>
      </trkpt>
      <trkpt lat="49.43337" lon="5.84336">
        <ele>376.20001220703</ele>
        <time>2023-06-18T08:38:47Z</time>
      </trkpt>
      <trkpt lat="49.43342" lon="5.84333">
        <ele>376.39999389648</ele>
        <time>2023-06-18T08:38:49Z</time>
      </trkpt>
      <trkpt lat="49.43347" lon="5.84331">
        <ele>376.60000610352</ele>
        <time>2023-06-18T08:38:51Z</time>
      </trkpt>
      <trkpt lat="49.43352" lon="5.84328">
        <ele>377</ele>
        <time>2023-06-18T08:38:53Z</time>
      </trkpt>
      <trkpt lat="49.43355" lon="5.84327">
        <ele>377</ele>
        <time>2023-06-18T08:38:54Z</time>
      </trkpt>
      <trkpt lat="49.43357" lon="5.84326">
        <ele>377.20001220703</ele>
        <time>2023-06-18T08:38:55Z</time>
      </trkpt>
      <trkpt lat="49.43361" lon="5.84323">
        <ele>377.39999389648</ele>
        <time>2023-06-18T08:38:57Z</time>
      </trkpt>
      <trkpt lat="49.43363" lon="5.84321">
        <ele>377.60000610352</ele>
        <time>2023-06-18T08:38:58Z</time>
      </trkpt>
      <trkpt lat="49.43365" lon="5.8432">
        <ele>377.79998779297</ele>
        <time>2023-06-18T08:38:59Z</time>
      </trkpt>
      <trkpt lat="49.43369" lon="5.84317">
        <ele>378.20001220703</ele>
        <time>2023-06-18T08:39:01Z</time>
      </trkpt>
      <trkpt lat="49.43372" lon="5.84316">
        <ele>378.79998779297</ele>
        <time>2023-06-18T08:39:03Z</time>
      </trkpt>
      <trkpt lat="49.43373" lon="5.84316">
        <ele>379</ele>
        <time>2023-06-18T08:39:04Z</time>
      </trkpt>
      <trkpt lat="49.43375" lon="5.84316">
        <ele>379.20001220703</ele>
        <time>2023-06-18T08:39:05Z</time>
      </trkpt>
      <trkpt lat="49.43376" lon="5.84315">
        <ele>379.39999389648</ele>
        <time>2023-06-18T08:39:06Z</time>
      </trkpt>
      <trkpt lat="49.43377" lon="5.84315">
        <ele>379.60000610352</ele>
        <time>2023-06-18T08:39:07Z</time>
      </trkpt>
      <trkpt lat="49.4338" lon="5.84314">
        <ele>379.79998779297</ele>
        <time>2023-06-18T08:39:09Z</time>
      </trkpt>
      <trkpt lat="49.43383" lon="5.84312">
        <ele>380.20001220703</ele>
        <time>2023-06-18T08:39:11Z</time>
      </trkpt>
      <trkpt lat="49.43384" lon="5.84311">
        <ele>380.20001220703</ele>
        <time>2023-06-18T08:39:12Z</time>
      </trkpt>
      <trkpt lat="49.43385" lon="5.84309">
        <ele>380.39999389648</ele>
        <time>2023-06-18T08:39:13Z</time>
      </trkpt>
      <trkpt lat="49.43387" lon="5.84308">
        <ele>380.60000610352</ele>
        <time>2023-06-18T08:39:14Z</time>
      </trkpt>
      <trkpt lat="49.43388" lon="5.84306">
        <ele>380.60000610352</ele>
        <time>2023-06-18T08:39:15Z</time>
      </trkpt>
      <trkpt lat="49.43392" lon="5.84305">
        <ele>380.79998779297</ele>
        <time>2023-06-18T08:39:17Z</time>
      </trkpt>
      <trkpt lat="49.43395" lon="5.84302">
        <ele>381</ele>
        <time>2023-06-18T08:39:19Z</time>
      </trkpt>
      <trkpt lat="49.43398" lon="5.843">
        <ele>381.20001220703</ele>
        <time>2023-06-18T08:39:21Z</time>
      </trkpt>
      <trkpt lat="49.43402" lon="5.84298">
        <ele>381.20001220703</ele>
        <time>2023-06-18T08:39:23Z</time>
      </trkpt>
      <trkpt lat="49.43405" lon="5.84295">
        <ele>381.39999389648</ele>
        <time>2023-06-18T08:39:25Z</time>
      </trkpt>
      <trkpt lat="49.43409" lon="5.84292">
        <ele>381.60000610352</ele>
        <time>2023-06-18T08:39:27Z</time>
      </trkpt>
      <trkpt lat="49.43412" lon="5.8429">
        <ele>382</ele>
        <time>2023-06-18T08:39:29Z</time>
      </trkpt>
      <trkpt lat="49.43416" lon="5.84289">
        <ele>382.20001220703</ele>
        <time>2023-06-18T08:39:31Z</time>
      </trkpt>
      <trkpt lat="49.43418" lon="5.84287">
        <ele>382.20001220703</ele>
        <time>2023-06-18T08:39:32Z</time>
      </trkpt>
      <trkpt lat="49.4342" lon="5.84286">
        <ele>382.20001220703</ele>
        <time>2023-06-18T08:39:33Z</time>
      </trkpt>
      <trkpt lat="49.43424" lon="5.84284">
        <ele>382.39999389648</ele>
        <time>2023-06-18T08:39:35Z</time>
      </trkpt>
      <trkpt lat="49.43428" lon="5.84281">
        <ele>382.60000610352</ele>
        <time>2023-06-18T08:39:37Z</time>
      </trkpt>
      <trkpt lat="49.43432" lon="5.84279">
        <ele>382.79998779297</ele>
        <time>2023-06-18T08:39:39Z</time>
      </trkpt>
      <trkpt lat="49.43435" lon="5.84276">
        <ele>383</ele>
        <time>2023-06-18T08:39:41Z</time>
      </trkpt>
      <trkpt lat="49.43439" lon="5.84273">
        <ele>383.20001220703</ele>
        <time>2023-06-18T08:39:43Z</time>
      </trkpt>
      <trkpt lat="49.43443" lon="5.84271">
        <ele>383.60000610352</ele>
        <time>2023-06-18T08:39:45Z</time>
      </trkpt>
      <trkpt lat="49.43445" lon="5.8427">
        <ele>383.79998779297</ele>
        <time>2023-06-18T08:39:46Z</time>
      </trkpt>
      <trkpt lat="49.43446" lon="5.84269">
        <ele>384</ele>
        <time>2023-06-18T08:39:47Z</time>
      </trkpt>
      <trkpt lat="49.43449" lon="5.84265">
        <ele>384.39999389648</ele>
        <time>2023-06-18T08:39:49Z</time>
      </trkpt>
      <trkpt lat="49.43453" lon="5.84263">
        <ele>384.79998779297</ele>
        <time>2023-06-18T08:39:51Z</time>
      </trkpt>
      <trkpt lat="49.43454" lon="5.84261">
        <ele>384.79998779297</ele>
        <time>2023-06-18T08:39:52Z</time>
      </trkpt>
      <trkpt lat="49.43456" lon="5.8426">
        <ele>385</ele>
        <time>2023-06-18T08:39:53Z</time>
      </trkpt>
      <trkpt lat="49.4346" lon="5.84257">
        <ele>385.20001220703</ele>
        <time>2023-06-18T08:39:55Z</time>
      </trkpt>
      <trkpt lat="49.43464" lon="5.84254">
        <ele>385.79998779297</ele>
        <time>2023-06-18T08:39:57Z</time>
      </trkpt>
      <trkpt lat="49.43466" lon="5.84253">
        <ele>386</ele>
        <time>2023-06-18T08:39:58Z</time>
      </trkpt>
      <trkpt lat="49.43467" lon="5.84251">
        <ele>386.20001220703</ele>
        <time>2023-06-18T08:39:59Z</time>
      </trkpt>
      <trkpt lat="49.43471" lon="5.84248">
        <ele>386.60000610352</ele>
        <time>2023-06-18T08:40:01Z</time>
      </trkpt>
      <trkpt lat="49.43475" lon="5.84245">
        <ele>386.79998779297</ele>
        <time>2023-06-18T08:40:03Z</time>
      </trkpt>
      <trkpt lat="49.43479" lon="5.84243">
        <ele>387</ele>
        <time>2023-06-18T08:40:05Z</time>
      </trkpt>
      <trkpt lat="49.43481" lon="5.84241">
        <ele>387.20001220703</ele>
        <time>2023-06-18T08:40:06Z</time>
      </trkpt>
      <trkpt lat="49.43483" lon="5.8424">
        <ele>387.20001220703</ele>
        <time>2023-06-18T08:40:07Z</time>
      </trkpt>
      <trkpt lat="49.43487" lon="5.84237">
        <ele>387.39999389648</ele>
        <time>2023-06-18T08:40:09Z</time>
      </trkpt>
      <trkpt lat="49.43491" lon="5.84235">
        <ele>387.60000610352</ele>
        <time>2023-06-18T08:40:11Z</time>
      </trkpt>
      <trkpt lat="49.43495" lon="5.84232">
        <ele>387.79998779297</ele>
        <time>2023-06-18T08:40:13Z</time>
      </trkpt>
      <trkpt lat="49.43499" lon="5.8423">
        <ele>388</ele>
        <time>2023-06-18T08:40:15Z</time>
      </trkpt>
      <trkpt lat="49.43501" lon="5.84228">
        <ele>388.20001220703</ele>
        <time>2023-06-18T08:40:16Z</time>
      </trkpt>
      <trkpt lat="49.43502" lon="5.84227">
        <ele>388.39999389648</ele>
        <time>2023-06-18T08:40:17Z</time>
      </trkpt>
      <trkpt lat="49.43505" lon="5.84225">
        <ele>388.79998779297</ele>
        <time>2023-06-18T08:40:19Z</time>
      </trkpt>
      <trkpt lat="49.43508" lon="5.84222">
        <ele>389</ele>
        <time>2023-06-18T08:40:21Z</time>
      </trkpt>
      <trkpt lat="49.43509" lon="5.84221">
        <ele>389</ele>
        <time>2023-06-18T08:40:22Z</time>
      </trkpt>
      <trkpt lat="49.43511" lon="5.8422">
        <ele>389</ele>
        <time>2023-06-18T08:40:23Z</time>
      </trkpt>
      <trkpt lat="49.43512" lon="5.84219">
        <ele>389.20001220703</ele>
        <time>2023-06-18T08:40:24Z</time>
      </trkpt>
      <trkpt lat="49.43514" lon="5.84218">
        <ele>389.39999389648</ele>
        <time>2023-06-18T08:40:25Z</time>
      </trkpt>
      <trkpt lat="49.43518" lon="5.84214">
        <ele>389.79998779297</ele>
        <time>2023-06-18T08:40:27Z</time>
      </trkpt>
      <trkpt lat="49.43519" lon="5.84213">
        <ele>390</ele>
        <time>2023-06-18T08:40:28Z</time>
      </trkpt>
      <trkpt lat="49.4352" lon="5.84211">
        <ele>390</ele>
        <time>2023-06-18T08:40:29Z</time>
      </trkpt>
      <trkpt lat="49.43522" lon="5.84208">
        <ele>390.20001220703</ele>
        <time>2023-06-18T08:40:30Z</time>
      </trkpt>
      <trkpt lat="49.43523" lon="5.84206">
        <ele>390.39999389648</ele>
        <time>2023-06-18T08:40:31Z</time>
      </trkpt>
      <trkpt lat="49.43526" lon="5.84202">
        <ele>390.79998779297</ele>
        <time>2023-06-18T08:40:33Z</time>
      </trkpt>
      <trkpt lat="49.43529" lon="5.84199">
        <ele>391</ele>
        <time>2023-06-18T08:40:35Z</time>
      </trkpt>
      <trkpt lat="49.43533" lon="5.84195">
        <ele>391.39999389648</ele>
        <time>2023-06-18T08:40:37Z</time>
      </trkpt>
      <trkpt lat="49.43536" lon="5.84191">
        <ele>391.39999389648</ele>
        <time>2023-06-18T08:40:39Z</time>
      </trkpt>
      <trkpt lat="49.4354" lon="5.84187">
        <ele>391.79998779297</ele>
        <time>2023-06-18T08:40:41Z</time>
      </trkpt>
      <trkpt lat="49.43544" lon="5.84183">
        <ele>392</ele>
        <time>2023-06-18T08:40:43Z</time>
      </trkpt>
      <trkpt lat="49.43548" lon="5.84178">
        <ele>392.20001220703</ele>
        <time>2023-06-18T08:40:45Z</time>
      </trkpt>
      <trkpt lat="49.43552" lon="5.84174">
        <ele>392.39999389648</ele>
        <time>2023-06-18T08:40:47Z</time>
      </trkpt>
      <trkpt lat="49.43556" lon="5.8417">
        <ele>392.39999389648</ele>
        <time>2023-06-18T08:40:49Z</time>
      </trkpt>
      <trkpt lat="49.43561" lon="5.84164">
        <ele>392.39999389648</ele>
        <time>2023-06-18T08:40:51Z</time>
      </trkpt>
      <trkpt lat="49.43565" lon="5.84159">
        <ele>392.39999389648</ele>
        <time>2023-06-18T08:40:53Z</time>
      </trkpt>
      <trkpt lat="49.4357" lon="5.84154">
        <ele>392.39999389648</ele>
        <time>2023-06-18T08:40:55Z</time>
      </trkpt>
      <trkpt lat="49.43572" lon="5.84151">
        <ele>392.39999389648</ele>
        <time>2023-06-18T08:40:56Z</time>
      </trkpt>
      <trkpt lat="49.43575" lon="5.84148">
        <ele>392.20001220703</ele>
        <time>2023-06-18T08:40:57Z</time>
      </trkpt>
      <trkpt lat="49.4358" lon="5.84142">
        <ele>392.39999389648</ele>
        <time>2023-06-18T08:40:59Z</time>
      </trkpt>
      <trkpt lat="49.43586" lon="5.84134">
        <ele>392.20001220703</ele>
        <time>2023-06-18T08:41:01Z</time>
      </trkpt>
      <trkpt lat="49.4359" lon="5.8413">
        <ele>392.20001220703</ele>
        <time>2023-06-18T08:41:02Z</time>
      </trkpt>
      <trkpt lat="49.43594" lon="5.84125">
        <ele>392.20001220703</ele>
        <time>2023-06-18T08:41:03Z</time>
      </trkpt>
      <trkpt lat="49.43601" lon="5.84116">
        <ele>392</ele>
        <time>2023-06-18T08:41:05Z</time>
      </trkpt>
      <trkpt lat="49.4361" lon="5.84107">
        <ele>391.60000610352</ele>
        <time>2023-06-18T08:41:07Z</time>
      </trkpt>
      <trkpt lat="49.43615" lon="5.84102">
        <ele>391.39999389648</ele>
        <time>2023-06-18T08:41:08Z</time>
      </trkpt>
      <trkpt lat="49.43619" lon="5.84096">
        <ele>391.39999389648</ele>
        <time>2023-06-18T08:41:09Z</time>
      </trkpt>
      <trkpt lat="49.43629" lon="5.84085">
        <ele>390.60000610352</ele>
        <time>2023-06-18T08:41:11Z</time>
      </trkpt>
      <trkpt lat="49.43633" lon="5.84078">
        <ele>390.39999389648</ele>
        <time>2023-06-18T08:41:12Z</time>
      </trkpt>
      <trkpt lat="49.43638" lon="5.84072">
        <ele>390.20001220703</ele>
        <time>2023-06-18T08:41:13Z</time>
      </trkpt>
      <trkpt lat="49.43642" lon="5.84064">
        <ele>389.79998779297</ele>
        <time>2023-06-18T08:41:14Z</time>
      </trkpt>
      <trkpt lat="49.43647" lon="5.84057">
        <ele>389.39999389648</ele>
        <time>2023-06-18T08:41:15Z</time>
      </trkpt>
      <trkpt lat="49.43657" lon="5.84043">
        <ele>388.60000610352</ele>
        <time>2023-06-18T08:41:17Z</time>
      </trkpt>
      <trkpt lat="49.43663" lon="5.84035">
        <ele>388</ele>
        <time>2023-06-18T08:41:18Z</time>
      </trkpt>
      <trkpt lat="49.43668" lon="5.84028">
        <ele>387.39999389648</ele>
        <time>2023-06-18T08:41:19Z</time>
      </trkpt>
      <trkpt lat="49.43678" lon="5.84013">
        <ele>387</ele>
        <time>2023-06-18T08:41:21Z</time>
      </trkpt>
      <trkpt lat="49.43682" lon="5.84007">
        <ele>386.79998779297</ele>
        <time>2023-06-18T08:41:22Z</time>
      </trkpt>
      <trkpt lat="49.43686" lon="5.84">
        <ele>386.20001220703</ele>
        <time>2023-06-18T08:41:23Z</time>
      </trkpt>
      <trkpt lat="49.43688" lon="5.83993">
        <ele>385.39999389648</ele>
        <time>2023-06-18T08:41:24Z</time>
      </trkpt>
      <trkpt lat="49.43689" lon="5.83986">
        <ele>384.39999389648</ele>
        <time>2023-06-18T08:41:25Z</time>
      </trkpt>
      <trkpt lat="49.43689" lon="5.8398">
        <ele>383.79998779297</ele>
        <time>2023-06-18T08:41:26Z</time>
      </trkpt>
      <trkpt lat="49.43689" lon="5.83974">
        <ele>383.39999389648</ele>
        <time>2023-06-18T08:41:27Z</time>
      </trkpt>
      <trkpt lat="49.43688" lon="5.83967">
        <ele>383.20001220703</ele>
        <time>2023-06-18T08:41:28Z</time>
      </trkpt>
      <trkpt lat="49.43686" lon="5.83962">
        <ele>383</ele>
        <time>2023-06-18T08:41:29Z</time>
      </trkpt>
      <trkpt lat="49.43683" lon="5.83951">
        <ele>383</ele>
        <time>2023-06-18T08:41:31Z</time>
      </trkpt>
      <trkpt lat="49.43681" lon="5.8394">
        <ele>382.79998779297</ele>
        <time>2023-06-18T08:41:33Z</time>
      </trkpt>
      <trkpt lat="49.4368" lon="5.83933">
        <ele>382.79998779297</ele>
        <time>2023-06-18T08:41:34Z</time>
      </trkpt>
      <trkpt lat="49.43679" lon="5.83926">
        <ele>382.60000610352</ele>
        <time>2023-06-18T08:41:35Z</time>
      </trkpt>
      <trkpt lat="49.43677" lon="5.83909">
        <ele>382.39999389648</ele>
        <time>2023-06-18T08:41:37Z</time>
      </trkpt>
      <trkpt lat="49.43676" lon="5.83901">
        <ele>382.20001220703</ele>
        <time>2023-06-18T08:41:38Z</time>
      </trkpt>
      <trkpt lat="49.43675" lon="5.83893">
        <ele>382</ele>
        <time>2023-06-18T08:41:39Z</time>
      </trkpt>
      <trkpt lat="49.43672" lon="5.83875">
        <ele>381.60000610352</ele>
        <time>2023-06-18T08:41:41Z</time>
      </trkpt>
      <trkpt lat="49.4367" lon="5.83858">
        <ele>381.20001220703</ele>
        <time>2023-06-18T08:41:43Z</time>
      </trkpt>
      <trkpt lat="49.43668" lon="5.83849">
        <ele>380.79998779297</ele>
        <time>2023-06-18T08:41:44Z</time>
      </trkpt>
      <trkpt lat="49.43667" lon="5.83842">
        <ele>380</ele>
        <time>2023-06-18T08:41:45Z</time>
      </trkpt>
      <trkpt lat="49.43666" lon="5.83828">
        <ele>379.20001220703</ele>
        <time>2023-06-18T08:41:47Z</time>
      </trkpt>
      <trkpt lat="49.43665" lon="5.83821">
        <ele>378.79998779297</ele>
        <time>2023-06-18T08:41:48Z</time>
      </trkpt>
      <trkpt lat="49.43665" lon="5.83814">
        <ele>378.60000610352</ele>
        <time>2023-06-18T08:41:49Z</time>
      </trkpt>
      <trkpt lat="49.43664" lon="5.83808">
        <ele>378.39999389648</ele>
        <time>2023-06-18T08:41:50Z</time>
      </trkpt>
      <trkpt lat="49.43663" lon="5.838">
        <ele>378.20001220703</ele>
        <time>2023-06-18T08:41:51Z</time>
      </trkpt>
      <trkpt lat="49.43661" lon="5.83785">
        <ele>378</ele>
        <time>2023-06-18T08:41:53Z</time>
      </trkpt>
      <trkpt lat="49.4366" lon="5.83777">
        <ele>377.79998779297</ele>
        <time>2023-06-18T08:41:54Z</time>
      </trkpt>
      <trkpt lat="49.43659" lon="5.83769">
        <ele>377.60000610352</ele>
        <time>2023-06-18T08:41:55Z</time>
      </trkpt>
      <trkpt lat="49.43656" lon="5.83751">
        <ele>377</ele>
        <time>2023-06-18T08:41:57Z</time>
      </trkpt>
      <trkpt lat="49.43653" lon="5.83732">
        <ele>376.79998779297</ele>
        <time>2023-06-18T08:41:59Z</time>
      </trkpt>
      <trkpt lat="49.43652" lon="5.83723">
        <ele>376.39999389648</ele>
        <time>2023-06-18T08:42:00Z</time>
      </trkpt>
      <trkpt lat="49.43651" lon="5.83713">
        <ele>375.79998779297</ele>
        <time>2023-06-18T08:42:01Z</time>
      </trkpt>
      <trkpt lat="49.43649" lon="5.83694">
        <ele>375.39999389648</ele>
        <time>2023-06-18T08:42:03Z</time>
      </trkpt>
      <trkpt lat="49.43647" lon="5.83685">
        <ele>375.20001220703</ele>
        <time>2023-06-18T08:42:04Z</time>
      </trkpt>
      <trkpt lat="49.43646" lon="5.83676">
        <ele>375</ele>
        <time>2023-06-18T08:42:05Z</time>
      </trkpt>
      <trkpt lat="49.43645" lon="5.83665">
        <ele>375</ele>
        <time>2023-06-18T08:42:06Z</time>
      </trkpt>
      <trkpt lat="49.43644" lon="5.83654">
        <ele>375</ele>
        <time>2023-06-18T08:42:07Z</time>
      </trkpt>
      <trkpt lat="49.43642" lon="5.83645">
        <ele>374.79998779297</ele>
        <time>2023-06-18T08:42:08Z</time>
      </trkpt>
      <trkpt lat="49.4364" lon="5.83636">
        <ele>374.79998779297</ele>
        <time>2023-06-18T08:42:09Z</time>
      </trkpt>
      <trkpt lat="49.43637" lon="5.83616">
        <ele>374.60000610352</ele>
        <time>2023-06-18T08:42:11Z</time>
      </trkpt>
      <trkpt lat="49.43634" lon="5.83592">
        <ele>374.20001220703</ele>
        <time>2023-06-18T08:42:13Z</time>
      </trkpt>
      <trkpt lat="49.43631" lon="5.83569">
        <ele>373.79998779297</ele>
        <time>2023-06-18T08:42:15Z</time>
      </trkpt>
      <trkpt lat="49.43628" lon="5.83548">
        <ele>373.20001220703</ele>
        <time>2023-06-18T08:42:17Z</time>
      </trkpt>
      <trkpt lat="49.43624" lon="5.83526">
        <ele>373</ele>
        <time>2023-06-18T08:42:19Z</time>
      </trkpt>
      <trkpt lat="49.4362" lon="5.83508">
        <ele>372.39999389648</ele>
        <time>2023-06-18T08:42:21Z</time>
      </trkpt>
      <trkpt lat="49.43617" lon="5.83491">
        <ele>372</ele>
        <time>2023-06-18T08:42:23Z</time>
      </trkpt>
      <trkpt lat="49.43616" lon="5.83484">
        <ele>371.79998779297</ele>
        <time>2023-06-18T08:42:24Z</time>
      </trkpt>
      <trkpt lat="49.43614" lon="5.83476">
        <ele>371.79998779297</ele>
        <time>2023-06-18T08:42:25Z</time>
      </trkpt>
      <trkpt lat="49.43611" lon="5.8346">
        <ele>371.39999389648</ele>
        <time>2023-06-18T08:42:27Z</time>
      </trkpt>
      <trkpt lat="49.43609" lon="5.83444">
        <ele>371.20001220703</ele>
        <time>2023-06-18T08:42:29Z</time>
      </trkpt>
      <trkpt lat="49.43607" lon="5.83427">
        <ele>371</ele>
        <time>2023-06-18T08:42:31Z</time>
      </trkpt>
      <trkpt lat="49.43604" lon="5.83413">
        <ele>371</ele>
        <time>2023-06-18T08:42:33Z</time>
      </trkpt>
      <trkpt lat="49.436" lon="5.83399">
        <ele>371</ele>
        <time>2023-06-18T08:42:35Z</time>
      </trkpt>
      <trkpt lat="49.43598" lon="5.83381">
        <ele>371</ele>
        <time>2023-06-18T08:42:37Z</time>
      </trkpt>
      <trkpt lat="49.43596" lon="5.83368">
        <ele>370.79998779297</ele>
        <time>2023-06-18T08:42:39Z</time>
      </trkpt>
      <trkpt lat="49.43594" lon="5.83354">
        <ele>370.79998779297</ele>
        <time>2023-06-18T08:42:41Z</time>
      </trkpt>
      <trkpt lat="49.43592" lon="5.83344">
        <ele>370.79998779297</ele>
        <time>2023-06-18T08:42:43Z</time>
      </trkpt>
      <trkpt lat="49.43591" lon="5.83338">
        <ele>370.79998779297</ele>
        <time>2023-06-18T08:42:44Z</time>
      </trkpt>
      <trkpt lat="49.4359" lon="5.83333">
        <ele>370.79998779297</ele>
        <time>2023-06-18T08:42:45Z</time>
      </trkpt>
      <trkpt lat="49.43586" lon="5.8332">
        <ele>370.60000610352</ele>
        <time>2023-06-18T08:42:47Z</time>
      </trkpt>
      <trkpt lat="49.43584" lon="5.83308">
        <ele>370.60000610352</ele>
        <time>2023-06-18T08:42:49Z</time>
      </trkpt>
      <trkpt lat="49.43583" lon="5.83296">
        <ele>370.39999389648</ele>
        <time>2023-06-18T08:42:51Z</time>
      </trkpt>
      <trkpt lat="49.43582" lon="5.8329">
        <ele>370.20001220703</ele>
        <time>2023-06-18T08:42:52Z</time>
      </trkpt>
      <trkpt lat="49.43582" lon="5.83283">
        <ele>370.20001220703</ele>
        <time>2023-06-18T08:42:53Z</time>
      </trkpt>
      <trkpt lat="49.43576" lon="5.83263">
        <ele>370</ele>
        <time>2023-06-18T08:42:55Z</time>
      </trkpt>
      <trkpt lat="49.43573" lon="5.83249">
        <ele>369.79998779297</ele>
        <time>2023-06-18T08:42:57Z</time>
      </trkpt>
      <trkpt lat="49.4357" lon="5.83241">
        <ele>369.60000610352</ele>
        <time>2023-06-18T08:42:59Z</time>
      </trkpt>
      <trkpt lat="49.43567" lon="5.83236">
        <ele>369.60000610352</ele>
        <time>2023-06-18T08:43:01Z</time>
      </trkpt>
      <trkpt lat="49.43565" lon="5.83232">
        <ele>369.60000610352</ele>
        <time>2023-06-18T08:43:03Z</time>
      </trkpt>
      <trkpt lat="49.43565" lon="5.83231">
        <ele>369.60000610352</ele>
        <time>2023-06-18T08:43:05Z</time>
      </trkpt>
      <trkpt lat="49.43564" lon="5.8323">
        <ele>369.79998779297</ele>
        <time>2023-06-18T08:43:07Z</time>
      </trkpt>
      <trkpt lat="49.43564" lon="5.83229">
        <ele>369.79998779297</ele>
        <time>2023-06-18T08:43:09Z</time>
      </trkpt>
      <trkpt lat="49.43565" lon="5.83228">
        <ele>370</ele>
        <time>2023-06-18T08:43:11Z</time>
      </trkpt>
      <trkpt lat="49.43566" lon="5.83227">
        <ele>370.20001220703</ele>
        <time>2023-06-18T08:43:13Z</time>
      </trkpt>
      <trkpt lat="49.43566" lon="5.83227">
        <ele>370.39999389648</ele>
        <time>2023-06-18T08:43:15Z</time>
      </trkpt>
      <trkpt lat="49.43567" lon="5.83227">
        <ele>370.60000610352</ele>
        <time>2023-06-18T08:43:17Z</time>
      </trkpt>
      <trkpt lat="49.43567" lon="5.83227">
        <ele>370.79998779297</ele>
        <time>2023-06-18T08:43:19Z</time>
      </trkpt>
      <trkpt lat="49.43568" lon="5.83229">
        <ele>370.79998779297</ele>
        <time>2023-06-18T08:43:21Z</time>
      </trkpt>
      <trkpt lat="49.43569" lon="5.83229">
        <ele>370.79998779297</ele>
        <time>2023-06-18T08:43:23Z</time>
      </trkpt>
      <trkpt lat="49.4357" lon="5.8323">
        <ele>370.79998779297</ele>
        <time>2023-06-18T08:43:24Z</time>
      </trkpt>
      <trkpt lat="49.43571" lon="5.83231">
        <ele>370.79998779297</ele>
        <time>2023-06-18T08:43:25Z</time>
      </trkpt>
      <trkpt lat="49.43573" lon="5.83232">
        <ele>370.79998779297</ele>
        <time>2023-06-18T08:43:27Z</time>
      </trkpt>
      <trkpt lat="49.43574" lon="5.83234">
        <ele>370.79998779297</ele>
        <time>2023-06-18T08:43:29Z</time>
      </trkpt>
      <trkpt lat="49.43575" lon="5.83235">
        <ele>370.60000610352</ele>
        <time>2023-06-18T08:43:31Z</time>
      </trkpt>
      <trkpt lat="49.43576" lon="5.83235">
        <ele>370.60000610352</ele>
        <time>2023-06-18T08:43:33Z</time>
      </trkpt>
      <trkpt lat="49.43576" lon="5.83235">
        <ele>370.39999389648</ele>
        <time>2023-06-18T08:43:35Z</time>
      </trkpt>
      <trkpt lat="49.43576" lon="5.83235">
        <ele>370</ele>
        <time>2023-06-18T08:43:37Z</time>
      </trkpt>
      <trkpt lat="49.43576" lon="5.83235">
        <ele>370</ele>
        <time>2023-06-18T08:43:39Z</time>
      </trkpt>
      <trkpt lat="49.43576" lon="5.83235">
        <ele>369.79998779297</ele>
        <time>2023-06-18T08:43:41Z</time>
      </trkpt>
      <trkpt lat="49.43576" lon="5.83235">
        <ele>369.79998779297</ele>
        <time>2023-06-18T08:43:42Z</time>
      </trkpt>
      <trkpt lat="49.43576" lon="5.83235">
        <ele>369.79998779297</ele>
        <time>2023-06-18T08:43:43Z</time>
      </trkpt>
      <trkpt lat="49.43576" lon="5.83235">
        <ele>369.79998779297</ele>
        <time>2023-06-18T08:43:45Z</time>
      </trkpt>
      <trkpt lat="49.43576" lon="5.83235">
        <ele>369.79998779297</ele>
        <time>2023-06-18T08:43:47Z</time>
      </trkpt>
      <trkpt lat="49.43576" lon="5.83235">
        <ele>369.79998779297</ele>
        <time>2023-06-18T08:43:49Z</time>
      </trkpt>
      <trkpt lat="49.43576" lon="5.83235">
        <ele>369.60000610352</ele>
        <time>2023-06-18T08:43:51Z</time>
      </trkpt>
      <trkpt lat="49.43576" lon="5.83235">
        <ele>369.60000610352</ele>
        <time>2023-06-18T08:43:53Z</time>
      </trkpt>
      <trkpt lat="49.43576" lon="5.83235">
        <ele>369.60000610352</ele>
        <time>2023-06-18T08:43:55Z</time>
      </trkpt>
      <trkpt lat="49.43576" lon="5.83235">
        <ele>369.60000610352</ele>
        <time>2023-06-18T08:43:57Z</time>
      </trkpt>
      <trkpt lat="49.43576" lon="5.83235">
        <ele>369.60000610352</ele>
        <time>2023-06-18T08:43:59Z</time>
      </trkpt>
      <trkpt lat="49.43576" lon="5.83235">
        <ele>369.60000610352</ele>
        <time>2023-06-18T08:44:01Z</time>
      </trkpt>
      <trkpt lat="49.43576" lon="5.83235">
        <ele>369.60000610352</ele>
        <time>2023-06-18T08:44:03Z</time>
      </trkpt>
      <trkpt lat="49.43576" lon="5.83234">
        <ele>369.60000610352</ele>
        <time>2023-06-18T08:44:05Z</time>
      </trkpt>
      <trkpt lat="49.43576" lon="5.83234">
        <ele>369.60000610352</ele>
        <time>2023-06-18T08:44:07Z</time>
      </trkpt>
      <trkpt lat="49.43576" lon="5.83234">
        <ele>369.60000610352</ele>
        <time>2023-06-18T08:44:09Z</time>
      </trkpt>
      <trkpt lat="49.43576" lon="5.83234">
        <ele>369.60000610352</ele>
        <time>2023-06-18T08:44:11Z</time>
      </trkpt>
      <trkpt lat="49.43576" lon="5.83234">
        <ele>369.60000610352</ele>
        <time>2023-06-18T08:44:12Z</time>
      </trkpt>
      <trkpt lat="49.43576" lon="5.83234">
        <ele>369.79998779297</ele>
        <time>2023-06-18T08:44:13Z</time>
      </trkpt>
      <trkpt lat="49.43576" lon="5.83234">
        <ele>369.79998779297</ele>
        <time>2023-06-18T08:44:15Z</time>
      </trkpt>
      <trkpt lat="49.43576" lon="5.83234">
        <ele>369.79998779297</ele>
        <time>2023-06-18T08:44:17Z</time>
      </trkpt>
      <trkpt lat="49.43576" lon="5.83234">
        <ele>370</ele>
        <time>2023-06-18T08:44:19Z</time>
      </trkpt>
      <trkpt lat="49.43576" lon="5.83234">
        <ele>369.79998779297</ele>
        <time>2023-06-18T08:44:21Z</time>
      </trkpt>
      <trkpt lat="49.43576" lon="5.83234">
        <ele>369.79998779297</ele>
        <time>2023-06-18T08:44:23Z</time>
      </trkpt>
      <trkpt lat="49.43576" lon="5.83234">
        <ele>370</ele>
        <time>2023-06-18T08:44:25Z</time>
      </trkpt>
      <trkpt lat="49.43576" lon="5.83234">
        <ele>370</ele>
        <time>2023-06-18T08:44:27Z</time>
      </trkpt>
      <trkpt lat="49.43576" lon="5.83234">
        <ele>369.79998779297</ele>
        <time>2023-06-18T08:44:29Z</time>
      </trkpt>
      <trkpt lat="49.43576" lon="5.83234">
        <ele>369.60000610352</ele>
        <time>2023-06-18T08:44:31Z</time>
      </trkpt>
      <trkpt lat="49.43575" lon="5.83234">
        <ele>369.20001220703</ele>
        <time>2023-06-18T08:44:33Z</time>
      </trkpt>
      <trkpt lat="49.43575" lon="5.83234">
        <ele>369.20001220703</ele>
        <time>2023-06-18T08:44:34Z</time>
      </trkpt>
      <trkpt lat="49.43575" lon="5.83234">
        <ele>369.20001220703</ele>
        <time>2023-06-18T08:44:35Z</time>
      </trkpt>
      <trkpt lat="49.43575" lon="5.83234">
        <ele>369</ele>
        <time>2023-06-18T08:44:37Z</time>
      </trkpt>
      <trkpt lat="49.43575" lon="5.83234">
        <ele>369</ele>
        <time>2023-06-18T08:44:38Z</time>
      </trkpt>
      <trkpt lat="49.43575" lon="5.83234">
        <ele>369</ele>
        <time>2023-06-18T08:44:39Z</time>
      </trkpt>
      <trkpt lat="49.43575" lon="5.83234">
        <ele>369</ele>
        <time>2023-06-18T08:44:41Z</time>
      </trkpt>
      <trkpt lat="49.43575" lon="5.83234">
        <ele>369</ele>
        <time>2023-06-18T08:44:43Z</time>
      </trkpt>
      <trkpt lat="49.43575" lon="5.83234">
        <ele>369</ele>
        <time>2023-06-18T08:44:45Z</time>
      </trkpt>
      <trkpt lat="49.43575" lon="5.83234">
        <ele>369</ele>
        <time>2023-06-18T08:44:47Z</time>
      </trkpt>
      <trkpt lat="49.43575" lon="5.83234">
        <ele>369.20001220703</ele>
        <time>2023-06-18T08:44:49Z</time>
      </trkpt>
      <trkpt lat="49.43575" lon="5.83233">
        <ele>369</ele>
        <time>2023-06-18T08:44:51Z</time>
      </trkpt>
      <trkpt lat="49.43575" lon="5.83233">
        <ele>369.20001220703</ele>
        <time>2023-06-18T08:44:52Z</time>
      </trkpt>
      <trkpt lat="49.43575" lon="5.83233">
        <ele>369.20001220703</ele>
        <time>2023-06-18T08:44:53Z</time>
      </trkpt>
      <trkpt lat="49.43575" lon="5.83233">
        <ele>369.39999389648</ele>
        <time>2023-06-18T08:44:55Z</time>
      </trkpt>
      <trkpt lat="49.43575" lon="5.83233">
        <ele>369.39999389648</ele>
        <time>2023-06-18T08:44:57Z</time>
      </trkpt>
      <trkpt lat="49.43575" lon="5.83233">
        <ele>369.20001220703</ele>
        <time>2023-06-18T08:44:58Z</time>
      </trkpt>
      <trkpt lat="49.43575" lon="5.83233">
        <ele>369.39999389648</ele>
        <time>2023-06-18T08:44:59Z</time>
      </trkpt>
      <trkpt lat="49.43575" lon="5.83233">
        <ele>369.20001220703</ele>
        <time>2023-06-18T08:45:01Z</time>
      </trkpt>
      <trkpt lat="49.43575" lon="5.83233">
        <ele>369.39999389648</ele>
        <time>2023-06-18T08:45:03Z</time>
      </trkpt>
      <trkpt lat="49.43575" lon="5.83233">
        <ele>369.39999389648</ele>
        <time>2023-06-18T08:45:05Z</time>
      </trkpt>
      <trkpt lat="49.43575" lon="5.83233">
        <ele>369.39999389648</ele>
        <time>2023-06-18T08:45:07Z</time>
      </trkpt>
      <trkpt lat="49.43575" lon="5.83233">
        <ele>369.39999389648</ele>
        <time>2023-06-18T08:45:09Z</time>
      </trkpt>
      <trkpt lat="49.43575" lon="5.83233">
        <ele>369.20001220703</ele>
        <time>2023-06-18T08:45:11Z</time>
      </trkpt>
      <trkpt lat="49.43575" lon="5.83233">
        <ele>369.20001220703</ele>
        <time>2023-06-18T08:45:13Z</time>
      </trkpt>
      <trkpt lat="49.43575" lon="5.83233">
        <ele>369.39999389648</ele>
        <time>2023-06-18T08:45:15Z</time>
      </trkpt>
      <trkpt lat="49.43575" lon="5.83233">
        <ele>369.39999389648</ele>
        <time>2023-06-18T08:45:17Z</time>
      </trkpt>
      <trkpt lat="49.43575" lon="5.83233">
        <ele>369.39999389648</ele>
        <time>2023-06-18T08:45:19Z</time>
      </trkpt>
      <trkpt lat="49.43575" lon="5.83233">
        <ele>369.39999389648</ele>
        <time>2023-06-18T08:45:21Z</time>
      </trkpt>
      <trkpt lat="49.43575" lon="5.83233">
        <ele>369.20001220703</ele>
        <time>2023-06-18T08:45:23Z</time>
      </trkpt>
      <trkpt lat="49.43575" lon="5.83233">
        <ele>369.20001220703</ele>
        <time>2023-06-18T08:45:25Z</time>
      </trkpt>
      <trkpt lat="49.43575" lon="5.83234">
        <ele>369.20001220703</ele>
        <time>2023-06-18T08:45:27Z</time>
      </trkpt>
      <trkpt lat="49.43575" lon="5.83234">
        <ele>369.20001220703</ele>
        <time>2023-06-18T08:45:29Z</time>
      </trkpt>
      <trkpt lat="49.43575" lon="5.83234">
        <ele>369.20001220703</ele>
        <time>2023-06-18T08:45:30Z</time>
      </trkpt>
      <trkpt lat="49.43574" lon="5.83234">
        <ele>369.20001220703</ele>
        <time>2023-06-18T08:45:31Z</time>
      </trkpt>
      <trkpt lat="49.43575" lon="5.83233">
        <ele>369.20001220703</ele>
        <time>2023-06-18T08:45:33Z</time>
      </trkpt>
      <trkpt lat="49.43577" lon="5.83231">
        <ele>369.20001220703</ele>
        <time>2023-06-18T08:45:35Z</time>
      </trkpt>
      <trkpt lat="49.43581" lon="5.83228">
        <ele>369.20001220703</ele>
        <time>2023-06-18T08:45:37Z</time>
      </trkpt>
      <trkpt lat="49.43583" lon="5.83227">
        <ele>369.20001220703</ele>
        <time>2023-06-18T08:45:38Z</time>
      </trkpt>
      <trkpt lat="49.43587" lon="5.83227">
        <ele>369.20001220703</ele>
        <time>2023-06-18T08:45:39Z</time>
      </trkpt>
      <trkpt lat="49.43593" lon="5.83225">
        <ele>369.20001220703</ele>
        <time>2023-06-18T08:45:41Z</time>
      </trkpt>
      <trkpt lat="49.43598" lon="5.83221">
        <ele>369.20001220703</ele>
        <time>2023-06-18T08:45:43Z</time>
      </trkpt>
      <trkpt lat="49.43602" lon="5.83218">
        <ele>369.20001220703</ele>
        <time>2023-06-18T08:45:45Z</time>
      </trkpt>
      <trkpt lat="49.43605" lon="5.83213">
        <ele>368.79998779297</ele>
        <time>2023-06-18T08:45:47Z</time>
      </trkpt>
      <trkpt lat="49.43608" lon="5.83206">
        <ele>368.39999389648</ele>
        <time>2023-06-18T08:45:49Z</time>
      </trkpt>
      <trkpt lat="49.4361" lon="5.83197">
        <ele>368.20001220703</ele>
        <time>2023-06-18T08:45:51Z</time>
      </trkpt>
      <trkpt lat="49.4361" lon="5.83188">
        <ele>368.20001220703</ele>
        <time>2023-06-18T08:45:53Z</time>
      </trkpt>
      <trkpt lat="49.4361" lon="5.83183">
        <ele>368.20001220703</ele>
        <time>2023-06-18T08:45:54Z</time>
      </trkpt>
      <trkpt lat="49.4361" lon="5.83178">
        <ele>368.20001220703</ele>
        <time>2023-06-18T08:45:55Z</time>
      </trkpt>
      <trkpt lat="49.43611" lon="5.83167">
        <ele>368.20001220703</ele>
        <time>2023-06-18T08:45:57Z</time>
      </trkpt>
      <trkpt lat="49.43611" lon="5.83157">
        <ele>368.20001220703</ele>
        <time>2023-06-18T08:45:59Z</time>
      </trkpt>
      <trkpt lat="49.4361" lon="5.83147">
        <ele>368</ele>
        <time>2023-06-18T08:46:01Z</time>
      </trkpt>
      <trkpt lat="49.43611" lon="5.83136">
        <ele>368</ele>
        <time>2023-06-18T08:46:03Z</time>
      </trkpt>
      <trkpt lat="49.43611" lon="5.83131">
        <ele>368</ele>
        <time>2023-06-18T08:46:04Z</time>
      </trkpt>
      <trkpt lat="49.43611" lon="5.83127">
        <ele>368</ele>
        <time>2023-06-18T08:46:05Z</time>
      </trkpt>
      <trkpt lat="49.43612" lon="5.83117">
        <ele>368</ele>
        <time>2023-06-18T08:46:07Z</time>
      </trkpt>
      <trkpt lat="49.43614" lon="5.83108">
        <ele>368</ele>
        <time>2023-06-18T08:46:09Z</time>
      </trkpt>
      <trkpt lat="49.43616" lon="5.83103">
        <ele>368</ele>
        <time>2023-06-18T08:46:10Z</time>
      </trkpt>
      <trkpt lat="49.43617" lon="5.83098">
        <ele>368</ele>
        <time>2023-06-18T08:46:11Z</time>
      </trkpt>
      <trkpt lat="49.4362" lon="5.83088">
        <ele>368</ele>
        <time>2023-06-18T08:46:13Z</time>
      </trkpt>
      <trkpt lat="49.43623" lon="5.83079">
        <ele>368</ele>
        <time>2023-06-18T08:46:15Z</time>
      </trkpt>
      <trkpt lat="49.43626" lon="5.8307">
        <ele>368.20001220703</ele>
        <time>2023-06-18T08:46:17Z</time>
      </trkpt>
      <trkpt lat="49.43627" lon="5.83065">
        <ele>368.39999389648</ele>
        <time>2023-06-18T08:46:18Z</time>
      </trkpt>
      <trkpt lat="49.43628" lon="5.83061">
        <ele>368.39999389648</ele>
        <time>2023-06-18T08:46:19Z</time>
      </trkpt>
      <trkpt lat="49.4363" lon="5.83051">
        <ele>368.79998779297</ele>
        <time>2023-06-18T08:46:21Z</time>
      </trkpt>
      <trkpt lat="49.43632" lon="5.83041">
        <ele>369.20001220703</ele>
        <time>2023-06-18T08:46:23Z</time>
      </trkpt>
      <trkpt lat="49.43632" lon="5.83037">
        <ele>369.39999389648</ele>
        <time>2023-06-18T08:46:24Z</time>
      </trkpt>
      <trkpt lat="49.43633" lon="5.83032">
        <ele>369.39999389648</ele>
        <time>2023-06-18T08:46:25Z</time>
      </trkpt>
      <trkpt lat="49.43634" lon="5.83027">
        <ele>369.60000610352</ele>
        <time>2023-06-18T08:46:26Z</time>
      </trkpt>
      <trkpt lat="49.43635" lon="5.83022">
        <ele>369.79998779297</ele>
        <time>2023-06-18T08:46:27Z</time>
      </trkpt>
      <trkpt lat="49.43636" lon="5.83012">
        <ele>370</ele>
        <time>2023-06-18T08:46:29Z</time>
      </trkpt>
      <trkpt lat="49.43638" lon="5.83002">
        <ele>370.39999389648</ele>
        <time>2023-06-18T08:46:31Z</time>
      </trkpt>
      <trkpt lat="49.43638" lon="5.82994">
        <ele>370.39999389648</ele>
        <time>2023-06-18T08:46:33Z</time>
      </trkpt>
      <trkpt lat="49.43639" lon="5.8299">
        <ele>370.60000610352</ele>
        <time>2023-06-18T08:46:34Z</time>
      </trkpt>
      <trkpt lat="49.43639" lon="5.82986">
        <ele>370.79998779297</ele>
        <time>2023-06-18T08:46:35Z</time>
      </trkpt>
      <trkpt lat="49.43641" lon="5.82978">
        <ele>371.20001220703</ele>
        <time>2023-06-18T08:46:37Z</time>
      </trkpt>
      <trkpt lat="49.43643" lon="5.82972">
        <ele>371.39999389648</ele>
        <time>2023-06-18T08:46:39Z</time>
      </trkpt>
      <trkpt lat="49.43645" lon="5.82968">
        <ele>371.60000610352</ele>
        <time>2023-06-18T08:46:41Z</time>
      </trkpt>
      <trkpt lat="49.43646" lon="5.82967">
        <ele>371.60000610352</ele>
        <time>2023-06-18T08:46:42Z</time>
      </trkpt>
      <trkpt lat="49.43647" lon="5.82966">
        <ele>371.79998779297</ele>
        <time>2023-06-18T08:46:43Z</time>
      </trkpt>
      <trkpt lat="49.4365" lon="5.82963">
        <ele>371.79998779297</ele>
        <time>2023-06-18T08:46:45Z</time>
      </trkpt>
      <trkpt lat="49.43652" lon="5.8296">
        <ele>372.39999389648</ele>
        <time>2023-06-18T08:46:47Z</time>
      </trkpt>
      <trkpt lat="49.43653" lon="5.82959">
        <ele>372.79998779297</ele>
        <time>2023-06-18T08:46:48Z</time>
      </trkpt>
      <trkpt lat="49.43654" lon="5.82957">
        <ele>373</ele>
        <time>2023-06-18T08:46:49Z</time>
      </trkpt>
      <trkpt lat="49.43654" lon="5.82957">
        <ele>373.20001220703</ele>
        <time>2023-06-18T08:46:51Z</time>
      </trkpt>
      <trkpt lat="49.43654" lon="5.82956">
        <ele>373.39999389648</ele>
        <time>2023-06-18T08:46:53Z</time>
      </trkpt>
      <trkpt lat="49.43654" lon="5.82956">
        <ele>373.79998779297</ele>
        <time>2023-06-18T08:46:55Z</time>
      </trkpt>
      <trkpt lat="49.43655" lon="5.82956">
        <ele>373.79998779297</ele>
        <time>2023-06-18T08:46:56Z</time>
      </trkpt>
      <trkpt lat="49.43655" lon="5.82956">
        <ele>373.79998779297</ele>
        <time>2023-06-18T08:46:57Z</time>
      </trkpt>
      <trkpt lat="49.43655" lon="5.82956">
        <ele>373.79998779297</ele>
        <time>2023-06-18T08:46:59Z</time>
      </trkpt>
      <trkpt lat="49.43655" lon="5.82956">
        <ele>374</ele>
        <time>2023-06-18T08:47:01Z</time>
      </trkpt>
      <trkpt lat="49.43655" lon="5.82956">
        <ele>374</ele>
        <time>2023-06-18T08:47:03Z</time>
      </trkpt>
      <trkpt lat="49.43655" lon="5.82956">
        <ele>374</ele>
        <time>2023-06-18T08:47:05Z</time>
      </trkpt>
      <trkpt lat="49.43655" lon="5.82956">
        <ele>374</ele>
        <time>2023-06-18T08:47:07Z</time>
      </trkpt>
      <trkpt lat="49.43655" lon="5.82956">
        <ele>374</ele>
        <time>2023-06-18T08:47:09Z</time>
      </trkpt>
      <trkpt lat="49.43655" lon="5.82956">
        <ele>374</ele>
        <time>2023-06-18T08:47:11Z</time>
      </trkpt>
      <trkpt lat="49.43655" lon="5.82956">
        <ele>374</ele>
        <time>2023-06-18T08:47:13Z</time>
      </trkpt>
      <trkpt lat="49.43655" lon="5.82956">
        <ele>374</ele>
        <time>2023-06-18T08:47:15Z</time>
      </trkpt>
      <trkpt lat="49.43655" lon="5.82956">
        <ele>374</ele>
        <time>2023-06-18T08:47:17Z</time>
      </trkpt>
      <trkpt lat="49.43655" lon="5.82956">
        <ele>374</ele>
        <time>2023-06-18T08:47:19Z</time>
      </trkpt>
      <trkpt lat="49.43655" lon="5.82956">
        <ele>374</ele>
        <time>2023-06-18T08:47:21Z</time>
      </trkpt>
      <trkpt lat="49.43655" lon="5.82956">
        <ele>374</ele>
        <time>2023-06-18T08:47:23Z</time>
      </trkpt>
      <trkpt lat="49.43655" lon="5.82956">
        <ele>374</ele>
        <time>2023-06-18T08:47:25Z</time>
      </trkpt>
      <trkpt lat="49.43654" lon="5.82956">
        <ele>374</ele>
        <time>2023-06-18T08:47:27Z</time>
      </trkpt>
      <trkpt lat="49.43654" lon="5.82956">
        <ele>374</ele>
        <time>2023-06-18T08:47:29Z</time>
      </trkpt>
      <trkpt lat="49.43654" lon="5.82956">
        <ele>374</ele>
        <time>2023-06-18T08:47:31Z</time>
      </trkpt>
      <trkpt lat="49.43654" lon="5.82956">
        <ele>374</ele>
        <time>2023-06-18T08:47:33Z</time>
      </trkpt>
      <trkpt lat="49.43654" lon="5.82956">
        <ele>374</ele>
        <time>2023-06-18T08:47:35Z</time>
      </trkpt>
      <trkpt lat="49.43655" lon="5.82956">
        <ele>374</ele>
        <time>2023-06-18T08:47:37Z</time>
      </trkpt>
      <trkpt lat="49.43655" lon="5.82956">
        <ele>373.79998779297</ele>
        <time>2023-06-18T08:47:39Z</time>
      </trkpt>
      <trkpt lat="49.43655" lon="5.82956">
        <ele>373.79998779297</ele>
        <time>2023-06-18T08:47:41Z</time>
      </trkpt>
      <trkpt lat="49.43657" lon="5.82956">
        <ele>373.79998779297</ele>
        <time>2023-06-18T08:47:43Z</time>
      </trkpt>
      <trkpt lat="49.43661" lon="5.82955">
        <ele>373.79998779297</ele>
        <time>2023-06-18T08:47:45Z</time>
      </trkpt>
      <trkpt lat="49.43666" lon="5.82954">
        <ele>373.79998779297</ele>
        <time>2023-06-18T08:47:47Z</time>
      </trkpt>
      <trkpt lat="49.43671" lon="5.82952">
        <ele>373.79998779297</ele>
        <time>2023-06-18T08:47:49Z</time>
      </trkpt>
      <trkpt lat="49.43675" lon="5.82951">
        <ele>373.79998779297</ele>
        <time>2023-06-18T08:47:51Z</time>
      </trkpt>
      <trkpt lat="49.4368" lon="5.8295">
        <ele>374</ele>
        <time>2023-06-18T08:47:53Z</time>
      </trkpt>
      <trkpt lat="49.43685" lon="5.82949">
        <ele>374.20001220703</ele>
        <time>2023-06-18T08:47:55Z</time>
      </trkpt>
      <trkpt lat="49.4369" lon="5.82948">
        <ele>374.39999389648</ele>
        <time>2023-06-18T08:47:57Z</time>
      </trkpt>
      <trkpt lat="49.43696" lon="5.82947">
        <ele>374.79998779297</ele>
        <time>2023-06-18T08:47:59Z</time>
      </trkpt>
      <trkpt lat="49.43698" lon="5.82946">
        <ele>374.79998779297</ele>
        <time>2023-06-18T08:48:00Z</time>
      </trkpt>
      <trkpt lat="49.43701" lon="5.82946">
        <ele>374.79998779297</ele>
        <time>2023-06-18T08:48:01Z</time>
      </trkpt>
      <trkpt lat="49.43706" lon="5.82945">
        <ele>375</ele>
        <time>2023-06-18T08:48:03Z</time>
      </trkpt>
      <trkpt lat="49.43711" lon="5.82945">
        <ele>375.20001220703</ele>
        <time>2023-06-18T08:48:05Z</time>
      </trkpt>
      <trkpt lat="49.43715" lon="5.82944">
        <ele>375.39999389648</ele>
        <time>2023-06-18T08:48:07Z</time>
      </trkpt>
      <trkpt lat="49.43718" lon="5.82944">
        <ele>375.60000610352</ele>
        <time>2023-06-18T08:48:08Z</time>
      </trkpt>
      <trkpt lat="49.4372" lon="5.82944">
        <ele>375.79998779297</ele>
        <time>2023-06-18T08:48:09Z</time>
      </trkpt>
      <trkpt lat="49.43725" lon="5.82944">
        <ele>376.20001220703</ele>
        <time>2023-06-18T08:48:11Z</time>
      </trkpt>
      <trkpt lat="49.4373" lon="5.82943">
        <ele>376.20001220703</ele>
        <time>2023-06-18T08:48:13Z</time>
      </trkpt>
      <trkpt lat="49.43732" lon="5.82942">
        <ele>376.20001220703</ele>
        <time>2023-06-18T08:48:14Z</time>
      </trkpt>
      <trkpt lat="49.43735" lon="5.82941">
        <ele>376.20001220703</ele>
        <time>2023-06-18T08:48:15Z</time>
      </trkpt>
      <trkpt lat="49.4374" lon="5.8294">
        <ele>376.20001220703</ele>
        <time>2023-06-18T08:48:17Z</time>
      </trkpt>
      <trkpt lat="49.43745" lon="5.82937">
        <ele>376.20001220703</ele>
        <time>2023-06-18T08:48:19Z</time>
      </trkpt>
      <trkpt lat="49.43751" lon="5.82934">
        <ele>376.20001220703</ele>
        <time>2023-06-18T08:48:21Z</time>
      </trkpt>
      <trkpt lat="49.43757" lon="5.82931">
        <ele>376.20001220703</ele>
        <time>2023-06-18T08:48:23Z</time>
      </trkpt>
      <trkpt lat="49.43762" lon="5.82928">
        <ele>376</ele>
        <time>2023-06-18T08:48:25Z</time>
      </trkpt>
      <trkpt lat="49.43769" lon="5.82925">
        <ele>376</ele>
        <time>2023-06-18T08:48:27Z</time>
      </trkpt>
      <trkpt lat="49.43775" lon="5.82923">
        <ele>375.79998779297</ele>
        <time>2023-06-18T08:48:29Z</time>
      </trkpt>
      <trkpt lat="49.43781" lon="5.82922">
        <ele>375.79998779297</ele>
        <time>2023-06-18T08:48:31Z</time>
      </trkpt>
      <trkpt lat="49.43787" lon="5.82922">
        <ele>375.60000610352</ele>
        <time>2023-06-18T08:48:33Z</time>
      </trkpt>
      <trkpt lat="49.43796" lon="5.82923">
        <ele>375.39999389648</ele>
        <time>2023-06-18T08:48:35Z</time>
      </trkpt>
      <trkpt lat="49.43801" lon="5.82924">
        <ele>375.39999389648</ele>
        <time>2023-06-18T08:48:36Z</time>
      </trkpt>
      <trkpt lat="49.43805" lon="5.82927">
        <ele>375.39999389648</ele>
        <time>2023-06-18T08:48:37Z</time>
      </trkpt>
      <trkpt lat="49.43812" lon="5.82933">
        <ele>374.79998779297</ele>
        <time>2023-06-18T08:48:39Z</time>
      </trkpt>
      <trkpt lat="49.43816" lon="5.82936">
        <ele>374.79998779297</ele>
        <time>2023-06-18T08:48:40Z</time>
      </trkpt>
      <trkpt lat="49.43819" lon="5.82939">
        <ele>374.60000610352</ele>
        <time>2023-06-18T08:48:41Z</time>
      </trkpt>
      <trkpt lat="49.43826" lon="5.82946">
        <ele>374</ele>
        <time>2023-06-18T08:48:43Z</time>
      </trkpt>
      <trkpt lat="49.4383" lon="5.82949">
        <ele>373.60000610352</ele>
        <time>2023-06-18T08:48:44Z</time>
      </trkpt>
      <trkpt lat="49.43834" lon="5.82952">
        <ele>373.39999389648</ele>
        <time>2023-06-18T08:48:45Z</time>
      </trkpt>
      <trkpt lat="49.43842" lon="5.82959">
        <ele>373.20001220703</ele>
        <time>2023-06-18T08:48:47Z</time>
      </trkpt>
      <trkpt lat="49.43854" lon="5.82967">
        <ele>373</ele>
        <time>2023-06-18T08:48:49Z</time>
      </trkpt>
      <trkpt lat="49.43863" lon="5.82975">
        <ele>372.79998779297</ele>
        <time>2023-06-18T08:48:51Z</time>
      </trkpt>
      <trkpt lat="49.43868" lon="5.8298">
        <ele>372.39999389648</ele>
        <time>2023-06-18T08:48:52Z</time>
      </trkpt>
      <trkpt lat="49.43872" lon="5.82985">
        <ele>371.79998779297</ele>
        <time>2023-06-18T08:48:53Z</time>
      </trkpt>
      <trkpt lat="49.43876" lon="5.8299">
        <ele>371.20001220703</ele>
        <time>2023-06-18T08:48:54Z</time>
      </trkpt>
      <trkpt lat="49.4388" lon="5.82996">
        <ele>371</ele>
        <time>2023-06-18T08:48:55Z</time>
      </trkpt>
      <trkpt lat="49.43885" lon="5.83001">
        <ele>370.60000610352</ele>
        <time>2023-06-18T08:48:56Z</time>
      </trkpt>
      <trkpt lat="49.43889" lon="5.83006">
        <ele>370</ele>
        <time>2023-06-18T08:48:57Z</time>
      </trkpt>
      <trkpt lat="49.43896" lon="5.83015">
        <ele>369.20001220703</ele>
        <time>2023-06-18T08:48:59Z</time>
      </trkpt>
      <trkpt lat="49.43899" lon="5.83019">
        <ele>369</ele>
        <time>2023-06-18T08:49:00Z</time>
      </trkpt>
      <trkpt lat="49.43902" lon="5.83022">
        <ele>368.79998779297</ele>
        <time>2023-06-18T08:49:01Z</time>
      </trkpt>
      <trkpt lat="49.43905" lon="5.83026">
        <ele>368.79998779297</ele>
        <time>2023-06-18T08:49:02Z</time>
      </trkpt>
      <trkpt lat="49.43907" lon="5.83027">
        <ele>368.79998779297</ele>
        <time>2023-06-18T08:49:03Z</time>
      </trkpt>
      <trkpt lat="49.43914" lon="5.83026">
        <ele>368.60000610352</ele>
        <time>2023-06-18T08:49:05Z</time>
      </trkpt>
      <trkpt lat="49.43918" lon="5.83024">
        <ele>368.60000610352</ele>
        <time>2023-06-18T08:49:06Z</time>
      </trkpt>
      <trkpt lat="49.43921" lon="5.83023">
        <ele>368.39999389648</ele>
        <time>2023-06-18T08:49:07Z</time>
      </trkpt>
      <trkpt lat="49.43924" lon="5.8302">
        <ele>368.39999389648</ele>
        <time>2023-06-18T08:49:08Z</time>
      </trkpt>
      <trkpt lat="49.43928" lon="5.83018">
        <ele>368.20001220703</ele>
        <time>2023-06-18T08:49:09Z</time>
      </trkpt>
      <trkpt lat="49.43934" lon="5.83012">
        <ele>367.79998779297</ele>
        <time>2023-06-18T08:49:11Z</time>
      </trkpt>
      <trkpt lat="49.43939" lon="5.83009">
        <ele>367.79998779297</ele>
        <time>2023-06-18T08:49:12Z</time>
      </trkpt>
      <trkpt lat="49.43945" lon="5.83005">
        <ele>367.79998779297</ele>
        <time>2023-06-18T08:49:13Z</time>
      </trkpt>
      <trkpt lat="49.43956" lon="5.82998">
        <ele>367.39999389648</ele>
        <time>2023-06-18T08:49:15Z</time>
      </trkpt>
      <trkpt lat="49.4397" lon="5.82991">
        <ele>367</ele>
        <time>2023-06-18T08:49:17Z</time>
      </trkpt>
      <trkpt lat="49.43976" lon="5.82989">
        <ele>366.60000610352</ele>
        <time>2023-06-18T08:49:18Z</time>
      </trkpt>
      <trkpt lat="49.43981" lon="5.82987">
        <ele>366.20001220703</ele>
        <time>2023-06-18T08:49:19Z</time>
      </trkpt>
      <trkpt lat="49.43985" lon="5.82986">
        <ele>365.39999389648</ele>
        <time>2023-06-18T08:49:20Z</time>
      </trkpt>
      <trkpt lat="49.43989" lon="5.82984">
        <ele>364.39999389648</ele>
        <time>2023-06-18T08:49:21Z</time>
      </trkpt>
      <trkpt lat="49.43992" lon="5.82982">
        <ele>363.39999389648</ele>
        <time>2023-06-18T08:49:22Z</time>
      </trkpt>
      <trkpt lat="49.43995" lon="5.8298">
        <ele>362.39999389648</ele>
        <time>2023-06-18T08:49:23Z</time>
      </trkpt>
      <trkpt lat="49.43997" lon="5.82978">
        <ele>360.79998779297</ele>
        <time>2023-06-18T08:49:24Z</time>
      </trkpt>
      <trkpt lat="49.44" lon="5.82977">
        <ele>359.60000610352</ele>
        <time>2023-06-18T08:49:25Z</time>
      </trkpt>
      <trkpt lat="49.44003" lon="5.82974">
        <ele>358.20001220703</ele>
        <time>2023-06-18T08:49:26Z</time>
      </trkpt>
      <trkpt lat="49.44004" lon="5.82971">
        <ele>357.39999389648</ele>
        <time>2023-06-18T08:49:27Z</time>
      </trkpt>
      <trkpt lat="49.44004" lon="5.82969">
        <ele>356.79998779297</ele>
        <time>2023-06-18T08:49:28Z</time>
      </trkpt>
      <trkpt lat="49.44004" lon="5.82969">
        <ele>356.39999389648</ele>
        <time>2023-06-18T08:49:29Z</time>
      </trkpt>
      <trkpt lat="49.44005" lon="5.8297">
        <ele>356.20001220703</ele>
        <time>2023-06-18T08:49:30Z</time>
      </trkpt>
      <trkpt lat="49.44006" lon="5.8297">
        <ele>356</ele>
        <time>2023-06-18T08:49:31Z</time>
      </trkpt>
      <trkpt lat="49.44009" lon="5.8297">
        <ele>355.39999389648</ele>
        <time>2023-06-18T08:49:33Z</time>
      </trkpt>
      <trkpt lat="49.44009" lon="5.8297">
        <ele>355.20001220703</ele>
        <time>2023-06-18T08:49:34Z</time>
      </trkpt>
      <trkpt lat="49.44009" lon="5.8297">
        <ele>355</ele>
        <time>2023-06-18T08:49:35Z</time>
      </trkpt>
      <trkpt lat="49.44009" lon="5.8297">
        <ele>354.79998779297</ele>
        <time>2023-06-18T08:49:37Z</time>
      </trkpt>
      <trkpt lat="49.44009" lon="5.8297">
        <ele>354.79998779297</ele>
        <time>2023-06-18T08:49:39Z</time>
      </trkpt>
      <trkpt lat="49.44009" lon="5.8297">
        <ele>354.60000610352</ele>
        <time>2023-06-18T08:49:41Z</time>
      </trkpt>
      <trkpt lat="49.44009" lon="5.8297">
        <ele>354.60000610352</ele>
        <time>2023-06-18T08:49:43Z</time>
      </trkpt>
      <trkpt lat="49.44009" lon="5.8297">
        <ele>354.60000610352</ele>
        <time>2023-06-18T08:49:45Z</time>
      </trkpt>
      <trkpt lat="49.44009" lon="5.8297">
        <ele>354.60000610352</ele>
        <time>2023-06-18T08:49:47Z</time>
      </trkpt>
      <trkpt lat="49.44009" lon="5.8297">
        <ele>354.60000610352</ele>
        <time>2023-06-18T08:49:49Z</time>
      </trkpt>
      <trkpt lat="49.44009" lon="5.8297">
        <ele>354.60000610352</ele>
        <time>2023-06-18T08:49:51Z</time>
      </trkpt>
      <trkpt lat="49.44009" lon="5.8297">
        <ele>354.60000610352</ele>
        <time>2023-06-18T08:49:53Z</time>
      </trkpt>
      <trkpt lat="49.44009" lon="5.8297">
        <ele>354.60000610352</ele>
        <time>2023-06-18T08:49:55Z</time>
      </trkpt>
      <trkpt lat="49.44009" lon="5.8297">
        <ele>354.60000610352</ele>
        <time>2023-06-18T08:49:57Z</time>
      </trkpt>
      <trkpt lat="49.44009" lon="5.8297">
        <ele>354.60000610352</ele>
        <time>2023-06-18T08:49:59Z</time>
      </trkpt>
      <trkpt lat="49.44009" lon="5.8297">
        <ele>354.60000610352</ele>
        <time>2023-06-18T08:50:01Z</time>
      </trkpt>
      <trkpt lat="49.44009" lon="5.8297">
        <ele>354.60000610352</ele>
        <time>2023-06-18T08:50:03Z</time>
      </trkpt>
      <trkpt lat="49.44009" lon="5.8297">
        <ele>354.60000610352</ele>
        <time>2023-06-18T08:50:05Z</time>
      </trkpt>
      <trkpt lat="49.44009" lon="5.8297">
        <ele>354.60000610352</ele>
        <time>2023-06-18T08:50:06Z</time>
      </trkpt>
      <trkpt lat="49.44009" lon="5.8297">
        <ele>354.60000610352</ele>
        <time>2023-06-18T08:50:07Z</time>
      </trkpt>
      <trkpt lat="49.44009" lon="5.8297">
        <ele>354.60000610352</ele>
        <time>2023-06-18T08:50:09Z</time>
      </trkpt>
      <trkpt lat="49.44009" lon="5.8297">
        <ele>354.39999389648</ele>
        <time>2023-06-18T08:50:11Z</time>
      </trkpt>
      <trkpt lat="49.44009" lon="5.8297">
        <ele>354.60000610352</ele>
        <time>2023-06-18T08:50:13Z</time>
      </trkpt>
      <trkpt lat="49.44009" lon="5.8297">
        <ele>354.60000610352</ele>
        <time>2023-06-18T08:50:15Z</time>
      </trkpt>
      <trkpt lat="49.44009" lon="5.8297">
        <ele>354.60000610352</ele>
        <time>2023-06-18T08:50:17Z</time>
      </trkpt>
      <trkpt lat="49.44009" lon="5.8297">
        <ele>354.60000610352</ele>
        <time>2023-06-18T08:50:19Z</time>
      </trkpt>
      <trkpt lat="49.44009" lon="5.8297">
        <ele>354.60000610352</ele>
        <time>2023-06-18T08:50:20Z</time>
      </trkpt>
      <trkpt lat="49.44009" lon="5.8297">
        <ele>354.60000610352</ele>
        <time>2023-06-18T08:50:21Z</time>
      </trkpt>
      <trkpt lat="49.44009" lon="5.8297">
        <ele>354.39999389648</ele>
        <time>2023-06-18T08:50:23Z</time>
      </trkpt>
      <trkpt lat="49.44009" lon="5.8297">
        <ele>354.39999389648</ele>
        <time>2023-06-18T08:50:25Z</time>
      </trkpt>
      <trkpt lat="49.44009" lon="5.8297">
        <ele>354.39999389648</ele>
        <time>2023-06-18T08:50:27Z</time>
      </trkpt>
      <trkpt lat="49.44008" lon="5.82969">
        <ele>354.20001220703</ele>
        <time>2023-06-18T08:50:29Z</time>
      </trkpt>
      <trkpt lat="49.44008" lon="5.82968">
        <ele>354.20001220703</ele>
        <time>2023-06-18T08:50:30Z</time>
      </trkpt>
      <trkpt lat="49.44007" lon="5.82967">
        <ele>354</ele>
        <time>2023-06-18T08:50:31Z</time>
      </trkpt>
      <trkpt lat="49.44007" lon="5.82966">
        <ele>354.20001220703</ele>
        <time>2023-06-18T08:50:32Z</time>
      </trkpt>
      <trkpt lat="49.44006" lon="5.82964">
        <ele>354.20001220703</ele>
        <time>2023-06-18T08:50:33Z</time>
      </trkpt>
      <trkpt lat="49.44004" lon="5.8296">
        <ele>354</ele>
        <time>2023-06-18T08:50:35Z</time>
      </trkpt>
      <trkpt lat="49.44002" lon="5.82954">
        <ele>353.79998779297</ele>
        <time>2023-06-18T08:50:37Z</time>
      </trkpt>
      <trkpt lat="49.43999" lon="5.82946">
        <ele>353.79998779297</ele>
        <time>2023-06-18T08:50:39Z</time>
      </trkpt>
      <trkpt lat="49.43996" lon="5.82937">
        <ele>353.79998779297</ele>
        <time>2023-06-18T08:50:41Z</time>
      </trkpt>
      <trkpt lat="49.43995" lon="5.82932">
        <ele>353.79998779297</ele>
        <time>2023-06-18T08:50:42Z</time>
      </trkpt>
      <trkpt lat="49.43994" lon="5.82928">
        <ele>353.60000610352</ele>
        <time>2023-06-18T08:50:43Z</time>
      </trkpt>
      <trkpt lat="49.43992" lon="5.82918">
        <ele>353.60000610352</ele>
        <time>2023-06-18T08:50:45Z</time>
      </trkpt>
      <trkpt lat="49.4399" lon="5.82908">
        <ele>353.39999389648</ele>
        <time>2023-06-18T08:50:47Z</time>
      </trkpt>
      <trkpt lat="49.43987" lon="5.82897">
        <ele>353.39999389648</ele>
        <time>2023-06-18T08:50:49Z</time>
      </trkpt>
      <trkpt lat="49.43984" lon="5.82886">
        <ele>353.20001220703</ele>
        <time>2023-06-18T08:50:51Z</time>
      </trkpt>
      <trkpt lat="49.43983" lon="5.8288">
        <ele>353.20001220703</ele>
        <time>2023-06-18T08:50:52Z</time>
      </trkpt>
      <trkpt lat="49.43982" lon="5.82874">
        <ele>353.20001220703</ele>
        <time>2023-06-18T08:50:53Z</time>
      </trkpt>
      <trkpt lat="49.43979" lon="5.82862">
        <ele>353</ele>
        <time>2023-06-18T08:50:55Z</time>
      </trkpt>
      <trkpt lat="49.43977" lon="5.82851">
        <ele>353</ele>
        <time>2023-06-18T08:50:57Z</time>
      </trkpt>
      <trkpt lat="49.43976" lon="5.82846">
        <ele>352.79998779297</ele>
        <time>2023-06-18T08:50:58Z</time>
      </trkpt>
      <trkpt lat="49.43974" lon="5.8284">
        <ele>352.79998779297</ele>
        <time>2023-06-18T08:50:59Z</time>
      </trkpt>
      <trkpt lat="49.43971" lon="5.82828">
        <ele>352.60000610352</ele>
        <time>2023-06-18T08:51:01Z</time>
      </trkpt>
      <trkpt lat="49.43969" lon="5.82817">
        <ele>352.39999389648</ele>
        <time>2023-06-18T08:51:03Z</time>
      </trkpt>
      <trkpt lat="49.43966" lon="5.82806">
        <ele>352.39999389648</ele>
        <time>2023-06-18T08:51:05Z</time>
      </trkpt>
      <trkpt lat="49.43963" lon="5.82794">
        <ele>352.39999389648</ele>
        <time>2023-06-18T08:51:07Z</time>
      </trkpt>
      <trkpt lat="49.4396" lon="5.8278">
        <ele>352.20001220703</ele>
        <time>2023-06-18T08:51:09Z</time>
      </trkpt>
      <trkpt lat="49.43958" lon="5.82767">
        <ele>352</ele>
        <time>2023-06-18T08:51:11Z</time>
      </trkpt>
      <trkpt lat="49.43955" lon="5.82753">
        <ele>351.79998779297</ele>
        <time>2023-06-18T08:51:13Z</time>
      </trkpt>
      <trkpt lat="49.43954" lon="5.82746">
        <ele>351.60000610352</ele>
        <time>2023-06-18T08:51:14Z</time>
      </trkpt>
      <trkpt lat="49.43953" lon="5.82739">
        <ele>351.60000610352</ele>
        <time>2023-06-18T08:51:15Z</time>
      </trkpt>
      <trkpt lat="49.43949" lon="5.82724">
        <ele>351.60000610352</ele>
        <time>2023-06-18T08:51:17Z</time>
      </trkpt>
      <trkpt lat="49.43946" lon="5.82709">
        <ele>351.39999389648</ele>
        <time>2023-06-18T08:51:19Z</time>
      </trkpt>
      <trkpt lat="49.43943" lon="5.82693">
        <ele>351.20001220703</ele>
        <time>2023-06-18T08:51:21Z</time>
      </trkpt>
      <trkpt lat="49.43939" lon="5.82676">
        <ele>351</ele>
        <time>2023-06-18T08:51:23Z</time>
      </trkpt>
      <trkpt lat="49.43935" lon="5.8266">
        <ele>351</ele>
        <time>2023-06-18T08:51:25Z</time>
      </trkpt>
      <trkpt lat="49.43931" lon="5.82643">
        <ele>350.79998779297</ele>
        <time>2023-06-18T08:51:27Z</time>
      </trkpt>
      <trkpt lat="49.4393" lon="5.82635">
        <ele>350.79998779297</ele>
        <time>2023-06-18T08:51:28Z</time>
      </trkpt>
      <trkpt lat="49.43928" lon="5.82627">
        <ele>350.60000610352</ele>
        <time>2023-06-18T08:51:29Z</time>
      </trkpt>
      <trkpt lat="49.43924" lon="5.82612">
        <ele>349.79998779297</ele>
        <time>2023-06-18T08:51:31Z</time>
      </trkpt>
      <trkpt lat="49.43922" lon="5.82604">
        <ele>349.39999389648</ele>
        <time>2023-06-18T08:51:32Z</time>
      </trkpt>
      <trkpt lat="49.4392" lon="5.82595">
        <ele>349.20001220703</ele>
        <time>2023-06-18T08:51:33Z</time>
      </trkpt>
      <trkpt lat="49.43915" lon="5.82578">
        <ele>348.79998779297</ele>
        <time>2023-06-18T08:51:35Z</time>
      </trkpt>
      <trkpt lat="49.43913" lon="5.82569">
        <ele>348.39999389648</ele>
        <time>2023-06-18T08:51:36Z</time>
      </trkpt>
      <trkpt lat="49.43912" lon="5.8256">
        <ele>348.39999389648</ele>
        <time>2023-06-18T08:51:37Z</time>
      </trkpt>
      <trkpt lat="49.43909" lon="5.82542">
        <ele>348.39999389648</ele>
        <time>2023-06-18T08:51:39Z</time>
      </trkpt>
      <trkpt lat="49.43907" lon="5.82524">
        <ele>348.20001220703</ele>
        <time>2023-06-18T08:51:41Z</time>
      </trkpt>
      <trkpt lat="49.43906" lon="5.82515">
        <ele>348</ele>
        <time>2023-06-18T08:51:42Z</time>
      </trkpt>
      <trkpt lat="49.43906" lon="5.82505">
        <ele>348</ele>
        <time>2023-06-18T08:51:43Z</time>
      </trkpt>
      <trkpt lat="49.43905" lon="5.82486">
        <ele>347.60000610352</ele>
        <time>2023-06-18T08:51:45Z</time>
      </trkpt>
      <trkpt lat="49.43905" lon="5.82476">
        <ele>347.60000610352</ele>
        <time>2023-06-18T08:51:46Z</time>
      </trkpt>
      <trkpt lat="49.43905" lon="5.82466">
        <ele>347.20001220703</ele>
        <time>2023-06-18T08:51:47Z</time>
      </trkpt>
      <trkpt lat="49.43906" lon="5.82445">
        <ele>346.79998779297</ele>
        <time>2023-06-18T08:51:49Z</time>
      </trkpt>
      <trkpt lat="49.43907" lon="5.82424">
        <ele>346.20001220703</ele>
        <time>2023-06-18T08:51:51Z</time>
      </trkpt>
      <trkpt lat="49.43907" lon="5.82402">
        <ele>345.79998779297</ele>
        <time>2023-06-18T08:51:53Z</time>
      </trkpt>
      <trkpt lat="49.43908" lon="5.82381">
        <ele>345.60000610352</ele>
        <time>2023-06-18T08:51:55Z</time>
      </trkpt>
      <trkpt lat="49.43908" lon="5.8237">
        <ele>345.20001220703</ele>
        <time>2023-06-18T08:51:56Z</time>
      </trkpt>
      <trkpt lat="49.43909" lon="5.82359">
        <ele>345</ele>
        <time>2023-06-18T08:51:57Z</time>
      </trkpt>
      <trkpt lat="49.43911" lon="5.82338">
        <ele>344.20001220703</ele>
        <time>2023-06-18T08:51:59Z</time>
      </trkpt>
      <trkpt lat="49.43911" lon="5.82328">
        <ele>344</ele>
        <time>2023-06-18T08:52:00Z</time>
      </trkpt>
      <trkpt lat="49.43912" lon="5.82318">
        <ele>343.39999389648</ele>
        <time>2023-06-18T08:52:01Z</time>
      </trkpt>
      <trkpt lat="49.43915" lon="5.82298">
        <ele>342.79998779297</ele>
        <time>2023-06-18T08:52:03Z</time>
      </trkpt>
      <trkpt lat="49.43917" lon="5.82288">
        <ele>342.79998779297</ele>
        <time>2023-06-18T08:52:04Z</time>
      </trkpt>
      <trkpt lat="49.4392" lon="5.82279">
        <ele>342.39999389648</ele>
        <time>2023-06-18T08:52:05Z</time>
      </trkpt>
      <trkpt lat="49.43922" lon="5.8227">
        <ele>342.39999389648</ele>
        <time>2023-06-18T08:52:06Z</time>
      </trkpt>
      <trkpt lat="49.43926" lon="5.82262">
        <ele>342</ele>
        <time>2023-06-18T08:52:07Z</time>
      </trkpt>
      <trkpt lat="49.43932" lon="5.82247">
        <ele>341.60000610352</ele>
        <time>2023-06-18T08:52:09Z</time>
      </trkpt>
      <trkpt lat="49.43936" lon="5.8224">
        <ele>341.60000610352</ele>
        <time>2023-06-18T08:52:10Z</time>
      </trkpt>
      <trkpt lat="49.43941" lon="5.82233">
        <ele>341.60000610352</ele>
        <time>2023-06-18T08:52:11Z</time>
      </trkpt>
      <trkpt lat="49.4395" lon="5.8222">
        <ele>341.39999389648</ele>
        <time>2023-06-18T08:52:13Z</time>
      </trkpt>
      <trkpt lat="49.43958" lon="5.82207">
        <ele>341.39999389648</ele>
        <time>2023-06-18T08:52:15Z</time>
      </trkpt>
      <trkpt lat="49.43961" lon="5.82201">
        <ele>341.39999389648</ele>
        <time>2023-06-18T08:52:16Z</time>
      </trkpt>
      <trkpt lat="49.43965" lon="5.82195">
        <ele>341.20001220703</ele>
        <time>2023-06-18T08:52:17Z</time>
      </trkpt>
      <trkpt lat="49.43972" lon="5.82183">
        <ele>341.20001220703</ele>
        <time>2023-06-18T08:52:19Z</time>
      </trkpt>
      <trkpt lat="49.43977" lon="5.82173">
        <ele>341</ele>
        <time>2023-06-18T08:52:21Z</time>
      </trkpt>
      <trkpt lat="49.4398" lon="5.82167">
        <ele>341</ele>
        <time>2023-06-18T08:52:22Z</time>
      </trkpt>
      <trkpt lat="49.43982" lon="5.82162">
        <ele>341</ele>
        <time>2023-06-18T08:52:23Z</time>
      </trkpt>
      <trkpt lat="49.43987" lon="5.82151">
        <ele>341</ele>
        <time>2023-06-18T08:52:25Z</time>
      </trkpt>
      <trkpt lat="49.43992" lon="5.8214">
        <ele>341</ele>
        <time>2023-06-18T08:52:27Z</time>
      </trkpt>
      <trkpt lat="49.43995" lon="5.82129">
        <ele>341</ele>
        <time>2023-06-18T08:52:29Z</time>
      </trkpt>
      <trkpt lat="49.43999" lon="5.82117">
        <ele>341.20001220703</ele>
        <time>2023-06-18T08:52:31Z</time>
      </trkpt>
      <trkpt lat="49.44002" lon="5.82105">
        <ele>341.20001220703</ele>
        <time>2023-06-18T08:52:33Z</time>
      </trkpt>
      <trkpt lat="49.44006" lon="5.82091">
        <ele>341.20001220703</ele>
        <time>2023-06-18T08:52:35Z</time>
      </trkpt>
      <trkpt lat="49.4401" lon="5.82078">
        <ele>341.20001220703</ele>
        <time>2023-06-18T08:52:37Z</time>
      </trkpt>
      <trkpt lat="49.44014" lon="5.82063">
        <ele>341.20001220703</ele>
        <time>2023-06-18T08:52:39Z</time>
      </trkpt>
      <trkpt lat="49.44016" lon="5.82056">
        <ele>341.20001220703</ele>
        <time>2023-06-18T08:52:40Z</time>
      </trkpt>
      <trkpt lat="49.44018" lon="5.82048">
        <ele>341.20001220703</ele>
        <time>2023-06-18T08:52:41Z</time>
      </trkpt>
      <trkpt lat="49.44021" lon="5.82033">
        <ele>341.20001220703</ele>
        <time>2023-06-18T08:52:43Z</time>
      </trkpt>
      <trkpt lat="49.44022" lon="5.82025">
        <ele>341</ele>
        <time>2023-06-18T08:52:44Z</time>
      </trkpt>
      <trkpt lat="49.44023" lon="5.82018">
        <ele>340.60000610352</ele>
        <time>2023-06-18T08:52:45Z</time>
      </trkpt>
      <trkpt lat="49.44024" lon="5.8201">
        <ele>340.39999389648</ele>
        <time>2023-06-18T08:52:46Z</time>
      </trkpt>
      <trkpt lat="49.44025" lon="5.82002">
        <ele>340.39999389648</ele>
        <time>2023-06-18T08:52:47Z</time>
      </trkpt>
      <trkpt lat="49.44027" lon="5.81986">
        <ele>340.20001220703</ele>
        <time>2023-06-18T08:52:49Z</time>
      </trkpt>
      <trkpt lat="49.44028" lon="5.81969">
        <ele>340</ele>
        <time>2023-06-18T08:52:51Z</time>
      </trkpt>
      <trkpt lat="49.44029" lon="5.81952">
        <ele>340</ele>
        <time>2023-06-18T08:52:53Z</time>
      </trkpt>
      <trkpt lat="49.44029" lon="5.81944">
        <ele>340</ele>
        <time>2023-06-18T08:52:54Z</time>
      </trkpt>
      <trkpt lat="49.4403" lon="5.81935">
        <ele>340</ele>
        <time>2023-06-18T08:52:55Z</time>
      </trkpt>
      <trkpt lat="49.4403" lon="5.81926">
        <ele>339.39999389648</ele>
        <time>2023-06-18T08:52:56Z</time>
      </trkpt>
      <trkpt lat="49.44029" lon="5.81918">
        <ele>339.20001220703</ele>
        <time>2023-06-18T08:52:57Z</time>
      </trkpt>
      <trkpt lat="49.44027" lon="5.819">
        <ele>338.79998779297</ele>
        <time>2023-06-18T08:52:59Z</time>
      </trkpt>
      <trkpt lat="49.44024" lon="5.81883">
        <ele>338</ele>
        <time>2023-06-18T08:53:01Z</time>
      </trkpt>
      <trkpt lat="49.44021" lon="5.81867">
        <ele>337.60000610352</ele>
        <time>2023-06-18T08:53:03Z</time>
      </trkpt>
      <trkpt lat="49.44019" lon="5.8185">
        <ele>337.39999389648</ele>
        <time>2023-06-18T08:53:05Z</time>
      </trkpt>
      <trkpt lat="49.44015" lon="5.81832">
        <ele>337</ele>
        <time>2023-06-18T08:53:07Z</time>
      </trkpt>
      <trkpt lat="49.44013" lon="5.81824">
        <ele>336.79998779297</ele>
        <time>2023-06-18T08:53:08Z</time>
      </trkpt>
      <trkpt lat="49.44011" lon="5.81815">
        <ele>336.60000610352</ele>
        <time>2023-06-18T08:53:09Z</time>
      </trkpt>
      <trkpt lat="49.44007" lon="5.81799">
        <ele>335.79998779297</ele>
        <time>2023-06-18T08:53:11Z</time>
      </trkpt>
      <trkpt lat="49.44002" lon="5.81783">
        <ele>335</ele>
        <time>2023-06-18T08:53:13Z</time>
      </trkpt>
      <trkpt lat="49.43996" lon="5.81768">
        <ele>334.60000610352</ele>
        <time>2023-06-18T08:53:15Z</time>
      </trkpt>
      <trkpt lat="49.43988" lon="5.81756">
        <ele>334.39999389648</ele>
        <time>2023-06-18T08:53:17Z</time>
      </trkpt>
      <trkpt lat="49.43979" lon="5.81745">
        <ele>334.20001220703</ele>
        <time>2023-06-18T08:53:19Z</time>
      </trkpt>
      <trkpt lat="49.4397" lon="5.81734">
        <ele>334</ele>
        <time>2023-06-18T08:53:21Z</time>
      </trkpt>
      <trkpt lat="49.43961" lon="5.81724">
        <ele>333.60000610352</ele>
        <time>2023-06-18T08:53:23Z</time>
      </trkpt>
      <trkpt lat="49.43956" lon="5.81718">
        <ele>333.60000610352</ele>
        <time>2023-06-18T08:53:24Z</time>
      </trkpt>
      <trkpt lat="49.43952" lon="5.81712">
        <ele>333.39999389648</ele>
        <time>2023-06-18T08:53:25Z</time>
      </trkpt>
      <trkpt lat="49.43943" lon="5.817">
        <ele>333.20001220703</ele>
        <time>2023-06-18T08:53:27Z</time>
      </trkpt>
      <trkpt lat="49.43934" lon="5.81689">
        <ele>333</ele>
        <time>2023-06-18T08:53:29Z</time>
      </trkpt>
      <trkpt lat="49.43925" lon="5.81678">
        <ele>333</ele>
        <time>2023-06-18T08:53:31Z</time>
      </trkpt>
      <trkpt lat="49.43916" lon="5.81666">
        <ele>332.79998779297</ele>
        <time>2023-06-18T08:53:33Z</time>
      </trkpt>
      <trkpt lat="49.43909" lon="5.81655">
        <ele>332.60000610352</ele>
        <time>2023-06-18T08:53:35Z</time>
      </trkpt>
      <trkpt lat="49.43905" lon="5.81649">
        <ele>332.60000610352</ele>
        <time>2023-06-18T08:53:36Z</time>
      </trkpt>
      <trkpt lat="49.43902" lon="5.81642">
        <ele>332.60000610352</ele>
        <time>2023-06-18T08:53:37Z</time>
      </trkpt>
      <trkpt lat="49.43897" lon="5.81626">
        <ele>332.20001220703</ele>
        <time>2023-06-18T08:53:39Z</time>
      </trkpt>
      <trkpt lat="49.43894" lon="5.81618">
        <ele>332</ele>
        <time>2023-06-18T08:53:40Z</time>
      </trkpt>
      <trkpt lat="49.43892" lon="5.8161">
        <ele>332</ele>
        <time>2023-06-18T08:53:41Z</time>
      </trkpt>
      <trkpt lat="49.43887" lon="5.81596">
        <ele>331.79998779297</ele>
        <time>2023-06-18T08:53:43Z</time>
      </trkpt>
      <trkpt lat="49.43881" lon="5.81583">
        <ele>331.60000610352</ele>
        <time>2023-06-18T08:53:45Z</time>
      </trkpt>
      <trkpt lat="49.43878" lon="5.81576">
        <ele>331.39999389648</ele>
        <time>2023-06-18T08:53:46Z</time>
      </trkpt>
      <trkpt lat="49.43875" lon="5.81568">
        <ele>331.39999389648</ele>
        <time>2023-06-18T08:53:47Z</time>
      </trkpt>
      <trkpt lat="49.43869" lon="5.81554">
        <ele>331.20001220703</ele>
        <time>2023-06-18T08:53:49Z</time>
      </trkpt>
      <trkpt lat="49.43867" lon="5.81547">
        <ele>331</ele>
        <time>2023-06-18T08:53:50Z</time>
      </trkpt>
      <trkpt lat="49.43865" lon="5.81539">
        <ele>330.79998779297</ele>
        <time>2023-06-18T08:53:51Z</time>
      </trkpt>
      <trkpt lat="49.43861" lon="5.81523">
        <ele>330.60000610352</ele>
        <time>2023-06-18T08:53:53Z</time>
      </trkpt>
      <trkpt lat="49.43857" lon="5.81507">
        <ele>330.60000610352</ele>
        <time>2023-06-18T08:53:55Z</time>
      </trkpt>
      <trkpt lat="49.43855" lon="5.81498">
        <ele>330.60000610352</ele>
        <time>2023-06-18T08:53:56Z</time>
      </trkpt>
      <trkpt lat="49.43852" lon="5.81489">
        <ele>330.39999389648</ele>
        <time>2023-06-18T08:53:57Z</time>
      </trkpt>
      <trkpt lat="49.4385" lon="5.81481">
        <ele>330.39999389648</ele>
        <time>2023-06-18T08:53:58Z</time>
      </trkpt>
      <trkpt lat="49.43848" lon="5.81473">
        <ele>330.39999389648</ele>
        <time>2023-06-18T08:53:59Z</time>
      </trkpt>
      <trkpt lat="49.43843" lon="5.81457">
        <ele>330.20001220703</ele>
        <time>2023-06-18T08:54:01Z</time>
      </trkpt>
      <trkpt lat="49.4384" lon="5.81439">
        <ele>330</ele>
        <time>2023-06-18T08:54:03Z</time>
      </trkpt>
      <trkpt lat="49.43836" lon="5.81421">
        <ele>330</ele>
        <time>2023-06-18T08:54:05Z</time>
      </trkpt>
      <trkpt lat="49.43832" lon="5.81403">
        <ele>329.79998779297</ele>
        <time>2023-06-18T08:54:07Z</time>
      </trkpt>
      <trkpt lat="49.43827" lon="5.81384">
        <ele>329.79998779297</ele>
        <time>2023-06-18T08:54:09Z</time>
      </trkpt>
      <trkpt lat="49.43821" lon="5.81372">
        <ele>330</ele>
        <time>2023-06-18T08:54:11Z</time>
      </trkpt>
      <trkpt lat="49.43814" lon="5.81362">
        <ele>329.79998779297</ele>
        <time>2023-06-18T08:54:13Z</time>
      </trkpt>
      <trkpt lat="49.43805" lon="5.81354">
        <ele>329.79998779297</ele>
        <time>2023-06-18T08:54:15Z</time>
      </trkpt>
      <trkpt lat="49.43796" lon="5.8135">
        <ele>329.79998779297</ele>
        <time>2023-06-18T08:54:17Z</time>
      </trkpt>
      <trkpt lat="49.43792" lon="5.81348">
        <ele>330.20001220703</ele>
        <time>2023-06-18T08:54:18Z</time>
      </trkpt>
      <trkpt lat="49.43787" lon="5.81347">
        <ele>330.20001220703</ele>
        <time>2023-06-18T08:54:19Z</time>
      </trkpt>
      <trkpt lat="49.43783" lon="5.81346">
        <ele>330.60000610352</ele>
        <time>2023-06-18T08:54:20Z</time>
      </trkpt>
      <trkpt lat="49.43778" lon="5.81346">
        <ele>330.79998779297</ele>
        <time>2023-06-18T08:54:21Z</time>
      </trkpt>
      <trkpt lat="49.43768" lon="5.81345">
        <ele>331.60000610352</ele>
        <time>2023-06-18T08:54:23Z</time>
      </trkpt>
      <trkpt lat="49.43763" lon="5.81345">
        <ele>331.60000610352</ele>
        <time>2023-06-18T08:54:24Z</time>
      </trkpt>
      <trkpt lat="49.43759" lon="5.81345">
        <ele>331.79998779297</ele>
        <time>2023-06-18T08:54:25Z</time>
      </trkpt>
      <trkpt lat="49.4375" lon="5.81345">
        <ele>332</ele>
        <time>2023-06-18T08:54:27Z</time>
      </trkpt>
      <trkpt lat="49.43742" lon="5.81344">
        <ele>332</ele>
        <time>2023-06-18T08:54:29Z</time>
      </trkpt>
      <trkpt lat="49.43735" lon="5.81343">
        <ele>332.20001220703</ele>
        <time>2023-06-18T08:54:31Z</time>
      </trkpt>
      <trkpt lat="49.43727" lon="5.81343">
        <ele>332.39999389648</ele>
        <time>2023-06-18T08:54:33Z</time>
      </trkpt>
      <trkpt lat="49.43723" lon="5.81343">
        <ele>332.79998779297</ele>
        <time>2023-06-18T08:54:34Z</time>
      </trkpt>
      <trkpt lat="49.43719" lon="5.81343">
        <ele>333</ele>
        <time>2023-06-18T08:54:35Z</time>
      </trkpt>
      <trkpt lat="49.43713" lon="5.81343">
        <ele>333.39999389648</ele>
        <time>2023-06-18T08:54:37Z</time>
      </trkpt>
      <trkpt lat="49.4371" lon="5.81343">
        <ele>333.79998779297</ele>
        <time>2023-06-18T08:54:38Z</time>
      </trkpt>
      <trkpt lat="49.43707" lon="5.81342">
        <ele>334</ele>
        <time>2023-06-18T08:54:39Z</time>
      </trkpt>
      <trkpt lat="49.43702" lon="5.81341">
        <ele>334.20001220703</ele>
        <time>2023-06-18T08:54:41Z</time>
      </trkpt>
      <trkpt lat="49.43698" lon="5.81339">
        <ele>334.60000610352</ele>
        <time>2023-06-18T08:54:43Z</time>
      </trkpt>
      <trkpt lat="49.43696" lon="5.81333">
        <ele>335</ele>
        <time>2023-06-18T08:54:45Z</time>
      </trkpt>
      <trkpt lat="49.43697" lon="5.81328">
        <ele>335.39999389648</ele>
        <time>2023-06-18T08:54:47Z</time>
      </trkpt>
      <trkpt lat="49.43699" lon="5.81326">
        <ele>336</ele>
        <time>2023-06-18T08:54:49Z</time>
      </trkpt>
      <trkpt lat="49.43701" lon="5.81325">
        <ele>336.20001220703</ele>
        <time>2023-06-18T08:54:50Z</time>
      </trkpt>
      <trkpt lat="49.43703" lon="5.81324">
        <ele>336.39999389648</ele>
        <time>2023-06-18T08:54:51Z</time>
      </trkpt>
      <trkpt lat="49.43708" lon="5.81322">
        <ele>336.79998779297</ele>
        <time>2023-06-18T08:54:53Z</time>
      </trkpt>
      <trkpt lat="49.43713" lon="5.81318">
        <ele>337.20001220703</ele>
        <time>2023-06-18T08:54:55Z</time>
      </trkpt>
      <trkpt lat="49.43716" lon="5.81317">
        <ele>337.20001220703</ele>
        <time>2023-06-18T08:54:56Z</time>
      </trkpt>
      <trkpt lat="49.43719" lon="5.81316">
        <ele>337.39999389648</ele>
        <time>2023-06-18T08:54:57Z</time>
      </trkpt>
      <trkpt lat="49.43725" lon="5.81313">
        <ele>337.60000610352</ele>
        <time>2023-06-18T08:54:59Z</time>
      </trkpt>
      <trkpt lat="49.43731" lon="5.8131">
        <ele>337.79998779297</ele>
        <time>2023-06-18T08:55:01Z</time>
      </trkpt>
      <trkpt lat="49.43738" lon="5.81308">
        <ele>338</ele>
        <time>2023-06-18T08:55:03Z</time>
      </trkpt>
      <trkpt lat="49.43745" lon="5.81306">
        <ele>338.20001220703</ele>
        <time>2023-06-18T08:55:05Z</time>
      </trkpt>
      <trkpt lat="49.43752" lon="5.81304">
        <ele>338.39999389648</ele>
        <time>2023-06-18T08:55:07Z</time>
      </trkpt>
      <trkpt lat="49.43761" lon="5.81302">
        <ele>338.60000610352</ele>
        <time>2023-06-18T08:55:09Z</time>
      </trkpt>
      <trkpt lat="49.43769" lon="5.81301">
        <ele>338.79998779297</ele>
        <time>2023-06-18T08:55:11Z</time>
      </trkpt>
      <trkpt lat="49.43776" lon="5.813">
        <ele>339</ele>
        <time>2023-06-18T08:55:13Z</time>
      </trkpt>
      <trkpt lat="49.43783" lon="5.81299">
        <ele>339.20001220703</ele>
        <time>2023-06-18T08:55:15Z</time>
      </trkpt>
      <trkpt lat="49.43787" lon="5.81297">
        <ele>339.20001220703</ele>
        <time>2023-06-18T08:55:16Z</time>
      </trkpt>
      <trkpt lat="49.4379" lon="5.81297">
        <ele>339.39999389648</ele>
        <time>2023-06-18T08:55:17Z</time>
      </trkpt>
      <trkpt lat="49.43794" lon="5.81295">
        <ele>339.60000610352</ele>
        <time>2023-06-18T08:55:18Z</time>
      </trkpt>
      <trkpt lat="49.43799" lon="5.81294">
        <ele>339.79998779297</ele>
        <time>2023-06-18T08:55:19Z</time>
      </trkpt>
      <trkpt lat="49.43807" lon="5.81292">
        <ele>340</ele>
        <time>2023-06-18T08:55:21Z</time>
      </trkpt>
      <trkpt lat="49.43814" lon="5.81289">
        <ele>340.39999389648</ele>
        <time>2023-06-18T08:55:23Z</time>
      </trkpt>
      <trkpt lat="49.43821" lon="5.81284">
        <ele>340.79998779297</ele>
        <time>2023-06-18T08:55:25Z</time>
      </trkpt>
      <trkpt lat="49.43829" lon="5.81277">
        <ele>341</ele>
        <time>2023-06-18T08:55:27Z</time>
      </trkpt>
      <trkpt lat="49.43833" lon="5.81274">
        <ele>341.20001220703</ele>
        <time>2023-06-18T08:55:28Z</time>
      </trkpt>
      <trkpt lat="49.43836" lon="5.81269">
        <ele>341.60000610352</ele>
        <time>2023-06-18T08:55:29Z</time>
      </trkpt>
      <trkpt lat="49.43839" lon="5.81265">
        <ele>341.79998779297</ele>
        <time>2023-06-18T08:55:30Z</time>
      </trkpt>
      <trkpt lat="49.43841" lon="5.8126">
        <ele>342</ele>
        <time>2023-06-18T08:55:31Z</time>
      </trkpt>
      <trkpt lat="49.43846" lon="5.81249">
        <ele>342.20001220703</ele>
        <time>2023-06-18T08:55:33Z</time>
      </trkpt>
      <trkpt lat="49.4385" lon="5.81237">
        <ele>342.20001220703</ele>
        <time>2023-06-18T08:55:35Z</time>
      </trkpt>
      <trkpt lat="49.43855" lon="5.81225">
        <ele>342.39999389648</ele>
        <time>2023-06-18T08:55:37Z</time>
      </trkpt>
      <trkpt lat="49.43858" lon="5.8122">
        <ele>342.39999389648</ele>
        <time>2023-06-18T08:55:38Z</time>
      </trkpt>
      <trkpt lat="49.43861" lon="5.81215">
        <ele>342.39999389648</ele>
        <time>2023-06-18T08:55:39Z</time>
      </trkpt>
      <trkpt lat="49.43864" lon="5.81211">
        <ele>342.60000610352</ele>
        <time>2023-06-18T08:55:40Z</time>
      </trkpt>
      <trkpt lat="49.43867" lon="5.81206">
        <ele>342.79998779297</ele>
        <time>2023-06-18T08:55:41Z</time>
      </trkpt>
      <trkpt lat="49.43871" lon="5.81203">
        <ele>343</ele>
        <time>2023-06-18T08:55:42Z</time>
      </trkpt>
      <trkpt lat="49.43875" lon="5.812">
        <ele>343.20001220703</ele>
        <time>2023-06-18T08:55:43Z</time>
      </trkpt>
      <trkpt lat="49.43884" lon="5.81197">
        <ele>343.60000610352</ele>
        <time>2023-06-18T08:55:45Z</time>
      </trkpt>
      <trkpt lat="49.43894" lon="5.812">
        <ele>343.79998779297</ele>
        <time>2023-06-18T08:55:47Z</time>
      </trkpt>
      <trkpt lat="49.43899" lon="5.81203">
        <ele>344</ele>
        <time>2023-06-18T08:55:48Z</time>
      </trkpt>
      <trkpt lat="49.43903" lon="5.81207">
        <ele>344.20001220703</ele>
        <time>2023-06-18T08:55:49Z</time>
      </trkpt>
      <trkpt lat="49.43909" lon="5.81218">
        <ele>344.39999389648</ele>
        <time>2023-06-18T08:55:51Z</time>
      </trkpt>
      <trkpt lat="49.43913" lon="5.81232">
        <ele>344.60000610352</ele>
        <time>2023-06-18T08:55:53Z</time>
      </trkpt>
      <trkpt lat="49.43914" lon="5.81247">
        <ele>345</ele>
        <time>2023-06-18T08:55:55Z</time>
      </trkpt>
      <trkpt lat="49.43914" lon="5.81254">
        <ele>345.20001220703</ele>
        <time>2023-06-18T08:55:56Z</time>
      </trkpt>
      <trkpt lat="49.43913" lon="5.81262">
        <ele>345.60000610352</ele>
        <time>2023-06-18T08:55:57Z</time>
      </trkpt>
      <trkpt lat="49.43913" lon="5.81269">
        <ele>345.60000610352</ele>
        <time>2023-06-18T08:55:58Z</time>
      </trkpt>
      <trkpt lat="49.43913" lon="5.81276">
        <ele>345.79998779297</ele>
        <time>2023-06-18T08:55:59Z</time>
      </trkpt>
      <trkpt lat="49.43913" lon="5.81283">
        <ele>346.20001220703</ele>
        <time>2023-06-18T08:56:00Z</time>
      </trkpt>
      <trkpt lat="49.43913" lon="5.8129">
        <ele>346.39999389648</ele>
        <time>2023-06-18T08:56:01Z</time>
      </trkpt>
      <trkpt lat="49.43916" lon="5.81304">
        <ele>347</ele>
        <time>2023-06-18T08:56:03Z</time>
      </trkpt>
      <trkpt lat="49.43921" lon="5.81317">
        <ele>347.20001220703</ele>
        <time>2023-06-18T08:56:05Z</time>
      </trkpt>
      <trkpt lat="49.43925" lon="5.81322">
        <ele>347.60000610352</ele>
        <time>2023-06-18T08:56:06Z</time>
      </trkpt>
      <trkpt lat="49.43929" lon="5.81326">
        <ele>347.79998779297</ele>
        <time>2023-06-18T08:56:07Z</time>
      </trkpt>
      <trkpt lat="49.43937" lon="5.81332">
        <ele>348</ele>
        <time>2023-06-18T08:56:09Z</time>
      </trkpt>
      <trkpt lat="49.43947" lon="5.81332">
        <ele>348.39999389648</ele>
        <time>2023-06-18T08:56:11Z</time>
      </trkpt>
      <trkpt lat="49.43955" lon="5.81329">
        <ele>348.79998779297</ele>
        <time>2023-06-18T08:56:13Z</time>
      </trkpt>
      <trkpt lat="49.43962" lon="5.81322">
        <ele>349.20001220703</ele>
        <time>2023-06-18T08:56:15Z</time>
      </trkpt>
      <trkpt lat="49.43968" lon="5.81311">
        <ele>349.60000610352</ele>
        <time>2023-06-18T08:56:17Z</time>
      </trkpt>
      <trkpt lat="49.43972" lon="5.81299">
        <ele>349.60000610352</ele>
        <time>2023-06-18T08:56:19Z</time>
      </trkpt>
      <trkpt lat="49.43975" lon="5.81286">
        <ele>350</ele>
        <time>2023-06-18T08:56:21Z</time>
      </trkpt>
      <trkpt lat="49.43975" lon="5.8128">
        <ele>350.20001220703</ele>
        <time>2023-06-18T08:56:22Z</time>
      </trkpt>
      <trkpt lat="49.43975" lon="5.81274">
        <ele>350.20001220703</ele>
        <time>2023-06-18T08:56:23Z</time>
      </trkpt>
      <trkpt lat="49.43975" lon="5.81268">
        <ele>350.39999389648</ele>
        <time>2023-06-18T08:56:24Z</time>
      </trkpt>
      <trkpt lat="49.43975" lon="5.81263">
        <ele>350.60000610352</ele>
        <time>2023-06-18T08:56:25Z</time>
      </trkpt>
      <trkpt lat="49.43973" lon="5.81251">
        <ele>350.79998779297</ele>
        <time>2023-06-18T08:56:27Z</time>
      </trkpt>
      <trkpt lat="49.43972" lon="5.81245">
        <ele>351</ele>
        <time>2023-06-18T08:56:28Z</time>
      </trkpt>
      <trkpt lat="49.43971" lon="5.81239">
        <ele>351.20001220703</ele>
        <time>2023-06-18T08:56:29Z</time>
      </trkpt>
      <trkpt lat="49.43969" lon="5.81226">
        <ele>351.60000610352</ele>
        <time>2023-06-18T08:56:31Z</time>
      </trkpt>
      <trkpt lat="49.43967" lon="5.8121">
        <ele>352.20001220703</ele>
        <time>2023-06-18T08:56:33Z</time>
      </trkpt>
      <trkpt lat="49.43967" lon="5.81193">
        <ele>352.39999389648</ele>
        <time>2023-06-18T08:56:35Z</time>
      </trkpt>
      <trkpt lat="49.43968" lon="5.81178">
        <ele>352.79998779297</ele>
        <time>2023-06-18T08:56:37Z</time>
      </trkpt>
      <trkpt lat="49.43969" lon="5.81163">
        <ele>353.20001220703</ele>
        <time>2023-06-18T08:56:39Z</time>
      </trkpt>
      <trkpt lat="49.43973" lon="5.8115">
        <ele>353.60000610352</ele>
        <time>2023-06-18T08:56:41Z</time>
      </trkpt>
      <trkpt lat="49.43976" lon="5.81136">
        <ele>354</ele>
        <time>2023-06-18T08:56:43Z</time>
      </trkpt>
      <trkpt lat="49.43981" lon="5.81124">
        <ele>354.20001220703</ele>
        <time>2023-06-18T08:56:45Z</time>
      </trkpt>
      <trkpt lat="49.43983" lon="5.81117">
        <ele>354.39999389648</ele>
        <time>2023-06-18T08:56:46Z</time>
      </trkpt>
      <trkpt lat="49.43985" lon="5.81111">
        <ele>354.60000610352</ele>
        <time>2023-06-18T08:56:47Z</time>
      </trkpt>
      <trkpt lat="49.43991" lon="5.81099">
        <ele>354.79998779297</ele>
        <time>2023-06-18T08:56:49Z</time>
      </trkpt>
      <trkpt lat="49.43996" lon="5.81088">
        <ele>355.20001220703</ele>
        <time>2023-06-18T08:56:51Z</time>
      </trkpt>
      <trkpt lat="49.43999" lon="5.81082">
        <ele>355.60000610352</ele>
        <time>2023-06-18T08:56:52Z</time>
      </trkpt>
      <trkpt lat="49.44002" lon="5.81077">
        <ele>355.60000610352</ele>
        <time>2023-06-18T08:56:53Z</time>
      </trkpt>
      <trkpt lat="49.44005" lon="5.81072">
        <ele>355.79998779297</ele>
        <time>2023-06-18T08:56:54Z</time>
      </trkpt>
      <trkpt lat="49.44008" lon="5.81067">
        <ele>356.20001220703</ele>
        <time>2023-06-18T08:56:55Z</time>
      </trkpt>
      <trkpt lat="49.44015" lon="5.81057">
        <ele>356.60000610352</ele>
        <time>2023-06-18T08:56:57Z</time>
      </trkpt>
      <trkpt lat="49.44021" lon="5.81048">
        <ele>357</ele>
        <time>2023-06-18T08:56:59Z</time>
      </trkpt>
      <trkpt lat="49.44028" lon="5.8104">
        <ele>357.20001220703</ele>
        <time>2023-06-18T08:57:01Z</time>
      </trkpt>
      <trkpt lat="49.44036" lon="5.81032">
        <ele>357.39999389648</ele>
        <time>2023-06-18T08:57:03Z</time>
      </trkpt>
      <trkpt lat="49.44043" lon="5.81024">
        <ele>357.60000610352</ele>
        <time>2023-06-18T08:57:05Z</time>
      </trkpt>
      <trkpt lat="49.44047" lon="5.81021">
        <ele>357.79998779297</ele>
        <time>2023-06-18T08:57:06Z</time>
      </trkpt>
      <trkpt lat="49.44051" lon="5.81018">
        <ele>357.79998779297</ele>
        <time>2023-06-18T08:57:07Z</time>
      </trkpt>
      <trkpt lat="49.44059" lon="5.81011">
        <ele>358.39999389648</ele>
        <time>2023-06-18T08:57:09Z</time>
      </trkpt>
      <trkpt lat="49.44063" lon="5.81009">
        <ele>358.60000610352</ele>
        <time>2023-06-18T08:57:10Z</time>
      </trkpt>
      <trkpt lat="49.44068" lon="5.81006">
        <ele>358.79998779297</ele>
        <time>2023-06-18T08:57:11Z</time>
      </trkpt>
      <trkpt lat="49.44076" lon="5.81001">
        <ele>359.20001220703</ele>
        <time>2023-06-18T08:57:13Z</time>
      </trkpt>
      <trkpt lat="49.44085" lon="5.80997">
        <ele>359.79998779297</ele>
        <time>2023-06-18T08:57:15Z</time>
      </trkpt>
      <trkpt lat="49.44094" lon="5.80993">
        <ele>360.20001220703</ele>
        <time>2023-06-18T08:57:17Z</time>
      </trkpt>
      <trkpt lat="49.44099" lon="5.80992">
        <ele>360.39999389648</ele>
        <time>2023-06-18T08:57:18Z</time>
      </trkpt>
      <trkpt lat="49.44103" lon="5.8099">
        <ele>360.79998779297</ele>
        <time>2023-06-18T08:57:19Z</time>
      </trkpt>
      <trkpt lat="49.44112" lon="5.80988">
        <ele>361</ele>
        <time>2023-06-18T08:57:21Z</time>
      </trkpt>
      <trkpt lat="49.4412" lon="5.80987">
        <ele>361.39999389648</ele>
        <time>2023-06-18T08:57:23Z</time>
      </trkpt>
      <trkpt lat="49.44129" lon="5.80986">
        <ele>361.79998779297</ele>
        <time>2023-06-18T08:57:25Z</time>
      </trkpt>
      <trkpt lat="49.44133" lon="5.80986">
        <ele>362</ele>
        <time>2023-06-18T08:57:26Z</time>
      </trkpt>
      <trkpt lat="49.44138" lon="5.80986">
        <ele>362</ele>
        <time>2023-06-18T08:57:27Z</time>
      </trkpt>
      <trkpt lat="49.44147" lon="5.80986">
        <ele>362.20001220703</ele>
        <time>2023-06-18T08:57:29Z</time>
      </trkpt>
      <trkpt lat="49.44156" lon="5.80987">
        <ele>362.39999389648</ele>
        <time>2023-06-18T08:57:31Z</time>
      </trkpt>
      <trkpt lat="49.44165" lon="5.80987">
        <ele>363</ele>
        <time>2023-06-18T08:57:33Z</time>
      </trkpt>
      <trkpt lat="49.44169" lon="5.80988">
        <ele>363</ele>
        <time>2023-06-18T08:57:34Z</time>
      </trkpt>
      <trkpt lat="49.44174" lon="5.80988">
        <ele>363</ele>
        <time>2023-06-18T08:57:35Z</time>
      </trkpt>
      <trkpt lat="49.44178" lon="5.80989">
        <ele>363.20001220703</ele>
        <time>2023-06-18T08:57:36Z</time>
      </trkpt>
      <trkpt lat="49.44183" lon="5.8099">
        <ele>363.20001220703</ele>
        <time>2023-06-18T08:57:37Z</time>
      </trkpt>
      <trkpt lat="49.44193" lon="5.80991">
        <ele>363.60000610352</ele>
        <time>2023-06-18T08:57:39Z</time>
      </trkpt>
      <trkpt lat="49.44203" lon="5.80992">
        <ele>364</ele>
        <time>2023-06-18T08:57:41Z</time>
      </trkpt>
      <trkpt lat="49.44212" lon="5.80994">
        <ele>364.39999389648</ele>
        <time>2023-06-18T08:57:43Z</time>
      </trkpt>
      <trkpt lat="49.44221" lon="5.80995">
        <ele>364.60000610352</ele>
        <time>2023-06-18T08:57:45Z</time>
      </trkpt>
      <trkpt lat="49.4423" lon="5.80996">
        <ele>364.79998779297</ele>
        <time>2023-06-18T08:57:47Z</time>
      </trkpt>
      <trkpt lat="49.44239" lon="5.80997">
        <ele>365.20001220703</ele>
        <time>2023-06-18T08:57:49Z</time>
      </trkpt>
      <trkpt lat="49.44248" lon="5.80999">
        <ele>365.60000610352</ele>
        <time>2023-06-18T08:57:51Z</time>
      </trkpt>
      <trkpt lat="49.44257" lon="5.80999">
        <ele>365.79998779297</ele>
        <time>2023-06-18T08:57:53Z</time>
      </trkpt>
      <trkpt lat="49.44266" lon="5.81001">
        <ele>366.20001220703</ele>
        <time>2023-06-18T08:57:55Z</time>
      </trkpt>
      <trkpt lat="49.4427" lon="5.81002">
        <ele>366.39999389648</ele>
        <time>2023-06-18T08:57:56Z</time>
      </trkpt>
      <trkpt lat="49.44275" lon="5.81002">
        <ele>366.79998779297</ele>
        <time>2023-06-18T08:57:57Z</time>
      </trkpt>
      <trkpt lat="49.44284" lon="5.81004">
        <ele>367.20001220703</ele>
        <time>2023-06-18T08:57:59Z</time>
      </trkpt>
      <trkpt lat="49.44293" lon="5.81006">
        <ele>367.39999389648</ele>
        <time>2023-06-18T08:58:01Z</time>
      </trkpt>
      <trkpt lat="49.44302" lon="5.81007">
        <ele>367.39999389648</ele>
        <time>2023-06-18T08:58:03Z</time>
      </trkpt>
      <trkpt lat="49.44307" lon="5.81008">
        <ele>367.39999389648</ele>
        <time>2023-06-18T08:58:04Z</time>
      </trkpt>
      <trkpt lat="49.44312" lon="5.81009">
        <ele>367.39999389648</ele>
        <time>2023-06-18T08:58:05Z</time>
      </trkpt>
      <trkpt lat="49.44316" lon="5.81009">
        <ele>367.60000610352</ele>
        <time>2023-06-18T08:58:06Z</time>
      </trkpt>
      <trkpt lat="49.44321" lon="5.8101">
        <ele>367.60000610352</ele>
        <time>2023-06-18T08:58:07Z</time>
      </trkpt>
      <trkpt lat="49.4433" lon="5.81011">
        <ele>367.60000610352</ele>
        <time>2023-06-18T08:58:09Z</time>
      </trkpt>
      <trkpt lat="49.44339" lon="5.8101">
        <ele>368</ele>
        <time>2023-06-18T08:58:11Z</time>
      </trkpt>
      <trkpt lat="49.44347" lon="5.81009">
        <ele>368.20001220703</ele>
        <time>2023-06-18T08:58:13Z</time>
      </trkpt>
      <trkpt lat="49.44351" lon="5.81008">
        <ele>368.20001220703</ele>
        <time>2023-06-18T08:58:14Z</time>
      </trkpt>
      <trkpt lat="49.44354" lon="5.81006">
        <ele>368.20001220703</ele>
        <time>2023-06-18T08:58:15Z</time>
      </trkpt>
      <trkpt lat="49.44359" lon="5.80998">
        <ele>368.39999389648</ele>
        <time>2023-06-18T08:58:17Z</time>
      </trkpt>
      <trkpt lat="49.44361" lon="5.80988">
        <ele>368.60000610352</ele>
        <time>2023-06-18T08:58:19Z</time>
      </trkpt>
      <trkpt lat="49.44361" lon="5.80982">
        <ele>368.79998779297</ele>
        <time>2023-06-18T08:58:20Z</time>
      </trkpt>
      <trkpt lat="49.44361" lon="5.80976">
        <ele>368.79998779297</ele>
        <time>2023-06-18T08:58:21Z</time>
      </trkpt>
      <trkpt lat="49.4436" lon="5.8097">
        <ele>369</ele>
        <time>2023-06-18T08:58:22Z</time>
      </trkpt>
      <trkpt lat="49.4436" lon="5.80965">
        <ele>369</ele>
        <time>2023-06-18T08:58:23Z</time>
      </trkpt>
      <trkpt lat="49.44359" lon="5.80953">
        <ele>369</ele>
        <time>2023-06-18T08:58:25Z</time>
      </trkpt>
      <trkpt lat="49.44358" lon="5.80942">
        <ele>368.79998779297</ele>
        <time>2023-06-18T08:58:27Z</time>
      </trkpt>
      <trkpt lat="49.44357" lon="5.80932">
        <ele>369</ele>
        <time>2023-06-18T08:58:29Z</time>
      </trkpt>
      <trkpt lat="49.44357" lon="5.80929">
        <ele>369</ele>
        <time>2023-06-18T08:58:30Z</time>
      </trkpt>
      <trkpt lat="49.44358" lon="5.80927">
        <ele>369</ele>
        <time>2023-06-18T08:58:31Z</time>
      </trkpt>
      <trkpt lat="49.44359" lon="5.80926">
        <ele>369</ele>
        <time>2023-06-18T08:58:32Z</time>
      </trkpt>
      <trkpt lat="49.44359" lon="5.80925">
        <ele>369.20001220703</ele>
        <time>2023-06-18T08:58:33Z</time>
      </trkpt>
      <trkpt lat="49.4436" lon="5.80924">
        <ele>369.20001220703</ele>
        <time>2023-06-18T08:58:34Z</time>
      </trkpt>
      <trkpt lat="49.44361" lon="5.80922">
        <ele>369.20001220703</ele>
        <time>2023-06-18T08:58:35Z</time>
      </trkpt>
      <trkpt lat="49.44361" lon="5.8092">
        <ele>369.20001220703</ele>
        <time>2023-06-18T08:58:36Z</time>
      </trkpt>
      <trkpt lat="49.4436" lon="5.80918">
        <ele>369.20001220703</ele>
        <time>2023-06-18T08:58:37Z</time>
      </trkpt>
      <trkpt lat="49.44357" lon="5.80913">
        <ele>369.60000610352</ele>
        <time>2023-06-18T08:58:39Z</time>
      </trkpt>
      <trkpt lat="49.44353" lon="5.80909">
        <ele>369.79998779297</ele>
        <time>2023-06-18T08:58:41Z</time>
      </trkpt>
      <trkpt lat="49.44353" lon="5.80905">
        <ele>369.79998779297</ele>
        <time>2023-06-18T08:58:42Z</time>
      </trkpt>
      <trkpt lat="49.44352" lon="5.80901">
        <ele>370</ele>
        <time>2023-06-18T08:58:43Z</time>
      </trkpt>
      <trkpt lat="49.44352" lon="5.80892">
        <ele>370</ele>
        <time>2023-06-18T08:58:45Z</time>
      </trkpt>
      <trkpt lat="49.44352" lon="5.80884">
        <ele>370</ele>
        <time>2023-06-18T08:58:47Z</time>
      </trkpt>
      <trkpt lat="49.44352" lon="5.80875">
        <ele>370</ele>
        <time>2023-06-18T08:58:49Z</time>
      </trkpt>
      <trkpt lat="49.44351" lon="5.80868">
        <ele>370</ele>
        <time>2023-06-18T08:58:51Z</time>
      </trkpt>
      <trkpt lat="49.44351" lon="5.80861">
        <ele>370</ele>
        <time>2023-06-18T08:58:53Z</time>
      </trkpt>
      <trkpt lat="49.44351" lon="5.80855">
        <ele>370</ele>
        <time>2023-06-18T08:58:55Z</time>
      </trkpt>
      <trkpt lat="49.44351" lon="5.80851">
        <ele>370</ele>
        <time>2023-06-18T08:58:57Z</time>
      </trkpt>
      <trkpt lat="49.44351" lon="5.80851">
        <ele>370</ele>
        <time>2023-06-18T08:58:59Z</time>
      </trkpt>
      <trkpt lat="49.44351" lon="5.80851">
        <ele>370</ele>
        <time>2023-06-18T08:59:00Z</time>
      </trkpt>
      <trkpt lat="49.44351" lon="5.80851">
        <ele>370</ele>
        <time>2023-06-18T08:59:01Z</time>
      </trkpt>
      <trkpt lat="49.44351" lon="5.80851">
        <ele>370.39999389648</ele>
        <time>2023-06-18T08:59:03Z</time>
      </trkpt>
      <trkpt lat="49.44351" lon="5.80851">
        <ele>370.39999389648</ele>
        <time>2023-06-18T08:59:05Z</time>
      </trkpt>
      <trkpt lat="49.44351" lon="5.80851">
        <ele>370.60000610352</ele>
        <time>2023-06-18T08:59:07Z</time>
      </trkpt>
      <trkpt lat="49.44351" lon="5.80851">
        <ele>370.60000610352</ele>
        <time>2023-06-18T08:59:09Z</time>
      </trkpt>
      <trkpt lat="49.44351" lon="5.80851">
        <ele>370.60000610352</ele>
        <time>2023-06-18T08:59:11Z</time>
      </trkpt>
      <trkpt lat="49.44351" lon="5.80851">
        <ele>370.60000610352</ele>
        <time>2023-06-18T08:59:12Z</time>
      </trkpt>
      <trkpt lat="49.44351" lon="5.80852">
        <ele>370.60000610352</ele>
        <time>2023-06-18T08:59:13Z</time>
      </trkpt>
      <trkpt lat="49.44351" lon="5.80852">
        <ele>370.60000610352</ele>
        <time>2023-06-18T08:59:15Z</time>
      </trkpt>
      <trkpt lat="49.44351" lon="5.80852">
        <ele>370.60000610352</ele>
        <time>2023-06-18T08:59:17Z</time>
      </trkpt>
      <trkpt lat="49.44351" lon="5.80852">
        <ele>370.60000610352</ele>
        <time>2023-06-18T08:59:19Z</time>
      </trkpt>
      <trkpt lat="49.44351" lon="5.80852">
        <ele>370.60000610352</ele>
        <time>2023-06-18T08:59:21Z</time>
      </trkpt>
      <trkpt lat="49.44351" lon="5.80852">
        <ele>370.60000610352</ele>
        <time>2023-06-18T08:59:22Z</time>
      </trkpt>
      <trkpt lat="49.44351" lon="5.80852">
        <ele>370.60000610352</ele>
        <time>2023-06-18T08:59:23Z</time>
      </trkpt>
      <trkpt lat="49.44351" lon="5.80852">
        <ele>370.79998779297</ele>
        <time>2023-06-18T08:59:25Z</time>
      </trkpt>
      <trkpt lat="49.44351" lon="5.80852">
        <ele>370.79998779297</ele>
        <time>2023-06-18T08:59:27Z</time>
      </trkpt>
      <trkpt lat="49.44351" lon="5.80852">
        <ele>370.79998779297</ele>
        <time>2023-06-18T08:59:29Z</time>
      </trkpt>
      <trkpt lat="49.44351" lon="5.80852">
        <ele>370.79998779297</ele>
        <time>2023-06-18T08:59:31Z</time>
      </trkpt>
      <trkpt lat="49.44351" lon="5.80852">
        <ele>370.79998779297</ele>
        <time>2023-06-18T08:59:33Z</time>
      </trkpt>
      <trkpt lat="49.44351" lon="5.80852">
        <ele>370.79998779297</ele>
        <time>2023-06-18T08:59:35Z</time>
      </trkpt>
      <trkpt lat="49.44351" lon="5.80852">
        <ele>370.79998779297</ele>
        <time>2023-06-18T08:59:37Z</time>
      </trkpt>
      <trkpt lat="49.44351" lon="5.80852">
        <ele>370.79998779297</ele>
        <time>2023-06-18T08:59:39Z</time>
      </trkpt>
      <trkpt lat="49.44351" lon="5.80852">
        <ele>370.79998779297</ele>
        <time>2023-06-18T08:59:41Z</time>
      </trkpt>
      <trkpt lat="49.44351" lon="5.80851">
        <ele>370.79998779297</ele>
        <time>2023-06-18T08:59:43Z</time>
      </trkpt>
      <trkpt lat="49.44351" lon="5.80851">
        <ele>371</ele>
        <time>2023-06-18T08:59:44Z</time>
      </trkpt>
      <trkpt lat="49.44351" lon="5.80851">
        <ele>371</ele>
        <time>2023-06-18T08:59:45Z</time>
      </trkpt>
      <trkpt lat="49.44351" lon="5.80851">
        <ele>371</ele>
        <time>2023-06-18T08:59:47Z</time>
      </trkpt>
      <trkpt lat="49.44351" lon="5.80851">
        <ele>371</ele>
        <time>2023-06-18T08:59:49Z</time>
      </trkpt>
      <trkpt lat="49.44351" lon="5.80851">
        <ele>371</ele>
        <time>2023-06-18T08:59:51Z</time>
      </trkpt>
      <trkpt lat="49.44351" lon="5.80851">
        <ele>371</ele>
        <time>2023-06-18T08:59:53Z</time>
      </trkpt>
      <trkpt lat="49.44351" lon="5.80851">
        <ele>371</ele>
        <time>2023-06-18T08:59:55Z</time>
      </trkpt>
      <trkpt lat="49.44351" lon="5.80851">
        <ele>371</ele>
        <time>2023-06-18T08:59:57Z</time>
      </trkpt>
      <trkpt lat="49.44351" lon="5.80851">
        <ele>371</ele>
        <time>2023-06-18T08:59:59Z</time>
      </trkpt>
      <trkpt lat="49.44351" lon="5.80851">
        <ele>371</ele>
        <time>2023-06-18T09:00:01Z</time>
      </trkpt>
      <trkpt lat="49.44351" lon="5.80851">
        <ele>371</ele>
        <time>2023-06-18T09:00:03Z</time>
      </trkpt>
      <trkpt lat="49.44351" lon="5.80851">
        <ele>371</ele>
        <time>2023-06-18T09:00:05Z</time>
      </trkpt>
      <trkpt lat="49.44351" lon="5.80851">
        <ele>371</ele>
        <time>2023-06-18T09:00:07Z</time>
      </trkpt>
      <trkpt lat="49.44351" lon="5.80851">
        <ele>371</ele>
        <time>2023-06-18T09:00:09Z</time>
      </trkpt>
      <trkpt lat="49.44351" lon="5.80851">
        <ele>371</ele>
        <time>2023-06-18T09:00:11Z</time>
      </trkpt>
      <trkpt lat="49.44351" lon="5.80851">
        <ele>371</ele>
        <time>2023-06-18T09:00:13Z</time>
      </trkpt>
      <trkpt lat="49.44351" lon="5.80851">
        <ele>371</ele>
        <time>2023-06-18T09:00:15Z</time>
      </trkpt>
      <trkpt lat="49.44351" lon="5.80851">
        <ele>371</ele>
        <time>2023-06-18T09:00:17Z</time>
      </trkpt>
      <trkpt lat="49.44351" lon="5.80851">
        <ele>371</ele>
        <time>2023-06-18T09:00:19Z</time>
      </trkpt>
      <trkpt lat="49.44351" lon="5.80851">
        <ele>371</ele>
        <time>2023-06-18T09:00:21Z</time>
      </trkpt>
      <trkpt lat="49.44351" lon="5.80851">
        <ele>371</ele>
        <time>2023-06-18T09:00:22Z</time>
      </trkpt>
      <trkpt lat="49.44351" lon="5.80851">
        <ele>371</ele>
        <time>2023-06-18T09:00:23Z</time>
      </trkpt>
      <trkpt lat="49.44351" lon="5.80851">
        <ele>371</ele>
        <time>2023-06-18T09:00:25Z</time>
      </trkpt>
      <trkpt lat="49.44351" lon="5.80851">
        <ele>371</ele>
        <time>2023-06-18T09:00:27Z</time>
      </trkpt>
      <trkpt lat="49.44351" lon="5.80851">
        <ele>371</ele>
        <time>2023-06-18T09:00:29Z</time>
      </trkpt>
      <trkpt lat="49.44351" lon="5.80851">
        <ele>370.79998779297</ele>
        <time>2023-06-18T09:00:31Z</time>
      </trkpt>
      <trkpt lat="49.44351" lon="5.80851">
        <ele>370.79998779297</ele>
        <time>2023-06-18T09:00:33Z</time>
      </trkpt>
      <trkpt lat="49.44351" lon="5.80851">
        <ele>370.79998779297</ele>
        <time>2023-06-18T09:00:35Z</time>
      </trkpt>
      <trkpt lat="49.44351" lon="5.80851">
        <ele>370.79998779297</ele>
        <time>2023-06-18T09:00:37Z</time>
      </trkpt>
      <trkpt lat="49.44351" lon="5.80851">
        <ele>370.79998779297</ele>
        <time>2023-06-18T09:00:39Z</time>
      </trkpt>
      <trkpt lat="49.44351" lon="5.80851">
        <ele>370.79998779297</ele>
        <time>2023-06-18T09:00:41Z</time>
      </trkpt>
      <trkpt lat="49.4435" lon="5.80849">
        <ele>370.79998779297</ele>
        <time>2023-06-18T09:00:43Z</time>
      </trkpt>
      <trkpt lat="49.44349" lon="5.80848">
        <ele>370.79998779297</ele>
        <time>2023-06-18T09:00:44Z</time>
      </trkpt>
      <trkpt lat="49.44349" lon="5.80847">
        <ele>370.79998779297</ele>
        <time>2023-06-18T09:00:45Z</time>
      </trkpt>
      <trkpt lat="49.44349" lon="5.80842">
        <ele>370.79998779297</ele>
        <time>2023-06-18T09:00:47Z</time>
      </trkpt>
      <trkpt lat="49.44348" lon="5.80834">
        <ele>370.79998779297</ele>
        <time>2023-06-18T09:00:49Z</time>
      </trkpt>
      <trkpt lat="49.44347" lon="5.80824">
        <ele>370.79998779297</ele>
        <time>2023-06-18T09:00:51Z</time>
      </trkpt>
      <trkpt lat="49.44346" lon="5.80814">
        <ele>370.79998779297</ele>
        <time>2023-06-18T09:00:53Z</time>
      </trkpt>
      <trkpt lat="49.44344" lon="5.80803">
        <ele>370.79998779297</ele>
        <time>2023-06-18T09:00:55Z</time>
      </trkpt>
      <trkpt lat="49.44342" lon="5.80792">
        <ele>370.60000610352</ele>
        <time>2023-06-18T09:00:57Z</time>
      </trkpt>
      <trkpt lat="49.44338" lon="5.80782">
        <ele>370.60000610352</ele>
        <time>2023-06-18T09:00:59Z</time>
      </trkpt>
      <trkpt lat="49.44336" lon="5.80777">
        <ele>370.60000610352</ele>
        <time>2023-06-18T09:01:00Z</time>
      </trkpt>
      <trkpt lat="49.44334" lon="5.80772">
        <ele>370.60000610352</ele>
        <time>2023-06-18T09:01:01Z</time>
      </trkpt>
      <trkpt lat="49.44329" lon="5.80763">
        <ele>370.39999389648</ele>
        <time>2023-06-18T09:01:03Z</time>
      </trkpt>
      <trkpt lat="49.44323" lon="5.80755">
        <ele>370.39999389648</ele>
        <time>2023-06-18T09:01:05Z</time>
      </trkpt>
      <trkpt lat="49.44321" lon="5.80752">
        <ele>370.20001220703</ele>
        <time>2023-06-18T09:01:06Z</time>
      </trkpt>
      <trkpt lat="49.44318" lon="5.8075">
        <ele>370.20001220703</ele>
        <time>2023-06-18T09:01:07Z</time>
      </trkpt>
      <trkpt lat="49.44313" lon="5.80746">
        <ele>370.20001220703</ele>
        <time>2023-06-18T09:01:09Z</time>
      </trkpt>
      <trkpt lat="49.44308" lon="5.80743">
        <ele>370.20001220703</ele>
        <time>2023-06-18T09:01:11Z</time>
      </trkpt>
      <trkpt lat="49.44302" lon="5.8074">
        <ele>370.20001220703</ele>
        <time>2023-06-18T09:01:13Z</time>
      </trkpt>
      <trkpt lat="49.44297" lon="5.80738">
        <ele>370.20001220703</ele>
        <time>2023-06-18T09:01:15Z</time>
      </trkpt>
      <trkpt lat="49.44294" lon="5.80737">
        <ele>370.20001220703</ele>
        <time>2023-06-18T09:01:16Z</time>
      </trkpt>
      <trkpt lat="49.44291" lon="5.80735">
        <ele>370.20001220703</ele>
        <time>2023-06-18T09:01:17Z</time>
      </trkpt>
      <trkpt lat="49.44286" lon="5.80729">
        <ele>370.20001220703</ele>
        <time>2023-06-18T09:01:19Z</time>
      </trkpt>
      <trkpt lat="49.4428" lon="5.80722">
        <ele>370.20001220703</ele>
        <time>2023-06-18T09:01:21Z</time>
      </trkpt>
      <trkpt lat="49.44276" lon="5.80715">
        <ele>370.20001220703</ele>
        <time>2023-06-18T09:01:23Z</time>
      </trkpt>
      <trkpt lat="49.4427" lon="5.80707">
        <ele>370.20001220703</ele>
        <time>2023-06-18T09:01:25Z</time>
      </trkpt>
      <trkpt lat="49.44266" lon="5.80699">
        <ele>370.20001220703</ele>
        <time>2023-06-18T09:01:27Z</time>
      </trkpt>
      <trkpt lat="49.44262" lon="5.80689">
        <ele>370.20001220703</ele>
        <time>2023-06-18T09:01:29Z</time>
      </trkpt>
      <trkpt lat="49.44258" lon="5.8068">
        <ele>370</ele>
        <time>2023-06-18T09:01:31Z</time>
      </trkpt>
      <trkpt lat="49.44255" lon="5.8067">
        <ele>370</ele>
        <time>2023-06-18T09:01:33Z</time>
      </trkpt>
      <trkpt lat="49.44253" lon="5.80664">
        <ele>370</ele>
        <time>2023-06-18T09:01:34Z</time>
      </trkpt>
      <trkpt lat="49.44251" lon="5.80658">
        <ele>370</ele>
        <time>2023-06-18T09:01:35Z</time>
      </trkpt>
      <trkpt lat="49.44248" lon="5.80644">
        <ele>369.79998779297</ele>
        <time>2023-06-18T09:01:37Z</time>
      </trkpt>
      <trkpt lat="49.44244" lon="5.80629">
        <ele>369.60000610352</ele>
        <time>2023-06-18T09:01:39Z</time>
      </trkpt>
      <trkpt lat="49.44242" lon="5.8062">
        <ele>369.39999389648</ele>
        <time>2023-06-18T09:01:40Z</time>
      </trkpt>
      <trkpt lat="49.4424" lon="5.80612">
        <ele>369.20001220703</ele>
        <time>2023-06-18T09:01:41Z</time>
      </trkpt>
      <trkpt lat="49.44237" lon="5.80595">
        <ele>368.60000610352</ele>
        <time>2023-06-18T09:01:43Z</time>
      </trkpt>
      <trkpt lat="49.44233" lon="5.80579">
        <ele>368.20001220703</ele>
        <time>2023-06-18T09:01:45Z</time>
      </trkpt>
      <trkpt lat="49.4423" lon="5.80563">
        <ele>368</ele>
        <time>2023-06-18T09:01:47Z</time>
      </trkpt>
      <trkpt lat="49.44228" lon="5.80555">
        <ele>368</ele>
        <time>2023-06-18T09:01:48Z</time>
      </trkpt>
      <trkpt lat="49.44226" lon="5.80547">
        <ele>367.60000610352</ele>
        <time>2023-06-18T09:01:49Z</time>
      </trkpt>
      <trkpt lat="49.44224" lon="5.80539">
        <ele>367.20001220703</ele>
        <time>2023-06-18T09:01:50Z</time>
      </trkpt>
      <trkpt lat="49.44223" lon="5.80531">
        <ele>367</ele>
        <time>2023-06-18T09:01:51Z</time>
      </trkpt>
      <trkpt lat="49.44219" lon="5.80514">
        <ele>366.79998779297</ele>
        <time>2023-06-18T09:01:53Z</time>
      </trkpt>
      <trkpt lat="49.44217" lon="5.80498">
        <ele>366.60000610352</ele>
        <time>2023-06-18T09:01:55Z</time>
      </trkpt>
      <trkpt lat="49.44216" lon="5.8049">
        <ele>366.39999389648</ele>
        <time>2023-06-18T09:01:56Z</time>
      </trkpt>
      <trkpt lat="49.44214" lon="5.80482">
        <ele>366.39999389648</ele>
        <time>2023-06-18T09:01:57Z</time>
      </trkpt>
      <trkpt lat="49.44211" lon="5.80468">
        <ele>366.39999389648</ele>
        <time>2023-06-18T09:01:59Z</time>
      </trkpt>
      <trkpt lat="49.44208" lon="5.80455">
        <ele>366.20001220703</ele>
        <time>2023-06-18T09:02:01Z</time>
      </trkpt>
      <trkpt lat="49.44206" lon="5.80442">
        <ele>366.20001220703</ele>
        <time>2023-06-18T09:02:03Z</time>
      </trkpt>
      <trkpt lat="49.44204" lon="5.80429">
        <ele>366.20001220703</ele>
        <time>2023-06-18T09:02:05Z</time>
      </trkpt>
      <trkpt lat="49.44202" lon="5.80416">
        <ele>366</ele>
        <time>2023-06-18T09:02:07Z</time>
      </trkpt>
      <trkpt lat="49.44199" lon="5.80404">
        <ele>366</ele>
        <time>2023-06-18T09:02:09Z</time>
      </trkpt>
      <trkpt lat="49.44197" lon="5.80393">
        <ele>366</ele>
        <time>2023-06-18T09:02:11Z</time>
      </trkpt>
      <trkpt lat="49.44195" lon="5.80381">
        <ele>366.20001220703</ele>
        <time>2023-06-18T09:02:13Z</time>
      </trkpt>
      <trkpt lat="49.44193" lon="5.8037">
        <ele>366.20001220703</ele>
        <time>2023-06-18T09:02:15Z</time>
      </trkpt>
      <trkpt lat="49.44191" lon="5.80359">
        <ele>366.20001220703</ele>
        <time>2023-06-18T09:02:17Z</time>
      </trkpt>
      <trkpt lat="49.4419" lon="5.80348">
        <ele>366.20001220703</ele>
        <time>2023-06-18T09:02:19Z</time>
      </trkpt>
      <trkpt lat="49.44189" lon="5.80343">
        <ele>366.20001220703</ele>
        <time>2023-06-18T09:02:20Z</time>
      </trkpt>
      <trkpt lat="49.44189" lon="5.80339">
        <ele>366.20001220703</ele>
        <time>2023-06-18T09:02:21Z</time>
      </trkpt>
      <trkpt lat="49.44189" lon="5.8033">
        <ele>366.39999389648</ele>
        <time>2023-06-18T09:02:23Z</time>
      </trkpt>
      <trkpt lat="49.4419" lon="5.80323">
        <ele>366.39999389648</ele>
        <time>2023-06-18T09:02:25Z</time>
      </trkpt>
      <trkpt lat="49.4419" lon="5.8032">
        <ele>366.60000610352</ele>
        <time>2023-06-18T09:02:26Z</time>
      </trkpt>
      <trkpt lat="49.4419" lon="5.80316">
        <ele>366.60000610352</ele>
        <time>2023-06-18T09:02:27Z</time>
      </trkpt>
      <trkpt lat="49.44191" lon="5.80308">
        <ele>366.60000610352</ele>
        <time>2023-06-18T09:02:29Z</time>
      </trkpt>
      <trkpt lat="49.44193" lon="5.80299">
        <ele>366.79998779297</ele>
        <time>2023-06-18T09:02:31Z</time>
      </trkpt>
      <trkpt lat="49.44195" lon="5.80288">
        <ele>366.79998779297</ele>
        <time>2023-06-18T09:02:33Z</time>
      </trkpt>
      <trkpt lat="49.44196" lon="5.80283">
        <ele>366.79998779297</ele>
        <time>2023-06-18T09:02:34Z</time>
      </trkpt>
      <trkpt lat="49.44198" lon="5.80277">
        <ele>366.79998779297</ele>
        <time>2023-06-18T09:02:35Z</time>
      </trkpt>
      <trkpt lat="49.442" lon="5.80265">
        <ele>366.79998779297</ele>
        <time>2023-06-18T09:02:37Z</time>
      </trkpt>
      <trkpt lat="49.44202" lon="5.80252">
        <ele>366.79998779297</ele>
        <time>2023-06-18T09:02:39Z</time>
      </trkpt>
      <trkpt lat="49.44204" lon="5.80238">
        <ele>366.79998779297</ele>
        <time>2023-06-18T09:02:41Z</time>
      </trkpt>
      <trkpt lat="49.44206" lon="5.80225">
        <ele>366.39999389648</ele>
        <time>2023-06-18T09:02:43Z</time>
      </trkpt>
      <trkpt lat="49.44207" lon="5.8021">
        <ele>366</ele>
        <time>2023-06-18T09:02:45Z</time>
      </trkpt>
      <trkpt lat="49.44208" lon="5.80196">
        <ele>365.79998779297</ele>
        <time>2023-06-18T09:02:47Z</time>
      </trkpt>
      <trkpt lat="49.44208" lon="5.80189">
        <ele>365.60000610352</ele>
        <time>2023-06-18T09:02:48Z</time>
      </trkpt>
      <trkpt lat="49.44208" lon="5.80182">
        <ele>365.39999389648</ele>
        <time>2023-06-18T09:02:49Z</time>
      </trkpt>
      <trkpt lat="49.44207" lon="5.80175">
        <ele>365</ele>
        <time>2023-06-18T09:02:50Z</time>
      </trkpt>
      <trkpt lat="49.44207" lon="5.80168">
        <ele>364.79998779297</ele>
        <time>2023-06-18T09:02:51Z</time>
      </trkpt>
      <trkpt lat="49.44206" lon="5.80154">
        <ele>364.60000610352</ele>
        <time>2023-06-18T09:02:53Z</time>
      </trkpt>
      <trkpt lat="49.44205" lon="5.80139">
        <ele>364.39999389648</ele>
        <time>2023-06-18T09:02:55Z</time>
      </trkpt>
      <trkpt lat="49.44204" lon="5.80124">
        <ele>364.39999389648</ele>
        <time>2023-06-18T09:02:57Z</time>
      </trkpt>
      <trkpt lat="49.44203" lon="5.80109">
        <ele>364.39999389648</ele>
        <time>2023-06-18T09:02:59Z</time>
      </trkpt>
      <trkpt lat="49.44203" lon="5.80094">
        <ele>364.20001220703</ele>
        <time>2023-06-18T09:03:01Z</time>
      </trkpt>
      <trkpt lat="49.44202" lon="5.80078">
        <ele>364</ele>
        <time>2023-06-18T09:03:03Z</time>
      </trkpt>
      <trkpt lat="49.44201" lon="5.8007">
        <ele>363.79998779297</ele>
        <time>2023-06-18T09:03:04Z</time>
      </trkpt>
      <trkpt lat="49.442" lon="5.80062">
        <ele>363.60000610352</ele>
        <time>2023-06-18T09:03:05Z</time>
      </trkpt>
      <trkpt lat="49.44199" lon="5.80046">
        <ele>363</ele>
        <time>2023-06-18T09:03:07Z</time>
      </trkpt>
      <trkpt lat="49.44199" lon="5.80038">
        <ele>363</ele>
        <time>2023-06-18T09:03:08Z</time>
      </trkpt>
      <trkpt lat="49.44198" lon="5.8003">
        <ele>362.79998779297</ele>
        <time>2023-06-18T09:03:09Z</time>
      </trkpt>
      <trkpt lat="49.44197" lon="5.80015">
        <ele>362.60000610352</ele>
        <time>2023-06-18T09:03:11Z</time>
      </trkpt>
      <trkpt lat="49.44196" lon="5.8">
        <ele>362.60000610352</ele>
        <time>2023-06-18T09:03:13Z</time>
      </trkpt>
      <trkpt lat="49.44194" lon="5.79985">
        <ele>362.39999389648</ele>
        <time>2023-06-18T09:03:15Z</time>
      </trkpt>
      <trkpt lat="49.44194" lon="5.79969">
        <ele>362.20001220703</ele>
        <time>2023-06-18T09:03:17Z</time>
      </trkpt>
      <trkpt lat="49.44193" lon="5.79952">
        <ele>362</ele>
        <time>2023-06-18T09:03:19Z</time>
      </trkpt>
      <trkpt lat="49.44192" lon="5.79936">
        <ele>362</ele>
        <time>2023-06-18T09:03:21Z</time>
      </trkpt>
      <trkpt lat="49.44191" lon="5.79919">
        <ele>361.79998779297</ele>
        <time>2023-06-18T09:03:23Z</time>
      </trkpt>
      <trkpt lat="49.44191" lon="5.79903">
        <ele>361.79998779297</ele>
        <time>2023-06-18T09:03:25Z</time>
      </trkpt>
      <trkpt lat="49.44191" lon="5.79887">
        <ele>361.79998779297</ele>
        <time>2023-06-18T09:03:27Z</time>
      </trkpt>
      <trkpt lat="49.44192" lon="5.7987">
        <ele>361.60000610352</ele>
        <time>2023-06-18T09:03:29Z</time>
      </trkpt>
      <trkpt lat="49.44192" lon="5.79862">
        <ele>361.60000610352</ele>
        <time>2023-06-18T09:03:30Z</time>
      </trkpt>
      <trkpt lat="49.44193" lon="5.79854">
        <ele>361.60000610352</ele>
        <time>2023-06-18T09:03:31Z</time>
      </trkpt>
      <trkpt lat="49.44193" lon="5.79837">
        <ele>361.39999389648</ele>
        <time>2023-06-18T09:03:33Z</time>
      </trkpt>
      <trkpt lat="49.44193" lon="5.79829">
        <ele>361.39999389648</ele>
        <time>2023-06-18T09:03:34Z</time>
      </trkpt>
      <trkpt lat="49.44194" lon="5.79822">
        <ele>361.39999389648</ele>
        <time>2023-06-18T09:03:35Z</time>
      </trkpt>
      <trkpt lat="49.44194" lon="5.79807">
        <ele>361.39999389648</ele>
        <time>2023-06-18T09:03:37Z</time>
      </trkpt>
      <trkpt lat="49.44195" lon="5.79792">
        <ele>361.20001220703</ele>
        <time>2023-06-18T09:03:39Z</time>
      </trkpt>
      <trkpt lat="49.44195" lon="5.79776">
        <ele>361.20001220703</ele>
        <time>2023-06-18T09:03:41Z</time>
      </trkpt>
      <trkpt lat="49.44196" lon="5.79768">
        <ele>361.20001220703</ele>
        <time>2023-06-18T09:03:42Z</time>
      </trkpt>
      <trkpt lat="49.44196" lon="5.7976">
        <ele>361.20001220703</ele>
        <time>2023-06-18T09:03:43Z</time>
      </trkpt>
      <trkpt lat="49.44197" lon="5.79744">
        <ele>361.20001220703</ele>
        <time>2023-06-18T09:03:45Z</time>
      </trkpt>
      <trkpt lat="49.44198" lon="5.79726">
        <ele>361</ele>
        <time>2023-06-18T09:03:47Z</time>
      </trkpt>
      <trkpt lat="49.44198" lon="5.79718">
        <ele>361</ele>
        <time>2023-06-18T09:03:48Z</time>
      </trkpt>
      <trkpt lat="49.44199" lon="5.79709">
        <ele>360.79998779297</ele>
        <time>2023-06-18T09:03:49Z</time>
      </trkpt>
      <trkpt lat="49.44201" lon="5.79692">
        <ele>360.79998779297</ele>
        <time>2023-06-18T09:03:51Z</time>
      </trkpt>
      <trkpt lat="49.44202" lon="5.79676">
        <ele>360.39999389648</ele>
        <time>2023-06-18T09:03:53Z</time>
      </trkpt>
      <trkpt lat="49.44203" lon="5.79659">
        <ele>360.20001220703</ele>
        <time>2023-06-18T09:03:55Z</time>
      </trkpt>
      <trkpt lat="49.44203" lon="5.79651">
        <ele>360</ele>
        <time>2023-06-18T09:03:56Z</time>
      </trkpt>
      <trkpt lat="49.44203" lon="5.79643">
        <ele>359.79998779297</ele>
        <time>2023-06-18T09:03:57Z</time>
      </trkpt>
      <trkpt lat="49.44204" lon="5.79626">
        <ele>359.39999389648</ele>
        <time>2023-06-18T09:03:59Z</time>
      </trkpt>
      <trkpt lat="49.44205" lon="5.79609">
        <ele>359</ele>
        <time>2023-06-18T09:04:01Z</time>
      </trkpt>
      <trkpt lat="49.44206" lon="5.79591">
        <ele>358.79998779297</ele>
        <time>2023-06-18T09:04:03Z</time>
      </trkpt>
      <trkpt lat="49.44207" lon="5.79573">
        <ele>358.60000610352</ele>
        <time>2023-06-18T09:04:05Z</time>
      </trkpt>
      <trkpt lat="49.44207" lon="5.79554">
        <ele>358</ele>
        <time>2023-06-18T09:04:07Z</time>
      </trkpt>
      <trkpt lat="49.44206" lon="5.79545">
        <ele>357.60000610352</ele>
        <time>2023-06-18T09:04:08Z</time>
      </trkpt>
      <trkpt lat="49.44205" lon="5.79535">
        <ele>357.39999389648</ele>
        <time>2023-06-18T09:04:09Z</time>
      </trkpt>
      <trkpt lat="49.44204" lon="5.79526">
        <ele>357.20001220703</ele>
        <time>2023-06-18T09:04:10Z</time>
      </trkpt>
      <trkpt lat="49.44202" lon="5.79517">
        <ele>357</ele>
        <time>2023-06-18T09:04:11Z</time>
      </trkpt>
      <trkpt lat="49.44197" lon="5.79497">
        <ele>356.39999389648</ele>
        <time>2023-06-18T09:04:13Z</time>
      </trkpt>
      <trkpt lat="49.44193" lon="5.79476">
        <ele>356</ele>
        <time>2023-06-18T09:04:15Z</time>
      </trkpt>
      <trkpt lat="49.44191" lon="5.79465">
        <ele>355.79998779297</ele>
        <time>2023-06-18T09:04:16Z</time>
      </trkpt>
      <trkpt lat="49.44189" lon="5.79455">
        <ele>355.20001220703</ele>
        <time>2023-06-18T09:04:17Z</time>
      </trkpt>
      <trkpt lat="49.44186" lon="5.79434">
        <ele>354.20001220703</ele>
        <time>2023-06-18T09:04:19Z</time>
      </trkpt>
      <trkpt lat="49.44185" lon="5.79423">
        <ele>353.39999389648</ele>
        <time>2023-06-18T09:04:20Z</time>
      </trkpt>
      <trkpt lat="49.44185" lon="5.79412">
        <ele>352.79998779297</ele>
        <time>2023-06-18T09:04:21Z</time>
      </trkpt>
      <trkpt lat="49.44187" lon="5.79389">
        <ele>351.79998779297</ele>
        <time>2023-06-18T09:04:23Z</time>
      </trkpt>
      <trkpt lat="49.44189" lon="5.79379">
        <ele>351.20001220703</ele>
        <time>2023-06-18T09:04:24Z</time>
      </trkpt>
      <trkpt lat="49.44191" lon="5.79369">
        <ele>350.39999389648</ele>
        <time>2023-06-18T09:04:25Z</time>
      </trkpt>
      <trkpt lat="49.44197" lon="5.79352">
        <ele>348.79998779297</ele>
        <time>2023-06-18T09:04:27Z</time>
      </trkpt>
      <trkpt lat="49.44201" lon="5.79344">
        <ele>348</ele>
        <time>2023-06-18T09:04:28Z</time>
      </trkpt>
      <trkpt lat="49.44205" lon="5.79337">
        <ele>346.39999389648</ele>
        <time>2023-06-18T09:04:29Z</time>
      </trkpt>
      <trkpt lat="49.44208" lon="5.79331">
        <ele>345.20001220703</ele>
        <time>2023-06-18T09:04:30Z</time>
      </trkpt>
      <trkpt lat="49.44212" lon="5.79324">
        <ele>344.60000610352</ele>
        <time>2023-06-18T09:04:31Z</time>
      </trkpt>
      <trkpt lat="49.44215" lon="5.79317">
        <ele>344.20001220703</ele>
        <time>2023-06-18T09:04:32Z</time>
      </trkpt>
      <trkpt lat="49.44219" lon="5.79311">
        <ele>343.60000610352</ele>
        <time>2023-06-18T09:04:33Z</time>
      </trkpt>
      <trkpt lat="49.44222" lon="5.79304">
        <ele>343</ele>
        <time>2023-06-18T09:04:34Z</time>
      </trkpt>
      <trkpt lat="49.44226" lon="5.79297">
        <ele>342</ele>
        <time>2023-06-18T09:04:35Z</time>
      </trkpt>
      <trkpt lat="49.44229" lon="5.79291">
        <ele>340.20001220703</ele>
        <time>2023-06-18T09:04:36Z</time>
      </trkpt>
      <trkpt lat="49.44232" lon="5.79285">
        <ele>340</ele>
        <time>2023-06-18T09:04:37Z</time>
      </trkpt>
      <trkpt lat="49.4424" lon="5.79276">
        <ele>339.79998779297</ele>
        <time>2023-06-18T09:04:39Z</time>
      </trkpt>
      <trkpt lat="49.44249" lon="5.79272">
        <ele>339.60000610352</ele>
        <time>2023-06-18T09:04:41Z</time>
      </trkpt>
      <trkpt lat="49.44253" lon="5.79271">
        <ele>339.60000610352</ele>
        <time>2023-06-18T09:04:42Z</time>
      </trkpt>
      <trkpt lat="49.44255" lon="5.79271">
        <ele>339.60000610352</ele>
        <time>2023-06-18T09:04:43Z</time>
      </trkpt>
      <trkpt lat="49.44262" lon="5.79271">
        <ele>339.60000610352</ele>
        <time>2023-06-18T09:04:45Z</time>
      </trkpt>
      <trkpt lat="49.44264" lon="5.79271">
        <ele>339.60000610352</ele>
        <time>2023-06-18T09:04:46Z</time>
      </trkpt>
      <trkpt lat="49.44268" lon="5.7927">
        <ele>339.79998779297</ele>
        <time>2023-06-18T09:04:47Z</time>
      </trkpt>
      <trkpt lat="49.44273" lon="5.79269">
        <ele>339.79998779297</ele>
        <time>2023-06-18T09:04:49Z</time>
      </trkpt>
      <trkpt lat="49.44278" lon="5.79267">
        <ele>340.60000610352</ele>
        <time>2023-06-18T09:04:51Z</time>
      </trkpt>
      <trkpt lat="49.4428" lon="5.79267">
        <ele>340.60000610352</ele>
        <time>2023-06-18T09:04:52Z</time>
      </trkpt>
      <trkpt lat="49.44282" lon="5.79266">
        <ele>341</ele>
        <time>2023-06-18T09:04:53Z</time>
      </trkpt>
      <trkpt lat="49.44287" lon="5.79266">
        <ele>341.39999389648</ele>
        <time>2023-06-18T09:04:55Z</time>
      </trkpt>
      <trkpt lat="49.4429" lon="5.79266">
        <ele>341.79998779297</ele>
        <time>2023-06-18T09:04:56Z</time>
      </trkpt>
      <trkpt lat="49.44293" lon="5.79266">
        <ele>342</ele>
        <time>2023-06-18T09:04:57Z</time>
      </trkpt>
      <trkpt lat="49.44296" lon="5.79266">
        <ele>342.20001220703</ele>
        <time>2023-06-18T09:04:58Z</time>
      </trkpt>
      <trkpt lat="49.44298" lon="5.79266">
        <ele>342.39999389648</ele>
        <time>2023-06-18T09:04:59Z</time>
      </trkpt>
      <trkpt lat="49.44304" lon="5.79267">
        <ele>342.60000610352</ele>
        <time>2023-06-18T09:05:01Z</time>
      </trkpt>
      <trkpt lat="49.4431" lon="5.79268">
        <ele>342.79998779297</ele>
        <time>2023-06-18T09:05:03Z</time>
      </trkpt>
      <trkpt lat="49.44312" lon="5.79269">
        <ele>342.79998779297</ele>
        <time>2023-06-18T09:05:04Z</time>
      </trkpt>
      <trkpt lat="49.44316" lon="5.79271">
        <ele>343</ele>
        <time>2023-06-18T09:05:05Z</time>
      </trkpt>
      <trkpt lat="49.4432" lon="5.79273">
        <ele>343.20001220703</ele>
        <time>2023-06-18T09:05:07Z</time>
      </trkpt>
      <trkpt lat="49.44324" lon="5.79276">
        <ele>343.39999389648</ele>
        <time>2023-06-18T09:05:09Z</time>
      </trkpt>
      <trkpt lat="49.44327" lon="5.79276">
        <ele>343.60000610352</ele>
        <time>2023-06-18T09:05:10Z</time>
      </trkpt>
      <trkpt lat="49.44329" lon="5.79277">
        <ele>343.60000610352</ele>
        <time>2023-06-18T09:05:11Z</time>
      </trkpt>
      <trkpt lat="49.44331" lon="5.79278">
        <ele>343.79998779297</ele>
        <time>2023-06-18T09:05:12Z</time>
      </trkpt>
      <trkpt lat="49.44333" lon="5.79279">
        <ele>344</ele>
        <time>2023-06-18T09:05:13Z</time>
      </trkpt>
      <trkpt lat="49.44341" lon="5.79279">
        <ele>344.20001220703</ele>
        <time>2023-06-18T09:05:15Z</time>
      </trkpt>
      <trkpt lat="49.44345" lon="5.79278">
        <ele>344.39999389648</ele>
        <time>2023-06-18T09:05:16Z</time>
      </trkpt>
      <trkpt lat="49.44347" lon="5.79277">
        <ele>344.60000610352</ele>
        <time>2023-06-18T09:05:17Z</time>
      </trkpt>
      <trkpt lat="49.44353" lon="5.79275">
        <ele>344.79998779297</ele>
        <time>2023-06-18T09:05:19Z</time>
      </trkpt>
      <trkpt lat="49.44361" lon="5.79272">
        <ele>345</ele>
        <time>2023-06-18T09:05:21Z</time>
      </trkpt>
      <trkpt lat="49.44366" lon="5.79269">
        <ele>345</ele>
        <time>2023-06-18T09:05:22Z</time>
      </trkpt>
      <trkpt lat="49.44369" lon="5.79268">
        <ele>345</ele>
        <time>2023-06-18T09:05:23Z</time>
      </trkpt>
      <trkpt lat="49.44374" lon="5.79266">
        <ele>345</ele>
        <time>2023-06-18T09:05:24Z</time>
      </trkpt>
      <trkpt lat="49.4438" lon="5.79263">
        <ele>345</ele>
        <time>2023-06-18T09:05:25Z</time>
      </trkpt>
      <trkpt lat="49.44388" lon="5.79264">
        <ele>345</ele>
        <time>2023-06-18T09:05:27Z</time>
      </trkpt>
      <trkpt lat="49.44398" lon="5.79268">
        <ele>344.20001220703</ele>
        <time>2023-06-18T09:05:29Z</time>
      </trkpt>
      <trkpt lat="49.44403" lon="5.7927">
        <ele>343.79998779297</ele>
        <time>2023-06-18T09:05:30Z</time>
      </trkpt>
      <trkpt lat="49.44406" lon="5.79273">
        <ele>343.39999389648</ele>
        <time>2023-06-18T09:05:31Z</time>
      </trkpt>
      <trkpt lat="49.44409" lon="5.79281">
        <ele>343.20001220703</ele>
        <time>2023-06-18T09:05:33Z</time>
      </trkpt>
      <trkpt lat="49.44412" lon="5.7929">
        <ele>343.20001220703</ele>
        <time>2023-06-18T09:05:35Z</time>
      </trkpt>
      <trkpt lat="49.44416" lon="5.79296">
        <ele>343.20001220703</ele>
        <time>2023-06-18T09:05:36Z</time>
      </trkpt>
      <trkpt lat="49.44418" lon="5.793">
        <ele>343.20001220703</ele>
        <time>2023-06-18T09:05:37Z</time>
      </trkpt>
      <trkpt lat="49.44422" lon="5.79309">
        <ele>343.20001220703</ele>
        <time>2023-06-18T09:05:39Z</time>
      </trkpt>
      <trkpt lat="49.44427" lon="5.79314">
        <ele>343.60000610352</ele>
        <time>2023-06-18T09:05:41Z</time>
      </trkpt>
      <trkpt lat="49.44434" lon="5.79319">
        <ele>344.60000610352</ele>
        <time>2023-06-18T09:05:43Z</time>
      </trkpt>
      <trkpt lat="49.44438" lon="5.79321">
        <ele>345.20001220703</ele>
        <time>2023-06-18T09:05:44Z</time>
      </trkpt>
      <trkpt lat="49.4444" lon="5.79323">
        <ele>345.60000610352</ele>
        <time>2023-06-18T09:05:45Z</time>
      </trkpt>
      <trkpt lat="49.44444" lon="5.79324">
        <ele>345.79998779297</ele>
        <time>2023-06-18T09:05:46Z</time>
      </trkpt>
      <trkpt lat="49.44447" lon="5.79324">
        <ele>346.20001220703</ele>
        <time>2023-06-18T09:05:47Z</time>
      </trkpt>
      <trkpt lat="49.4445" lon="5.79323">
        <ele>346.39999389648</ele>
        <time>2023-06-18T09:05:48Z</time>
      </trkpt>
      <trkpt lat="49.44453" lon="5.79323">
        <ele>346.79998779297</ele>
        <time>2023-06-18T09:05:49Z</time>
      </trkpt>
      <trkpt lat="49.44456" lon="5.79325">
        <ele>347</ele>
        <time>2023-06-18T09:05:50Z</time>
      </trkpt>
      <trkpt lat="49.4446" lon="5.79326">
        <ele>347</ele>
        <time>2023-06-18T09:05:51Z</time>
      </trkpt>
      <trkpt lat="49.44468" lon="5.7933">
        <ele>347.20001220703</ele>
        <time>2023-06-18T09:05:53Z</time>
      </trkpt>
      <trkpt lat="49.44475" lon="5.79332">
        <ele>347.20001220703</ele>
        <time>2023-06-18T09:05:55Z</time>
      </trkpt>
      <trkpt lat="49.4448" lon="5.79334">
        <ele>347.20001220703</ele>
        <time>2023-06-18T09:05:57Z</time>
      </trkpt>
      <trkpt lat="49.44485" lon="5.79336">
        <ele>347.20001220703</ele>
        <time>2023-06-18T09:05:59Z</time>
      </trkpt>
      <trkpt lat="49.44493" lon="5.79336">
        <ele>347.20001220703</ele>
        <time>2023-06-18T09:06:01Z</time>
      </trkpt>
      <trkpt lat="49.445" lon="5.79332">
        <ele>347.20001220703</ele>
        <time>2023-06-18T09:06:03Z</time>
      </trkpt>
      <trkpt lat="49.44505" lon="5.79328">
        <ele>347</ele>
        <time>2023-06-18T09:06:05Z</time>
      </trkpt>
      <trkpt lat="49.4451" lon="5.79327">
        <ele>346.79998779297</ele>
        <time>2023-06-18T09:06:06Z</time>
      </trkpt>
      <trkpt lat="49.44513" lon="5.79327">
        <ele>346.79998779297</ele>
        <time>2023-06-18T09:06:07Z</time>
      </trkpt>
      <trkpt lat="49.44518" lon="5.79328">
        <ele>346.79998779297</ele>
        <time>2023-06-18T09:06:09Z</time>
      </trkpt>
      <trkpt lat="49.44526" lon="5.79331">
        <ele>346.39999389648</ele>
        <time>2023-06-18T09:06:11Z</time>
      </trkpt>
      <trkpt lat="49.44531" lon="5.79333">
        <ele>346.20001220703</ele>
        <time>2023-06-18T09:06:13Z</time>
      </trkpt>
      <trkpt lat="49.44536" lon="5.79335">
        <ele>346</ele>
        <time>2023-06-18T09:06:15Z</time>
      </trkpt>
      <trkpt lat="49.44538" lon="5.79336">
        <ele>346</ele>
        <time>2023-06-18T09:06:16Z</time>
      </trkpt>
      <trkpt lat="49.4454" lon="5.79337">
        <ele>346</ele>
        <time>2023-06-18T09:06:17Z</time>
      </trkpt>
      <trkpt lat="49.44545" lon="5.79338">
        <ele>346</ele>
        <time>2023-06-18T09:06:19Z</time>
      </trkpt>
      <trkpt lat="49.44549" lon="5.7934">
        <ele>346.20001220703</ele>
        <time>2023-06-18T09:06:21Z</time>
      </trkpt>
      <trkpt lat="49.44552" lon="5.79342">
        <ele>346.39999389648</ele>
        <time>2023-06-18T09:06:22Z</time>
      </trkpt>
      <trkpt lat="49.44553" lon="5.79344">
        <ele>346.60000610352</ele>
        <time>2023-06-18T09:06:23Z</time>
      </trkpt>
      <trkpt lat="49.44557" lon="5.79346">
        <ele>346.60000610352</ele>
        <time>2023-06-18T09:06:25Z</time>
      </trkpt>
      <trkpt lat="49.44561" lon="5.79345">
        <ele>347</ele>
        <time>2023-06-18T09:06:27Z</time>
      </trkpt>
      <trkpt lat="49.44564" lon="5.79344">
        <ele>347</ele>
        <time>2023-06-18T09:06:28Z</time>
      </trkpt>
      <trkpt lat="49.44567" lon="5.79344">
        <ele>347</ele>
        <time>2023-06-18T09:06:29Z</time>
      </trkpt>
      <trkpt lat="49.44572" lon="5.79342">
        <ele>347</ele>
        <time>2023-06-18T09:06:31Z</time>
      </trkpt>
      <trkpt lat="49.4458" lon="5.79338">
        <ele>347</ele>
        <time>2023-06-18T09:06:33Z</time>
      </trkpt>
      <trkpt lat="49.44584" lon="5.79336">
        <ele>347</ele>
        <time>2023-06-18T09:06:34Z</time>
      </trkpt>
      <trkpt lat="49.44587" lon="5.79335">
        <ele>346.79998779297</ele>
        <time>2023-06-18T09:06:35Z</time>
      </trkpt>
      <trkpt lat="49.44591" lon="5.79334">
        <ele>346</ele>
        <time>2023-06-18T09:06:37Z</time>
      </trkpt>
      <trkpt lat="49.44593" lon="5.79335">
        <ele>345.60000610352</ele>
        <time>2023-06-18T09:06:38Z</time>
      </trkpt>
      <trkpt lat="49.44595" lon="5.79336">
        <ele>345.20001220703</ele>
        <time>2023-06-18T09:06:39Z</time>
      </trkpt>
      <trkpt lat="49.44599" lon="5.79339">
        <ele>345</ele>
        <time>2023-06-18T09:06:40Z</time>
      </trkpt>
      <trkpt lat="49.446" lon="5.79342">
        <ele>344.79998779297</ele>
        <time>2023-06-18T09:06:41Z</time>
      </trkpt>
      <trkpt lat="49.44602" lon="5.79345">
        <ele>344.79998779297</ele>
        <time>2023-06-18T09:06:42Z</time>
      </trkpt>
      <trkpt lat="49.44605" lon="5.79348">
        <ele>344.79998779297</ele>
        <time>2023-06-18T09:06:43Z</time>
      </trkpt>
      <trkpt lat="49.44608" lon="5.79355">
        <ele>344.79998779297</ele>
        <time>2023-06-18T09:06:45Z</time>
      </trkpt>
      <trkpt lat="49.44611" lon="5.79362">
        <ele>344.79998779297</ele>
        <time>2023-06-18T09:06:47Z</time>
      </trkpt>
      <trkpt lat="49.44613" lon="5.79366">
        <ele>344.79998779297</ele>
        <time>2023-06-18T09:06:48Z</time>
      </trkpt>
      <trkpt lat="49.44615" lon="5.79369">
        <ele>344.79998779297</ele>
        <time>2023-06-18T09:06:49Z</time>
      </trkpt>
      <trkpt lat="49.44618" lon="5.79374">
        <ele>344.79998779297</ele>
        <time>2023-06-18T09:06:51Z</time>
      </trkpt>
      <trkpt lat="49.44623" lon="5.7938">
        <ele>346.20001220703</ele>
        <time>2023-06-18T09:06:53Z</time>
      </trkpt>
      <trkpt lat="49.44625" lon="5.79382">
        <ele>346.60000610352</ele>
        <time>2023-06-18T09:06:54Z</time>
      </trkpt>
      <trkpt lat="49.44627" lon="5.79385">
        <ele>347</ele>
        <time>2023-06-18T09:06:55Z</time>
      </trkpt>
      <trkpt lat="49.44632" lon="5.79392">
        <ele>347.79998779297</ele>
        <time>2023-06-18T09:06:57Z</time>
      </trkpt>
      <trkpt lat="49.44636" lon="5.79397">
        <ele>348.60000610352</ele>
        <time>2023-06-18T09:06:59Z</time>
      </trkpt>
      <trkpt lat="49.44639" lon="5.79403">
        <ele>348.79998779297</ele>
        <time>2023-06-18T09:07:01Z</time>
      </trkpt>
      <trkpt lat="49.44641" lon="5.79407">
        <ele>349.39999389648</ele>
        <time>2023-06-18T09:07:03Z</time>
      </trkpt>
      <trkpt lat="49.44644" lon="5.79411">
        <ele>350</ele>
        <time>2023-06-18T09:07:05Z</time>
      </trkpt>
      <trkpt lat="49.44648" lon="5.79415">
        <ele>350.39999389648</ele>
        <time>2023-06-18T09:07:07Z</time>
      </trkpt>
      <trkpt lat="49.44652" lon="5.79417">
        <ele>350.79998779297</ele>
        <time>2023-06-18T09:07:09Z</time>
      </trkpt>
      <trkpt lat="49.44656" lon="5.79419">
        <ele>351</ele>
        <time>2023-06-18T09:07:11Z</time>
      </trkpt>
      <trkpt lat="49.44658" lon="5.7942">
        <ele>351</ele>
        <time>2023-06-18T09:07:12Z</time>
      </trkpt>
      <trkpt lat="49.4466" lon="5.79422">
        <ele>351</ele>
        <time>2023-06-18T09:07:13Z</time>
      </trkpt>
      <trkpt lat="49.44665" lon="5.79425">
        <ele>351</ele>
        <time>2023-06-18T09:07:15Z</time>
      </trkpt>
      <trkpt lat="49.44671" lon="5.79426">
        <ele>351</ele>
        <time>2023-06-18T09:07:17Z</time>
      </trkpt>
      <trkpt lat="49.44674" lon="5.79426">
        <ele>351.20001220703</ele>
        <time>2023-06-18T09:07:19Z</time>
      </trkpt>
      <trkpt lat="49.44677" lon="5.79426">
        <ele>351.20001220703</ele>
        <time>2023-06-18T09:07:21Z</time>
      </trkpt>
      <trkpt lat="49.44681" lon="5.79423">
        <ele>351</ele>
        <time>2023-06-18T09:07:23Z</time>
      </trkpt>
      <trkpt lat="49.44686" lon="5.7942">
        <ele>350.79998779297</ele>
        <time>2023-06-18T09:07:25Z</time>
      </trkpt>
      <trkpt lat="49.44689" lon="5.79418">
        <ele>350.79998779297</ele>
        <time>2023-06-18T09:07:26Z</time>
      </trkpt>
      <trkpt lat="49.44691" lon="5.79416">
        <ele>350.79998779297</ele>
        <time>2023-06-18T09:07:27Z</time>
      </trkpt>
      <trkpt lat="49.44696" lon="5.79409">
        <ele>350.60000610352</ele>
        <time>2023-06-18T09:07:29Z</time>
      </trkpt>
      <trkpt lat="49.44699" lon="5.79405">
        <ele>350.60000610352</ele>
        <time>2023-06-18T09:07:30Z</time>
      </trkpt>
      <trkpt lat="49.44701" lon="5.79401">
        <ele>350.39999389648</ele>
        <time>2023-06-18T09:07:31Z</time>
      </trkpt>
      <trkpt lat="49.44709" lon="5.79395">
        <ele>350</ele>
        <time>2023-06-18T09:07:33Z</time>
      </trkpt>
      <trkpt lat="49.44717" lon="5.7939">
        <ele>349</ele>
        <time>2023-06-18T09:07:35Z</time>
      </trkpt>
      <trkpt lat="49.4472" lon="5.7939">
        <ele>348.20001220703</ele>
        <time>2023-06-18T09:07:36Z</time>
      </trkpt>
      <trkpt lat="49.44723" lon="5.79392">
        <ele>347</ele>
        <time>2023-06-18T09:07:37Z</time>
      </trkpt>
      <trkpt lat="49.44727" lon="5.79398">
        <ele>346</ele>
        <time>2023-06-18T09:07:39Z</time>
      </trkpt>
      <trkpt lat="49.44729" lon="5.794">
        <ele>345.79998779297</ele>
        <time>2023-06-18T09:07:40Z</time>
      </trkpt>
      <trkpt lat="49.44731" lon="5.79403">
        <ele>345.60000610352</ele>
        <time>2023-06-18T09:07:41Z</time>
      </trkpt>
      <trkpt lat="49.44734" lon="5.79407">
        <ele>345</ele>
        <time>2023-06-18T09:07:43Z</time>
      </trkpt>
      <trkpt lat="49.44735" lon="5.7941">
        <ele>344.79998779297</ele>
        <time>2023-06-18T09:07:44Z</time>
      </trkpt>
      <trkpt lat="49.44737" lon="5.79412">
        <ele>344.79998779297</ele>
        <time>2023-06-18T09:07:45Z</time>
      </trkpt>
      <trkpt lat="49.44739" lon="5.79414">
        <ele>344.60000610352</ele>
        <time>2023-06-18T09:07:46Z</time>
      </trkpt>
      <trkpt lat="49.44741" lon="5.79417">
        <ele>344.60000610352</ele>
        <time>2023-06-18T09:07:47Z</time>
      </trkpt>
      <trkpt lat="49.44745" lon="5.79421">
        <ele>344.39999389648</ele>
        <time>2023-06-18T09:07:49Z</time>
      </trkpt>
      <trkpt lat="49.44747" lon="5.79422">
        <ele>344.39999389648</ele>
        <time>2023-06-18T09:07:50Z</time>
      </trkpt>
      <trkpt lat="49.44748" lon="5.79422">
        <ele>344.39999389648</ele>
        <time>2023-06-18T09:07:51Z</time>
      </trkpt>
      <trkpt lat="49.44753" lon="5.7942">
        <ele>344.20001220703</ele>
        <time>2023-06-18T09:07:53Z</time>
      </trkpt>
      <trkpt lat="49.44761" lon="5.79418">
        <ele>344.20001220703</ele>
        <time>2023-06-18T09:07:55Z</time>
      </trkpt>
      <trkpt lat="49.44769" lon="5.79414">
        <ele>344.20001220703</ele>
        <time>2023-06-18T09:07:57Z</time>
      </trkpt>
      <trkpt lat="49.44776" lon="5.79408">
        <ele>344</ele>
        <time>2023-06-18T09:07:59Z</time>
      </trkpt>
      <trkpt lat="49.44778" lon="5.79406">
        <ele>343.60000610352</ele>
        <time>2023-06-18T09:08:00Z</time>
      </trkpt>
      <trkpt lat="49.4478" lon="5.79403">
        <ele>343.20001220703</ele>
        <time>2023-06-18T09:08:01Z</time>
      </trkpt>
      <trkpt lat="49.44783" lon="5.79399">
        <ele>341.79998779297</ele>
        <time>2023-06-18T09:08:03Z</time>
      </trkpt>
      <trkpt lat="49.44785" lon="5.79398">
        <ele>340.20001220703</ele>
        <time>2023-06-18T09:08:05Z</time>
      </trkpt>
      <trkpt lat="49.44785" lon="5.79397">
        <ele>339.39999389648</ele>
        <time>2023-06-18T09:08:06Z</time>
      </trkpt>
      <trkpt lat="49.44787" lon="5.79397">
        <ele>338.79998779297</ele>
        <time>2023-06-18T09:08:07Z</time>
      </trkpt>
      <trkpt lat="49.44788" lon="5.79397">
        <ele>337.20001220703</ele>
        <time>2023-06-18T09:08:09Z</time>
      </trkpt>
      <trkpt lat="49.44792" lon="5.79397">
        <ele>336.20001220703</ele>
        <time>2023-06-18T09:08:11Z</time>
      </trkpt>
      <trkpt lat="49.44793" lon="5.79397">
        <ele>336</ele>
        <time>2023-06-18T09:08:12Z</time>
      </trkpt>
      <trkpt lat="49.44793" lon="5.79396">
        <ele>335.79998779297</ele>
        <time>2023-06-18T09:08:13Z</time>
      </trkpt>
      <trkpt lat="49.44793" lon="5.79396">
        <ele>335.79998779297</ele>
        <time>2023-06-18T09:08:15Z</time>
      </trkpt>
      <trkpt lat="49.44793" lon="5.79396">
        <ele>335.79998779297</ele>
        <time>2023-06-18T09:08:17Z</time>
      </trkpt>
      <trkpt lat="49.44793" lon="5.79396">
        <ele>335.60000610352</ele>
        <time>2023-06-18T09:08:19Z</time>
      </trkpt>
      <trkpt lat="49.44794" lon="5.79396">
        <ele>335.60000610352</ele>
        <time>2023-06-18T09:08:21Z</time>
      </trkpt>
      <trkpt lat="49.44794" lon="5.79396">
        <ele>335.60000610352</ele>
        <time>2023-06-18T09:08:23Z</time>
      </trkpt>
      <trkpt lat="49.44795" lon="5.79397">
        <ele>335.60000610352</ele>
        <time>2023-06-18T09:08:25Z</time>
      </trkpt>
      <trkpt lat="49.44795" lon="5.79397">
        <ele>335.60000610352</ele>
        <time>2023-06-18T09:08:26Z</time>
      </trkpt>
      <trkpt lat="49.44795" lon="5.79397">
        <ele>335.60000610352</ele>
        <time>2023-06-18T09:08:27Z</time>
      </trkpt>
      <trkpt lat="49.44795" lon="5.79397">
        <ele>335.60000610352</ele>
        <time>2023-06-18T09:08:29Z</time>
      </trkpt>
      <trkpt lat="49.44795" lon="5.79397">
        <ele>335.60000610352</ele>
        <time>2023-06-18T09:08:31Z</time>
      </trkpt>
      <trkpt lat="49.44795" lon="5.79396">
        <ele>335.60000610352</ele>
        <time>2023-06-18T09:08:33Z</time>
      </trkpt>
      <trkpt lat="49.44795" lon="5.79396">
        <ele>335.39999389648</ele>
        <time>2023-06-18T09:08:35Z</time>
      </trkpt>
      <trkpt lat="49.44795" lon="5.79396">
        <ele>335.39999389648</ele>
        <time>2023-06-18T09:08:37Z</time>
      </trkpt>
      <trkpt lat="49.44795" lon="5.79396">
        <ele>335.39999389648</ele>
        <time>2023-06-18T09:08:39Z</time>
      </trkpt>
      <trkpt lat="49.44795" lon="5.79396">
        <ele>335.39999389648</ele>
        <time>2023-06-18T09:08:41Z</time>
      </trkpt>
      <trkpt lat="49.44797" lon="5.79394">
        <ele>335.39999389648</ele>
        <time>2023-06-18T09:08:43Z</time>
      </trkpt>
      <trkpt lat="49.44798" lon="5.79391">
        <ele>335.39999389648</ele>
        <time>2023-06-18T09:08:44Z</time>
      </trkpt>
      <trkpt lat="49.44799" lon="5.79388">
        <ele>335.39999389648</ele>
        <time>2023-06-18T09:08:45Z</time>
      </trkpt>
      <trkpt lat="49.44801" lon="5.79381">
        <ele>335.39999389648</ele>
        <time>2023-06-18T09:08:47Z</time>
      </trkpt>
      <trkpt lat="49.44804" lon="5.79375">
        <ele>335.39999389648</ele>
        <time>2023-06-18T09:08:49Z</time>
      </trkpt>
      <trkpt lat="49.44804" lon="5.79373">
        <ele>335.39999389648</ele>
        <time>2023-06-18T09:08:50Z</time>
      </trkpt>
      <trkpt lat="49.44805" lon="5.79371">
        <ele>334.79998779297</ele>
        <time>2023-06-18T09:08:51Z</time>
      </trkpt>
      <trkpt lat="49.44805" lon="5.79371">
        <ele>333.79998779297</ele>
        <time>2023-06-18T09:08:52Z</time>
      </trkpt>
      <trkpt lat="49.44806" lon="5.7937">
        <ele>332.20001220703</ele>
        <time>2023-06-18T09:08:53Z</time>
      </trkpt>
      <trkpt lat="49.44807" lon="5.79369">
        <ele>330.39999389648</ele>
        <time>2023-06-18T09:08:54Z</time>
      </trkpt>
      <trkpt lat="49.44807" lon="5.79369">
        <ele>328.60000610352</ele>
        <time>2023-06-18T09:08:55Z</time>
      </trkpt>
      <trkpt lat="49.44808" lon="5.79369">
        <ele>326.60000610352</ele>
        <time>2023-06-18T09:08:56Z</time>
      </trkpt>
      <trkpt lat="49.44808" lon="5.79368">
        <ele>325.39999389648</ele>
        <time>2023-06-18T09:08:57Z</time>
      </trkpt>
      <trkpt lat="49.44809" lon="5.79368">
        <ele>324</ele>
        <time>2023-06-18T09:08:59Z</time>
      </trkpt>
      <trkpt lat="49.4481" lon="5.79368">
        <ele>323.20001220703</ele>
        <time>2023-06-18T09:09:01Z</time>
      </trkpt>
      <trkpt lat="49.4481" lon="5.79367">
        <ele>323</ele>
        <time>2023-06-18T09:09:02Z</time>
      </trkpt>
      <trkpt lat="49.4481" lon="5.79367">
        <ele>322.79998779297</ele>
        <time>2023-06-18T09:09:03Z</time>
      </trkpt>
      <trkpt lat="49.44811" lon="5.79366">
        <ele>322.60000610352</ele>
        <time>2023-06-18T09:09:05Z</time>
      </trkpt>
      <trkpt lat="49.44811" lon="5.79367">
        <ele>322.60000610352</ele>
        <time>2023-06-18T09:09:07Z</time>
      </trkpt>
      <trkpt lat="49.44812" lon="5.79367">
        <ele>322.60000610352</ele>
        <time>2023-06-18T09:09:09Z</time>
      </trkpt>
      <trkpt lat="49.44812" lon="5.79367">
        <ele>322.60000610352</ele>
        <time>2023-06-18T09:09:11Z</time>
      </trkpt>
      <trkpt lat="49.44813" lon="5.79367">
        <ele>322.60000610352</ele>
        <time>2023-06-18T09:09:13Z</time>
      </trkpt>
      <trkpt lat="49.44813" lon="5.79367">
        <ele>322.60000610352</ele>
        <time>2023-06-18T09:09:15Z</time>
      </trkpt>
      <trkpt lat="49.44813" lon="5.79367">
        <ele>322.60000610352</ele>
        <time>2023-06-18T09:09:17Z</time>
      </trkpt>
      <trkpt lat="49.44813" lon="5.79367">
        <ele>322.60000610352</ele>
        <time>2023-06-18T09:09:19Z</time>
      </trkpt>
      <trkpt lat="49.44813" lon="5.79367">
        <ele>322.60000610352</ele>
        <time>2023-06-18T09:09:21Z</time>
      </trkpt>
      <trkpt lat="49.44813" lon="5.79367">
        <ele>322.60000610352</ele>
        <time>2023-06-18T09:09:23Z</time>
      </trkpt>
      <trkpt lat="49.44813" lon="5.79367">
        <ele>322.60000610352</ele>
        <time>2023-06-18T09:09:25Z</time>
      </trkpt>
      <trkpt lat="49.44813" lon="5.79367">
        <ele>322.60000610352</ele>
        <time>2023-06-18T09:09:27Z</time>
      </trkpt>
      <trkpt lat="49.44813" lon="5.79367">
        <ele>322.60000610352</ele>
        <time>2023-06-18T09:09:29Z</time>
      </trkpt>
      <trkpt lat="49.44812" lon="5.79368">
        <ele>322.60000610352</ele>
        <time>2023-06-18T09:09:31Z</time>
      </trkpt>
      <trkpt lat="49.44812" lon="5.79368">
        <ele>322.60000610352</ele>
        <time>2023-06-18T09:09:32Z</time>
      </trkpt>
      <trkpt lat="49.44812" lon="5.79368">
        <ele>322.60000610352</ele>
        <time>2023-06-18T09:09:33Z</time>
      </trkpt>
      <trkpt lat="49.44811" lon="5.79368">
        <ele>322.60000610352</ele>
        <time>2023-06-18T09:09:35Z</time>
      </trkpt>
      <trkpt lat="49.44811" lon="5.79368">
        <ele>322.60000610352</ele>
        <time>2023-06-18T09:09:37Z</time>
      </trkpt>
      <trkpt lat="49.44811" lon="5.79368">
        <ele>322.60000610352</ele>
        <time>2023-06-18T09:09:39Z</time>
      </trkpt>
      <trkpt lat="49.44811" lon="5.79369">
        <ele>322.79998779297</ele>
        <time>2023-06-18T09:09:41Z</time>
      </trkpt>
      <trkpt lat="49.4481" lon="5.79369">
        <ele>322.60000610352</ele>
        <time>2023-06-18T09:09:43Z</time>
      </trkpt>
      <trkpt lat="49.4481" lon="5.79369">
        <ele>322.60000610352</ele>
        <time>2023-06-18T09:09:45Z</time>
      </trkpt>
      <trkpt lat="49.4481" lon="5.79369">
        <ele>322.60000610352</ele>
        <time>2023-06-18T09:09:46Z</time>
      </trkpt>
      <trkpt lat="49.4481" lon="5.79369">
        <ele>322.60000610352</ele>
        <time>2023-06-18T09:09:47Z</time>
      </trkpt>
      <trkpt lat="49.4481" lon="5.79369">
        <ele>322.60000610352</ele>
        <time>2023-06-18T09:09:49Z</time>
      </trkpt>
      <trkpt lat="49.44809" lon="5.79369">
        <ele>322.60000610352</ele>
        <time>2023-06-18T09:09:51Z</time>
      </trkpt>
      <trkpt lat="49.44809" lon="5.79369">
        <ele>322.60000610352</ele>
        <time>2023-06-18T09:09:53Z</time>
      </trkpt>
      <trkpt lat="49.44809" lon="5.79369">
        <ele>322.60000610352</ele>
        <time>2023-06-18T09:09:55Z</time>
      </trkpt>
      <trkpt lat="49.44809" lon="5.79369">
        <ele>322.60000610352</ele>
        <time>2023-06-18T09:09:57Z</time>
      </trkpt>
      <trkpt lat="49.44808" lon="5.79369">
        <ele>322.60000610352</ele>
        <time>2023-06-18T09:09:59Z</time>
      </trkpt>
      <trkpt lat="49.44808" lon="5.79368">
        <ele>322.60000610352</ele>
        <time>2023-06-18T09:10:01Z</time>
      </trkpt>
      <trkpt lat="49.44809" lon="5.79367">
        <ele>322.60000610352</ele>
        <time>2023-06-18T09:10:03Z</time>
      </trkpt>
      <trkpt lat="49.4481" lon="5.79361">
        <ele>322.60000610352</ele>
        <time>2023-06-18T09:10:05Z</time>
      </trkpt>
      <trkpt lat="49.44811" lon="5.79356">
        <ele>322.60000610352</ele>
        <time>2023-06-18T09:10:07Z</time>
      </trkpt>
      <trkpt lat="49.44812" lon="5.79351">
        <ele>322.60000610352</ele>
        <time>2023-06-18T09:10:09Z</time>
      </trkpt>
      <trkpt lat="49.44814" lon="5.79343">
        <ele>322.39999389648</ele>
        <time>2023-06-18T09:10:11Z</time>
      </trkpt>
      <trkpt lat="49.44815" lon="5.79338">
        <ele>322.39999389648</ele>
        <time>2023-06-18T09:10:12Z</time>
      </trkpt>
      <trkpt lat="49.44816" lon="5.79334">
        <ele>322.20001220703</ele>
        <time>2023-06-18T09:10:13Z</time>
      </trkpt>
      <trkpt lat="49.44818" lon="5.79323">
        <ele>321.60000610352</ele>
        <time>2023-06-18T09:10:15Z</time>
      </trkpt>
      <trkpt lat="49.44817" lon="5.79309">
        <ele>320.79998779297</ele>
        <time>2023-06-18T09:10:17Z</time>
      </trkpt>
      <trkpt lat="49.44817" lon="5.79301">
        <ele>320.60000610352</ele>
        <time>2023-06-18T09:10:18Z</time>
      </trkpt>
      <trkpt lat="49.44817" lon="5.79292">
        <ele>320.39999389648</ele>
        <time>2023-06-18T09:10:19Z</time>
      </trkpt>
      <trkpt lat="49.44818" lon="5.7927">
        <ele>319.60000610352</ele>
        <time>2023-06-18T09:10:21Z</time>
      </trkpt>
      <trkpt lat="49.44817" lon="5.79249">
        <ele>318.20001220703</ele>
        <time>2023-06-18T09:10:23Z</time>
      </trkpt>
      <trkpt lat="49.44819" lon="5.7923">
        <ele>316.79998779297</ele>
        <time>2023-06-18T09:10:25Z</time>
      </trkpt>
      <trkpt lat="49.4482" lon="5.7922">
        <ele>315</ele>
        <time>2023-06-18T09:10:27Z</time>
      </trkpt>
      <trkpt lat="49.44816" lon="5.7921">
        <ele>313</ele>
        <time>2023-06-18T09:10:29Z</time>
      </trkpt>
      <trkpt lat="49.44815" lon="5.79206">
        <ele>311.60000610352</ele>
        <time>2023-06-18T09:10:30Z</time>
      </trkpt>
      <trkpt lat="49.44811" lon="5.792">
        <ele>311</ele>
        <time>2023-06-18T09:10:31Z</time>
      </trkpt>
      <trkpt lat="49.44808" lon="5.79194">
        <ele>310.39999389648</ele>
        <time>2023-06-18T09:10:32Z</time>
      </trkpt>
      <trkpt lat="49.44806" lon="5.79187">
        <ele>310.39999389648</ele>
        <time>2023-06-18T09:10:33Z</time>
      </trkpt>
      <trkpt lat="49.448" lon="5.79172">
        <ele>310.20001220703</ele>
        <time>2023-06-18T09:10:35Z</time>
      </trkpt>
      <trkpt lat="49.44789" lon="5.79156">
        <ele>309.60000610352</ele>
        <time>2023-06-18T09:10:37Z</time>
      </trkpt>
      <trkpt lat="49.44784" lon="5.79149">
        <ele>309.39999389648</ele>
        <time>2023-06-18T09:10:38Z</time>
      </trkpt>
      <trkpt lat="49.4478" lon="5.79142">
        <ele>309</ele>
        <time>2023-06-18T09:10:39Z</time>
      </trkpt>
      <trkpt lat="49.44776" lon="5.79136">
        <ele>308.20001220703</ele>
        <time>2023-06-18T09:10:40Z</time>
      </trkpt>
      <trkpt lat="49.44771" lon="5.79131">
        <ele>307.79998779297</ele>
        <time>2023-06-18T09:10:41Z</time>
      </trkpt>
      <trkpt lat="49.44767" lon="5.79126">
        <ele>307.39999389648</ele>
        <time>2023-06-18T09:10:42Z</time>
      </trkpt>
      <trkpt lat="49.44762" lon="5.79121">
        <ele>307</ele>
        <time>2023-06-18T09:10:43Z</time>
      </trkpt>
      <trkpt lat="49.44753" lon="5.79112">
        <ele>306.60000610352</ele>
        <time>2023-06-18T09:10:45Z</time>
      </trkpt>
      <trkpt lat="49.44743" lon="5.79103">
        <ele>306.39999389648</ele>
        <time>2023-06-18T09:10:47Z</time>
      </trkpt>
      <trkpt lat="49.44733" lon="5.79094">
        <ele>306.20001220703</ele>
        <time>2023-06-18T09:10:49Z</time>
      </trkpt>
      <trkpt lat="49.44723" lon="5.79085">
        <ele>306</ele>
        <time>2023-06-18T09:10:51Z</time>
      </trkpt>
      <trkpt lat="49.44718" lon="5.79081">
        <ele>306</ele>
        <time>2023-06-18T09:10:52Z</time>
      </trkpt>
      <trkpt lat="49.44714" lon="5.79079">
        <ele>306</ele>
        <time>2023-06-18T09:10:53Z</time>
      </trkpt>
      <trkpt lat="49.44709" lon="5.79077">
        <ele>305.79998779297</ele>
        <time>2023-06-18T09:10:54Z</time>
      </trkpt>
      <trkpt lat="49.44704" lon="5.79075">
        <ele>305.60000610352</ele>
        <time>2023-06-18T09:10:55Z</time>
      </trkpt>
      <trkpt lat="49.44693" lon="5.79075">
        <ele>305.60000610352</ele>
        <time>2023-06-18T09:10:57Z</time>
      </trkpt>
      <trkpt lat="49.44683" lon="5.79077">
        <ele>305</ele>
        <time>2023-06-18T09:10:59Z</time>
      </trkpt>
      <trkpt lat="49.44678" lon="5.79079">
        <ele>305</ele>
        <time>2023-06-18T09:11:00Z</time>
      </trkpt>
      <trkpt lat="49.44674" lon="5.79081">
        <ele>304.79998779297</ele>
        <time>2023-06-18T09:11:01Z</time>
      </trkpt>
      <trkpt lat="49.44665" lon="5.79086">
        <ele>304.60000610352</ele>
        <time>2023-06-18T09:11:03Z</time>
      </trkpt>
      <trkpt lat="49.44657" lon="5.7909">
        <ele>304.60000610352</ele>
        <time>2023-06-18T09:11:05Z</time>
      </trkpt>
      <trkpt lat="49.44653" lon="5.79093">
        <ele>304.60000610352</ele>
        <time>2023-06-18T09:11:06Z</time>
      </trkpt>
      <trkpt lat="49.44649" lon="5.79095">
        <ele>304.60000610352</ele>
        <time>2023-06-18T09:11:07Z</time>
      </trkpt>
      <trkpt lat="49.44641" lon="5.79099">
        <ele>304.39999389648</ele>
        <time>2023-06-18T09:11:09Z</time>
      </trkpt>
      <trkpt lat="49.44632" lon="5.79103">
        <ele>304.20001220703</ele>
        <time>2023-06-18T09:11:11Z</time>
      </trkpt>
      <trkpt lat="49.44624" lon="5.79107">
        <ele>304</ele>
        <time>2023-06-18T09:11:13Z</time>
      </trkpt>
      <trkpt lat="49.44616" lon="5.79111">
        <ele>303.79998779297</ele>
        <time>2023-06-18T09:11:15Z</time>
      </trkpt>
      <trkpt lat="49.44608" lon="5.79114">
        <ele>303.79998779297</ele>
        <time>2023-06-18T09:11:17Z</time>
      </trkpt>
      <trkpt lat="49.446" lon="5.79115">
        <ele>303.60000610352</ele>
        <time>2023-06-18T09:11:19Z</time>
      </trkpt>
      <trkpt lat="49.44593" lon="5.79115">
        <ele>303.60000610352</ele>
        <time>2023-06-18T09:11:21Z</time>
      </trkpt>
      <trkpt lat="49.44586" lon="5.79114">
        <ele>303.60000610352</ele>
        <time>2023-06-18T09:11:23Z</time>
      </trkpt>
      <trkpt lat="49.4458" lon="5.79113">
        <ele>303.60000610352</ele>
        <time>2023-06-18T09:11:25Z</time>
      </trkpt>
      <trkpt lat="49.44572" lon="5.79109">
        <ele>303.39999389648</ele>
        <time>2023-06-18T09:11:27Z</time>
      </trkpt>
      <trkpt lat="49.44567" lon="5.79106">
        <ele>303.39999389648</ele>
        <time>2023-06-18T09:11:29Z</time>
      </trkpt>
      <trkpt lat="49.4456" lon="5.79103">
        <ele>303.39999389648</ele>
        <time>2023-06-18T09:11:31Z</time>
      </trkpt>
      <trkpt lat="49.44553" lon="5.791">
        <ele>303.39999389648</ele>
        <time>2023-06-18T09:11:33Z</time>
      </trkpt>
      <trkpt lat="49.44545" lon="5.79096">
        <ele>303.60000610352</ele>
        <time>2023-06-18T09:11:35Z</time>
      </trkpt>
      <trkpt lat="49.44542" lon="5.79094">
        <ele>303.60000610352</ele>
        <time>2023-06-18T09:11:36Z</time>
      </trkpt>
      <trkpt lat="49.44538" lon="5.79093">
        <ele>303.60000610352</ele>
        <time>2023-06-18T09:11:37Z</time>
      </trkpt>
      <trkpt lat="49.44531" lon="5.79089">
        <ele>303.60000610352</ele>
        <time>2023-06-18T09:11:39Z</time>
      </trkpt>
      <trkpt lat="49.44524" lon="5.79085">
        <ele>303.60000610352</ele>
        <time>2023-06-18T09:11:41Z</time>
      </trkpt>
      <trkpt lat="49.44517" lon="5.79082">
        <ele>303.39999389648</ele>
        <time>2023-06-18T09:11:43Z</time>
      </trkpt>
      <trkpt lat="49.44509" lon="5.79078">
        <ele>303.20001220703</ele>
        <time>2023-06-18T09:11:45Z</time>
      </trkpt>
      <trkpt lat="49.44502" lon="5.79073">
        <ele>303.20001220703</ele>
        <time>2023-06-18T09:11:47Z</time>
      </trkpt>
      <trkpt lat="49.44494" lon="5.79069">
        <ele>303</ele>
        <time>2023-06-18T09:11:49Z</time>
      </trkpt>
      <trkpt lat="49.44487" lon="5.79065">
        <ele>302.79998779297</ele>
        <time>2023-06-18T09:11:51Z</time>
      </trkpt>
      <trkpt lat="49.4448" lon="5.79061">
        <ele>302.39999389648</ele>
        <time>2023-06-18T09:11:53Z</time>
      </trkpt>
      <trkpt lat="49.44473" lon="5.79057">
        <ele>302.20001220703</ele>
        <time>2023-06-18T09:11:55Z</time>
      </trkpt>
      <trkpt lat="49.44466" lon="5.79053">
        <ele>302</ele>
        <time>2023-06-18T09:11:57Z</time>
      </trkpt>
      <trkpt lat="49.44458" lon="5.7905">
        <ele>301.79998779297</ele>
        <time>2023-06-18T09:11:59Z</time>
      </trkpt>
      <trkpt lat="49.44452" lon="5.79047">
        <ele>301.60000610352</ele>
        <time>2023-06-18T09:12:01Z</time>
      </trkpt>
      <trkpt lat="49.44445" lon="5.79044">
        <ele>301.60000610352</ele>
        <time>2023-06-18T09:12:03Z</time>
      </trkpt>
      <trkpt lat="49.44438" lon="5.79041">
        <ele>301.39999389648</ele>
        <time>2023-06-18T09:12:05Z</time>
      </trkpt>
      <trkpt lat="49.44434" lon="5.79041">
        <ele>301.39999389648</ele>
        <time>2023-06-18T09:12:06Z</time>
      </trkpt>
      <trkpt lat="49.44431" lon="5.79042">
        <ele>301.20001220703</ele>
        <time>2023-06-18T09:12:07Z</time>
      </trkpt>
      <trkpt lat="49.44424" lon="5.79044">
        <ele>301</ele>
        <time>2023-06-18T09:12:09Z</time>
      </trkpt>
      <trkpt lat="49.44418" lon="5.79046">
        <ele>301</ele>
        <time>2023-06-18T09:12:11Z</time>
      </trkpt>
      <trkpt lat="49.44415" lon="5.79047">
        <ele>301</ele>
        <time>2023-06-18T09:12:12Z</time>
      </trkpt>
      <trkpt lat="49.44413" lon="5.79048">
        <ele>300.79998779297</ele>
        <time>2023-06-18T09:12:13Z</time>
      </trkpt>
      <trkpt lat="49.44409" lon="5.79052">
        <ele>300.60000610352</ele>
        <time>2023-06-18T09:12:15Z</time>
      </trkpt>
      <trkpt lat="49.44408" lon="5.79053">
        <ele>300.60000610352</ele>
        <time>2023-06-18T09:12:16Z</time>
      </trkpt>
      <trkpt lat="49.44405" lon="5.79054">
        <ele>300.60000610352</ele>
        <time>2023-06-18T09:12:17Z</time>
      </trkpt>
      <trkpt lat="49.44401" lon="5.79054">
        <ele>300.60000610352</ele>
        <time>2023-06-18T09:12:19Z</time>
      </trkpt>
      <trkpt lat="49.44396" lon="5.79054">
        <ele>300.60000610352</ele>
        <time>2023-06-18T09:12:21Z</time>
      </trkpt>
      <trkpt lat="49.44391" lon="5.79054">
        <ele>300.60000610352</ele>
        <time>2023-06-18T09:12:23Z</time>
      </trkpt>
      <trkpt lat="49.44386" lon="5.79053">
        <ele>300.60000610352</ele>
        <time>2023-06-18T09:12:25Z</time>
      </trkpt>
      <trkpt lat="49.4438" lon="5.79053">
        <ele>300.60000610352</ele>
        <time>2023-06-18T09:12:27Z</time>
      </trkpt>
      <trkpt lat="49.44377" lon="5.79053">
        <ele>300.60000610352</ele>
        <time>2023-06-18T09:12:28Z</time>
      </trkpt>
      <trkpt lat="49.44373" lon="5.79053">
        <ele>300.60000610352</ele>
        <time>2023-06-18T09:12:29Z</time>
      </trkpt>
      <trkpt lat="49.44366" lon="5.79054">
        <ele>300.60000610352</ele>
        <time>2023-06-18T09:12:31Z</time>
      </trkpt>
      <trkpt lat="49.44359" lon="5.79054">
        <ele>300.60000610352</ele>
        <time>2023-06-18T09:12:33Z</time>
      </trkpt>
      <trkpt lat="49.44352" lon="5.79055">
        <ele>300.39999389648</ele>
        <time>2023-06-18T09:12:35Z</time>
      </trkpt>
      <trkpt lat="49.44348" lon="5.79055">
        <ele>300.20001220703</ele>
        <time>2023-06-18T09:12:36Z</time>
      </trkpt>
      <trkpt lat="49.44344" lon="5.79055">
        <ele>300.20001220703</ele>
        <time>2023-06-18T09:12:37Z</time>
      </trkpt>
      <trkpt lat="49.44339" lon="5.79052">
        <ele>300</ele>
        <time>2023-06-18T09:12:39Z</time>
      </trkpt>
      <trkpt lat="49.44334" lon="5.79048">
        <ele>300</ele>
        <time>2023-06-18T09:12:41Z</time>
      </trkpt>
      <trkpt lat="49.4433" lon="5.79045">
        <ele>299.79998779297</ele>
        <time>2023-06-18T09:12:43Z</time>
      </trkpt>
      <trkpt lat="49.44325" lon="5.79044">
        <ele>299.79998779297</ele>
        <time>2023-06-18T09:12:45Z</time>
      </trkpt>
      <trkpt lat="49.44323" lon="5.79043">
        <ele>299.60000610352</ele>
        <time>2023-06-18T09:12:46Z</time>
      </trkpt>
      <trkpt lat="49.44321" lon="5.79043">
        <ele>299.60000610352</ele>
        <time>2023-06-18T09:12:47Z</time>
      </trkpt>
      <trkpt lat="49.44316" lon="5.79042">
        <ele>299.60000610352</ele>
        <time>2023-06-18T09:12:49Z</time>
      </trkpt>
      <trkpt lat="49.44311" lon="5.79043">
        <ele>299.39999389648</ele>
        <time>2023-06-18T09:12:51Z</time>
      </trkpt>
      <trkpt lat="49.44305" lon="5.79042">
        <ele>299.39999389648</ele>
        <time>2023-06-18T09:12:53Z</time>
      </trkpt>
      <trkpt lat="49.44299" lon="5.79042">
        <ele>299.20001220703</ele>
        <time>2023-06-18T09:12:55Z</time>
      </trkpt>
      <trkpt lat="49.44293" lon="5.79043">
        <ele>299.20001220703</ele>
        <time>2023-06-18T09:12:57Z</time>
      </trkpt>
      <trkpt lat="49.44287" lon="5.79044">
        <ele>299.20001220703</ele>
        <time>2023-06-18T09:12:59Z</time>
      </trkpt>
      <trkpt lat="49.44284" lon="5.79045">
        <ele>299.20001220703</ele>
        <time>2023-06-18T09:13:00Z</time>
      </trkpt>
      <trkpt lat="49.44281" lon="5.79047">
        <ele>299.20001220703</ele>
        <time>2023-06-18T09:13:01Z</time>
      </trkpt>
      <trkpt lat="49.44277" lon="5.79052">
        <ele>299</ele>
        <time>2023-06-18T09:13:03Z</time>
      </trkpt>
      <trkpt lat="49.4427" lon="5.79055">
        <ele>298.79998779297</ele>
        <time>2023-06-18T09:13:05Z</time>
      </trkpt>
      <trkpt lat="49.44266" lon="5.79055">
        <ele>298.79998779297</ele>
        <time>2023-06-18T09:13:06Z</time>
      </trkpt>
      <trkpt lat="49.44262" lon="5.79054">
        <ele>298.79998779297</ele>
        <time>2023-06-18T09:13:07Z</time>
      </trkpt>
      <trkpt lat="49.44255" lon="5.79055">
        <ele>298.79998779297</ele>
        <time>2023-06-18T09:13:09Z</time>
      </trkpt>
      <trkpt lat="49.44251" lon="5.79054">
        <ele>298.79998779297</ele>
        <time>2023-06-18T09:13:10Z</time>
      </trkpt>
      <trkpt lat="49.44248" lon="5.79053">
        <ele>298.79998779297</ele>
        <time>2023-06-18T09:13:11Z</time>
      </trkpt>
      <trkpt lat="49.44243" lon="5.79053">
        <ele>298.79998779297</ele>
        <time>2023-06-18T09:13:13Z</time>
      </trkpt>
      <trkpt lat="49.44238" lon="5.79055">
        <ele>298.79998779297</ele>
        <time>2023-06-18T09:13:15Z</time>
      </trkpt>
      <trkpt lat="49.44232" lon="5.79057">
        <ele>298.79998779297</ele>
        <time>2023-06-18T09:13:17Z</time>
      </trkpt>
      <trkpt lat="49.44229" lon="5.79057">
        <ele>298.79998779297</ele>
        <time>2023-06-18T09:13:18Z</time>
      </trkpt>
      <trkpt lat="49.44226" lon="5.79058">
        <ele>298.60000610352</ele>
        <time>2023-06-18T09:13:19Z</time>
      </trkpt>
      <trkpt lat="49.4422" lon="5.79059">
        <ele>298.60000610352</ele>
        <time>2023-06-18T09:13:21Z</time>
      </trkpt>
      <trkpt lat="49.44214" lon="5.79058">
        <ele>298.60000610352</ele>
        <time>2023-06-18T09:13:23Z</time>
      </trkpt>
      <trkpt lat="49.44211" lon="5.79056">
        <ele>298.60000610352</ele>
        <time>2023-06-18T09:13:25Z</time>
      </trkpt>
      <trkpt lat="49.44209" lon="5.79055">
        <ele>298.39999389648</ele>
        <time>2023-06-18T09:13:26Z</time>
      </trkpt>
      <trkpt lat="49.44206" lon="5.79055">
        <ele>298.39999389648</ele>
        <time>2023-06-18T09:13:27Z</time>
      </trkpt>
      <trkpt lat="49.44201" lon="5.79055">
        <ele>298.39999389648</ele>
        <time>2023-06-18T09:13:29Z</time>
      </trkpt>
      <trkpt lat="49.44196" lon="5.79055">
        <ele>298.39999389648</ele>
        <time>2023-06-18T09:13:31Z</time>
      </trkpt>
      <trkpt lat="49.44192" lon="5.79053">
        <ele>298.39999389648</ele>
        <time>2023-06-18T09:13:33Z</time>
      </trkpt>
      <trkpt lat="49.4419" lon="5.79052">
        <ele>298.39999389648</ele>
        <time>2023-06-18T09:13:34Z</time>
      </trkpt>
      <trkpt lat="49.44189" lon="5.79053">
        <ele>298.39999389648</ele>
        <time>2023-06-18T09:13:35Z</time>
      </trkpt>
      <trkpt lat="49.44185" lon="5.7905">
        <ele>298.39999389648</ele>
        <time>2023-06-18T09:13:37Z</time>
      </trkpt>
      <trkpt lat="49.44179" lon="5.79049">
        <ele>298.39999389648</ele>
        <time>2023-06-18T09:13:39Z</time>
      </trkpt>
      <trkpt lat="49.44177" lon="5.7905">
        <ele>298.39999389648</ele>
        <time>2023-06-18T09:13:40Z</time>
      </trkpt>
      <trkpt lat="49.44175" lon="5.7905">
        <ele>298.39999389648</ele>
        <time>2023-06-18T09:13:41Z</time>
      </trkpt>
      <trkpt lat="49.44172" lon="5.7905">
        <ele>298.39999389648</ele>
        <time>2023-06-18T09:13:43Z</time>
      </trkpt>
      <trkpt lat="49.44172" lon="5.7905">
        <ele>298.39999389648</ele>
        <time>2023-06-18T09:13:45Z</time>
      </trkpt>
      <trkpt lat="49.44172" lon="5.7905">
        <ele>298.20001220703</ele>
        <time>2023-06-18T09:13:47Z</time>
      </trkpt>
      <trkpt lat="49.44172" lon="5.7905">
        <ele>298.20001220703</ele>
        <time>2023-06-18T09:13:49Z</time>
      </trkpt>
      <trkpt lat="49.44172" lon="5.7905">
        <ele>298.20001220703</ele>
        <time>2023-06-18T09:13:50Z</time>
      </trkpt>
      <trkpt lat="49.44172" lon="5.79051">
        <ele>298.20001220703</ele>
        <time>2023-06-18T09:13:51Z</time>
      </trkpt>
      <trkpt lat="49.44171" lon="5.79054">
        <ele>298.20001220703</ele>
        <time>2023-06-18T09:13:53Z</time>
      </trkpt>
      <trkpt lat="49.44167" lon="5.79054">
        <ele>298</ele>
        <time>2023-06-18T09:13:55Z</time>
      </trkpt>
      <trkpt lat="49.44166" lon="5.79054">
        <ele>298</ele>
        <time>2023-06-18T09:13:56Z</time>
      </trkpt>
      <trkpt lat="49.44165" lon="5.79053">
        <ele>298</ele>
        <time>2023-06-18T09:13:57Z</time>
      </trkpt>
      <trkpt lat="49.44163" lon="5.79052">
        <ele>298</ele>
        <time>2023-06-18T09:13:59Z</time>
      </trkpt>
      <trkpt lat="49.4416" lon="5.79051">
        <ele>297.60000610352</ele>
        <time>2023-06-18T09:14:01Z</time>
      </trkpt>
      <trkpt lat="49.44158" lon="5.7905">
        <ele>297.60000610352</ele>
        <time>2023-06-18T09:14:03Z</time>
      </trkpt>
      <trkpt lat="49.44155" lon="5.79053">
        <ele>297.39999389648</ele>
        <time>2023-06-18T09:14:05Z</time>
      </trkpt>
      <trkpt lat="49.44151" lon="5.79057">
        <ele>297.39999389648</ele>
        <time>2023-06-18T09:14:07Z</time>
      </trkpt>
      <trkpt lat="49.44147" lon="5.79061">
        <ele>297.20001220703</ele>
        <time>2023-06-18T09:14:09Z</time>
      </trkpt>
      <trkpt lat="49.44143" lon="5.79065">
        <ele>297</ele>
        <time>2023-06-18T09:14:11Z</time>
      </trkpt>
      <trkpt lat="49.44141" lon="5.79069">
        <ele>297</ele>
        <time>2023-06-18T09:14:12Z</time>
      </trkpt>
      <trkpt lat="49.4414" lon="5.79072">
        <ele>297</ele>
        <time>2023-06-18T09:14:13Z</time>
      </trkpt>
      <trkpt lat="49.44138" lon="5.79077">
        <ele>297</ele>
        <time>2023-06-18T09:14:15Z</time>
      </trkpt>
      <trkpt lat="49.44136" lon="5.79081">
        <ele>297</ele>
        <time>2023-06-18T09:14:16Z</time>
      </trkpt>
      <trkpt lat="49.44134" lon="5.79085">
        <ele>297</ele>
        <time>2023-06-18T09:14:17Z</time>
      </trkpt>
      <trkpt lat="49.44129" lon="5.7909">
        <ele>297</ele>
        <time>2023-06-18T09:14:19Z</time>
      </trkpt>
      <trkpt lat="49.44124" lon="5.79093">
        <ele>297</ele>
        <time>2023-06-18T09:14:21Z</time>
      </trkpt>
      <trkpt lat="49.44119" lon="5.79098">
        <ele>297</ele>
        <time>2023-06-18T09:14:23Z</time>
      </trkpt>
      <trkpt lat="49.44114" lon="5.79102">
        <ele>297</ele>
        <time>2023-06-18T09:14:25Z</time>
      </trkpt>
      <trkpt lat="49.44112" lon="5.79104">
        <ele>297</ele>
        <time>2023-06-18T09:14:26Z</time>
      </trkpt>
      <trkpt lat="49.4411" lon="5.79107">
        <ele>297</ele>
        <time>2023-06-18T09:14:27Z</time>
      </trkpt>
      <trkpt lat="49.44106" lon="5.79115">
        <ele>297</ele>
        <time>2023-06-18T09:14:29Z</time>
      </trkpt>
      <trkpt lat="49.44103" lon="5.7912">
        <ele>297</ele>
        <time>2023-06-18T09:14:30Z</time>
      </trkpt>
      <trkpt lat="49.44099" lon="5.79124">
        <ele>297</ele>
        <time>2023-06-18T09:14:31Z</time>
      </trkpt>
      <trkpt lat="49.44091" lon="5.79133">
        <ele>296.79998779297</ele>
        <time>2023-06-18T09:14:33Z</time>
      </trkpt>
      <trkpt lat="49.44083" lon="5.79141">
        <ele>296.79998779297</ele>
        <time>2023-06-18T09:14:35Z</time>
      </trkpt>
      <trkpt lat="49.44079" lon="5.79144">
        <ele>296.60000610352</ele>
        <time>2023-06-18T09:14:36Z</time>
      </trkpt>
      <trkpt lat="49.44076" lon="5.79145">
        <ele>296.60000610352</ele>
        <time>2023-06-18T09:14:37Z</time>
      </trkpt>
      <trkpt lat="49.44069" lon="5.79148">
        <ele>296.60000610352</ele>
        <time>2023-06-18T09:14:39Z</time>
      </trkpt>
      <trkpt lat="49.44063" lon="5.79149">
        <ele>296.60000610352</ele>
        <time>2023-06-18T09:14:41Z</time>
      </trkpt>
      <trkpt lat="49.44059" lon="5.79149">
        <ele>296.60000610352</ele>
        <time>2023-06-18T09:14:42Z</time>
      </trkpt>
      <trkpt lat="49.44056" lon="5.79149">
        <ele>296.60000610352</ele>
        <time>2023-06-18T09:14:43Z</time>
      </trkpt>
      <trkpt lat="49.44049" lon="5.79149">
        <ele>296.60000610352</ele>
        <time>2023-06-18T09:14:45Z</time>
      </trkpt>
      <trkpt lat="49.44043" lon="5.79148">
        <ele>296.79998779297</ele>
        <time>2023-06-18T09:14:47Z</time>
      </trkpt>
      <trkpt lat="49.44037" lon="5.79146">
        <ele>297</ele>
        <time>2023-06-18T09:14:49Z</time>
      </trkpt>
      <trkpt lat="49.44031" lon="5.79143">
        <ele>297.20001220703</ele>
        <time>2023-06-18T09:14:51Z</time>
      </trkpt>
      <trkpt lat="49.44026" lon="5.79139">
        <ele>297.60000610352</ele>
        <time>2023-06-18T09:14:53Z</time>
      </trkpt>
      <trkpt lat="49.44024" lon="5.79136">
        <ele>297.60000610352</ele>
        <time>2023-06-18T09:14:54Z</time>
      </trkpt>
      <trkpt lat="49.44021" lon="5.79133">
        <ele>297.79998779297</ele>
        <time>2023-06-18T09:14:55Z</time>
      </trkpt>
      <trkpt lat="49.44019" lon="5.79131">
        <ele>298</ele>
        <time>2023-06-18T09:14:56Z</time>
      </trkpt>
      <trkpt lat="49.44017" lon="5.79129">
        <ele>298</ele>
        <time>2023-06-18T09:14:57Z</time>
      </trkpt>
      <trkpt lat="49.44014" lon="5.79123">
        <ele>298.20001220703</ele>
        <time>2023-06-18T09:14:59Z</time>
      </trkpt>
      <trkpt lat="49.4401" lon="5.79118">
        <ele>298.39999389648</ele>
        <time>2023-06-18T09:15:01Z</time>
      </trkpt>
      <trkpt lat="49.44007" lon="5.79113">
        <ele>299</ele>
        <time>2023-06-18T09:15:03Z</time>
      </trkpt>
      <trkpt lat="49.44004" lon="5.79108">
        <ele>299.20001220703</ele>
        <time>2023-06-18T09:15:05Z</time>
      </trkpt>
      <trkpt lat="49.44" lon="5.79101">
        <ele>299.20001220703</ele>
        <time>2023-06-18T09:15:07Z</time>
      </trkpt>
      <trkpt lat="49.43995" lon="5.79094">
        <ele>299.20001220703</ele>
        <time>2023-06-18T09:15:09Z</time>
      </trkpt>
      <trkpt lat="49.4399" lon="5.79085">
        <ele>299.20001220703</ele>
        <time>2023-06-18T09:15:11Z</time>
      </trkpt>
      <trkpt lat="49.43984" lon="5.79076">
        <ele>299.20001220703</ele>
        <time>2023-06-18T09:15:13Z</time>
      </trkpt>
      <trkpt lat="49.43977" lon="5.79068">
        <ele>299.20001220703</ele>
        <time>2023-06-18T09:15:15Z</time>
      </trkpt>
      <trkpt lat="49.4397" lon="5.79057">
        <ele>298.79998779297</ele>
        <time>2023-06-18T09:15:17Z</time>
      </trkpt>
      <trkpt lat="49.43963" lon="5.79045">
        <ele>298.39999389648</ele>
        <time>2023-06-18T09:15:19Z</time>
      </trkpt>
      <trkpt lat="49.4396" lon="5.79039">
        <ele>298.20001220703</ele>
        <time>2023-06-18T09:15:20Z</time>
      </trkpt>
      <trkpt lat="49.43957" lon="5.79033">
        <ele>297.79998779297</ele>
        <time>2023-06-18T09:15:21Z</time>
      </trkpt>
      <trkpt lat="49.43952" lon="5.79023">
        <ele>296.79998779297</ele>
        <time>2023-06-18T09:15:23Z</time>
      </trkpt>
      <trkpt lat="49.43948" lon="5.79014">
        <ele>296.39999389648</ele>
        <time>2023-06-18T09:15:25Z</time>
      </trkpt>
      <trkpt lat="49.43947" lon="5.7901">
        <ele>295.79998779297</ele>
        <time>2023-06-18T09:15:26Z</time>
      </trkpt>
      <trkpt lat="49.43946" lon="5.79007">
        <ele>295.39999389648</ele>
        <time>2023-06-18T09:15:27Z</time>
      </trkpt>
      <trkpt lat="49.43944" lon="5.79002">
        <ele>295</ele>
        <time>2023-06-18T09:15:29Z</time>
      </trkpt>
      <trkpt lat="49.43943" lon="5.78998">
        <ele>294.79998779297</ele>
        <time>2023-06-18T09:15:31Z</time>
      </trkpt>
      <trkpt lat="49.43943" lon="5.78995">
        <ele>294.79998779297</ele>
        <time>2023-06-18T09:15:33Z</time>
      </trkpt>
      <trkpt lat="49.43942" lon="5.78992">
        <ele>294.79998779297</ele>
        <time>2023-06-18T09:15:34Z</time>
      </trkpt>
      <trkpt lat="49.43942" lon="5.78991">
        <ele>294.79998779297</ele>
        <time>2023-06-18T09:15:35Z</time>
      </trkpt>
      <trkpt lat="49.43941" lon="5.78986">
        <ele>295</ele>
        <time>2023-06-18T09:15:37Z</time>
      </trkpt>
      <trkpt lat="49.43941" lon="5.78982">
        <ele>295.20001220703</ele>
        <time>2023-06-18T09:15:39Z</time>
      </trkpt>
      <trkpt lat="49.4394" lon="5.7898">
        <ele>295.39999389648</ele>
        <time>2023-06-18T09:15:40Z</time>
      </trkpt>
      <trkpt lat="49.4394" lon="5.78978">
        <ele>295.79998779297</ele>
        <time>2023-06-18T09:15:41Z</time>
      </trkpt>
      <trkpt lat="49.43939" lon="5.78974">
        <ele>296.60000610352</ele>
        <time>2023-06-18T09:15:43Z</time>
      </trkpt>
      <trkpt lat="49.43939" lon="5.78972">
        <ele>297</ele>
        <time>2023-06-18T09:15:44Z</time>
      </trkpt>
      <trkpt lat="49.43939" lon="5.78971">
        <ele>297.20001220703</ele>
        <time>2023-06-18T09:15:45Z</time>
      </trkpt>
      <trkpt lat="49.43938" lon="5.78969">
        <ele>297.60000610352</ele>
        <time>2023-06-18T09:15:46Z</time>
      </trkpt>
      <trkpt lat="49.43938" lon="5.78968">
        <ele>298</ele>
        <time>2023-06-18T09:15:47Z</time>
      </trkpt>
      <trkpt lat="49.43938" lon="5.78966">
        <ele>298.20001220703</ele>
        <time>2023-06-18T09:15:48Z</time>
      </trkpt>
      <trkpt lat="49.43939" lon="5.78965">
        <ele>298.60000610352</ele>
        <time>2023-06-18T09:15:49Z</time>
      </trkpt>
      <trkpt lat="49.43939" lon="5.78963">
        <ele>299.20001220703</ele>
        <time>2023-06-18T09:15:51Z</time>
      </trkpt>
      <trkpt lat="49.43939" lon="5.78962">
        <ele>299.20001220703</ele>
        <time>2023-06-18T09:15:52Z</time>
      </trkpt>
      <trkpt lat="49.43938" lon="5.78961">
        <ele>299.39999389648</ele>
        <time>2023-06-18T09:15:53Z</time>
      </trkpt>
      <trkpt lat="49.43938" lon="5.7896">
        <ele>300.39999389648</ele>
        <time>2023-06-18T09:15:55Z</time>
      </trkpt>
      <trkpt lat="49.43938" lon="5.78959">
        <ele>301.39999389648</ele>
        <time>2023-06-18T09:15:57Z</time>
      </trkpt>
      <trkpt lat="49.43938" lon="5.78959">
        <ele>301.39999389648</ele>
        <time>2023-06-18T09:15:58Z</time>
      </trkpt>
      <trkpt lat="49.43938" lon="5.78959">
        <ele>301.60000610352</ele>
        <time>2023-06-18T09:15:59Z</time>
      </trkpt>
      <trkpt lat="49.43938" lon="5.78958">
        <ele>301.79998779297</ele>
        <time>2023-06-18T09:16:01Z</time>
      </trkpt>
      <trkpt lat="49.43938" lon="5.78958">
        <ele>301.79998779297</ele>
        <time>2023-06-18T09:16:03Z</time>
      </trkpt>
      <trkpt lat="49.43938" lon="5.78958">
        <ele>301.79998779297</ele>
        <time>2023-06-18T09:16:04Z</time>
      </trkpt>
      <trkpt lat="49.43938" lon="5.78959">
        <ele>301.79998779297</ele>
        <time>2023-06-18T09:16:05Z</time>
      </trkpt>
      <trkpt lat="49.43938" lon="5.78959">
        <ele>301.79998779297</ele>
        <time>2023-06-18T09:16:07Z</time>
      </trkpt>
      <trkpt lat="49.43938" lon="5.78959">
        <ele>301.79998779297</ele>
        <time>2023-06-18T09:16:09Z</time>
      </trkpt>
      <trkpt lat="49.43938" lon="5.78958">
        <ele>301.79998779297</ele>
        <time>2023-06-18T09:16:11Z</time>
      </trkpt>
      <trkpt lat="49.43937" lon="5.78958">
        <ele>301.79998779297</ele>
        <time>2023-06-18T09:16:13Z</time>
      </trkpt>
      <trkpt lat="49.43936" lon="5.78958">
        <ele>301.79998779297</ele>
        <time>2023-06-18T09:16:15Z</time>
      </trkpt>
      <trkpt lat="49.43936" lon="5.78958">
        <ele>301.79998779297</ele>
        <time>2023-06-18T09:16:17Z</time>
      </trkpt>
      <trkpt lat="49.43936" lon="5.78958">
        <ele>301.60000610352</ele>
        <time>2023-06-18T09:16:19Z</time>
      </trkpt>
      <trkpt lat="49.43936" lon="5.78958">
        <ele>301.60000610352</ele>
        <time>2023-06-18T09:16:21Z</time>
      </trkpt>
      <trkpt lat="49.43936" lon="5.78958">
        <ele>301.60000610352</ele>
        <time>2023-06-18T09:16:23Z</time>
      </trkpt>
      <trkpt lat="49.43936" lon="5.78958">
        <ele>301.60000610352</ele>
        <time>2023-06-18T09:16:25Z</time>
      </trkpt>
      <trkpt lat="49.43936" lon="5.78958">
        <ele>301.39999389648</ele>
        <time>2023-06-18T09:16:27Z</time>
      </trkpt>
      <trkpt lat="49.43935" lon="5.78958">
        <ele>301.39999389648</ele>
        <time>2023-06-18T09:16:29Z</time>
      </trkpt>
      <trkpt lat="49.43935" lon="5.78958">
        <ele>301.39999389648</ele>
        <time>2023-06-18T09:16:31Z</time>
      </trkpt>
      <trkpt lat="49.43935" lon="5.78958">
        <ele>301.39999389648</ele>
        <time>2023-06-18T09:16:33Z</time>
      </trkpt>
      <trkpt lat="49.43935" lon="5.78958">
        <ele>301.39999389648</ele>
        <time>2023-06-18T09:16:35Z</time>
      </trkpt>
      <trkpt lat="49.43935" lon="5.78958">
        <ele>301.39999389648</ele>
        <time>2023-06-18T09:16:37Z</time>
      </trkpt>
      <trkpt lat="49.43935" lon="5.78958">
        <ele>301.39999389648</ele>
        <time>2023-06-18T09:16:39Z</time>
      </trkpt>
      <trkpt lat="49.43935" lon="5.78958">
        <ele>301.39999389648</ele>
        <time>2023-06-18T09:16:41Z</time>
      </trkpt>
      <trkpt lat="49.43935" lon="5.78958">
        <ele>301.39999389648</ele>
        <time>2023-06-18T09:16:43Z</time>
      </trkpt>
      <trkpt lat="49.43935" lon="5.78958">
        <ele>301.39999389648</ele>
        <time>2023-06-18T09:16:45Z</time>
      </trkpt>
      <trkpt lat="49.43935" lon="5.78958">
        <ele>301.39999389648</ele>
        <time>2023-06-18T09:16:47Z</time>
      </trkpt>
      <trkpt lat="49.43935" lon="5.78958">
        <ele>301.39999389648</ele>
        <time>2023-06-18T09:16:49Z</time>
      </trkpt>
      <trkpt lat="49.43935" lon="5.78958">
        <ele>301.39999389648</ele>
        <time>2023-06-18T09:16:50Z</time>
      </trkpt>
      <trkpt lat="49.43934" lon="5.78958">
        <ele>301.39999389648</ele>
        <time>2023-06-18T09:16:51Z</time>
      </trkpt>
      <trkpt lat="49.43933" lon="5.78958">
        <ele>301.39999389648</ele>
        <time>2023-06-18T09:16:53Z</time>
      </trkpt>
      <trkpt lat="49.43932" lon="5.78958">
        <ele>301.39999389648</ele>
        <time>2023-06-18T09:16:54Z</time>
      </trkpt>
      <trkpt lat="49.4393" lon="5.78958">
        <ele>301.39999389648</ele>
        <time>2023-06-18T09:16:55Z</time>
      </trkpt>
      <trkpt lat="49.43926" lon="5.78958">
        <ele>301.39999389648</ele>
        <time>2023-06-18T09:16:57Z</time>
      </trkpt>
      <trkpt lat="49.43921" lon="5.78958">
        <ele>301.39999389648</ele>
        <time>2023-06-18T09:16:59Z</time>
      </trkpt>
      <trkpt lat="49.43918" lon="5.78958">
        <ele>301.20001220703</ele>
        <time>2023-06-18T09:17:01Z</time>
      </trkpt>
      <trkpt lat="49.43916" lon="5.78958">
        <ele>301.20001220703</ele>
        <time>2023-06-18T09:17:02Z</time>
      </trkpt>
      <trkpt lat="49.43915" lon="5.78958">
        <ele>300.79998779297</ele>
        <time>2023-06-18T09:17:03Z</time>
      </trkpt>
      <trkpt lat="49.43911" lon="5.78958">
        <ele>300.60000610352</ele>
        <time>2023-06-18T09:17:05Z</time>
      </trkpt>
      <trkpt lat="49.43907" lon="5.78957">
        <ele>300.39999389648</ele>
        <time>2023-06-18T09:17:07Z</time>
      </trkpt>
      <trkpt lat="49.43905" lon="5.78957">
        <ele>300.39999389648</ele>
        <time>2023-06-18T09:17:08Z</time>
      </trkpt>
      <trkpt lat="49.43902" lon="5.78957">
        <ele>300.39999389648</ele>
        <time>2023-06-18T09:17:09Z</time>
      </trkpt>
      <trkpt lat="49.43895" lon="5.78955">
        <ele>300.39999389648</ele>
        <time>2023-06-18T09:17:11Z</time>
      </trkpt>
      <trkpt lat="49.43888" lon="5.78953">
        <ele>300.20001220703</ele>
        <time>2023-06-18T09:17:13Z</time>
      </trkpt>
      <trkpt lat="49.43882" lon="5.78949">
        <ele>300.20001220703</ele>
        <time>2023-06-18T09:17:15Z</time>
      </trkpt>
      <trkpt lat="49.43875" lon="5.78946">
        <ele>300</ele>
        <time>2023-06-18T09:17:17Z</time>
      </trkpt>
      <trkpt lat="49.43872" lon="5.78944">
        <ele>300</ele>
        <time>2023-06-18T09:17:18Z</time>
      </trkpt>
      <trkpt lat="49.43869" lon="5.78941">
        <ele>299.79998779297</ele>
        <time>2023-06-18T09:17:19Z</time>
      </trkpt>
      <trkpt lat="49.43862" lon="5.78935">
        <ele>299.60000610352</ele>
        <time>2023-06-18T09:17:21Z</time>
      </trkpt>
      <trkpt lat="49.43855" lon="5.78928">
        <ele>299.39999389648</ele>
        <time>2023-06-18T09:17:23Z</time>
      </trkpt>
      <trkpt lat="49.43851" lon="5.78924">
        <ele>299.39999389648</ele>
        <time>2023-06-18T09:17:24Z</time>
      </trkpt>
      <trkpt lat="49.43847" lon="5.7892">
        <ele>299.20001220703</ele>
        <time>2023-06-18T09:17:25Z</time>
      </trkpt>
      <trkpt lat="49.4384" lon="5.78912">
        <ele>299.20001220703</ele>
        <time>2023-06-18T09:17:27Z</time>
      </trkpt>
      <trkpt lat="49.43833" lon="5.78905">
        <ele>299.20001220703</ele>
        <time>2023-06-18T09:17:29Z</time>
      </trkpt>
      <trkpt lat="49.43825" lon="5.78896">
        <ele>299</ele>
        <time>2023-06-18T09:17:31Z</time>
      </trkpt>
      <trkpt lat="49.43818" lon="5.78888">
        <ele>299</ele>
        <time>2023-06-18T09:17:33Z</time>
      </trkpt>
      <trkpt lat="49.4381" lon="5.78881">
        <ele>298.60000610352</ele>
        <time>2023-06-18T09:17:35Z</time>
      </trkpt>
      <trkpt lat="49.43803" lon="5.78873">
        <ele>298.20001220703</ele>
        <time>2023-06-18T09:17:37Z</time>
      </trkpt>
      <trkpt lat="49.43795" lon="5.78865">
        <ele>297.79998779297</ele>
        <time>2023-06-18T09:17:39Z</time>
      </trkpt>
      <trkpt lat="49.43788" lon="5.78858">
        <ele>297.79998779297</ele>
        <time>2023-06-18T09:17:41Z</time>
      </trkpt>
      <trkpt lat="49.43781" lon="5.78851">
        <ele>297.79998779297</ele>
        <time>2023-06-18T09:17:43Z</time>
      </trkpt>
      <trkpt lat="49.43774" lon="5.78845">
        <ele>297.60000610352</ele>
        <time>2023-06-18T09:17:45Z</time>
      </trkpt>
      <trkpt lat="49.43766" lon="5.78839">
        <ele>297.39999389648</ele>
        <time>2023-06-18T09:17:47Z</time>
      </trkpt>
      <trkpt lat="49.43761" lon="5.78836">
        <ele>297.39999389648</ele>
        <time>2023-06-18T09:17:48Z</time>
      </trkpt>
      <trkpt lat="49.43757" lon="5.78834">
        <ele>297.39999389648</ele>
        <time>2023-06-18T09:17:49Z</time>
      </trkpt>
      <trkpt lat="49.43748" lon="5.7883">
        <ele>297.39999389648</ele>
        <time>2023-06-18T09:17:51Z</time>
      </trkpt>
      <trkpt lat="49.43743" lon="5.78828">
        <ele>297.20001220703</ele>
        <time>2023-06-18T09:17:52Z</time>
      </trkpt>
      <trkpt lat="49.43739" lon="5.78827">
        <ele>297</ele>
        <time>2023-06-18T09:17:53Z</time>
      </trkpt>
      <trkpt lat="49.43731" lon="5.78825">
        <ele>297</ele>
        <time>2023-06-18T09:17:55Z</time>
      </trkpt>
      <trkpt lat="49.43728" lon="5.78824">
        <ele>297</ele>
        <time>2023-06-18T09:17:56Z</time>
      </trkpt>
      <trkpt lat="49.43725" lon="5.78824">
        <ele>296.79998779297</ele>
        <time>2023-06-18T09:17:57Z</time>
      </trkpt>
      <trkpt lat="49.43719" lon="5.78823">
        <ele>296.79998779297</ele>
        <time>2023-06-18T09:17:59Z</time>
      </trkpt>
      <trkpt lat="49.43714" lon="5.78822">
        <ele>296.79998779297</ele>
        <time>2023-06-18T09:18:01Z</time>
      </trkpt>
      <trkpt lat="49.43707" lon="5.78822">
        <ele>296.79998779297</ele>
        <time>2023-06-18T09:18:03Z</time>
      </trkpt>
      <trkpt lat="49.43701" lon="5.78822">
        <ele>296.79998779297</ele>
        <time>2023-06-18T09:18:05Z</time>
      </trkpt>
      <trkpt lat="49.43694" lon="5.78822">
        <ele>296.79998779297</ele>
        <time>2023-06-18T09:18:07Z</time>
      </trkpt>
      <trkpt lat="49.43687" lon="5.7882">
        <ele>296.79998779297</ele>
        <time>2023-06-18T09:18:09Z</time>
      </trkpt>
      <trkpt lat="49.43681" lon="5.78815">
        <ele>296.60000610352</ele>
        <time>2023-06-18T09:18:11Z</time>
      </trkpt>
      <trkpt lat="49.43679" lon="5.78812">
        <ele>296.60000610352</ele>
        <time>2023-06-18T09:18:12Z</time>
      </trkpt>
      <trkpt lat="49.43676" lon="5.78809">
        <ele>296.60000610352</ele>
        <time>2023-06-18T09:18:13Z</time>
      </trkpt>
      <trkpt lat="49.43671" lon="5.78801">
        <ele>296.20001220703</ele>
        <time>2023-06-18T09:18:15Z</time>
      </trkpt>
      <trkpt lat="49.43669" lon="5.78798">
        <ele>296.20001220703</ele>
        <time>2023-06-18T09:18:16Z</time>
      </trkpt>
      <trkpt lat="49.43668" lon="5.78795">
        <ele>296</ele>
        <time>2023-06-18T09:18:17Z</time>
      </trkpt>
      <trkpt lat="49.43666" lon="5.78793">
        <ele>296</ele>
        <time>2023-06-18T09:18:18Z</time>
      </trkpt>
      <trkpt lat="49.43665" lon="5.7879">
        <ele>296</ele>
        <time>2023-06-18T09:18:19Z</time>
      </trkpt>
      <trkpt lat="49.43662" lon="5.78784">
        <ele>296</ele>
        <time>2023-06-18T09:18:21Z</time>
      </trkpt>
      <trkpt lat="49.43659" lon="5.78777">
        <ele>295.79998779297</ele>
        <time>2023-06-18T09:18:23Z</time>
      </trkpt>
      <trkpt lat="49.43655" lon="5.78769">
        <ele>295.79998779297</ele>
        <time>2023-06-18T09:18:25Z</time>
      </trkpt>
      <trkpt lat="49.43653" lon="5.78763">
        <ele>295.79998779297</ele>
        <time>2023-06-18T09:18:27Z</time>
      </trkpt>
      <trkpt lat="49.4365" lon="5.78754">
        <ele>295.79998779297</ele>
        <time>2023-06-18T09:18:29Z</time>
      </trkpt>
      <trkpt lat="49.43647" lon="5.78744">
        <ele>295.79998779297</ele>
        <time>2023-06-18T09:18:31Z</time>
      </trkpt>
      <trkpt lat="49.43644" lon="5.78734">
        <ele>295.79998779297</ele>
        <time>2023-06-18T09:18:33Z</time>
      </trkpt>
      <trkpt lat="49.4364" lon="5.78724">
        <ele>295.60000610352</ele>
        <time>2023-06-18T09:18:35Z</time>
      </trkpt>
      <trkpt lat="49.43639" lon="5.78715">
        <ele>295.20001220703</ele>
        <time>2023-06-18T09:18:37Z</time>
      </trkpt>
      <trkpt lat="49.43636" lon="5.78705">
        <ele>295.20001220703</ele>
        <time>2023-06-18T09:18:39Z</time>
      </trkpt>
      <trkpt lat="49.43635" lon="5.787">
        <ele>295</ele>
        <time>2023-06-18T09:18:40Z</time>
      </trkpt>
      <trkpt lat="49.43633" lon="5.78695">
        <ele>295</ele>
        <time>2023-06-18T09:18:41Z</time>
      </trkpt>
      <trkpt lat="49.4363" lon="5.78687">
        <ele>295</ele>
        <time>2023-06-18T09:18:43Z</time>
      </trkpt>
      <trkpt lat="49.43629" lon="5.78678">
        <ele>295</ele>
        <time>2023-06-18T09:18:45Z</time>
      </trkpt>
      <trkpt lat="49.43628" lon="5.78671">
        <ele>295.60000610352</ele>
        <time>2023-06-18T09:18:47Z</time>
      </trkpt>
      <trkpt lat="49.43628" lon="5.78659">
        <ele>296.20001220703</ele>
        <time>2023-06-18T09:18:49Z</time>
      </trkpt>
      <trkpt lat="49.43629" lon="5.7865">
        <ele>296.39999389648</ele>
        <time>2023-06-18T09:18:51Z</time>
      </trkpt>
      <trkpt lat="49.43628" lon="5.78637">
        <ele>296.60000610352</ele>
        <time>2023-06-18T09:18:53Z</time>
      </trkpt>
      <trkpt lat="49.43625" lon="5.78622">
        <ele>296.60000610352</ele>
        <time>2023-06-18T09:18:55Z</time>
      </trkpt>
      <trkpt lat="49.43621" lon="5.78602">
        <ele>296.60000610352</ele>
        <time>2023-06-18T09:18:57Z</time>
      </trkpt>
      <trkpt lat="49.43614" lon="5.78585">
        <ele>296.60000610352</ele>
        <time>2023-06-18T09:18:59Z</time>
      </trkpt>
      <trkpt lat="49.43606" lon="5.78571">
        <ele>296.60000610352</ele>
        <time>2023-06-18T09:19:01Z</time>
      </trkpt>
      <trkpt lat="49.436" lon="5.78558">
        <ele>296.60000610352</ele>
        <time>2023-06-18T09:19:03Z</time>
      </trkpt>
      <trkpt lat="49.43599" lon="5.78548">
        <ele>296.20001220703</ele>
        <time>2023-06-18T09:19:05Z</time>
      </trkpt>
      <trkpt lat="49.436" lon="5.78542">
        <ele>296</ele>
        <time>2023-06-18T09:19:07Z</time>
      </trkpt>
      <trkpt lat="49.436" lon="5.78535">
        <ele>295.79998779297</ele>
        <time>2023-06-18T09:19:09Z</time>
      </trkpt>
      <trkpt lat="49.436" lon="5.78529">
        <ele>295.79998779297</ele>
        <time>2023-06-18T09:19:11Z</time>
      </trkpt>
      <trkpt lat="49.436" lon="5.78522">
        <ele>295.79998779297</ele>
        <time>2023-06-18T09:19:13Z</time>
      </trkpt>
      <trkpt lat="49.43601" lon="5.78515">
        <ele>296</ele>
        <time>2023-06-18T09:19:15Z</time>
      </trkpt>
      <trkpt lat="49.43603" lon="5.78506">
        <ele>296.20001220703</ele>
        <time>2023-06-18T09:19:17Z</time>
      </trkpt>
      <trkpt lat="49.43604" lon="5.78502">
        <ele>296.39999389648</ele>
        <time>2023-06-18T09:19:18Z</time>
      </trkpt>
      <trkpt lat="49.43605" lon="5.78499">
        <ele>296.60000610352</ele>
        <time>2023-06-18T09:19:19Z</time>
      </trkpt>
      <trkpt lat="49.43607" lon="5.7849">
        <ele>296.79998779297</ele>
        <time>2023-06-18T09:19:21Z</time>
      </trkpt>
      <trkpt lat="49.43609" lon="5.78483">
        <ele>297</ele>
        <time>2023-06-18T09:19:23Z</time>
      </trkpt>
      <trkpt lat="49.43609" lon="5.7848">
        <ele>297</ele>
        <time>2023-06-18T09:19:24Z</time>
      </trkpt>
      <trkpt lat="49.4361" lon="5.78476">
        <ele>297</ele>
        <time>2023-06-18T09:19:25Z</time>
      </trkpt>
      <trkpt lat="49.43611" lon="5.78468">
        <ele>297.20001220703</ele>
        <time>2023-06-18T09:19:27Z</time>
      </trkpt>
      <trkpt lat="49.43613" lon="5.7846">
        <ele>297.39999389648</ele>
        <time>2023-06-18T09:19:29Z</time>
      </trkpt>
      <trkpt lat="49.43614" lon="5.78449">
        <ele>297.79998779297</ele>
        <time>2023-06-18T09:19:31Z</time>
      </trkpt>
      <trkpt lat="49.43614" lon="5.78443">
        <ele>298</ele>
        <time>2023-06-18T09:19:32Z</time>
      </trkpt>
      <trkpt lat="49.43614" lon="5.78439">
        <ele>298.20001220703</ele>
        <time>2023-06-18T09:19:33Z</time>
      </trkpt>
      <trkpt lat="49.43615" lon="5.78436">
        <ele>298.60000610352</ele>
        <time>2023-06-18T09:19:34Z</time>
      </trkpt>
      <trkpt lat="49.43616" lon="5.78432">
        <ele>298.79998779297</ele>
        <time>2023-06-18T09:19:35Z</time>
      </trkpt>
      <trkpt lat="49.43617" lon="5.78425">
        <ele>299.20001220703</ele>
        <time>2023-06-18T09:19:37Z</time>
      </trkpt>
      <trkpt lat="49.43621" lon="5.78417">
        <ele>299.60000610352</ele>
        <time>2023-06-18T09:19:39Z</time>
      </trkpt>
      <trkpt lat="49.4362" lon="5.78413">
        <ele>299.79998779297</ele>
        <time>2023-06-18T09:19:40Z</time>
      </trkpt>
      <trkpt lat="49.43621" lon="5.78409">
        <ele>300</ele>
        <time>2023-06-18T09:19:41Z</time>
      </trkpt>
      <trkpt lat="49.43621" lon="5.78401">
        <ele>300.60000610352</ele>
        <time>2023-06-18T09:19:43Z</time>
      </trkpt>
      <trkpt lat="49.43622" lon="5.78397">
        <ele>300.79998779297</ele>
        <time>2023-06-18T09:19:44Z</time>
      </trkpt>
      <trkpt lat="49.43625" lon="5.78393">
        <ele>301</ele>
        <time>2023-06-18T09:19:45Z</time>
      </trkpt>
      <trkpt lat="49.43627" lon="5.78383">
        <ele>301.39999389648</ele>
        <time>2023-06-18T09:19:47Z</time>
      </trkpt>
      <trkpt lat="49.43628" lon="5.78379">
        <ele>301.60000610352</ele>
        <time>2023-06-18T09:19:48Z</time>
      </trkpt>
      <trkpt lat="49.4363" lon="5.78376">
        <ele>302</ele>
        <time>2023-06-18T09:19:49Z</time>
      </trkpt>
      <trkpt lat="49.4363" lon="5.78368">
        <ele>302.79998779297</ele>
        <time>2023-06-18T09:19:51Z</time>
      </trkpt>
      <trkpt lat="49.43631" lon="5.78365">
        <ele>303.20001220703</ele>
        <time>2023-06-18T09:19:52Z</time>
      </trkpt>
      <trkpt lat="49.43632" lon="5.78362">
        <ele>303.60000610352</ele>
        <time>2023-06-18T09:19:53Z</time>
      </trkpt>
      <trkpt lat="49.43633" lon="5.78353">
        <ele>304.20001220703</ele>
        <time>2023-06-18T09:19:55Z</time>
      </trkpt>
      <trkpt lat="49.43635" lon="5.78347">
        <ele>305</ele>
        <time>2023-06-18T09:19:57Z</time>
      </trkpt>
      <trkpt lat="49.43639" lon="5.78339">
        <ele>305.39999389648</ele>
        <time>2023-06-18T09:19:59Z</time>
      </trkpt>
      <trkpt lat="49.4364" lon="5.78334">
        <ele>305.79998779297</ele>
        <time>2023-06-18T09:20:01Z</time>
      </trkpt>
      <trkpt lat="49.43641" lon="5.78327">
        <ele>306.20001220703</ele>
        <time>2023-06-18T09:20:03Z</time>
      </trkpt>
      <trkpt lat="49.43643" lon="5.78323">
        <ele>306.39999389648</ele>
        <time>2023-06-18T09:20:04Z</time>
      </trkpt>
      <trkpt lat="49.43644" lon="5.7832">
        <ele>306.60000610352</ele>
        <time>2023-06-18T09:20:05Z</time>
      </trkpt>
      <trkpt lat="49.43644" lon="5.78313">
        <ele>307</ele>
        <time>2023-06-18T09:20:07Z</time>
      </trkpt>
      <trkpt lat="49.43644" lon="5.78309">
        <ele>307.20001220703</ele>
        <time>2023-06-18T09:20:08Z</time>
      </trkpt>
      <trkpt lat="49.43646" lon="5.78305">
        <ele>307.39999389648</ele>
        <time>2023-06-18T09:20:09Z</time>
      </trkpt>
      <trkpt lat="49.43649" lon="5.78302">
        <ele>307.60000610352</ele>
        <time>2023-06-18T09:20:10Z</time>
      </trkpt>
      <trkpt lat="49.4365" lon="5.78299">
        <ele>307.79998779297</ele>
        <time>2023-06-18T09:20:11Z</time>
      </trkpt>
      <trkpt lat="49.43653" lon="5.78293">
        <ele>308.20001220703</ele>
        <time>2023-06-18T09:20:13Z</time>
      </trkpt>
      <trkpt lat="49.43655" lon="5.78289">
        <ele>308.39999389648</ele>
        <time>2023-06-18T09:20:15Z</time>
      </trkpt>
      <trkpt lat="49.43656" lon="5.78287">
        <ele>308.60000610352</ele>
        <time>2023-06-18T09:20:16Z</time>
      </trkpt>
      <trkpt lat="49.43658" lon="5.78285">
        <ele>308.60000610352</ele>
        <time>2023-06-18T09:20:17Z</time>
      </trkpt>
      <trkpt lat="49.4366" lon="5.78279">
        <ele>309</ele>
        <time>2023-06-18T09:20:19Z</time>
      </trkpt>
      <trkpt lat="49.43664" lon="5.78274">
        <ele>309.39999389648</ele>
        <time>2023-06-18T09:20:21Z</time>
      </trkpt>
      <trkpt lat="49.43666" lon="5.78271">
        <ele>309.60000610352</ele>
        <time>2023-06-18T09:20:22Z</time>
      </trkpt>
      <trkpt lat="49.43668" lon="5.78269">
        <ele>309.79998779297</ele>
        <time>2023-06-18T09:20:23Z</time>
      </trkpt>
      <trkpt lat="49.4367" lon="5.78263">
        <ele>310.39999389648</ele>
        <time>2023-06-18T09:20:25Z</time>
      </trkpt>
      <trkpt lat="49.43671" lon="5.78256">
        <ele>310.60000610352</ele>
        <time>2023-06-18T09:20:27Z</time>
      </trkpt>
      <trkpt lat="49.43672" lon="5.78252">
        <ele>311.20001220703</ele>
        <time>2023-06-18T09:20:29Z</time>
      </trkpt>
      <trkpt lat="49.43674" lon="5.78247">
        <ele>311.60000610352</ele>
        <time>2023-06-18T09:20:31Z</time>
      </trkpt>
      <trkpt lat="49.43675" lon="5.78245">
        <ele>311.79998779297</ele>
        <time>2023-06-18T09:20:32Z</time>
      </trkpt>
      <trkpt lat="49.43675" lon="5.78243">
        <ele>311.79998779297</ele>
        <time>2023-06-18T09:20:33Z</time>
      </trkpt>
      <trkpt lat="49.43678" lon="5.78239">
        <ele>312</ele>
        <time>2023-06-18T09:20:35Z</time>
      </trkpt>
      <trkpt lat="49.43678" lon="5.78233">
        <ele>312.39999389648</ele>
        <time>2023-06-18T09:20:37Z</time>
      </trkpt>
      <trkpt lat="49.4368" lon="5.78229">
        <ele>312.79998779297</ele>
        <time>2023-06-18T09:20:39Z</time>
      </trkpt>
      <trkpt lat="49.43683" lon="5.78225">
        <ele>313</ele>
        <time>2023-06-18T09:20:41Z</time>
      </trkpt>
      <trkpt lat="49.43688" lon="5.78221">
        <ele>313.20001220703</ele>
        <time>2023-06-18T09:20:43Z</time>
      </trkpt>
      <trkpt lat="49.43692" lon="5.78217">
        <ele>313.39999389648</ele>
        <time>2023-06-18T09:20:45Z</time>
      </trkpt>
      <trkpt lat="49.43695" lon="5.78213">
        <ele>313.79998779297</ele>
        <time>2023-06-18T09:20:47Z</time>
      </trkpt>
      <trkpt lat="49.43696" lon="5.78211">
        <ele>314.20001220703</ele>
        <time>2023-06-18T09:20:48Z</time>
      </trkpt>
      <trkpt lat="49.43696" lon="5.78208">
        <ele>314.60000610352</ele>
        <time>2023-06-18T09:20:49Z</time>
      </trkpt>
      <trkpt lat="49.43698" lon="5.78202">
        <ele>315</ele>
        <time>2023-06-18T09:20:51Z</time>
      </trkpt>
      <trkpt lat="49.437" lon="5.78199">
        <ele>315.20001220703</ele>
        <time>2023-06-18T09:20:53Z</time>
      </trkpt>
      <trkpt lat="49.43703" lon="5.78194">
        <ele>315.20001220703</ele>
        <time>2023-06-18T09:20:55Z</time>
      </trkpt>
      <trkpt lat="49.43705" lon="5.78192">
        <ele>315.39999389648</ele>
        <time>2023-06-18T09:20:56Z</time>
      </trkpt>
      <trkpt lat="49.43707" lon="5.78189">
        <ele>315.79998779297</ele>
        <time>2023-06-18T09:20:57Z</time>
      </trkpt>
      <trkpt lat="49.4371" lon="5.78184">
        <ele>316</ele>
        <time>2023-06-18T09:20:59Z</time>
      </trkpt>
      <trkpt lat="49.43716" lon="5.78178">
        <ele>316.39999389648</ele>
        <time>2023-06-18T09:21:01Z</time>
      </trkpt>
      <trkpt lat="49.43721" lon="5.78172">
        <ele>316.60000610352</ele>
        <time>2023-06-18T09:21:03Z</time>
      </trkpt>
      <trkpt lat="49.43725" lon="5.78166">
        <ele>316.79998779297</ele>
        <time>2023-06-18T09:21:05Z</time>
      </trkpt>
      <trkpt lat="49.43728" lon="5.78161">
        <ele>317</ele>
        <time>2023-06-18T09:21:07Z</time>
      </trkpt>
      <trkpt lat="49.43731" lon="5.78157">
        <ele>317.20001220703</ele>
        <time>2023-06-18T09:21:09Z</time>
      </trkpt>
      <trkpt lat="49.43735" lon="5.78153">
        <ele>317.39999389648</ele>
        <time>2023-06-18T09:21:11Z</time>
      </trkpt>
      <trkpt lat="49.43739" lon="5.78148">
        <ele>317.60000610352</ele>
        <time>2023-06-18T09:21:13Z</time>
      </trkpt>
      <trkpt lat="49.43743" lon="5.78144">
        <ele>317.79998779297</ele>
        <time>2023-06-18T09:21:15Z</time>
      </trkpt>
      <trkpt lat="49.43746" lon="5.7814">
        <ele>318</ele>
        <time>2023-06-18T09:21:17Z</time>
      </trkpt>
      <trkpt lat="49.43751" lon="5.78136">
        <ele>318.20001220703</ele>
        <time>2023-06-18T09:21:19Z</time>
      </trkpt>
      <trkpt lat="49.43754" lon="5.78134">
        <ele>318.20001220703</ele>
        <time>2023-06-18T09:21:20Z</time>
      </trkpt>
      <trkpt lat="49.43756" lon="5.78132">
        <ele>318.39999389648</ele>
        <time>2023-06-18T09:21:21Z</time>
      </trkpt>
      <trkpt lat="49.43759" lon="5.78127">
        <ele>318.60000610352</ele>
        <time>2023-06-18T09:21:23Z</time>
      </trkpt>
      <trkpt lat="49.43763" lon="5.78124">
        <ele>319</ele>
        <time>2023-06-18T09:21:25Z</time>
      </trkpt>
      <trkpt lat="49.43765" lon="5.78122">
        <ele>319.20001220703</ele>
        <time>2023-06-18T09:21:26Z</time>
      </trkpt>
      <trkpt lat="49.43768" lon="5.7812">
        <ele>319.39999389648</ele>
        <time>2023-06-18T09:21:27Z</time>
      </trkpt>
      <trkpt lat="49.4377" lon="5.78118">
        <ele>319.39999389648</ele>
        <time>2023-06-18T09:21:28Z</time>
      </trkpt>
      <trkpt lat="49.43771" lon="5.78116">
        <ele>319.60000610352</ele>
        <time>2023-06-18T09:21:29Z</time>
      </trkpt>
      <trkpt lat="49.43775" lon="5.78114">
        <ele>319.79998779297</ele>
        <time>2023-06-18T09:21:31Z</time>
      </trkpt>
      <trkpt lat="49.43777" lon="5.78112">
        <ele>320</ele>
        <time>2023-06-18T09:21:32Z</time>
      </trkpt>
      <trkpt lat="49.4378" lon="5.78111">
        <ele>320.20001220703</ele>
        <time>2023-06-18T09:21:33Z</time>
      </trkpt>
      <trkpt lat="49.43784" lon="5.78108">
        <ele>320.60000610352</ele>
        <time>2023-06-18T09:21:35Z</time>
      </trkpt>
      <trkpt lat="49.4379" lon="5.78106">
        <ele>321</ele>
        <time>2023-06-18T09:21:37Z</time>
      </trkpt>
      <trkpt lat="49.43792" lon="5.78106">
        <ele>321</ele>
        <time>2023-06-18T09:21:38Z</time>
      </trkpt>
      <trkpt lat="49.43794" lon="5.78105">
        <ele>321</ele>
        <time>2023-06-18T09:21:39Z</time>
      </trkpt>
      <trkpt lat="49.43798" lon="5.78102">
        <ele>321.39999389648</ele>
        <time>2023-06-18T09:21:41Z</time>
      </trkpt>
      <trkpt lat="49.43803" lon="5.78099">
        <ele>321.60000610352</ele>
        <time>2023-06-18T09:21:43Z</time>
      </trkpt>
      <trkpt lat="49.43805" lon="5.78098">
        <ele>321.60000610352</ele>
        <time>2023-06-18T09:21:44Z</time>
      </trkpt>
      <trkpt lat="49.43806" lon="5.78097">
        <ele>321.79998779297</ele>
        <time>2023-06-18T09:21:45Z</time>
      </trkpt>
      <trkpt lat="49.43812" lon="5.78094">
        <ele>322.20001220703</ele>
        <time>2023-06-18T09:21:47Z</time>
      </trkpt>
      <trkpt lat="49.43817" lon="5.78092">
        <ele>322.39999389648</ele>
        <time>2023-06-18T09:21:49Z</time>
      </trkpt>
      <trkpt lat="49.43822" lon="5.78089">
        <ele>322.60000610352</ele>
        <time>2023-06-18T09:21:51Z</time>
      </trkpt>
      <trkpt lat="49.43827" lon="5.78086">
        <ele>323.20001220703</ele>
        <time>2023-06-18T09:21:53Z</time>
      </trkpt>
      <trkpt lat="49.43831" lon="5.78083">
        <ele>323.60000610352</ele>
        <time>2023-06-18T09:21:55Z</time>
      </trkpt>
      <trkpt lat="49.43833" lon="5.78082">
        <ele>323.60000610352</ele>
        <time>2023-06-18T09:21:56Z</time>
      </trkpt>
      <trkpt lat="49.43835" lon="5.78081">
        <ele>323.79998779297</ele>
        <time>2023-06-18T09:21:57Z</time>
      </trkpt>
      <trkpt lat="49.43839" lon="5.78079">
        <ele>324.20001220703</ele>
        <time>2023-06-18T09:21:59Z</time>
      </trkpt>
      <trkpt lat="49.43843" lon="5.78077">
        <ele>324.60000610352</ele>
        <time>2023-06-18T09:22:01Z</time>
      </trkpt>
      <trkpt lat="49.43845" lon="5.78077">
        <ele>324.79998779297</ele>
        <time>2023-06-18T09:22:02Z</time>
      </trkpt>
      <trkpt lat="49.43847" lon="5.78077">
        <ele>325</ele>
        <time>2023-06-18T09:22:03Z</time>
      </trkpt>
      <trkpt lat="49.43852" lon="5.78075">
        <ele>325.20001220703</ele>
        <time>2023-06-18T09:22:05Z</time>
      </trkpt>
      <trkpt lat="49.43856" lon="5.78074">
        <ele>325.60000610352</ele>
        <time>2023-06-18T09:22:07Z</time>
      </trkpt>
      <trkpt lat="49.43862" lon="5.78071">
        <ele>326.20001220703</ele>
        <time>2023-06-18T09:22:09Z</time>
      </trkpt>
      <trkpt lat="49.43867" lon="5.78069">
        <ele>326.60000610352</ele>
        <time>2023-06-18T09:22:11Z</time>
      </trkpt>
      <trkpt lat="49.4387" lon="5.78065">
        <ele>326.79998779297</ele>
        <time>2023-06-18T09:22:13Z</time>
      </trkpt>
      <trkpt lat="49.43872" lon="5.78064">
        <ele>327</ele>
        <time>2023-06-18T09:22:14Z</time>
      </trkpt>
      <trkpt lat="49.43874" lon="5.78062">
        <ele>327.20001220703</ele>
        <time>2023-06-18T09:22:15Z</time>
      </trkpt>
      <trkpt lat="49.43876" lon="5.7806">
        <ele>327.20001220703</ele>
        <time>2023-06-18T09:22:16Z</time>
      </trkpt>
      <trkpt lat="49.43877" lon="5.78058">
        <ele>327.39999389648</ele>
        <time>2023-06-18T09:22:17Z</time>
      </trkpt>
      <trkpt lat="49.43882" lon="5.78054">
        <ele>327.60000610352</ele>
        <time>2023-06-18T09:22:19Z</time>
      </trkpt>
      <trkpt lat="49.43886" lon="5.7805">
        <ele>328</ele>
        <time>2023-06-18T09:22:21Z</time>
      </trkpt>
      <trkpt lat="49.4389" lon="5.78046">
        <ele>328.39999389648</ele>
        <time>2023-06-18T09:22:23Z</time>
      </trkpt>
      <trkpt lat="49.43892" lon="5.78044">
        <ele>328.39999389648</ele>
        <time>2023-06-18T09:22:24Z</time>
      </trkpt>
      <trkpt lat="49.43894" lon="5.78042">
        <ele>328.60000610352</ele>
        <time>2023-06-18T09:22:25Z</time>
      </trkpt>
      <trkpt lat="49.43899" lon="5.78038">
        <ele>328.79998779297</ele>
        <time>2023-06-18T09:22:27Z</time>
      </trkpt>
      <trkpt lat="49.43903" lon="5.78034">
        <ele>329.20001220703</ele>
        <time>2023-06-18T09:22:29Z</time>
      </trkpt>
      <trkpt lat="49.43905" lon="5.78032">
        <ele>329.39999389648</ele>
        <time>2023-06-18T09:22:30Z</time>
      </trkpt>
      <trkpt lat="49.43907" lon="5.78029">
        <ele>329.60000610352</ele>
        <time>2023-06-18T09:22:31Z</time>
      </trkpt>
      <trkpt lat="49.43911" lon="5.78025">
        <ele>330</ele>
        <time>2023-06-18T09:22:33Z</time>
      </trkpt>
      <trkpt lat="49.43915" lon="5.78021">
        <ele>330.39999389648</ele>
        <time>2023-06-18T09:22:35Z</time>
      </trkpt>
      <trkpt lat="49.43917" lon="5.78019">
        <ele>330.60000610352</ele>
        <time>2023-06-18T09:22:36Z</time>
      </trkpt>
      <trkpt lat="49.43919" lon="5.78017">
        <ele>330.79998779297</ele>
        <time>2023-06-18T09:22:37Z</time>
      </trkpt>
      <trkpt lat="49.43922" lon="5.78013">
        <ele>331.20001220703</ele>
        <time>2023-06-18T09:22:39Z</time>
      </trkpt>
      <trkpt lat="49.43926" lon="5.78009">
        <ele>331.39999389648</ele>
        <time>2023-06-18T09:22:41Z</time>
      </trkpt>
      <trkpt lat="49.43929" lon="5.78006">
        <ele>332</ele>
        <time>2023-06-18T09:22:43Z</time>
      </trkpt>
      <trkpt lat="49.43932" lon="5.78003">
        <ele>332.20001220703</ele>
        <time>2023-06-18T09:22:45Z</time>
      </trkpt>
      <trkpt lat="49.43933" lon="5.78001">
        <ele>332.39999389648</ele>
        <time>2023-06-18T09:22:46Z</time>
      </trkpt>
      <trkpt lat="49.43933" lon="5.77998">
        <ele>332.60000610352</ele>
        <time>2023-06-18T09:22:47Z</time>
      </trkpt>
      <trkpt lat="49.43933" lon="5.77996">
        <ele>333.20001220703</ele>
        <time>2023-06-18T09:22:49Z</time>
      </trkpt>
      <trkpt lat="49.43931" lon="5.77994">
        <ele>333.60000610352</ele>
        <time>2023-06-18T09:22:51Z</time>
      </trkpt>
      <trkpt lat="49.43929" lon="5.77993">
        <ele>334</ele>
        <time>2023-06-18T09:22:53Z</time>
      </trkpt>
      <trkpt lat="49.43927" lon="5.77993">
        <ele>334</ele>
        <time>2023-06-18T09:22:54Z</time>
      </trkpt>
      <trkpt lat="49.43925" lon="5.77994">
        <ele>334</ele>
        <time>2023-06-18T09:22:55Z</time>
      </trkpt>
      <trkpt lat="49.4392" lon="5.77996">
        <ele>334.20001220703</ele>
        <time>2023-06-18T09:22:57Z</time>
      </trkpt>
      <trkpt lat="49.43914" lon="5.77999">
        <ele>334.20001220703</ele>
        <time>2023-06-18T09:22:59Z</time>
      </trkpt>
      <trkpt lat="49.43911" lon="5.78001">
        <ele>334.20001220703</ele>
        <time>2023-06-18T09:23:00Z</time>
      </trkpt>
      <trkpt lat="49.43908" lon="5.78002">
        <ele>334.20001220703</ele>
        <time>2023-06-18T09:23:01Z</time>
      </trkpt>
      <trkpt lat="49.439" lon="5.78006">
        <ele>334</ele>
        <time>2023-06-18T09:23:03Z</time>
      </trkpt>
      <trkpt lat="49.43892" lon="5.78009">
        <ele>334</ele>
        <time>2023-06-18T09:23:05Z</time>
      </trkpt>
      <trkpt lat="49.43883" lon="5.78013">
        <ele>333.79998779297</ele>
        <time>2023-06-18T09:23:07Z</time>
      </trkpt>
      <trkpt lat="49.43873" lon="5.78018">
        <ele>333.39999389648</ele>
        <time>2023-06-18T09:23:09Z</time>
      </trkpt>
      <trkpt lat="49.43863" lon="5.78022">
        <ele>333</ele>
        <time>2023-06-18T09:23:11Z</time>
      </trkpt>
      <trkpt lat="49.43852" lon="5.78028">
        <ele>332.60000610352</ele>
        <time>2023-06-18T09:23:13Z</time>
      </trkpt>
      <trkpt lat="49.4384" lon="5.78031">
        <ele>332</ele>
        <time>2023-06-18T09:23:15Z</time>
      </trkpt>
      <trkpt lat="49.43828" lon="5.78037">
        <ele>331.39999389648</ele>
        <time>2023-06-18T09:23:17Z</time>
      </trkpt>
      <trkpt lat="49.43823" lon="5.78039">
        <ele>330.79998779297</ele>
        <time>2023-06-18T09:23:18Z</time>
      </trkpt>
      <trkpt lat="49.43817" lon="5.78042">
        <ele>330.39999389648</ele>
        <time>2023-06-18T09:23:19Z</time>
      </trkpt>
      <trkpt lat="49.43805" lon="5.78047">
        <ele>330</ele>
        <time>2023-06-18T09:23:21Z</time>
      </trkpt>
      <trkpt lat="49.43799" lon="5.7805">
        <ele>329.60000610352</ele>
        <time>2023-06-18T09:23:22Z</time>
      </trkpt>
      <trkpt lat="49.43793" lon="5.78053">
        <ele>329.20001220703</ele>
        <time>2023-06-18T09:23:23Z</time>
      </trkpt>
      <trkpt lat="49.43788" lon="5.78056">
        <ele>329</ele>
        <time>2023-06-18T09:23:24Z</time>
      </trkpt>
      <trkpt lat="49.43783" lon="5.78057">
        <ele>328.60000610352</ele>
        <time>2023-06-18T09:23:25Z</time>
      </trkpt>
      <trkpt lat="49.43779" lon="5.78056">
        <ele>328.39999389648</ele>
        <time>2023-06-18T09:23:26Z</time>
      </trkpt>
      <trkpt lat="49.43776" lon="5.78053">
        <ele>328.20001220703</ele>
        <time>2023-06-18T09:23:27Z</time>
      </trkpt>
      <trkpt lat="49.43769" lon="5.78047">
        <ele>328</ele>
        <time>2023-06-18T09:23:29Z</time>
      </trkpt>
      <trkpt lat="49.43766" lon="5.78044">
        <ele>327.79998779297</ele>
        <time>2023-06-18T09:23:30Z</time>
      </trkpt>
      <trkpt lat="49.43763" lon="5.78042">
        <ele>327.79998779297</ele>
        <time>2023-06-18T09:23:31Z</time>
      </trkpt>
      <trkpt lat="49.43758" lon="5.78038">
        <ele>327.79998779297</ele>
        <time>2023-06-18T09:23:33Z</time>
      </trkpt>
      <trkpt lat="49.43752" lon="5.78038">
        <ele>327.79998779297</ele>
        <time>2023-06-18T09:23:35Z</time>
      </trkpt>
      <trkpt lat="49.43746" lon="5.78042">
        <ele>327.79998779297</ele>
        <time>2023-06-18T09:23:37Z</time>
      </trkpt>
      <trkpt lat="49.43744" lon="5.78043">
        <ele>327.79998779297</ele>
        <time>2023-06-18T09:23:38Z</time>
      </trkpt>
      <trkpt lat="49.43742" lon="5.78045">
        <ele>328.20001220703</ele>
        <time>2023-06-18T09:23:39Z</time>
      </trkpt>
      <trkpt lat="49.4374" lon="5.78047">
        <ele>328.79998779297</ele>
        <time>2023-06-18T09:23:40Z</time>
      </trkpt>
      <trkpt lat="49.43738" lon="5.78048">
        <ele>329.39999389648</ele>
        <time>2023-06-18T09:23:41Z</time>
      </trkpt>
      <trkpt lat="49.43735" lon="5.78049">
        <ele>330.20001220703</ele>
        <time>2023-06-18T09:23:42Z</time>
      </trkpt>
      <trkpt lat="49.43732" lon="5.78051">
        <ele>330.60000610352</ele>
        <time>2023-06-18T09:23:43Z</time>
      </trkpt>
      <trkpt lat="49.43727" lon="5.78054">
        <ele>331.39999389648</ele>
        <time>2023-06-18T09:23:45Z</time>
      </trkpt>
      <trkpt lat="49.43725" lon="5.78055">
        <ele>331.79998779297</ele>
        <time>2023-06-18T09:23:46Z</time>
      </trkpt>
      <trkpt lat="49.43723" lon="5.78057">
        <ele>332</ele>
        <time>2023-06-18T09:23:47Z</time>
      </trkpt>
      <trkpt lat="49.43717" lon="5.78061">
        <ele>332</ele>
        <time>2023-06-18T09:23:49Z</time>
      </trkpt>
      <trkpt lat="49.43712" lon="5.78064">
        <ele>332.20001220703</ele>
        <time>2023-06-18T09:23:51Z</time>
      </trkpt>
      <trkpt lat="49.4371" lon="5.78067">
        <ele>332.20001220703</ele>
        <time>2023-06-18T09:23:52Z</time>
      </trkpt>
      <trkpt lat="49.43708" lon="5.78068">
        <ele>332.20001220703</ele>
        <time>2023-06-18T09:23:53Z</time>
      </trkpt>
      <trkpt lat="49.43702" lon="5.78071">
        <ele>332.20001220703</ele>
        <time>2023-06-18T09:23:55Z</time>
      </trkpt>
      <trkpt lat="49.43696" lon="5.78075">
        <ele>332.39999389648</ele>
        <time>2023-06-18T09:23:57Z</time>
      </trkpt>
      <trkpt lat="49.4369" lon="5.78078">
        <ele>332.60000610352</ele>
        <time>2023-06-18T09:23:59Z</time>
      </trkpt>
      <trkpt lat="49.43685" lon="5.78082">
        <ele>333</ele>
        <time>2023-06-18T09:24:01Z</time>
      </trkpt>
      <trkpt lat="49.43683" lon="5.78083">
        <ele>333</ele>
        <time>2023-06-18T09:24:02Z</time>
      </trkpt>
      <trkpt lat="49.43681" lon="5.78084">
        <ele>333.20001220703</ele>
        <time>2023-06-18T09:24:03Z</time>
      </trkpt>
      <trkpt lat="49.43677" lon="5.78086">
        <ele>333.39999389648</ele>
        <time>2023-06-18T09:24:05Z</time>
      </trkpt>
      <trkpt lat="49.43675" lon="5.78088">
        <ele>333.79998779297</ele>
        <time>2023-06-18T09:24:06Z</time>
      </trkpt>
      <trkpt lat="49.43673" lon="5.78089">
        <ele>334</ele>
        <time>2023-06-18T09:24:07Z</time>
      </trkpt>
      <trkpt lat="49.4367" lon="5.78089">
        <ele>334.20001220703</ele>
        <time>2023-06-18T09:24:08Z</time>
      </trkpt>
      <trkpt lat="49.43666" lon="5.78093">
        <ele>334.60000610352</ele>
        <time>2023-06-18T09:24:09Z</time>
      </trkpt>
      <trkpt lat="49.43663" lon="5.78094">
        <ele>334.79998779297</ele>
        <time>2023-06-18T09:24:10Z</time>
      </trkpt>
      <trkpt lat="49.4366" lon="5.78095">
        <ele>335</ele>
        <time>2023-06-18T09:24:11Z</time>
      </trkpt>
      <trkpt lat="49.43658" lon="5.78096">
        <ele>335.20001220703</ele>
        <time>2023-06-18T09:24:12Z</time>
      </trkpt>
      <trkpt lat="49.43656" lon="5.78097">
        <ele>335.60000610352</ele>
        <time>2023-06-18T09:24:13Z</time>
      </trkpt>
      <trkpt lat="49.43652" lon="5.78098">
        <ele>336</ele>
        <time>2023-06-18T09:24:14Z</time>
      </trkpt>
      <trkpt lat="49.4365" lon="5.78098">
        <ele>336.20001220703</ele>
        <time>2023-06-18T09:24:15Z</time>
      </trkpt>
      <trkpt lat="49.43645" lon="5.781">
        <ele>336.60000610352</ele>
        <time>2023-06-18T09:24:17Z</time>
      </trkpt>
      <trkpt lat="49.43639" lon="5.78102">
        <ele>336.79998779297</ele>
        <time>2023-06-18T09:24:19Z</time>
      </trkpt>
      <trkpt lat="49.43636" lon="5.78104">
        <ele>337</ele>
        <time>2023-06-18T09:24:20Z</time>
      </trkpt>
      <trkpt lat="49.43633" lon="5.78106">
        <ele>337</ele>
        <time>2023-06-18T09:24:21Z</time>
      </trkpt>
      <trkpt lat="49.4363" lon="5.78108">
        <ele>337.20001220703</ele>
        <time>2023-06-18T09:24:22Z</time>
      </trkpt>
      <trkpt lat="49.43627" lon="5.7811">
        <ele>337.20001220703</ele>
        <time>2023-06-18T09:24:23Z</time>
      </trkpt>
      <trkpt lat="49.4362" lon="5.78112">
        <ele>337.60000610352</ele>
        <time>2023-06-18T09:24:25Z</time>
      </trkpt>
      <trkpt lat="49.43617" lon="5.78113">
        <ele>337.60000610352</ele>
        <time>2023-06-18T09:24:26Z</time>
      </trkpt>
      <trkpt lat="49.43614" lon="5.78115">
        <ele>337.60000610352</ele>
        <time>2023-06-18T09:24:27Z</time>
      </trkpt>
      <trkpt lat="49.43607" lon="5.78119">
        <ele>337.79998779297</ele>
        <time>2023-06-18T09:24:29Z</time>
      </trkpt>
      <trkpt lat="49.43601" lon="5.78118">
        <ele>337.79998779297</ele>
        <time>2023-06-18T09:24:31Z</time>
      </trkpt>
      <trkpt lat="49.43598" lon="5.78118">
        <ele>338</ele>
        <time>2023-06-18T09:24:32Z</time>
      </trkpt>
      <trkpt lat="49.43595" lon="5.78117">
        <ele>338</ele>
        <time>2023-06-18T09:24:33Z</time>
      </trkpt>
      <trkpt lat="49.4359" lon="5.78113">
        <ele>338.20001220703</ele>
        <time>2023-06-18T09:24:35Z</time>
      </trkpt>
      <trkpt lat="49.43586" lon="5.78111">
        <ele>338.60000610352</ele>
        <time>2023-06-18T09:24:37Z</time>
      </trkpt>
      <trkpt lat="49.43585" lon="5.78109">
        <ele>338.60000610352</ele>
        <time>2023-06-18T09:24:38Z</time>
      </trkpt>
      <trkpt lat="49.43583" lon="5.78108">
        <ele>338.79998779297</ele>
        <time>2023-06-18T09:24:39Z</time>
      </trkpt>
      <trkpt lat="49.43578" lon="5.78105">
        <ele>339.60000610352</ele>
        <time>2023-06-18T09:24:41Z</time>
      </trkpt>
      <trkpt lat="49.43574" lon="5.78102">
        <ele>340.20001220703</ele>
        <time>2023-06-18T09:24:43Z</time>
      </trkpt>
      <trkpt lat="49.43571" lon="5.781">
        <ele>340.60000610352</ele>
        <time>2023-06-18T09:24:45Z</time>
      </trkpt>
      <trkpt lat="49.4357" lon="5.78098">
        <ele>341</ele>
        <time>2023-06-18T09:24:46Z</time>
      </trkpt>
      <trkpt lat="49.43568" lon="5.78097">
        <ele>341.20001220703</ele>
        <time>2023-06-18T09:24:47Z</time>
      </trkpt>
      <trkpt lat="49.43564" lon="5.78093">
        <ele>341.79998779297</ele>
        <time>2023-06-18T09:24:49Z</time>
      </trkpt>
      <trkpt lat="49.43562" lon="5.7809">
        <ele>342</ele>
        <time>2023-06-18T09:24:50Z</time>
      </trkpt>
      <trkpt lat="49.43561" lon="5.78088">
        <ele>342.39999389648</ele>
        <time>2023-06-18T09:24:51Z</time>
      </trkpt>
      <trkpt lat="49.43557" lon="5.78082">
        <ele>343</ele>
        <time>2023-06-18T09:24:53Z</time>
      </trkpt>
      <trkpt lat="49.43555" lon="5.78079">
        <ele>343.20001220703</ele>
        <time>2023-06-18T09:24:54Z</time>
      </trkpt>
      <trkpt lat="49.43554" lon="5.78077">
        <ele>343.39999389648</ele>
        <time>2023-06-18T09:24:55Z</time>
      </trkpt>
      <trkpt lat="49.43553" lon="5.78074">
        <ele>343.39999389648</ele>
        <time>2023-06-18T09:24:56Z</time>
      </trkpt>
      <trkpt lat="49.43552" lon="5.78072">
        <ele>343.60000610352</ele>
        <time>2023-06-18T09:24:57Z</time>
      </trkpt>
      <trkpt lat="49.43549" lon="5.78068">
        <ele>343.60000610352</ele>
        <time>2023-06-18T09:24:59Z</time>
      </trkpt>
      <trkpt lat="49.43547" lon="5.78063">
        <ele>344</ele>
        <time>2023-06-18T09:25:01Z</time>
      </trkpt>
      <trkpt lat="49.43543" lon="5.78058">
        <ele>344.20001220703</ele>
        <time>2023-06-18T09:25:03Z</time>
      </trkpt>
      <trkpt lat="49.43538" lon="5.78049">
        <ele>344.20001220703</ele>
        <time>2023-06-18T09:25:05Z</time>
      </trkpt>
      <trkpt lat="49.43536" lon="5.78046">
        <ele>344.20001220703</ele>
        <time>2023-06-18T09:25:06Z</time>
      </trkpt>
      <trkpt lat="49.43534" lon="5.78042">
        <ele>344.39999389648</ele>
        <time>2023-06-18T09:25:07Z</time>
      </trkpt>
      <trkpt lat="49.4353" lon="5.78036">
        <ele>344.60000610352</ele>
        <time>2023-06-18T09:25:09Z</time>
      </trkpt>
      <trkpt lat="49.43529" lon="5.78035">
        <ele>344.60000610352</ele>
        <time>2023-06-18T09:25:10Z</time>
      </trkpt>
      <trkpt lat="49.43527" lon="5.78033">
        <ele>344.60000610352</ele>
        <time>2023-06-18T09:25:11Z</time>
      </trkpt>
      <trkpt lat="49.43523" lon="5.78029">
        <ele>344.79998779297</ele>
        <time>2023-06-18T09:25:13Z</time>
      </trkpt>
      <trkpt lat="49.43519" lon="5.78027">
        <ele>344.79998779297</ele>
        <time>2023-06-18T09:25:15Z</time>
      </trkpt>
      <trkpt lat="49.43513" lon="5.78021">
        <ele>344.79998779297</ele>
        <time>2023-06-18T09:25:17Z</time>
      </trkpt>
      <trkpt lat="49.43506" lon="5.78015">
        <ele>344.79998779297</ele>
        <time>2023-06-18T09:25:19Z</time>
      </trkpt>
      <trkpt lat="49.43499" lon="5.78008">
        <ele>344.79998779297</ele>
        <time>2023-06-18T09:25:21Z</time>
      </trkpt>
      <trkpt lat="49.43497" lon="5.78002">
        <ele>344.79998779297</ele>
        <time>2023-06-18T09:25:22Z</time>
      </trkpt>
      <trkpt lat="49.43495" lon="5.77996">
        <ele>344.79998779297</ele>
        <time>2023-06-18T09:25:23Z</time>
      </trkpt>
      <trkpt lat="49.43492" lon="5.77981">
        <ele>344.60000610352</ele>
        <time>2023-06-18T09:25:25Z</time>
      </trkpt>
      <trkpt lat="49.4349" lon="5.77974">
        <ele>344.60000610352</ele>
        <time>2023-06-18T09:25:27Z</time>
      </trkpt>
      <trkpt lat="49.4349" lon="5.77966">
        <ele>344.60000610352</ele>
        <time>2023-06-18T09:25:29Z</time>
      </trkpt>
      <trkpt lat="49.43489" lon="5.77957">
        <ele>344.60000610352</ele>
        <time>2023-06-18T09:25:31Z</time>
      </trkpt>
      <trkpt lat="49.43488" lon="5.7795">
        <ele>344.60000610352</ele>
        <time>2023-06-18T09:25:33Z</time>
      </trkpt>
      <trkpt lat="49.43486" lon="5.77942">
        <ele>344.79998779297</ele>
        <time>2023-06-18T09:25:35Z</time>
      </trkpt>
      <trkpt lat="49.43484" lon="5.77935">
        <ele>345.20001220703</ele>
        <time>2023-06-18T09:25:37Z</time>
      </trkpt>
      <trkpt lat="49.43484" lon="5.77929">
        <ele>345.60000610352</ele>
        <time>2023-06-18T09:25:38Z</time>
      </trkpt>
      <trkpt lat="49.43483" lon="5.77924">
        <ele>345.60000610352</ele>
        <time>2023-06-18T09:25:39Z</time>
      </trkpt>
      <trkpt lat="49.43479" lon="5.77913">
        <ele>346</ele>
        <time>2023-06-18T09:25:41Z</time>
      </trkpt>
      <trkpt lat="49.43477" lon="5.77909">
        <ele>346.39999389648</ele>
        <time>2023-06-18T09:25:42Z</time>
      </trkpt>
      <trkpt lat="49.43475" lon="5.77905">
        <ele>346.60000610352</ele>
        <time>2023-06-18T09:25:43Z</time>
      </trkpt>
      <trkpt lat="49.43474" lon="5.77898">
        <ele>347</ele>
        <time>2023-06-18T09:25:45Z</time>
      </trkpt>
      <trkpt lat="49.4347" lon="5.77885">
        <ele>347.20001220703</ele>
        <time>2023-06-18T09:25:47Z</time>
      </trkpt>
      <trkpt lat="49.4347" lon="5.7788">
        <ele>347.39999389648</ele>
        <time>2023-06-18T09:25:48Z</time>
      </trkpt>
      <trkpt lat="49.43469" lon="5.77875">
        <ele>347.39999389648</ele>
        <time>2023-06-18T09:25:49Z</time>
      </trkpt>
      <trkpt lat="49.43465" lon="5.77866">
        <ele>347.60000610352</ele>
        <time>2023-06-18T09:25:51Z</time>
      </trkpt>
      <trkpt lat="49.43463" lon="5.7786">
        <ele>347.79998779297</ele>
        <time>2023-06-18T09:25:53Z</time>
      </trkpt>
      <trkpt lat="49.43458" lon="5.77848">
        <ele>348.20001220703</ele>
        <time>2023-06-18T09:25:55Z</time>
      </trkpt>
      <trkpt lat="49.43453" lon="5.77832">
        <ele>348.39999389648</ele>
        <time>2023-06-18T09:25:57Z</time>
      </trkpt>
      <trkpt lat="49.43451" lon="5.77826">
        <ele>348.39999389648</ele>
        <time>2023-06-18T09:25:58Z</time>
      </trkpt>
      <trkpt lat="49.4345" lon="5.77822">
        <ele>348.39999389648</ele>
        <time>2023-06-18T09:25:59Z</time>
      </trkpt>
      <trkpt lat="49.43446" lon="5.77813">
        <ele>348.60000610352</ele>
        <time>2023-06-18T09:26:01Z</time>
      </trkpt>
      <trkpt lat="49.43443" lon="5.77805">
        <ele>348.79998779297</ele>
        <time>2023-06-18T09:26:03Z</time>
      </trkpt>
      <trkpt lat="49.43441" lon="5.778">
        <ele>348.79998779297</ele>
        <time>2023-06-18T09:26:04Z</time>
      </trkpt>
      <trkpt lat="49.4344" lon="5.77797">
        <ele>349.20001220703</ele>
        <time>2023-06-18T09:26:05Z</time>
      </trkpt>
      <trkpt lat="49.43438" lon="5.77791">
        <ele>349.39999389648</ele>
        <time>2023-06-18T09:26:07Z</time>
      </trkpt>
      <trkpt lat="49.43437" lon="5.77786">
        <ele>349.60000610352</ele>
        <time>2023-06-18T09:26:08Z</time>
      </trkpt>
      <trkpt lat="49.43436" lon="5.77781">
        <ele>349.60000610352</ele>
        <time>2023-06-18T09:26:09Z</time>
      </trkpt>
      <trkpt lat="49.43436" lon="5.77773">
        <ele>350.20001220703</ele>
        <time>2023-06-18T09:26:11Z</time>
      </trkpt>
      <trkpt lat="49.43435" lon="5.77762">
        <ele>350.39999389648</ele>
        <time>2023-06-18T09:26:13Z</time>
      </trkpt>
      <trkpt lat="49.43435" lon="5.77755">
        <ele>350.60000610352</ele>
        <time>2023-06-18T09:26:15Z</time>
      </trkpt>
      <trkpt lat="49.43436" lon="5.77745">
        <ele>350.79998779297</ele>
        <time>2023-06-18T09:26:17Z</time>
      </trkpt>
      <trkpt lat="49.43435" lon="5.77736">
        <ele>351.20001220703</ele>
        <time>2023-06-18T09:26:19Z</time>
      </trkpt>
      <trkpt lat="49.43433" lon="5.77723">
        <ele>351.60000610352</ele>
        <time>2023-06-18T09:26:21Z</time>
      </trkpt>
      <trkpt lat="49.43427" lon="5.77709">
        <ele>351.79998779297</ele>
        <time>2023-06-18T09:26:23Z</time>
      </trkpt>
      <trkpt lat="49.43425" lon="5.77702">
        <ele>352</ele>
        <time>2023-06-18T09:26:24Z</time>
      </trkpt>
      <trkpt lat="49.43423" lon="5.77695">
        <ele>352.20001220703</ele>
        <time>2023-06-18T09:26:25Z</time>
      </trkpt>
      <trkpt lat="49.43419" lon="5.77684">
        <ele>352.60000610352</ele>
        <time>2023-06-18T09:26:27Z</time>
      </trkpt>
      <trkpt lat="49.43416" lon="5.77676">
        <ele>352.79998779297</ele>
        <time>2023-06-18T09:26:29Z</time>
      </trkpt>
      <trkpt lat="49.43414" lon="5.77671">
        <ele>352.79998779297</ele>
        <time>2023-06-18T09:26:30Z</time>
      </trkpt>
      <trkpt lat="49.43413" lon="5.77668">
        <ele>352.79998779297</ele>
        <time>2023-06-18T09:26:31Z</time>
      </trkpt>
      <trkpt lat="49.43412" lon="5.77666">
        <ele>353</ele>
        <time>2023-06-18T09:26:32Z</time>
      </trkpt>
      <trkpt lat="49.43409" lon="5.77663">
        <ele>353</ele>
        <time>2023-06-18T09:26:33Z</time>
      </trkpt>
      <trkpt lat="49.43403" lon="5.77659">
        <ele>353</ele>
        <time>2023-06-18T09:26:35Z</time>
      </trkpt>
      <trkpt lat="49.43396" lon="5.77656">
        <ele>353.20001220703</ele>
        <time>2023-06-18T09:26:37Z</time>
      </trkpt>
      <trkpt lat="49.43388" lon="5.77651">
        <ele>353.20001220703</ele>
        <time>2023-06-18T09:26:39Z</time>
      </trkpt>
      <trkpt lat="49.43379" lon="5.77646">
        <ele>353.39999389648</ele>
        <time>2023-06-18T09:26:41Z</time>
      </trkpt>
      <trkpt lat="49.43372" lon="5.77639">
        <ele>353.39999389648</ele>
        <time>2023-06-18T09:26:43Z</time>
      </trkpt>
      <trkpt lat="49.43366" lon="5.77632">
        <ele>353.20001220703</ele>
        <time>2023-06-18T09:26:45Z</time>
      </trkpt>
      <trkpt lat="49.43362" lon="5.77628">
        <ele>353.20001220703</ele>
        <time>2023-06-18T09:26:46Z</time>
      </trkpt>
      <trkpt lat="49.43359" lon="5.77624">
        <ele>353.20001220703</ele>
        <time>2023-06-18T09:26:47Z</time>
      </trkpt>
      <trkpt lat="49.43352" lon="5.77618">
        <ele>353.20001220703</ele>
        <time>2023-06-18T09:26:49Z</time>
      </trkpt>
      <trkpt lat="49.43344" lon="5.77614">
        <ele>353.20001220703</ele>
        <time>2023-06-18T09:26:51Z</time>
      </trkpt>
      <trkpt lat="49.4334" lon="5.77611">
        <ele>353.20001220703</ele>
        <time>2023-06-18T09:26:52Z</time>
      </trkpt>
      <trkpt lat="49.43337" lon="5.77609">
        <ele>353.20001220703</ele>
        <time>2023-06-18T09:26:53Z</time>
      </trkpt>
      <trkpt lat="49.43329" lon="5.77605">
        <ele>353.20001220703</ele>
        <time>2023-06-18T09:26:55Z</time>
      </trkpt>
      <trkpt lat="49.43321" lon="5.77602">
        <ele>353</ele>
        <time>2023-06-18T09:26:57Z</time>
      </trkpt>
      <trkpt lat="49.43317" lon="5.776">
        <ele>353</ele>
        <time>2023-06-18T09:26:58Z</time>
      </trkpt>
      <trkpt lat="49.43314" lon="5.77599">
        <ele>353</ele>
        <time>2023-06-18T09:26:59Z</time>
      </trkpt>
      <trkpt lat="49.43306" lon="5.77595">
        <ele>352.79998779297</ele>
        <time>2023-06-18T09:27:01Z</time>
      </trkpt>
      <trkpt lat="49.43298" lon="5.77591">
        <ele>352.60000610352</ele>
        <time>2023-06-18T09:27:03Z</time>
      </trkpt>
      <trkpt lat="49.43291" lon="5.77588">
        <ele>352.39999389648</ele>
        <time>2023-06-18T09:27:05Z</time>
      </trkpt>
      <trkpt lat="49.43283" lon="5.77588">
        <ele>352.20001220703</ele>
        <time>2023-06-18T09:27:07Z</time>
      </trkpt>
      <trkpt lat="49.43279" lon="5.77589">
        <ele>352.20001220703</ele>
        <time>2023-06-18T09:27:08Z</time>
      </trkpt>
      <trkpt lat="49.43275" lon="5.7759">
        <ele>352.20001220703</ele>
        <time>2023-06-18T09:27:09Z</time>
      </trkpt>
      <trkpt lat="49.4327" lon="5.77589">
        <ele>352.20001220703</ele>
        <time>2023-06-18T09:27:10Z</time>
      </trkpt>
      <trkpt lat="49.43267" lon="5.7759">
        <ele>352.20001220703</ele>
        <time>2023-06-18T09:27:11Z</time>
      </trkpt>
      <trkpt lat="49.43261" lon="5.77592">
        <ele>352.20001220703</ele>
        <time>2023-06-18T09:27:13Z</time>
      </trkpt>
      <trkpt lat="49.43254" lon="5.77591">
        <ele>352.20001220703</ele>
        <time>2023-06-18T09:27:15Z</time>
      </trkpt>
      <trkpt lat="49.43247" lon="5.77589">
        <ele>352.20001220703</ele>
        <time>2023-06-18T09:27:17Z</time>
      </trkpt>
      <trkpt lat="49.43242" lon="5.77586">
        <ele>352.20001220703</ele>
        <time>2023-06-18T09:27:19Z</time>
      </trkpt>
      <trkpt lat="49.43236" lon="5.77579">
        <ele>352.20001220703</ele>
        <time>2023-06-18T09:27:21Z</time>
      </trkpt>
      <trkpt lat="49.43232" lon="5.77571">
        <ele>352.20001220703</ele>
        <time>2023-06-18T09:27:23Z</time>
      </trkpt>
      <trkpt lat="49.43231" lon="5.77562">
        <ele>352.39999389648</ele>
        <time>2023-06-18T09:27:25Z</time>
      </trkpt>
      <trkpt lat="49.43231" lon="5.77551">
        <ele>352.39999389648</ele>
        <time>2023-06-18T09:27:27Z</time>
      </trkpt>
      <trkpt lat="49.4323" lon="5.77537">
        <ele>352.60000610352</ele>
        <time>2023-06-18T09:27:29Z</time>
      </trkpt>
      <trkpt lat="49.43227" lon="5.7752">
        <ele>352.60000610352</ele>
        <time>2023-06-18T09:27:31Z</time>
      </trkpt>
      <trkpt lat="49.43226" lon="5.77512">
        <ele>352.60000610352</ele>
        <time>2023-06-18T09:27:32Z</time>
      </trkpt>
      <trkpt lat="49.43224" lon="5.77503">
        <ele>352.60000610352</ele>
        <time>2023-06-18T09:27:33Z</time>
      </trkpt>
      <trkpt lat="49.43223" lon="5.77495">
        <ele>352.79998779297</ele>
        <time>2023-06-18T09:27:34Z</time>
      </trkpt>
      <trkpt lat="49.43222" lon="5.77487">
        <ele>352.79998779297</ele>
        <time>2023-06-18T09:27:35Z</time>
      </trkpt>
      <trkpt lat="49.43221" lon="5.77472">
        <ele>352.79998779297</ele>
        <time>2023-06-18T09:27:37Z</time>
      </trkpt>
      <trkpt lat="49.43221" lon="5.77458">
        <ele>353</ele>
        <time>2023-06-18T09:27:39Z</time>
      </trkpt>
      <trkpt lat="49.43221" lon="5.77443">
        <ele>353</ele>
        <time>2023-06-18T09:27:41Z</time>
      </trkpt>
      <trkpt lat="49.43221" lon="5.77435">
        <ele>353</ele>
        <time>2023-06-18T09:27:42Z</time>
      </trkpt>
      <trkpt lat="49.43221" lon="5.77427">
        <ele>353</ele>
        <time>2023-06-18T09:27:43Z</time>
      </trkpt>
      <trkpt lat="49.43221" lon="5.77411">
        <ele>353</ele>
        <time>2023-06-18T09:27:45Z</time>
      </trkpt>
      <trkpt lat="49.4322" lon="5.77396">
        <ele>353</ele>
        <time>2023-06-18T09:27:47Z</time>
      </trkpt>
      <trkpt lat="49.43221" lon="5.77382">
        <ele>353</ele>
        <time>2023-06-18T09:27:49Z</time>
      </trkpt>
      <trkpt lat="49.43221" lon="5.77369">
        <ele>353</ele>
        <time>2023-06-18T09:27:51Z</time>
      </trkpt>
      <trkpt lat="49.43222" lon="5.77355">
        <ele>352.79998779297</ele>
        <time>2023-06-18T09:27:53Z</time>
      </trkpt>
      <trkpt lat="49.43222" lon="5.77341">
        <ele>352.79998779297</ele>
        <time>2023-06-18T09:27:55Z</time>
      </trkpt>
      <trkpt lat="49.43222" lon="5.77328">
        <ele>352.79998779297</ele>
        <time>2023-06-18T09:27:57Z</time>
      </trkpt>
      <trkpt lat="49.43223" lon="5.77314">
        <ele>352.60000610352</ele>
        <time>2023-06-18T09:27:59Z</time>
      </trkpt>
      <trkpt lat="49.43223" lon="5.773">
        <ele>352.39999389648</ele>
        <time>2023-06-18T09:28:01Z</time>
      </trkpt>
      <trkpt lat="49.43224" lon="5.77284">
        <ele>352.20001220703</ele>
        <time>2023-06-18T09:28:03Z</time>
      </trkpt>
      <trkpt lat="49.43225" lon="5.77276">
        <ele>352</ele>
        <time>2023-06-18T09:28:04Z</time>
      </trkpt>
      <trkpt lat="49.43225" lon="5.77268">
        <ele>352</ele>
        <time>2023-06-18T09:28:05Z</time>
      </trkpt>
      <trkpt lat="49.43226" lon="5.77253">
        <ele>351.60000610352</ele>
        <time>2023-06-18T09:28:07Z</time>
      </trkpt>
      <trkpt lat="49.43226" lon="5.77238">
        <ele>351.39999389648</ele>
        <time>2023-06-18T09:28:09Z</time>
      </trkpt>
      <trkpt lat="49.43227" lon="5.77224">
        <ele>351</ele>
        <time>2023-06-18T09:28:11Z</time>
      </trkpt>
      <trkpt lat="49.43228" lon="5.7721">
        <ele>350.79998779297</ele>
        <time>2023-06-18T09:28:13Z</time>
      </trkpt>
      <trkpt lat="49.43229" lon="5.77196">
        <ele>350.60000610352</ele>
        <time>2023-06-18T09:28:15Z</time>
      </trkpt>
      <trkpt lat="49.4323" lon="5.77182">
        <ele>350.39999389648</ele>
        <time>2023-06-18T09:28:17Z</time>
      </trkpt>
      <trkpt lat="49.43231" lon="5.77168">
        <ele>350.39999389648</ele>
        <time>2023-06-18T09:28:19Z</time>
      </trkpt>
      <trkpt lat="49.43232" lon="5.77154">
        <ele>350.20001220703</ele>
        <time>2023-06-18T09:28:21Z</time>
      </trkpt>
      <trkpt lat="49.43234" lon="5.7714">
        <ele>350</ele>
        <time>2023-06-18T09:28:23Z</time>
      </trkpt>
      <trkpt lat="49.43234" lon="5.77133">
        <ele>350</ele>
        <time>2023-06-18T09:28:24Z</time>
      </trkpt>
      <trkpt lat="49.43235" lon="5.77126">
        <ele>350</ele>
        <time>2023-06-18T09:28:25Z</time>
      </trkpt>
      <trkpt lat="49.43236" lon="5.77111">
        <ele>349.79998779297</ele>
        <time>2023-06-18T09:28:27Z</time>
      </trkpt>
      <trkpt lat="49.43238" lon="5.77097">
        <ele>349.79998779297</ele>
        <time>2023-06-18T09:28:29Z</time>
      </trkpt>
      <trkpt lat="49.43239" lon="5.77083">
        <ele>349.79998779297</ele>
        <time>2023-06-18T09:28:31Z</time>
      </trkpt>
      <trkpt lat="49.43241" lon="5.77069">
        <ele>349.60000610352</ele>
        <time>2023-06-18T09:28:33Z</time>
      </trkpt>
      <trkpt lat="49.43243" lon="5.77056">
        <ele>349.60000610352</ele>
        <time>2023-06-18T09:28:35Z</time>
      </trkpt>
      <trkpt lat="49.43245" lon="5.77042">
        <ele>349.60000610352</ele>
        <time>2023-06-18T09:28:37Z</time>
      </trkpt>
      <trkpt lat="49.43247" lon="5.77029">
        <ele>349.60000610352</ele>
        <time>2023-06-18T09:28:39Z</time>
      </trkpt>
      <trkpt lat="49.43249" lon="5.77015">
        <ele>349.60000610352</ele>
        <time>2023-06-18T09:28:41Z</time>
      </trkpt>
      <trkpt lat="49.4325" lon="5.77002">
        <ele>349.60000610352</ele>
        <time>2023-06-18T09:28:43Z</time>
      </trkpt>
      <trkpt lat="49.43252" lon="5.76989">
        <ele>349.60000610352</ele>
        <time>2023-06-18T09:28:45Z</time>
      </trkpt>
      <trkpt lat="49.43253" lon="5.76982">
        <ele>349.60000610352</ele>
        <time>2023-06-18T09:28:46Z</time>
      </trkpt>
      <trkpt lat="49.43254" lon="5.76976">
        <ele>349.60000610352</ele>
        <time>2023-06-18T09:28:47Z</time>
      </trkpt>
      <trkpt lat="49.43256" lon="5.76963">
        <ele>349.60000610352</ele>
        <time>2023-06-18T09:28:49Z</time>
      </trkpt>
      <trkpt lat="49.43258" lon="5.7695">
        <ele>349.39999389648</ele>
        <time>2023-06-18T09:28:51Z</time>
      </trkpt>
      <trkpt lat="49.4326" lon="5.76937">
        <ele>349.39999389648</ele>
        <time>2023-06-18T09:28:53Z</time>
      </trkpt>
      <trkpt lat="49.43262" lon="5.76924">
        <ele>349.20001220703</ele>
        <time>2023-06-18T09:28:55Z</time>
      </trkpt>
      <trkpt lat="49.43264" lon="5.76911">
        <ele>349</ele>
        <time>2023-06-18T09:28:57Z</time>
      </trkpt>
      <trkpt lat="49.43266" lon="5.76898">
        <ele>349</ele>
        <time>2023-06-18T09:28:59Z</time>
      </trkpt>
      <trkpt lat="49.43267" lon="5.76886">
        <ele>349</ele>
        <time>2023-06-18T09:29:01Z</time>
      </trkpt>
      <trkpt lat="49.43268" lon="5.76873">
        <ele>349</ele>
        <time>2023-06-18T09:29:03Z</time>
      </trkpt>
      <trkpt lat="49.43269" lon="5.76867">
        <ele>349</ele>
        <time>2023-06-18T09:29:04Z</time>
      </trkpt>
      <trkpt lat="49.4327" lon="5.76861">
        <ele>349</ele>
        <time>2023-06-18T09:29:05Z</time>
      </trkpt>
      <trkpt lat="49.43272" lon="5.76849">
        <ele>349</ele>
        <time>2023-06-18T09:29:07Z</time>
      </trkpt>
      <trkpt lat="49.43275" lon="5.76836">
        <ele>349</ele>
        <time>2023-06-18T09:29:09Z</time>
      </trkpt>
      <trkpt lat="49.43277" lon="5.76822">
        <ele>349</ele>
        <time>2023-06-18T09:29:11Z</time>
      </trkpt>
      <trkpt lat="49.43277" lon="5.76815">
        <ele>349</ele>
        <time>2023-06-18T09:29:12Z</time>
      </trkpt>
      <trkpt lat="49.43278" lon="5.76808">
        <ele>348.79998779297</ele>
        <time>2023-06-18T09:29:13Z</time>
      </trkpt>
      <trkpt lat="49.4328" lon="5.76793">
        <ele>348.60000610352</ele>
        <time>2023-06-18T09:29:15Z</time>
      </trkpt>
      <trkpt lat="49.43282" lon="5.76778">
        <ele>348.60000610352</ele>
        <time>2023-06-18T09:29:17Z</time>
      </trkpt>
      <trkpt lat="49.43284" lon="5.76763">
        <ele>348.39999389648</ele>
        <time>2023-06-18T09:29:19Z</time>
      </trkpt>
      <trkpt lat="49.43287" lon="5.76748">
        <ele>347.79998779297</ele>
        <time>2023-06-18T09:29:21Z</time>
      </trkpt>
      <trkpt lat="49.43289" lon="5.76734">
        <ele>347.20001220703</ele>
        <time>2023-06-18T09:29:23Z</time>
      </trkpt>
      <trkpt lat="49.43291" lon="5.76721">
        <ele>347</ele>
        <time>2023-06-18T09:29:25Z</time>
      </trkpt>
      <trkpt lat="49.43292" lon="5.76708">
        <ele>347</ele>
        <time>2023-06-18T09:29:27Z</time>
      </trkpt>
      <trkpt lat="49.43294" lon="5.76695">
        <ele>346.79998779297</ele>
        <time>2023-06-18T09:29:29Z</time>
      </trkpt>
      <trkpt lat="49.43295" lon="5.76682">
        <ele>346.79998779297</ele>
        <time>2023-06-18T09:29:31Z</time>
      </trkpt>
      <trkpt lat="49.43296" lon="5.76668">
        <ele>346.79998779297</ele>
        <time>2023-06-18T09:29:33Z</time>
      </trkpt>
      <trkpt lat="49.43297" lon="5.7666">
        <ele>346.60000610352</ele>
        <time>2023-06-18T09:29:34Z</time>
      </trkpt>
      <trkpt lat="49.43298" lon="5.76653">
        <ele>346.60000610352</ele>
        <time>2023-06-18T09:29:35Z</time>
      </trkpt>
      <trkpt lat="49.43299" lon="5.76638">
        <ele>346.39999389648</ele>
        <time>2023-06-18T09:29:37Z</time>
      </trkpt>
      <trkpt lat="49.43299" lon="5.76623">
        <ele>346.39999389648</ele>
        <time>2023-06-18T09:29:39Z</time>
      </trkpt>
      <trkpt lat="49.433" lon="5.76608">
        <ele>346.20001220703</ele>
        <time>2023-06-18T09:29:41Z</time>
      </trkpt>
      <trkpt lat="49.43301" lon="5.76601">
        <ele>346.20001220703</ele>
        <time>2023-06-18T09:29:42Z</time>
      </trkpt>
      <trkpt lat="49.43302" lon="5.76593">
        <ele>346</ele>
        <time>2023-06-18T09:29:43Z</time>
      </trkpt>
      <trkpt lat="49.43303" lon="5.76578">
        <ele>345.79998779297</ele>
        <time>2023-06-18T09:29:45Z</time>
      </trkpt>
      <trkpt lat="49.43304" lon="5.76563">
        <ele>345.79998779297</ele>
        <time>2023-06-18T09:29:47Z</time>
      </trkpt>
      <trkpt lat="49.43305" lon="5.76547">
        <ele>345.79998779297</ele>
        <time>2023-06-18T09:29:49Z</time>
      </trkpt>
      <trkpt lat="49.43305" lon="5.76539">
        <ele>345.60000610352</ele>
        <time>2023-06-18T09:29:50Z</time>
      </trkpt>
      <trkpt lat="49.43305" lon="5.76531">
        <ele>345.60000610352</ele>
        <time>2023-06-18T09:29:51Z</time>
      </trkpt>
      <trkpt lat="49.43306" lon="5.76516">
        <ele>345.60000610352</ele>
        <time>2023-06-18T09:29:53Z</time>
      </trkpt>
      <trkpt lat="49.43306" lon="5.765">
        <ele>345.39999389648</ele>
        <time>2023-06-18T09:29:55Z</time>
      </trkpt>
      <trkpt lat="49.43307" lon="5.76492">
        <ele>345.39999389648</ele>
        <time>2023-06-18T09:29:56Z</time>
      </trkpt>
      <trkpt lat="49.43307" lon="5.76485">
        <ele>345.39999389648</ele>
        <time>2023-06-18T09:29:57Z</time>
      </trkpt>
      <trkpt lat="49.43308" lon="5.7647">
        <ele>345</ele>
        <time>2023-06-18T09:29:59Z</time>
      </trkpt>
      <trkpt lat="49.43309" lon="5.76454">
        <ele>344.79998779297</ele>
        <time>2023-06-18T09:30:01Z</time>
      </trkpt>
      <trkpt lat="49.43309" lon="5.76446">
        <ele>344.60000610352</ele>
        <time>2023-06-18T09:30:02Z</time>
      </trkpt>
      <trkpt lat="49.4331" lon="5.76438">
        <ele>344.60000610352</ele>
        <time>2023-06-18T09:30:03Z</time>
      </trkpt>
      <trkpt lat="49.43311" lon="5.76421">
        <ele>344.60000610352</ele>
        <time>2023-06-18T09:30:05Z</time>
      </trkpt>
      <trkpt lat="49.43311" lon="5.76405">
        <ele>344.20001220703</ele>
        <time>2023-06-18T09:30:07Z</time>
      </trkpt>
      <trkpt lat="49.43312" lon="5.7639">
        <ele>344</ele>
        <time>2023-06-18T09:30:09Z</time>
      </trkpt>
      <trkpt lat="49.43314" lon="5.76374">
        <ele>344</ele>
        <time>2023-06-18T09:30:11Z</time>
      </trkpt>
      <trkpt lat="49.43315" lon="5.76359">
        <ele>343.79998779297</ele>
        <time>2023-06-18T09:30:13Z</time>
      </trkpt>
      <trkpt lat="49.43315" lon="5.76345">
        <ele>343.60000610352</ele>
        <time>2023-06-18T09:30:15Z</time>
      </trkpt>
      <trkpt lat="49.43316" lon="5.76338">
        <ele>343.60000610352</ele>
        <time>2023-06-18T09:30:16Z</time>
      </trkpt>
      <trkpt lat="49.43316" lon="5.76331">
        <ele>343.39999389648</ele>
        <time>2023-06-18T09:30:17Z</time>
      </trkpt>
      <trkpt lat="49.43316" lon="5.76317">
        <ele>343</ele>
        <time>2023-06-18T09:30:19Z</time>
      </trkpt>
      <trkpt lat="49.43317" lon="5.76302">
        <ele>343</ele>
        <time>2023-06-18T09:30:21Z</time>
      </trkpt>
      <trkpt lat="49.43316" lon="5.76287">
        <ele>342.79998779297</ele>
        <time>2023-06-18T09:30:23Z</time>
      </trkpt>
      <trkpt lat="49.43315" lon="5.76272">
        <ele>342.60000610352</ele>
        <time>2023-06-18T09:30:25Z</time>
      </trkpt>
      <trkpt lat="49.43315" lon="5.76264">
        <ele>342.60000610352</ele>
        <time>2023-06-18T09:30:26Z</time>
      </trkpt>
      <trkpt lat="49.43314" lon="5.76256">
        <ele>342.60000610352</ele>
        <time>2023-06-18T09:30:27Z</time>
      </trkpt>
      <trkpt lat="49.43313" lon="5.76241">
        <ele>342.39999389648</ele>
        <time>2023-06-18T09:30:29Z</time>
      </trkpt>
      <trkpt lat="49.43312" lon="5.76226">
        <ele>342.39999389648</ele>
        <time>2023-06-18T09:30:31Z</time>
      </trkpt>
      <trkpt lat="49.43311" lon="5.76211">
        <ele>342.20001220703</ele>
        <time>2023-06-18T09:30:33Z</time>
      </trkpt>
      <trkpt lat="49.4331" lon="5.76196">
        <ele>342.20001220703</ele>
        <time>2023-06-18T09:30:35Z</time>
      </trkpt>
      <trkpt lat="49.43309" lon="5.7618">
        <ele>342</ele>
        <time>2023-06-18T09:30:37Z</time>
      </trkpt>
      <trkpt lat="49.43308" lon="5.76164">
        <ele>342</ele>
        <time>2023-06-18T09:30:39Z</time>
      </trkpt>
      <trkpt lat="49.43307" lon="5.76148">
        <ele>342</ele>
        <time>2023-06-18T09:30:41Z</time>
      </trkpt>
      <trkpt lat="49.43307" lon="5.76132">
        <ele>341.60000610352</ele>
        <time>2023-06-18T09:30:43Z</time>
      </trkpt>
      <trkpt lat="49.43306" lon="5.76124">
        <ele>341.39999389648</ele>
        <time>2023-06-18T09:30:44Z</time>
      </trkpt>
      <trkpt lat="49.43306" lon="5.76116">
        <ele>341.39999389648</ele>
        <time>2023-06-18T09:30:45Z</time>
      </trkpt>
      <trkpt lat="49.43306" lon="5.76102">
        <ele>340.39999389648</ele>
        <time>2023-06-18T09:30:47Z</time>
      </trkpt>
      <trkpt lat="49.43308" lon="5.76097">
        <ele>340.20001220703</ele>
        <time>2023-06-18T09:30:48Z</time>
      </trkpt>
      <trkpt lat="49.43311" lon="5.76094">
        <ele>340.20001220703</ele>
        <time>2023-06-18T09:30:49Z</time>
      </trkpt>
      <trkpt lat="49.43319" lon="5.76093">
        <ele>339.79998779297</ele>
        <time>2023-06-18T09:30:51Z</time>
      </trkpt>
      <trkpt lat="49.43326" lon="5.76097">
        <ele>339.79998779297</ele>
        <time>2023-06-18T09:30:53Z</time>
      </trkpt>
      <trkpt lat="49.43333" lon="5.761">
        <ele>339.79998779297</ele>
        <time>2023-06-18T09:30:55Z</time>
      </trkpt>
      <trkpt lat="49.4334" lon="5.76103">
        <ele>339.79998779297</ele>
        <time>2023-06-18T09:30:57Z</time>
      </trkpt>
      <trkpt lat="49.43343" lon="5.76104">
        <ele>339.79998779297</ele>
        <time>2023-06-18T09:30:58Z</time>
      </trkpt>
      <trkpt lat="49.43347" lon="5.76106">
        <ele>339.79998779297</ele>
        <time>2023-06-18T09:30:59Z</time>
      </trkpt>
      <trkpt lat="49.43353" lon="5.7611">
        <ele>339.79998779297</ele>
        <time>2023-06-18T09:31:01Z</time>
      </trkpt>
      <trkpt lat="49.4336" lon="5.76113">
        <ele>340</ele>
        <time>2023-06-18T09:31:03Z</time>
      </trkpt>
      <trkpt lat="49.43368" lon="5.76117">
        <ele>340.20001220703</ele>
        <time>2023-06-18T09:31:05Z</time>
      </trkpt>
      <trkpt lat="49.43371" lon="5.76119">
        <ele>340.39999389648</ele>
        <time>2023-06-18T09:31:06Z</time>
      </trkpt>
      <trkpt lat="49.43375" lon="5.7612">
        <ele>340.39999389648</ele>
        <time>2023-06-18T09:31:07Z</time>
      </trkpt>
      <trkpt lat="49.43383" lon="5.76123">
        <ele>340.39999389648</ele>
        <time>2023-06-18T09:31:09Z</time>
      </trkpt>
      <trkpt lat="49.43387" lon="5.76124">
        <ele>340.39999389648</ele>
        <time>2023-06-18T09:31:10Z</time>
      </trkpt>
      <trkpt lat="49.43391" lon="5.76125">
        <ele>340.39999389648</ele>
        <time>2023-06-18T09:31:11Z</time>
      </trkpt>
      <trkpt lat="49.43395" lon="5.76126">
        <ele>340.39999389648</ele>
        <time>2023-06-18T09:31:12Z</time>
      </trkpt>
      <trkpt lat="49.434" lon="5.76126">
        <ele>340.39999389648</ele>
        <time>2023-06-18T09:31:13Z</time>
      </trkpt>
      <trkpt lat="49.43411" lon="5.76126">
        <ele>340.39999389648</ele>
        <time>2023-06-18T09:31:15Z</time>
      </trkpt>
      <trkpt lat="49.43421" lon="5.76123">
        <ele>340.39999389648</ele>
        <time>2023-06-18T09:31:17Z</time>
      </trkpt>
      <trkpt lat="49.43432" lon="5.76117">
        <ele>340.20001220703</ele>
        <time>2023-06-18T09:31:19Z</time>
      </trkpt>
      <trkpt lat="49.4344" lon="5.76108">
        <ele>339.60000610352</ele>
        <time>2023-06-18T09:31:21Z</time>
      </trkpt>
      <trkpt lat="49.43443" lon="5.76104">
        <ele>339.20001220703</ele>
        <time>2023-06-18T09:31:22Z</time>
      </trkpt>
      <trkpt lat="49.43446" lon="5.761">
        <ele>339</ele>
        <time>2023-06-18T09:31:23Z</time>
      </trkpt>
      <trkpt lat="49.43448" lon="5.76094">
        <ele>338.60000610352</ele>
        <time>2023-06-18T09:31:25Z</time>
      </trkpt>
      <trkpt lat="49.43447" lon="5.76092">
        <ele>338.60000610352</ele>
        <time>2023-06-18T09:31:27Z</time>
      </trkpt>
      <trkpt lat="49.43445" lon="5.76088">
        <ele>338.39999389648</ele>
        <time>2023-06-18T09:31:29Z</time>
      </trkpt>
      <trkpt lat="49.43445" lon="5.76082">
        <ele>338.39999389648</ele>
        <time>2023-06-18T09:31:31Z</time>
      </trkpt>
      <trkpt lat="49.43445" lon="5.76075">
        <ele>338.39999389648</ele>
        <time>2023-06-18T09:31:33Z</time>
      </trkpt>
      <trkpt lat="49.43445" lon="5.76071">
        <ele>338.39999389648</ele>
        <time>2023-06-18T09:31:34Z</time>
      </trkpt>
      <trkpt lat="49.43446" lon="5.76067">
        <ele>338.39999389648</ele>
        <time>2023-06-18T09:31:35Z</time>
      </trkpt>
      <trkpt lat="49.4345" lon="5.76058">
        <ele>338.39999389648</ele>
        <time>2023-06-18T09:31:37Z</time>
      </trkpt>
      <trkpt lat="49.43455" lon="5.76053">
        <ele>338.39999389648</ele>
        <time>2023-06-18T09:31:39Z</time>
      </trkpt>
      <trkpt lat="49.43461" lon="5.76051">
        <ele>338.20001220703</ele>
        <time>2023-06-18T09:31:41Z</time>
      </trkpt>
      <trkpt lat="49.43466" lon="5.76049">
        <ele>338</ele>
        <time>2023-06-18T09:31:43Z</time>
      </trkpt>
      <trkpt lat="49.43469" lon="5.76048">
        <ele>338</ele>
        <time>2023-06-18T09:31:44Z</time>
      </trkpt>
      <trkpt lat="49.43472" lon="5.76048">
        <ele>338</ele>
        <time>2023-06-18T09:31:45Z</time>
      </trkpt>
      <trkpt lat="49.43479" lon="5.76047">
        <ele>338</ele>
        <time>2023-06-18T09:31:47Z</time>
      </trkpt>
      <trkpt lat="49.43488" lon="5.76046">
        <ele>338</ele>
        <time>2023-06-18T09:31:49Z</time>
      </trkpt>
      <trkpt lat="49.43492" lon="5.76045">
        <ele>338</ele>
        <time>2023-06-18T09:31:50Z</time>
      </trkpt>
      <trkpt lat="49.43496" lon="5.76044">
        <ele>338</ele>
        <time>2023-06-18T09:31:51Z</time>
      </trkpt>
      <trkpt lat="49.43505" lon="5.76043">
        <ele>338</ele>
        <time>2023-06-18T09:31:53Z</time>
      </trkpt>
      <trkpt lat="49.43513" lon="5.76041">
        <ele>337.79998779297</ele>
        <time>2023-06-18T09:31:55Z</time>
      </trkpt>
      <trkpt lat="49.43521" lon="5.7604">
        <ele>337.79998779297</ele>
        <time>2023-06-18T09:31:57Z</time>
      </trkpt>
      <trkpt lat="49.43525" lon="5.7604">
        <ele>337.79998779297</ele>
        <time>2023-06-18T09:31:58Z</time>
      </trkpt>
      <trkpt lat="49.43529" lon="5.76039">
        <ele>337.79998779297</ele>
        <time>2023-06-18T09:31:59Z</time>
      </trkpt>
      <trkpt lat="49.43537" lon="5.76038">
        <ele>337.60000610352</ele>
        <time>2023-06-18T09:32:01Z</time>
      </trkpt>
      <trkpt lat="49.43545" lon="5.76037">
        <ele>337.60000610352</ele>
        <time>2023-06-18T09:32:03Z</time>
      </trkpt>
      <trkpt lat="49.43554" lon="5.76035">
        <ele>337.60000610352</ele>
        <time>2023-06-18T09:32:05Z</time>
      </trkpt>
      <trkpt lat="49.43562" lon="5.76032">
        <ele>337.39999389648</ele>
        <time>2023-06-18T09:32:07Z</time>
      </trkpt>
      <trkpt lat="49.4357" lon="5.76025">
        <ele>337.20001220703</ele>
        <time>2023-06-18T09:32:09Z</time>
      </trkpt>
      <trkpt lat="49.43574" lon="5.7602">
        <ele>337.20001220703</ele>
        <time>2023-06-18T09:32:10Z</time>
      </trkpt>
      <trkpt lat="49.43577" lon="5.76014">
        <ele>337.20001220703</ele>
        <time>2023-06-18T09:32:11Z</time>
      </trkpt>
      <trkpt lat="49.43581" lon="5.76008">
        <ele>337</ele>
        <time>2023-06-18T09:32:12Z</time>
      </trkpt>
      <trkpt lat="49.43585" lon="5.76">
        <ele>336.79998779297</ele>
        <time>2023-06-18T09:32:13Z</time>
      </trkpt>
      <trkpt lat="49.43591" lon="5.75981">
        <ele>336.39999389648</ele>
        <time>2023-06-18T09:32:15Z</time>
      </trkpt>
      <trkpt lat="49.43593" lon="5.75971">
        <ele>336.20001220703</ele>
        <time>2023-06-18T09:32:16Z</time>
      </trkpt>
      <trkpt lat="49.43596" lon="5.7596">
        <ele>336.20001220703</ele>
        <time>2023-06-18T09:32:17Z</time>
      </trkpt>
      <trkpt lat="49.436" lon="5.75936">
        <ele>335.20001220703</ele>
        <time>2023-06-18T09:32:19Z</time>
      </trkpt>
      <trkpt lat="49.43603" lon="5.75923">
        <ele>334.60000610352</ele>
        <time>2023-06-18T09:32:20Z</time>
      </trkpt>
      <trkpt lat="49.43605" lon="5.7591">
        <ele>334.20001220703</ele>
        <time>2023-06-18T09:32:21Z</time>
      </trkpt>
      <trkpt lat="49.4361" lon="5.75887">
        <ele>333.20001220703</ele>
        <time>2023-06-18T09:32:23Z</time>
      </trkpt>
      <trkpt lat="49.43613" lon="5.75878">
        <ele>332.60000610352</ele>
        <time>2023-06-18T09:32:24Z</time>
      </trkpt>
      <trkpt lat="49.43616" lon="5.7587">
        <ele>331.79998779297</ele>
        <time>2023-06-18T09:32:25Z</time>
      </trkpt>
      <trkpt lat="49.43625" lon="5.75856">
        <ele>330.20001220703</ele>
        <time>2023-06-18T09:32:27Z</time>
      </trkpt>
      <trkpt lat="49.4363" lon="5.75851">
        <ele>329.60000610352</ele>
        <time>2023-06-18T09:32:28Z</time>
      </trkpt>
      <trkpt lat="49.43636" lon="5.75847">
        <ele>329</ele>
        <time>2023-06-18T09:32:29Z</time>
      </trkpt>
      <trkpt lat="49.43645" lon="5.75836">
        <ele>328</ele>
        <time>2023-06-18T09:32:31Z</time>
      </trkpt>
      <trkpt lat="49.43649" lon="5.75831">
        <ele>327.60000610352</ele>
        <time>2023-06-18T09:32:32Z</time>
      </trkpt>
      <trkpt lat="49.43653" lon="5.75826">
        <ele>327.60000610352</ele>
        <time>2023-06-18T09:32:33Z</time>
      </trkpt>
      <trkpt lat="49.4366" lon="5.75815">
        <ele>327.39999389648</ele>
        <time>2023-06-18T09:32:35Z</time>
      </trkpt>
      <trkpt lat="49.43665" lon="5.75805">
        <ele>327.39999389648</ele>
        <time>2023-06-18T09:32:37Z</time>
      </trkpt>
      <trkpt lat="49.4367" lon="5.75797">
        <ele>327.39999389648</ele>
        <time>2023-06-18T09:32:39Z</time>
      </trkpt>
      <trkpt lat="49.43674" lon="5.75787">
        <ele>327.60000610352</ele>
        <time>2023-06-18T09:32:41Z</time>
      </trkpt>
      <trkpt lat="49.43679" lon="5.75776">
        <ele>327.79998779297</ele>
        <time>2023-06-18T09:32:43Z</time>
      </trkpt>
      <trkpt lat="49.43683" lon="5.75767">
        <ele>328.39999389648</ele>
        <time>2023-06-18T09:32:45Z</time>
      </trkpt>
      <trkpt lat="49.4369" lon="5.75757">
        <ele>328.60000610352</ele>
        <time>2023-06-18T09:32:47Z</time>
      </trkpt>
      <trkpt lat="49.43693" lon="5.75752">
        <ele>328.79998779297</ele>
        <time>2023-06-18T09:32:48Z</time>
      </trkpt>
      <trkpt lat="49.43697" lon="5.75749">
        <ele>328.79998779297</ele>
        <time>2023-06-18T09:32:49Z</time>
      </trkpt>
      <trkpt lat="49.43704" lon="5.75743">
        <ele>329</ele>
        <time>2023-06-18T09:32:51Z</time>
      </trkpt>
      <trkpt lat="49.43711" lon="5.75739">
        <ele>329.20001220703</ele>
        <time>2023-06-18T09:32:53Z</time>
      </trkpt>
      <trkpt lat="49.43718" lon="5.75736">
        <ele>329.39999389648</ele>
        <time>2023-06-18T09:32:55Z</time>
      </trkpt>
      <trkpt lat="49.43722" lon="5.75735">
        <ele>329.39999389648</ele>
        <time>2023-06-18T09:32:56Z</time>
      </trkpt>
      <trkpt lat="49.43726" lon="5.75734">
        <ele>329.39999389648</ele>
        <time>2023-06-18T09:32:57Z</time>
      </trkpt>
      <trkpt lat="49.43735" lon="5.75731">
        <ele>329.60000610352</ele>
        <time>2023-06-18T09:32:59Z</time>
      </trkpt>
      <trkpt lat="49.43743" lon="5.75729">
        <ele>329.60000610352</ele>
        <time>2023-06-18T09:33:01Z</time>
      </trkpt>
      <trkpt lat="49.43749" lon="5.75727">
        <ele>329.60000610352</ele>
        <time>2023-06-18T09:33:03Z</time>
      </trkpt>
      <trkpt lat="49.43756" lon="5.75726">
        <ele>329.79998779297</ele>
        <time>2023-06-18T09:33:05Z</time>
      </trkpt>
      <trkpt lat="49.43762" lon="5.75724">
        <ele>329.79998779297</ele>
        <time>2023-06-18T09:33:07Z</time>
      </trkpt>
      <trkpt lat="49.43768" lon="5.75723">
        <ele>330.20001220703</ele>
        <time>2023-06-18T09:33:09Z</time>
      </trkpt>
      <trkpt lat="49.43771" lon="5.75722">
        <ele>330.39999389648</ele>
        <time>2023-06-18T09:33:10Z</time>
      </trkpt>
      <trkpt lat="49.43774" lon="5.75722">
        <ele>330.60000610352</ele>
        <time>2023-06-18T09:33:11Z</time>
      </trkpt>
      <trkpt lat="49.4378" lon="5.7572">
        <ele>330.79998779297</ele>
        <time>2023-06-18T09:33:13Z</time>
      </trkpt>
      <trkpt lat="49.43786" lon="5.75718">
        <ele>331.20001220703</ele>
        <time>2023-06-18T09:33:15Z</time>
      </trkpt>
      <trkpt lat="49.43792" lon="5.75717">
        <ele>331.39999389648</ele>
        <time>2023-06-18T09:33:17Z</time>
      </trkpt>
      <trkpt lat="49.43797" lon="5.75715">
        <ele>331.39999389648</ele>
        <time>2023-06-18T09:33:19Z</time>
      </trkpt>
      <trkpt lat="49.43803" lon="5.75712">
        <ele>331.60000610352</ele>
        <time>2023-06-18T09:33:21Z</time>
      </trkpt>
      <trkpt lat="49.43809" lon="5.7571">
        <ele>332</ele>
        <time>2023-06-18T09:33:23Z</time>
      </trkpt>
      <trkpt lat="49.43815" lon="5.75708">
        <ele>332.20001220703</ele>
        <time>2023-06-18T09:33:25Z</time>
      </trkpt>
      <trkpt lat="49.43821" lon="5.75706">
        <ele>332.20001220703</ele>
        <time>2023-06-18T09:33:27Z</time>
      </trkpt>
      <trkpt lat="49.43827" lon="5.75704">
        <ele>332.39999389648</ele>
        <time>2023-06-18T09:33:29Z</time>
      </trkpt>
      <trkpt lat="49.4383" lon="5.75703">
        <ele>332.39999389648</ele>
        <time>2023-06-18T09:33:30Z</time>
      </trkpt>
      <trkpt lat="49.43833" lon="5.75702">
        <ele>332.60000610352</ele>
        <time>2023-06-18T09:33:31Z</time>
      </trkpt>
      <trkpt lat="49.43839" lon="5.75698">
        <ele>332.60000610352</ele>
        <time>2023-06-18T09:33:33Z</time>
      </trkpt>
      <trkpt lat="49.43846" lon="5.75695">
        <ele>332.79998779297</ele>
        <time>2023-06-18T09:33:35Z</time>
      </trkpt>
      <trkpt lat="49.43853" lon="5.75692">
        <ele>332.79998779297</ele>
        <time>2023-06-18T09:33:37Z</time>
      </trkpt>
      <trkpt lat="49.43857" lon="5.7569">
        <ele>332.79998779297</ele>
        <time>2023-06-18T09:33:38Z</time>
      </trkpt>
      <trkpt lat="49.43861" lon="5.75688">
        <ele>332.79998779297</ele>
        <time>2023-06-18T09:33:39Z</time>
      </trkpt>
      <trkpt lat="49.43869" lon="5.75684">
        <ele>332.60000610352</ele>
        <time>2023-06-18T09:33:41Z</time>
      </trkpt>
      <trkpt lat="49.43877" lon="5.7568">
        <ele>332.60000610352</ele>
        <time>2023-06-18T09:33:43Z</time>
      </trkpt>
      <trkpt lat="49.43881" lon="5.75677">
        <ele>332.20001220703</ele>
        <time>2023-06-18T09:33:44Z</time>
      </trkpt>
      <trkpt lat="49.43886" lon="5.75675">
        <ele>331.79998779297</ele>
        <time>2023-06-18T09:33:45Z</time>
      </trkpt>
      <trkpt lat="49.43894" lon="5.75671">
        <ele>331.20001220703</ele>
        <time>2023-06-18T09:33:47Z</time>
      </trkpt>
      <trkpt lat="49.439" lon="5.75664">
        <ele>330.79998779297</ele>
        <time>2023-06-18T09:33:49Z</time>
      </trkpt>
      <trkpt lat="49.43903" lon="5.7566">
        <ele>330.79998779297</ele>
        <time>2023-06-18T09:33:50Z</time>
      </trkpt>
      <trkpt lat="49.43906" lon="5.75656">
        <ele>330.60000610352</ele>
        <time>2023-06-18T09:33:51Z</time>
      </trkpt>
      <trkpt lat="49.43912" lon="5.75648">
        <ele>330.39999389648</ele>
        <time>2023-06-18T09:33:53Z</time>
      </trkpt>
      <trkpt lat="49.43918" lon="5.75642">
        <ele>330.39999389648</ele>
        <time>2023-06-18T09:33:55Z</time>
      </trkpt>
      <trkpt lat="49.43925" lon="5.75639">
        <ele>330.39999389648</ele>
        <time>2023-06-18T09:33:57Z</time>
      </trkpt>
      <trkpt lat="49.43933" lon="5.75636">
        <ele>330.39999389648</ele>
        <time>2023-06-18T09:33:59Z</time>
      </trkpt>
      <trkpt lat="49.43941" lon="5.75633">
        <ele>330.39999389648</ele>
        <time>2023-06-18T09:34:01Z</time>
      </trkpt>
      <trkpt lat="49.43948" lon="5.7563">
        <ele>330.60000610352</ele>
        <time>2023-06-18T09:34:03Z</time>
      </trkpt>
      <trkpt lat="49.43956" lon="5.75627">
        <ele>330.60000610352</ele>
        <time>2023-06-18T09:34:05Z</time>
      </trkpt>
      <trkpt lat="49.4396" lon="5.75625">
        <ele>330.60000610352</ele>
        <time>2023-06-18T09:34:06Z</time>
      </trkpt>
      <trkpt lat="49.43964" lon="5.75624">
        <ele>330.60000610352</ele>
        <time>2023-06-18T09:34:07Z</time>
      </trkpt>
      <trkpt lat="49.43971" lon="5.7562">
        <ele>330.79998779297</ele>
        <time>2023-06-18T09:34:09Z</time>
      </trkpt>
      <trkpt lat="49.43978" lon="5.75617">
        <ele>331</ele>
        <time>2023-06-18T09:34:11Z</time>
      </trkpt>
      <trkpt lat="49.43986" lon="5.75615">
        <ele>331.39999389648</ele>
        <time>2023-06-18T09:34:13Z</time>
      </trkpt>
      <trkpt lat="49.43993" lon="5.75613">
        <ele>331.60000610352</ele>
        <time>2023-06-18T09:34:15Z</time>
      </trkpt>
      <trkpt lat="49.43997" lon="5.75612">
        <ele>331.79998779297</ele>
        <time>2023-06-18T09:34:16Z</time>
      </trkpt>
      <trkpt lat="49.44" lon="5.75611">
        <ele>332</ele>
        <time>2023-06-18T09:34:17Z</time>
      </trkpt>
      <trkpt lat="49.44007" lon="5.75609">
        <ele>332.20001220703</ele>
        <time>2023-06-18T09:34:19Z</time>
      </trkpt>
      <trkpt lat="49.44014" lon="5.75604">
        <ele>332.39999389648</ele>
        <time>2023-06-18T09:34:21Z</time>
      </trkpt>
      <trkpt lat="49.4402" lon="5.75599">
        <ele>332.79998779297</ele>
        <time>2023-06-18T09:34:23Z</time>
      </trkpt>
      <trkpt lat="49.44023" lon="5.75597">
        <ele>333</ele>
        <time>2023-06-18T09:34:24Z</time>
      </trkpt>
      <trkpt lat="49.44026" lon="5.75595">
        <ele>333.20001220703</ele>
        <time>2023-06-18T09:34:25Z</time>
      </trkpt>
      <trkpt lat="49.44031" lon="5.75591">
        <ele>333.60000610352</ele>
        <time>2023-06-18T09:34:27Z</time>
      </trkpt>
      <trkpt lat="49.44033" lon="5.7559">
        <ele>333.79998779297</ele>
        <time>2023-06-18T09:34:28Z</time>
      </trkpt>
      <trkpt lat="49.44036" lon="5.75589">
        <ele>334</ele>
        <time>2023-06-18T09:34:29Z</time>
      </trkpt>
      <trkpt lat="49.44038" lon="5.75588">
        <ele>334.20001220703</ele>
        <time>2023-06-18T09:34:30Z</time>
      </trkpt>
      <trkpt lat="49.44041" lon="5.75587">
        <ele>334.20001220703</ele>
        <time>2023-06-18T09:34:31Z</time>
      </trkpt>
      <trkpt lat="49.44046" lon="5.75586">
        <ele>334.60000610352</ele>
        <time>2023-06-18T09:34:33Z</time>
      </trkpt>
      <trkpt lat="49.44052" lon="5.75584">
        <ele>335.39999389648</ele>
        <time>2023-06-18T09:34:35Z</time>
      </trkpt>
      <trkpt lat="49.44057" lon="5.75583">
        <ele>335.79998779297</ele>
        <time>2023-06-18T09:34:37Z</time>
      </trkpt>
      <trkpt lat="49.44061" lon="5.7558">
        <ele>336</ele>
        <time>2023-06-18T09:34:39Z</time>
      </trkpt>
      <trkpt lat="49.44067" lon="5.75577">
        <ele>336</ele>
        <time>2023-06-18T09:34:41Z</time>
      </trkpt>
      <trkpt lat="49.4407" lon="5.75576">
        <ele>336.20001220703</ele>
        <time>2023-06-18T09:34:42Z</time>
      </trkpt>
      <trkpt lat="49.44072" lon="5.75575">
        <ele>336.39999389648</ele>
        <time>2023-06-18T09:34:43Z</time>
      </trkpt>
      <trkpt lat="49.44078" lon="5.75572">
        <ele>336.79998779297</ele>
        <time>2023-06-18T09:34:45Z</time>
      </trkpt>
      <trkpt lat="49.44083" lon="5.7557">
        <ele>336.79998779297</ele>
        <time>2023-06-18T09:34:47Z</time>
      </trkpt>
      <trkpt lat="49.44089" lon="5.75567">
        <ele>337</ele>
        <time>2023-06-18T09:34:49Z</time>
      </trkpt>
      <trkpt lat="49.44095" lon="5.75564">
        <ele>337.20001220703</ele>
        <time>2023-06-18T09:34:51Z</time>
      </trkpt>
      <trkpt lat="49.44098" lon="5.75562">
        <ele>337.20001220703</ele>
        <time>2023-06-18T09:34:52Z</time>
      </trkpt>
      <trkpt lat="49.44101" lon="5.7556">
        <ele>337.20001220703</ele>
        <time>2023-06-18T09:34:53Z</time>
      </trkpt>
      <trkpt lat="49.44107" lon="5.75558">
        <ele>337.39999389648</ele>
        <time>2023-06-18T09:34:55Z</time>
      </trkpt>
      <trkpt lat="49.44112" lon="5.75555">
        <ele>337.39999389648</ele>
        <time>2023-06-18T09:34:57Z</time>
      </trkpt>
      <trkpt lat="49.44115" lon="5.75553">
        <ele>337.60000610352</ele>
        <time>2023-06-18T09:34:58Z</time>
      </trkpt>
      <trkpt lat="49.44118" lon="5.75552">
        <ele>337.60000610352</ele>
        <time>2023-06-18T09:34:59Z</time>
      </trkpt>
      <trkpt lat="49.44121" lon="5.7555">
        <ele>337.79998779297</ele>
        <time>2023-06-18T09:35:00Z</time>
      </trkpt>
      <trkpt lat="49.44124" lon="5.75548">
        <ele>337.79998779297</ele>
        <time>2023-06-18T09:35:01Z</time>
      </trkpt>
      <trkpt lat="49.4413" lon="5.75546">
        <ele>338</ele>
        <time>2023-06-18T09:35:03Z</time>
      </trkpt>
      <trkpt lat="49.44135" lon="5.75543">
        <ele>338.20001220703</ele>
        <time>2023-06-18T09:35:05Z</time>
      </trkpt>
      <trkpt lat="49.4414" lon="5.75541">
        <ele>338.20001220703</ele>
        <time>2023-06-18T09:35:07Z</time>
      </trkpt>
      <trkpt lat="49.44145" lon="5.75538">
        <ele>338.39999389648</ele>
        <time>2023-06-18T09:35:09Z</time>
      </trkpt>
      <trkpt lat="49.44149" lon="5.75536">
        <ele>338.39999389648</ele>
        <time>2023-06-18T09:35:11Z</time>
      </trkpt>
      <trkpt lat="49.44152" lon="5.75533">
        <ele>338.60000610352</ele>
        <time>2023-06-18T09:35:13Z</time>
      </trkpt>
      <trkpt lat="49.44156" lon="5.75532">
        <ele>338.79998779297</ele>
        <time>2023-06-18T09:35:15Z</time>
      </trkpt>
      <trkpt lat="49.44161" lon="5.7553">
        <ele>338.79998779297</ele>
        <time>2023-06-18T09:35:17Z</time>
      </trkpt>
      <trkpt lat="49.44165" lon="5.75528">
        <ele>339</ele>
        <time>2023-06-18T09:35:19Z</time>
      </trkpt>
      <trkpt lat="49.44169" lon="5.75525">
        <ele>339.20001220703</ele>
        <time>2023-06-18T09:35:21Z</time>
      </trkpt>
      <trkpt lat="49.44174" lon="5.75523">
        <ele>339.20001220703</ele>
        <time>2023-06-18T09:35:23Z</time>
      </trkpt>
      <trkpt lat="49.44178" lon="5.7552">
        <ele>339.39999389648</ele>
        <time>2023-06-18T09:35:25Z</time>
      </trkpt>
      <trkpt lat="49.44183" lon="5.75517">
        <ele>339.60000610352</ele>
        <time>2023-06-18T09:35:27Z</time>
      </trkpt>
      <trkpt lat="49.44187" lon="5.75515">
        <ele>339.60000610352</ele>
        <time>2023-06-18T09:35:29Z</time>
      </trkpt>
      <trkpt lat="49.44191" lon="5.75511">
        <ele>339.79998779297</ele>
        <time>2023-06-18T09:35:31Z</time>
      </trkpt>
      <trkpt lat="49.44196" lon="5.75508">
        <ele>340.20001220703</ele>
        <time>2023-06-18T09:35:33Z</time>
      </trkpt>
      <trkpt lat="49.442" lon="5.75505">
        <ele>340.20001220703</ele>
        <time>2023-06-18T09:35:35Z</time>
      </trkpt>
      <trkpt lat="49.44204" lon="5.755">
        <ele>340.39999389648</ele>
        <time>2023-06-18T09:35:37Z</time>
      </trkpt>
      <trkpt lat="49.44209" lon="5.75496">
        <ele>340.60000610352</ele>
        <time>2023-06-18T09:35:39Z</time>
      </trkpt>
      <trkpt lat="49.44213" lon="5.7549">
        <ele>340.79998779297</ele>
        <time>2023-06-18T09:35:41Z</time>
      </trkpt>
      <trkpt lat="49.44217" lon="5.75484">
        <ele>340.79998779297</ele>
        <time>2023-06-18T09:35:43Z</time>
      </trkpt>
      <trkpt lat="49.44222" lon="5.75477">
        <ele>341</ele>
        <time>2023-06-18T09:35:45Z</time>
      </trkpt>
      <trkpt lat="49.44227" lon="5.75471">
        <ele>341.20001220703</ele>
        <time>2023-06-18T09:35:47Z</time>
      </trkpt>
      <trkpt lat="49.44232" lon="5.75464">
        <ele>341.20001220703</ele>
        <time>2023-06-18T09:35:49Z</time>
      </trkpt>
      <trkpt lat="49.44237" lon="5.75456">
        <ele>341.20001220703</ele>
        <time>2023-06-18T09:35:51Z</time>
      </trkpt>
      <trkpt lat="49.44243" lon="5.75449">
        <ele>341.20001220703</ele>
        <time>2023-06-18T09:35:53Z</time>
      </trkpt>
      <trkpt lat="49.44248" lon="5.75441">
        <ele>341.39999389648</ele>
        <time>2023-06-18T09:35:55Z</time>
      </trkpt>
      <trkpt lat="49.44251" lon="5.75437">
        <ele>341.39999389648</ele>
        <time>2023-06-18T09:35:56Z</time>
      </trkpt>
      <trkpt lat="49.44253" lon="5.75434">
        <ele>341.39999389648</ele>
        <time>2023-06-18T09:35:57Z</time>
      </trkpt>
      <trkpt lat="49.44259" lon="5.75427">
        <ele>341.39999389648</ele>
        <time>2023-06-18T09:35:59Z</time>
      </trkpt>
      <trkpt lat="49.44266" lon="5.7542">
        <ele>341.39999389648</ele>
        <time>2023-06-18T09:36:01Z</time>
      </trkpt>
      <trkpt lat="49.44269" lon="5.75417">
        <ele>341.39999389648</ele>
        <time>2023-06-18T09:36:02Z</time>
      </trkpt>
      <trkpt lat="49.44272" lon="5.75414">
        <ele>341.39999389648</ele>
        <time>2023-06-18T09:36:03Z</time>
      </trkpt>
      <trkpt lat="49.44279" lon="5.75408">
        <ele>341.39999389648</ele>
        <time>2023-06-18T09:36:05Z</time>
      </trkpt>
      <trkpt lat="49.44286" lon="5.75403">
        <ele>341.39999389648</ele>
        <time>2023-06-18T09:36:07Z</time>
      </trkpt>
      <trkpt lat="49.44293" lon="5.75398">
        <ele>341.39999389648</ele>
        <time>2023-06-18T09:36:09Z</time>
      </trkpt>
      <trkpt lat="49.44296" lon="5.75395">
        <ele>341.39999389648</ele>
        <time>2023-06-18T09:36:10Z</time>
      </trkpt>
      <trkpt lat="49.443" lon="5.75393">
        <ele>341.39999389648</ele>
        <time>2023-06-18T09:36:11Z</time>
      </trkpt>
      <trkpt lat="49.44308" lon="5.75387">
        <ele>341.39999389648</ele>
        <time>2023-06-18T09:36:13Z</time>
      </trkpt>
      <trkpt lat="49.44315" lon="5.75382">
        <ele>341.39999389648</ele>
        <time>2023-06-18T09:36:15Z</time>
      </trkpt>
      <trkpt lat="49.44323" lon="5.75376">
        <ele>341.39999389648</ele>
        <time>2023-06-18T09:36:17Z</time>
      </trkpt>
      <trkpt lat="49.44332" lon="5.75371">
        <ele>341.39999389648</ele>
        <time>2023-06-18T09:36:19Z</time>
      </trkpt>
      <trkpt lat="49.4434" lon="5.75364">
        <ele>341.39999389648</ele>
        <time>2023-06-18T09:36:21Z</time>
      </trkpt>
      <trkpt lat="49.44349" lon="5.75358">
        <ele>341</ele>
        <time>2023-06-18T09:36:23Z</time>
      </trkpt>
      <trkpt lat="49.44358" lon="5.75351">
        <ele>340.79998779297</ele>
        <time>2023-06-18T09:36:25Z</time>
      </trkpt>
      <trkpt lat="49.44366" lon="5.75344">
        <ele>340.39999389648</ele>
        <time>2023-06-18T09:36:27Z</time>
      </trkpt>
      <trkpt lat="49.4437" lon="5.7534">
        <ele>340.20001220703</ele>
        <time>2023-06-18T09:36:28Z</time>
      </trkpt>
      <trkpt lat="49.44374" lon="5.75336">
        <ele>340</ele>
        <time>2023-06-18T09:36:29Z</time>
      </trkpt>
      <trkpt lat="49.44382" lon="5.75327">
        <ele>339.79998779297</ele>
        <time>2023-06-18T09:36:31Z</time>
      </trkpt>
      <trkpt lat="49.4439" lon="5.75319">
        <ele>339.79998779297</ele>
        <time>2023-06-18T09:36:33Z</time>
      </trkpt>
      <trkpt lat="49.44398" lon="5.75309">
        <ele>339.60000610352</ele>
        <time>2023-06-18T09:36:35Z</time>
      </trkpt>
      <trkpt lat="49.44406" lon="5.753">
        <ele>339.60000610352</ele>
        <time>2023-06-18T09:36:37Z</time>
      </trkpt>
      <trkpt lat="49.44413" lon="5.7529">
        <ele>339.39999389648</ele>
        <time>2023-06-18T09:36:39Z</time>
      </trkpt>
      <trkpt lat="49.4442" lon="5.7528">
        <ele>339.39999389648</ele>
        <time>2023-06-18T09:36:41Z</time>
      </trkpt>
      <trkpt lat="49.44427" lon="5.7527">
        <ele>339.39999389648</ele>
        <time>2023-06-18T09:36:43Z</time>
      </trkpt>
      <trkpt lat="49.44434" lon="5.7526">
        <ele>339.39999389648</ele>
        <time>2023-06-18T09:36:45Z</time>
      </trkpt>
      <trkpt lat="49.44441" lon="5.75251">
        <ele>339.20001220703</ele>
        <time>2023-06-18T09:36:47Z</time>
      </trkpt>
      <trkpt lat="49.44445" lon="5.75246">
        <ele>339.39999389648</ele>
        <time>2023-06-18T09:36:48Z</time>
      </trkpt>
      <trkpt lat="49.44448" lon="5.75241">
        <ele>339.39999389648</ele>
        <time>2023-06-18T09:36:49Z</time>
      </trkpt>
      <trkpt lat="49.44455" lon="5.75231">
        <ele>339.20001220703</ele>
        <time>2023-06-18T09:36:51Z</time>
      </trkpt>
      <trkpt lat="49.44462" lon="5.75222">
        <ele>339</ele>
        <time>2023-06-18T09:36:53Z</time>
      </trkpt>
      <trkpt lat="49.44469" lon="5.75212">
        <ele>339</ele>
        <time>2023-06-18T09:36:55Z</time>
      </trkpt>
      <trkpt lat="49.44476" lon="5.75202">
        <ele>339</ele>
        <time>2023-06-18T09:36:57Z</time>
      </trkpt>
      <trkpt lat="49.4448" lon="5.75197">
        <ele>339</ele>
        <time>2023-06-18T09:36:58Z</time>
      </trkpt>
      <trkpt lat="49.44483" lon="5.75192">
        <ele>339.39999389648</ele>
        <time>2023-06-18T09:36:59Z</time>
      </trkpt>
      <trkpt lat="49.4449" lon="5.75182">
        <ele>339.39999389648</ele>
        <time>2023-06-18T09:37:01Z</time>
      </trkpt>
      <trkpt lat="49.44496" lon="5.75172">
        <ele>339.60000610352</ele>
        <time>2023-06-18T09:37:03Z</time>
      </trkpt>
      <trkpt lat="49.44503" lon="5.75162">
        <ele>339.60000610352</ele>
        <time>2023-06-18T09:37:05Z</time>
      </trkpt>
      <trkpt lat="49.4451" lon="5.75151">
        <ele>339.39999389648</ele>
        <time>2023-06-18T09:37:07Z</time>
      </trkpt>
      <trkpt lat="49.44516" lon="5.75141">
        <ele>339.60000610352</ele>
        <time>2023-06-18T09:37:09Z</time>
      </trkpt>
      <trkpt lat="49.44523" lon="5.75131">
        <ele>339.79998779297</ele>
        <time>2023-06-18T09:37:11Z</time>
      </trkpt>
      <trkpt lat="49.44529" lon="5.75121">
        <ele>339.79998779297</ele>
        <time>2023-06-18T09:37:13Z</time>
      </trkpt>
      <trkpt lat="49.44536" lon="5.75111">
        <ele>339.79998779297</ele>
        <time>2023-06-18T09:37:15Z</time>
      </trkpt>
      <trkpt lat="49.44544" lon="5.751">
        <ele>339.79998779297</ele>
        <time>2023-06-18T09:37:17Z</time>
      </trkpt>
      <trkpt lat="49.44551" lon="5.75089">
        <ele>339.60000610352</ele>
        <time>2023-06-18T09:37:19Z</time>
      </trkpt>
      <trkpt lat="49.44558" lon="5.75079">
        <ele>339.60000610352</ele>
        <time>2023-06-18T09:37:21Z</time>
      </trkpt>
      <trkpt lat="49.44566" lon="5.75069">
        <ele>339.60000610352</ele>
        <time>2023-06-18T09:37:23Z</time>
      </trkpt>
      <trkpt lat="49.44574" lon="5.75059">
        <ele>339.60000610352</ele>
        <time>2023-06-18T09:37:25Z</time>
      </trkpt>
      <trkpt lat="49.44583" lon="5.75049">
        <ele>339.39999389648</ele>
        <time>2023-06-18T09:37:27Z</time>
      </trkpt>
      <trkpt lat="49.44592" lon="5.75039">
        <ele>339.39999389648</ele>
        <time>2023-06-18T09:37:29Z</time>
      </trkpt>
      <trkpt lat="49.446" lon="5.75028">
        <ele>339.20001220703</ele>
        <time>2023-06-18T09:37:31Z</time>
      </trkpt>
      <trkpt lat="49.44609" lon="5.75019">
        <ele>338.79998779297</ele>
        <time>2023-06-18T09:37:33Z</time>
      </trkpt>
      <trkpt lat="49.44618" lon="5.75008">
        <ele>338.39999389648</ele>
        <time>2023-06-18T09:37:35Z</time>
      </trkpt>
      <trkpt lat="49.44626" lon="5.74998">
        <ele>338.39999389648</ele>
        <time>2023-06-18T09:37:37Z</time>
      </trkpt>
      <trkpt lat="49.44631" lon="5.74992">
        <ele>338.20001220703</ele>
        <time>2023-06-18T09:37:38Z</time>
      </trkpt>
      <trkpt lat="49.44635" lon="5.74987">
        <ele>338.20001220703</ele>
        <time>2023-06-18T09:37:39Z</time>
      </trkpt>
      <trkpt lat="49.44644" lon="5.74977">
        <ele>338.20001220703</ele>
        <time>2023-06-18T09:37:41Z</time>
      </trkpt>
      <trkpt lat="49.44653" lon="5.74965">
        <ele>337.60000610352</ele>
        <time>2023-06-18T09:37:43Z</time>
      </trkpt>
      <trkpt lat="49.4466" lon="5.74952">
        <ele>337.39999389648</ele>
        <time>2023-06-18T09:37:45Z</time>
      </trkpt>
      <trkpt lat="49.44664" lon="5.74945">
        <ele>337.20001220703</ele>
        <time>2023-06-18T09:37:46Z</time>
      </trkpt>
      <trkpt lat="49.44668" lon="5.74938">
        <ele>337</ele>
        <time>2023-06-18T09:37:47Z</time>
      </trkpt>
      <trkpt lat="49.44675" lon="5.74923">
        <ele>336.60000610352</ele>
        <time>2023-06-18T09:37:49Z</time>
      </trkpt>
      <trkpt lat="49.44682" lon="5.74908">
        <ele>336.20001220703</ele>
        <time>2023-06-18T09:37:51Z</time>
      </trkpt>
      <trkpt lat="49.44689" lon="5.74893">
        <ele>335.60000610352</ele>
        <time>2023-06-18T09:37:53Z</time>
      </trkpt>
      <trkpt lat="49.44696" lon="5.74877">
        <ele>335</ele>
        <time>2023-06-18T09:37:55Z</time>
      </trkpt>
      <trkpt lat="49.44702" lon="5.74862">
        <ele>334.20001220703</ele>
        <time>2023-06-18T09:37:57Z</time>
      </trkpt>
      <trkpt lat="49.4471" lon="5.74846">
        <ele>333.60000610352</ele>
        <time>2023-06-18T09:37:59Z</time>
      </trkpt>
      <trkpt lat="49.44716" lon="5.7483">
        <ele>333.39999389648</ele>
        <time>2023-06-18T09:38:01Z</time>
      </trkpt>
      <trkpt lat="49.4472" lon="5.74823">
        <ele>333.20001220703</ele>
        <time>2023-06-18T09:38:02Z</time>
      </trkpt>
      <trkpt lat="49.44724" lon="5.74815">
        <ele>333</ele>
        <time>2023-06-18T09:38:03Z</time>
      </trkpt>
      <trkpt lat="49.44731" lon="5.74799">
        <ele>332.79998779297</ele>
        <time>2023-06-18T09:38:05Z</time>
      </trkpt>
      <trkpt lat="49.44738" lon="5.74783">
        <ele>332.39999389648</ele>
        <time>2023-06-18T09:38:07Z</time>
      </trkpt>
      <trkpt lat="49.44745" lon="5.74767">
        <ele>332.20001220703</ele>
        <time>2023-06-18T09:38:09Z</time>
      </trkpt>
      <trkpt lat="49.44749" lon="5.74759">
        <ele>332</ele>
        <time>2023-06-18T09:38:10Z</time>
      </trkpt>
      <trkpt lat="49.44752" lon="5.74752">
        <ele>332</ele>
        <time>2023-06-18T09:38:11Z</time>
      </trkpt>
      <trkpt lat="49.4476" lon="5.74737">
        <ele>331.60000610352</ele>
        <time>2023-06-18T09:38:13Z</time>
      </trkpt>
      <trkpt lat="49.44763" lon="5.74729">
        <ele>331.39999389648</ele>
        <time>2023-06-18T09:38:14Z</time>
      </trkpt>
      <trkpt lat="49.44768" lon="5.74722">
        <ele>331</ele>
        <time>2023-06-18T09:38:15Z</time>
      </trkpt>
      <trkpt lat="49.44772" lon="5.74715">
        <ele>331</ele>
        <time>2023-06-18T09:38:16Z</time>
      </trkpt>
      <trkpt lat="49.44776" lon="5.74709">
        <ele>331</ele>
        <time>2023-06-18T09:38:17Z</time>
      </trkpt>
      <trkpt lat="49.44786" lon="5.74696">
        <ele>330.79998779297</ele>
        <time>2023-06-18T09:38:19Z</time>
      </trkpt>
      <trkpt lat="49.44796" lon="5.74685">
        <ele>330.79998779297</ele>
        <time>2023-06-18T09:38:21Z</time>
      </trkpt>
      <trkpt lat="49.44805" lon="5.74673">
        <ele>330.60000610352</ele>
        <time>2023-06-18T09:38:23Z</time>
      </trkpt>
      <trkpt lat="49.44814" lon="5.74661">
        <ele>330.60000610352</ele>
        <time>2023-06-18T09:38:25Z</time>
      </trkpt>
      <trkpt lat="49.44823" lon="5.7465">
        <ele>330.39999389648</ele>
        <time>2023-06-18T09:38:27Z</time>
      </trkpt>
      <trkpt lat="49.44831" lon="5.74639">
        <ele>330.20001220703</ele>
        <time>2023-06-18T09:38:29Z</time>
      </trkpt>
      <trkpt lat="49.44835" lon="5.74634">
        <ele>330</ele>
        <time>2023-06-18T09:38:30Z</time>
      </trkpt>
      <trkpt lat="49.44839" lon="5.74629">
        <ele>330</ele>
        <time>2023-06-18T09:38:31Z</time>
      </trkpt>
      <trkpt lat="49.44848" lon="5.74618">
        <ele>329.79998779297</ele>
        <time>2023-06-18T09:38:33Z</time>
      </trkpt>
      <trkpt lat="49.44856" lon="5.74608">
        <ele>329.60000610352</ele>
        <time>2023-06-18T09:38:35Z</time>
      </trkpt>
      <trkpt lat="49.44864" lon="5.74597">
        <ele>329.60000610352</ele>
        <time>2023-06-18T09:38:37Z</time>
      </trkpt>
      <trkpt lat="49.44868" lon="5.74592">
        <ele>329.60000610352</ele>
        <time>2023-06-18T09:38:38Z</time>
      </trkpt>
      <trkpt lat="49.44872" lon="5.74586">
        <ele>329.60000610352</ele>
        <time>2023-06-18T09:38:39Z</time>
      </trkpt>
      <trkpt lat="49.4488" lon="5.74576">
        <ele>329.60000610352</ele>
        <time>2023-06-18T09:38:41Z</time>
      </trkpt>
      <trkpt lat="49.44888" lon="5.74565">
        <ele>329.79998779297</ele>
        <time>2023-06-18T09:38:43Z</time>
      </trkpt>
      <trkpt lat="49.44897" lon="5.74554">
        <ele>329.79998779297</ele>
        <time>2023-06-18T09:38:45Z</time>
      </trkpt>
      <trkpt lat="49.44904" lon="5.74543">
        <ele>330</ele>
        <time>2023-06-18T09:38:47Z</time>
      </trkpt>
      <trkpt lat="49.44913" lon="5.74532">
        <ele>330.20001220703</ele>
        <time>2023-06-18T09:38:49Z</time>
      </trkpt>
      <trkpt lat="49.44921" lon="5.74523">
        <ele>330.39999389648</ele>
        <time>2023-06-18T09:38:51Z</time>
      </trkpt>
      <trkpt lat="49.4493" lon="5.74515">
        <ele>330.39999389648</ele>
        <time>2023-06-18T09:38:53Z</time>
      </trkpt>
      <trkpt lat="49.44934" lon="5.74512">
        <ele>330.60000610352</ele>
        <time>2023-06-18T09:38:54Z</time>
      </trkpt>
      <trkpt lat="49.44938" lon="5.74508">
        <ele>330.60000610352</ele>
        <time>2023-06-18T09:38:55Z</time>
      </trkpt>
      <trkpt lat="49.44947" lon="5.74502">
        <ele>330.60000610352</ele>
        <time>2023-06-18T09:38:57Z</time>
      </trkpt>
      <trkpt lat="49.44955" lon="5.74496">
        <ele>330.60000610352</ele>
        <time>2023-06-18T09:38:59Z</time>
      </trkpt>
      <trkpt lat="49.44963" lon="5.7449">
        <ele>330.79998779297</ele>
        <time>2023-06-18T09:39:01Z</time>
      </trkpt>
      <trkpt lat="49.44971" lon="5.74485">
        <ele>331</ele>
        <time>2023-06-18T09:39:03Z</time>
      </trkpt>
      <trkpt lat="49.44979" lon="5.74479">
        <ele>331.20001220703</ele>
        <time>2023-06-18T09:39:05Z</time>
      </trkpt>
      <trkpt lat="49.44987" lon="5.74473">
        <ele>331.60000610352</ele>
        <time>2023-06-18T09:39:07Z</time>
      </trkpt>
      <trkpt lat="49.44995" lon="5.74467">
        <ele>331.60000610352</ele>
        <time>2023-06-18T09:39:09Z</time>
      </trkpt>
      <trkpt lat="49.45002" lon="5.74461">
        <ele>332</ele>
        <time>2023-06-18T09:39:11Z</time>
      </trkpt>
      <trkpt lat="49.45006" lon="5.74457">
        <ele>332</ele>
        <time>2023-06-18T09:39:12Z</time>
      </trkpt>
      <trkpt lat="49.4501" lon="5.74454">
        <ele>332.20001220703</ele>
        <time>2023-06-18T09:39:13Z</time>
      </trkpt>
      <trkpt lat="49.45017" lon="5.74449">
        <ele>332.39999389648</ele>
        <time>2023-06-18T09:39:15Z</time>
      </trkpt>
      <trkpt lat="49.45024" lon="5.74443">
        <ele>332.60000610352</ele>
        <time>2023-06-18T09:39:17Z</time>
      </trkpt>
      <trkpt lat="49.45031" lon="5.74438">
        <ele>332.79998779297</ele>
        <time>2023-06-18T09:39:19Z</time>
      </trkpt>
      <trkpt lat="49.45038" lon="5.74433">
        <ele>333</ele>
        <time>2023-06-18T09:39:21Z</time>
      </trkpt>
      <trkpt lat="49.45041" lon="5.7443">
        <ele>333.20001220703</ele>
        <time>2023-06-18T09:39:22Z</time>
      </trkpt>
      <trkpt lat="49.45044" lon="5.74427">
        <ele>333.39999389648</ele>
        <time>2023-06-18T09:39:23Z</time>
      </trkpt>
      <trkpt lat="49.4505" lon="5.74421">
        <ele>333.60000610352</ele>
        <time>2023-06-18T09:39:25Z</time>
      </trkpt>
      <trkpt lat="49.45057" lon="5.74416">
        <ele>334</ele>
        <time>2023-06-18T09:39:27Z</time>
      </trkpt>
      <trkpt lat="49.45063" lon="5.74412">
        <ele>334.39999389648</ele>
        <time>2023-06-18T09:39:29Z</time>
      </trkpt>
      <trkpt lat="49.45069" lon="5.74409">
        <ele>334.60000610352</ele>
        <time>2023-06-18T09:39:31Z</time>
      </trkpt>
      <trkpt lat="49.45074" lon="5.74406">
        <ele>335.20001220703</ele>
        <time>2023-06-18T09:39:33Z</time>
      </trkpt>
      <trkpt lat="49.45077" lon="5.74405">
        <ele>335.39999389648</ele>
        <time>2023-06-18T09:39:34Z</time>
      </trkpt>
      <trkpt lat="49.4508" lon="5.74405">
        <ele>335.79998779297</ele>
        <time>2023-06-18T09:39:35Z</time>
      </trkpt>
      <trkpt lat="49.45086" lon="5.74405">
        <ele>336.20001220703</ele>
        <time>2023-06-18T09:39:37Z</time>
      </trkpt>
      <trkpt lat="49.45092" lon="5.74406">
        <ele>337</ele>
        <time>2023-06-18T09:39:39Z</time>
      </trkpt>
      <trkpt lat="49.45097" lon="5.74409">
        <ele>337.20001220703</ele>
        <time>2023-06-18T09:39:41Z</time>
      </trkpt>
      <trkpt lat="49.45103" lon="5.74412">
        <ele>337.60000610352</ele>
        <time>2023-06-18T09:39:43Z</time>
      </trkpt>
      <trkpt lat="49.45105" lon="5.74414">
        <ele>337.79998779297</ele>
        <time>2023-06-18T09:39:44Z</time>
      </trkpt>
      <trkpt lat="49.45108" lon="5.74416">
        <ele>338</ele>
        <time>2023-06-18T09:39:45Z</time>
      </trkpt>
      <trkpt lat="49.45113" lon="5.7442">
        <ele>338.39999389648</ele>
        <time>2023-06-18T09:39:47Z</time>
      </trkpt>
      <trkpt lat="49.45118" lon="5.74425">
        <ele>338.79998779297</ele>
        <time>2023-06-18T09:39:49Z</time>
      </trkpt>
      <trkpt lat="49.45122" lon="5.74429">
        <ele>339</ele>
        <time>2023-06-18T09:39:51Z</time>
      </trkpt>
      <trkpt lat="49.45127" lon="5.74434">
        <ele>339.39999389648</ele>
        <time>2023-06-18T09:39:53Z</time>
      </trkpt>
      <trkpt lat="49.45132" lon="5.74439">
        <ele>339.60000610352</ele>
        <time>2023-06-18T09:39:55Z</time>
      </trkpt>
      <trkpt lat="49.45137" lon="5.74443">
        <ele>340</ele>
        <time>2023-06-18T09:39:57Z</time>
      </trkpt>
      <trkpt lat="49.45139" lon="5.74445">
        <ele>340</ele>
        <time>2023-06-18T09:39:58Z</time>
      </trkpt>
      <trkpt lat="49.45142" lon="5.74448">
        <ele>340.20001220703</ele>
        <time>2023-06-18T09:39:59Z</time>
      </trkpt>
      <trkpt lat="49.45147" lon="5.74452">
        <ele>340.39999389648</ele>
        <time>2023-06-18T09:40:01Z</time>
      </trkpt>
      <trkpt lat="49.45152" lon="5.74456">
        <ele>340.60000610352</ele>
        <time>2023-06-18T09:40:03Z</time>
      </trkpt>
      <trkpt lat="49.45157" lon="5.74461">
        <ele>340.79998779297</ele>
        <time>2023-06-18T09:40:05Z</time>
      </trkpt>
      <trkpt lat="49.45162" lon="5.74466">
        <ele>341.20001220703</ele>
        <time>2023-06-18T09:40:07Z</time>
      </trkpt>
      <trkpt lat="49.45167" lon="5.7447">
        <ele>341.60000610352</ele>
        <time>2023-06-18T09:40:09Z</time>
      </trkpt>
      <trkpt lat="49.45172" lon="5.74474">
        <ele>341.79998779297</ele>
        <time>2023-06-18T09:40:11Z</time>
      </trkpt>
      <trkpt lat="49.45175" lon="5.74476">
        <ele>341.79998779297</ele>
        <time>2023-06-18T09:40:12Z</time>
      </trkpt>
      <trkpt lat="49.45177" lon="5.74478">
        <ele>341.79998779297</ele>
        <time>2023-06-18T09:40:13Z</time>
      </trkpt>
      <trkpt lat="49.45182" lon="5.74482">
        <ele>342.20001220703</ele>
        <time>2023-06-18T09:40:15Z</time>
      </trkpt>
      <trkpt lat="49.45187" lon="5.74486">
        <ele>342.60000610352</ele>
        <time>2023-06-18T09:40:17Z</time>
      </trkpt>
      <trkpt lat="49.45193" lon="5.7449">
        <ele>342.79998779297</ele>
        <time>2023-06-18T09:40:19Z</time>
      </trkpt>
      <trkpt lat="49.45198" lon="5.74494">
        <ele>343.20001220703</ele>
        <time>2023-06-18T09:40:21Z</time>
      </trkpt>
      <trkpt lat="49.45204" lon="5.74498">
        <ele>343.39999389648</ele>
        <time>2023-06-18T09:40:23Z</time>
      </trkpt>
      <trkpt lat="49.4521" lon="5.74501">
        <ele>343.60000610352</ele>
        <time>2023-06-18T09:40:25Z</time>
      </trkpt>
      <trkpt lat="49.45216" lon="5.74504">
        <ele>343.79998779297</ele>
        <time>2023-06-18T09:40:27Z</time>
      </trkpt>
      <trkpt lat="49.45222" lon="5.74507">
        <ele>343.79998779297</ele>
        <time>2023-06-18T09:40:29Z</time>
      </trkpt>
      <trkpt lat="49.45225" lon="5.74508">
        <ele>343.79998779297</ele>
        <time>2023-06-18T09:40:30Z</time>
      </trkpt>
      <trkpt lat="49.45228" lon="5.7451">
        <ele>344</ele>
        <time>2023-06-18T09:40:31Z</time>
      </trkpt>
      <trkpt lat="49.45234" lon="5.74512">
        <ele>344</ele>
        <time>2023-06-18T09:40:33Z</time>
      </trkpt>
      <trkpt lat="49.4524" lon="5.74514">
        <ele>344.20001220703</ele>
        <time>2023-06-18T09:40:35Z</time>
      </trkpt>
      <trkpt lat="49.45246" lon="5.74517">
        <ele>344.39999389648</ele>
        <time>2023-06-18T09:40:37Z</time>
      </trkpt>
      <trkpt lat="49.45249" lon="5.74518">
        <ele>344.60000610352</ele>
        <time>2023-06-18T09:40:38Z</time>
      </trkpt>
      <trkpt lat="49.45252" lon="5.74519">
        <ele>344.60000610352</ele>
        <time>2023-06-18T09:40:39Z</time>
      </trkpt>
      <trkpt lat="49.45258" lon="5.74522">
        <ele>345</ele>
        <time>2023-06-18T09:40:41Z</time>
      </trkpt>
      <trkpt lat="49.45264" lon="5.74524">
        <ele>345.20001220703</ele>
        <time>2023-06-18T09:40:43Z</time>
      </trkpt>
      <trkpt lat="49.4527" lon="5.74527">
        <ele>345.39999389648</ele>
        <time>2023-06-18T09:40:45Z</time>
      </trkpt>
      <trkpt lat="49.45273" lon="5.74528">
        <ele>345.39999389648</ele>
        <time>2023-06-18T09:40:46Z</time>
      </trkpt>
      <trkpt lat="49.45276" lon="5.74529">
        <ele>345.60000610352</ele>
        <time>2023-06-18T09:40:47Z</time>
      </trkpt>
      <trkpt lat="49.45279" lon="5.7453">
        <ele>345.60000610352</ele>
        <time>2023-06-18T09:40:48Z</time>
      </trkpt>
      <trkpt lat="49.45282" lon="5.74531">
        <ele>345.79998779297</ele>
        <time>2023-06-18T09:40:49Z</time>
      </trkpt>
      <trkpt lat="49.45288" lon="5.74532">
        <ele>345.79998779297</ele>
        <time>2023-06-18T09:40:51Z</time>
      </trkpt>
      <trkpt lat="49.45294" lon="5.74533">
        <ele>346</ele>
        <time>2023-06-18T09:40:53Z</time>
      </trkpt>
      <trkpt lat="49.45298" lon="5.74532">
        <ele>346</ele>
        <time>2023-06-18T09:40:54Z</time>
      </trkpt>
      <trkpt lat="49.45301" lon="5.74532">
        <ele>346.20001220703</ele>
        <time>2023-06-18T09:40:55Z</time>
      </trkpt>
      <trkpt lat="49.45307" lon="5.74529">
        <ele>346.20001220703</ele>
        <time>2023-06-18T09:40:57Z</time>
      </trkpt>
      <trkpt lat="49.45312" lon="5.74525">
        <ele>346.60000610352</ele>
        <time>2023-06-18T09:40:59Z</time>
      </trkpt>
      <trkpt lat="49.45315" lon="5.74523">
        <ele>346.79998779297</ele>
        <time>2023-06-18T09:41:00Z</time>
      </trkpt>
      <trkpt lat="49.45318" lon="5.74521">
        <ele>346.79998779297</ele>
        <time>2023-06-18T09:41:01Z</time>
      </trkpt>
      <trkpt lat="49.45323" lon="5.74517">
        <ele>347</ele>
        <time>2023-06-18T09:41:03Z</time>
      </trkpt>
      <trkpt lat="49.45329" lon="5.74511">
        <ele>347.39999389648</ele>
        <time>2023-06-18T09:41:05Z</time>
      </trkpt>
      <trkpt lat="49.45334" lon="5.74505">
        <ele>347.39999389648</ele>
        <time>2023-06-18T09:41:07Z</time>
      </trkpt>
      <trkpt lat="49.45337" lon="5.74502">
        <ele>347.39999389648</ele>
        <time>2023-06-18T09:41:08Z</time>
      </trkpt>
      <trkpt lat="49.4534" lon="5.74499">
        <ele>347.60000610352</ele>
        <time>2023-06-18T09:41:09Z</time>
      </trkpt>
      <trkpt lat="49.45345" lon="5.74493">
        <ele>347.79998779297</ele>
        <time>2023-06-18T09:41:11Z</time>
      </trkpt>
      <trkpt lat="49.4535" lon="5.74487">
        <ele>347.79998779297</ele>
        <time>2023-06-18T09:41:13Z</time>
      </trkpt>
      <trkpt lat="49.45356" lon="5.74482">
        <ele>348</ele>
        <time>2023-06-18T09:41:15Z</time>
      </trkpt>
      <trkpt lat="49.45361" lon="5.74476">
        <ele>348.20001220703</ele>
        <time>2023-06-18T09:41:17Z</time>
      </trkpt>
      <trkpt lat="49.45367" lon="5.7447">
        <ele>348.39999389648</ele>
        <time>2023-06-18T09:41:19Z</time>
      </trkpt>
      <trkpt lat="49.45373" lon="5.74464">
        <ele>348.60000610352</ele>
        <time>2023-06-18T09:41:21Z</time>
      </trkpt>
      <trkpt lat="49.45379" lon="5.74458">
        <ele>348.60000610352</ele>
        <time>2023-06-18T09:41:23Z</time>
      </trkpt>
      <trkpt lat="49.45385" lon="5.74452">
        <ele>348.79998779297</ele>
        <time>2023-06-18T09:41:25Z</time>
      </trkpt>
      <trkpt lat="49.45388" lon="5.74449">
        <ele>348.79998779297</ele>
        <time>2023-06-18T09:41:26Z</time>
      </trkpt>
      <trkpt lat="49.45391" lon="5.74446">
        <ele>348.79998779297</ele>
        <time>2023-06-18T09:41:27Z</time>
      </trkpt>
      <trkpt lat="49.45397" lon="5.74439">
        <ele>348.79998779297</ele>
        <time>2023-06-18T09:41:29Z</time>
      </trkpt>
      <trkpt lat="49.45403" lon="5.74433">
        <ele>348.79998779297</ele>
        <time>2023-06-18T09:41:31Z</time>
      </trkpt>
      <trkpt lat="49.45408" lon="5.74426">
        <ele>348.79998779297</ele>
        <time>2023-06-18T09:41:33Z</time>
      </trkpt>
      <trkpt lat="49.45414" lon="5.74419">
        <ele>348.79998779297</ele>
        <time>2023-06-18T09:41:35Z</time>
      </trkpt>
      <trkpt lat="49.45419" lon="5.74412">
        <ele>349</ele>
        <time>2023-06-18T09:41:37Z</time>
      </trkpt>
      <trkpt lat="49.45423" lon="5.74403">
        <ele>349</ele>
        <time>2023-06-18T09:41:39Z</time>
      </trkpt>
      <trkpt lat="49.45426" lon="5.74394">
        <ele>349.20001220703</ele>
        <time>2023-06-18T09:41:41Z</time>
      </trkpt>
      <trkpt lat="49.45429" lon="5.74385">
        <ele>349.39999389648</ele>
        <time>2023-06-18T09:41:43Z</time>
      </trkpt>
      <trkpt lat="49.45431" lon="5.74375">
        <ele>349.39999389648</ele>
        <time>2023-06-18T09:41:45Z</time>
      </trkpt>
      <trkpt lat="49.45433" lon="5.74364">
        <ele>349.60000610352</ele>
        <time>2023-06-18T09:41:47Z</time>
      </trkpt>
      <trkpt lat="49.45434" lon="5.74359">
        <ele>349.60000610352</ele>
        <time>2023-06-18T09:41:48Z</time>
      </trkpt>
      <trkpt lat="49.45435" lon="5.74353">
        <ele>349.60000610352</ele>
        <time>2023-06-18T09:41:49Z</time>
      </trkpt>
      <trkpt lat="49.45436" lon="5.74343">
        <ele>349.60000610352</ele>
        <time>2023-06-18T09:41:51Z</time>
      </trkpt>
      <trkpt lat="49.45438" lon="5.74332">
        <ele>349.60000610352</ele>
        <time>2023-06-18T09:41:53Z</time>
      </trkpt>
      <trkpt lat="49.45439" lon="5.74321">
        <ele>349.60000610352</ele>
        <time>2023-06-18T09:41:55Z</time>
      </trkpt>
      <trkpt lat="49.4544" lon="5.74309">
        <ele>349.79998779297</ele>
        <time>2023-06-18T09:41:57Z</time>
      </trkpt>
      <trkpt lat="49.4544" lon="5.74303">
        <ele>349.79998779297</ele>
        <time>2023-06-18T09:41:58Z</time>
      </trkpt>
      <trkpt lat="49.4544" lon="5.74297">
        <ele>349.79998779297</ele>
        <time>2023-06-18T09:41:59Z</time>
      </trkpt>
      <trkpt lat="49.4544" lon="5.74286">
        <ele>349.79998779297</ele>
        <time>2023-06-18T09:42:01Z</time>
      </trkpt>
      <trkpt lat="49.4544" lon="5.74274">
        <ele>349.79998779297</ele>
        <time>2023-06-18T09:42:03Z</time>
      </trkpt>
      <trkpt lat="49.45438" lon="5.74262">
        <ele>349.79998779297</ele>
        <time>2023-06-18T09:42:05Z</time>
      </trkpt>
      <trkpt lat="49.45437" lon="5.74251">
        <ele>349.79998779297</ele>
        <time>2023-06-18T09:42:07Z</time>
      </trkpt>
      <trkpt lat="49.45434" lon="5.7424">
        <ele>350</ele>
        <time>2023-06-18T09:42:09Z</time>
      </trkpt>
      <trkpt lat="49.45432" lon="5.74229">
        <ele>350.20001220703</ele>
        <time>2023-06-18T09:42:11Z</time>
      </trkpt>
      <trkpt lat="49.45429" lon="5.74219">
        <ele>350.39999389648</ele>
        <time>2023-06-18T09:42:13Z</time>
      </trkpt>
      <trkpt lat="49.45427" lon="5.74209">
        <ele>350.60000610352</ele>
        <time>2023-06-18T09:42:15Z</time>
      </trkpt>
      <trkpt lat="49.45425" lon="5.74204">
        <ele>350.79998779297</ele>
        <time>2023-06-18T09:42:16Z</time>
      </trkpt>
      <trkpt lat="49.45424" lon="5.74199">
        <ele>350.79998779297</ele>
        <time>2023-06-18T09:42:17Z</time>
      </trkpt>
      <trkpt lat="49.45421" lon="5.74189">
        <ele>351</ele>
        <time>2023-06-18T09:42:19Z</time>
      </trkpt>
      <trkpt lat="49.45419" lon="5.74179">
        <ele>351.20001220703</ele>
        <time>2023-06-18T09:42:21Z</time>
      </trkpt>
      <trkpt lat="49.45416" lon="5.7417">
        <ele>351.39999389648</ele>
        <time>2023-06-18T09:42:23Z</time>
      </trkpt>
      <trkpt lat="49.45414" lon="5.7416">
        <ele>351.60000610352</ele>
        <time>2023-06-18T09:42:25Z</time>
      </trkpt>
      <trkpt lat="49.45411" lon="5.74149">
        <ele>351.79998779297</ele>
        <time>2023-06-18T09:42:27Z</time>
      </trkpt>
      <trkpt lat="49.45409" lon="5.74138">
        <ele>352.20001220703</ele>
        <time>2023-06-18T09:42:29Z</time>
      </trkpt>
      <trkpt lat="49.45406" lon="5.74127">
        <ele>352.60000610352</ele>
        <time>2023-06-18T09:42:31Z</time>
      </trkpt>
      <trkpt lat="49.45403" lon="5.74116">
        <ele>352.79998779297</ele>
        <time>2023-06-18T09:42:33Z</time>
      </trkpt>
      <trkpt lat="49.45401" lon="5.7411">
        <ele>352.79998779297</ele>
        <time>2023-06-18T09:42:34Z</time>
      </trkpt>
      <trkpt lat="49.45399" lon="5.74105">
        <ele>352.79998779297</ele>
        <time>2023-06-18T09:42:35Z</time>
      </trkpt>
      <trkpt lat="49.45396" lon="5.74094">
        <ele>353</ele>
        <time>2023-06-18T09:42:37Z</time>
      </trkpt>
      <trkpt lat="49.45391" lon="5.74083">
        <ele>353</ele>
        <time>2023-06-18T09:42:39Z</time>
      </trkpt>
      <trkpt lat="49.45386" lon="5.74073">
        <ele>353</ele>
        <time>2023-06-18T09:42:41Z</time>
      </trkpt>
      <trkpt lat="49.4538" lon="5.74063">
        <ele>353</ele>
        <time>2023-06-18T09:42:43Z</time>
      </trkpt>
      <trkpt lat="49.45375" lon="5.74054">
        <ele>353</ele>
        <time>2023-06-18T09:42:45Z</time>
      </trkpt>
      <trkpt lat="49.45372" lon="5.74049">
        <ele>353</ele>
        <time>2023-06-18T09:42:46Z</time>
      </trkpt>
      <trkpt lat="49.45369" lon="5.74045">
        <ele>353</ele>
        <time>2023-06-18T09:42:47Z</time>
      </trkpt>
      <trkpt lat="49.45363" lon="5.74036">
        <ele>353</ele>
        <time>2023-06-18T09:42:49Z</time>
      </trkpt>
      <trkpt lat="49.45357" lon="5.74026">
        <ele>353</ele>
        <time>2023-06-18T09:42:51Z</time>
      </trkpt>
      <trkpt lat="49.45351" lon="5.74015">
        <ele>353</ele>
        <time>2023-06-18T09:42:53Z</time>
      </trkpt>
      <trkpt lat="49.45344" lon="5.74004">
        <ele>352.79998779297</ele>
        <time>2023-06-18T09:42:55Z</time>
      </trkpt>
      <trkpt lat="49.45337" lon="5.73992">
        <ele>352.60000610352</ele>
        <time>2023-06-18T09:42:57Z</time>
      </trkpt>
      <trkpt lat="49.4533" lon="5.73981">
        <ele>352.39999389648</ele>
        <time>2023-06-18T09:42:59Z</time>
      </trkpt>
      <trkpt lat="49.45323" lon="5.73969">
        <ele>352.20001220703</ele>
        <time>2023-06-18T09:43:01Z</time>
      </trkpt>
      <trkpt lat="49.45316" lon="5.73958">
        <ele>352</ele>
        <time>2023-06-18T09:43:03Z</time>
      </trkpt>
      <trkpt lat="49.45308" lon="5.73948">
        <ele>351.79998779297</ele>
        <time>2023-06-18T09:43:05Z</time>
      </trkpt>
      <trkpt lat="49.453" lon="5.73938">
        <ele>351.60000610352</ele>
        <time>2023-06-18T09:43:07Z</time>
      </trkpt>
      <trkpt lat="49.45292" lon="5.73927">
        <ele>351.20001220703</ele>
        <time>2023-06-18T09:43:09Z</time>
      </trkpt>
      <trkpt lat="49.45283" lon="5.73917">
        <ele>350.79998779297</ele>
        <time>2023-06-18T09:43:11Z</time>
      </trkpt>
      <trkpt lat="49.45275" lon="5.73907">
        <ele>350.60000610352</ele>
        <time>2023-06-18T09:43:13Z</time>
      </trkpt>
      <trkpt lat="49.45267" lon="5.73898">
        <ele>350.39999389648</ele>
        <time>2023-06-18T09:43:15Z</time>
      </trkpt>
      <trkpt lat="49.45258" lon="5.7389">
        <ele>350.20001220703</ele>
        <time>2023-06-18T09:43:17Z</time>
      </trkpt>
      <trkpt lat="49.4525" lon="5.73881">
        <ele>350</ele>
        <time>2023-06-18T09:43:19Z</time>
      </trkpt>
      <trkpt lat="49.45242" lon="5.73874">
        <ele>350</ele>
        <time>2023-06-18T09:43:21Z</time>
      </trkpt>
      <trkpt lat="49.45234" lon="5.73866">
        <ele>350</ele>
        <time>2023-06-18T09:43:23Z</time>
      </trkpt>
      <trkpt lat="49.45226" lon="5.73858">
        <ele>350.20001220703</ele>
        <time>2023-06-18T09:43:25Z</time>
      </trkpt>
      <trkpt lat="49.45222" lon="5.73854">
        <ele>350.20001220703</ele>
        <time>2023-06-18T09:43:26Z</time>
      </trkpt>
      <trkpt lat="49.45219" lon="5.7385">
        <ele>350.20001220703</ele>
        <time>2023-06-18T09:43:27Z</time>
      </trkpt>
      <trkpt lat="49.45211" lon="5.73842">
        <ele>350.39999389648</ele>
        <time>2023-06-18T09:43:29Z</time>
      </trkpt>
      <trkpt lat="49.45204" lon="5.73835">
        <ele>350.39999389648</ele>
        <time>2023-06-18T09:43:31Z</time>
      </trkpt>
      <trkpt lat="49.45196" lon="5.73828">
        <ele>350.39999389648</ele>
        <time>2023-06-18T09:43:33Z</time>
      </trkpt>
      <trkpt lat="49.45189" lon="5.7382">
        <ele>350.60000610352</ele>
        <time>2023-06-18T09:43:35Z</time>
      </trkpt>
      <trkpt lat="49.45185" lon="5.73816">
        <ele>350.60000610352</ele>
        <time>2023-06-18T09:43:36Z</time>
      </trkpt>
      <trkpt lat="49.45181" lon="5.73812">
        <ele>350.60000610352</ele>
        <time>2023-06-18T09:43:37Z</time>
      </trkpt>
      <trkpt lat="49.45174" lon="5.73802">
        <ele>350.39999389648</ele>
        <time>2023-06-18T09:43:39Z</time>
      </trkpt>
      <trkpt lat="49.45167" lon="5.7379">
        <ele>350.20001220703</ele>
        <time>2023-06-18T09:43:41Z</time>
      </trkpt>
      <trkpt lat="49.45164" lon="5.73784">
        <ele>350.20001220703</ele>
        <time>2023-06-18T09:43:42Z</time>
      </trkpt>
      <trkpt lat="49.45162" lon="5.73777">
        <ele>350</ele>
        <time>2023-06-18T09:43:43Z</time>
      </trkpt>
      <trkpt lat="49.45156" lon="5.73764">
        <ele>350</ele>
        <time>2023-06-18T09:43:45Z</time>
      </trkpt>
      <trkpt lat="49.45151" lon="5.7375">
        <ele>349.79998779297</ele>
        <time>2023-06-18T09:43:47Z</time>
      </trkpt>
      <trkpt lat="49.45145" lon="5.73737">
        <ele>349.20001220703</ele>
        <time>2023-06-18T09:43:49Z</time>
      </trkpt>
      <trkpt lat="49.45142" lon="5.73731">
        <ele>349</ele>
        <time>2023-06-18T09:43:50Z</time>
      </trkpt>
      <trkpt lat="49.45139" lon="5.73725">
        <ele>349</ele>
        <time>2023-06-18T09:43:51Z</time>
      </trkpt>
      <trkpt lat="49.45137" lon="5.73719">
        <ele>348.79998779297</ele>
        <time>2023-06-18T09:43:52Z</time>
      </trkpt>
      <trkpt lat="49.45134" lon="5.73713">
        <ele>348.60000610352</ele>
        <time>2023-06-18T09:43:53Z</time>
      </trkpt>
      <trkpt lat="49.4513" lon="5.737">
        <ele>348.60000610352</ele>
        <time>2023-06-18T09:43:55Z</time>
      </trkpt>
      <trkpt lat="49.45125" lon="5.73687">
        <ele>348.39999389648</ele>
        <time>2023-06-18T09:43:57Z</time>
      </trkpt>
      <trkpt lat="49.45121" lon="5.73674">
        <ele>348.39999389648</ele>
        <time>2023-06-18T09:43:59Z</time>
      </trkpt>
      <trkpt lat="49.45116" lon="5.73662">
        <ele>348.39999389648</ele>
        <time>2023-06-18T09:44:01Z</time>
      </trkpt>
      <trkpt lat="49.45111" lon="5.73649">
        <ele>348.39999389648</ele>
        <time>2023-06-18T09:44:03Z</time>
      </trkpt>
      <trkpt lat="49.45107" lon="5.73636">
        <ele>348.39999389648</ele>
        <time>2023-06-18T09:44:05Z</time>
      </trkpt>
      <trkpt lat="49.45105" lon="5.73629">
        <ele>348.39999389648</ele>
        <time>2023-06-18T09:44:06Z</time>
      </trkpt>
      <trkpt lat="49.45102" lon="5.73623">
        <ele>348.39999389648</ele>
        <time>2023-06-18T09:44:07Z</time>
      </trkpt>
      <trkpt lat="49.45098" lon="5.7361">
        <ele>348.39999389648</ele>
        <time>2023-06-18T09:44:09Z</time>
      </trkpt>
      <trkpt lat="49.45094" lon="5.73597">
        <ele>348.20001220703</ele>
        <time>2023-06-18T09:44:11Z</time>
      </trkpt>
      <trkpt lat="49.4509" lon="5.73584">
        <ele>348.20001220703</ele>
        <time>2023-06-18T09:44:13Z</time>
      </trkpt>
      <trkpt lat="49.45085" lon="5.7357">
        <ele>348.20001220703</ele>
        <time>2023-06-18T09:44:15Z</time>
      </trkpt>
      <trkpt lat="49.45081" lon="5.73556">
        <ele>348.20001220703</ele>
        <time>2023-06-18T09:44:17Z</time>
      </trkpt>
      <trkpt lat="49.45076" lon="5.73541">
        <ele>348.20001220703</ele>
        <time>2023-06-18T09:44:19Z</time>
      </trkpt>
      <trkpt lat="49.45072" lon="5.73527">
        <ele>348.20001220703</ele>
        <time>2023-06-18T09:44:21Z</time>
      </trkpt>
      <trkpt lat="49.45068" lon="5.73513">
        <ele>347.79998779297</ele>
        <time>2023-06-18T09:44:23Z</time>
      </trkpt>
      <trkpt lat="49.45065" lon="5.73507">
        <ele>347.60000610352</ele>
        <time>2023-06-18T09:44:24Z</time>
      </trkpt>
      <trkpt lat="49.45063" lon="5.735">
        <ele>347.60000610352</ele>
        <time>2023-06-18T09:44:25Z</time>
      </trkpt>
      <trkpt lat="49.45058" lon="5.73486">
        <ele>347.39999389648</ele>
        <time>2023-06-18T09:44:27Z</time>
      </trkpt>
      <trkpt lat="49.45053" lon="5.73473">
        <ele>347.20001220703</ele>
        <time>2023-06-18T09:44:29Z</time>
      </trkpt>
      <trkpt lat="49.45049" lon="5.73458">
        <ele>347</ele>
        <time>2023-06-18T09:44:31Z</time>
      </trkpt>
      <trkpt lat="49.45049" lon="5.73451">
        <ele>347</ele>
        <time>2023-06-18T09:44:32Z</time>
      </trkpt>
      <trkpt lat="49.4505" lon="5.73444">
        <ele>347</ele>
        <time>2023-06-18T09:44:33Z</time>
      </trkpt>
      <trkpt lat="49.45054" lon="5.73433">
        <ele>347</ele>
        <time>2023-06-18T09:44:35Z</time>
      </trkpt>
      <trkpt lat="49.45057" lon="5.73424">
        <ele>347</ele>
        <time>2023-06-18T09:44:37Z</time>
      </trkpt>
      <trkpt lat="49.45059" lon="5.73416">
        <ele>347</ele>
        <time>2023-06-18T09:44:39Z</time>
      </trkpt>
      <trkpt lat="49.45063" lon="5.73408">
        <ele>347</ele>
        <time>2023-06-18T09:44:41Z</time>
      </trkpt>
      <trkpt lat="49.45066" lon="5.73399">
        <ele>347.20001220703</ele>
        <time>2023-06-18T09:44:43Z</time>
      </trkpt>
      <trkpt lat="49.4507" lon="5.73391">
        <ele>347.60000610352</ele>
        <time>2023-06-18T09:44:45Z</time>
      </trkpt>
      <trkpt lat="49.45074" lon="5.73384">
        <ele>348.20001220703</ele>
        <time>2023-06-18T09:44:47Z</time>
      </trkpt>
      <trkpt lat="49.45077" lon="5.73376">
        <ele>348.79998779297</ele>
        <time>2023-06-18T09:44:49Z</time>
      </trkpt>
      <trkpt lat="49.45079" lon="5.73372">
        <ele>349.20001220703</ele>
        <time>2023-06-18T09:44:50Z</time>
      </trkpt>
      <trkpt lat="49.45081" lon="5.73368">
        <ele>349.39999389648</ele>
        <time>2023-06-18T09:44:51Z</time>
      </trkpt>
      <trkpt lat="49.45085" lon="5.7336">
        <ele>350.20001220703</ele>
        <time>2023-06-18T09:44:53Z</time>
      </trkpt>
      <trkpt lat="49.45087" lon="5.73357">
        <ele>350.39999389648</ele>
        <time>2023-06-18T09:44:54Z</time>
      </trkpt>
      <trkpt lat="49.45089" lon="5.73353">
        <ele>350.60000610352</ele>
        <time>2023-06-18T09:44:55Z</time>
      </trkpt>
      <trkpt lat="49.45092" lon="5.73345">
        <ele>351.20001220703</ele>
        <time>2023-06-18T09:44:57Z</time>
      </trkpt>
      <trkpt lat="49.45093" lon="5.73342">
        <ele>351.60000610352</ele>
        <time>2023-06-18T09:44:58Z</time>
      </trkpt>
      <trkpt lat="49.45095" lon="5.73338">
        <ele>352</ele>
        <time>2023-06-18T09:44:59Z</time>
      </trkpt>
      <trkpt lat="49.45098" lon="5.7333">
        <ele>352.60000610352</ele>
        <time>2023-06-18T09:45:01Z</time>
      </trkpt>
      <trkpt lat="49.45101" lon="5.73322">
        <ele>353</ele>
        <time>2023-06-18T09:45:03Z</time>
      </trkpt>
      <trkpt lat="49.45104" lon="5.73312">
        <ele>353.39999389648</ele>
        <time>2023-06-18T09:45:05Z</time>
      </trkpt>
      <trkpt lat="49.45108" lon="5.73299">
        <ele>353.39999389648</ele>
        <time>2023-06-18T09:45:07Z</time>
      </trkpt>
      <trkpt lat="49.45113" lon="5.73284">
        <ele>353.39999389648</ele>
        <time>2023-06-18T09:45:09Z</time>
      </trkpt>
      <trkpt lat="49.45115" lon="5.73275">
        <ele>353.39999389648</ele>
        <time>2023-06-18T09:45:10Z</time>
      </trkpt>
      <trkpt lat="49.45118" lon="5.73266">
        <ele>353.39999389648</ele>
        <time>2023-06-18T09:45:11Z</time>
      </trkpt>
      <trkpt lat="49.45123" lon="5.73247">
        <ele>353.39999389648</ele>
        <time>2023-06-18T09:45:13Z</time>
      </trkpt>
      <trkpt lat="49.45128" lon="5.73226">
        <ele>353</ele>
        <time>2023-06-18T09:45:15Z</time>
      </trkpt>
      <trkpt lat="49.4513" lon="5.73214">
        <ele>352.79998779297</ele>
        <time>2023-06-18T09:45:16Z</time>
      </trkpt>
      <trkpt lat="49.45133" lon="5.73203">
        <ele>352</ele>
        <time>2023-06-18T09:45:17Z</time>
      </trkpt>
      <trkpt lat="49.45135" lon="5.73191">
        <ele>350.60000610352</ele>
        <time>2023-06-18T09:45:18Z</time>
      </trkpt>
      <trkpt lat="49.45137" lon="5.73179">
        <ele>350.39999389648</ele>
        <time>2023-06-18T09:45:19Z</time>
      </trkpt>
      <trkpt lat="49.45139" lon="5.73166">
        <ele>349.39999389648</ele>
        <time>2023-06-18T09:45:20Z</time>
      </trkpt>
      <trkpt lat="49.45142" lon="5.73153">
        <ele>348.39999389648</ele>
        <time>2023-06-18T09:45:21Z</time>
      </trkpt>
      <trkpt lat="49.45145" lon="5.73139">
        <ele>347.60000610352</ele>
        <time>2023-06-18T09:45:22Z</time>
      </trkpt>
      <trkpt lat="49.45148" lon="5.73125">
        <ele>346.60000610352</ele>
        <time>2023-06-18T09:45:23Z</time>
      </trkpt>
      <trkpt lat="49.45152" lon="5.73113">
        <ele>345.79998779297</ele>
        <time>2023-06-18T09:45:24Z</time>
      </trkpt>
      <trkpt lat="49.45159" lon="5.73104">
        <ele>345.20001220703</ele>
        <time>2023-06-18T09:45:25Z</time>
      </trkpt>
      <trkpt lat="49.45167" lon="5.73097">
        <ele>344.60000610352</ele>
        <time>2023-06-18T09:45:26Z</time>
      </trkpt>
      <trkpt lat="49.45176" lon="5.73094">
        <ele>343.79998779297</ele>
        <time>2023-06-18T09:45:27Z</time>
      </trkpt>
      <trkpt lat="49.45185" lon="5.73091">
        <ele>343.20001220703</ele>
        <time>2023-06-18T09:45:28Z</time>
      </trkpt>
      <trkpt lat="49.45195" lon="5.7309">
        <ele>342.79998779297</ele>
        <time>2023-06-18T09:45:29Z</time>
      </trkpt>
      <trkpt lat="49.45204" lon="5.73089">
        <ele>342.60000610352</ele>
        <time>2023-06-18T09:45:30Z</time>
      </trkpt>
      <trkpt lat="49.45214" lon="5.73088">
        <ele>341.39999389648</ele>
        <time>2023-06-18T09:45:31Z</time>
      </trkpt>
      <trkpt lat="49.45223" lon="5.73088">
        <ele>340.39999389648</ele>
        <time>2023-06-18T09:45:32Z</time>
      </trkpt>
      <trkpt lat="49.45233" lon="5.73088">
        <ele>339.79998779297</ele>
        <time>2023-06-18T09:45:33Z</time>
      </trkpt>
      <trkpt lat="49.45253" lon="5.73088">
        <ele>338.60000610352</ele>
        <time>2023-06-18T09:45:35Z</time>
      </trkpt>
      <trkpt lat="49.45262" lon="5.73087">
        <ele>337.39999389648</ele>
        <time>2023-06-18T09:45:36Z</time>
      </trkpt>
      <trkpt lat="49.45271" lon="5.73086">
        <ele>336.39999389648</ele>
        <time>2023-06-18T09:45:37Z</time>
      </trkpt>
      <trkpt lat="49.4528" lon="5.73085">
        <ele>335.60000610352</ele>
        <time>2023-06-18T09:45:38Z</time>
      </trkpt>
      <trkpt lat="49.45288" lon="5.73083">
        <ele>334.39999389648</ele>
        <time>2023-06-18T09:45:39Z</time>
      </trkpt>
      <trkpt lat="49.45296" lon="5.7308">
        <ele>333.60000610352</ele>
        <time>2023-06-18T09:45:40Z</time>
      </trkpt>
      <trkpt lat="49.45303" lon="5.73077">
        <ele>333</ele>
        <time>2023-06-18T09:45:41Z</time>
      </trkpt>
      <trkpt lat="49.45318" lon="5.73069">
        <ele>331.60000610352</ele>
        <time>2023-06-18T09:45:43Z</time>
      </trkpt>
      <trkpt lat="49.45324" lon="5.73064">
        <ele>331.39999389648</ele>
        <time>2023-06-18T09:45:44Z</time>
      </trkpt>
      <trkpt lat="49.4533" lon="5.7306">
        <ele>331.20001220703</ele>
        <time>2023-06-18T09:45:45Z</time>
      </trkpt>
      <trkpt lat="49.45342" lon="5.7305">
        <ele>331</ele>
        <time>2023-06-18T09:45:47Z</time>
      </trkpt>
      <trkpt lat="49.45352" lon="5.73041">
        <ele>331</ele>
        <time>2023-06-18T09:45:49Z</time>
      </trkpt>
      <trkpt lat="49.45356" lon="5.73037">
        <ele>331</ele>
        <time>2023-06-18T09:45:50Z</time>
      </trkpt>
      <trkpt lat="49.45361" lon="5.73033">
        <ele>331</ele>
        <time>2023-06-18T09:45:51Z</time>
      </trkpt>
      <trkpt lat="49.4537" lon="5.73023">
        <ele>331.60000610352</ele>
        <time>2023-06-18T09:45:53Z</time>
      </trkpt>
      <trkpt lat="49.45378" lon="5.73014">
        <ele>332.79998779297</ele>
        <time>2023-06-18T09:45:55Z</time>
      </trkpt>
      <trkpt lat="49.45386" lon="5.73005">
        <ele>333.79998779297</ele>
        <time>2023-06-18T09:45:57Z</time>
      </trkpt>
      <trkpt lat="49.4539" lon="5.73">
        <ele>334</ele>
        <time>2023-06-18T09:45:58Z</time>
      </trkpt>
      <trkpt lat="49.45394" lon="5.72995">
        <ele>334.20001220703</ele>
        <time>2023-06-18T09:45:59Z</time>
      </trkpt>
      <trkpt lat="49.45401" lon="5.72986">
        <ele>334.39999389648</ele>
        <time>2023-06-18T09:46:01Z</time>
      </trkpt>
      <trkpt lat="49.45409" lon="5.72976">
        <ele>334.60000610352</ele>
        <time>2023-06-18T09:46:03Z</time>
      </trkpt>
      <trkpt lat="49.45416" lon="5.72966">
        <ele>334.60000610352</ele>
        <time>2023-06-18T09:46:05Z</time>
      </trkpt>
      <trkpt lat="49.45424" lon="5.72956">
        <ele>334.79998779297</ele>
        <time>2023-06-18T09:46:07Z</time>
      </trkpt>
      <trkpt lat="49.45427" lon="5.72951">
        <ele>335</ele>
        <time>2023-06-18T09:46:08Z</time>
      </trkpt>
      <trkpt lat="49.45431" lon="5.72945">
        <ele>335.39999389648</ele>
        <time>2023-06-18T09:46:09Z</time>
      </trkpt>
      <trkpt lat="49.45438" lon="5.72935">
        <ele>336</ele>
        <time>2023-06-18T09:46:11Z</time>
      </trkpt>
      <trkpt lat="49.45445" lon="5.72925">
        <ele>336.20001220703</ele>
        <time>2023-06-18T09:46:13Z</time>
      </trkpt>
      <trkpt lat="49.45452" lon="5.72915">
        <ele>336.39999389648</ele>
        <time>2023-06-18T09:46:15Z</time>
      </trkpt>
      <trkpt lat="49.45459" lon="5.72905">
        <ele>336.39999389648</ele>
        <time>2023-06-18T09:46:17Z</time>
      </trkpt>
      <trkpt lat="49.45465" lon="5.72895">
        <ele>336.39999389648</ele>
        <time>2023-06-18T09:46:19Z</time>
      </trkpt>
      <trkpt lat="49.45472" lon="5.72885">
        <ele>336.60000610352</ele>
        <time>2023-06-18T09:46:21Z</time>
      </trkpt>
      <trkpt lat="49.45479" lon="5.72875">
        <ele>336.60000610352</ele>
        <time>2023-06-18T09:46:23Z</time>
      </trkpt>
      <trkpt lat="49.45482" lon="5.72869">
        <ele>336.60000610352</ele>
        <time>2023-06-18T09:46:24Z</time>
      </trkpt>
      <trkpt lat="49.45485" lon="5.72864">
        <ele>336.60000610352</ele>
        <time>2023-06-18T09:46:25Z</time>
      </trkpt>
      <trkpt lat="49.45492" lon="5.72853">
        <ele>336.60000610352</ele>
        <time>2023-06-18T09:46:27Z</time>
      </trkpt>
      <trkpt lat="49.45499" lon="5.72842">
        <ele>336.60000610352</ele>
        <time>2023-06-18T09:46:29Z</time>
      </trkpt>
      <trkpt lat="49.45506" lon="5.72832">
        <ele>336.60000610352</ele>
        <time>2023-06-18T09:46:31Z</time>
      </trkpt>
      <trkpt lat="49.45512" lon="5.72821">
        <ele>336.60000610352</ele>
        <time>2023-06-18T09:46:33Z</time>
      </trkpt>
      <trkpt lat="49.45516" lon="5.72815">
        <ele>336.60000610352</ele>
        <time>2023-06-18T09:46:34Z</time>
      </trkpt>
      <trkpt lat="49.45519" lon="5.7281">
        <ele>336.60000610352</ele>
        <time>2023-06-18T09:46:35Z</time>
      </trkpt>
      <trkpt lat="49.45527" lon="5.72801">
        <ele>336.60000610352</ele>
        <time>2023-06-18T09:46:37Z</time>
      </trkpt>
      <trkpt lat="49.45534" lon="5.72792">
        <ele>336.60000610352</ele>
        <time>2023-06-18T09:46:39Z</time>
      </trkpt>
      <trkpt lat="49.45542" lon="5.72785">
        <ele>336.60000610352</ele>
        <time>2023-06-18T09:46:41Z</time>
      </trkpt>
      <trkpt lat="49.45546" lon="5.72781">
        <ele>336.60000610352</ele>
        <time>2023-06-18T09:46:42Z</time>
      </trkpt>
      <trkpt lat="49.45549" lon="5.72777">
        <ele>336.60000610352</ele>
        <time>2023-06-18T09:46:43Z</time>
      </trkpt>
      <trkpt lat="49.45557" lon="5.7277">
        <ele>336.60000610352</ele>
        <time>2023-06-18T09:46:45Z</time>
      </trkpt>
      <trkpt lat="49.45564" lon="5.72763">
        <ele>336.60000610352</ele>
        <time>2023-06-18T09:46:47Z</time>
      </trkpt>
      <trkpt lat="49.4557" lon="5.72757">
        <ele>336.79998779297</ele>
        <time>2023-06-18T09:46:49Z</time>
      </trkpt>
      <trkpt lat="49.45573" lon="5.72753">
        <ele>337</ele>
        <time>2023-06-18T09:46:50Z</time>
      </trkpt>
      <trkpt lat="49.45576" lon="5.72749">
        <ele>337</ele>
        <time>2023-06-18T09:46:51Z</time>
      </trkpt>
      <trkpt lat="49.4558" lon="5.72746">
        <ele>337</ele>
        <time>2023-06-18T09:46:52Z</time>
      </trkpt>
      <trkpt lat="49.45583" lon="5.72742">
        <ele>337.20001220703</ele>
        <time>2023-06-18T09:46:53Z</time>
      </trkpt>
      <trkpt lat="49.45589" lon="5.72735">
        <ele>337.20001220703</ele>
        <time>2023-06-18T09:46:55Z</time>
      </trkpt>
      <trkpt lat="49.45596" lon="5.72729">
        <ele>337.39999389648</ele>
        <time>2023-06-18T09:46:57Z</time>
      </trkpt>
      <trkpt lat="49.456" lon="5.72725">
        <ele>337.39999389648</ele>
        <time>2023-06-18T09:46:58Z</time>
      </trkpt>
      <trkpt lat="49.45603" lon="5.72722">
        <ele>337.39999389648</ele>
        <time>2023-06-18T09:46:59Z</time>
      </trkpt>
      <trkpt lat="49.4561" lon="5.72715">
        <ele>337.60000610352</ele>
        <time>2023-06-18T09:47:01Z</time>
      </trkpt>
      <trkpt lat="49.45617" lon="5.72707">
        <ele>337.79998779297</ele>
        <time>2023-06-18T09:47:03Z</time>
      </trkpt>
      <trkpt lat="49.45624" lon="5.72699">
        <ele>337.79998779297</ele>
        <time>2023-06-18T09:47:05Z</time>
      </trkpt>
      <trkpt lat="49.45631" lon="5.72692">
        <ele>337.79998779297</ele>
        <time>2023-06-18T09:47:07Z</time>
      </trkpt>
      <trkpt lat="49.45635" lon="5.72688">
        <ele>337.79998779297</ele>
        <time>2023-06-18T09:47:08Z</time>
      </trkpt>
      <trkpt lat="49.45638" lon="5.72684">
        <ele>337.79998779297</ele>
        <time>2023-06-18T09:47:09Z</time>
      </trkpt>
      <trkpt lat="49.45645" lon="5.72677">
        <ele>337.79998779297</ele>
        <time>2023-06-18T09:47:11Z</time>
      </trkpt>
      <trkpt lat="49.45651" lon="5.7267">
        <ele>337.60000610352</ele>
        <time>2023-06-18T09:47:13Z</time>
      </trkpt>
      <trkpt lat="49.45658" lon="5.72663">
        <ele>337.39999389648</ele>
        <time>2023-06-18T09:47:15Z</time>
      </trkpt>
      <trkpt lat="49.45662" lon="5.72659">
        <ele>337.39999389648</ele>
        <time>2023-06-18T09:47:16Z</time>
      </trkpt>
      <trkpt lat="49.45665" lon="5.72655">
        <ele>337.39999389648</ele>
        <time>2023-06-18T09:47:17Z</time>
      </trkpt>
      <trkpt lat="49.45672" lon="5.72648">
        <ele>337.39999389648</ele>
        <time>2023-06-18T09:47:19Z</time>
      </trkpt>
      <trkpt lat="49.45679" lon="5.72641">
        <ele>337.39999389648</ele>
        <time>2023-06-18T09:47:21Z</time>
      </trkpt>
      <trkpt lat="49.45686" lon="5.72634">
        <ele>337.39999389648</ele>
        <time>2023-06-18T09:47:23Z</time>
      </trkpt>
      <trkpt lat="49.45692" lon="5.72626">
        <ele>337.39999389648</ele>
        <time>2023-06-18T09:47:25Z</time>
      </trkpt>
      <trkpt lat="49.45699" lon="5.72619">
        <ele>337.60000610352</ele>
        <time>2023-06-18T09:47:27Z</time>
      </trkpt>
      <trkpt lat="49.45706" lon="5.72612">
        <ele>337.79998779297</ele>
        <time>2023-06-18T09:47:29Z</time>
      </trkpt>
      <trkpt lat="49.45713" lon="5.72604">
        <ele>337.79998779297</ele>
        <time>2023-06-18T09:47:31Z</time>
      </trkpt>
      <trkpt lat="49.45719" lon="5.72595">
        <ele>338</ele>
        <time>2023-06-18T09:47:33Z</time>
      </trkpt>
      <trkpt lat="49.45726" lon="5.72587">
        <ele>338</ele>
        <time>2023-06-18T09:47:35Z</time>
      </trkpt>
      <trkpt lat="49.45732" lon="5.72578">
        <ele>338</ele>
        <time>2023-06-18T09:47:37Z</time>
      </trkpt>
      <trkpt lat="49.45738" lon="5.7257">
        <ele>338</ele>
        <time>2023-06-18T09:47:39Z</time>
      </trkpt>
      <trkpt lat="49.45745" lon="5.72562">
        <ele>338</ele>
        <time>2023-06-18T09:47:41Z</time>
      </trkpt>
      <trkpt lat="49.45752" lon="5.72554">
        <ele>337.79998779297</ele>
        <time>2023-06-18T09:47:43Z</time>
      </trkpt>
      <trkpt lat="49.45761" lon="5.72546">
        <ele>337.60000610352</ele>
        <time>2023-06-18T09:47:45Z</time>
      </trkpt>
      <trkpt lat="49.45769" lon="5.72539">
        <ele>337.20001220703</ele>
        <time>2023-06-18T09:47:47Z</time>
      </trkpt>
      <trkpt lat="49.45773" lon="5.72536">
        <ele>337</ele>
        <time>2023-06-18T09:47:48Z</time>
      </trkpt>
      <trkpt lat="49.45777" lon="5.72532">
        <ele>336.79998779297</ele>
        <time>2023-06-18T09:47:49Z</time>
      </trkpt>
      <trkpt lat="49.45786" lon="5.72527">
        <ele>336.20001220703</ele>
        <time>2023-06-18T09:47:51Z</time>
      </trkpt>
      <trkpt lat="49.45794" lon="5.72521">
        <ele>336.20001220703</ele>
        <time>2023-06-18T09:47:53Z</time>
      </trkpt>
      <trkpt lat="49.45802" lon="5.72516">
        <ele>336</ele>
        <time>2023-06-18T09:47:55Z</time>
      </trkpt>
      <trkpt lat="49.4581" lon="5.7251">
        <ele>335.79998779297</ele>
        <time>2023-06-18T09:47:57Z</time>
      </trkpt>
      <trkpt lat="49.45814" lon="5.72507">
        <ele>335.79998779297</ele>
        <time>2023-06-18T09:47:58Z</time>
      </trkpt>
      <trkpt lat="49.45818" lon="5.72504">
        <ele>335.79998779297</ele>
        <time>2023-06-18T09:47:59Z</time>
      </trkpt>
      <trkpt lat="49.45825" lon="5.72497">
        <ele>335.60000610352</ele>
        <time>2023-06-18T09:48:01Z</time>
      </trkpt>
      <trkpt lat="49.45833" lon="5.72491">
        <ele>335.60000610352</ele>
        <time>2023-06-18T09:48:03Z</time>
      </trkpt>
      <trkpt lat="49.45836" lon="5.72488">
        <ele>335.60000610352</ele>
        <time>2023-06-18T09:48:04Z</time>
      </trkpt>
      <trkpt lat="49.4584" lon="5.72486">
        <ele>335.60000610352</ele>
        <time>2023-06-18T09:48:05Z</time>
      </trkpt>
      <trkpt lat="49.45846" lon="5.7248">
        <ele>335.60000610352</ele>
        <time>2023-06-18T09:48:07Z</time>
      </trkpt>
      <trkpt lat="49.45853" lon="5.72474">
        <ele>335.79998779297</ele>
        <time>2023-06-18T09:48:09Z</time>
      </trkpt>
      <trkpt lat="49.45861" lon="5.72468">
        <ele>336</ele>
        <time>2023-06-18T09:48:11Z</time>
      </trkpt>
      <trkpt lat="49.45868" lon="5.72462">
        <ele>336</ele>
        <time>2023-06-18T09:48:13Z</time>
      </trkpt>
      <trkpt lat="49.45875" lon="5.72457">
        <ele>336</ele>
        <time>2023-06-18T09:48:15Z</time>
      </trkpt>
      <trkpt lat="49.45883" lon="5.72451">
        <ele>336</ele>
        <time>2023-06-18T09:48:17Z</time>
      </trkpt>
      <trkpt lat="49.45891" lon="5.72445">
        <ele>336</ele>
        <time>2023-06-18T09:48:19Z</time>
      </trkpt>
      <trkpt lat="49.45899" lon="5.72439">
        <ele>336</ele>
        <time>2023-06-18T09:48:21Z</time>
      </trkpt>
      <trkpt lat="49.45904" lon="5.72436">
        <ele>336</ele>
        <time>2023-06-18T09:48:22Z</time>
      </trkpt>
      <trkpt lat="49.45908" lon="5.72432">
        <ele>336</ele>
        <time>2023-06-18T09:48:23Z</time>
      </trkpt>
      <trkpt lat="49.45919" lon="5.72425">
        <ele>336</ele>
        <time>2023-06-18T09:48:25Z</time>
      </trkpt>
      <trkpt lat="49.45931" lon="5.72417">
        <ele>335.20001220703</ele>
        <time>2023-06-18T09:48:27Z</time>
      </trkpt>
      <trkpt lat="49.45937" lon="5.72413">
        <ele>335</ele>
        <time>2023-06-18T09:48:28Z</time>
      </trkpt>
      <trkpt lat="49.45944" lon="5.7241">
        <ele>334.79998779297</ele>
        <time>2023-06-18T09:48:29Z</time>
      </trkpt>
      <trkpt lat="49.45959" lon="5.72401">
        <ele>334.60000610352</ele>
        <time>2023-06-18T09:48:31Z</time>
      </trkpt>
      <trkpt lat="49.45967" lon="5.72397">
        <ele>334.60000610352</ele>
        <time>2023-06-18T09:48:32Z</time>
      </trkpt>
      <trkpt lat="49.45975" lon="5.72393">
        <ele>334.20001220703</ele>
        <time>2023-06-18T09:48:33Z</time>
      </trkpt>
      <trkpt lat="49.45983" lon="5.72389">
        <ele>333.79998779297</ele>
        <time>2023-06-18T09:48:34Z</time>
      </trkpt>
      <trkpt lat="49.45992" lon="5.72385">
        <ele>333</ele>
        <time>2023-06-18T09:48:35Z</time>
      </trkpt>
      <trkpt lat="49.46" lon="5.72382">
        <ele>332.60000610352</ele>
        <time>2023-06-18T09:48:36Z</time>
      </trkpt>
      <trkpt lat="49.46008" lon="5.72378">
        <ele>331.60000610352</ele>
        <time>2023-06-18T09:48:37Z</time>
      </trkpt>
      <trkpt lat="49.46017" lon="5.72375">
        <ele>330.79998779297</ele>
        <time>2023-06-18T09:48:38Z</time>
      </trkpt>
      <trkpt lat="49.46025" lon="5.72372">
        <ele>329.79998779297</ele>
        <time>2023-06-18T09:48:39Z</time>
      </trkpt>
      <trkpt lat="49.46032" lon="5.7237">
        <ele>328.60000610352</ele>
        <time>2023-06-18T09:48:40Z</time>
      </trkpt>
      <trkpt lat="49.4604" lon="5.72367">
        <ele>328</ele>
        <time>2023-06-18T09:48:41Z</time>
      </trkpt>
      <trkpt lat="49.46054" lon="5.72362">
        <ele>327.20001220703</ele>
        <time>2023-06-18T09:48:43Z</time>
      </trkpt>
      <trkpt lat="49.46067" lon="5.72357">
        <ele>326</ele>
        <time>2023-06-18T09:48:45Z</time>
      </trkpt>
      <trkpt lat="49.4608" lon="5.72351">
        <ele>325.79998779297</ele>
        <time>2023-06-18T09:48:47Z</time>
      </trkpt>
      <trkpt lat="49.46093" lon="5.72345">
        <ele>325.60000610352</ele>
        <time>2023-06-18T09:48:49Z</time>
      </trkpt>
      <trkpt lat="49.46099" lon="5.72342">
        <ele>325.60000610352</ele>
        <time>2023-06-18T09:48:50Z</time>
      </trkpt>
      <trkpt lat="49.46105" lon="5.72339">
        <ele>325.60000610352</ele>
        <time>2023-06-18T09:48:51Z</time>
      </trkpt>
      <trkpt lat="49.46116" lon="5.72332">
        <ele>325.60000610352</ele>
        <time>2023-06-18T09:48:53Z</time>
      </trkpt>
      <trkpt lat="49.46127" lon="5.72327">
        <ele>326.20001220703</ele>
        <time>2023-06-18T09:48:55Z</time>
      </trkpt>
      <trkpt lat="49.46132" lon="5.72324">
        <ele>326.39999389648</ele>
        <time>2023-06-18T09:48:56Z</time>
      </trkpt>
      <trkpt lat="49.46138" lon="5.72322">
        <ele>326.60000610352</ele>
        <time>2023-06-18T09:48:57Z</time>
      </trkpt>
      <trkpt lat="49.46149" lon="5.72321">
        <ele>327.20001220703</ele>
        <time>2023-06-18T09:48:59Z</time>
      </trkpt>
      <trkpt lat="49.4616" lon="5.72321">
        <ele>327.79998779297</ele>
        <time>2023-06-18T09:49:01Z</time>
      </trkpt>
      <trkpt lat="49.46164" lon="5.7232">
        <ele>328.39999389648</ele>
        <time>2023-06-18T09:49:02Z</time>
      </trkpt>
      <trkpt lat="49.46168" lon="5.72318">
        <ele>328.60000610352</ele>
        <time>2023-06-18T09:49:03Z</time>
      </trkpt>
      <trkpt lat="49.46175" lon="5.72313">
        <ele>329.79998779297</ele>
        <time>2023-06-18T09:49:05Z</time>
      </trkpt>
      <trkpt lat="49.46182" lon="5.72307">
        <ele>330.79998779297</ele>
        <time>2023-06-18T09:49:07Z</time>
      </trkpt>
      <trkpt lat="49.46189" lon="5.72302">
        <ele>332</ele>
        <time>2023-06-18T09:49:09Z</time>
      </trkpt>
      <trkpt lat="49.46196" lon="5.72297">
        <ele>333.20001220703</ele>
        <time>2023-06-18T09:49:11Z</time>
      </trkpt>
      <trkpt lat="49.46199" lon="5.72296">
        <ele>333.60000610352</ele>
        <time>2023-06-18T09:49:12Z</time>
      </trkpt>
      <trkpt lat="49.46202" lon="5.72294">
        <ele>333.79998779297</ele>
        <time>2023-06-18T09:49:13Z</time>
      </trkpt>
      <trkpt lat="49.46209" lon="5.7229">
        <ele>334.20001220703</ele>
        <time>2023-06-18T09:49:15Z</time>
      </trkpt>
      <trkpt lat="49.46215" lon="5.72286">
        <ele>334.60000610352</ele>
        <time>2023-06-18T09:49:17Z</time>
      </trkpt>
      <trkpt lat="49.46222" lon="5.72283">
        <ele>335</ele>
        <time>2023-06-18T09:49:19Z</time>
      </trkpt>
      <trkpt lat="49.46225" lon="5.72281">
        <ele>335.20001220703</ele>
        <time>2023-06-18T09:49:20Z</time>
      </trkpt>
      <trkpt lat="49.46228" lon="5.72279">
        <ele>335.39999389648</ele>
        <time>2023-06-18T09:49:21Z</time>
      </trkpt>
      <trkpt lat="49.46231" lon="5.72277">
        <ele>335.79998779297</ele>
        <time>2023-06-18T09:49:22Z</time>
      </trkpt>
      <trkpt lat="49.46234" lon="5.72275">
        <ele>335.79998779297</ele>
        <time>2023-06-18T09:49:23Z</time>
      </trkpt>
      <trkpt lat="49.46241" lon="5.72272">
        <ele>336.20001220703</ele>
        <time>2023-06-18T09:49:25Z</time>
      </trkpt>
      <trkpt lat="49.46247" lon="5.72268">
        <ele>336.39999389648</ele>
        <time>2023-06-18T09:49:27Z</time>
      </trkpt>
      <trkpt lat="49.46253" lon="5.72265">
        <ele>336.79998779297</ele>
        <time>2023-06-18T09:49:29Z</time>
      </trkpt>
      <trkpt lat="49.46259" lon="5.72262">
        <ele>337.39999389648</ele>
        <time>2023-06-18T09:49:31Z</time>
      </trkpt>
      <trkpt lat="49.46266" lon="5.72259">
        <ele>337.39999389648</ele>
        <time>2023-06-18T09:49:33Z</time>
      </trkpt>
      <trkpt lat="49.46272" lon="5.72255">
        <ele>337.60000610352</ele>
        <time>2023-06-18T09:49:35Z</time>
      </trkpt>
      <trkpt lat="49.46279" lon="5.72251">
        <ele>337.60000610352</ele>
        <time>2023-06-18T09:49:37Z</time>
      </trkpt>
      <trkpt lat="49.46286" lon="5.72248">
        <ele>337.79998779297</ele>
        <time>2023-06-18T09:49:39Z</time>
      </trkpt>
      <trkpt lat="49.46293" lon="5.72244">
        <ele>337.79998779297</ele>
        <time>2023-06-18T09:49:41Z</time>
      </trkpt>
      <trkpt lat="49.46301" lon="5.7224">
        <ele>337.79998779297</ele>
        <time>2023-06-18T09:49:43Z</time>
      </trkpt>
      <trkpt lat="49.46308" lon="5.72235">
        <ele>337.60000610352</ele>
        <time>2023-06-18T09:49:45Z</time>
      </trkpt>
      <trkpt lat="49.46316" lon="5.72232">
        <ele>337.39999389648</ele>
        <time>2023-06-18T09:49:47Z</time>
      </trkpt>
      <trkpt lat="49.46319" lon="5.7223">
        <ele>337.39999389648</ele>
        <time>2023-06-18T09:49:48Z</time>
      </trkpt>
      <trkpt lat="49.46323" lon="5.72229">
        <ele>337.39999389648</ele>
        <time>2023-06-18T09:49:49Z</time>
      </trkpt>
      <trkpt lat="49.4633" lon="5.72226">
        <ele>337.20001220703</ele>
        <time>2023-06-18T09:49:51Z</time>
      </trkpt>
      <trkpt lat="49.46337" lon="5.72221">
        <ele>337.20001220703</ele>
        <time>2023-06-18T09:49:53Z</time>
      </trkpt>
      <trkpt lat="49.4634" lon="5.72219">
        <ele>337.20001220703</ele>
        <time>2023-06-18T09:49:54Z</time>
      </trkpt>
      <trkpt lat="49.46344" lon="5.72218">
        <ele>337.20001220703</ele>
        <time>2023-06-18T09:49:55Z</time>
      </trkpt>
      <trkpt lat="49.4635" lon="5.72215">
        <ele>337.20001220703</ele>
        <time>2023-06-18T09:49:57Z</time>
      </trkpt>
      <trkpt lat="49.46356" lon="5.72213">
        <ele>337.20001220703</ele>
        <time>2023-06-18T09:49:59Z</time>
      </trkpt>
      <trkpt lat="49.46358" lon="5.72213">
        <ele>337.20001220703</ele>
        <time>2023-06-18T09:50:00Z</time>
      </trkpt>
      <trkpt lat="49.46359" lon="5.72213">
        <ele>337.20001220703</ele>
        <time>2023-06-18T09:50:01Z</time>
      </trkpt>
      <trkpt lat="49.4636" lon="5.72215">
        <ele>337.39999389648</ele>
        <time>2023-06-18T09:50:03Z</time>
      </trkpt>
      <trkpt lat="49.46361" lon="5.72216">
        <ele>337.60000610352</ele>
        <time>2023-06-18T09:50:04Z</time>
      </trkpt>
      <trkpt lat="49.46362" lon="5.72217">
        <ele>337.60000610352</ele>
        <time>2023-06-18T09:50:05Z</time>
      </trkpt>
      <trkpt lat="49.46365" lon="5.7222">
        <ele>337.79998779297</ele>
        <time>2023-06-18T09:50:07Z</time>
      </trkpt>
      <trkpt lat="49.46368" lon="5.7222">
        <ele>338</ele>
        <time>2023-06-18T09:50:08Z</time>
      </trkpt>
      <trkpt lat="49.4637" lon="5.7222">
        <ele>338.20001220703</ele>
        <time>2023-06-18T09:50:09Z</time>
      </trkpt>
      <trkpt lat="49.46377" lon="5.72221">
        <ele>338.20001220703</ele>
        <time>2023-06-18T09:50:11Z</time>
      </trkpt>
      <trkpt lat="49.46384" lon="5.72221">
        <ele>338.20001220703</ele>
        <time>2023-06-18T09:50:13Z</time>
      </trkpt>
      <trkpt lat="49.46387" lon="5.72221">
        <ele>338.20001220703</ele>
        <time>2023-06-18T09:50:14Z</time>
      </trkpt>
      <trkpt lat="49.46391" lon="5.72221">
        <ele>338.20001220703</ele>
        <time>2023-06-18T09:50:15Z</time>
      </trkpt>
      <trkpt lat="49.46398" lon="5.7222">
        <ele>338.20001220703</ele>
        <time>2023-06-18T09:50:17Z</time>
      </trkpt>
      <trkpt lat="49.46405" lon="5.72219">
        <ele>338.20001220703</ele>
        <time>2023-06-18T09:50:19Z</time>
      </trkpt>
      <trkpt lat="49.46412" lon="5.72217">
        <ele>338.39999389648</ele>
        <time>2023-06-18T09:50:21Z</time>
      </trkpt>
      <trkpt lat="49.46415" lon="5.72217">
        <ele>338.39999389648</ele>
        <time>2023-06-18T09:50:22Z</time>
      </trkpt>
      <trkpt lat="49.46418" lon="5.72216">
        <ele>338.39999389648</ele>
        <time>2023-06-18T09:50:23Z</time>
      </trkpt>
      <trkpt lat="49.46425" lon="5.72215">
        <ele>338.39999389648</ele>
        <time>2023-06-18T09:50:25Z</time>
      </trkpt>
      <trkpt lat="49.46432" lon="5.72214">
        <ele>338.20001220703</ele>
        <time>2023-06-18T09:50:27Z</time>
      </trkpt>
      <trkpt lat="49.46438" lon="5.72212">
        <ele>338.39999389648</ele>
        <time>2023-06-18T09:50:29Z</time>
      </trkpt>
      <trkpt lat="49.46444" lon="5.7221">
        <ele>338.39999389648</ele>
        <time>2023-06-18T09:50:31Z</time>
      </trkpt>
      <trkpt lat="49.46448" lon="5.7221">
        <ele>338.39999389648</ele>
        <time>2023-06-18T09:50:32Z</time>
      </trkpt>
      <trkpt lat="49.46451" lon="5.72209">
        <ele>338.39999389648</ele>
        <time>2023-06-18T09:50:33Z</time>
      </trkpt>
      <trkpt lat="49.46457" lon="5.72207">
        <ele>338.79998779297</ele>
        <time>2023-06-18T09:50:35Z</time>
      </trkpt>
      <trkpt lat="49.46464" lon="5.72207">
        <ele>339</ele>
        <time>2023-06-18T09:50:37Z</time>
      </trkpt>
      <trkpt lat="49.46472" lon="5.72206">
        <ele>339</ele>
        <time>2023-06-18T09:50:39Z</time>
      </trkpt>
      <trkpt lat="49.46481" lon="5.72204">
        <ele>339</ele>
        <time>2023-06-18T09:50:41Z</time>
      </trkpt>
      <trkpt lat="49.4649" lon="5.72203">
        <ele>339</ele>
        <time>2023-06-18T09:50:43Z</time>
      </trkpt>
      <trkpt lat="49.46499" lon="5.72201">
        <ele>339</ele>
        <time>2023-06-18T09:50:45Z</time>
      </trkpt>
      <trkpt lat="49.46509" lon="5.72199">
        <ele>339</ele>
        <time>2023-06-18T09:50:47Z</time>
      </trkpt>
      <trkpt lat="49.46519" lon="5.72198">
        <ele>339</ele>
        <time>2023-06-18T09:50:49Z</time>
      </trkpt>
      <trkpt lat="49.46528" lon="5.72197">
        <ele>338.79998779297</ele>
        <time>2023-06-18T09:50:51Z</time>
      </trkpt>
      <trkpt lat="49.46538" lon="5.72196">
        <ele>338.60000610352</ele>
        <time>2023-06-18T09:50:53Z</time>
      </trkpt>
      <trkpt lat="49.46547" lon="5.72195">
        <ele>337.79998779297</ele>
        <time>2023-06-18T09:50:55Z</time>
      </trkpt>
      <trkpt lat="49.46556" lon="5.72195">
        <ele>337.79998779297</ele>
        <time>2023-06-18T09:50:57Z</time>
      </trkpt>
      <trkpt lat="49.46565" lon="5.72195">
        <ele>337.60000610352</ele>
        <time>2023-06-18T09:50:59Z</time>
      </trkpt>
      <trkpt lat="49.46569" lon="5.72194">
        <ele>337.60000610352</ele>
        <time>2023-06-18T09:51:00Z</time>
      </trkpt>
      <trkpt lat="49.46574" lon="5.72194">
        <ele>337.60000610352</ele>
        <time>2023-06-18T09:51:01Z</time>
      </trkpt>
      <trkpt lat="49.46584" lon="5.72192">
        <ele>337.39999389648</ele>
        <time>2023-06-18T09:51:03Z</time>
      </trkpt>
      <trkpt lat="49.46593" lon="5.7219">
        <ele>337.20001220703</ele>
        <time>2023-06-18T09:51:05Z</time>
      </trkpt>
      <trkpt lat="49.46603" lon="5.72189">
        <ele>337</ele>
        <time>2023-06-18T09:51:07Z</time>
      </trkpt>
      <trkpt lat="49.46613" lon="5.72186">
        <ele>337</ele>
        <time>2023-06-18T09:51:09Z</time>
      </trkpt>
      <trkpt lat="49.46618" lon="5.72184">
        <ele>336.79998779297</ele>
        <time>2023-06-18T09:51:10Z</time>
      </trkpt>
      <trkpt lat="49.46622" lon="5.72181">
        <ele>336.79998779297</ele>
        <time>2023-06-18T09:51:11Z</time>
      </trkpt>
      <trkpt lat="49.46626" lon="5.72168">
        <ele>336.60000610352</ele>
        <time>2023-06-18T09:51:13Z</time>
      </trkpt>
      <trkpt lat="49.46625" lon="5.72161">
        <ele>336.39999389648</ele>
        <time>2023-06-18T09:51:14Z</time>
      </trkpt>
      <trkpt lat="49.46625" lon="5.72154">
        <ele>336</ele>
        <time>2023-06-18T09:51:15Z</time>
      </trkpt>
      <trkpt lat="49.46623" lon="5.7214">
        <ele>335.60000610352</ele>
        <time>2023-06-18T09:51:17Z</time>
      </trkpt>
      <trkpt lat="49.46622" lon="5.72125">
        <ele>335.39999389648</ele>
        <time>2023-06-18T09:51:19Z</time>
      </trkpt>
      <trkpt lat="49.46621" lon="5.7211">
        <ele>335.20001220703</ele>
        <time>2023-06-18T09:51:21Z</time>
      </trkpt>
      <trkpt lat="49.4662" lon="5.72095">
        <ele>335.20001220703</ele>
        <time>2023-06-18T09:51:23Z</time>
      </trkpt>
      <trkpt lat="49.46619" lon="5.7208">
        <ele>335.20001220703</ele>
        <time>2023-06-18T09:51:25Z</time>
      </trkpt>
      <trkpt lat="49.46617" lon="5.72065">
        <ele>334.79998779297</ele>
        <time>2023-06-18T09:51:27Z</time>
      </trkpt>
      <trkpt lat="49.46616" lon="5.72051">
        <ele>334.60000610352</ele>
        <time>2023-06-18T09:51:29Z</time>
      </trkpt>
      <trkpt lat="49.46615" lon="5.72043">
        <ele>334.60000610352</ele>
        <time>2023-06-18T09:51:30Z</time>
      </trkpt>
      <trkpt lat="49.46615" lon="5.72036">
        <ele>334.60000610352</ele>
        <time>2023-06-18T09:51:31Z</time>
      </trkpt>
      <trkpt lat="49.46614" lon="5.72022">
        <ele>334.39999389648</ele>
        <time>2023-06-18T09:51:33Z</time>
      </trkpt>
      <trkpt lat="49.46612" lon="5.72007">
        <ele>334.39999389648</ele>
        <time>2023-06-18T09:51:35Z</time>
      </trkpt>
      <trkpt lat="49.46611" lon="5.71992">
        <ele>334.20001220703</ele>
        <time>2023-06-18T09:51:37Z</time>
      </trkpt>
      <trkpt lat="49.4661" lon="5.71978">
        <ele>334.20001220703</ele>
        <time>2023-06-18T09:51:39Z</time>
      </trkpt>
      <trkpt lat="49.46609" lon="5.71963">
        <ele>334</ele>
        <time>2023-06-18T09:51:41Z</time>
      </trkpt>
      <trkpt lat="49.46608" lon="5.71949">
        <ele>333.79998779297</ele>
        <time>2023-06-18T09:51:43Z</time>
      </trkpt>
      <trkpt lat="49.46607" lon="5.71934">
        <ele>333.79998779297</ele>
        <time>2023-06-18T09:51:45Z</time>
      </trkpt>
      <trkpt lat="49.46606" lon="5.71917">
        <ele>333.79998779297</ele>
        <time>2023-06-18T09:51:47Z</time>
      </trkpt>
      <trkpt lat="49.46605" lon="5.71901">
        <ele>333.60000610352</ele>
        <time>2023-06-18T09:51:49Z</time>
      </trkpt>
      <trkpt lat="49.46605" lon="5.71892">
        <ele>333.60000610352</ele>
        <time>2023-06-18T09:51:50Z</time>
      </trkpt>
      <trkpt lat="49.46604" lon="5.71884">
        <ele>333.39999389648</ele>
        <time>2023-06-18T09:51:51Z</time>
      </trkpt>
      <trkpt lat="49.46603" lon="5.71867">
        <ele>333</ele>
        <time>2023-06-18T09:51:53Z</time>
      </trkpt>
      <trkpt lat="49.46603" lon="5.71858">
        <ele>333</ele>
        <time>2023-06-18T09:51:54Z</time>
      </trkpt>
      <trkpt lat="49.46602" lon="5.7185">
        <ele>332.79998779297</ele>
        <time>2023-06-18T09:51:55Z</time>
      </trkpt>
      <trkpt lat="49.46602" lon="5.71841">
        <ele>332.39999389648</ele>
        <time>2023-06-18T09:51:56Z</time>
      </trkpt>
      <trkpt lat="49.46602" lon="5.71833">
        <ele>332.39999389648</ele>
        <time>2023-06-18T09:51:57Z</time>
      </trkpt>
      <trkpt lat="49.46601" lon="5.71816">
        <ele>332.20001220703</ele>
        <time>2023-06-18T09:51:59Z</time>
      </trkpt>
      <trkpt lat="49.466" lon="5.71799">
        <ele>332.20001220703</ele>
        <time>2023-06-18T09:52:01Z</time>
      </trkpt>
      <trkpt lat="49.46599" lon="5.71791">
        <ele>332.20001220703</ele>
        <time>2023-06-18T09:52:02Z</time>
      </trkpt>
      <trkpt lat="49.46599" lon="5.71782">
        <ele>332</ele>
        <time>2023-06-18T09:52:03Z</time>
      </trkpt>
      <trkpt lat="49.46598" lon="5.71765">
        <ele>332</ele>
        <time>2023-06-18T09:52:05Z</time>
      </trkpt>
      <trkpt lat="49.46597" lon="5.71748">
        <ele>332</ele>
        <time>2023-06-18T09:52:07Z</time>
      </trkpt>
      <trkpt lat="49.46595" lon="5.71732">
        <ele>331.79998779297</ele>
        <time>2023-06-18T09:52:09Z</time>
      </trkpt>
      <trkpt lat="49.46593" lon="5.71715">
        <ele>331.60000610352</ele>
        <time>2023-06-18T09:52:11Z</time>
      </trkpt>
      <trkpt lat="49.46592" lon="5.71699">
        <ele>331.60000610352</ele>
        <time>2023-06-18T09:52:13Z</time>
      </trkpt>
      <trkpt lat="49.46591" lon="5.71683">
        <ele>331.60000610352</ele>
        <time>2023-06-18T09:52:15Z</time>
      </trkpt>
      <trkpt lat="49.46591" lon="5.71675">
        <ele>331.20001220703</ele>
        <time>2023-06-18T09:52:16Z</time>
      </trkpt>
      <trkpt lat="49.46592" lon="5.71667">
        <ele>331</ele>
        <time>2023-06-18T09:52:17Z</time>
      </trkpt>
      <trkpt lat="49.46594" lon="5.7165">
        <ele>330.60000610352</ele>
        <time>2023-06-18T09:52:19Z</time>
      </trkpt>
      <trkpt lat="49.46598" lon="5.71634">
        <ele>330.39999389648</ele>
        <time>2023-06-18T09:52:21Z</time>
      </trkpt>
      <trkpt lat="49.46601" lon="5.71626">
        <ele>330.20001220703</ele>
        <time>2023-06-18T09:52:22Z</time>
      </trkpt>
      <trkpt lat="49.46604" lon="5.71619">
        <ele>330.20001220703</ele>
        <time>2023-06-18T09:52:23Z</time>
      </trkpt>
      <trkpt lat="49.46609" lon="5.71603">
        <ele>330</ele>
        <time>2023-06-18T09:52:25Z</time>
      </trkpt>
      <trkpt lat="49.46613" lon="5.71588">
        <ele>330</ele>
        <time>2023-06-18T09:52:27Z</time>
      </trkpt>
      <trkpt lat="49.46618" lon="5.71573">
        <ele>329.79998779297</ele>
        <time>2023-06-18T09:52:29Z</time>
      </trkpt>
      <trkpt lat="49.46622" lon="5.71559">
        <ele>329.79998779297</ele>
        <time>2023-06-18T09:52:31Z</time>
      </trkpt>
      <trkpt lat="49.46627" lon="5.71545">
        <ele>329.79998779297</ele>
        <time>2023-06-18T09:52:33Z</time>
      </trkpt>
      <trkpt lat="49.46631" lon="5.71531">
        <ele>329.79998779297</ele>
        <time>2023-06-18T09:52:35Z</time>
      </trkpt>
      <trkpt lat="49.46635" lon="5.71518">
        <ele>330</ele>
        <time>2023-06-18T09:52:37Z</time>
      </trkpt>
      <trkpt lat="49.46639" lon="5.71506">
        <ele>330</ele>
        <time>2023-06-18T09:52:39Z</time>
      </trkpt>
      <trkpt lat="49.46643" lon="5.71493">
        <ele>330</ele>
        <time>2023-06-18T09:52:41Z</time>
      </trkpt>
      <trkpt lat="49.46646" lon="5.7148">
        <ele>330.20001220703</ele>
        <time>2023-06-18T09:52:43Z</time>
      </trkpt>
      <trkpt lat="49.46648" lon="5.71474">
        <ele>330.20001220703</ele>
        <time>2023-06-18T09:52:44Z</time>
      </trkpt>
      <trkpt lat="49.4665" lon="5.71467">
        <ele>330.20001220703</ele>
        <time>2023-06-18T09:52:45Z</time>
      </trkpt>
      <trkpt lat="49.46654" lon="5.71453">
        <ele>330.20001220703</ele>
        <time>2023-06-18T09:52:47Z</time>
      </trkpt>
      <trkpt lat="49.46659" lon="5.7144">
        <ele>329.60000610352</ele>
        <time>2023-06-18T09:52:49Z</time>
      </trkpt>
      <trkpt lat="49.46661" lon="5.71434">
        <ele>329.60000610352</ele>
        <time>2023-06-18T09:52:50Z</time>
      </trkpt>
      <trkpt lat="49.46662" lon="5.71427">
        <ele>329.39999389648</ele>
        <time>2023-06-18T09:52:51Z</time>
      </trkpt>
      <trkpt lat="49.46667" lon="5.71413">
        <ele>329.39999389648</ele>
        <time>2023-06-18T09:52:53Z</time>
      </trkpt>
      <trkpt lat="49.4667" lon="5.71398">
        <ele>329.20001220703</ele>
        <time>2023-06-18T09:52:55Z</time>
      </trkpt>
      <trkpt lat="49.46672" lon="5.71391">
        <ele>329.20001220703</ele>
        <time>2023-06-18T09:52:56Z</time>
      </trkpt>
      <trkpt lat="49.46674" lon="5.71384">
        <ele>328.79998779297</ele>
        <time>2023-06-18T09:52:57Z</time>
      </trkpt>
      <trkpt lat="49.46676" lon="5.71377">
        <ele>328.79998779297</ele>
        <time>2023-06-18T09:52:58Z</time>
      </trkpt>
      <trkpt lat="49.46678" lon="5.71369">
        <ele>328.60000610352</ele>
        <time>2023-06-18T09:52:59Z</time>
      </trkpt>
      <trkpt lat="49.46682" lon="5.71354">
        <ele>328.39999389648</ele>
        <time>2023-06-18T09:53:01Z</time>
      </trkpt>
      <trkpt lat="49.46686" lon="5.71339">
        <ele>328.20001220703</ele>
        <time>2023-06-18T09:53:03Z</time>
      </trkpt>
      <trkpt lat="49.46689" lon="5.71323">
        <ele>328</ele>
        <time>2023-06-18T09:53:05Z</time>
      </trkpt>
      <trkpt lat="49.46692" lon="5.71307">
        <ele>328</ele>
        <time>2023-06-18T09:53:07Z</time>
      </trkpt>
      <trkpt lat="49.46695" lon="5.71292">
        <ele>327.60000610352</ele>
        <time>2023-06-18T09:53:09Z</time>
      </trkpt>
      <trkpt lat="49.46699" lon="5.71276">
        <ele>327.39999389648</ele>
        <time>2023-06-18T09:53:11Z</time>
      </trkpt>
      <trkpt lat="49.46702" lon="5.71259">
        <ele>327.39999389648</ele>
        <time>2023-06-18T09:53:13Z</time>
      </trkpt>
      <trkpt lat="49.46705" lon="5.71242">
        <ele>327.39999389648</ele>
        <time>2023-06-18T09:53:15Z</time>
      </trkpt>
      <trkpt lat="49.46707" lon="5.71225">
        <ele>327.20001220703</ele>
        <time>2023-06-18T09:53:17Z</time>
      </trkpt>
      <trkpt lat="49.46709" lon="5.71208">
        <ele>327.20001220703</ele>
        <time>2023-06-18T09:53:19Z</time>
      </trkpt>
      <trkpt lat="49.46711" lon="5.71199">
        <ele>327</ele>
        <time>2023-06-18T09:53:20Z</time>
      </trkpt>
      <trkpt lat="49.46712" lon="5.71191">
        <ele>326.60000610352</ele>
        <time>2023-06-18T09:53:21Z</time>
      </trkpt>
      <trkpt lat="49.46714" lon="5.71174">
        <ele>326.39999389648</ele>
        <time>2023-06-18T09:53:23Z</time>
      </trkpt>
      <trkpt lat="49.46716" lon="5.71158">
        <ele>326</ele>
        <time>2023-06-18T09:53:25Z</time>
      </trkpt>
      <trkpt lat="49.46717" lon="5.7115">
        <ele>326</ele>
        <time>2023-06-18T09:53:26Z</time>
      </trkpt>
      <trkpt lat="49.46718" lon="5.71141">
        <ele>325.79998779297</ele>
        <time>2023-06-18T09:53:27Z</time>
      </trkpt>
      <trkpt lat="49.46721" lon="5.71124">
        <ele>325.39999389648</ele>
        <time>2023-06-18T09:53:29Z</time>
      </trkpt>
      <trkpt lat="49.46724" lon="5.71105">
        <ele>325.20001220703</ele>
        <time>2023-06-18T09:53:31Z</time>
      </trkpt>
      <trkpt lat="49.46725" lon="5.71096">
        <ele>325.20001220703</ele>
        <time>2023-06-18T09:53:32Z</time>
      </trkpt>
      <trkpt lat="49.46727" lon="5.71086">
        <ele>325</ele>
        <time>2023-06-18T09:53:33Z</time>
      </trkpt>
      <trkpt lat="49.46728" lon="5.71075">
        <ele>324.79998779297</ele>
        <time>2023-06-18T09:53:34Z</time>
      </trkpt>
      <trkpt lat="49.4673" lon="5.71065">
        <ele>324.60000610352</ele>
        <time>2023-06-18T09:53:35Z</time>
      </trkpt>
      <trkpt lat="49.46733" lon="5.71042">
        <ele>324.20001220703</ele>
        <time>2023-06-18T09:53:37Z</time>
      </trkpt>
      <trkpt lat="49.46736" lon="5.71018">
        <ele>323.60000610352</ele>
        <time>2023-06-18T09:53:39Z</time>
      </trkpt>
      <trkpt lat="49.46739" lon="5.71006">
        <ele>323.39999389648</ele>
        <time>2023-06-18T09:53:40Z</time>
      </trkpt>
      <trkpt lat="49.46742" lon="5.70995">
        <ele>323.20001220703</ele>
        <time>2023-06-18T09:53:41Z</time>
      </trkpt>
      <trkpt lat="49.46751" lon="5.70974">
        <ele>322.39999389648</ele>
        <time>2023-06-18T09:53:43Z</time>
      </trkpt>
      <trkpt lat="49.46755" lon="5.70963">
        <ele>321</ele>
        <time>2023-06-18T09:53:44Z</time>
      </trkpt>
      <trkpt lat="49.4676" lon="5.70954">
        <ele>320.60000610352</ele>
        <time>2023-06-18T09:53:45Z</time>
      </trkpt>
      <trkpt lat="49.46765" lon="5.70944">
        <ele>319.79998779297</ele>
        <time>2023-06-18T09:53:46Z</time>
      </trkpt>
      <trkpt lat="49.46771" lon="5.70935">
        <ele>318.79998779297</ele>
        <time>2023-06-18T09:53:47Z</time>
      </trkpt>
      <trkpt lat="49.46777" lon="5.70926">
        <ele>318.20001220703</ele>
        <time>2023-06-18T09:53:48Z</time>
      </trkpt>
      <trkpt lat="49.46784" lon="5.70916">
        <ele>317.39999389648</ele>
        <time>2023-06-18T09:53:49Z</time>
      </trkpt>
      <trkpt lat="49.46798" lon="5.70898">
        <ele>316.60000610352</ele>
        <time>2023-06-18T09:53:51Z</time>
      </trkpt>
      <trkpt lat="49.46804" lon="5.70888">
        <ele>316.20001220703</ele>
        <time>2023-06-18T09:53:52Z</time>
      </trkpt>
      <trkpt lat="49.46811" lon="5.70878">
        <ele>316</ele>
        <time>2023-06-18T09:53:53Z</time>
      </trkpt>
      <trkpt lat="49.46817" lon="5.70868">
        <ele>315.20001220703</ele>
        <time>2023-06-18T09:53:54Z</time>
      </trkpt>
      <trkpt lat="49.46824" lon="5.70859">
        <ele>314.79998779297</ele>
        <time>2023-06-18T09:53:55Z</time>
      </trkpt>
      <trkpt lat="49.4683" lon="5.7085">
        <ele>313.79998779297</ele>
        <time>2023-06-18T09:53:56Z</time>
      </trkpt>
      <trkpt lat="49.46836" lon="5.70841">
        <ele>312.79998779297</ele>
        <time>2023-06-18T09:53:57Z</time>
      </trkpt>
      <trkpt lat="49.46842" lon="5.70832">
        <ele>311.79998779297</ele>
        <time>2023-06-18T09:53:58Z</time>
      </trkpt>
      <trkpt lat="49.46848" lon="5.70823">
        <ele>310.79998779297</ele>
        <time>2023-06-18T09:53:59Z</time>
      </trkpt>
      <trkpt lat="49.46854" lon="5.70814">
        <ele>310.20001220703</ele>
        <time>2023-06-18T09:54:00Z</time>
      </trkpt>
      <trkpt lat="49.4686" lon="5.70806">
        <ele>309.79998779297</ele>
        <time>2023-06-18T09:54:01Z</time>
      </trkpt>
      <trkpt lat="49.46871" lon="5.70789">
        <ele>309.20001220703</ele>
        <time>2023-06-18T09:54:03Z</time>
      </trkpt>
      <trkpt lat="49.46881" lon="5.70772">
        <ele>308.79998779297</ele>
        <time>2023-06-18T09:54:05Z</time>
      </trkpt>
      <trkpt lat="49.46891" lon="5.70754">
        <ele>308</ele>
        <time>2023-06-18T09:54:07Z</time>
      </trkpt>
      <trkpt lat="49.46894" lon="5.70744">
        <ele>307.79998779297</ele>
        <time>2023-06-18T09:54:08Z</time>
      </trkpt>
      <trkpt lat="49.46898" lon="5.70734">
        <ele>307.60000610352</ele>
        <time>2023-06-18T09:54:09Z</time>
      </trkpt>
      <trkpt lat="49.469" lon="5.70724">
        <ele>307.39999389648</ele>
        <time>2023-06-18T09:54:10Z</time>
      </trkpt>
      <trkpt lat="49.46903" lon="5.70714">
        <ele>307.20001220703</ele>
        <time>2023-06-18T09:54:11Z</time>
      </trkpt>
      <trkpt lat="49.46907" lon="5.70693">
        <ele>307</ele>
        <time>2023-06-18T09:54:13Z</time>
      </trkpt>
      <trkpt lat="49.46911" lon="5.70671">
        <ele>306.79998779297</ele>
        <time>2023-06-18T09:54:15Z</time>
      </trkpt>
      <trkpt lat="49.46912" lon="5.70661">
        <ele>306.79998779297</ele>
        <time>2023-06-18T09:54:16Z</time>
      </trkpt>
      <trkpt lat="49.46914" lon="5.7065">
        <ele>306.60000610352</ele>
        <time>2023-06-18T09:54:17Z</time>
      </trkpt>
      <trkpt lat="49.46918" lon="5.70629">
        <ele>306.60000610352</ele>
        <time>2023-06-18T09:54:19Z</time>
      </trkpt>
      <trkpt lat="49.46921" lon="5.70608">
        <ele>306.39999389648</ele>
        <time>2023-06-18T09:54:21Z</time>
      </trkpt>
      <trkpt lat="49.46924" lon="5.70586">
        <ele>306.20001220703</ele>
        <time>2023-06-18T09:54:23Z</time>
      </trkpt>
      <trkpt lat="49.46926" lon="5.70565">
        <ele>306</ele>
        <time>2023-06-18T09:54:25Z</time>
      </trkpt>
      <trkpt lat="49.46928" lon="5.70543">
        <ele>305.60000610352</ele>
        <time>2023-06-18T09:54:27Z</time>
      </trkpt>
      <trkpt lat="49.46929" lon="5.70533">
        <ele>305.39999389648</ele>
        <time>2023-06-18T09:54:28Z</time>
      </trkpt>
      <trkpt lat="49.4693" lon="5.70522">
        <ele>305.39999389648</ele>
        <time>2023-06-18T09:54:29Z</time>
      </trkpt>
      <trkpt lat="49.46932" lon="5.70513">
        <ele>305.20001220703</ele>
        <time>2023-06-18T09:54:30Z</time>
      </trkpt>
      <trkpt lat="49.46935" lon="5.70503">
        <ele>305</ele>
        <time>2023-06-18T09:54:31Z</time>
      </trkpt>
      <trkpt lat="49.46938" lon="5.70493">
        <ele>304.79998779297</ele>
        <time>2023-06-18T09:54:32Z</time>
      </trkpt>
      <trkpt lat="49.46941" lon="5.70484">
        <ele>304.60000610352</ele>
        <time>2023-06-18T09:54:33Z</time>
      </trkpt>
      <trkpt lat="49.46948" lon="5.70466">
        <ele>304.20001220703</ele>
        <time>2023-06-18T09:54:35Z</time>
      </trkpt>
      <trkpt lat="49.46952" lon="5.70458">
        <ele>304</ele>
        <time>2023-06-18T09:54:36Z</time>
      </trkpt>
      <trkpt lat="49.46955" lon="5.70449">
        <ele>303.79998779297</ele>
        <time>2023-06-18T09:54:37Z</time>
      </trkpt>
      <trkpt lat="49.46958" lon="5.7044">
        <ele>303.79998779297</ele>
        <time>2023-06-18T09:54:38Z</time>
      </trkpt>
      <trkpt lat="49.46961" lon="5.70432">
        <ele>303.60000610352</ele>
        <time>2023-06-18T09:54:39Z</time>
      </trkpt>
      <trkpt lat="49.46965" lon="5.70423">
        <ele>303.39999389648</ele>
        <time>2023-06-18T09:54:40Z</time>
      </trkpt>
      <trkpt lat="49.46968" lon="5.70415">
        <ele>303.20001220703</ele>
        <time>2023-06-18T09:54:41Z</time>
      </trkpt>
      <trkpt lat="49.46976" lon="5.70398">
        <ele>303</ele>
        <time>2023-06-18T09:54:43Z</time>
      </trkpt>
      <trkpt lat="49.46984" lon="5.70382">
        <ele>302.79998779297</ele>
        <time>2023-06-18T09:54:45Z</time>
      </trkpt>
      <trkpt lat="49.46993" lon="5.70366">
        <ele>302.79998779297</ele>
        <time>2023-06-18T09:54:47Z</time>
      </trkpt>
      <trkpt lat="49.46997" lon="5.70359">
        <ele>302.79998779297</ele>
        <time>2023-06-18T09:54:48Z</time>
      </trkpt>
      <trkpt lat="49.47001" lon="5.70351">
        <ele>302.60000610352</ele>
        <time>2023-06-18T09:54:49Z</time>
      </trkpt>
      <trkpt lat="49.47009" lon="5.70337">
        <ele>302.39999389648</ele>
        <time>2023-06-18T09:54:51Z</time>
      </trkpt>
      <trkpt lat="49.47017" lon="5.70322">
        <ele>302</ele>
        <time>2023-06-18T09:54:53Z</time>
      </trkpt>
      <trkpt lat="49.47023" lon="5.70306">
        <ele>301.79998779297</ele>
        <time>2023-06-18T09:54:55Z</time>
      </trkpt>
      <trkpt lat="49.47025" lon="5.70297">
        <ele>301.79998779297</ele>
        <time>2023-06-18T09:54:56Z</time>
      </trkpt>
      <trkpt lat="49.47027" lon="5.70288">
        <ele>301.79998779297</ele>
        <time>2023-06-18T09:54:57Z</time>
      </trkpt>
      <trkpt lat="49.4703" lon="5.70271">
        <ele>301.60000610352</ele>
        <time>2023-06-18T09:54:59Z</time>
      </trkpt>
      <trkpt lat="49.47032" lon="5.70262">
        <ele>301.60000610352</ele>
        <time>2023-06-18T09:55:00Z</time>
      </trkpt>
      <trkpt lat="49.47033" lon="5.70253">
        <ele>301.39999389648</ele>
        <time>2023-06-18T09:55:01Z</time>
      </trkpt>
      <trkpt lat="49.47036" lon="5.70236">
        <ele>301.39999389648</ele>
        <time>2023-06-18T09:55:03Z</time>
      </trkpt>
      <trkpt lat="49.4704" lon="5.70218">
        <ele>301.20001220703</ele>
        <time>2023-06-18T09:55:05Z</time>
      </trkpt>
      <trkpt lat="49.47044" lon="5.702">
        <ele>301.20001220703</ele>
        <time>2023-06-18T09:55:07Z</time>
      </trkpt>
      <trkpt lat="49.47047" lon="5.70181">
        <ele>300.60000610352</ele>
        <time>2023-06-18T09:55:09Z</time>
      </trkpt>
      <trkpt lat="49.47049" lon="5.70162">
        <ele>300.20001220703</ele>
        <time>2023-06-18T09:55:11Z</time>
      </trkpt>
      <trkpt lat="49.47053" lon="5.70142">
        <ele>299.39999389648</ele>
        <time>2023-06-18T09:55:13Z</time>
      </trkpt>
      <trkpt lat="49.47057" lon="5.70122">
        <ele>299</ele>
        <time>2023-06-18T09:55:15Z</time>
      </trkpt>
      <trkpt lat="49.47058" lon="5.701">
        <ele>298.60000610352</ele>
        <time>2023-06-18T09:55:17Z</time>
      </trkpt>
      <trkpt lat="49.47055" lon="5.70078">
        <ele>298</ele>
        <time>2023-06-18T09:55:19Z</time>
      </trkpt>
      <trkpt lat="49.4705" lon="5.70068">
        <ele>297.20001220703</ele>
        <time>2023-06-18T09:55:20Z</time>
      </trkpt>
      <trkpt lat="49.47046" lon="5.70059">
        <ele>296.60000610352</ele>
        <time>2023-06-18T09:55:21Z</time>
      </trkpt>
      <trkpt lat="49.47042" lon="5.7005">
        <ele>296.39999389648</ele>
        <time>2023-06-18T09:55:22Z</time>
      </trkpt>
      <trkpt lat="49.4704" lon="5.70041">
        <ele>296</ele>
        <time>2023-06-18T09:55:23Z</time>
      </trkpt>
      <trkpt lat="49.47037" lon="5.70032">
        <ele>295.79998779297</ele>
        <time>2023-06-18T09:55:24Z</time>
      </trkpt>
      <trkpt lat="49.47034" lon="5.70022">
        <ele>295.39999389648</ele>
        <time>2023-06-18T09:55:25Z</time>
      </trkpt>
      <trkpt lat="49.4703" lon="5.70001">
        <ele>294.20001220703</ele>
        <time>2023-06-18T09:55:27Z</time>
      </trkpt>
      <trkpt lat="49.47024" lon="5.69982">
        <ele>293.60000610352</ele>
        <time>2023-06-18T09:55:29Z</time>
      </trkpt>
      <trkpt lat="49.47021" lon="5.69974">
        <ele>293.39999389648</ele>
        <time>2023-06-18T09:55:30Z</time>
      </trkpt>
      <trkpt lat="49.47017" lon="5.69968">
        <ele>293.39999389648</ele>
        <time>2023-06-18T09:55:31Z</time>
      </trkpt>
      <trkpt lat="49.47012" lon="5.69964">
        <ele>293.20001220703</ele>
        <time>2023-06-18T09:55:32Z</time>
      </trkpt>
      <trkpt lat="49.47007" lon="5.69962">
        <ele>293.20001220703</ele>
        <time>2023-06-18T09:55:33Z</time>
      </trkpt>
      <trkpt lat="49.46996" lon="5.69959">
        <ele>293</ele>
        <time>2023-06-18T09:55:35Z</time>
      </trkpt>
      <trkpt lat="49.46986" lon="5.69956">
        <ele>293</ele>
        <time>2023-06-18T09:55:37Z</time>
      </trkpt>
      <trkpt lat="49.46977" lon="5.69952">
        <ele>293</ele>
        <time>2023-06-18T09:55:39Z</time>
      </trkpt>
      <trkpt lat="49.46968" lon="5.69949">
        <ele>293.20001220703</ele>
        <time>2023-06-18T09:55:41Z</time>
      </trkpt>
      <trkpt lat="49.46959" lon="5.69945">
        <ele>293.60000610352</ele>
        <time>2023-06-18T09:55:43Z</time>
      </trkpt>
      <trkpt lat="49.4695" lon="5.69942">
        <ele>294.20001220703</ele>
        <time>2023-06-18T09:55:45Z</time>
      </trkpt>
      <trkpt lat="49.46941" lon="5.69938">
        <ele>294.79998779297</ele>
        <time>2023-06-18T09:55:47Z</time>
      </trkpt>
      <trkpt lat="49.46932" lon="5.69934">
        <ele>295.20001220703</ele>
        <time>2023-06-18T09:55:49Z</time>
      </trkpt>
      <trkpt lat="49.46922" lon="5.69931">
        <ele>295.79998779297</ele>
        <time>2023-06-18T09:55:51Z</time>
      </trkpt>
      <trkpt lat="49.46914" lon="5.69928">
        <ele>296</ele>
        <time>2023-06-18T09:55:53Z</time>
      </trkpt>
      <trkpt lat="49.4691" lon="5.69926">
        <ele>296.39999389648</ele>
        <time>2023-06-18T09:55:54Z</time>
      </trkpt>
      <trkpt lat="49.46906" lon="5.69925">
        <ele>296.79998779297</ele>
        <time>2023-06-18T09:55:55Z</time>
      </trkpt>
      <trkpt lat="49.46899" lon="5.69923">
        <ele>297.39999389648</ele>
        <time>2023-06-18T09:55:57Z</time>
      </trkpt>
      <trkpt lat="49.46896" lon="5.69922">
        <ele>297.79998779297</ele>
        <time>2023-06-18T09:55:58Z</time>
      </trkpt>
      <trkpt lat="49.46892" lon="5.6992">
        <ele>298</ele>
        <time>2023-06-18T09:55:59Z</time>
      </trkpt>
      <trkpt lat="49.46886" lon="5.69918">
        <ele>298.60000610352</ele>
        <time>2023-06-18T09:56:01Z</time>
      </trkpt>
      <trkpt lat="49.46882" lon="5.69917">
        <ele>298.79998779297</ele>
        <time>2023-06-18T09:56:02Z</time>
      </trkpt>
      <trkpt lat="49.46879" lon="5.69916">
        <ele>299</ele>
        <time>2023-06-18T09:56:03Z</time>
      </trkpt>
      <trkpt lat="49.46873" lon="5.69916">
        <ele>299.79998779297</ele>
        <time>2023-06-18T09:56:05Z</time>
      </trkpt>
      <trkpt lat="49.46871" lon="5.69916">
        <ele>300</ele>
        <time>2023-06-18T09:56:06Z</time>
      </trkpt>
      <trkpt lat="49.46868" lon="5.69916">
        <ele>300.20001220703</ele>
        <time>2023-06-18T09:56:07Z</time>
      </trkpt>
      <trkpt lat="49.46865" lon="5.69918">
        <ele>300.39999389648</ele>
        <time>2023-06-18T09:56:08Z</time>
      </trkpt>
      <trkpt lat="49.46863" lon="5.69919">
        <ele>300.60000610352</ele>
        <time>2023-06-18T09:56:09Z</time>
      </trkpt>
      <trkpt lat="49.46858" lon="5.69923">
        <ele>300.79998779297</ele>
        <time>2023-06-18T09:56:11Z</time>
      </trkpt>
      <trkpt lat="49.46854" lon="5.69927">
        <ele>301</ele>
        <time>2023-06-18T09:56:13Z</time>
      </trkpt>
      <trkpt lat="49.46853" lon="5.69929">
        <ele>301</ele>
        <time>2023-06-18T09:56:14Z</time>
      </trkpt>
      <trkpt lat="49.46851" lon="5.69932">
        <ele>301</ele>
        <time>2023-06-18T09:56:15Z</time>
      </trkpt>
      <trkpt lat="49.46849" lon="5.69935">
        <ele>301.20001220703</ele>
        <time>2023-06-18T09:56:16Z</time>
      </trkpt>
      <trkpt lat="49.46847" lon="5.69938">
        <ele>301.20001220703</ele>
        <time>2023-06-18T09:56:17Z</time>
      </trkpt>
      <trkpt lat="49.46843" lon="5.69943">
        <ele>301.60000610352</ele>
        <time>2023-06-18T09:56:19Z</time>
      </trkpt>
      <trkpt lat="49.46839" lon="5.69948">
        <ele>301.60000610352</ele>
        <time>2023-06-18T09:56:21Z</time>
      </trkpt>
      <trkpt lat="49.46836" lon="5.69953">
        <ele>302</ele>
        <time>2023-06-18T09:56:23Z</time>
      </trkpt>
      <trkpt lat="49.46831" lon="5.69958">
        <ele>302.20001220703</ele>
        <time>2023-06-18T09:56:25Z</time>
      </trkpt>
      <trkpt lat="49.46827" lon="5.69962">
        <ele>302.39999389648</ele>
        <time>2023-06-18T09:56:27Z</time>
      </trkpt>
      <trkpt lat="49.46823" lon="5.69967">
        <ele>302.39999389648</ele>
        <time>2023-06-18T09:56:29Z</time>
      </trkpt>
      <trkpt lat="49.46819" lon="5.69972">
        <ele>302.79998779297</ele>
        <time>2023-06-18T09:56:31Z</time>
      </trkpt>
      <trkpt lat="49.46815" lon="5.69977">
        <ele>303</ele>
        <time>2023-06-18T09:56:33Z</time>
      </trkpt>
      <trkpt lat="49.46812" lon="5.69981">
        <ele>303.20001220703</ele>
        <time>2023-06-18T09:56:35Z</time>
      </trkpt>
      <trkpt lat="49.46808" lon="5.69986">
        <ele>303.20001220703</ele>
        <time>2023-06-18T09:56:37Z</time>
      </trkpt>
      <trkpt lat="49.46804" lon="5.69989">
        <ele>303.39999389648</ele>
        <time>2023-06-18T09:56:39Z</time>
      </trkpt>
      <trkpt lat="49.468" lon="5.69993">
        <ele>303.39999389648</ele>
        <time>2023-06-18T09:56:41Z</time>
      </trkpt>
    </trkseg>
  </trk>
</gpx>